<?xml version="1.0" encoding="UTF-8" standalone="no" ?>
<gpx xmlns="http://www.topografix.com/GPX/1/1" xmlns:xsi="http://www.w3.org/2001/XMLSchema-instance" xsi:schemaLocation="http://www.topografix.com/GPX/1/1 http://www.topografix.com/GPX/1/1/gpx.xsd" version="1.1" creator="VisuGPX - https://www.visugpx.com">
  <metadata>
    <name>St Nazaire de Ladarez</name>
    <desc><![CDATA[Saint Nazaire  de Ladarez]]></desc>
  </metadata>
  <trk>
    <name><![CDATA[St Nazaire de Ladarez_1]]></name>
    <trkseg>
      <trkpt lat="43.52539" lon="3.07697">
        <ele>387.5</ele>
        <time>2015-11-29T07:57:54Z</time>
      </trkpt>
      <trkpt lat="43.52541" lon="3.07689">
        <ele>390</ele>
        <time>2015-11-29T07:57:55Z</time>
      </trkpt>
      <trkpt lat="43.52541" lon="3.07686">
        <ele>390.5</ele>
        <time>2015-11-29T07:57:56Z</time>
      </trkpt>
      <trkpt lat="43.52542" lon="3.07681">
        <ele>392.5</ele>
        <time>2015-11-29T07:57:57Z</time>
      </trkpt>
      <trkpt lat="43.52542" lon="3.07678">
        <ele>394</ele>
        <time>2015-11-29T07:57:58Z</time>
      </trkpt>
      <trkpt lat="43.52542" lon="3.07675">
        <ele>395.5</ele>
        <time>2015-11-29T07:57:59Z</time>
      </trkpt>
      <trkpt lat="43.52542" lon="3.07672">
        <ele>396</ele>
        <time>2015-11-29T07:58:00Z</time>
      </trkpt>
      <trkpt lat="43.52542" lon="3.07669">
        <ele>396.5</ele>
        <time>2015-11-29T07:58:01Z</time>
      </trkpt>
      <trkpt lat="43.52542" lon="3.07666">
        <ele>398</ele>
        <time>2015-11-29T07:58:02Z</time>
      </trkpt>
      <trkpt lat="43.52542" lon="3.07664">
        <ele>399</ele>
        <time>2015-11-29T07:58:03Z</time>
      </trkpt>
      <trkpt lat="43.52542" lon="3.07661">
        <ele>400</ele>
        <time>2015-11-29T07:58:04Z</time>
      </trkpt>
      <trkpt lat="43.52541" lon="3.07658">
        <ele>401</ele>
        <time>2015-11-29T07:58:05Z</time>
      </trkpt>
      <trkpt lat="43.52541" lon="3.07655">
        <ele>402.5</ele>
        <time>2015-11-29T07:58:06Z</time>
      </trkpt>
      <trkpt lat="43.52541" lon="3.07652">
        <ele>404.5</ele>
        <time>2015-11-29T07:58:07Z</time>
      </trkpt>
      <trkpt lat="43.52541" lon="3.0765">
        <ele>406</ele>
        <time>2015-11-29T07:58:08Z</time>
      </trkpt>
      <trkpt lat="43.52543" lon="3.07649">
        <ele>405</ele>
        <time>2015-11-29T07:58:09Z</time>
      </trkpt>
      <trkpt lat="43.52544" lon="3.07648">
        <ele>405</ele>
        <time>2015-11-29T07:58:10Z</time>
      </trkpt>
      <trkpt lat="43.52545" lon="3.07646">
        <ele>405.5</ele>
        <time>2015-11-29T07:58:11Z</time>
      </trkpt>
      <trkpt lat="43.52546" lon="3.07645">
        <ele>405</ele>
        <time>2015-11-29T07:58:12Z</time>
      </trkpt>
      <trkpt lat="43.52548" lon="3.07643">
        <ele>405</ele>
        <time>2015-11-29T07:58:13Z</time>
      </trkpt>
      <trkpt lat="43.52549" lon="3.07642">
        <ele>405</ele>
        <time>2015-11-29T07:58:14Z</time>
      </trkpt>
      <trkpt lat="43.52551" lon="3.07641">
        <ele>404.5</ele>
        <time>2015-11-29T07:58:15Z</time>
      </trkpt>
      <trkpt lat="43.52553" lon="3.0764">
        <ele>403.5</ele>
        <time>2015-11-29T07:58:16Z</time>
      </trkpt>
      <trkpt lat="43.52555" lon="3.07639">
        <ele>403.5</ele>
        <time>2015-11-29T07:58:17Z</time>
      </trkpt>
      <trkpt lat="43.52556" lon="3.07638">
        <ele>404</ele>
        <time>2015-11-29T07:58:18Z</time>
      </trkpt>
      <trkpt lat="43.52558" lon="3.07636">
        <ele>403.5</ele>
        <time>2015-11-29T07:58:19Z</time>
      </trkpt>
      <trkpt lat="43.52559" lon="3.07635">
        <ele>403</ele>
        <time>2015-11-29T07:58:20Z</time>
      </trkpt>
      <trkpt lat="43.52561" lon="3.07634">
        <ele>402.5</ele>
        <time>2015-11-29T07:58:21Z</time>
      </trkpt>
      <trkpt lat="43.52563" lon="3.07633">
        <ele>402</ele>
        <time>2015-11-29T07:58:22Z</time>
      </trkpt>
      <trkpt lat="43.52564" lon="3.07632">
        <ele>402</ele>
        <time>2015-11-29T07:58:23Z</time>
      </trkpt>
      <trkpt lat="43.52566" lon="3.0763">
        <ele>402</ele>
        <time>2015-11-29T07:58:24Z</time>
      </trkpt>
      <trkpt lat="43.52567" lon="3.07628">
        <ele>403</ele>
        <time>2015-11-29T07:58:25Z</time>
      </trkpt>
      <trkpt lat="43.52569" lon="3.07628">
        <ele>402.5</ele>
        <time>2015-11-29T07:58:26Z</time>
      </trkpt>
      <trkpt lat="43.5257" lon="3.07625">
        <ele>404.5</ele>
        <time>2015-11-29T07:58:27Z</time>
      </trkpt>
      <trkpt lat="43.52571" lon="3.07623">
        <ele>405</ele>
        <time>2015-11-29T07:58:28Z</time>
      </trkpt>
      <trkpt lat="43.52573" lon="3.07621">
        <ele>405.5</ele>
        <time>2015-11-29T07:58:29Z</time>
      </trkpt>
      <trkpt lat="43.52575" lon="3.0762">
        <ele>404.5</ele>
        <time>2015-11-29T07:58:30Z</time>
      </trkpt>
      <trkpt lat="43.52577" lon="3.07619">
        <ele>404.5</ele>
        <time>2015-11-29T07:58:31Z</time>
      </trkpt>
      <trkpt lat="43.52578" lon="3.07618">
        <ele>404</ele>
        <time>2015-11-29T07:58:32Z</time>
      </trkpt>
      <trkpt lat="43.5258" lon="3.07616">
        <ele>405</ele>
        <time>2015-11-29T07:58:33Z</time>
      </trkpt>
      <trkpt lat="43.52581" lon="3.07615">
        <ele>405</ele>
        <time>2015-11-29T07:58:34Z</time>
      </trkpt>
      <trkpt lat="43.52582" lon="3.07613">
        <ele>405.5</ele>
        <time>2015-11-29T07:58:35Z</time>
      </trkpt>
      <trkpt lat="43.52584" lon="3.07612">
        <ele>406</ele>
        <time>2015-11-29T07:58:36Z</time>
      </trkpt>
      <trkpt lat="43.52585" lon="3.0761">
        <ele>406</ele>
        <time>2015-11-29T07:58:37Z</time>
      </trkpt>
      <trkpt lat="43.52587" lon="3.07609">
        <ele>406</ele>
        <time>2015-11-29T07:58:38Z</time>
      </trkpt>
      <trkpt lat="43.52587" lon="3.07607">
        <ele>408</ele>
        <time>2015-11-29T07:58:39Z</time>
      </trkpt>
      <trkpt lat="43.52588" lon="3.07605">
        <ele>409</ele>
        <time>2015-11-29T07:58:40Z</time>
      </trkpt>
      <trkpt lat="43.5259" lon="3.07605">
        <ele>408</ele>
        <time>2015-11-29T07:58:41Z</time>
      </trkpt>
      <trkpt lat="43.52591" lon="3.07603">
        <ele>409</ele>
        <time>2015-11-29T07:58:42Z</time>
      </trkpt>
      <trkpt lat="43.52592" lon="3.07601">
        <ele>409.5</ele>
        <time>2015-11-29T07:58:43Z</time>
      </trkpt>
      <trkpt lat="43.52594" lon="3.076">
        <ele>408.5</ele>
        <time>2015-11-29T07:58:44Z</time>
      </trkpt>
      <trkpt lat="43.52596" lon="3.07599">
        <ele>408</ele>
        <time>2015-11-29T07:58:45Z</time>
      </trkpt>
      <trkpt lat="43.52597" lon="3.07598">
        <ele>408</ele>
        <time>2015-11-29T07:58:46Z</time>
      </trkpt>
      <trkpt lat="43.52599" lon="3.07595">
        <ele>409.5</ele>
        <time>2015-11-29T07:58:47Z</time>
      </trkpt>
      <trkpt lat="43.526" lon="3.07592">
        <ele>411.5</ele>
        <time>2015-11-29T07:58:48Z</time>
      </trkpt>
      <trkpt lat="43.52601" lon="3.07591">
        <ele>412</ele>
        <time>2015-11-29T07:58:49Z</time>
      </trkpt>
      <trkpt lat="43.52602" lon="3.07589">
        <ele>413</ele>
        <time>2015-11-29T07:58:50Z</time>
      </trkpt>
      <trkpt lat="43.52603" lon="3.07587">
        <ele>414.5</ele>
        <time>2015-11-29T07:58:51Z</time>
      </trkpt>
      <trkpt lat="43.52604" lon="3.07585">
        <ele>416</ele>
        <time>2015-11-29T07:58:52Z</time>
      </trkpt>
      <trkpt lat="43.52605" lon="3.07583">
        <ele>417</ele>
        <time>2015-11-29T07:58:53Z</time>
      </trkpt>
      <trkpt lat="43.52607" lon="3.07582">
        <ele>416.5</ele>
        <time>2015-11-29T07:58:54Z</time>
      </trkpt>
      <trkpt lat="43.52609" lon="3.07581">
        <ele>416</ele>
        <time>2015-11-29T07:58:55Z</time>
      </trkpt>
      <trkpt lat="43.5261" lon="3.0758">
        <ele>415.5</ele>
        <time>2015-11-29T07:58:56Z</time>
      </trkpt>
      <trkpt lat="43.52612" lon="3.0758">
        <ele>415</ele>
        <time>2015-11-29T07:58:57Z</time>
      </trkpt>
      <trkpt lat="43.52613" lon="3.07578">
        <ele>415.5</ele>
        <time>2015-11-29T07:58:58Z</time>
      </trkpt>
      <trkpt lat="43.52615" lon="3.07577">
        <ele>416</ele>
        <time>2015-11-29T07:58:59Z</time>
      </trkpt>
      <trkpt lat="43.52616" lon="3.07575">
        <ele>417</ele>
        <time>2015-11-29T07:59:00Z</time>
      </trkpt>
      <trkpt lat="43.52617" lon="3.07572">
        <ele>418.5</ele>
        <time>2015-11-29T07:59:01Z</time>
      </trkpt>
      <trkpt lat="43.52618" lon="3.07571">
        <ele>419</ele>
        <time>2015-11-29T07:59:02Z</time>
      </trkpt>
      <trkpt lat="43.52619" lon="3.07569">
        <ele>420</ele>
        <time>2015-11-29T07:59:03Z</time>
      </trkpt>
      <trkpt lat="43.52621" lon="3.07568">
        <ele>420</ele>
        <time>2015-11-29T07:59:04Z</time>
      </trkpt>
      <trkpt lat="43.52622" lon="3.07567">
        <ele>419.5</ele>
        <time>2015-11-29T07:59:05Z</time>
      </trkpt>
      <trkpt lat="43.52624" lon="3.07566">
        <ele>419.5</ele>
        <time>2015-11-29T07:59:06Z</time>
      </trkpt>
      <trkpt lat="43.52626" lon="3.07565">
        <ele>419.5</ele>
        <time>2015-11-29T07:59:07Z</time>
      </trkpt>
      <trkpt lat="43.52627" lon="3.07564">
        <ele>419.5</ele>
        <time>2015-11-29T07:59:08Z</time>
      </trkpt>
      <trkpt lat="43.52629" lon="3.07563">
        <ele>420</ele>
        <time>2015-11-29T07:59:09Z</time>
      </trkpt>
      <trkpt lat="43.5263" lon="3.07562">
        <ele>420</ele>
        <time>2015-11-29T07:59:10Z</time>
      </trkpt>
      <trkpt lat="43.52632" lon="3.07561">
        <ele>419.5</ele>
        <time>2015-11-29T07:59:11Z</time>
      </trkpt>
      <trkpt lat="43.52634" lon="3.07561">
        <ele>419</ele>
        <time>2015-11-29T07:59:12Z</time>
      </trkpt>
      <trkpt lat="43.52635" lon="3.07559">
        <ele>420</ele>
        <time>2015-11-29T07:59:13Z</time>
      </trkpt>
      <trkpt lat="43.52637" lon="3.07558">
        <ele>420</ele>
        <time>2015-11-29T07:59:14Z</time>
      </trkpt>
      <trkpt lat="43.52638" lon="3.07557">
        <ele>421</ele>
        <time>2015-11-29T07:59:15Z</time>
      </trkpt>
      <trkpt lat="43.52639" lon="3.07555">
        <ele>421.5</ele>
        <time>2015-11-29T07:59:16Z</time>
      </trkpt>
      <trkpt lat="43.5264" lon="3.07554">
        <ele>422.5</ele>
        <time>2015-11-29T07:59:17Z</time>
      </trkpt>
      <trkpt lat="43.52641" lon="3.07553">
        <ele>422.5</ele>
        <time>2015-11-29T07:59:18Z</time>
      </trkpt>
      <trkpt lat="43.52643" lon="3.07552">
        <ele>421.5</ele>
        <time>2015-11-29T07:59:19Z</time>
      </trkpt>
      <trkpt lat="43.52645" lon="3.07549">
        <ele>422.5</ele>
        <time>2015-11-29T07:59:20Z</time>
      </trkpt>
      <trkpt lat="43.52646" lon="3.07549">
        <ele>422</ele>
        <time>2015-11-29T07:59:21Z</time>
      </trkpt>
      <trkpt lat="43.52648" lon="3.07547">
        <ele>422</ele>
        <time>2015-11-29T07:59:22Z</time>
      </trkpt>
      <trkpt lat="43.52649" lon="3.07545">
        <ele>421.5</ele>
        <time>2015-11-29T07:59:23Z</time>
      </trkpt>
      <trkpt lat="43.5265" lon="3.07544">
        <ele>421.5</ele>
        <time>2015-11-29T07:59:24Z</time>
      </trkpt>
      <trkpt lat="43.52651" lon="3.07542">
        <ele>422</ele>
        <time>2015-11-29T07:59:25Z</time>
      </trkpt>
      <trkpt lat="43.52652" lon="3.0754">
        <ele>422</ele>
        <time>2015-11-29T07:59:26Z</time>
      </trkpt>
      <trkpt lat="43.52652" lon="3.07537">
        <ele>423</ele>
        <time>2015-11-29T07:59:27Z</time>
      </trkpt>
      <trkpt lat="43.52652" lon="3.07535">
        <ele>423</ele>
        <time>2015-11-29T07:59:28Z</time>
      </trkpt>
      <trkpt lat="43.52653" lon="3.07533">
        <ele>423.5</ele>
        <time>2015-11-29T07:59:29Z</time>
      </trkpt>
      <trkpt lat="43.52653" lon="3.0753">
        <ele>423</ele>
        <time>2015-11-29T07:59:30Z</time>
      </trkpt>
      <trkpt lat="43.52653" lon="3.07528">
        <ele>423.5</ele>
        <time>2015-11-29T07:59:31Z</time>
      </trkpt>
      <trkpt lat="43.52653" lon="3.07526">
        <ele>423.5</ele>
        <time>2015-11-29T07:59:32Z</time>
      </trkpt>
      <trkpt lat="43.5265" lon="3.07519">
        <ele>424.5</ele>
        <time>2015-11-29T07:59:34Z</time>
      </trkpt>
      <trkpt lat="43.52649" lon="3.07517">
        <ele>426</ele>
        <time>2015-11-29T07:59:35Z</time>
      </trkpt>
      <trkpt lat="43.52649" lon="3.07515">
        <ele>426.5</ele>
        <time>2015-11-29T07:59:36Z</time>
      </trkpt>
      <trkpt lat="43.52648" lon="3.07513">
        <ele>427</ele>
        <time>2015-11-29T07:59:37Z</time>
      </trkpt>
      <trkpt lat="43.52647" lon="3.07511">
        <ele>427.5</ele>
        <time>2015-11-29T07:59:38Z</time>
      </trkpt>
      <trkpt lat="43.52646" lon="3.07508">
        <ele>427.5</ele>
        <time>2015-11-29T07:59:39Z</time>
      </trkpt>
      <trkpt lat="43.52646" lon="3.07506">
        <ele>428</ele>
        <time>2015-11-29T07:59:40Z</time>
      </trkpt>
      <trkpt lat="43.52644" lon="3.07504">
        <ele>428.5</ele>
        <time>2015-11-29T07:59:41Z</time>
      </trkpt>
      <trkpt lat="43.52644" lon="3.07502">
        <ele>428.5</ele>
        <time>2015-11-29T07:59:42Z</time>
      </trkpt>
      <trkpt lat="43.52643" lon="3.075">
        <ele>428.5</ele>
        <time>2015-11-29T07:59:43Z</time>
      </trkpt>
      <trkpt lat="43.52642" lon="3.07497">
        <ele>428.5</ele>
        <time>2015-11-29T07:59:44Z</time>
      </trkpt>
      <trkpt lat="43.52641" lon="3.07495">
        <ele>429</ele>
        <time>2015-11-29T07:59:45Z</time>
      </trkpt>
      <trkpt lat="43.5264" lon="3.07493">
        <ele>429.5</ele>
        <time>2015-11-29T07:59:46Z</time>
      </trkpt>
      <trkpt lat="43.52639" lon="3.07491">
        <ele>430</ele>
        <time>2015-11-29T07:59:47Z</time>
      </trkpt>
      <trkpt lat="43.52638" lon="3.07488">
        <ele>430.5</ele>
        <time>2015-11-29T07:59:48Z</time>
      </trkpt>
      <trkpt lat="43.52637" lon="3.07485">
        <ele>431.5</ele>
        <time>2015-11-29T07:59:49Z</time>
      </trkpt>
      <trkpt lat="43.52636" lon="3.07483">
        <ele>432</ele>
        <time>2015-11-29T07:59:50Z</time>
      </trkpt>
      <trkpt lat="43.52635" lon="3.07478">
        <ele>432</ele>
        <time>2015-11-29T07:59:52Z</time>
      </trkpt>
      <trkpt lat="43.52633" lon="3.07477">
        <ele>433</ele>
        <time>2015-11-29T07:59:53Z</time>
      </trkpt>
      <trkpt lat="43.52633" lon="3.07476">
        <ele>433</ele>
        <time>2015-11-29T07:59:54Z</time>
      </trkpt>
      <trkpt lat="43.52632" lon="3.07474">
        <ele>433</ele>
        <time>2015-11-29T07:59:55Z</time>
      </trkpt>
      <trkpt lat="43.52631" lon="3.07472">
        <ele>433</ele>
        <time>2015-11-29T07:59:56Z</time>
      </trkpt>
      <trkpt lat="43.5263" lon="3.0747">
        <ele>433.5</ele>
        <time>2015-11-29T07:59:57Z</time>
      </trkpt>
      <trkpt lat="43.52629" lon="3.07469">
        <ele>433</ele>
        <time>2015-11-29T07:59:58Z</time>
      </trkpt>
      <trkpt lat="43.52628" lon="3.07467">
        <ele>433.5</ele>
        <time>2015-11-29T07:59:59Z</time>
      </trkpt>
      <trkpt lat="43.52627" lon="3.07457">
        <ele>433.5</ele>
        <time>2015-11-29T08:00:01Z</time>
      </trkpt>
      <trkpt lat="43.52626" lon="3.07455">
        <ele>433.5</ele>
        <time>2015-11-29T08:00:02Z</time>
      </trkpt>
      <trkpt lat="43.52625" lon="3.07453">
        <ele>433.5</ele>
        <time>2015-11-29T08:00:03Z</time>
      </trkpt>
      <trkpt lat="43.52624" lon="3.07451">
        <ele>433</ele>
        <time>2015-11-29T08:00:04Z</time>
      </trkpt>
      <trkpt lat="43.52624" lon="3.07449">
        <ele>433</ele>
        <time>2015-11-29T08:00:05Z</time>
      </trkpt>
      <trkpt lat="43.52623" lon="3.07448">
        <ele>433</ele>
        <time>2015-11-29T08:00:06Z</time>
      </trkpt>
      <trkpt lat="43.52621" lon="3.07446">
        <ele>433</ele>
        <time>2015-11-29T08:00:07Z</time>
      </trkpt>
      <trkpt lat="43.52621" lon="3.07444">
        <ele>433</ele>
        <time>2015-11-29T08:00:08Z</time>
      </trkpt>
      <trkpt lat="43.5262" lon="3.07443">
        <ele>433</ele>
        <time>2015-11-29T08:00:09Z</time>
      </trkpt>
      <trkpt lat="43.5262" lon="3.07441">
        <ele>432</ele>
        <time>2015-11-29T08:00:10Z</time>
      </trkpt>
      <trkpt lat="43.52619" lon="3.07439">
        <ele>432</ele>
        <time>2015-11-29T08:00:11Z</time>
      </trkpt>
      <trkpt lat="43.52619" lon="3.07436">
        <ele>432</ele>
        <time>2015-11-29T08:00:12Z</time>
      </trkpt>
      <trkpt lat="43.52619" lon="3.07434">
        <ele>432.5</ele>
        <time>2015-11-29T08:00:13Z</time>
      </trkpt>
      <trkpt lat="43.52619" lon="3.07433">
        <ele>432</ele>
        <time>2015-11-29T08:00:14Z</time>
      </trkpt>
      <trkpt lat="43.5262" lon="3.0743">
        <ele>431.5</ele>
        <time>2015-11-29T08:00:15Z</time>
      </trkpt>
      <trkpt lat="43.5262" lon="3.07427">
        <ele>431</ele>
        <time>2015-11-29T08:00:16Z</time>
      </trkpt>
      <trkpt lat="43.52621" lon="3.07425">
        <ele>431</ele>
        <time>2015-11-29T08:00:17Z</time>
      </trkpt>
      <trkpt lat="43.52622" lon="3.07423">
        <ele>430</ele>
        <time>2015-11-29T08:00:18Z</time>
      </trkpt>
      <trkpt lat="43.52623" lon="3.07422">
        <ele>429</ele>
        <time>2015-11-29T08:00:19Z</time>
      </trkpt>
      <trkpt lat="43.52625" lon="3.07419">
        <ele>428</ele>
        <time>2015-11-29T08:00:20Z</time>
      </trkpt>
      <trkpt lat="43.52627" lon="3.07417">
        <ele>426</ele>
        <time>2015-11-29T08:00:21Z</time>
      </trkpt>
      <trkpt lat="43.52628" lon="3.07414">
        <ele>426.5</ele>
        <time>2015-11-29T08:00:22Z</time>
      </trkpt>
      <trkpt lat="43.52629" lon="3.07412">
        <ele>426</ele>
        <time>2015-11-29T08:00:23Z</time>
      </trkpt>
      <trkpt lat="43.52631" lon="3.0741">
        <ele>426</ele>
        <time>2015-11-29T08:00:24Z</time>
      </trkpt>
      <trkpt lat="43.52633" lon="3.07408">
        <ele>426</ele>
        <time>2015-11-29T08:00:25Z</time>
      </trkpt>
      <trkpt lat="43.52634" lon="3.07406">
        <ele>427</ele>
        <time>2015-11-29T08:00:26Z</time>
      </trkpt>
      <trkpt lat="43.52635" lon="3.07404">
        <ele>428</ele>
        <time>2015-11-29T08:00:27Z</time>
      </trkpt>
      <trkpt lat="43.52637" lon="3.07403">
        <ele>428.5</ele>
        <time>2015-11-29T08:00:28Z</time>
      </trkpt>
      <trkpt lat="43.52638" lon="3.07402">
        <ele>428.5</ele>
        <time>2015-11-29T08:00:29Z</time>
      </trkpt>
      <trkpt lat="43.52641" lon="3.07401">
        <ele>429</ele>
        <time>2015-11-29T08:00:30Z</time>
      </trkpt>
      <trkpt lat="43.52641" lon="3.07398">
        <ele>431.5</ele>
        <time>2015-11-29T08:00:31Z</time>
      </trkpt>
      <trkpt lat="43.52643" lon="3.07396">
        <ele>432.5</ele>
        <time>2015-11-29T08:00:32Z</time>
      </trkpt>
      <trkpt lat="43.52645" lon="3.07395">
        <ele>432.5</ele>
        <time>2015-11-29T08:00:33Z</time>
      </trkpt>
      <trkpt lat="43.52647" lon="3.07393">
        <ele>432.5</ele>
        <time>2015-11-29T08:00:34Z</time>
      </trkpt>
      <trkpt lat="43.52649" lon="3.07392">
        <ele>433</ele>
        <time>2015-11-29T08:00:35Z</time>
      </trkpt>
      <trkpt lat="43.5265" lon="3.07391">
        <ele>434</ele>
        <time>2015-11-29T08:00:36Z</time>
      </trkpt>
      <trkpt lat="43.52652" lon="3.0739">
        <ele>434</ele>
        <time>2015-11-29T08:00:37Z</time>
      </trkpt>
      <trkpt lat="43.52654" lon="3.07388">
        <ele>435</ele>
        <time>2015-11-29T08:00:38Z</time>
      </trkpt>
      <trkpt lat="43.52655" lon="3.07387">
        <ele>436</ele>
        <time>2015-11-29T08:00:39Z</time>
      </trkpt>
      <trkpt lat="43.52657" lon="3.07387">
        <ele>436</ele>
        <time>2015-11-29T08:00:40Z</time>
      </trkpt>
      <trkpt lat="43.52659" lon="3.07386">
        <ele>436</ele>
        <time>2015-11-29T08:00:41Z</time>
      </trkpt>
      <trkpt lat="43.52661" lon="3.07385">
        <ele>437</ele>
        <time>2015-11-29T08:00:42Z</time>
      </trkpt>
      <trkpt lat="43.52663" lon="3.07385">
        <ele>437</ele>
        <time>2015-11-29T08:00:43Z</time>
      </trkpt>
      <trkpt lat="43.52665" lon="3.07385">
        <ele>437</ele>
        <time>2015-11-29T08:00:44Z</time>
      </trkpt>
      <trkpt lat="43.52668" lon="3.07385">
        <ele>435.5</ele>
        <time>2015-11-29T08:00:45Z</time>
      </trkpt>
      <trkpt lat="43.5267" lon="3.07386">
        <ele>435</ele>
        <time>2015-11-29T08:00:46Z</time>
      </trkpt>
      <trkpt lat="43.52672" lon="3.07386">
        <ele>435.5</ele>
        <time>2015-11-29T08:00:47Z</time>
      </trkpt>
      <trkpt lat="43.52674" lon="3.07386">
        <ele>435.5</ele>
        <time>2015-11-29T08:00:48Z</time>
      </trkpt>
      <trkpt lat="43.52675" lon="3.07386">
        <ele>436</ele>
        <time>2015-11-29T08:00:49Z</time>
      </trkpt>
      <trkpt lat="43.52678" lon="3.07387">
        <ele>435.5</ele>
        <time>2015-11-29T08:00:50Z</time>
      </trkpt>
      <trkpt lat="43.5268" lon="3.07388">
        <ele>434.5</ele>
        <time>2015-11-29T08:00:51Z</time>
      </trkpt>
      <trkpt lat="43.52682" lon="3.07389">
        <ele>433.5</ele>
        <time>2015-11-29T08:00:52Z</time>
      </trkpt>
      <trkpt lat="43.52685" lon="3.07389">
        <ele>433</ele>
        <time>2015-11-29T08:00:53Z</time>
      </trkpt>
      <trkpt lat="43.52687" lon="3.0739">
        <ele>432.5</ele>
        <time>2015-11-29T08:00:54Z</time>
      </trkpt>
      <trkpt lat="43.52689" lon="3.0739">
        <ele>432.5</ele>
        <time>2015-11-29T08:00:55Z</time>
      </trkpt>
      <trkpt lat="43.52692" lon="3.0739">
        <ele>432</ele>
        <time>2015-11-29T08:00:56Z</time>
      </trkpt>
      <trkpt lat="43.52694" lon="3.07391">
        <ele>431</ele>
        <time>2015-11-29T08:00:57Z</time>
      </trkpt>
      <trkpt lat="43.52696" lon="3.07392">
        <ele>430.5</ele>
        <time>2015-11-29T08:00:58Z</time>
      </trkpt>
      <trkpt lat="43.52698" lon="3.07392">
        <ele>430.5</ele>
        <time>2015-11-29T08:00:59Z</time>
      </trkpt>
      <trkpt lat="43.52699" lon="3.07392">
        <ele>431</ele>
        <time>2015-11-29T08:01:00Z</time>
      </trkpt>
      <trkpt lat="43.52701" lon="3.07392">
        <ele>431</ele>
        <time>2015-11-29T08:01:01Z</time>
      </trkpt>
      <trkpt lat="43.52702" lon="3.07392">
        <ele>432</ele>
        <time>2015-11-29T08:01:02Z</time>
      </trkpt>
      <trkpt lat="43.52704" lon="3.07393">
        <ele>432</ele>
        <time>2015-11-29T08:01:03Z</time>
      </trkpt>
      <trkpt lat="43.52706" lon="3.07393">
        <ele>432.5</ele>
        <time>2015-11-29T08:01:04Z</time>
      </trkpt>
      <trkpt lat="43.52708" lon="3.07394">
        <ele>432</ele>
        <time>2015-11-29T08:01:05Z</time>
      </trkpt>
      <trkpt lat="43.5271" lon="3.07394">
        <ele>432</ele>
        <time>2015-11-29T08:01:06Z</time>
      </trkpt>
      <trkpt lat="43.52711" lon="3.07395">
        <ele>432</ele>
        <time>2015-11-29T08:01:07Z</time>
      </trkpt>
      <trkpt lat="43.52713" lon="3.07396">
        <ele>431.5</ele>
        <time>2015-11-29T08:01:08Z</time>
      </trkpt>
      <trkpt lat="43.52715" lon="3.07396">
        <ele>431.5</ele>
        <time>2015-11-29T08:01:09Z</time>
      </trkpt>
      <trkpt lat="43.52716" lon="3.07396">
        <ele>431.5</ele>
        <time>2015-11-29T08:01:10Z</time>
      </trkpt>
      <trkpt lat="43.52718" lon="3.07396">
        <ele>432</ele>
        <time>2015-11-29T08:01:11Z</time>
      </trkpt>
      <trkpt lat="43.5272" lon="3.07397">
        <ele>432</ele>
        <time>2015-11-29T08:01:12Z</time>
      </trkpt>
      <trkpt lat="43.52722" lon="3.07398">
        <ele>431.5</ele>
        <time>2015-11-29T08:01:13Z</time>
      </trkpt>
      <trkpt lat="43.52724" lon="3.07398">
        <ele>431</ele>
        <time>2015-11-29T08:01:14Z</time>
      </trkpt>
      <trkpt lat="43.52727" lon="3.07399">
        <ele>430.5</ele>
        <time>2015-11-29T08:01:15Z</time>
      </trkpt>
      <trkpt lat="43.52728" lon="3.07399">
        <ele>430.5</ele>
        <time>2015-11-29T08:01:16Z</time>
      </trkpt>
      <trkpt lat="43.5273" lon="3.07398">
        <ele>432</ele>
        <time>2015-11-29T08:01:17Z</time>
      </trkpt>
      <trkpt lat="43.5273" lon="3.07397">
        <ele>434</ele>
        <time>2015-11-29T08:01:18Z</time>
      </trkpt>
      <trkpt lat="43.52732" lon="3.07397">
        <ele>434.5</ele>
        <time>2015-11-29T08:01:19Z</time>
      </trkpt>
      <trkpt lat="43.52734" lon="3.07397">
        <ele>434.5</ele>
        <time>2015-11-29T08:01:20Z</time>
      </trkpt>
      <trkpt lat="43.52736" lon="3.07398">
        <ele>435</ele>
        <time>2015-11-29T08:01:21Z</time>
      </trkpt>
      <trkpt lat="43.52737" lon="3.07398">
        <ele>435</ele>
        <time>2015-11-29T08:01:22Z</time>
      </trkpt>
      <trkpt lat="43.52739" lon="3.07398">
        <ele>435</ele>
        <time>2015-11-29T08:01:23Z</time>
      </trkpt>
      <trkpt lat="43.52741" lon="3.07399">
        <ele>435</ele>
        <time>2015-11-29T08:01:24Z</time>
      </trkpt>
      <trkpt lat="43.52742" lon="3.07398">
        <ele>436.5</ele>
        <time>2015-11-29T08:01:25Z</time>
      </trkpt>
      <trkpt lat="43.52744" lon="3.07399">
        <ele>437</ele>
        <time>2015-11-29T08:01:26Z</time>
      </trkpt>
      <trkpt lat="43.52746" lon="3.07399">
        <ele>437.5</ele>
        <time>2015-11-29T08:01:27Z</time>
      </trkpt>
      <trkpt lat="43.52751" lon="3.07399">
        <ele>437.5</ele>
        <time>2015-11-29T08:01:29Z</time>
      </trkpt>
      <trkpt lat="43.52752" lon="3.07399">
        <ele>438.5</ele>
        <time>2015-11-29T08:01:30Z</time>
      </trkpt>
      <trkpt lat="43.52754" lon="3.07399">
        <ele>438.5</ele>
        <time>2015-11-29T08:01:31Z</time>
      </trkpt>
      <trkpt lat="43.52756" lon="3.07399">
        <ele>439.5</ele>
        <time>2015-11-29T08:01:32Z</time>
      </trkpt>
      <trkpt lat="43.52758" lon="3.07399">
        <ele>440</ele>
        <time>2015-11-29T08:01:33Z</time>
      </trkpt>
      <trkpt lat="43.52759" lon="3.07399">
        <ele>441</ele>
        <time>2015-11-29T08:01:34Z</time>
      </trkpt>
      <trkpt lat="43.5276" lon="3.07399">
        <ele>442</ele>
        <time>2015-11-29T08:01:35Z</time>
      </trkpt>
      <trkpt lat="43.52762" lon="3.07398">
        <ele>443</ele>
        <time>2015-11-29T08:01:36Z</time>
      </trkpt>
      <trkpt lat="43.52764" lon="3.07399">
        <ele>443</ele>
        <time>2015-11-29T08:01:37Z</time>
      </trkpt>
      <trkpt lat="43.52766" lon="3.07399">
        <ele>443</ele>
        <time>2015-11-29T08:01:38Z</time>
      </trkpt>
      <trkpt lat="43.52768" lon="3.074">
        <ele>443</ele>
        <time>2015-11-29T08:01:39Z</time>
      </trkpt>
      <trkpt lat="43.52769" lon="3.07401">
        <ele>443</ele>
        <time>2015-11-29T08:01:39Z</time>
      </trkpt>
      <trkpt lat="43.52771" lon="3.07401">
        <ele>443</ele>
        <time>2015-11-29T08:01:40Z</time>
      </trkpt>
      <trkpt lat="43.52773" lon="3.07402">
        <ele>444</ele>
        <time>2015-11-29T08:01:41Z</time>
      </trkpt>
      <trkpt lat="43.52774" lon="3.07402">
        <ele>445</ele>
        <time>2015-11-29T08:01:42Z</time>
      </trkpt>
      <trkpt lat="43.52776" lon="3.07402">
        <ele>445</ele>
        <time>2015-11-29T08:01:43Z</time>
      </trkpt>
      <trkpt lat="43.52778" lon="3.07403">
        <ele>445.5</ele>
        <time>2015-11-29T08:01:44Z</time>
      </trkpt>
      <trkpt lat="43.5278" lon="3.07404">
        <ele>445</ele>
        <time>2015-11-29T08:01:45Z</time>
      </trkpt>
      <trkpt lat="43.52781" lon="3.07404">
        <ele>445.5</ele>
        <time>2015-11-29T08:01:46Z</time>
      </trkpt>
      <trkpt lat="43.52783" lon="3.07404">
        <ele>446.5</ele>
        <time>2015-11-29T08:01:47Z</time>
      </trkpt>
      <trkpt lat="43.52784" lon="3.07405">
        <ele>446.5</ele>
        <time>2015-11-29T08:01:48Z</time>
      </trkpt>
      <trkpt lat="43.52786" lon="3.07405">
        <ele>446.5</ele>
        <time>2015-11-29T08:01:49Z</time>
      </trkpt>
      <trkpt lat="43.52788" lon="3.07406">
        <ele>447</ele>
        <time>2015-11-29T08:01:50Z</time>
      </trkpt>
      <trkpt lat="43.5279" lon="3.07406">
        <ele>448</ele>
        <time>2015-11-29T08:01:51Z</time>
      </trkpt>
      <trkpt lat="43.52792" lon="3.07406">
        <ele>448</ele>
        <time>2015-11-29T08:01:52Z</time>
      </trkpt>
      <trkpt lat="43.52793" lon="3.07406">
        <ele>448</ele>
        <time>2015-11-29T08:01:53Z</time>
      </trkpt>
      <trkpt lat="43.52796" lon="3.07406">
        <ele>448</ele>
        <time>2015-11-29T08:01:54Z</time>
      </trkpt>
      <trkpt lat="43.52798" lon="3.07405">
        <ele>448</ele>
        <time>2015-11-29T08:01:55Z</time>
      </trkpt>
      <trkpt lat="43.528" lon="3.07404">
        <ele>448</ele>
        <time>2015-11-29T08:01:56Z</time>
      </trkpt>
      <trkpt lat="43.52802" lon="3.07402">
        <ele>447.5</ele>
        <time>2015-11-29T08:01:57Z</time>
      </trkpt>
      <trkpt lat="43.52803" lon="3.074">
        <ele>448</ele>
        <time>2015-11-29T08:01:58Z</time>
      </trkpt>
      <trkpt lat="43.52804" lon="3.07398">
        <ele>448</ele>
        <time>2015-11-29T08:01:59Z</time>
      </trkpt>
      <trkpt lat="43.52806" lon="3.07396">
        <ele>447.5</ele>
        <time>2015-11-29T08:02:00Z</time>
      </trkpt>
      <trkpt lat="43.52808" lon="3.07395">
        <ele>447</ele>
        <time>2015-11-29T08:02:01Z</time>
      </trkpt>
      <trkpt lat="43.52809" lon="3.07393">
        <ele>447</ele>
        <time>2015-11-29T08:02:02Z</time>
      </trkpt>
      <trkpt lat="43.5281" lon="3.0739">
        <ele>447.5</ele>
        <time>2015-11-29T08:02:03Z</time>
      </trkpt>
      <trkpt lat="43.52812" lon="3.07388">
        <ele>447.5</ele>
        <time>2015-11-29T08:02:04Z</time>
      </trkpt>
      <trkpt lat="43.52813" lon="3.07386">
        <ele>447.5</ele>
        <time>2015-11-29T08:02:05Z</time>
      </trkpt>
      <trkpt lat="43.52815" lon="3.07385">
        <ele>447.5</ele>
        <time>2015-11-29T08:02:06Z</time>
      </trkpt>
      <trkpt lat="43.52816" lon="3.07382">
        <ele>448</ele>
        <time>2015-11-29T08:02:07Z</time>
      </trkpt>
      <trkpt lat="43.52817" lon="3.0738">
        <ele>447.5</ele>
        <time>2015-11-29T08:02:08Z</time>
      </trkpt>
      <trkpt lat="43.52818" lon="3.07379">
        <ele>446.5</ele>
        <time>2015-11-29T08:02:09Z</time>
      </trkpt>
      <trkpt lat="43.52819" lon="3.07377">
        <ele>447</ele>
        <time>2015-11-29T08:02:10Z</time>
      </trkpt>
      <trkpt lat="43.5282" lon="3.07374">
        <ele>446.5</ele>
        <time>2015-11-29T08:02:11Z</time>
      </trkpt>
      <trkpt lat="43.5282" lon="3.07371">
        <ele>447</ele>
        <time>2015-11-29T08:02:12Z</time>
      </trkpt>
      <trkpt lat="43.5282" lon="3.07368">
        <ele>447</ele>
        <time>2015-11-29T08:02:13Z</time>
      </trkpt>
      <trkpt lat="43.5282" lon="3.07366">
        <ele>446.5</ele>
        <time>2015-11-29T08:02:14Z</time>
      </trkpt>
      <trkpt lat="43.52819" lon="3.07364">
        <ele>446.5</ele>
        <time>2015-11-29T08:02:15Z</time>
      </trkpt>
      <trkpt lat="43.52819" lon="3.07362">
        <ele>446</ele>
        <time>2015-11-29T08:02:16Z</time>
      </trkpt>
      <trkpt lat="43.52818" lon="3.0736">
        <ele>447</ele>
        <time>2015-11-29T08:02:17Z</time>
      </trkpt>
      <trkpt lat="43.52817" lon="3.07357">
        <ele>447</ele>
        <time>2015-11-29T08:02:18Z</time>
      </trkpt>
      <trkpt lat="43.52817" lon="3.07355">
        <ele>447</ele>
        <time>2015-11-29T08:02:19Z</time>
      </trkpt>
      <trkpt lat="43.52817" lon="3.07352">
        <ele>447</ele>
        <time>2015-11-29T08:02:20Z</time>
      </trkpt>
      <trkpt lat="43.52816" lon="3.07349">
        <ele>447.5</ele>
        <time>2015-11-29T08:02:21Z</time>
      </trkpt>
      <trkpt lat="43.52815" lon="3.07347">
        <ele>447.5</ele>
        <time>2015-11-29T08:02:22Z</time>
      </trkpt>
      <trkpt lat="43.52815" lon="3.07344">
        <ele>447.5</ele>
        <time>2015-11-29T08:02:23Z</time>
      </trkpt>
      <trkpt lat="43.52814" lon="3.07342">
        <ele>448</ele>
        <time>2015-11-29T08:02:24Z</time>
      </trkpt>
      <trkpt lat="43.52814" lon="3.07335">
        <ele>448</ele>
        <time>2015-11-29T08:02:26Z</time>
      </trkpt>
      <trkpt lat="43.52813" lon="3.07332">
        <ele>449</ele>
        <time>2015-11-29T08:02:27Z</time>
      </trkpt>
      <trkpt lat="43.52811" lon="3.07329">
        <ele>451.5</ele>
        <time>2015-11-29T08:02:28Z</time>
      </trkpt>
      <trkpt lat="43.5281" lon="3.07327">
        <ele>453</ele>
        <time>2015-11-29T08:02:29Z</time>
      </trkpt>
      <trkpt lat="43.52809" lon="3.07324">
        <ele>454</ele>
        <time>2015-11-29T08:02:30Z</time>
      </trkpt>
      <trkpt lat="43.52808" lon="3.07321">
        <ele>456</ele>
        <time>2015-11-29T08:02:31Z</time>
      </trkpt>
      <trkpt lat="43.52806" lon="3.07318">
        <ele>457</ele>
        <time>2015-11-29T08:02:32Z</time>
      </trkpt>
      <trkpt lat="43.52806" lon="3.07316">
        <ele>457.5</ele>
        <time>2015-11-29T08:02:33Z</time>
      </trkpt>
      <trkpt lat="43.52805" lon="3.07313">
        <ele>457.5</ele>
        <time>2015-11-29T08:02:34Z</time>
      </trkpt>
      <trkpt lat="43.52805" lon="3.07311">
        <ele>457.5</ele>
        <time>2015-11-29T08:02:35Z</time>
      </trkpt>
      <trkpt lat="43.52804" lon="3.0731">
        <ele>457.5</ele>
        <time>2015-11-29T08:02:36Z</time>
      </trkpt>
      <trkpt lat="43.52804" lon="3.07307">
        <ele>457.5</ele>
        <time>2015-11-29T08:02:37Z</time>
      </trkpt>
      <trkpt lat="43.52804" lon="3.07305">
        <ele>455.5</ele>
        <time>2015-11-29T08:02:38Z</time>
      </trkpt>
      <trkpt lat="43.52805" lon="3.07304">
        <ele>454</ele>
        <time>2015-11-29T08:02:39Z</time>
      </trkpt>
      <trkpt lat="43.52805" lon="3.07303">
        <ele>453</ele>
        <time>2015-11-29T08:02:40Z</time>
      </trkpt>
      <trkpt lat="43.52805" lon="3.07301">
        <ele>453</ele>
        <time>2015-11-29T08:02:41Z</time>
      </trkpt>
      <trkpt lat="43.52806" lon="3.07299">
        <ele>452.5</ele>
        <time>2015-11-29T08:02:42Z</time>
      </trkpt>
      <trkpt lat="43.52806" lon="3.07296">
        <ele>452</ele>
        <time>2015-11-29T08:02:43Z</time>
      </trkpt>
      <trkpt lat="43.52807" lon="3.07293">
        <ele>452</ele>
        <time>2015-11-29T08:02:44Z</time>
      </trkpt>
      <trkpt lat="43.52808" lon="3.07291">
        <ele>451</ele>
        <time>2015-11-29T08:02:45Z</time>
      </trkpt>
      <trkpt lat="43.5281" lon="3.07288">
        <ele>450.5</ele>
        <time>2015-11-29T08:02:46Z</time>
      </trkpt>
      <trkpt lat="43.52811" lon="3.07286">
        <ele>449</ele>
        <time>2015-11-29T08:02:47Z</time>
      </trkpt>
      <trkpt lat="43.52813" lon="3.07283">
        <ele>448</ele>
        <time>2015-11-29T08:02:48Z</time>
      </trkpt>
      <trkpt lat="43.52814" lon="3.0728">
        <ele>448.5</ele>
        <time>2015-11-29T08:02:49Z</time>
      </trkpt>
      <trkpt lat="43.52815" lon="3.07278">
        <ele>448</ele>
        <time>2015-11-29T08:02:50Z</time>
      </trkpt>
      <trkpt lat="43.52817" lon="3.07276">
        <ele>447.5</ele>
        <time>2015-11-29T08:02:51Z</time>
      </trkpt>
      <trkpt lat="43.52819" lon="3.07274">
        <ele>447.5</ele>
        <time>2015-11-29T08:02:52Z</time>
      </trkpt>
      <trkpt lat="43.5282" lon="3.07273">
        <ele>446.5</ele>
        <time>2015-11-29T08:02:53Z</time>
      </trkpt>
      <trkpt lat="43.52822" lon="3.07272">
        <ele>446.5</ele>
        <time>2015-11-29T08:02:54Z</time>
      </trkpt>
      <trkpt lat="43.52823" lon="3.0727">
        <ele>447</ele>
        <time>2015-11-29T08:02:55Z</time>
      </trkpt>
      <trkpt lat="43.52825" lon="3.07269">
        <ele>445.5</ele>
        <time>2015-11-29T08:02:56Z</time>
      </trkpt>
      <trkpt lat="43.52827" lon="3.07267">
        <ele>445.5</ele>
        <time>2015-11-29T08:02:57Z</time>
      </trkpt>
      <trkpt lat="43.52829" lon="3.07266">
        <ele>445.5</ele>
        <time>2015-11-29T08:02:58Z</time>
      </trkpt>
      <trkpt lat="43.52831" lon="3.07265">
        <ele>445</ele>
        <time>2015-11-29T08:02:59Z</time>
      </trkpt>
      <trkpt lat="43.52832" lon="3.07263">
        <ele>446</ele>
        <time>2015-11-29T08:03:00Z</time>
      </trkpt>
      <trkpt lat="43.52833" lon="3.07261">
        <ele>446</ele>
        <time>2015-11-29T08:03:01Z</time>
      </trkpt>
      <trkpt lat="43.52835" lon="3.07259">
        <ele>446</ele>
        <time>2015-11-29T08:03:02Z</time>
      </trkpt>
      <trkpt lat="43.52837" lon="3.07258">
        <ele>446.5</ele>
        <time>2015-11-29T08:03:03Z</time>
      </trkpt>
      <trkpt lat="43.52838" lon="3.07255">
        <ele>447.5</ele>
        <time>2015-11-29T08:03:04Z</time>
      </trkpt>
      <trkpt lat="43.52839" lon="3.07253">
        <ele>449.5</ele>
        <time>2015-11-29T08:03:05Z</time>
      </trkpt>
      <trkpt lat="43.52841" lon="3.07252">
        <ele>449.5</ele>
        <time>2015-11-29T08:03:06Z</time>
      </trkpt>
      <trkpt lat="43.52843" lon="3.0725">
        <ele>450</ele>
        <time>2015-11-29T08:03:07Z</time>
      </trkpt>
      <trkpt lat="43.52845" lon="3.07249">
        <ele>449.5</ele>
        <time>2015-11-29T08:03:08Z</time>
      </trkpt>
      <trkpt lat="43.52846" lon="3.07248">
        <ele>450</ele>
        <time>2015-11-29T08:03:09Z</time>
      </trkpt>
      <trkpt lat="43.52848" lon="3.07246">
        <ele>451</ele>
        <time>2015-11-29T08:03:10Z</time>
      </trkpt>
      <trkpt lat="43.5285" lon="3.07246">
        <ele>451</ele>
        <time>2015-11-29T08:03:11Z</time>
      </trkpt>
      <trkpt lat="43.52852" lon="3.07244">
        <ele>451.5</ele>
        <time>2015-11-29T08:03:12Z</time>
      </trkpt>
      <trkpt lat="43.52853" lon="3.07243">
        <ele>453</ele>
        <time>2015-11-29T08:03:13Z</time>
      </trkpt>
      <trkpt lat="43.52855" lon="3.07243">
        <ele>452.5</ele>
        <time>2015-11-29T08:03:14Z</time>
      </trkpt>
      <trkpt lat="43.52858" lon="3.07242">
        <ele>452</ele>
        <time>2015-11-29T08:03:15Z</time>
      </trkpt>
      <trkpt lat="43.5286" lon="3.07241">
        <ele>451.5</ele>
        <time>2015-11-29T08:03:16Z</time>
      </trkpt>
      <trkpt lat="43.52861" lon="3.0724">
        <ele>452</ele>
        <time>2015-11-29T08:03:17Z</time>
      </trkpt>
      <trkpt lat="43.52863" lon="3.07238">
        <ele>453.5</ele>
        <time>2015-11-29T08:03:18Z</time>
      </trkpt>
      <trkpt lat="43.52865" lon="3.07236">
        <ele>454</ele>
        <time>2015-11-29T08:03:19Z</time>
      </trkpt>
      <trkpt lat="43.52866" lon="3.07235">
        <ele>455</ele>
        <time>2015-11-29T08:03:20Z</time>
      </trkpt>
      <trkpt lat="43.52868" lon="3.07234">
        <ele>455</ele>
        <time>2015-11-29T08:03:21Z</time>
      </trkpt>
      <trkpt lat="43.52869" lon="3.07231">
        <ele>457</ele>
        <time>2015-11-29T08:03:22Z</time>
      </trkpt>
      <trkpt lat="43.5287" lon="3.0723">
        <ele>458</ele>
        <time>2015-11-29T08:03:23Z</time>
      </trkpt>
      <trkpt lat="43.52873" lon="3.0723">
        <ele>457</ele>
        <time>2015-11-29T08:03:24Z</time>
      </trkpt>
      <trkpt lat="43.52875" lon="3.07229">
        <ele>456.5</ele>
        <time>2015-11-29T08:03:25Z</time>
      </trkpt>
      <trkpt lat="43.52876" lon="3.07227">
        <ele>458.5</ele>
        <time>2015-11-29T08:03:26Z</time>
      </trkpt>
      <trkpt lat="43.52878" lon="3.07226">
        <ele>459.5</ele>
        <time>2015-11-29T08:03:27Z</time>
      </trkpt>
      <trkpt lat="43.5288" lon="3.07225">
        <ele>459.5</ele>
        <time>2015-11-29T08:03:28Z</time>
      </trkpt>
      <trkpt lat="43.52881" lon="3.07224">
        <ele>460.5</ele>
        <time>2015-11-29T08:03:29Z</time>
      </trkpt>
      <trkpt lat="43.52884" lon="3.07222">
        <ele>461</ele>
        <time>2015-11-29T08:03:30Z</time>
      </trkpt>
      <trkpt lat="43.52885" lon="3.07221">
        <ele>462.5</ele>
        <time>2015-11-29T08:03:31Z</time>
      </trkpt>
      <trkpt lat="43.52887" lon="3.0722">
        <ele>463.5</ele>
        <time>2015-11-29T08:03:32Z</time>
      </trkpt>
      <trkpt lat="43.52889" lon="3.07219">
        <ele>463</ele>
        <time>2015-11-29T08:03:33Z</time>
      </trkpt>
      <trkpt lat="43.52891" lon="3.07219">
        <ele>462.5</ele>
        <time>2015-11-29T08:03:34Z</time>
      </trkpt>
      <trkpt lat="43.52893" lon="3.07219">
        <ele>463</ele>
        <time>2015-11-29T08:03:35Z</time>
      </trkpt>
      <trkpt lat="43.52895" lon="3.07218">
        <ele>463.5</ele>
        <time>2015-11-29T08:03:36Z</time>
      </trkpt>
      <trkpt lat="43.52897" lon="3.07216">
        <ele>464.5</ele>
        <time>2015-11-29T08:03:37Z</time>
      </trkpt>
      <trkpt lat="43.52899" lon="3.07216">
        <ele>464</ele>
        <time>2015-11-29T08:03:38Z</time>
      </trkpt>
      <trkpt lat="43.52901" lon="3.07216">
        <ele>464.5</ele>
        <time>2015-11-29T08:03:39Z</time>
      </trkpt>
      <trkpt lat="43.52903" lon="3.07215">
        <ele>464.5</ele>
        <time>2015-11-29T08:03:40Z</time>
      </trkpt>
      <trkpt lat="43.52905" lon="3.07215">
        <ele>464</ele>
        <time>2015-11-29T08:03:41Z</time>
      </trkpt>
      <trkpt lat="43.52907" lon="3.07215">
        <ele>463.5</ele>
        <time>2015-11-29T08:03:42Z</time>
      </trkpt>
      <trkpt lat="43.5291" lon="3.07215">
        <ele>463</ele>
        <time>2015-11-29T08:03:43Z</time>
      </trkpt>
      <trkpt lat="43.52913" lon="3.07215">
        <ele>462</ele>
        <time>2015-11-29T08:03:44Z</time>
      </trkpt>
      <trkpt lat="43.52915" lon="3.07214">
        <ele>462</ele>
        <time>2015-11-29T08:03:45Z</time>
      </trkpt>
      <trkpt lat="43.52916" lon="3.07211">
        <ele>465.5</ele>
        <time>2015-11-29T08:03:46Z</time>
      </trkpt>
      <trkpt lat="43.52919" lon="3.0721">
        <ele>466</ele>
        <time>2015-11-29T08:03:47Z</time>
      </trkpt>
      <trkpt lat="43.52922" lon="3.0721">
        <ele>463.5</ele>
        <time>2015-11-29T08:03:48Z</time>
      </trkpt>
      <trkpt lat="43.52925" lon="3.0721">
        <ele>463</ele>
        <time>2015-11-29T08:03:49Z</time>
      </trkpt>
      <trkpt lat="43.52928" lon="3.07208">
        <ele>463</ele>
        <time>2015-11-29T08:03:50Z</time>
      </trkpt>
      <trkpt lat="43.52931" lon="3.07209">
        <ele>460.5</ele>
        <time>2015-11-29T08:03:51Z</time>
      </trkpt>
      <trkpt lat="43.52934" lon="3.07207">
        <ele>461</ele>
        <time>2015-11-29T08:03:52Z</time>
      </trkpt>
      <trkpt lat="43.5294" lon="3.07207">
        <ele>458</ele>
        <time>2015-11-29T08:03:54Z</time>
      </trkpt>
      <trkpt lat="43.52942" lon="3.07206">
        <ele>458</ele>
        <time>2015-11-29T08:03:55Z</time>
      </trkpt>
      <trkpt lat="43.52946" lon="3.07207">
        <ele>456</ele>
        <time>2015-11-29T08:03:56Z</time>
      </trkpt>
      <trkpt lat="43.52948" lon="3.07206">
        <ele>455</ele>
        <time>2015-11-29T08:03:57Z</time>
      </trkpt>
      <trkpt lat="43.52951" lon="3.07205">
        <ele>454.5</ele>
        <time>2015-11-29T08:03:58Z</time>
      </trkpt>
      <trkpt lat="43.52953" lon="3.07203">
        <ele>455.5</ele>
        <time>2015-11-29T08:03:59Z</time>
      </trkpt>
      <trkpt lat="43.52954" lon="3.07199">
        <ele>459.5</ele>
        <time>2015-11-29T08:04:00Z</time>
      </trkpt>
      <trkpt lat="43.52953" lon="3.07194">
        <ele>465</ele>
        <time>2015-11-29T08:04:01Z</time>
      </trkpt>
      <trkpt lat="43.52953" lon="3.07189">
        <ele>470</ele>
        <time>2015-11-29T08:04:02Z</time>
      </trkpt>
      <trkpt lat="43.52955" lon="3.07188">
        <ele>471</ele>
        <time>2015-11-29T08:04:03Z</time>
      </trkpt>
      <trkpt lat="43.52955" lon="3.07184">
        <ele>474.5</ele>
        <time>2015-11-29T08:04:04Z</time>
      </trkpt>
      <trkpt lat="43.52957" lon="3.07182">
        <ele>477</ele>
        <time>2015-11-29T08:04:05Z</time>
      </trkpt>
      <trkpt lat="43.52958" lon="3.07179">
        <ele>479</ele>
        <time>2015-11-29T08:04:06Z</time>
      </trkpt>
      <trkpt lat="43.5296" lon="3.07178">
        <ele>479</ele>
        <time>2015-11-29T08:04:07Z</time>
      </trkpt>
      <trkpt lat="43.52963" lon="3.07178">
        <ele>479</ele>
        <time>2015-11-29T08:04:08Z</time>
      </trkpt>
      <trkpt lat="43.52965" lon="3.07178">
        <ele>478</ele>
        <time>2015-11-29T08:04:09Z</time>
      </trkpt>
      <trkpt lat="43.52967" lon="3.07178">
        <ele>478</ele>
        <time>2015-11-29T08:04:10Z</time>
      </trkpt>
      <trkpt lat="43.52969" lon="3.07177">
        <ele>479</ele>
        <time>2015-11-29T08:04:11Z</time>
      </trkpt>
      <trkpt lat="43.52971" lon="3.07178">
        <ele>479</ele>
        <time>2015-11-29T08:04:12Z</time>
      </trkpt>
      <trkpt lat="43.52974" lon="3.07178">
        <ele>479</ele>
        <time>2015-11-29T08:04:13Z</time>
      </trkpt>
      <trkpt lat="43.52976" lon="3.07179">
        <ele>478.5</ele>
        <time>2015-11-29T08:04:14Z</time>
      </trkpt>
      <trkpt lat="43.52978" lon="3.07179">
        <ele>478</ele>
        <time>2015-11-29T08:04:15Z</time>
      </trkpt>
      <trkpt lat="43.52981" lon="3.07181">
        <ele>476.5</ele>
        <time>2015-11-29T08:04:16Z</time>
      </trkpt>
      <trkpt lat="43.52983" lon="3.07182">
        <ele>476.5</ele>
        <time>2015-11-29T08:04:17Z</time>
      </trkpt>
      <trkpt lat="43.52985" lon="3.07182">
        <ele>476.5</ele>
        <time>2015-11-29T08:04:18Z</time>
      </trkpt>
      <trkpt lat="43.52989" lon="3.07184">
        <ele>473.5</ele>
        <time>2015-11-29T08:04:19Z</time>
      </trkpt>
      <trkpt lat="43.52992" lon="3.07185">
        <ele>472</ele>
        <time>2015-11-29T08:04:20Z</time>
      </trkpt>
      <trkpt lat="43.52994" lon="3.07185">
        <ele>471</ele>
        <time>2015-11-29T08:04:21Z</time>
      </trkpt>
      <trkpt lat="43.52996" lon="3.07185">
        <ele>470.5</ele>
        <time>2015-11-29T08:04:22Z</time>
      </trkpt>
      <trkpt lat="43.52999" lon="3.07185">
        <ele>470</ele>
        <time>2015-11-29T08:04:23Z</time>
      </trkpt>
      <trkpt lat="43.53" lon="3.07182">
        <ele>472</ele>
        <time>2015-11-29T08:04:24Z</time>
      </trkpt>
      <trkpt lat="43.53002" lon="3.07181">
        <ele>471</ele>
        <time>2015-11-29T08:04:25Z</time>
      </trkpt>
      <trkpt lat="43.53005" lon="3.07181">
        <ele>468.5</ele>
        <time>2015-11-29T08:04:26Z</time>
      </trkpt>
      <trkpt lat="43.53007" lon="3.0718">
        <ele>467.5</ele>
        <time>2015-11-29T08:04:27Z</time>
      </trkpt>
      <trkpt lat="43.5301" lon="3.07179">
        <ele>465.5</ele>
        <time>2015-11-29T08:04:28Z</time>
      </trkpt>
      <trkpt lat="43.53009" lon="3.07175">
        <ele>467</ele>
        <time>2015-11-29T08:04:29Z</time>
      </trkpt>
      <trkpt lat="43.5301" lon="3.07172">
        <ele>466.5</ele>
        <time>2015-11-29T08:04:30Z</time>
      </trkpt>
      <trkpt lat="43.53011" lon="3.0717">
        <ele>465</ele>
        <time>2015-11-29T08:04:31Z</time>
      </trkpt>
      <trkpt lat="43.53012" lon="3.07167">
        <ele>464.5</ele>
        <time>2015-11-29T08:04:32Z</time>
      </trkpt>
      <trkpt lat="43.53013" lon="3.07165">
        <ele>463</ele>
        <time>2015-11-29T08:04:33Z</time>
      </trkpt>
      <trkpt lat="43.53015" lon="3.07163">
        <ele>462</ele>
        <time>2015-11-29T08:04:34Z</time>
      </trkpt>
      <trkpt lat="43.53017" lon="3.07161">
        <ele>460.5</ele>
        <time>2015-11-29T08:04:35Z</time>
      </trkpt>
      <trkpt lat="43.53018" lon="3.07159">
        <ele>459.5</ele>
        <time>2015-11-29T08:04:36Z</time>
      </trkpt>
      <trkpt lat="43.5302" lon="3.07157">
        <ele>459</ele>
        <time>2015-11-29T08:04:37Z</time>
      </trkpt>
      <trkpt lat="43.53021" lon="3.07154">
        <ele>458.5</ele>
        <time>2015-11-29T08:04:38Z</time>
      </trkpt>
      <trkpt lat="43.53022" lon="3.07152">
        <ele>459</ele>
        <time>2015-11-29T08:04:39Z</time>
      </trkpt>
      <trkpt lat="43.53024" lon="3.0715">
        <ele>458</ele>
        <time>2015-11-29T08:04:40Z</time>
      </trkpt>
      <trkpt lat="43.53026" lon="3.07148">
        <ele>458.5</ele>
        <time>2015-11-29T08:04:41Z</time>
      </trkpt>
      <trkpt lat="43.53027" lon="3.07145">
        <ele>459</ele>
        <time>2015-11-29T08:04:42Z</time>
      </trkpt>
      <trkpt lat="43.53028" lon="3.07143">
        <ele>460</ele>
        <time>2015-11-29T08:04:43Z</time>
      </trkpt>
      <trkpt lat="43.53029" lon="3.0714">
        <ele>461.5</ele>
        <time>2015-11-29T08:04:44Z</time>
      </trkpt>
      <trkpt lat="43.5303" lon="3.07138">
        <ele>462</ele>
        <time>2015-11-29T08:04:45Z</time>
      </trkpt>
      <trkpt lat="43.53032" lon="3.07136">
        <ele>462.5</ele>
        <time>2015-11-29T08:04:46Z</time>
      </trkpt>
      <trkpt lat="43.53033" lon="3.07134">
        <ele>462.5</ele>
        <time>2015-11-29T08:04:47Z</time>
      </trkpt>
      <trkpt lat="43.53035" lon="3.07133">
        <ele>462.5</ele>
        <time>2015-11-29T08:04:48Z</time>
      </trkpt>
      <trkpt lat="43.53036" lon="3.07132">
        <ele>462</ele>
        <time>2015-11-29T08:04:49Z</time>
      </trkpt>
      <trkpt lat="43.53038" lon="3.0713">
        <ele>462</ele>
        <time>2015-11-29T08:04:50Z</time>
      </trkpt>
      <trkpt lat="43.53039" lon="3.07128">
        <ele>462</ele>
        <time>2015-11-29T08:04:51Z</time>
      </trkpt>
      <trkpt lat="43.53039" lon="3.07125">
        <ele>461.5</ele>
        <time>2015-11-29T08:04:52Z</time>
      </trkpt>
      <trkpt lat="43.53039" lon="3.07123">
        <ele>461.5</ele>
        <time>2015-11-29T08:04:53Z</time>
      </trkpt>
      <trkpt lat="43.53038" lon="3.0712">
        <ele>461.5</ele>
        <time>2015-11-29T08:04:54Z</time>
      </trkpt>
      <trkpt lat="43.53037" lon="3.07118">
        <ele>461.5</ele>
        <time>2015-11-29T08:04:55Z</time>
      </trkpt>
      <trkpt lat="43.53035" lon="3.07117">
        <ele>461</ele>
        <time>2015-11-29T08:04:56Z</time>
      </trkpt>
      <trkpt lat="43.53034" lon="3.07116">
        <ele>461.5</ele>
        <time>2015-11-29T08:04:57Z</time>
      </trkpt>
      <trkpt lat="43.53032" lon="3.07114">
        <ele>461.5</ele>
        <time>2015-11-29T08:04:58Z</time>
      </trkpt>
      <trkpt lat="43.5303" lon="3.07112">
        <ele>462</ele>
        <time>2015-11-29T08:04:59Z</time>
      </trkpt>
      <trkpt lat="43.53027" lon="3.0711">
        <ele>462</ele>
        <time>2015-11-29T08:05:00Z</time>
      </trkpt>
      <trkpt lat="43.53025" lon="3.07109">
        <ele>462</ele>
        <time>2015-11-29T08:05:01Z</time>
      </trkpt>
      <trkpt lat="43.53023" lon="3.07106">
        <ele>462</ele>
        <time>2015-11-29T08:05:02Z</time>
      </trkpt>
      <trkpt lat="43.53021" lon="3.07104">
        <ele>462</ele>
        <time>2015-11-29T08:05:03Z</time>
      </trkpt>
      <trkpt lat="43.53019" lon="3.07101">
        <ele>462</ele>
        <time>2015-11-29T08:05:04Z</time>
      </trkpt>
      <trkpt lat="43.53018" lon="3.07098">
        <ele>462.5</ele>
        <time>2015-11-29T08:05:05Z</time>
      </trkpt>
      <trkpt lat="43.53016" lon="3.07094">
        <ele>463.5</ele>
        <time>2015-11-29T08:05:06Z</time>
      </trkpt>
      <trkpt lat="43.53016" lon="3.07091">
        <ele>464</ele>
        <time>2015-11-29T08:05:07Z</time>
      </trkpt>
      <trkpt lat="43.53015" lon="3.07088">
        <ele>464</ele>
        <time>2015-11-29T08:05:08Z</time>
      </trkpt>
      <trkpt lat="43.53016" lon="3.07084">
        <ele>464.5</ele>
        <time>2015-11-29T08:05:09Z</time>
      </trkpt>
      <trkpt lat="43.53016" lon="3.07081">
        <ele>465</ele>
        <time>2015-11-29T08:05:09Z</time>
      </trkpt>
      <trkpt lat="43.53016" lon="3.07078">
        <ele>466.5</ele>
        <time>2015-11-29T08:05:11Z</time>
      </trkpt>
      <trkpt lat="43.53017" lon="3.07072">
        <ele>467.5</ele>
        <time>2015-11-29T08:05:12Z</time>
      </trkpt>
      <trkpt lat="43.53018" lon="3.07068">
        <ele>468</ele>
        <time>2015-11-29T08:05:13Z</time>
      </trkpt>
      <trkpt lat="43.53019" lon="3.07065">
        <ele>468.5</ele>
        <time>2015-11-29T08:05:14Z</time>
      </trkpt>
      <trkpt lat="43.5302" lon="3.07062">
        <ele>469</ele>
        <time>2015-11-29T08:05:15Z</time>
      </trkpt>
      <trkpt lat="43.53021" lon="3.07059">
        <ele>470</ele>
        <time>2015-11-29T08:05:16Z</time>
      </trkpt>
      <trkpt lat="43.53022" lon="3.07056">
        <ele>470.5</ele>
        <time>2015-11-29T08:05:17Z</time>
      </trkpt>
      <trkpt lat="43.53023" lon="3.07054">
        <ele>470.5</ele>
        <time>2015-11-29T08:05:18Z</time>
      </trkpt>
      <trkpt lat="43.53024" lon="3.07051">
        <ele>471</ele>
        <time>2015-11-29T08:05:19Z</time>
      </trkpt>
      <trkpt lat="43.53026" lon="3.0705">
        <ele>469.5</ele>
        <time>2015-11-29T08:05:20Z</time>
      </trkpt>
      <trkpt lat="43.53028" lon="3.07048">
        <ele>468.5</ele>
        <time>2015-11-29T08:05:22Z</time>
      </trkpt>
      <trkpt lat="43.53029" lon="3.07046">
        <ele>468</ele>
        <time>2015-11-29T08:05:22Z</time>
      </trkpt>
      <trkpt lat="43.53031" lon="3.07044">
        <ele>467.5</ele>
        <time>2015-11-29T08:05:23Z</time>
      </trkpt>
      <trkpt lat="43.53032" lon="3.07043">
        <ele>467</ele>
        <time>2015-11-29T08:05:24Z</time>
      </trkpt>
      <trkpt lat="43.53034" lon="3.07041">
        <ele>466</ele>
        <time>2015-11-29T08:05:25Z</time>
      </trkpt>
      <trkpt lat="43.53035" lon="3.0704">
        <ele>466</ele>
        <time>2015-11-29T08:05:26Z</time>
      </trkpt>
      <trkpt lat="43.53036" lon="3.07038">
        <ele>466</ele>
        <time>2015-11-29T08:05:27Z</time>
      </trkpt>
      <trkpt lat="43.53038" lon="3.07036">
        <ele>465</ele>
        <time>2015-11-29T08:05:28Z</time>
      </trkpt>
      <trkpt lat="43.53039" lon="3.07034">
        <ele>465.5</ele>
        <time>2015-11-29T08:05:29Z</time>
      </trkpt>
      <trkpt lat="43.5304" lon="3.07031">
        <ele>466</ele>
        <time>2015-11-29T08:05:30Z</time>
      </trkpt>
      <trkpt lat="43.53042" lon="3.07029">
        <ele>466</ele>
        <time>2015-11-29T08:05:31Z</time>
      </trkpt>
      <trkpt lat="43.53043" lon="3.07026">
        <ele>467</ele>
        <time>2015-11-29T08:05:32Z</time>
      </trkpt>
      <trkpt lat="43.53045" lon="3.07024">
        <ele>466.5</ele>
        <time>2015-11-29T08:05:33Z</time>
      </trkpt>
      <trkpt lat="43.53046" lon="3.07022">
        <ele>466</ele>
        <time>2015-11-29T08:05:34Z</time>
      </trkpt>
      <trkpt lat="43.53047" lon="3.07019">
        <ele>468</ele>
        <time>2015-11-29T08:05:35Z</time>
      </trkpt>
      <trkpt lat="43.53049" lon="3.07017">
        <ele>468</ele>
        <time>2015-11-29T08:05:36Z</time>
      </trkpt>
      <trkpt lat="43.53051" lon="3.07016">
        <ele>466.5</ele>
        <time>2015-11-29T08:05:37Z</time>
      </trkpt>
      <trkpt lat="43.53054" lon="3.07014">
        <ele>465</ele>
        <time>2015-11-29T08:05:38Z</time>
      </trkpt>
      <trkpt lat="43.53056" lon="3.07013">
        <ele>463.5</ele>
        <time>2015-11-29T08:05:39Z</time>
      </trkpt>
      <trkpt lat="43.53059" lon="3.07012">
        <ele>462</ele>
        <time>2015-11-29T08:05:40Z</time>
      </trkpt>
      <trkpt lat="43.53061" lon="3.07011">
        <ele>461</ele>
        <time>2015-11-29T08:05:41Z</time>
      </trkpt>
      <trkpt lat="43.53062" lon="3.07009">
        <ele>462</ele>
        <time>2015-11-29T08:05:42Z</time>
      </trkpt>
      <trkpt lat="43.53064" lon="3.07007">
        <ele>461.5</ele>
        <time>2015-11-29T08:05:43Z</time>
      </trkpt>
      <trkpt lat="43.53066" lon="3.07005">
        <ele>462</ele>
        <time>2015-11-29T08:05:44Z</time>
      </trkpt>
      <trkpt lat="43.53066" lon="3.07001">
        <ele>465.5</ele>
        <time>2015-11-29T08:05:45Z</time>
      </trkpt>
      <trkpt lat="43.53068" lon="3.06999">
        <ele>466</ele>
        <time>2015-11-29T08:05:46Z</time>
      </trkpt>
      <trkpt lat="43.5307" lon="3.06997">
        <ele>466.5</ele>
        <time>2015-11-29T08:05:47Z</time>
      </trkpt>
      <trkpt lat="43.53072" lon="3.06995">
        <ele>466</ele>
        <time>2015-11-29T08:05:48Z</time>
      </trkpt>
      <trkpt lat="43.53072" lon="3.06992">
        <ele>469</ele>
        <time>2015-11-29T08:05:49Z</time>
      </trkpt>
      <trkpt lat="43.53073" lon="3.06988">
        <ele>471</ele>
        <time>2015-11-29T08:05:50Z</time>
      </trkpt>
      <trkpt lat="43.53076" lon="3.06987">
        <ele>470</ele>
        <time>2015-11-29T08:05:51Z</time>
      </trkpt>
      <trkpt lat="43.53077" lon="3.06984">
        <ele>471.5</ele>
        <time>2015-11-29T08:05:52Z</time>
      </trkpt>
      <trkpt lat="43.53079" lon="3.06982">
        <ele>472</ele>
        <time>2015-11-29T08:05:53Z</time>
      </trkpt>
      <trkpt lat="43.53081" lon="3.06981">
        <ele>472</ele>
        <time>2015-11-29T08:05:54Z</time>
      </trkpt>
      <trkpt lat="43.53082" lon="3.06978">
        <ele>473</ele>
        <time>2015-11-29T08:05:55Z</time>
      </trkpt>
      <trkpt lat="43.53085" lon="3.06978">
        <ele>471</ele>
        <time>2015-11-29T08:05:56Z</time>
      </trkpt>
      <trkpt lat="43.53087" lon="3.06977">
        <ele>470</ele>
        <time>2015-11-29T08:05:57Z</time>
      </trkpt>
      <trkpt lat="43.53089" lon="3.06975">
        <ele>470.5</ele>
        <time>2015-11-29T08:05:58Z</time>
      </trkpt>
      <trkpt lat="43.53091" lon="3.06974">
        <ele>470</ele>
        <time>2015-11-29T08:05:59Z</time>
      </trkpt>
      <trkpt lat="43.53093" lon="3.06973">
        <ele>469.5</ele>
        <time>2015-11-29T08:06:00Z</time>
      </trkpt>
      <trkpt lat="43.53095" lon="3.0697">
        <ele>470</ele>
        <time>2015-11-29T08:06:01Z</time>
      </trkpt>
      <trkpt lat="43.53097" lon="3.06969">
        <ele>468.5</ele>
        <time>2015-11-29T08:06:02Z</time>
      </trkpt>
      <trkpt lat="43.53097" lon="3.06963">
        <ele>471.5</ele>
        <time>2015-11-29T08:06:03Z</time>
      </trkpt>
      <trkpt lat="43.53099" lon="3.0696">
        <ele>471</ele>
        <time>2015-11-29T08:06:04Z</time>
      </trkpt>
      <trkpt lat="43.531" lon="3.06957">
        <ele>470.5</ele>
        <time>2015-11-29T08:06:05Z</time>
      </trkpt>
      <trkpt lat="43.531" lon="3.06955">
        <ele>470.5</ele>
        <time>2015-11-29T08:06:06Z</time>
      </trkpt>
      <trkpt lat="43.53101" lon="3.06952">
        <ele>470.5</ele>
        <time>2015-11-29T08:06:07Z</time>
      </trkpt>
      <trkpt lat="43.53101" lon="3.06948">
        <ele>472</ele>
        <time>2015-11-29T08:06:08Z</time>
      </trkpt>
      <trkpt lat="43.53101" lon="3.06945">
        <ele>472.5</ele>
        <time>2015-11-29T08:06:09Z</time>
      </trkpt>
      <trkpt lat="43.53102" lon="3.06942">
        <ele>472.5</ele>
        <time>2015-11-29T08:06:10Z</time>
      </trkpt>
      <trkpt lat="43.53102" lon="3.06939">
        <ele>472.5</ele>
        <time>2015-11-29T08:06:11Z</time>
      </trkpt>
      <trkpt lat="43.53103" lon="3.06936">
        <ele>473</ele>
        <time>2015-11-29T08:06:12Z</time>
      </trkpt>
      <trkpt lat="43.53104" lon="3.06933">
        <ele>473.5</ele>
        <time>2015-11-29T08:06:13Z</time>
      </trkpt>
      <trkpt lat="43.53105" lon="3.06931">
        <ele>473</ele>
        <time>2015-11-29T08:06:14Z</time>
      </trkpt>
      <trkpt lat="43.53107" lon="3.06929">
        <ele>471.5</ele>
        <time>2015-11-29T08:06:15Z</time>
      </trkpt>
      <trkpt lat="43.53108" lon="3.06926">
        <ele>472</ele>
        <time>2015-11-29T08:06:16Z</time>
      </trkpt>
      <trkpt lat="43.53109" lon="3.06924">
        <ele>471</ele>
        <time>2015-11-29T08:06:17Z</time>
      </trkpt>
      <trkpt lat="43.5311" lon="3.06922">
        <ele>471</ele>
        <time>2015-11-29T08:06:18Z</time>
      </trkpt>
      <trkpt lat="43.53112" lon="3.0692">
        <ele>470</ele>
        <time>2015-11-29T08:06:19Z</time>
      </trkpt>
      <trkpt lat="43.53113" lon="3.06917">
        <ele>470.5</ele>
        <time>2015-11-29T08:06:20Z</time>
      </trkpt>
      <trkpt lat="43.53114" lon="3.06915">
        <ele>470.5</ele>
        <time>2015-11-29T08:06:21Z</time>
      </trkpt>
      <trkpt lat="43.53116" lon="3.06913">
        <ele>469.5</ele>
        <time>2015-11-29T08:06:22Z</time>
      </trkpt>
      <trkpt lat="43.53117" lon="3.06911">
        <ele>469.5</ele>
        <time>2015-11-29T08:06:23Z</time>
      </trkpt>
      <trkpt lat="43.53118" lon="3.06909">
        <ele>469.5</ele>
        <time>2015-11-29T08:06:24Z</time>
      </trkpt>
      <trkpt lat="43.5312" lon="3.06907">
        <ele>469.5</ele>
        <time>2015-11-29T08:06:25Z</time>
      </trkpt>
      <trkpt lat="43.53121" lon="3.06904">
        <ele>469.5</ele>
        <time>2015-11-29T08:06:26Z</time>
      </trkpt>
      <trkpt lat="43.53123" lon="3.06902">
        <ele>469.5</ele>
        <time>2015-11-29T08:06:27Z</time>
      </trkpt>
      <trkpt lat="43.53124" lon="3.069">
        <ele>469</ele>
        <time>2015-11-29T08:06:28Z</time>
      </trkpt>
      <trkpt lat="43.53126" lon="3.06898">
        <ele>469</ele>
        <time>2015-11-29T08:06:29Z</time>
      </trkpt>
      <trkpt lat="43.53127" lon="3.06896">
        <ele>469</ele>
        <time>2015-11-29T08:06:30Z</time>
      </trkpt>
      <trkpt lat="43.53129" lon="3.06894">
        <ele>469</ele>
        <time>2015-11-29T08:06:31Z</time>
      </trkpt>
      <trkpt lat="43.5313" lon="3.06892">
        <ele>469</ele>
        <time>2015-11-29T08:06:32Z</time>
      </trkpt>
      <trkpt lat="43.53132" lon="3.06889">
        <ele>469</ele>
        <time>2015-11-29T08:06:33Z</time>
      </trkpt>
      <trkpt lat="43.53133" lon="3.06887">
        <ele>469</ele>
        <time>2015-11-29T08:06:34Z</time>
      </trkpt>
      <trkpt lat="43.53135" lon="3.06885">
        <ele>469</ele>
        <time>2015-11-29T08:06:35Z</time>
      </trkpt>
      <trkpt lat="43.53136" lon="3.06883">
        <ele>469</ele>
        <time>2015-11-29T08:06:36Z</time>
      </trkpt>
      <trkpt lat="43.53138" lon="3.0688">
        <ele>469</ele>
        <time>2015-11-29T08:06:37Z</time>
      </trkpt>
      <trkpt lat="43.5314" lon="3.06878">
        <ele>469</ele>
        <time>2015-11-29T08:06:38Z</time>
      </trkpt>
      <trkpt lat="43.53141" lon="3.06875">
        <ele>469</ele>
        <time>2015-11-29T08:06:39Z</time>
      </trkpt>
      <trkpt lat="43.53142" lon="3.06873">
        <ele>469</ele>
        <time>2015-11-29T08:06:40Z</time>
      </trkpt>
      <trkpt lat="43.53144" lon="3.06871">
        <ele>469</ele>
        <time>2015-11-29T08:06:41Z</time>
      </trkpt>
      <trkpt lat="43.53145" lon="3.06869">
        <ele>469</ele>
        <time>2015-11-29T08:06:42Z</time>
      </trkpt>
      <trkpt lat="43.53147" lon="3.06867">
        <ele>469</ele>
        <time>2015-11-29T08:06:43Z</time>
      </trkpt>
      <trkpt lat="43.53148" lon="3.06865">
        <ele>469</ele>
        <time>2015-11-29T08:06:44Z</time>
      </trkpt>
      <trkpt lat="43.53149" lon="3.06863">
        <ele>469</ele>
        <time>2015-11-29T08:06:45Z</time>
      </trkpt>
      <trkpt lat="43.53151" lon="3.0686">
        <ele>469.5</ele>
        <time>2015-11-29T08:06:46Z</time>
      </trkpt>
      <trkpt lat="43.53152" lon="3.06858">
        <ele>469.5</ele>
        <time>2015-11-29T08:06:47Z</time>
      </trkpt>
      <trkpt lat="43.53153" lon="3.06856">
        <ele>469.5</ele>
        <time>2015-11-29T08:06:48Z</time>
      </trkpt>
      <trkpt lat="43.53155" lon="3.06854">
        <ele>469.5</ele>
        <time>2015-11-29T08:06:49Z</time>
      </trkpt>
      <trkpt lat="43.53156" lon="3.06852">
        <ele>469.5</ele>
        <time>2015-11-29T08:06:50Z</time>
      </trkpt>
      <trkpt lat="43.53158" lon="3.0685">
        <ele>469.5</ele>
        <time>2015-11-29T08:06:51Z</time>
      </trkpt>
      <trkpt lat="43.53159" lon="3.06847">
        <ele>469.5</ele>
        <time>2015-11-29T08:06:52Z</time>
      </trkpt>
      <trkpt lat="43.53161" lon="3.06845">
        <ele>469.5</ele>
        <time>2015-11-29T08:06:53Z</time>
      </trkpt>
      <trkpt lat="43.53163" lon="3.06843">
        <ele>469.5</ele>
        <time>2015-11-29T08:06:54Z</time>
      </trkpt>
      <trkpt lat="43.53164" lon="3.0684">
        <ele>469.5</ele>
        <time>2015-11-29T08:06:55Z</time>
      </trkpt>
      <trkpt lat="43.53166" lon="3.06838">
        <ele>469.5</ele>
        <time>2015-11-29T08:06:56Z</time>
      </trkpt>
      <trkpt lat="43.53168" lon="3.06836">
        <ele>469.5</ele>
        <time>2015-11-29T08:06:57Z</time>
      </trkpt>
      <trkpt lat="43.5317" lon="3.06834">
        <ele>469.5</ele>
        <time>2015-11-29T08:06:58Z</time>
      </trkpt>
      <trkpt lat="43.53172" lon="3.06832">
        <ele>469.5</ele>
        <time>2015-11-29T08:06:59Z</time>
      </trkpt>
      <trkpt lat="43.53174" lon="3.0683">
        <ele>469.5</ele>
        <time>2015-11-29T08:07:00Z</time>
      </trkpt>
      <trkpt lat="43.53176" lon="3.06828">
        <ele>469.5</ele>
        <time>2015-11-29T08:07:01Z</time>
      </trkpt>
      <trkpt lat="43.53177" lon="3.06826">
        <ele>469.5</ele>
        <time>2015-11-29T08:07:02Z</time>
      </trkpt>
      <trkpt lat="43.53179" lon="3.06824">
        <ele>469.5</ele>
        <time>2015-11-29T08:07:03Z</time>
      </trkpt>
      <trkpt lat="43.53181" lon="3.06823">
        <ele>469.5</ele>
        <time>2015-11-29T08:07:04Z</time>
      </trkpt>
      <trkpt lat="43.53183" lon="3.06821">
        <ele>469.5</ele>
        <time>2015-11-29T08:07:05Z</time>
      </trkpt>
      <trkpt lat="43.53185" lon="3.06819">
        <ele>469.5</ele>
        <time>2015-11-29T08:07:06Z</time>
      </trkpt>
      <trkpt lat="43.53187" lon="3.06817">
        <ele>469.5</ele>
        <time>2015-11-29T08:07:07Z</time>
      </trkpt>
      <trkpt lat="43.53189" lon="3.06816">
        <ele>469.5</ele>
        <time>2015-11-29T08:07:08Z</time>
      </trkpt>
      <trkpt lat="43.53191" lon="3.06814">
        <ele>469.5</ele>
        <time>2015-11-29T08:07:09Z</time>
      </trkpt>
      <trkpt lat="43.53193" lon="3.06813">
        <ele>469.5</ele>
        <time>2015-11-29T08:07:10Z</time>
      </trkpt>
      <trkpt lat="43.53194" lon="3.06812">
        <ele>469.5</ele>
        <time>2015-11-29T08:07:11Z</time>
      </trkpt>
      <trkpt lat="43.53196" lon="3.06811">
        <ele>469.5</ele>
        <time>2015-11-29T08:07:12Z</time>
      </trkpt>
      <trkpt lat="43.53198" lon="3.06809">
        <ele>469.5</ele>
        <time>2015-11-29T08:07:13Z</time>
      </trkpt>
      <trkpt lat="43.532" lon="3.06808">
        <ele>469.5</ele>
        <time>2015-11-29T08:07:14Z</time>
      </trkpt>
      <trkpt lat="43.53201" lon="3.06808">
        <ele>469.5</ele>
        <time>2015-11-29T08:07:15Z</time>
      </trkpt>
      <trkpt lat="43.53203" lon="3.06807">
        <ele>469.5</ele>
        <time>2015-11-29T08:07:16Z</time>
      </trkpt>
      <trkpt lat="43.53205" lon="3.06806">
        <ele>469.5</ele>
        <time>2015-11-29T08:07:17Z</time>
      </trkpt>
      <trkpt lat="43.53207" lon="3.06804">
        <ele>469.5</ele>
        <time>2015-11-29T08:07:18Z</time>
      </trkpt>
      <trkpt lat="43.53209" lon="3.06803">
        <ele>469.5</ele>
        <time>2015-11-29T08:07:19Z</time>
      </trkpt>
      <trkpt lat="43.53211" lon="3.06802">
        <ele>469.5</ele>
        <time>2015-11-29T08:07:20Z</time>
      </trkpt>
      <trkpt lat="43.53213" lon="3.06801">
        <ele>469.5</ele>
        <time>2015-11-29T08:07:21Z</time>
      </trkpt>
      <trkpt lat="43.53215" lon="3.068">
        <ele>469.5</ele>
        <time>2015-11-29T08:07:22Z</time>
      </trkpt>
      <trkpt lat="43.53217" lon="3.06799">
        <ele>469.5</ele>
        <time>2015-11-29T08:07:23Z</time>
      </trkpt>
      <trkpt lat="43.53219" lon="3.06798">
        <ele>469.5</ele>
        <time>2015-11-29T08:07:24Z</time>
      </trkpt>
      <trkpt lat="43.53221" lon="3.06797">
        <ele>469.5</ele>
        <time>2015-11-29T08:07:25Z</time>
      </trkpt>
      <trkpt lat="43.53223" lon="3.06796">
        <ele>469.5</ele>
        <time>2015-11-29T08:07:26Z</time>
      </trkpt>
      <trkpt lat="43.53225" lon="3.06793">
        <ele>469.5</ele>
        <time>2015-11-29T08:07:27Z</time>
      </trkpt>
      <trkpt lat="43.53227" lon="3.0679">
        <ele>469.5</ele>
        <time>2015-11-29T08:07:28Z</time>
      </trkpt>
      <trkpt lat="43.53229" lon="3.06787">
        <ele>469.5</ele>
        <time>2015-11-29T08:07:29Z</time>
      </trkpt>
      <trkpt lat="43.5323" lon="3.06784">
        <ele>469.5</ele>
        <time>2015-11-29T08:07:30Z</time>
      </trkpt>
      <trkpt lat="43.5323" lon="3.06781">
        <ele>469.5</ele>
        <time>2015-11-29T08:07:31Z</time>
      </trkpt>
      <trkpt lat="43.5323" lon="3.06779">
        <ele>469.5</ele>
        <time>2015-11-29T08:07:32Z</time>
      </trkpt>
      <trkpt lat="43.5323" lon="3.06776">
        <ele>469.5</ele>
        <time>2015-11-29T08:07:33Z</time>
      </trkpt>
      <trkpt lat="43.53229" lon="3.06774">
        <ele>469.5</ele>
        <time>2015-11-29T08:07:34Z</time>
      </trkpt>
      <trkpt lat="43.53228" lon="3.06772">
        <ele>469.5</ele>
        <time>2015-11-29T08:07:35Z</time>
      </trkpt>
      <trkpt lat="43.53226" lon="3.0677">
        <ele>469.5</ele>
        <time>2015-11-29T08:07:36Z</time>
      </trkpt>
      <trkpt lat="43.53225" lon="3.06768">
        <ele>469.5</ele>
        <time>2015-11-29T08:07:37Z</time>
      </trkpt>
      <trkpt lat="43.53224" lon="3.06767">
        <ele>469.5</ele>
        <time>2015-11-29T08:07:38Z</time>
      </trkpt>
      <trkpt lat="43.53223" lon="3.06765">
        <ele>469.5</ele>
        <time>2015-11-29T08:07:39Z</time>
      </trkpt>
      <trkpt lat="43.53222" lon="3.06764">
        <ele>469.5</ele>
        <time>2015-11-29T08:07:40Z</time>
      </trkpt>
      <trkpt lat="43.53222" lon="3.06762">
        <ele>469.5</ele>
        <time>2015-11-29T08:07:41Z</time>
      </trkpt>
      <trkpt lat="43.53221" lon="3.0676">
        <ele>469.5</ele>
        <time>2015-11-29T08:07:42Z</time>
      </trkpt>
      <trkpt lat="43.53219" lon="3.06758">
        <ele>469.5</ele>
        <time>2015-11-29T08:07:43Z</time>
      </trkpt>
      <trkpt lat="43.53218" lon="3.06758">
        <ele>469.5</ele>
        <time>2015-11-29T08:07:44Z</time>
      </trkpt>
      <trkpt lat="43.53216" lon="3.06755">
        <ele>469.5</ele>
        <time>2015-11-29T08:07:45Z</time>
      </trkpt>
      <trkpt lat="43.53214" lon="3.06754">
        <ele>469.5</ele>
        <time>2015-11-29T08:07:46Z</time>
      </trkpt>
      <trkpt lat="43.53212" lon="3.06752">
        <ele>469.5</ele>
        <time>2015-11-29T08:07:47Z</time>
      </trkpt>
      <trkpt lat="43.53211" lon="3.06749">
        <ele>469.5</ele>
        <time>2015-11-29T08:07:48Z</time>
      </trkpt>
      <trkpt lat="43.5321" lon="3.06746">
        <ele>469.5</ele>
        <time>2015-11-29T08:07:49Z</time>
      </trkpt>
      <trkpt lat="43.53208" lon="3.06742">
        <ele>469.5</ele>
        <time>2015-11-29T08:07:50Z</time>
      </trkpt>
      <trkpt lat="43.53206" lon="3.06741">
        <ele>469.5</ele>
        <time>2015-11-29T08:07:51Z</time>
      </trkpt>
      <trkpt lat="43.53204" lon="3.06739">
        <ele>469.5</ele>
        <time>2015-11-29T08:07:52Z</time>
      </trkpt>
      <trkpt lat="43.53202" lon="3.06737">
        <ele>469.5</ele>
        <time>2015-11-29T08:07:53Z</time>
      </trkpt>
      <trkpt lat="43.532" lon="3.06737">
        <ele>469.5</ele>
        <time>2015-11-29T08:07:54Z</time>
      </trkpt>
      <trkpt lat="43.53199" lon="3.06737">
        <ele>469.5</ele>
        <time>2015-11-29T08:07:55Z</time>
      </trkpt>
      <trkpt lat="43.53198" lon="3.06736">
        <ele>469.5</ele>
        <time>2015-11-29T08:07:56Z</time>
      </trkpt>
      <trkpt lat="43.53197" lon="3.06736">
        <ele>469.5</ele>
        <time>2015-11-29T08:07:57Z</time>
      </trkpt>
      <trkpt lat="43.532" lon="3.06739">
        <ele>469.5</ele>
        <time>2015-11-29T08:07:58Z</time>
      </trkpt>
      <trkpt lat="43.53203" lon="3.06746">
        <ele>469.5</ele>
        <time>2015-11-29T08:08:00Z</time>
      </trkpt>
      <trkpt lat="43.53203" lon="3.06748">
        <ele>469.5</ele>
        <time>2015-11-29T08:08:01Z</time>
      </trkpt>
      <trkpt lat="43.53202" lon="3.06749">
        <ele>469.5</ele>
        <time>2015-11-29T08:08:02Z</time>
      </trkpt>
      <trkpt lat="43.53201" lon="3.06752">
        <ele>469.5</ele>
        <time>2015-11-29T08:08:03Z</time>
      </trkpt>
      <trkpt lat="43.53198" lon="3.06753">
        <ele>469.5</ele>
        <time>2015-11-29T08:08:04Z</time>
      </trkpt>
      <trkpt lat="43.53195" lon="3.06754">
        <ele>469.5</ele>
        <time>2015-11-29T08:08:05Z</time>
      </trkpt>
      <trkpt lat="43.53192" lon="3.06754">
        <ele>469.5</ele>
        <time>2015-11-29T08:08:06Z</time>
      </trkpt>
      <trkpt lat="43.53189" lon="3.06753">
        <ele>469.5</ele>
        <time>2015-11-29T08:08:07Z</time>
      </trkpt>
      <trkpt lat="43.53185" lon="3.06753">
        <ele>469.5</ele>
        <time>2015-11-29T08:08:08Z</time>
      </trkpt>
      <trkpt lat="43.53181" lon="3.06753">
        <ele>469.5</ele>
        <time>2015-11-29T08:08:09Z</time>
      </trkpt>
      <trkpt lat="43.53178" lon="3.06755">
        <ele>469.5</ele>
        <time>2015-11-29T08:08:10Z</time>
      </trkpt>
      <trkpt lat="43.53176" lon="3.06756">
        <ele>469.5</ele>
        <time>2015-11-29T08:08:11Z</time>
      </trkpt>
      <trkpt lat="43.53174" lon="3.06757">
        <ele>469.5</ele>
        <time>2015-11-29T08:08:12Z</time>
      </trkpt>
      <trkpt lat="43.53172" lon="3.06758">
        <ele>469.5</ele>
        <time>2015-11-29T08:08:13Z</time>
      </trkpt>
      <trkpt lat="43.53171" lon="3.06759">
        <ele>469.5</ele>
        <time>2015-11-29T08:08:14Z</time>
      </trkpt>
      <trkpt lat="43.5317" lon="3.06761">
        <ele>469.5</ele>
        <time>2015-11-29T08:08:15Z</time>
      </trkpt>
      <trkpt lat="43.53169" lon="3.06763">
        <ele>469.5</ele>
        <time>2015-11-29T08:08:16Z</time>
      </trkpt>
      <trkpt lat="43.53159" lon="3.06762">
        <ele>469.5</ele>
        <time>2015-11-29T08:08:18Z</time>
      </trkpt>
      <trkpt lat="43.53158" lon="3.06765">
        <ele>469.5</ele>
        <time>2015-11-29T08:08:19Z</time>
      </trkpt>
      <trkpt lat="43.53155" lon="3.06766">
        <ele>469.5</ele>
        <time>2015-11-29T08:08:20Z</time>
      </trkpt>
      <trkpt lat="43.53152" lon="3.06767">
        <ele>469.5</ele>
        <time>2015-11-29T08:08:21Z</time>
      </trkpt>
      <trkpt lat="43.53147" lon="3.06766">
        <ele>469.5</ele>
        <time>2015-11-29T08:08:22Z</time>
      </trkpt>
      <trkpt lat="43.53146" lon="3.06768">
        <ele>469.5</ele>
        <time>2015-11-29T08:08:23Z</time>
      </trkpt>
      <trkpt lat="43.53136" lon="3.06766">
        <ele>469.5</ele>
        <time>2015-11-29T08:08:25Z</time>
      </trkpt>
      <trkpt lat="43.53133" lon="3.06765">
        <ele>469.5</ele>
        <time>2015-11-29T08:08:26Z</time>
      </trkpt>
      <trkpt lat="43.53123" lon="3.0676">
        <ele>469.5</ele>
        <time>2015-11-29T08:08:28Z</time>
      </trkpt>
      <trkpt lat="43.53115" lon="3.06758">
        <ele>469.5</ele>
        <time>2015-11-29T08:08:30Z</time>
      </trkpt>
      <trkpt lat="43.53112" lon="3.06758">
        <ele>469.5</ele>
        <time>2015-11-29T08:08:31Z</time>
      </trkpt>
      <trkpt lat="43.5311" lon="3.06757">
        <ele>469.5</ele>
        <time>2015-11-29T08:08:32Z</time>
      </trkpt>
      <trkpt lat="43.53107" lon="3.06757">
        <ele>469.5</ele>
        <time>2015-11-29T08:08:33Z</time>
      </trkpt>
      <trkpt lat="43.53104" lon="3.06757">
        <ele>469.5</ele>
        <time>2015-11-29T08:08:34Z</time>
      </trkpt>
      <trkpt lat="43.53102" lon="3.06757">
        <ele>469.5</ele>
        <time>2015-11-29T08:08:35Z</time>
      </trkpt>
      <trkpt lat="43.53099" lon="3.06757">
        <ele>469.5</ele>
        <time>2015-11-29T08:08:36Z</time>
      </trkpt>
      <trkpt lat="43.53097" lon="3.06756">
        <ele>469.5</ele>
        <time>2015-11-29T08:08:37Z</time>
      </trkpt>
      <trkpt lat="43.53094" lon="3.06756">
        <ele>469.5</ele>
        <time>2015-11-29T08:08:38Z</time>
      </trkpt>
      <trkpt lat="43.53092" lon="3.06755">
        <ele>469.5</ele>
        <time>2015-11-29T08:08:39Z</time>
      </trkpt>
      <trkpt lat="43.5309" lon="3.06755">
        <ele>469.5</ele>
        <time>2015-11-29T08:08:40Z</time>
      </trkpt>
      <trkpt lat="43.53088" lon="3.06754">
        <ele>469.5</ele>
        <time>2015-11-29T08:08:41Z</time>
      </trkpt>
      <trkpt lat="43.53086" lon="3.06754">
        <ele>469.5</ele>
        <time>2015-11-29T08:08:42Z</time>
      </trkpt>
      <trkpt lat="43.53086" lon="3.06755">
        <ele>469.5</ele>
        <time>2015-11-29T08:08:43Z</time>
      </trkpt>
      <trkpt lat="43.5308" lon="3.06755">
        <ele>469.5</ele>
        <time>2015-11-29T08:08:45Z</time>
      </trkpt>
      <trkpt lat="43.53077" lon="3.06754">
        <ele>469.5</ele>
        <time>2015-11-29T08:08:46Z</time>
      </trkpt>
      <trkpt lat="43.53075" lon="3.06754">
        <ele>469.5</ele>
        <time>2015-11-29T08:08:47Z</time>
      </trkpt>
      <trkpt lat="43.53073" lon="3.06754">
        <ele>469.5</ele>
        <time>2015-11-29T08:08:48Z</time>
      </trkpt>
      <trkpt lat="43.53071" lon="3.06754">
        <ele>469.5</ele>
        <time>2015-11-29T08:08:49Z</time>
      </trkpt>
      <trkpt lat="43.53065" lon="3.06755">
        <ele>469.5</ele>
        <time>2015-11-29T08:08:51Z</time>
      </trkpt>
      <trkpt lat="43.53063" lon="3.06755">
        <ele>469.5</ele>
        <time>2015-11-29T08:08:52Z</time>
      </trkpt>
      <trkpt lat="43.5306" lon="3.06755">
        <ele>469.5</ele>
        <time>2015-11-29T08:08:53Z</time>
      </trkpt>
      <trkpt lat="43.53058" lon="3.06755">
        <ele>469.5</ele>
        <time>2015-11-29T08:08:54Z</time>
      </trkpt>
      <trkpt lat="43.53055" lon="3.06755">
        <ele>469.5</ele>
        <time>2015-11-29T08:08:55Z</time>
      </trkpt>
      <trkpt lat="43.53053" lon="3.06755">
        <ele>469.5</ele>
        <time>2015-11-29T08:08:56Z</time>
      </trkpt>
      <trkpt lat="43.5305" lon="3.06756">
        <ele>469.5</ele>
        <time>2015-11-29T08:08:57Z</time>
      </trkpt>
      <trkpt lat="43.53048" lon="3.06756">
        <ele>469.5</ele>
        <time>2015-11-29T08:08:58Z</time>
      </trkpt>
      <trkpt lat="43.53045" lon="3.06757">
        <ele>469.5</ele>
        <time>2015-11-29T08:08:59Z</time>
      </trkpt>
      <trkpt lat="43.53043" lon="3.06757">
        <ele>469.5</ele>
        <time>2015-11-29T08:09:00Z</time>
      </trkpt>
      <trkpt lat="43.53041" lon="3.06757">
        <ele>469.5</ele>
        <time>2015-11-29T08:09:01Z</time>
      </trkpt>
      <trkpt lat="43.53039" lon="3.06757">
        <ele>469.5</ele>
        <time>2015-11-29T08:09:02Z</time>
      </trkpt>
      <trkpt lat="43.53036" lon="3.06757">
        <ele>469.5</ele>
        <time>2015-11-29T08:09:03Z</time>
      </trkpt>
      <trkpt lat="43.53034" lon="3.06757">
        <ele>469.5</ele>
        <time>2015-11-29T08:09:04Z</time>
      </trkpt>
      <trkpt lat="43.53032" lon="3.06756">
        <ele>469.5</ele>
        <time>2015-11-29T08:09:05Z</time>
      </trkpt>
      <trkpt lat="43.53029" lon="3.06756">
        <ele>469.5</ele>
        <time>2015-11-29T08:09:06Z</time>
      </trkpt>
      <trkpt lat="43.53027" lon="3.06756">
        <ele>469.5</ele>
        <time>2015-11-29T08:09:07Z</time>
      </trkpt>
      <trkpt lat="43.53025" lon="3.06756">
        <ele>469.5</ele>
        <time>2015-11-29T08:09:08Z</time>
      </trkpt>
      <trkpt lat="43.53023" lon="3.06755">
        <ele>469.5</ele>
        <time>2015-11-29T08:09:09Z</time>
      </trkpt>
      <trkpt lat="43.53021" lon="3.06754">
        <ele>469.5</ele>
        <time>2015-11-29T08:09:10Z</time>
      </trkpt>
      <trkpt lat="43.53019" lon="3.06754">
        <ele>469.5</ele>
        <time>2015-11-29T08:09:11Z</time>
      </trkpt>
      <trkpt lat="43.53017" lon="3.06753">
        <ele>469.5</ele>
        <time>2015-11-29T08:09:12Z</time>
      </trkpt>
      <trkpt lat="43.53015" lon="3.06754">
        <ele>469.5</ele>
        <time>2015-11-29T08:09:13Z</time>
      </trkpt>
      <trkpt lat="43.53013" lon="3.06753">
        <ele>469.5</ele>
        <time>2015-11-29T08:09:14Z</time>
      </trkpt>
      <trkpt lat="43.53011" lon="3.06753">
        <ele>469.5</ele>
        <time>2015-11-29T08:09:15Z</time>
      </trkpt>
      <trkpt lat="43.53009" lon="3.06753">
        <ele>469.5</ele>
        <time>2015-11-29T08:09:16Z</time>
      </trkpt>
      <trkpt lat="43.53007" lon="3.06752">
        <ele>469.5</ele>
        <time>2015-11-29T08:09:17Z</time>
      </trkpt>
      <trkpt lat="43.53005" lon="3.06752">
        <ele>469.5</ele>
        <time>2015-11-29T08:09:18Z</time>
      </trkpt>
      <trkpt lat="43.53003" lon="3.06751">
        <ele>469.5</ele>
        <time>2015-11-29T08:09:19Z</time>
      </trkpt>
      <trkpt lat="43.53001" lon="3.06751">
        <ele>469.5</ele>
        <time>2015-11-29T08:09:20Z</time>
      </trkpt>
      <trkpt lat="43.52999" lon="3.0675">
        <ele>469.5</ele>
        <time>2015-11-29T08:09:21Z</time>
      </trkpt>
      <trkpt lat="43.52996" lon="3.0675">
        <ele>469.5</ele>
        <time>2015-11-29T08:09:22Z</time>
      </trkpt>
      <trkpt lat="43.52993" lon="3.0675">
        <ele>469.5</ele>
        <time>2015-11-29T08:09:23Z</time>
      </trkpt>
      <trkpt lat="43.52992" lon="3.06746">
        <ele>469.5</ele>
        <time>2015-11-29T08:09:24Z</time>
      </trkpt>
      <trkpt lat="43.5299" lon="3.06746">
        <ele>469.5</ele>
        <time>2015-11-29T08:09:25Z</time>
      </trkpt>
      <trkpt lat="43.52988" lon="3.06745">
        <ele>469.5</ele>
        <time>2015-11-29T08:09:26Z</time>
      </trkpt>
      <trkpt lat="43.52985" lon="3.06744">
        <ele>469.5</ele>
        <time>2015-11-29T08:09:27Z</time>
      </trkpt>
      <trkpt lat="43.52983" lon="3.06743">
        <ele>469.5</ele>
        <time>2015-11-29T08:09:29Z</time>
      </trkpt>
      <trkpt lat="43.52985" lon="3.0674">
        <ele>469.5</ele>
        <time>2015-11-29T08:09:30Z</time>
      </trkpt>
      <trkpt lat="43.52981" lon="3.0674">
        <ele>469.5</ele>
        <time>2015-11-29T08:09:31Z</time>
      </trkpt>
      <trkpt lat="43.52976" lon="3.06738">
        <ele>469.5</ele>
        <time>2015-11-29T08:09:33Z</time>
      </trkpt>
      <trkpt lat="43.52974" lon="3.06737">
        <ele>469.5</ele>
        <time>2015-11-29T08:09:34Z</time>
      </trkpt>
      <trkpt lat="43.52971" lon="3.06735">
        <ele>469.5</ele>
        <time>2015-11-29T08:09:35Z</time>
      </trkpt>
      <trkpt lat="43.5297" lon="3.06732">
        <ele>469.5</ele>
        <time>2015-11-29T08:09:36Z</time>
      </trkpt>
      <trkpt lat="43.52968" lon="3.06729">
        <ele>469.5</ele>
        <time>2015-11-29T08:09:37Z</time>
      </trkpt>
      <trkpt lat="43.52967" lon="3.06726">
        <ele>469.5</ele>
        <time>2015-11-29T08:09:38Z</time>
      </trkpt>
      <trkpt lat="43.52966" lon="3.06723">
        <ele>469.5</ele>
        <time>2015-11-29T08:09:39Z</time>
      </trkpt>
      <trkpt lat="43.52964" lon="3.06721">
        <ele>469.5</ele>
        <time>2015-11-29T08:09:40Z</time>
      </trkpt>
      <trkpt lat="43.52963" lon="3.0672">
        <ele>469.5</ele>
        <time>2015-11-29T08:09:41Z</time>
      </trkpt>
      <trkpt lat="43.52961" lon="3.06718">
        <ele>469.5</ele>
        <time>2015-11-29T08:09:42Z</time>
      </trkpt>
      <trkpt lat="43.52961" lon="3.06717">
        <ele>469.5</ele>
        <time>2015-11-29T08:09:43Z</time>
      </trkpt>
      <trkpt lat="43.52961" lon="3.06714">
        <ele>469</ele>
        <time>2015-11-29T08:09:44Z</time>
      </trkpt>
      <trkpt lat="43.52961" lon="3.06713">
        <ele>469</ele>
        <time>2015-11-29T08:09:45Z</time>
      </trkpt>
      <trkpt lat="43.5296" lon="3.06712">
        <ele>469</ele>
        <time>2015-11-29T08:09:46Z</time>
      </trkpt>
      <trkpt lat="43.5296" lon="3.0671">
        <ele>469.5</ele>
        <time>2015-11-29T08:09:47Z</time>
      </trkpt>
      <trkpt lat="43.5296" lon="3.06709">
        <ele>469.5</ele>
        <time>2015-11-29T08:09:48Z</time>
      </trkpt>
      <trkpt lat="43.5296" lon="3.06708">
        <ele>469.5</ele>
        <time>2015-11-29T08:09:49Z</time>
      </trkpt>
      <trkpt lat="43.5296" lon="3.06706">
        <ele>469.5</ele>
        <time>2015-11-29T08:09:50Z</time>
      </trkpt>
      <trkpt lat="43.52959" lon="3.06705">
        <ele>470</ele>
        <time>2015-11-29T08:09:51Z</time>
      </trkpt>
      <trkpt lat="43.52959" lon="3.06705">
        <ele>469.5</ele>
        <time>2015-11-29T08:09:52Z</time>
      </trkpt>
      <trkpt lat="43.52959" lon="3.06706">
        <ele>471</ele>
        <time>2015-11-29T08:09:55Z</time>
      </trkpt>
      <trkpt lat="43.52958" lon="3.06707">
        <ele>471</ele>
        <time>2015-11-29T08:09:56Z</time>
      </trkpt>
      <trkpt lat="43.52957" lon="3.06708">
        <ele>471.5</ele>
        <time>2015-11-29T08:09:57Z</time>
      </trkpt>
      <trkpt lat="43.52957" lon="3.06708">
        <ele>472</ele>
        <time>2015-11-29T08:09:58Z</time>
      </trkpt>
      <trkpt lat="43.52957" lon="3.06708">
        <ele>472</ele>
        <time>2015-11-29T08:09:59Z</time>
      </trkpt>
      <trkpt lat="43.52957" lon="3.06708">
        <ele>472.5</ele>
        <time>2015-11-29T08:10:00Z</time>
      </trkpt>
      <trkpt lat="43.52956" lon="3.06707">
        <ele>473</ele>
        <time>2015-11-29T08:10:01Z</time>
      </trkpt>
      <trkpt lat="43.52954" lon="3.06706">
        <ele>480</ele>
        <time>2015-11-29T08:10:12Z</time>
      </trkpt>
      <trkpt lat="43.52952" lon="3.06704">
        <ele>483</ele>
        <time>2015-11-29T08:10:19Z</time>
      </trkpt>
      <trkpt lat="43.52952" lon="3.06704">
        <ele>483</ele>
        <time>2015-11-29T08:10:20Z</time>
      </trkpt>
      <trkpt lat="43.52952" lon="3.06704">
        <ele>483</ele>
        <time>2015-11-29T08:10:21Z</time>
      </trkpt>
      <trkpt lat="43.52952" lon="3.06703">
        <ele>483</ele>
        <time>2015-11-29T08:10:23Z</time>
      </trkpt>
      <trkpt lat="43.52953" lon="3.06701">
        <ele>483.5</ele>
        <time>2015-11-29T08:10:25Z</time>
      </trkpt>
      <trkpt lat="43.52954" lon="3.067">
        <ele>485</ele>
        <time>2015-11-29T08:10:27Z</time>
      </trkpt>
      <trkpt lat="43.52955" lon="3.06702">
        <ele>485.5</ele>
        <time>2015-11-29T08:10:27Z</time>
      </trkpt>
      <trkpt lat="43.52955" lon="3.06704">
        <ele>487</ele>
        <time>2015-11-29T08:10:28Z</time>
      </trkpt>
      <trkpt lat="43.52955" lon="3.06706">
        <ele>487.5</ele>
        <time>2015-11-29T08:10:29Z</time>
      </trkpt>
      <trkpt lat="43.52955" lon="3.06708">
        <ele>489.5</ele>
        <time>2015-11-29T08:10:30Z</time>
      </trkpt>
      <trkpt lat="43.52955" lon="3.0671">
        <ele>490.5</ele>
        <time>2015-11-29T08:10:32Z</time>
      </trkpt>
      <trkpt lat="43.52955" lon="3.06711">
        <ele>492</ele>
        <time>2015-11-29T08:10:32Z</time>
      </trkpt>
      <trkpt lat="43.52956" lon="3.06714">
        <ele>492.5</ele>
        <time>2015-11-29T08:10:33Z</time>
      </trkpt>
      <trkpt lat="43.52957" lon="3.06715">
        <ele>493</ele>
        <time>2015-11-29T08:10:34Z</time>
      </trkpt>
      <trkpt lat="43.52958" lon="3.06717">
        <ele>493.5</ele>
        <time>2015-11-29T08:10:36Z</time>
      </trkpt>
      <trkpt lat="43.52959" lon="3.06719">
        <ele>494</ele>
        <time>2015-11-29T08:10:36Z</time>
      </trkpt>
      <trkpt lat="43.5296" lon="3.06721">
        <ele>494</ele>
        <time>2015-11-29T08:10:37Z</time>
      </trkpt>
      <trkpt lat="43.52962" lon="3.06721">
        <ele>494</ele>
        <time>2015-11-29T08:10:38Z</time>
      </trkpt>
      <trkpt lat="43.52964" lon="3.06722">
        <ele>494</ele>
        <time>2015-11-29T08:10:39Z</time>
      </trkpt>
      <trkpt lat="43.52967" lon="3.06722">
        <ele>494.5</ele>
        <time>2015-11-29T08:10:40Z</time>
      </trkpt>
      <trkpt lat="43.52976" lon="3.06724">
        <ele>495</ele>
        <time>2015-11-29T08:10:43Z</time>
      </trkpt>
      <trkpt lat="43.52979" lon="3.06723">
        <ele>495.5</ele>
        <time>2015-11-29T08:10:43Z</time>
      </trkpt>
      <trkpt lat="43.52983" lon="3.06722">
        <ele>496</ele>
        <time>2015-11-29T08:10:44Z</time>
      </trkpt>
      <trkpt lat="43.52986" lon="3.06731">
        <ele>497</ele>
        <time>2015-11-29T08:10:46Z</time>
      </trkpt>
      <trkpt lat="43.53001" lon="3.06719">
        <ele>499.5</ele>
        <time>2015-11-29T08:10:53Z</time>
      </trkpt>
      <trkpt lat="43.53004" lon="3.06715">
        <ele>500.5</ele>
        <time>2015-11-29T08:10:54Z</time>
      </trkpt>
      <trkpt lat="43.53007" lon="3.06712">
        <ele>501</ele>
        <time>2015-11-29T08:10:55Z</time>
      </trkpt>
      <trkpt lat="43.5301" lon="3.06708">
        <ele>502</ele>
        <time>2015-11-29T08:10:56Z</time>
      </trkpt>
      <trkpt lat="43.53013" lon="3.06707">
        <ele>502</ele>
        <time>2015-11-29T08:10:57Z</time>
      </trkpt>
      <trkpt lat="43.53017" lon="3.06707">
        <ele>502</ele>
        <time>2015-11-29T08:10:58Z</time>
      </trkpt>
      <trkpt lat="43.53019" lon="3.06705">
        <ele>504</ele>
        <time>2015-11-29T08:10:59Z</time>
      </trkpt>
      <trkpt lat="43.53022" lon="3.06702">
        <ele>504</ele>
        <time>2015-11-29T08:11:00Z</time>
      </trkpt>
      <trkpt lat="43.53024" lon="3.06701">
        <ele>504</ele>
        <time>2015-11-29T08:11:01Z</time>
      </trkpt>
      <trkpt lat="43.53027" lon="3.067">
        <ele>504.5</ele>
        <time>2015-11-29T08:11:02Z</time>
      </trkpt>
      <trkpt lat="43.5303" lon="3.067">
        <ele>503.5</ele>
        <time>2015-11-29T08:11:03Z</time>
      </trkpt>
      <trkpt lat="43.53032" lon="3.06698">
        <ele>504</ele>
        <time>2015-11-29T08:11:04Z</time>
      </trkpt>
      <trkpt lat="43.53035" lon="3.06697">
        <ele>504</ele>
        <time>2015-11-29T08:11:05Z</time>
      </trkpt>
      <trkpt lat="43.53037" lon="3.06695">
        <ele>504</ele>
        <time>2015-11-29T08:11:06Z</time>
      </trkpt>
      <trkpt lat="43.53039" lon="3.06693">
        <ele>504.5</ele>
        <time>2015-11-29T08:11:07Z</time>
      </trkpt>
      <trkpt lat="43.53042" lon="3.06692">
        <ele>504.5</ele>
        <time>2015-11-29T08:11:08Z</time>
      </trkpt>
      <trkpt lat="43.53044" lon="3.06692">
        <ele>504.5</ele>
        <time>2015-11-29T08:11:09Z</time>
      </trkpt>
      <trkpt lat="43.53047" lon="3.06691">
        <ele>505</ele>
        <time>2015-11-29T08:11:10Z</time>
      </trkpt>
      <trkpt lat="43.53049" lon="3.06691">
        <ele>506</ele>
        <time>2015-11-29T08:11:11Z</time>
      </trkpt>
      <trkpt lat="43.53051" lon="3.06691">
        <ele>506.5</ele>
        <time>2015-11-29T08:11:12Z</time>
      </trkpt>
      <trkpt lat="43.53053" lon="3.06691">
        <ele>506.5</ele>
        <time>2015-11-29T08:11:13Z</time>
      </trkpt>
      <trkpt lat="43.53055" lon="3.06691">
        <ele>506.5</ele>
        <time>2015-11-29T08:11:14Z</time>
      </trkpt>
      <trkpt lat="43.53057" lon="3.06691">
        <ele>507</ele>
        <time>2015-11-29T08:11:15Z</time>
      </trkpt>
      <trkpt lat="43.53059" lon="3.06691">
        <ele>507.5</ele>
        <time>2015-11-29T08:11:16Z</time>
      </trkpt>
      <trkpt lat="43.5306" lon="3.0669">
        <ele>508</ele>
        <time>2015-11-29T08:11:17Z</time>
      </trkpt>
      <trkpt lat="43.53061" lon="3.06688">
        <ele>508</ele>
        <time>2015-11-29T08:11:18Z</time>
      </trkpt>
      <trkpt lat="43.53062" lon="3.06688">
        <ele>508</ele>
        <time>2015-11-29T08:11:19Z</time>
      </trkpt>
      <trkpt lat="43.53061" lon="3.06688">
        <ele>508</ele>
        <time>2015-11-29T08:11:20Z</time>
      </trkpt>
      <trkpt lat="43.5306" lon="3.0669">
        <ele>508</ele>
        <time>2015-11-29T08:11:21Z</time>
      </trkpt>
      <trkpt lat="43.53058" lon="3.06691">
        <ele>508</ele>
        <time>2015-11-29T08:11:22Z</time>
      </trkpt>
      <trkpt lat="43.53056" lon="3.06692">
        <ele>507.5</ele>
        <time>2015-11-29T08:11:23Z</time>
      </trkpt>
      <trkpt lat="43.53055" lon="3.06693">
        <ele>507.5</ele>
        <time>2015-11-29T08:11:24Z</time>
      </trkpt>
      <trkpt lat="43.53053" lon="3.06693">
        <ele>507</ele>
        <time>2015-11-29T08:11:25Z</time>
      </trkpt>
      <trkpt lat="43.53052" lon="3.06694">
        <ele>506.5</ele>
        <time>2015-11-29T08:11:26Z</time>
      </trkpt>
      <trkpt lat="43.53051" lon="3.06693">
        <ele>506</ele>
        <time>2015-11-29T08:11:27Z</time>
      </trkpt>
      <trkpt lat="43.53049" lon="3.06692">
        <ele>505.5</ele>
        <time>2015-11-29T08:11:28Z</time>
      </trkpt>
      <trkpt lat="43.53048" lon="3.06693">
        <ele>506</ele>
        <time>2015-11-29T08:11:29Z</time>
      </trkpt>
      <trkpt lat="43.53046" lon="3.06693">
        <ele>506</ele>
        <time>2015-11-29T08:11:30Z</time>
      </trkpt>
      <trkpt lat="43.53043" lon="3.06694">
        <ele>505.5</ele>
        <time>2015-11-29T08:11:31Z</time>
      </trkpt>
      <trkpt lat="43.53041" lon="3.06694">
        <ele>505.5</ele>
        <time>2015-11-29T08:11:32Z</time>
      </trkpt>
      <trkpt lat="43.53039" lon="3.06694">
        <ele>505.5</ele>
        <time>2015-11-29T08:11:33Z</time>
      </trkpt>
      <trkpt lat="43.53037" lon="3.06694">
        <ele>505.5</ele>
        <time>2015-11-29T08:11:34Z</time>
      </trkpt>
      <trkpt lat="43.53035" lon="3.06694">
        <ele>505.5</ele>
        <time>2015-11-29T08:11:35Z</time>
      </trkpt>
      <trkpt lat="43.53034" lon="3.06693">
        <ele>505.5</ele>
        <time>2015-11-29T08:11:36Z</time>
      </trkpt>
      <trkpt lat="43.53032" lon="3.06692">
        <ele>505.5</ele>
        <time>2015-11-29T08:11:37Z</time>
      </trkpt>
      <trkpt lat="43.5303" lon="3.06692">
        <ele>505.5</ele>
        <time>2015-11-29T08:11:38Z</time>
      </trkpt>
      <trkpt lat="43.53028" lon="3.06692">
        <ele>506</ele>
        <time>2015-11-29T08:11:39Z</time>
      </trkpt>
      <trkpt lat="43.53025" lon="3.06691">
        <ele>508</ele>
        <time>2015-11-29T08:11:40Z</time>
      </trkpt>
      <trkpt lat="43.53023" lon="3.0669">
        <ele>508</ele>
        <time>2015-11-29T08:11:41Z</time>
      </trkpt>
      <trkpt lat="43.53022" lon="3.06688">
        <ele>508</ele>
        <time>2015-11-29T08:11:42Z</time>
      </trkpt>
      <trkpt lat="43.5302" lon="3.06687">
        <ele>508.5</ele>
        <time>2015-11-29T08:11:43Z</time>
      </trkpt>
      <trkpt lat="43.53018" lon="3.06687">
        <ele>508.5</ele>
        <time>2015-11-29T08:11:44Z</time>
      </trkpt>
      <trkpt lat="43.53017" lon="3.06685">
        <ele>509.5</ele>
        <time>2015-11-29T08:11:45Z</time>
      </trkpt>
      <trkpt lat="43.53016" lon="3.06682">
        <ele>510</ele>
        <time>2015-11-29T08:11:46Z</time>
      </trkpt>
      <trkpt lat="43.53015" lon="3.0668">
        <ele>510.5</ele>
        <time>2015-11-29T08:11:47Z</time>
      </trkpt>
      <trkpt lat="43.53014" lon="3.06678">
        <ele>510.5</ele>
        <time>2015-11-29T08:11:48Z</time>
      </trkpt>
      <trkpt lat="43.53014" lon="3.06675">
        <ele>511</ele>
        <time>2015-11-29T08:11:49Z</time>
      </trkpt>
      <trkpt lat="43.53014" lon="3.06672">
        <ele>510.5</ele>
        <time>2015-11-29T08:11:50Z</time>
      </trkpt>
      <trkpt lat="43.53014" lon="3.0667">
        <ele>511</ele>
        <time>2015-11-29T08:11:51Z</time>
      </trkpt>
      <trkpt lat="43.53014" lon="3.06668">
        <ele>511.5</ele>
        <time>2015-11-29T08:11:52Z</time>
      </trkpt>
      <trkpt lat="43.53014" lon="3.06666">
        <ele>512.5</ele>
        <time>2015-11-29T08:11:53Z</time>
      </trkpt>
      <trkpt lat="43.53014" lon="3.06663">
        <ele>513</ele>
        <time>2015-11-29T08:11:54Z</time>
      </trkpt>
      <trkpt lat="43.53014" lon="3.06662">
        <ele>513.5</ele>
        <time>2015-11-29T08:11:55Z</time>
      </trkpt>
      <trkpt lat="43.53014" lon="3.06662">
        <ele>513.5</ele>
        <time>2015-11-29T08:11:56Z</time>
      </trkpt>
      <trkpt lat="43.53014" lon="3.06661">
        <ele>513.5</ele>
        <time>2015-11-29T08:11:57Z</time>
      </trkpt>
      <trkpt lat="43.53015" lon="3.06661">
        <ele>512.5</ele>
        <time>2015-11-29T08:12:01Z</time>
      </trkpt>
      <trkpt lat="43.53015" lon="3.0666">
        <ele>512.5</ele>
        <time>2015-11-29T08:12:02Z</time>
      </trkpt>
      <trkpt lat="43.53015" lon="3.06658">
        <ele>513.5</ele>
        <time>2015-11-29T08:12:04Z</time>
      </trkpt>
      <trkpt lat="43.53013" lon="3.06656">
        <ele>514</ele>
        <time>2015-11-29T08:12:06Z</time>
      </trkpt>
      <trkpt lat="43.53013" lon="3.06656">
        <ele>514</ele>
        <time>2015-11-29T08:12:07Z</time>
      </trkpt>
      <trkpt lat="43.53013" lon="3.06655">
        <ele>513.5</ele>
        <time>2015-11-29T08:12:08Z</time>
      </trkpt>
      <trkpt lat="43.53013" lon="3.06655">
        <ele>513.5</ele>
        <time>2015-11-29T08:12:09Z</time>
      </trkpt>
      <trkpt lat="43.53013" lon="3.06654">
        <ele>513.5</ele>
        <time>2015-11-29T08:12:09Z</time>
      </trkpt>
      <trkpt lat="43.53014" lon="3.06648">
        <ele>514</ele>
        <time>2015-11-29T08:12:15Z</time>
      </trkpt>
      <trkpt lat="43.53014" lon="3.06652">
        <ele>514.5</ele>
        <time>2015-11-29T08:12:17Z</time>
      </trkpt>
      <trkpt lat="43.53014" lon="3.06658">
        <ele>515.5</ele>
        <time>2015-11-29T08:12:23Z</time>
      </trkpt>
      <trkpt lat="43.53013" lon="3.0665">
        <ele>517</ele>
        <time>2015-11-29T08:12:30Z</time>
      </trkpt>
      <trkpt lat="43.53013" lon="3.06649">
        <ele>517</ele>
        <time>2015-11-29T08:12:30Z</time>
      </trkpt>
      <trkpt lat="43.53011" lon="3.06647">
        <ele>517</ele>
        <time>2015-11-29T08:12:31Z</time>
      </trkpt>
      <trkpt lat="43.53011" lon="3.06648">
        <ele>517</ele>
        <time>2015-11-29T08:12:33Z</time>
      </trkpt>
      <trkpt lat="43.53011" lon="3.06648">
        <ele>517</ele>
        <time>2015-11-29T08:12:33Z</time>
      </trkpt>
      <trkpt lat="43.53011" lon="3.06649">
        <ele>517</ele>
        <time>2015-11-29T08:12:34Z</time>
      </trkpt>
      <trkpt lat="43.5301" lon="3.06649">
        <ele>516.5</ele>
        <time>2015-11-29T08:12:35Z</time>
      </trkpt>
      <trkpt lat="43.53009" lon="3.0665">
        <ele>516.5</ele>
        <time>2015-11-29T08:12:36Z</time>
      </trkpt>
      <trkpt lat="43.53009" lon="3.06652">
        <ele>516.5</ele>
        <time>2015-11-29T08:12:37Z</time>
      </trkpt>
      <trkpt lat="43.53009" lon="3.06652">
        <ele>516.5</ele>
        <time>2015-11-29T08:12:38Z</time>
      </trkpt>
      <trkpt lat="43.53011" lon="3.06655">
        <ele>516.5</ele>
        <time>2015-11-29T08:12:43Z</time>
      </trkpt>
      <trkpt lat="43.53012" lon="3.06657">
        <ele>516.5</ele>
        <time>2015-11-29T08:12:45Z</time>
      </trkpt>
      <trkpt lat="43.53012" lon="3.06656">
        <ele>516.5</ele>
        <time>2015-11-29T08:12:46Z</time>
      </trkpt>
      <trkpt lat="43.53012" lon="3.06656">
        <ele>516</ele>
        <time>2015-11-29T08:12:47Z</time>
      </trkpt>
      <trkpt lat="43.53012" lon="3.06654">
        <ele>517.5</ele>
        <time>2015-11-29T08:12:52Z</time>
      </trkpt>
      <trkpt lat="43.53011" lon="3.06654">
        <ele>517</ele>
        <time>2015-11-29T08:12:54Z</time>
      </trkpt>
      <trkpt lat="43.53011" lon="3.06654">
        <ele>517.5</ele>
        <time>2015-11-29T08:12:55Z</time>
      </trkpt>
      <trkpt lat="43.53011" lon="3.06654">
        <ele>517.5</ele>
        <time>2015-11-29T08:12:56Z</time>
      </trkpt>
      <trkpt lat="43.53011" lon="3.06654">
        <ele>517</ele>
        <time>2015-11-29T08:12:57Z</time>
      </trkpt>
      <trkpt lat="43.53011" lon="3.06654">
        <ele>517</ele>
        <time>2015-11-29T08:12:58Z</time>
      </trkpt>
      <trkpt lat="43.53011" lon="3.06654">
        <ele>517</ele>
        <time>2015-11-29T08:12:59Z</time>
      </trkpt>
      <trkpt lat="43.53012" lon="3.06656">
        <ele>516.5</ele>
        <time>2015-11-29T08:13:00Z</time>
      </trkpt>
      <trkpt lat="43.53013" lon="3.06657">
        <ele>516.5</ele>
        <time>2015-11-29T08:13:01Z</time>
      </trkpt>
      <trkpt lat="43.53013" lon="3.06657">
        <ele>516.5</ele>
        <time>2015-11-29T08:13:02Z</time>
      </trkpt>
      <trkpt lat="43.53013" lon="3.06657">
        <ele>516.5</ele>
        <time>2015-11-29T08:13:03Z</time>
      </trkpt>
      <trkpt lat="43.53014" lon="3.06657">
        <ele>516.5</ele>
        <time>2015-11-29T08:13:04Z</time>
      </trkpt>
      <trkpt lat="43.53015" lon="3.06656">
        <ele>516</ele>
        <time>2015-11-29T08:13:05Z</time>
      </trkpt>
      <trkpt lat="43.53015" lon="3.06656">
        <ele>516</ele>
        <time>2015-11-29T08:13:06Z</time>
      </trkpt>
      <trkpt lat="43.53015" lon="3.06656">
        <ele>515.5</ele>
        <time>2015-11-29T08:13:07Z</time>
      </trkpt>
      <trkpt lat="43.53015" lon="3.06657">
        <ele>515.5</ele>
        <time>2015-11-29T08:13:08Z</time>
      </trkpt>
      <trkpt lat="43.53015" lon="3.06658">
        <ele>515.5</ele>
        <time>2015-11-29T08:13:09Z</time>
      </trkpt>
      <trkpt lat="43.53015" lon="3.06658">
        <ele>515.5</ele>
        <time>2015-11-29T08:13:10Z</time>
      </trkpt>
      <trkpt lat="43.53015" lon="3.06659">
        <ele>515.5</ele>
        <time>2015-11-29T08:13:11Z</time>
      </trkpt>
      <trkpt lat="43.53015" lon="3.06663">
        <ele>512.5</ele>
        <time>2015-11-29T08:13:13Z</time>
      </trkpt>
      <trkpt lat="43.53013" lon="3.06647">
        <ele>519</ele>
        <time>2015-11-29T08:13:41Z</time>
      </trkpt>
      <trkpt lat="43.53012" lon="3.06648">
        <ele>520</ele>
        <time>2015-11-29T08:13:42Z</time>
      </trkpt>
      <trkpt lat="43.53009" lon="3.06652">
        <ele>520.5</ele>
        <time>2015-11-29T08:13:53Z</time>
      </trkpt>
      <trkpt lat="43.5301" lon="3.06652">
        <ele>520</ele>
        <time>2015-11-29T08:13:54Z</time>
      </trkpt>
      <trkpt lat="43.5301" lon="3.06644">
        <ele>525.5</ele>
        <time>2015-11-29T08:14:09Z</time>
      </trkpt>
      <trkpt lat="43.5301" lon="3.06645">
        <ele>526</ele>
        <time>2015-11-29T08:14:11Z</time>
      </trkpt>
      <trkpt lat="43.5301" lon="3.06645">
        <ele>526</ele>
        <time>2015-11-29T08:14:12Z</time>
      </trkpt>
      <trkpt lat="43.5301" lon="3.06643">
        <ele>526</ele>
        <time>2015-11-29T08:14:13Z</time>
      </trkpt>
      <trkpt lat="43.53009" lon="3.06645">
        <ele>526</ele>
        <time>2015-11-29T08:14:14Z</time>
      </trkpt>
      <trkpt lat="43.53009" lon="3.06646">
        <ele>526.5</ele>
        <time>2015-11-29T08:14:15Z</time>
      </trkpt>
      <trkpt lat="43.53008" lon="3.06647">
        <ele>526.5</ele>
        <time>2015-11-29T08:14:17Z</time>
      </trkpt>
      <trkpt lat="43.53008" lon="3.06647">
        <ele>526.5</ele>
        <time>2015-11-29T08:14:18Z</time>
      </trkpt>
      <trkpt lat="43.53008" lon="3.06648">
        <ele>526.5</ele>
        <time>2015-11-29T08:14:19Z</time>
      </trkpt>
      <trkpt lat="43.53007" lon="3.06648">
        <ele>526.5</ele>
        <time>2015-11-29T08:14:20Z</time>
      </trkpt>
      <trkpt lat="43.53008" lon="3.06648">
        <ele>526.5</ele>
        <time>2015-11-29T08:14:22Z</time>
      </trkpt>
      <trkpt lat="43.53009" lon="3.06651">
        <ele>525</ele>
        <time>2015-11-29T08:14:26Z</time>
      </trkpt>
      <trkpt lat="43.53009" lon="3.06653">
        <ele>525</ele>
        <time>2015-11-29T08:14:27Z</time>
      </trkpt>
      <trkpt lat="43.53008" lon="3.06648">
        <ele>524.5</ele>
        <time>2015-11-29T08:14:31Z</time>
      </trkpt>
      <trkpt lat="43.53008" lon="3.06647">
        <ele>524.5</ele>
        <time>2015-11-29T08:14:32Z</time>
      </trkpt>
      <trkpt lat="43.53008" lon="3.06648">
        <ele>524</ele>
        <time>2015-11-29T08:14:36Z</time>
      </trkpt>
      <trkpt lat="43.53006" lon="3.06647">
        <ele>523.5</ele>
        <time>2015-11-29T08:14:39Z</time>
      </trkpt>
      <trkpt lat="43.53007" lon="3.06649">
        <ele>523</ele>
        <time>2015-11-29T08:14:42Z</time>
      </trkpt>
      <trkpt lat="43.53007" lon="3.0665">
        <ele>523</ele>
        <time>2015-11-29T08:14:43Z</time>
      </trkpt>
      <trkpt lat="43.53007" lon="3.06652">
        <ele>523</ele>
        <time>2015-11-29T08:14:44Z</time>
      </trkpt>
      <trkpt lat="43.5301" lon="3.06654">
        <ele>522</ele>
        <time>2015-11-29T08:14:47Z</time>
      </trkpt>
      <trkpt lat="43.53009" lon="3.06651">
        <ele>520.5</ele>
        <time>2015-11-29T08:14:49Z</time>
      </trkpt>
      <trkpt lat="43.53009" lon="3.0665">
        <ele>520.5</ele>
        <time>2015-11-29T08:14:51Z</time>
      </trkpt>
      <trkpt lat="43.53009" lon="3.06648">
        <ele>520</ele>
        <time>2015-11-29T08:14:53Z</time>
      </trkpt>
      <trkpt lat="43.53009" lon="3.06647">
        <ele>520</ele>
        <time>2015-11-29T08:14:54Z</time>
      </trkpt>
      <trkpt lat="43.5301" lon="3.06646">
        <ele>520.5</ele>
        <time>2015-11-29T08:14:57Z</time>
      </trkpt>
      <trkpt lat="43.5301" lon="3.06644">
        <ele>520</ele>
        <time>2015-11-29T08:14:59Z</time>
      </trkpt>
      <trkpt lat="43.5301" lon="3.06642">
        <ele>521</ele>
        <time>2015-11-29T08:15:00Z</time>
      </trkpt>
      <trkpt lat="43.53012" lon="3.0664">
        <ele>520</ele>
        <time>2015-11-29T08:15:01Z</time>
      </trkpt>
      <trkpt lat="43.53012" lon="3.06639">
        <ele>520</ele>
        <time>2015-11-29T08:15:02Z</time>
      </trkpt>
      <trkpt lat="43.53015" lon="3.06636">
        <ele>519.5</ele>
        <time>2015-11-29T08:15:04Z</time>
      </trkpt>
      <trkpt lat="43.53016" lon="3.06634">
        <ele>520.5</ele>
        <time>2015-11-29T08:15:05Z</time>
      </trkpt>
      <trkpt lat="43.53016" lon="3.06633">
        <ele>520.5</ele>
        <time>2015-11-29T08:15:06Z</time>
      </trkpt>
      <trkpt lat="43.53015" lon="3.06631">
        <ele>520.5</ele>
        <time>2015-11-29T08:15:07Z</time>
      </trkpt>
      <trkpt lat="43.53014" lon="3.0663">
        <ele>521</ele>
        <time>2015-11-29T08:15:08Z</time>
      </trkpt>
      <trkpt lat="43.53014" lon="3.06629">
        <ele>520.5</ele>
        <time>2015-11-29T08:15:09Z</time>
      </trkpt>
      <trkpt lat="43.53014" lon="3.06627">
        <ele>520</ele>
        <time>2015-11-29T08:15:10Z</time>
      </trkpt>
      <trkpt lat="43.53014" lon="3.06623">
        <ele>518.5</ele>
        <time>2015-11-29T08:15:12Z</time>
      </trkpt>
      <trkpt lat="43.53013" lon="3.06622">
        <ele>518</ele>
        <time>2015-11-29T08:15:13Z</time>
      </trkpt>
      <trkpt lat="43.53013" lon="3.0662">
        <ele>517.5</ele>
        <time>2015-11-29T08:15:14Z</time>
      </trkpt>
      <trkpt lat="43.53012" lon="3.06623">
        <ele>517.5</ele>
        <time>2015-11-29T08:15:15Z</time>
      </trkpt>
      <trkpt lat="43.53011" lon="3.06622">
        <ele>517.5</ele>
        <time>2015-11-29T08:15:16Z</time>
      </trkpt>
      <trkpt lat="43.5301" lon="3.06622">
        <ele>518</ele>
        <time>2015-11-29T08:15:17Z</time>
      </trkpt>
      <trkpt lat="43.53009" lon="3.06621">
        <ele>518</ele>
        <time>2015-11-29T08:15:18Z</time>
      </trkpt>
      <trkpt lat="43.53008" lon="3.06621">
        <ele>518.5</ele>
        <time>2015-11-29T08:15:19Z</time>
      </trkpt>
      <trkpt lat="43.53007" lon="3.0662">
        <ele>520</ele>
        <time>2015-11-29T08:15:20Z</time>
      </trkpt>
      <trkpt lat="43.53005" lon="3.06619">
        <ele>521</ele>
        <time>2015-11-29T08:15:21Z</time>
      </trkpt>
      <trkpt lat="43.53003" lon="3.06618">
        <ele>521.5</ele>
        <time>2015-11-29T08:15:22Z</time>
      </trkpt>
      <trkpt lat="43.53002" lon="3.06617">
        <ele>521</ele>
        <time>2015-11-29T08:15:23Z</time>
      </trkpt>
      <trkpt lat="43.53001" lon="3.06618">
        <ele>520.5</ele>
        <time>2015-11-29T08:15:24Z</time>
      </trkpt>
      <trkpt lat="43.53" lon="3.06618">
        <ele>519.5</ele>
        <time>2015-11-29T08:15:25Z</time>
      </trkpt>
      <trkpt lat="43.52999" lon="3.06618">
        <ele>519.5</ele>
        <time>2015-11-29T08:15:26Z</time>
      </trkpt>
      <trkpt lat="43.52995" lon="3.06613">
        <ele>518</ele>
        <time>2015-11-29T08:15:28Z</time>
      </trkpt>
      <trkpt lat="43.52993" lon="3.06612">
        <ele>517</ele>
        <time>2015-11-29T08:15:29Z</time>
      </trkpt>
      <trkpt lat="43.52991" lon="3.06609">
        <ele>516</ele>
        <time>2015-11-29T08:15:30Z</time>
      </trkpt>
      <trkpt lat="43.52989" lon="3.06607">
        <ele>515.5</ele>
        <time>2015-11-29T08:15:31Z</time>
      </trkpt>
      <trkpt lat="43.52988" lon="3.0661">
        <ele>514.5</ele>
        <time>2015-11-29T08:15:32Z</time>
      </trkpt>
      <trkpt lat="43.52987" lon="3.06612">
        <ele>514</ele>
        <time>2015-11-29T08:15:33Z</time>
      </trkpt>
      <trkpt lat="43.52986" lon="3.06613">
        <ele>513.5</ele>
        <time>2015-11-29T08:15:34Z</time>
      </trkpt>
      <trkpt lat="43.52986" lon="3.06615">
        <ele>513.5</ele>
        <time>2015-11-29T08:15:35Z</time>
      </trkpt>
      <trkpt lat="43.52986" lon="3.06616">
        <ele>513.5</ele>
        <time>2015-11-29T08:15:36Z</time>
      </trkpt>
      <trkpt lat="43.52984" lon="3.06617">
        <ele>513</ele>
        <time>2015-11-29T08:15:37Z</time>
      </trkpt>
      <trkpt lat="43.52985" lon="3.06618">
        <ele>513.5</ele>
        <time>2015-11-29T08:15:38Z</time>
      </trkpt>
      <trkpt lat="43.52986" lon="3.06618">
        <ele>513.5</ele>
        <time>2015-11-29T08:15:39Z</time>
      </trkpt>
      <trkpt lat="43.52989" lon="3.06617">
        <ele>511.5</ele>
        <time>2015-11-29T08:15:51Z</time>
      </trkpt>
      <trkpt lat="43.52989" lon="3.06618">
        <ele>511</ele>
        <time>2015-11-29T08:15:56Z</time>
      </trkpt>
      <trkpt lat="43.52989" lon="3.06618">
        <ele>511</ele>
        <time>2015-11-29T08:15:58Z</time>
      </trkpt>
      <trkpt lat="43.52985" lon="3.06619">
        <ele>511</ele>
        <time>2015-11-29T08:16:00Z</time>
      </trkpt>
      <trkpt lat="43.52984" lon="3.0662">
        <ele>511.5</ele>
        <time>2015-11-29T08:16:01Z</time>
      </trkpt>
      <trkpt lat="43.52983" lon="3.0662">
        <ele>511.5</ele>
        <time>2015-11-29T08:16:02Z</time>
      </trkpt>
      <trkpt lat="43.52982" lon="3.06621">
        <ele>512</ele>
        <time>2015-11-29T08:16:03Z</time>
      </trkpt>
      <trkpt lat="43.52981" lon="3.06621">
        <ele>511.5</ele>
        <time>2015-11-29T08:16:04Z</time>
      </trkpt>
      <trkpt lat="43.52982" lon="3.06619">
        <ele>510</ele>
        <time>2015-11-29T08:16:08Z</time>
      </trkpt>
      <trkpt lat="43.52981" lon="3.0662">
        <ele>509</ele>
        <time>2015-11-29T08:16:12Z</time>
      </trkpt>
      <trkpt lat="43.5298" lon="3.0662">
        <ele>509</ele>
        <time>2015-11-29T08:16:13Z</time>
      </trkpt>
      <trkpt lat="43.52979" lon="3.06621">
        <ele>509</ele>
        <time>2015-11-29T08:16:18Z</time>
      </trkpt>
      <trkpt lat="43.5298" lon="3.06621">
        <ele>508</ele>
        <time>2015-11-29T08:16:19Z</time>
      </trkpt>
      <trkpt lat="43.52982" lon="3.06622">
        <ele>508</ele>
        <time>2015-11-29T08:16:35Z</time>
      </trkpt>
      <trkpt lat="43.52981" lon="3.06625">
        <ele>508</ele>
        <time>2015-11-29T08:16:37Z</time>
      </trkpt>
      <trkpt lat="43.5298" lon="3.06627">
        <ele>508</ele>
        <time>2015-11-29T08:16:38Z</time>
      </trkpt>
      <trkpt lat="43.52979" lon="3.06629">
        <ele>508</ele>
        <time>2015-11-29T08:16:39Z</time>
      </trkpt>
      <trkpt lat="43.52979" lon="3.0663">
        <ele>507.5</ele>
        <time>2015-11-29T08:16:40Z</time>
      </trkpt>
      <trkpt lat="43.52978" lon="3.06632">
        <ele>507.5</ele>
        <time>2015-11-29T08:16:41Z</time>
      </trkpt>
      <trkpt lat="43.52976" lon="3.06634">
        <ele>506.5</ele>
        <time>2015-11-29T08:16:42Z</time>
      </trkpt>
      <trkpt lat="43.52976" lon="3.06637">
        <ele>506</ele>
        <time>2015-11-29T08:16:43Z</time>
      </trkpt>
      <trkpt lat="43.52974" lon="3.06639">
        <ele>506</ele>
        <time>2015-11-29T08:16:44Z</time>
      </trkpt>
      <trkpt lat="43.52974" lon="3.06641">
        <ele>506</ele>
        <time>2015-11-29T08:16:45Z</time>
      </trkpt>
      <trkpt lat="43.52972" lon="3.06644">
        <ele>506</ele>
        <time>2015-11-29T08:16:46Z</time>
      </trkpt>
      <trkpt lat="43.52971" lon="3.06646">
        <ele>506</ele>
        <time>2015-11-29T08:16:47Z</time>
      </trkpt>
      <trkpt lat="43.5297" lon="3.06648">
        <ele>505.5</ele>
        <time>2015-11-29T08:16:48Z</time>
      </trkpt>
      <trkpt lat="43.52968" lon="3.06651">
        <ele>505.5</ele>
        <time>2015-11-29T08:16:49Z</time>
      </trkpt>
      <trkpt lat="43.52967" lon="3.06653">
        <ele>505.5</ele>
        <time>2015-11-29T08:16:50Z</time>
      </trkpt>
      <trkpt lat="43.52965" lon="3.06656">
        <ele>505.5</ele>
        <time>2015-11-29T08:16:51Z</time>
      </trkpt>
      <trkpt lat="43.52965" lon="3.06658">
        <ele>504.5</ele>
        <time>2015-11-29T08:16:52Z</time>
      </trkpt>
      <trkpt lat="43.52963" lon="3.0666">
        <ele>504.5</ele>
        <time>2015-11-29T08:16:53Z</time>
      </trkpt>
      <trkpt lat="43.52961" lon="3.06663">
        <ele>504.5</ele>
        <time>2015-11-29T08:16:54Z</time>
      </trkpt>
      <trkpt lat="43.52959" lon="3.06665">
        <ele>505</ele>
        <time>2015-11-29T08:16:55Z</time>
      </trkpt>
      <trkpt lat="43.52958" lon="3.06668">
        <ele>505</ele>
        <time>2015-11-29T08:16:56Z</time>
      </trkpt>
      <trkpt lat="43.52956" lon="3.0667">
        <ele>505</ele>
        <time>2015-11-29T08:16:57Z</time>
      </trkpt>
      <trkpt lat="43.52955" lon="3.06673">
        <ele>507</ele>
        <time>2015-11-29T08:16:58Z</time>
      </trkpt>
      <trkpt lat="43.52954" lon="3.06676">
        <ele>507</ele>
        <time>2015-11-29T08:16:59Z</time>
      </trkpt>
      <trkpt lat="43.52952" lon="3.06679">
        <ele>507.5</ele>
        <time>2015-11-29T08:17:00Z</time>
      </trkpt>
      <trkpt lat="43.52951" lon="3.06682">
        <ele>507.5</ele>
        <time>2015-11-29T08:17:01Z</time>
      </trkpt>
      <trkpt lat="43.52949" lon="3.06685">
        <ele>507</ele>
        <time>2015-11-29T08:17:02Z</time>
      </trkpt>
      <trkpt lat="43.52947" lon="3.06688">
        <ele>507.5</ele>
        <time>2015-11-29T08:17:03Z</time>
      </trkpt>
      <trkpt lat="43.52946" lon="3.06692">
        <ele>507.5</ele>
        <time>2015-11-29T08:17:04Z</time>
      </trkpt>
      <trkpt lat="43.52945" lon="3.06695">
        <ele>507.5</ele>
        <time>2015-11-29T08:17:05Z</time>
      </trkpt>
      <trkpt lat="43.52944" lon="3.06699">
        <ele>507</ele>
        <time>2015-11-29T08:17:06Z</time>
      </trkpt>
      <trkpt lat="43.52944" lon="3.06703">
        <ele>507</ele>
        <time>2015-11-29T08:17:07Z</time>
      </trkpt>
      <trkpt lat="43.52943" lon="3.06707">
        <ele>506.5</ele>
        <time>2015-11-29T08:17:08Z</time>
      </trkpt>
      <trkpt lat="43.52943" lon="3.06709">
        <ele>506.5</ele>
        <time>2015-11-29T08:17:09Z</time>
      </trkpt>
      <trkpt lat="43.52944" lon="3.0671">
        <ele>507</ele>
        <time>2015-11-29T08:17:10Z</time>
      </trkpt>
      <trkpt lat="43.52946" lon="3.06711">
        <ele>507</ele>
        <time>2015-11-29T08:17:11Z</time>
      </trkpt>
      <trkpt lat="43.52947" lon="3.06711">
        <ele>507</ele>
        <time>2015-11-29T08:17:12Z</time>
      </trkpt>
      <trkpt lat="43.52947" lon="3.06711">
        <ele>506.5</ele>
        <time>2015-11-29T08:17:13Z</time>
      </trkpt>
      <trkpt lat="43.52947" lon="3.0671">
        <ele>506.5</ele>
        <time>2015-11-29T08:17:14Z</time>
      </trkpt>
      <trkpt lat="43.52946" lon="3.0671">
        <ele>506.5</ele>
        <time>2015-11-29T08:17:15Z</time>
      </trkpt>
      <trkpt lat="43.52942" lon="3.06708">
        <ele>506.5</ele>
        <time>2015-11-29T08:17:20Z</time>
      </trkpt>
      <trkpt lat="43.52941" lon="3.06708">
        <ele>506.5</ele>
        <time>2015-11-29T08:17:22Z</time>
      </trkpt>
      <trkpt lat="43.52947" lon="3.06708">
        <ele>506</ele>
        <time>2015-11-29T08:17:24Z</time>
      </trkpt>
      <trkpt lat="43.52948" lon="3.06708">
        <ele>506</ele>
        <time>2015-11-29T08:17:25Z</time>
      </trkpt>
      <trkpt lat="43.52949" lon="3.06708">
        <ele>506</ele>
        <time>2015-11-29T08:17:26Z</time>
      </trkpt>
      <trkpt lat="43.52946" lon="3.06707">
        <ele>506</ele>
        <time>2015-11-29T08:17:27Z</time>
      </trkpt>
      <trkpt lat="43.52947" lon="3.06708">
        <ele>506</ele>
        <time>2015-11-29T08:17:29Z</time>
      </trkpt>
      <trkpt lat="43.52947" lon="3.06708">
        <ele>506</ele>
        <time>2015-11-29T08:17:32Z</time>
      </trkpt>
      <trkpt lat="43.52943" lon="3.06707">
        <ele>506</ele>
        <time>2015-11-29T08:17:34Z</time>
      </trkpt>
      <trkpt lat="43.52943" lon="3.06708">
        <ele>506</ele>
        <time>2015-11-29T08:17:35Z</time>
      </trkpt>
      <trkpt lat="43.52947" lon="3.0671">
        <ele>506</ele>
        <time>2015-11-29T08:17:37Z</time>
      </trkpt>
      <trkpt lat="43.52948" lon="3.0671">
        <ele>506</ele>
        <time>2015-11-29T08:17:40Z</time>
      </trkpt>
      <trkpt lat="43.52948" lon="3.06709">
        <ele>506</ele>
        <time>2015-11-29T08:17:44Z</time>
      </trkpt>
      <trkpt lat="43.52942" lon="3.06709">
        <ele>505.5</ele>
        <time>2015-11-29T08:17:48Z</time>
      </trkpt>
      <trkpt lat="43.52942" lon="3.06709">
        <ele>505.5</ele>
        <time>2015-11-29T08:17:50Z</time>
      </trkpt>
      <trkpt lat="43.52943" lon="3.06709">
        <ele>505</ele>
        <time>2015-11-29T08:17:52Z</time>
      </trkpt>
      <trkpt lat="43.52943" lon="3.0671">
        <ele>505</ele>
        <time>2015-11-29T08:17:53Z</time>
      </trkpt>
      <trkpt lat="43.52945" lon="3.06711">
        <ele>504</ele>
        <time>2015-11-29T08:17:54Z</time>
      </trkpt>
      <trkpt lat="43.52946" lon="3.06712">
        <ele>503.5</ele>
        <time>2015-11-29T08:17:55Z</time>
      </trkpt>
      <trkpt lat="43.52948" lon="3.06713">
        <ele>503</ele>
        <time>2015-11-29T08:17:57Z</time>
      </trkpt>
      <trkpt lat="43.52952" lon="3.06714">
        <ele>500.5</ele>
        <time>2015-11-29T08:17:59Z</time>
      </trkpt>
      <trkpt lat="43.52951" lon="3.06715">
        <ele>500.5</ele>
        <time>2015-11-29T08:18:00Z</time>
      </trkpt>
      <trkpt lat="43.52951" lon="3.06717">
        <ele>500</ele>
        <time>2015-11-29T08:18:01Z</time>
      </trkpt>
      <trkpt lat="43.5295" lon="3.06718">
        <ele>500</ele>
        <time>2015-11-29T08:18:02Z</time>
      </trkpt>
      <trkpt lat="43.52936" lon="3.06726">
        <ele>500</ele>
        <time>2015-11-29T08:18:05Z</time>
      </trkpt>
      <trkpt lat="43.52923" lon="3.06733">
        <ele>499.5</ele>
        <time>2015-11-29T08:18:07Z</time>
      </trkpt>
      <trkpt lat="43.52918" lon="3.06736">
        <ele>499.5</ele>
        <time>2015-11-29T08:18:08Z</time>
      </trkpt>
      <trkpt lat="43.52914" lon="3.06739">
        <ele>499.5</ele>
        <time>2015-11-29T08:18:09Z</time>
      </trkpt>
      <trkpt lat="43.5291" lon="3.06741">
        <ele>499.5</ele>
        <time>2015-11-29T08:18:10Z</time>
      </trkpt>
      <trkpt lat="43.52905" lon="3.06738">
        <ele>499.5</ele>
        <time>2015-11-29T08:18:12Z</time>
      </trkpt>
      <trkpt lat="43.52884" lon="3.06787">
        <ele>500</ele>
        <time>2015-11-29T08:18:17Z</time>
      </trkpt>
      <trkpt lat="43.52889" lon="3.0681">
        <ele>500</ele>
        <time>2015-11-29T08:18:21Z</time>
      </trkpt>
      <trkpt lat="43.52885" lon="3.06817">
        <ele>500.5</ele>
        <time>2015-11-29T08:18:23Z</time>
      </trkpt>
      <trkpt lat="43.52882" lon="3.0682">
        <ele>500.5</ele>
        <time>2015-11-29T08:18:24Z</time>
      </trkpt>
      <trkpt lat="43.5288" lon="3.06827">
        <ele>500.5</ele>
        <time>2015-11-29T08:18:26Z</time>
      </trkpt>
      <trkpt lat="43.52877" lon="3.06834">
        <ele>500.5</ele>
        <time>2015-11-29T08:18:27Z</time>
      </trkpt>
      <trkpt lat="43.52874" lon="3.0684">
        <ele>501</ele>
        <time>2015-11-29T08:18:28Z</time>
      </trkpt>
      <trkpt lat="43.5287" lon="3.06846">
        <ele>501</ele>
        <time>2015-11-29T08:18:29Z</time>
      </trkpt>
      <trkpt lat="43.52866" lon="3.06852">
        <ele>501</ele>
        <time>2015-11-29T08:18:30Z</time>
      </trkpt>
      <trkpt lat="43.52861" lon="3.0686">
        <ele>501</ele>
        <time>2015-11-29T08:18:32Z</time>
      </trkpt>
      <trkpt lat="43.52858" lon="3.06865">
        <ele>501</ele>
        <time>2015-11-29T08:18:33Z</time>
      </trkpt>
      <trkpt lat="43.52853" lon="3.06869">
        <ele>501</ele>
        <time>2015-11-29T08:18:34Z</time>
      </trkpt>
      <trkpt lat="43.52849" lon="3.06872">
        <ele>501</ele>
        <time>2015-11-29T08:18:35Z</time>
      </trkpt>
      <trkpt lat="43.52846" lon="3.06875">
        <ele>501</ele>
        <time>2015-11-29T08:18:36Z</time>
      </trkpt>
      <trkpt lat="43.52845" lon="3.06879">
        <ele>501</ele>
        <time>2015-11-29T08:18:37Z</time>
      </trkpt>
      <trkpt lat="43.52842" lon="3.06883">
        <ele>500.5</ele>
        <time>2015-11-29T08:18:38Z</time>
      </trkpt>
      <trkpt lat="43.52837" lon="3.06896">
        <ele>500</ele>
        <time>2015-11-29T08:18:40Z</time>
      </trkpt>
      <trkpt lat="43.52834" lon="3.06903">
        <ele>500</ele>
        <time>2015-11-29T08:18:41Z</time>
      </trkpt>
      <trkpt lat="43.52831" lon="3.06909">
        <ele>500</ele>
        <time>2015-11-29T08:18:42Z</time>
      </trkpt>
      <trkpt lat="43.52826" lon="3.06914">
        <ele>499.5</ele>
        <time>2015-11-29T08:18:43Z</time>
      </trkpt>
      <trkpt lat="43.52822" lon="3.06918">
        <ele>499.5</ele>
        <time>2015-11-29T08:18:44Z</time>
      </trkpt>
      <trkpt lat="43.5282" lon="3.06923">
        <ele>499.5</ele>
        <time>2015-11-29T08:18:45Z</time>
      </trkpt>
      <trkpt lat="43.52813" lon="3.06931">
        <ele>499.5</ele>
        <time>2015-11-29T08:18:47Z</time>
      </trkpt>
      <trkpt lat="43.52811" lon="3.06935">
        <ele>499.5</ele>
        <time>2015-11-29T08:18:48Z</time>
      </trkpt>
      <trkpt lat="43.52808" lon="3.06939">
        <ele>499</ele>
        <time>2015-11-29T08:18:49Z</time>
      </trkpt>
      <trkpt lat="43.52805" lon="3.06944">
        <ele>498.5</ele>
        <time>2015-11-29T08:18:50Z</time>
      </trkpt>
      <trkpt lat="43.52802" lon="3.06948">
        <ele>498</ele>
        <time>2015-11-29T08:18:51Z</time>
      </trkpt>
      <trkpt lat="43.52799" lon="3.06951">
        <ele>497.5</ele>
        <time>2015-11-29T08:18:52Z</time>
      </trkpt>
      <trkpt lat="43.52797" lon="3.06955">
        <ele>497</ele>
        <time>2015-11-29T08:18:53Z</time>
      </trkpt>
      <trkpt lat="43.52794" lon="3.0696">
        <ele>496</ele>
        <time>2015-11-29T08:18:54Z</time>
      </trkpt>
      <trkpt lat="43.52792" lon="3.06963">
        <ele>494.5</ele>
        <time>2015-11-29T08:18:55Z</time>
      </trkpt>
      <trkpt lat="43.52789" lon="3.06966">
        <ele>494</ele>
        <time>2015-11-29T08:18:56Z</time>
      </trkpt>
      <trkpt lat="43.52787" lon="3.0697">
        <ele>494</ele>
        <time>2015-11-29T08:18:57Z</time>
      </trkpt>
      <trkpt lat="43.52785" lon="3.06971">
        <ele>493.5</ele>
        <time>2015-11-29T08:18:58Z</time>
      </trkpt>
      <trkpt lat="43.52776" lon="3.06976">
        <ele>492.5</ele>
        <time>2015-11-29T08:19:00Z</time>
      </trkpt>
      <trkpt lat="43.52773" lon="3.06978">
        <ele>492</ele>
        <time>2015-11-29T08:19:01Z</time>
      </trkpt>
      <trkpt lat="43.52769" lon="3.06983">
        <ele>491.5</ele>
        <time>2015-11-29T08:19:02Z</time>
      </trkpt>
      <trkpt lat="43.52765" lon="3.06987">
        <ele>491</ele>
        <time>2015-11-29T08:19:03Z</time>
      </trkpt>
      <trkpt lat="43.52762" lon="3.06993">
        <ele>491</ele>
        <time>2015-11-29T08:19:04Z</time>
      </trkpt>
      <trkpt lat="43.52758" lon="3.06997">
        <ele>490.5</ele>
        <time>2015-11-29T08:19:05Z</time>
      </trkpt>
      <trkpt lat="43.52747" lon="3.07006">
        <ele>490</ele>
        <time>2015-11-29T08:19:07Z</time>
      </trkpt>
      <trkpt lat="43.52742" lon="3.07011">
        <ele>489.5</ele>
        <time>2015-11-29T08:19:08Z</time>
      </trkpt>
      <trkpt lat="43.52737" lon="3.07016">
        <ele>489.5</ele>
        <time>2015-11-29T08:19:09Z</time>
      </trkpt>
      <trkpt lat="43.52732" lon="3.07017">
        <ele>488</ele>
        <time>2015-11-29T08:19:10Z</time>
      </trkpt>
      <trkpt lat="43.52728" lon="3.07017">
        <ele>487</ele>
        <time>2015-11-29T08:19:11Z</time>
      </trkpt>
      <trkpt lat="43.52723" lon="3.07024">
        <ele>486.5</ele>
        <time>2015-11-29T08:19:13Z</time>
      </trkpt>
      <trkpt lat="43.52721" lon="3.07027">
        <ele>486</ele>
        <time>2015-11-29T08:19:14Z</time>
      </trkpt>
      <trkpt lat="43.52718" lon="3.07028">
        <ele>484</ele>
        <time>2015-11-29T08:19:15Z</time>
      </trkpt>
      <trkpt lat="43.52716" lon="3.07029">
        <ele>483</ele>
        <time>2015-11-29T08:19:16Z</time>
      </trkpt>
      <trkpt lat="43.52712" lon="3.07028">
        <ele>480</ele>
        <time>2015-11-29T08:19:17Z</time>
      </trkpt>
      <trkpt lat="43.52708" lon="3.07028">
        <ele>478</ele>
        <time>2015-11-29T08:19:18Z</time>
      </trkpt>
      <trkpt lat="43.52704" lon="3.07028">
        <ele>475.5</ele>
        <time>2015-11-29T08:19:19Z</time>
      </trkpt>
      <trkpt lat="43.527" lon="3.0703">
        <ele>474.5</ele>
        <time>2015-11-29T08:19:20Z</time>
      </trkpt>
      <trkpt lat="43.52696" lon="3.07033">
        <ele>474</ele>
        <time>2015-11-29T08:19:21Z</time>
      </trkpt>
      <trkpt lat="43.52691" lon="3.07035">
        <ele>473.5</ele>
        <time>2015-11-29T08:19:22Z</time>
      </trkpt>
      <trkpt lat="43.52676" lon="3.07038">
        <ele>467.5</ele>
        <time>2015-11-29T08:19:24Z</time>
      </trkpt>
      <trkpt lat="43.5267" lon="3.0704">
        <ele>466.5</ele>
        <time>2015-11-29T08:19:25Z</time>
      </trkpt>
      <trkpt lat="43.52666" lon="3.07044">
        <ele>466</ele>
        <time>2015-11-29T08:19:26Z</time>
      </trkpt>
      <trkpt lat="43.52662" lon="3.07047">
        <ele>465.5</ele>
        <time>2015-11-29T08:19:27Z</time>
      </trkpt>
      <trkpt lat="43.52657" lon="3.0705">
        <ele>465</ele>
        <time>2015-11-29T08:19:28Z</time>
      </trkpt>
      <trkpt lat="43.52654" lon="3.07054">
        <ele>464.5</ele>
        <time>2015-11-29T08:19:29Z</time>
      </trkpt>
      <trkpt lat="43.52649" lon="3.07057">
        <ele>462.5</ele>
        <time>2015-11-29T08:19:30Z</time>
      </trkpt>
      <trkpt lat="43.52644" lon="3.07058">
        <ele>463</ele>
        <time>2015-11-29T08:19:31Z</time>
      </trkpt>
      <trkpt lat="43.5264" lon="3.07061">
        <ele>463</ele>
        <time>2015-11-29T08:19:32Z</time>
      </trkpt>
      <trkpt lat="43.52636" lon="3.07066">
        <ele>460</ele>
        <time>2015-11-29T08:19:33Z</time>
      </trkpt>
      <trkpt lat="43.52632" lon="3.07069">
        <ele>459</ele>
        <time>2015-11-29T08:19:34Z</time>
      </trkpt>
      <trkpt lat="43.52629" lon="3.07072">
        <ele>458.5</ele>
        <time>2015-11-29T08:19:35Z</time>
      </trkpt>
      <trkpt lat="43.52625" lon="3.07076">
        <ele>458</ele>
        <time>2015-11-29T08:19:36Z</time>
      </trkpt>
      <trkpt lat="43.52622" lon="3.0708">
        <ele>457.5</ele>
        <time>2015-11-29T08:19:37Z</time>
      </trkpt>
      <trkpt lat="43.5262" lon="3.07084">
        <ele>457.5</ele>
        <time>2015-11-29T08:19:38Z</time>
      </trkpt>
      <trkpt lat="43.52618" lon="3.07088">
        <ele>457</ele>
        <time>2015-11-29T08:19:39Z</time>
      </trkpt>
      <trkpt lat="43.52613" lon="3.07091">
        <ele>454</ele>
        <time>2015-11-29T08:19:40Z</time>
      </trkpt>
      <trkpt lat="43.5261" lon="3.07094">
        <ele>453.5</ele>
        <time>2015-11-29T08:19:41Z</time>
      </trkpt>
      <trkpt lat="43.52606" lon="3.07097">
        <ele>452.5</ele>
        <time>2015-11-29T08:19:42Z</time>
      </trkpt>
      <trkpt lat="43.52603" lon="3.07099">
        <ele>452</ele>
        <time>2015-11-29T08:19:43Z</time>
      </trkpt>
      <trkpt lat="43.52601" lon="3.07101">
        <ele>451</ele>
        <time>2015-11-29T08:19:44Z</time>
      </trkpt>
      <trkpt lat="43.526" lon="3.07098">
        <ele>450.5</ele>
        <time>2015-11-29T08:19:45Z</time>
      </trkpt>
      <trkpt lat="43.52594" lon="3.07103">
        <ele>448.5</ele>
        <time>2015-11-29T08:19:47Z</time>
      </trkpt>
      <trkpt lat="43.52591" lon="3.07105">
        <ele>447.5</ele>
        <time>2015-11-29T08:19:48Z</time>
      </trkpt>
      <trkpt lat="43.52588" lon="3.07106">
        <ele>446.5</ele>
        <time>2015-11-29T08:19:49Z</time>
      </trkpt>
      <trkpt lat="43.52585" lon="3.07107">
        <ele>445.5</ele>
        <time>2015-11-29T08:19:49Z</time>
      </trkpt>
      <trkpt lat="43.52583" lon="3.07107">
        <ele>445</ele>
        <time>2015-11-29T08:19:50Z</time>
      </trkpt>
      <trkpt lat="43.5258" lon="3.07108">
        <ele>443</ele>
        <time>2015-11-29T08:19:51Z</time>
      </trkpt>
      <trkpt lat="43.52578" lon="3.07111">
        <ele>442.5</ele>
        <time>2015-11-29T08:19:53Z</time>
      </trkpt>
      <trkpt lat="43.52576" lon="3.07113">
        <ele>442</ele>
        <time>2015-11-29T08:19:53Z</time>
      </trkpt>
      <trkpt lat="43.52574" lon="3.07116">
        <ele>440</ele>
        <time>2015-11-29T08:19:55Z</time>
      </trkpt>
      <trkpt lat="43.52572" lon="3.07119">
        <ele>439.5</ele>
        <time>2015-11-29T08:19:55Z</time>
      </trkpt>
      <trkpt lat="43.52573" lon="3.07122">
        <ele>439</ele>
        <time>2015-11-29T08:19:57Z</time>
      </trkpt>
      <trkpt lat="43.52572" lon="3.07123">
        <ele>435</ele>
        <time>2015-11-29T08:19:58Z</time>
      </trkpt>
      <trkpt lat="43.5257" lon="3.07124">
        <ele>434.5</ele>
        <time>2015-11-29T08:19:59Z</time>
      </trkpt>
      <trkpt lat="43.52564" lon="3.07126">
        <ele>429</ele>
        <time>2015-11-29T08:20:01Z</time>
      </trkpt>
      <trkpt lat="43.52564" lon="3.07127">
        <ele>428.5</ele>
        <time>2015-11-29T08:20:02Z</time>
      </trkpt>
      <trkpt lat="43.52562" lon="3.0713">
        <ele>428.5</ele>
        <time>2015-11-29T08:20:03Z</time>
      </trkpt>
      <trkpt lat="43.52561" lon="3.07132">
        <ele>428</ele>
        <time>2015-11-29T08:20:04Z</time>
      </trkpt>
      <trkpt lat="43.52558" lon="3.07135">
        <ele>426</ele>
        <time>2015-11-29T08:20:05Z</time>
      </trkpt>
      <trkpt lat="43.52557" lon="3.07137">
        <ele>425</ele>
        <time>2015-11-29T08:20:06Z</time>
      </trkpt>
      <trkpt lat="43.52556" lon="3.07139">
        <ele>424.5</ele>
        <time>2015-11-29T08:20:08Z</time>
      </trkpt>
      <trkpt lat="43.52556" lon="3.07142">
        <ele>424</ele>
        <time>2015-11-29T08:20:08Z</time>
      </trkpt>
      <trkpt lat="43.52555" lon="3.07144">
        <ele>422.5</ele>
        <time>2015-11-29T08:20:09Z</time>
      </trkpt>
      <trkpt lat="43.52554" lon="3.07147">
        <ele>421</ele>
        <time>2015-11-29T08:20:11Z</time>
      </trkpt>
      <trkpt lat="43.52553" lon="3.07149">
        <ele>420.5</ele>
        <time>2015-11-29T08:20:11Z</time>
      </trkpt>
      <trkpt lat="43.52551" lon="3.07151">
        <ele>420</ele>
        <time>2015-11-29T08:20:12Z</time>
      </trkpt>
      <trkpt lat="43.5255" lon="3.07153">
        <ele>420</ele>
        <time>2015-11-29T08:20:14Z</time>
      </trkpt>
      <trkpt lat="43.52549" lon="3.07155">
        <ele>419.5</ele>
        <time>2015-11-29T08:20:14Z</time>
      </trkpt>
      <trkpt lat="43.52548" lon="3.07157">
        <ele>419</ele>
        <time>2015-11-29T08:20:15Z</time>
      </trkpt>
      <trkpt lat="43.52547" lon="3.07158">
        <ele>418.5</ele>
        <time>2015-11-29T08:20:16Z</time>
      </trkpt>
      <trkpt lat="43.52546" lon="3.07159">
        <ele>418</ele>
        <time>2015-11-29T08:20:17Z</time>
      </trkpt>
      <trkpt lat="43.52546" lon="3.07161">
        <ele>419.5</ele>
        <time>2015-11-29T08:20:18Z</time>
      </trkpt>
      <trkpt lat="43.52544" lon="3.07163">
        <ele>417.5</ele>
        <time>2015-11-29T08:20:19Z</time>
      </trkpt>
      <trkpt lat="43.52542" lon="3.07165">
        <ele>416</ele>
        <time>2015-11-29T08:20:20Z</time>
      </trkpt>
      <trkpt lat="43.52539" lon="3.07166">
        <ele>413</ele>
        <time>2015-11-29T08:20:21Z</time>
      </trkpt>
      <trkpt lat="43.52539" lon="3.07169">
        <ele>412.5</ele>
        <time>2015-11-29T08:20:22Z</time>
      </trkpt>
      <trkpt lat="43.52535" lon="3.07171">
        <ele>409</ele>
        <time>2015-11-29T08:20:23Z</time>
      </trkpt>
      <trkpt lat="43.52532" lon="3.07173">
        <ele>405</ele>
        <time>2015-11-29T08:20:24Z</time>
      </trkpt>
      <trkpt lat="43.52531" lon="3.07174">
        <ele>403.5</ele>
        <time>2015-11-29T08:20:25Z</time>
      </trkpt>
      <trkpt lat="43.5253" lon="3.07174">
        <ele>403</ele>
        <time>2015-11-29T08:20:26Z</time>
      </trkpt>
      <trkpt lat="43.5253" lon="3.07176">
        <ele>403</ele>
        <time>2015-11-29T08:20:27Z</time>
      </trkpt>
      <trkpt lat="43.52529" lon="3.07178">
        <ele>401.5</ele>
        <time>2015-11-29T08:20:28Z</time>
      </trkpt>
      <trkpt lat="43.52529" lon="3.07181">
        <ele>400.5</ele>
        <time>2015-11-29T08:20:29Z</time>
      </trkpt>
      <trkpt lat="43.52526" lon="3.07182">
        <ele>400</ele>
        <time>2015-11-29T08:20:30Z</time>
      </trkpt>
      <trkpt lat="43.52524" lon="3.07181">
        <ele>398</ele>
        <time>2015-11-29T08:20:31Z</time>
      </trkpt>
      <trkpt lat="43.52522" lon="3.0718">
        <ele>397</ele>
        <time>2015-11-29T08:20:32Z</time>
      </trkpt>
      <trkpt lat="43.5252" lon="3.07179">
        <ele>396</ele>
        <time>2015-11-29T08:20:33Z</time>
      </trkpt>
      <trkpt lat="43.52519" lon="3.0718">
        <ele>395</ele>
        <time>2015-11-29T08:20:34Z</time>
      </trkpt>
      <trkpt lat="43.52519" lon="3.07181">
        <ele>395</ele>
        <time>2015-11-29T08:20:35Z</time>
      </trkpt>
      <trkpt lat="43.5252" lon="3.07185">
        <ele>394</ele>
        <time>2015-11-29T08:20:37Z</time>
      </trkpt>
      <trkpt lat="43.5252" lon="3.07187">
        <ele>393.5</ele>
        <time>2015-11-29T08:20:38Z</time>
      </trkpt>
      <trkpt lat="43.5252" lon="3.07189">
        <ele>393</ele>
        <time>2015-11-29T08:20:40Z</time>
      </trkpt>
      <trkpt lat="43.52517" lon="3.0719">
        <ele>393</ele>
        <time>2015-11-29T08:20:40Z</time>
      </trkpt>
      <trkpt lat="43.52516" lon="3.07192">
        <ele>392.5</ele>
        <time>2015-11-29T08:20:41Z</time>
      </trkpt>
      <trkpt lat="43.52515" lon="3.07193">
        <ele>391.5</ele>
        <time>2015-11-29T08:20:42Z</time>
      </trkpt>
      <trkpt lat="43.52515" lon="3.07194">
        <ele>391</ele>
        <time>2015-11-29T08:20:43Z</time>
      </trkpt>
      <trkpt lat="43.52516" lon="3.07197">
        <ele>391</ele>
        <time>2015-11-29T08:20:44Z</time>
      </trkpt>
      <trkpt lat="43.52516" lon="3.07201">
        <ele>390.5</ele>
        <time>2015-11-29T08:20:45Z</time>
      </trkpt>
      <trkpt lat="43.52515" lon="3.07204">
        <ele>390.5</ele>
        <time>2015-11-29T08:20:46Z</time>
      </trkpt>
      <trkpt lat="43.52514" lon="3.07207">
        <ele>390</ele>
        <time>2015-11-29T08:20:47Z</time>
      </trkpt>
      <trkpt lat="43.52513" lon="3.0721">
        <ele>390</ele>
        <time>2015-11-29T08:20:48Z</time>
      </trkpt>
      <trkpt lat="43.52512" lon="3.07212">
        <ele>390</ele>
        <time>2015-11-29T08:20:49Z</time>
      </trkpt>
      <trkpt lat="43.52509" lon="3.07212">
        <ele>389.5</ele>
        <time>2015-11-29T08:20:50Z</time>
      </trkpt>
      <trkpt lat="43.52507" lon="3.07212">
        <ele>389</ele>
        <time>2015-11-29T08:20:51Z</time>
      </trkpt>
      <trkpt lat="43.52504" lon="3.07214">
        <ele>388.5</ele>
        <time>2015-11-29T08:20:52Z</time>
      </trkpt>
      <trkpt lat="43.52501" lon="3.07215">
        <ele>387.5</ele>
        <time>2015-11-29T08:20:53Z</time>
      </trkpt>
      <trkpt lat="43.52498" lon="3.07219">
        <ele>386.5</ele>
        <time>2015-11-29T08:20:54Z</time>
      </trkpt>
      <trkpt lat="43.52496" lon="3.0722">
        <ele>385</ele>
        <time>2015-11-29T08:20:56Z</time>
      </trkpt>
      <trkpt lat="43.52496" lon="3.0722">
        <ele>384.5</ele>
        <time>2015-11-29T08:20:57Z</time>
      </trkpt>
      <trkpt lat="43.52495" lon="3.0722">
        <ele>383.5</ele>
        <time>2015-11-29T08:20:58Z</time>
      </trkpt>
      <trkpt lat="43.52485" lon="3.07214">
        <ele>372.5</ele>
        <time>2015-11-29T08:21:08Z</time>
      </trkpt>
      <trkpt lat="43.52482" lon="3.07214">
        <ele>370</ele>
        <time>2015-11-29T08:21:13Z</time>
      </trkpt>
      <trkpt lat="43.5248" lon="3.07214">
        <ele>369</ele>
        <time>2015-11-29T08:21:15Z</time>
      </trkpt>
      <trkpt lat="43.52479" lon="3.07212">
        <ele>368</ele>
        <time>2015-11-29T08:21:22Z</time>
      </trkpt>
      <trkpt lat="43.52481" lon="3.07211">
        <ele>366</ele>
        <time>2015-11-29T08:21:33Z</time>
      </trkpt>
      <trkpt lat="43.52482" lon="3.0721">
        <ele>365</ele>
        <time>2015-11-29T08:21:37Z</time>
      </trkpt>
      <trkpt lat="43.52478" lon="3.07212">
        <ele>363.5</ele>
        <time>2015-11-29T08:21:52Z</time>
      </trkpt>
      <trkpt lat="43.52478" lon="3.07212">
        <ele>363.5</ele>
        <time>2015-11-29T08:21:54Z</time>
      </trkpt>
      <trkpt lat="43.52477" lon="3.07213">
        <ele>363.5</ele>
        <time>2015-11-29T08:21:55Z</time>
      </trkpt>
      <trkpt lat="43.52476" lon="3.07214">
        <ele>363</ele>
        <time>2015-11-29T08:22:02Z</time>
      </trkpt>
      <trkpt lat="43.52475" lon="3.07214">
        <ele>363</ele>
        <time>2015-11-29T08:22:03Z</time>
      </trkpt>
      <trkpt lat="43.52474" lon="3.07214">
        <ele>363</ele>
        <time>2015-11-29T08:22:08Z</time>
      </trkpt>
      <trkpt lat="43.52469" lon="3.07215">
        <ele>362.5</ele>
        <time>2015-11-29T08:21:37Z</time>
      </trkpt>
      <trkpt lat="43.52467" lon="3.07216">
        <ele>362</ele>
        <time>2015-11-29T08:21:41Z</time>
      </trkpt>
      <trkpt lat="43.52466" lon="3.07221">
        <ele>360</ele>
        <time>2015-11-29T08:23:57Z</time>
      </trkpt>
      <trkpt lat="43.52467" lon="3.07221">
        <ele>360</ele>
        <time>2015-11-29T08:24:00Z</time>
      </trkpt>
      <trkpt lat="43.52467" lon="3.07221">
        <ele>360</ele>
        <time>2015-11-29T08:24:03Z</time>
      </trkpt>
      <trkpt lat="43.52465" lon="3.07222">
        <ele>360</ele>
        <time>2015-11-29T08:24:11Z</time>
      </trkpt>
      <trkpt lat="43.52466" lon="3.07222">
        <ele>360</ele>
        <time>2015-11-29T08:24:14Z</time>
      </trkpt>
      <trkpt lat="43.52464" lon="3.07222">
        <ele>359.5</ele>
        <time>2015-11-29T08:24:18Z</time>
      </trkpt>
      <trkpt lat="43.52464" lon="3.07222">
        <ele>359.5</ele>
        <time>2015-11-29T08:24:19Z</time>
      </trkpt>
      <trkpt lat="43.52459" lon="3.0722">
        <ele>359.5</ele>
        <time>2015-11-29T08:23:47Z</time>
      </trkpt>
      <trkpt lat="43.52458" lon="3.07221">
        <ele>359.5</ele>
        <time>2015-11-29T08:23:49Z</time>
      </trkpt>
      <trkpt lat="43.52459" lon="3.07224">
        <ele>359.5</ele>
        <time>2015-11-29T08:23:53Z</time>
      </trkpt>
      <trkpt lat="43.52459" lon="3.07227">
        <ele>359</ele>
        <time>2015-11-29T08:24:04Z</time>
      </trkpt>
      <trkpt lat="43.52461" lon="3.07225">
        <ele>359</ele>
        <time>2015-11-29T08:24:08Z</time>
      </trkpt>
      <trkpt lat="43.52461" lon="3.07224">
        <ele>359</ele>
        <time>2015-11-29T08:24:09Z</time>
      </trkpt>
      <trkpt lat="43.52462" lon="3.07222">
        <ele>359</ele>
        <time>2015-11-29T08:24:10Z</time>
      </trkpt>
      <trkpt lat="43.52461" lon="3.0722">
        <ele>359</ele>
        <time>2015-11-29T08:24:11Z</time>
      </trkpt>
      <trkpt lat="43.52461" lon="3.07218">
        <ele>359</ele>
        <time>2015-11-29T08:24:12Z</time>
      </trkpt>
      <trkpt lat="43.52462" lon="3.07215">
        <ele>359</ele>
        <time>2015-11-29T08:24:13Z</time>
      </trkpt>
      <trkpt lat="43.52461" lon="3.07212">
        <ele>359</ele>
        <time>2015-11-29T08:24:14Z</time>
      </trkpt>
      <trkpt lat="43.52461" lon="3.0721">
        <ele>359</ele>
        <time>2015-11-29T08:24:15Z</time>
      </trkpt>
      <trkpt lat="43.52461" lon="3.07207">
        <ele>359</ele>
        <time>2015-11-29T08:24:16Z</time>
      </trkpt>
      <trkpt lat="43.52461" lon="3.07205">
        <ele>359</ele>
        <time>2015-11-29T08:24:17Z</time>
      </trkpt>
      <trkpt lat="43.5246" lon="3.07203">
        <ele>359</ele>
        <time>2015-11-29T08:24:18Z</time>
      </trkpt>
      <trkpt lat="43.52459" lon="3.07201">
        <ele>359</ele>
        <time>2015-11-29T08:24:19Z</time>
      </trkpt>
      <trkpt lat="43.52458" lon="3.07199">
        <ele>359</ele>
        <time>2015-11-29T08:24:20Z</time>
      </trkpt>
      <trkpt lat="43.52457" lon="3.07196">
        <ele>359</ele>
        <time>2015-11-29T08:24:21Z</time>
      </trkpt>
      <trkpt lat="43.52456" lon="3.07194">
        <ele>359</ele>
        <time>2015-11-29T08:24:22Z</time>
      </trkpt>
      <trkpt lat="43.52455" lon="3.07192">
        <ele>359</ele>
        <time>2015-11-29T08:24:23Z</time>
      </trkpt>
      <trkpt lat="43.52453" lon="3.07191">
        <ele>359</ele>
        <time>2015-11-29T08:24:24Z</time>
      </trkpt>
      <trkpt lat="43.52452" lon="3.07189">
        <ele>359</ele>
        <time>2015-11-29T08:24:25Z</time>
      </trkpt>
      <trkpt lat="43.5245" lon="3.07188">
        <ele>359</ele>
        <time>2015-11-29T08:24:25Z</time>
      </trkpt>
      <trkpt lat="43.52448" lon="3.07187">
        <ele>359</ele>
        <time>2015-11-29T08:24:27Z</time>
      </trkpt>
      <trkpt lat="43.52446" lon="3.07188">
        <ele>358.5</ele>
        <time>2015-11-29T08:24:28Z</time>
      </trkpt>
      <trkpt lat="43.52444" lon="3.07189">
        <ele>358.5</ele>
        <time>2015-11-29T08:24:28Z</time>
      </trkpt>
      <trkpt lat="43.52443" lon="3.0719">
        <ele>358.5</ele>
        <time>2015-11-29T08:24:29Z</time>
      </trkpt>
      <trkpt lat="43.52442" lon="3.07193">
        <ele>358.5</ele>
        <time>2015-11-29T08:24:30Z</time>
      </trkpt>
      <trkpt lat="43.52441" lon="3.07197">
        <ele>358.5</ele>
        <time>2015-11-29T08:24:31Z</time>
      </trkpt>
      <trkpt lat="43.52441" lon="3.072">
        <ele>358.5</ele>
        <time>2015-11-29T08:24:32Z</time>
      </trkpt>
      <trkpt lat="43.52441" lon="3.07203">
        <ele>358</ele>
        <time>2015-11-29T08:24:33Z</time>
      </trkpt>
      <trkpt lat="43.52443" lon="3.07207">
        <ele>358</ele>
        <time>2015-11-29T08:24:34Z</time>
      </trkpt>
      <trkpt lat="43.52443" lon="3.07211">
        <ele>358</ele>
        <time>2015-11-29T08:24:35Z</time>
      </trkpt>
      <trkpt lat="43.52444" lon="3.07214">
        <ele>358</ele>
        <time>2015-11-29T08:24:36Z</time>
      </trkpt>
      <trkpt lat="43.52447" lon="3.07216">
        <ele>358.5</ele>
        <time>2015-11-29T08:24:38Z</time>
      </trkpt>
      <trkpt lat="43.52448" lon="3.07219">
        <ele>358.5</ele>
        <time>2015-11-29T08:24:38Z</time>
      </trkpt>
      <trkpt lat="43.52445" lon="3.07221">
        <ele>358.5</ele>
        <time>2015-11-29T08:24:39Z</time>
      </trkpt>
      <trkpt lat="43.52445" lon="3.07224">
        <ele>359.5</ele>
        <time>2015-11-29T08:24:40Z</time>
      </trkpt>
      <trkpt lat="43.52444" lon="3.07227">
        <ele>359.5</ele>
        <time>2015-11-29T08:24:41Z</time>
      </trkpt>
      <trkpt lat="43.52444" lon="3.0723">
        <ele>359</ele>
        <time>2015-11-29T08:24:42Z</time>
      </trkpt>
      <trkpt lat="43.52443" lon="3.07234">
        <ele>359</ele>
        <time>2015-11-29T08:24:43Z</time>
      </trkpt>
      <trkpt lat="43.52442" lon="3.07237">
        <ele>359</ele>
        <time>2015-11-29T08:24:44Z</time>
      </trkpt>
      <trkpt lat="43.52441" lon="3.07241">
        <ele>359</ele>
        <time>2015-11-29T08:24:45Z</time>
      </trkpt>
      <trkpt lat="43.5244" lon="3.07244">
        <ele>359</ele>
        <time>2015-11-29T08:24:46Z</time>
      </trkpt>
      <trkpt lat="43.52439" lon="3.07248">
        <ele>359</ele>
        <time>2015-11-29T08:24:47Z</time>
      </trkpt>
      <trkpt lat="43.52437" lon="3.07251">
        <ele>359</ele>
        <time>2015-11-29T08:24:48Z</time>
      </trkpt>
      <trkpt lat="43.52435" lon="3.07254">
        <ele>359</ele>
        <time>2015-11-29T08:24:49Z</time>
      </trkpt>
      <trkpt lat="43.52433" lon="3.07257">
        <ele>359</ele>
        <time>2015-11-29T08:24:51Z</time>
      </trkpt>
      <trkpt lat="43.52432" lon="3.0726">
        <ele>358.5</ele>
        <time>2015-11-29T08:24:51Z</time>
      </trkpt>
      <trkpt lat="43.5243" lon="3.07263">
        <ele>358.5</ele>
        <time>2015-11-29T08:24:52Z</time>
      </trkpt>
      <trkpt lat="43.52428" lon="3.07266">
        <ele>358.5</ele>
        <time>2015-11-29T08:24:53Z</time>
      </trkpt>
      <trkpt lat="43.52427" lon="3.0727">
        <ele>358.5</ele>
        <time>2015-11-29T08:24:54Z</time>
      </trkpt>
      <trkpt lat="43.52424" lon="3.07273">
        <ele>358.5</ele>
        <time>2015-11-29T08:24:55Z</time>
      </trkpt>
      <trkpt lat="43.52425" lon="3.07276">
        <ele>358.5</ele>
        <time>2015-11-29T08:24:56Z</time>
      </trkpt>
      <trkpt lat="43.52425" lon="3.07279">
        <ele>358.5</ele>
        <time>2015-11-29T08:24:57Z</time>
      </trkpt>
      <trkpt lat="43.52423" lon="3.07283">
        <ele>358</ele>
        <time>2015-11-29T08:24:58Z</time>
      </trkpt>
      <trkpt lat="43.52422" lon="3.07287">
        <ele>358</ele>
        <time>2015-11-29T08:24:59Z</time>
      </trkpt>
      <trkpt lat="43.52421" lon="3.07291">
        <ele>358</ele>
        <time>2015-11-29T08:25:00Z</time>
      </trkpt>
      <trkpt lat="43.5242" lon="3.07294">
        <ele>358</ele>
        <time>2015-11-29T08:25:01Z</time>
      </trkpt>
      <trkpt lat="43.52419" lon="3.07297">
        <ele>358</ele>
        <time>2015-11-29T08:25:03Z</time>
      </trkpt>
      <trkpt lat="43.52418" lon="3.07301">
        <ele>358</ele>
        <time>2015-11-29T08:25:03Z</time>
      </trkpt>
      <trkpt lat="43.52417" lon="3.07305">
        <ele>357.5</ele>
        <time>2015-11-29T08:25:04Z</time>
      </trkpt>
      <trkpt lat="43.52418" lon="3.07309">
        <ele>357</ele>
        <time>2015-11-29T08:25:05Z</time>
      </trkpt>
      <trkpt lat="43.52416" lon="3.07313">
        <ele>357</ele>
        <time>2015-11-29T08:25:06Z</time>
      </trkpt>
      <trkpt lat="43.52415" lon="3.07317">
        <ele>357.5</ele>
        <time>2015-11-29T08:25:07Z</time>
      </trkpt>
      <trkpt lat="43.52417" lon="3.07321">
        <ele>357</ele>
        <time>2015-11-29T08:25:08Z</time>
      </trkpt>
      <trkpt lat="43.52414" lon="3.07326">
        <ele>357</ele>
        <time>2015-11-29T08:25:09Z</time>
      </trkpt>
      <trkpt lat="43.52415" lon="3.07332">
        <ele>357</ele>
        <time>2015-11-29T08:25:11Z</time>
      </trkpt>
      <trkpt lat="43.5241" lon="3.07342">
        <ele>357</ele>
        <time>2015-11-29T08:25:13Z</time>
      </trkpt>
      <trkpt lat="43.52409" lon="3.07346">
        <ele>356.5</ele>
        <time>2015-11-29T08:25:14Z</time>
      </trkpt>
      <trkpt lat="43.52408" lon="3.07351">
        <ele>356.5</ele>
        <time>2015-11-29T08:25:15Z</time>
      </trkpt>
      <trkpt lat="43.52407" lon="3.07355">
        <ele>356.5</ele>
        <time>2015-11-29T08:25:16Z</time>
      </trkpt>
      <trkpt lat="43.52406" lon="3.0736">
        <ele>356.5</ele>
        <time>2015-11-29T08:25:17Z</time>
      </trkpt>
      <trkpt lat="43.52405" lon="3.07365">
        <ele>356.5</ele>
        <time>2015-11-29T08:25:18Z</time>
      </trkpt>
      <trkpt lat="43.52405" lon="3.0737">
        <ele>356.5</ele>
        <time>2015-11-29T08:25:19Z</time>
      </trkpt>
      <trkpt lat="43.52404" lon="3.07374">
        <ele>356.5</ele>
        <time>2015-11-29T08:25:20Z</time>
      </trkpt>
      <trkpt lat="43.52406" lon="3.07378">
        <ele>356.5</ele>
        <time>2015-11-29T08:25:21Z</time>
      </trkpt>
      <trkpt lat="43.52407" lon="3.07383">
        <ele>356.5</ele>
        <time>2015-11-29T08:25:22Z</time>
      </trkpt>
      <trkpt lat="43.52407" lon="3.07389">
        <ele>356</ele>
        <time>2015-11-29T08:25:23Z</time>
      </trkpt>
      <trkpt lat="43.52407" lon="3.07394">
        <ele>356</ele>
        <time>2015-11-29T08:25:25Z</time>
      </trkpt>
      <trkpt lat="43.52409" lon="3.07399">
        <ele>356</ele>
        <time>2015-11-29T08:25:25Z</time>
      </trkpt>
      <trkpt lat="43.52409" lon="3.07404">
        <ele>356</ele>
        <time>2015-11-29T08:25:26Z</time>
      </trkpt>
      <trkpt lat="43.52409" lon="3.07409">
        <ele>356</ele>
        <time>2015-11-29T08:25:27Z</time>
      </trkpt>
      <trkpt lat="43.52409" lon="3.07413">
        <ele>356</ele>
        <time>2015-11-29T08:25:28Z</time>
      </trkpt>
      <trkpt lat="43.52409" lon="3.07418">
        <ele>355.5</ele>
        <time>2015-11-29T08:25:29Z</time>
      </trkpt>
      <trkpt lat="43.52408" lon="3.07423">
        <ele>355.5</ele>
        <time>2015-11-29T08:25:30Z</time>
      </trkpt>
      <trkpt lat="43.52407" lon="3.07427">
        <ele>355.5</ele>
        <time>2015-11-29T08:25:31Z</time>
      </trkpt>
      <trkpt lat="43.52406" lon="3.07432">
        <ele>355</ele>
        <time>2015-11-29T08:25:32Z</time>
      </trkpt>
      <trkpt lat="43.52405" lon="3.07437">
        <ele>355</ele>
        <time>2015-11-29T08:25:33Z</time>
      </trkpt>
      <trkpt lat="43.52404" lon="3.07441">
        <ele>354.5</ele>
        <time>2015-11-29T08:25:34Z</time>
      </trkpt>
      <trkpt lat="43.52402" lon="3.07446">
        <ele>354.5</ele>
        <time>2015-11-29T08:25:35Z</time>
      </trkpt>
      <trkpt lat="43.52396" lon="3.07455">
        <ele>354</ele>
        <time>2015-11-29T08:25:38Z</time>
      </trkpt>
      <trkpt lat="43.52393" lon="3.07459">
        <ele>354</ele>
        <time>2015-11-29T08:25:38Z</time>
      </trkpt>
      <trkpt lat="43.52391" lon="3.07463">
        <ele>354</ele>
        <time>2015-11-29T08:25:39Z</time>
      </trkpt>
      <trkpt lat="43.52389" lon="3.07467">
        <ele>354</ele>
        <time>2015-11-29T08:25:40Z</time>
      </trkpt>
      <trkpt lat="43.52387" lon="3.07471">
        <ele>354</ele>
        <time>2015-11-29T08:25:41Z</time>
      </trkpt>
      <trkpt lat="43.52385" lon="3.07474">
        <ele>354</ele>
        <time>2015-11-29T08:25:42Z</time>
      </trkpt>
      <trkpt lat="43.52383" lon="3.07478">
        <ele>353.5</ele>
        <time>2015-11-29T08:25:43Z</time>
      </trkpt>
      <trkpt lat="43.52382" lon="3.07482">
        <ele>353</ele>
        <time>2015-11-29T08:25:44Z</time>
      </trkpt>
      <trkpt lat="43.5238" lon="3.07485">
        <ele>353</ele>
        <time>2015-11-29T08:25:45Z</time>
      </trkpt>
      <trkpt lat="43.52378" lon="3.07489">
        <ele>353</ele>
        <time>2015-11-29T08:25:46Z</time>
      </trkpt>
      <trkpt lat="43.52376" lon="3.07492">
        <ele>352.5</ele>
        <time>2015-11-29T08:25:47Z</time>
      </trkpt>
      <trkpt lat="43.52374" lon="3.07496">
        <ele>352.5</ele>
        <time>2015-11-29T08:25:48Z</time>
      </trkpt>
      <trkpt lat="43.52373" lon="3.075">
        <ele>352</ele>
        <time>2015-11-29T08:25:49Z</time>
      </trkpt>
      <trkpt lat="43.52371" lon="3.07504">
        <ele>351.5</ele>
        <time>2015-11-29T08:25:50Z</time>
      </trkpt>
      <trkpt lat="43.52369" lon="3.07507">
        <ele>351</ele>
        <time>2015-11-29T08:25:51Z</time>
      </trkpt>
      <trkpt lat="43.52367" lon="3.07511">
        <ele>350.5</ele>
        <time>2015-11-29T08:25:52Z</time>
      </trkpt>
      <trkpt lat="43.52365" lon="3.07515">
        <ele>350.5</ele>
        <time>2015-11-29T08:25:53Z</time>
      </trkpt>
      <trkpt lat="43.52363" lon="3.07518">
        <ele>350</ele>
        <time>2015-11-29T08:25:54Z</time>
      </trkpt>
      <trkpt lat="43.5236" lon="3.07522">
        <ele>350</ele>
        <time>2015-11-29T08:25:55Z</time>
      </trkpt>
      <trkpt lat="43.52358" lon="3.07525">
        <ele>350</ele>
        <time>2015-11-29T08:25:56Z</time>
      </trkpt>
      <trkpt lat="43.52356" lon="3.07529">
        <ele>350</ele>
        <time>2015-11-29T08:25:57Z</time>
      </trkpt>
      <trkpt lat="43.52353" lon="3.07532">
        <ele>349.5</ele>
        <time>2015-11-29T08:25:58Z</time>
      </trkpt>
      <trkpt lat="43.5235" lon="3.07535">
        <ele>349.5</ele>
        <time>2015-11-29T08:25:59Z</time>
      </trkpt>
      <trkpt lat="43.52348" lon="3.07539">
        <ele>349.5</ele>
        <time>2015-11-29T08:26:00Z</time>
      </trkpt>
      <trkpt lat="43.52345" lon="3.07542">
        <ele>349</ele>
        <time>2015-11-29T08:26:01Z</time>
      </trkpt>
      <trkpt lat="43.52342" lon="3.07545">
        <ele>349</ele>
        <time>2015-11-29T08:26:02Z</time>
      </trkpt>
      <trkpt lat="43.52339" lon="3.07548">
        <ele>349</ele>
        <time>2015-11-29T08:26:03Z</time>
      </trkpt>
      <trkpt lat="43.52336" lon="3.07551">
        <ele>349</ele>
        <time>2015-11-29T08:26:04Z</time>
      </trkpt>
      <trkpt lat="43.52333" lon="3.07554">
        <ele>349</ele>
        <time>2015-11-29T08:26:05Z</time>
      </trkpt>
      <trkpt lat="43.52331" lon="3.07558">
        <ele>349</ele>
        <time>2015-11-29T08:26:06Z</time>
      </trkpt>
      <trkpt lat="43.52328" lon="3.07561">
        <ele>349</ele>
        <time>2015-11-29T08:26:07Z</time>
      </trkpt>
      <trkpt lat="43.52325" lon="3.07564">
        <ele>348.5</ele>
        <time>2015-11-29T08:26:08Z</time>
      </trkpt>
      <trkpt lat="43.52322" lon="3.07567">
        <ele>348.5</ele>
        <time>2015-11-29T08:26:09Z</time>
      </trkpt>
      <trkpt lat="43.5232" lon="3.0757">
        <ele>348.5</ele>
        <time>2015-11-29T08:26:10Z</time>
      </trkpt>
      <trkpt lat="43.52317" lon="3.07573">
        <ele>348.5</ele>
        <time>2015-11-29T08:26:11Z</time>
      </trkpt>
      <trkpt lat="43.52313" lon="3.07576">
        <ele>348.5</ele>
        <time>2015-11-29T08:26:12Z</time>
      </trkpt>
      <trkpt lat="43.52309" lon="3.07579">
        <ele>348.5</ele>
        <time>2015-11-29T08:26:13Z</time>
      </trkpt>
      <trkpt lat="43.52305" lon="3.07581">
        <ele>348</ele>
        <time>2015-11-29T08:26:14Z</time>
      </trkpt>
      <trkpt lat="43.52302" lon="3.07583">
        <ele>348</ele>
        <time>2015-11-29T08:26:15Z</time>
      </trkpt>
      <trkpt lat="43.52298" lon="3.07585">
        <ele>348</ele>
        <time>2015-11-29T08:26:16Z</time>
      </trkpt>
      <trkpt lat="43.52288" lon="3.07586">
        <ele>348</ele>
        <time>2015-11-29T08:26:18Z</time>
      </trkpt>
      <trkpt lat="43.52284" lon="3.07586">
        <ele>348</ele>
        <time>2015-11-29T08:26:19Z</time>
      </trkpt>
      <trkpt lat="43.5228" lon="3.07586">
        <ele>348</ele>
        <time>2015-11-29T08:26:20Z</time>
      </trkpt>
      <trkpt lat="43.52276" lon="3.07585">
        <ele>348</ele>
        <time>2015-11-29T08:26:21Z</time>
      </trkpt>
      <trkpt lat="43.52271" lon="3.07585">
        <ele>348</ele>
        <time>2015-11-29T08:26:22Z</time>
      </trkpt>
      <trkpt lat="43.52268" lon="3.07584">
        <ele>348</ele>
        <time>2015-11-29T08:26:23Z</time>
      </trkpt>
      <trkpt lat="43.52263" lon="3.07583">
        <ele>348</ele>
        <time>2015-11-29T08:26:24Z</time>
      </trkpt>
      <trkpt lat="43.52259" lon="3.07583">
        <ele>348</ele>
        <time>2015-11-29T08:26:25Z</time>
      </trkpt>
      <trkpt lat="43.52255" lon="3.07582">
        <ele>348.5</ele>
        <time>2015-11-29T08:26:26Z</time>
      </trkpt>
      <trkpt lat="43.52251" lon="3.07581">
        <ele>348.5</ele>
        <time>2015-11-29T08:26:27Z</time>
      </trkpt>
      <trkpt lat="43.52247" lon="3.07581">
        <ele>348.5</ele>
        <time>2015-11-29T08:26:28Z</time>
      </trkpt>
      <trkpt lat="43.52243" lon="3.07581">
        <ele>348.5</ele>
        <time>2015-11-29T08:26:29Z</time>
      </trkpt>
      <trkpt lat="43.52239" lon="3.0758">
        <ele>348.5</ele>
        <time>2015-11-29T08:26:30Z</time>
      </trkpt>
      <trkpt lat="43.52235" lon="3.07579">
        <ele>348.5</ele>
        <time>2015-11-29T08:26:31Z</time>
      </trkpt>
      <trkpt lat="43.52231" lon="3.07579">
        <ele>348.5</ele>
        <time>2015-11-29T08:26:32Z</time>
      </trkpt>
      <trkpt lat="43.52226" lon="3.07578">
        <ele>348.5</ele>
        <time>2015-11-29T08:26:33Z</time>
      </trkpt>
      <trkpt lat="43.52222" lon="3.07577">
        <ele>348.5</ele>
        <time>2015-11-29T08:26:34Z</time>
      </trkpt>
      <trkpt lat="43.52217" lon="3.07576">
        <ele>348.5</ele>
        <time>2015-11-29T08:26:35Z</time>
      </trkpt>
      <trkpt lat="43.52213" lon="3.07574">
        <ele>348.5</ele>
        <time>2015-11-29T08:26:36Z</time>
      </trkpt>
      <trkpt lat="43.52208" lon="3.07575">
        <ele>348</ele>
        <time>2015-11-29T08:26:37Z</time>
      </trkpt>
      <trkpt lat="43.52204" lon="3.07572">
        <ele>348</ele>
        <time>2015-11-29T08:26:38Z</time>
      </trkpt>
      <trkpt lat="43.52201" lon="3.0757">
        <ele>348</ele>
        <time>2015-11-29T08:26:39Z</time>
      </trkpt>
      <trkpt lat="43.52197" lon="3.07567">
        <ele>348</ele>
        <time>2015-11-29T08:26:40Z</time>
      </trkpt>
      <trkpt lat="43.52194" lon="3.07566">
        <ele>349.5</ele>
        <time>2015-11-29T08:26:41Z</time>
      </trkpt>
      <trkpt lat="43.52191" lon="3.07563">
        <ele>349.5</ele>
        <time>2015-11-29T08:26:42Z</time>
      </trkpt>
      <trkpt lat="43.52188" lon="3.07559">
        <ele>349.5</ele>
        <time>2015-11-29T08:26:43Z</time>
      </trkpt>
      <trkpt lat="43.52185" lon="3.07556">
        <ele>349.5</ele>
        <time>2015-11-29T08:26:44Z</time>
      </trkpt>
      <trkpt lat="43.52182" lon="3.07552">
        <ele>349.5</ele>
        <time>2015-11-29T08:26:45Z</time>
      </trkpt>
      <trkpt lat="43.52179" lon="3.07548">
        <ele>349.5</ele>
        <time>2015-11-29T08:26:46Z</time>
      </trkpt>
      <trkpt lat="43.52177" lon="3.07544">
        <ele>349.5</ele>
        <time>2015-11-29T08:26:47Z</time>
      </trkpt>
      <trkpt lat="43.52175" lon="3.0754">
        <ele>349.5</ele>
        <time>2015-11-29T08:26:48Z</time>
      </trkpt>
      <trkpt lat="43.52173" lon="3.07536">
        <ele>349.5</ele>
        <time>2015-11-29T08:26:49Z</time>
      </trkpt>
      <trkpt lat="43.52173" lon="3.07531">
        <ele>348</ele>
        <time>2015-11-29T08:26:50Z</time>
      </trkpt>
      <trkpt lat="43.52172" lon="3.07527">
        <ele>348</ele>
        <time>2015-11-29T08:26:51Z</time>
      </trkpt>
      <trkpt lat="43.5217" lon="3.07523">
        <ele>348</ele>
        <time>2015-11-29T08:26:52Z</time>
      </trkpt>
      <trkpt lat="43.52168" lon="3.07521">
        <ele>348</ele>
        <time>2015-11-29T08:26:53Z</time>
      </trkpt>
      <trkpt lat="43.52164" lon="3.0752">
        <ele>348</ele>
        <time>2015-11-29T08:26:54Z</time>
      </trkpt>
      <trkpt lat="43.52163" lon="3.07523">
        <ele>348</ele>
        <time>2015-11-29T08:26:55Z</time>
      </trkpt>
      <trkpt lat="43.5216" lon="3.07525">
        <ele>347.5</ele>
        <time>2015-11-29T08:26:56Z</time>
      </trkpt>
      <trkpt lat="43.52158" lon="3.07528">
        <ele>347.5</ele>
        <time>2015-11-29T08:26:57Z</time>
      </trkpt>
      <trkpt lat="43.52152" lon="3.07534">
        <ele>349.5</ele>
        <time>2015-11-29T08:26:59Z</time>
      </trkpt>
      <trkpt lat="43.52148" lon="3.07537">
        <ele>349.5</ele>
        <time>2015-11-29T08:27:00Z</time>
      </trkpt>
      <trkpt lat="43.52145" lon="3.07539">
        <ele>350</ele>
        <time>2015-11-29T08:27:01Z</time>
      </trkpt>
      <trkpt lat="43.52141" lon="3.0754">
        <ele>350.5</ele>
        <time>2015-11-29T08:27:02Z</time>
      </trkpt>
      <trkpt lat="43.52136" lon="3.07541">
        <ele>350.5</ele>
        <time>2015-11-29T08:27:03Z</time>
      </trkpt>
      <trkpt lat="43.52132" lon="3.07541">
        <ele>350.5</ele>
        <time>2015-11-29T08:27:04Z</time>
      </trkpt>
      <trkpt lat="43.52128" lon="3.07541">
        <ele>351</ele>
        <time>2015-11-29T08:27:05Z</time>
      </trkpt>
      <trkpt lat="43.52124" lon="3.07542">
        <ele>351</ele>
        <time>2015-11-29T08:27:06Z</time>
      </trkpt>
      <trkpt lat="43.5212" lon="3.07542">
        <ele>351.5</ele>
        <time>2015-11-29T08:27:07Z</time>
      </trkpt>
      <trkpt lat="43.52116" lon="3.07542">
        <ele>351.5</ele>
        <time>2015-11-29T08:27:08Z</time>
      </trkpt>
      <trkpt lat="43.52112" lon="3.07541">
        <ele>351</ele>
        <time>2015-11-29T08:27:09Z</time>
      </trkpt>
      <trkpt lat="43.52108" lon="3.07541">
        <ele>351</ele>
        <time>2015-11-29T08:27:10Z</time>
      </trkpt>
      <trkpt lat="43.52105" lon="3.07541">
        <ele>351</ele>
        <time>2015-11-29T08:27:11Z</time>
      </trkpt>
      <trkpt lat="43.52101" lon="3.07541">
        <ele>351</ele>
        <time>2015-11-29T08:27:12Z</time>
      </trkpt>
      <trkpt lat="43.52097" lon="3.07541">
        <ele>351</ele>
        <time>2015-11-29T08:27:13Z</time>
      </trkpt>
      <trkpt lat="43.52093" lon="3.07542">
        <ele>351</ele>
        <time>2015-11-29T08:27:14Z</time>
      </trkpt>
      <trkpt lat="43.5209" lon="3.07542">
        <ele>351</ele>
        <time>2015-11-29T08:27:15Z</time>
      </trkpt>
      <trkpt lat="43.52086" lon="3.07542">
        <ele>351</ele>
        <time>2015-11-29T08:27:16Z</time>
      </trkpt>
      <trkpt lat="43.52082" lon="3.07543">
        <ele>351</ele>
        <time>2015-11-29T08:27:17Z</time>
      </trkpt>
      <trkpt lat="43.52079" lon="3.07544">
        <ele>351</ele>
        <time>2015-11-29T08:27:18Z</time>
      </trkpt>
      <trkpt lat="43.52075" lon="3.07545">
        <ele>351</ele>
        <time>2015-11-29T08:27:19Z</time>
      </trkpt>
      <trkpt lat="43.52071" lon="3.07546">
        <ele>351</ele>
        <time>2015-11-29T08:27:20Z</time>
      </trkpt>
      <trkpt lat="43.52067" lon="3.07547">
        <ele>351</ele>
        <time>2015-11-29T08:27:21Z</time>
      </trkpt>
      <trkpt lat="43.52064" lon="3.07549">
        <ele>351</ele>
        <time>2015-11-29T08:27:22Z</time>
      </trkpt>
      <trkpt lat="43.5206" lon="3.0755">
        <ele>351</ele>
        <time>2015-11-29T08:27:23Z</time>
      </trkpt>
      <trkpt lat="43.52055" lon="3.07552">
        <ele>350.5</ele>
        <time>2015-11-29T08:27:24Z</time>
      </trkpt>
      <trkpt lat="43.52051" lon="3.07553">
        <ele>350.5</ele>
        <time>2015-11-29T08:27:25Z</time>
      </trkpt>
      <trkpt lat="43.52047" lon="3.07555">
        <ele>350.5</ele>
        <time>2015-11-29T08:27:26Z</time>
      </trkpt>
      <trkpt lat="43.52044" lon="3.07556">
        <ele>350.5</ele>
        <time>2015-11-29T08:27:27Z</time>
      </trkpt>
      <trkpt lat="43.5204" lon="3.07557">
        <ele>351</ele>
        <time>2015-11-29T08:27:28Z</time>
      </trkpt>
      <trkpt lat="43.52036" lon="3.07559">
        <ele>351</ele>
        <time>2015-11-29T08:27:29Z</time>
      </trkpt>
      <trkpt lat="43.52033" lon="3.0756">
        <ele>351</ele>
        <time>2015-11-29T08:27:30Z</time>
      </trkpt>
      <trkpt lat="43.52029" lon="3.07562">
        <ele>351</ele>
        <time>2015-11-29T08:27:31Z</time>
      </trkpt>
      <trkpt lat="43.52025" lon="3.07564">
        <ele>351</ele>
        <time>2015-11-29T08:27:32Z</time>
      </trkpt>
      <trkpt lat="43.52021" lon="3.07565">
        <ele>351.5</ele>
        <time>2015-11-29T08:27:33Z</time>
      </trkpt>
      <trkpt lat="43.52018" lon="3.07567">
        <ele>352</ele>
        <time>2015-11-29T08:27:34Z</time>
      </trkpt>
      <trkpt lat="43.52014" lon="3.07568">
        <ele>352</ele>
        <time>2015-11-29T08:27:35Z</time>
      </trkpt>
      <trkpt lat="43.5201" lon="3.07569">
        <ele>352</ele>
        <time>2015-11-29T08:27:36Z</time>
      </trkpt>
      <trkpt lat="43.52006" lon="3.07569">
        <ele>352</ele>
        <time>2015-11-29T08:27:37Z</time>
      </trkpt>
      <trkpt lat="43.52002" lon="3.0757">
        <ele>352</ele>
        <time>2015-11-29T08:27:38Z</time>
      </trkpt>
      <trkpt lat="43.51998" lon="3.0757">
        <ele>352</ele>
        <time>2015-11-29T08:27:39Z</time>
      </trkpt>
      <trkpt lat="43.51994" lon="3.0757">
        <ele>352</ele>
        <time>2015-11-29T08:27:40Z</time>
      </trkpt>
      <trkpt lat="43.5199" lon="3.0757">
        <ele>352.5</ele>
        <time>2015-11-29T08:27:41Z</time>
      </trkpt>
      <trkpt lat="43.51985" lon="3.07572">
        <ele>353</ele>
        <time>2015-11-29T08:27:42Z</time>
      </trkpt>
      <trkpt lat="43.51981" lon="3.07572">
        <ele>353</ele>
        <time>2015-11-29T08:27:43Z</time>
      </trkpt>
      <trkpt lat="43.51976" lon="3.07571">
        <ele>353</ele>
        <time>2015-11-29T08:27:44Z</time>
      </trkpt>
      <trkpt lat="43.51973" lon="3.0757">
        <ele>353</ele>
        <time>2015-11-29T08:27:45Z</time>
      </trkpt>
      <trkpt lat="43.51969" lon="3.07568">
        <ele>353</ele>
        <time>2015-11-29T08:27:46Z</time>
      </trkpt>
      <trkpt lat="43.51965" lon="3.07566">
        <ele>353</ele>
        <time>2015-11-29T08:27:47Z</time>
      </trkpt>
      <trkpt lat="43.51962" lon="3.07564">
        <ele>353.5</ele>
        <time>2015-11-29T08:27:48Z</time>
      </trkpt>
      <trkpt lat="43.51959" lon="3.07561">
        <ele>353.5</ele>
        <time>2015-11-29T08:27:49Z</time>
      </trkpt>
      <trkpt lat="43.51956" lon="3.07558">
        <ele>353</ele>
        <time>2015-11-29T08:27:50Z</time>
      </trkpt>
      <trkpt lat="43.51953" lon="3.07554">
        <ele>353.5</ele>
        <time>2015-11-29T08:27:51Z</time>
      </trkpt>
      <trkpt lat="43.5195" lon="3.0755">
        <ele>353.5</ele>
        <time>2015-11-29T08:27:52Z</time>
      </trkpt>
      <trkpt lat="43.51947" lon="3.07546">
        <ele>353.5</ele>
        <time>2015-11-29T08:27:53Z</time>
      </trkpt>
      <trkpt lat="43.51944" lon="3.07542">
        <ele>354</ele>
        <time>2015-11-29T08:27:54Z</time>
      </trkpt>
      <trkpt lat="43.5194" lon="3.0754">
        <ele>354</ele>
        <time>2015-11-29T08:27:55Z</time>
      </trkpt>
      <trkpt lat="43.51936" lon="3.07538">
        <ele>354</ele>
        <time>2015-11-29T08:27:56Z</time>
      </trkpt>
      <trkpt lat="43.51933" lon="3.07536">
        <ele>354</ele>
        <time>2015-11-29T08:27:57Z</time>
      </trkpt>
      <trkpt lat="43.5193" lon="3.07535">
        <ele>355.5</ele>
        <time>2015-11-29T08:27:58Z</time>
      </trkpt>
      <trkpt lat="43.51926" lon="3.07532">
        <ele>355.5</ele>
        <time>2015-11-29T08:27:59Z</time>
      </trkpt>
      <trkpt lat="43.51923" lon="3.07529">
        <ele>355.5</ele>
        <time>2015-11-29T08:28:00Z</time>
      </trkpt>
      <trkpt lat="43.51919" lon="3.07526">
        <ele>355.5</ele>
        <time>2015-11-29T08:28:01Z</time>
      </trkpt>
      <trkpt lat="43.51916" lon="3.07522">
        <ele>355.5</ele>
        <time>2015-11-29T08:28:02Z</time>
      </trkpt>
      <trkpt lat="43.51913" lon="3.07517">
        <ele>355.5</ele>
        <time>2015-11-29T08:28:03Z</time>
      </trkpt>
      <trkpt lat="43.5191" lon="3.07512">
        <ele>356</ele>
        <time>2015-11-29T08:28:04Z</time>
      </trkpt>
      <trkpt lat="43.51907" lon="3.07507">
        <ele>355.5</ele>
        <time>2015-11-29T08:28:05Z</time>
      </trkpt>
      <trkpt lat="43.51904" lon="3.07502">
        <ele>356</ele>
        <time>2015-11-29T08:28:06Z</time>
      </trkpt>
      <trkpt lat="43.51901" lon="3.07497">
        <ele>356</ele>
        <time>2015-11-29T08:28:07Z</time>
      </trkpt>
      <trkpt lat="43.51899" lon="3.07491">
        <ele>356</ele>
        <time>2015-11-29T08:28:08Z</time>
      </trkpt>
      <trkpt lat="43.51896" lon="3.07485">
        <ele>356</ele>
        <time>2015-11-29T08:28:09Z</time>
      </trkpt>
      <trkpt lat="43.51894" lon="3.07479">
        <ele>355.5</ele>
        <time>2015-11-29T08:28:10Z</time>
      </trkpt>
      <trkpt lat="43.51892" lon="3.07473">
        <ele>355.5</ele>
        <time>2015-11-29T08:28:11Z</time>
      </trkpt>
      <trkpt lat="43.51892" lon="3.07465">
        <ele>355.5</ele>
        <time>2015-11-29T08:28:12Z</time>
      </trkpt>
      <trkpt lat="43.51892" lon="3.07457">
        <ele>355.5</ele>
        <time>2015-11-29T08:28:13Z</time>
      </trkpt>
      <trkpt lat="43.51892" lon="3.0745">
        <ele>355.5</ele>
        <time>2015-11-29T08:28:14Z</time>
      </trkpt>
      <trkpt lat="43.51893" lon="3.07443">
        <ele>355</ele>
        <time>2015-11-29T08:28:15Z</time>
      </trkpt>
      <trkpt lat="43.51894" lon="3.07436">
        <ele>354.5</ele>
        <time>2015-11-29T08:28:16Z</time>
      </trkpt>
      <trkpt lat="43.51894" lon="3.07429">
        <ele>354</ele>
        <time>2015-11-29T08:28:17Z</time>
      </trkpt>
      <trkpt lat="43.51891" lon="3.07422">
        <ele>353.5</ele>
        <time>2015-11-29T08:28:18Z</time>
      </trkpt>
      <trkpt lat="43.51888" lon="3.07415">
        <ele>353.5</ele>
        <time>2015-11-29T08:28:18Z</time>
      </trkpt>
      <trkpt lat="43.51882" lon="3.07414">
        <ele>353</ele>
        <time>2015-11-29T08:28:19Z</time>
      </trkpt>
      <trkpt lat="43.51877" lon="3.07411">
        <ele>353</ele>
        <time>2015-11-29T08:28:21Z</time>
      </trkpt>
      <trkpt lat="43.51873" lon="3.07408">
        <ele>353.5</ele>
        <time>2015-11-29T08:28:21Z</time>
      </trkpt>
      <trkpt lat="43.51868" lon="3.07406">
        <ele>353.5</ele>
        <time>2015-11-29T08:28:22Z</time>
      </trkpt>
      <trkpt lat="43.51863" lon="3.07405">
        <ele>353</ele>
        <time>2015-11-29T08:28:23Z</time>
      </trkpt>
      <trkpt lat="43.51859" lon="3.07402">
        <ele>352.5</ele>
        <time>2015-11-29T08:28:24Z</time>
      </trkpt>
      <trkpt lat="43.51854" lon="3.074">
        <ele>352.5</ele>
        <time>2015-11-29T08:28:25Z</time>
      </trkpt>
      <trkpt lat="43.5185" lon="3.074">
        <ele>352</ele>
        <time>2015-11-29T08:28:26Z</time>
      </trkpt>
      <trkpt lat="43.51845" lon="3.07399">
        <ele>352</ele>
        <time>2015-11-29T08:28:27Z</time>
      </trkpt>
      <trkpt lat="43.51841" lon="3.07398">
        <ele>351.5</ele>
        <time>2015-11-29T08:28:28Z</time>
      </trkpt>
      <trkpt lat="43.51836" lon="3.07397">
        <ele>351.5</ele>
        <time>2015-11-29T08:28:29Z</time>
      </trkpt>
      <trkpt lat="43.51832" lon="3.07397">
        <ele>351.5</ele>
        <time>2015-11-29T08:28:31Z</time>
      </trkpt>
      <trkpt lat="43.51828" lon="3.07396">
        <ele>351.5</ele>
        <time>2015-11-29T08:28:31Z</time>
      </trkpt>
      <trkpt lat="43.51824" lon="3.07396">
        <ele>351.5</ele>
        <time>2015-11-29T08:28:32Z</time>
      </trkpt>
      <trkpt lat="43.5182" lon="3.07395">
        <ele>351.5</ele>
        <time>2015-11-29T08:28:33Z</time>
      </trkpt>
      <trkpt lat="43.51816" lon="3.07394">
        <ele>351.5</ele>
        <time>2015-11-29T08:28:34Z</time>
      </trkpt>
      <trkpt lat="43.51812" lon="3.07394">
        <ele>351</ele>
        <time>2015-11-29T08:28:36Z</time>
      </trkpt>
      <trkpt lat="43.51808" lon="3.07393">
        <ele>351</ele>
        <time>2015-11-29T08:28:36Z</time>
      </trkpt>
      <trkpt lat="43.51804" lon="3.07391">
        <ele>351</ele>
        <time>2015-11-29T08:28:37Z</time>
      </trkpt>
      <trkpt lat="43.518" lon="3.0739">
        <ele>351.5</ele>
        <time>2015-11-29T08:28:38Z</time>
      </trkpt>
      <trkpt lat="43.51796" lon="3.07388">
        <ele>351</ele>
        <time>2015-11-29T08:28:39Z</time>
      </trkpt>
      <trkpt lat="43.51792" lon="3.07386">
        <ele>351</ele>
        <time>2015-11-29T08:28:41Z</time>
      </trkpt>
      <trkpt lat="43.51788" lon="3.07384">
        <ele>351</ele>
        <time>2015-11-29T08:28:41Z</time>
      </trkpt>
      <trkpt lat="43.51784" lon="3.07382">
        <ele>350.5</ele>
        <time>2015-11-29T08:28:42Z</time>
      </trkpt>
      <trkpt lat="43.5178" lon="3.07378">
        <ele>350.5</ele>
        <time>2015-11-29T08:28:43Z</time>
      </trkpt>
      <trkpt lat="43.51777" lon="3.07375">
        <ele>350.5</ele>
        <time>2015-11-29T08:28:44Z</time>
      </trkpt>
      <trkpt lat="43.51773" lon="3.0737">
        <ele>350.5</ele>
        <time>2015-11-29T08:28:45Z</time>
      </trkpt>
      <trkpt lat="43.5177" lon="3.07366">
        <ele>350.5</ele>
        <time>2015-11-29T08:28:46Z</time>
      </trkpt>
      <trkpt lat="43.51767" lon="3.07362">
        <ele>350</ele>
        <time>2015-11-29T08:28:47Z</time>
      </trkpt>
      <trkpt lat="43.51765" lon="3.07358">
        <ele>352</ele>
        <time>2015-11-29T08:28:48Z</time>
      </trkpt>
      <trkpt lat="43.51758" lon="3.0735">
        <ele>351.5</ele>
        <time>2015-11-29T08:28:51Z</time>
      </trkpt>
      <trkpt lat="43.51756" lon="3.07347">
        <ele>352.5</ele>
        <time>2015-11-29T08:28:51Z</time>
      </trkpt>
      <trkpt lat="43.51754" lon="3.07344">
        <ele>351</ele>
        <time>2015-11-29T08:28:52Z</time>
      </trkpt>
      <trkpt lat="43.51752" lon="3.07341">
        <ele>351.5</ele>
        <time>2015-11-29T08:28:53Z</time>
      </trkpt>
      <trkpt lat="43.51751" lon="3.07339">
        <ele>351</ele>
        <time>2015-11-29T08:28:54Z</time>
      </trkpt>
      <trkpt lat="43.5175" lon="3.07336">
        <ele>351.5</ele>
        <time>2015-11-29T08:28:55Z</time>
      </trkpt>
      <trkpt lat="43.51749" lon="3.07335">
        <ele>351.5</ele>
        <time>2015-11-29T08:28:56Z</time>
      </trkpt>
      <trkpt lat="43.51748" lon="3.07334">
        <ele>351</ele>
        <time>2015-11-29T08:28:57Z</time>
      </trkpt>
      <trkpt lat="43.51748" lon="3.07334">
        <ele>351</ele>
        <time>2015-11-29T08:28:58Z</time>
      </trkpt>
      <trkpt lat="43.51749" lon="3.07331">
        <ele>349</ele>
        <time>2015-11-29T08:29:13Z</time>
      </trkpt>
      <trkpt lat="43.51748" lon="3.0733">
        <ele>350</ele>
        <time>2015-11-29T08:29:16Z</time>
      </trkpt>
      <trkpt lat="43.51748" lon="3.07329">
        <ele>350.5</ele>
        <time>2015-11-29T08:29:19Z</time>
      </trkpt>
      <trkpt lat="43.51748" lon="3.07327">
        <ele>350.5</ele>
        <time>2015-11-29T08:29:34Z</time>
      </trkpt>
      <trkpt lat="43.51749" lon="3.07326">
        <ele>349.5</ele>
        <time>2015-11-29T08:29:49Z</time>
      </trkpt>
      <trkpt lat="43.51748" lon="3.07324">
        <ele>350</ele>
        <time>2015-11-29T08:30:01Z</time>
      </trkpt>
      <trkpt lat="43.51746" lon="3.07322">
        <ele>350</ele>
        <time>2015-11-29T08:30:03Z</time>
      </trkpt>
      <trkpt lat="43.51745" lon="3.07321">
        <ele>349.5</ele>
        <time>2015-11-29T08:30:04Z</time>
      </trkpt>
      <trkpt lat="43.51745" lon="3.0732">
        <ele>349.5</ele>
        <time>2015-11-29T08:30:05Z</time>
      </trkpt>
      <trkpt lat="43.51745" lon="3.07318">
        <ele>349.5</ele>
        <time>2015-11-29T08:30:06Z</time>
      </trkpt>
      <trkpt lat="43.51746" lon="3.07317">
        <ele>350</ele>
        <time>2015-11-29T08:30:07Z</time>
      </trkpt>
      <trkpt lat="43.51748" lon="3.07318">
        <ele>350</ele>
        <time>2015-11-29T08:30:08Z</time>
      </trkpt>
      <trkpt lat="43.51749" lon="3.07318">
        <ele>350</ele>
        <time>2015-11-29T08:30:09Z</time>
      </trkpt>
      <trkpt lat="43.51749" lon="3.0732">
        <ele>350</ele>
        <time>2015-11-29T08:30:10Z</time>
      </trkpt>
      <trkpt lat="43.51749" lon="3.07322">
        <ele>350</ele>
        <time>2015-11-29T08:30:11Z</time>
      </trkpt>
      <trkpt lat="43.51749" lon="3.07325">
        <ele>349</ele>
        <time>2015-11-29T08:30:12Z</time>
      </trkpt>
      <trkpt lat="43.5175" lon="3.07326">
        <ele>348.5</ele>
        <time>2015-11-29T08:30:13Z</time>
      </trkpt>
      <trkpt lat="43.5175" lon="3.07327">
        <ele>347</ele>
        <time>2015-11-29T08:30:15Z</time>
      </trkpt>
      <trkpt lat="43.5175" lon="3.07326">
        <ele>346.5</ele>
        <time>2015-11-29T08:30:25Z</time>
      </trkpt>
      <trkpt lat="43.51751" lon="3.07327">
        <ele>346.5</ele>
        <time>2015-11-29T08:30:31Z</time>
      </trkpt>
      <trkpt lat="43.51752" lon="3.07326">
        <ele>347.5</ele>
        <time>2015-11-29T08:30:39Z</time>
      </trkpt>
      <trkpt lat="43.51754" lon="3.07325">
        <ele>349</ele>
        <time>2015-11-29T08:30:41Z</time>
      </trkpt>
      <trkpt lat="43.51754" lon="3.07325">
        <ele>349</ele>
        <time>2015-11-29T08:30:42Z</time>
      </trkpt>
      <trkpt lat="43.51753" lon="3.07325">
        <ele>349</ele>
        <time>2015-11-29T08:30:43Z</time>
      </trkpt>
      <trkpt lat="43.51753" lon="3.07324">
        <ele>349</ele>
        <time>2015-11-29T08:30:44Z</time>
      </trkpt>
      <trkpt lat="43.51753" lon="3.07323">
        <ele>349</ele>
        <time>2015-11-29T08:30:45Z</time>
      </trkpt>
      <trkpt lat="43.51753" lon="3.07323">
        <ele>349</ele>
        <time>2015-11-29T08:30:59Z</time>
      </trkpt>
      <trkpt lat="43.51753" lon="3.07322">
        <ele>348.5</ele>
        <time>2015-11-29T08:31:00Z</time>
      </trkpt>
      <trkpt lat="43.51754" lon="3.0732">
        <ele>349</ele>
        <time>2015-11-29T08:31:01Z</time>
      </trkpt>
      <trkpt lat="43.51754" lon="3.07318">
        <ele>349</ele>
        <time>2015-11-29T08:31:02Z</time>
      </trkpt>
      <trkpt lat="43.51755" lon="3.07316">
        <ele>349</ele>
        <time>2015-11-29T08:31:03Z</time>
      </trkpt>
      <trkpt lat="43.51756" lon="3.07314">
        <ele>349</ele>
        <time>2015-11-29T08:31:04Z</time>
      </trkpt>
      <trkpt lat="43.51757" lon="3.07311">
        <ele>349.5</ele>
        <time>2015-11-29T08:31:05Z</time>
      </trkpt>
      <trkpt lat="43.51758" lon="3.07309">
        <ele>350</ele>
        <time>2015-11-29T08:31:06Z</time>
      </trkpt>
      <trkpt lat="43.51759" lon="3.07307">
        <ele>350.5</ele>
        <time>2015-11-29T08:31:07Z</time>
      </trkpt>
      <trkpt lat="43.51761" lon="3.07305">
        <ele>350.5</ele>
        <time>2015-11-29T08:31:08Z</time>
      </trkpt>
      <trkpt lat="43.51762" lon="3.07303">
        <ele>351</ele>
        <time>2015-11-29T08:31:09Z</time>
      </trkpt>
      <trkpt lat="43.51763" lon="3.07301">
        <ele>351</ele>
        <time>2015-11-29T08:31:10Z</time>
      </trkpt>
      <trkpt lat="43.51765" lon="3.07299">
        <ele>351.5</ele>
        <time>2015-11-29T08:31:11Z</time>
      </trkpt>
      <trkpt lat="43.51766" lon="3.07296">
        <ele>352</ele>
        <time>2015-11-29T08:31:12Z</time>
      </trkpt>
      <trkpt lat="43.51767" lon="3.07294">
        <ele>352.5</ele>
        <time>2015-11-29T08:31:13Z</time>
      </trkpt>
      <trkpt lat="43.51769" lon="3.07292">
        <ele>352.5</ele>
        <time>2015-11-29T08:31:14Z</time>
      </trkpt>
      <trkpt lat="43.51771" lon="3.0729">
        <ele>352.5</ele>
        <time>2015-11-29T08:31:15Z</time>
      </trkpt>
      <trkpt lat="43.51772" lon="3.07288">
        <ele>352.5</ele>
        <time>2015-11-29T08:31:16Z</time>
      </trkpt>
      <trkpt lat="43.51774" lon="3.07285">
        <ele>353</ele>
        <time>2015-11-29T08:31:17Z</time>
      </trkpt>
      <trkpt lat="43.51775" lon="3.07283">
        <ele>353</ele>
        <time>2015-11-29T08:31:18Z</time>
      </trkpt>
      <trkpt lat="43.51777" lon="3.0728">
        <ele>353</ele>
        <time>2015-11-29T08:31:19Z</time>
      </trkpt>
      <trkpt lat="43.51778" lon="3.07278">
        <ele>354</ele>
        <time>2015-11-29T08:31:20Z</time>
      </trkpt>
      <trkpt lat="43.5178" lon="3.07275">
        <ele>354</ele>
        <time>2015-11-29T08:31:21Z</time>
      </trkpt>
      <trkpt lat="43.51781" lon="3.07272">
        <ele>354.5</ele>
        <time>2015-11-29T08:31:22Z</time>
      </trkpt>
      <trkpt lat="43.51782" lon="3.0727">
        <ele>355</ele>
        <time>2015-11-29T08:31:23Z</time>
      </trkpt>
      <trkpt lat="43.51784" lon="3.07268">
        <ele>355</ele>
        <time>2015-11-29T08:31:24Z</time>
      </trkpt>
      <trkpt lat="43.51785" lon="3.07265">
        <ele>355.5</ele>
        <time>2015-11-29T08:31:25Z</time>
      </trkpt>
      <trkpt lat="43.51787" lon="3.07263">
        <ele>356</ele>
        <time>2015-11-29T08:31:26Z</time>
      </trkpt>
      <trkpt lat="43.51787" lon="3.07261">
        <ele>357.5</ele>
        <time>2015-11-29T08:31:27Z</time>
      </trkpt>
      <trkpt lat="43.51788" lon="3.07258">
        <ele>358</ele>
        <time>2015-11-29T08:31:28Z</time>
      </trkpt>
      <trkpt lat="43.5179" lon="3.07255">
        <ele>358</ele>
        <time>2015-11-29T08:31:29Z</time>
      </trkpt>
      <trkpt lat="43.51792" lon="3.07253">
        <ele>358</ele>
        <time>2015-11-29T08:31:30Z</time>
      </trkpt>
      <trkpt lat="43.51793" lon="3.0725">
        <ele>359</ele>
        <time>2015-11-29T08:31:31Z</time>
      </trkpt>
      <trkpt lat="43.51794" lon="3.07248">
        <ele>359.5</ele>
        <time>2015-11-29T08:31:32Z</time>
      </trkpt>
      <trkpt lat="43.51796" lon="3.07246">
        <ele>359.5</ele>
        <time>2015-11-29T08:31:33Z</time>
      </trkpt>
      <trkpt lat="43.51797" lon="3.07243">
        <ele>360</ele>
        <time>2015-11-29T08:31:34Z</time>
      </trkpt>
      <trkpt lat="43.51798" lon="3.07241">
        <ele>360.5</ele>
        <time>2015-11-29T08:31:35Z</time>
      </trkpt>
      <trkpt lat="43.518" lon="3.07238">
        <ele>361.5</ele>
        <time>2015-11-29T08:31:36Z</time>
      </trkpt>
      <trkpt lat="43.51802" lon="3.07236">
        <ele>361</ele>
        <time>2015-11-29T08:31:37Z</time>
      </trkpt>
      <trkpt lat="43.51803" lon="3.07233">
        <ele>361</ele>
        <time>2015-11-29T08:31:38Z</time>
      </trkpt>
      <trkpt lat="43.51805" lon="3.0723">
        <ele>362.5</ele>
        <time>2015-11-29T08:31:39Z</time>
      </trkpt>
      <trkpt lat="43.51806" lon="3.07227">
        <ele>363.5</ele>
        <time>2015-11-29T08:31:40Z</time>
      </trkpt>
      <trkpt lat="43.51808" lon="3.07224">
        <ele>364.5</ele>
        <time>2015-11-29T08:31:41Z</time>
      </trkpt>
      <trkpt lat="43.51809" lon="3.07222">
        <ele>365</ele>
        <time>2015-11-29T08:31:42Z</time>
      </trkpt>
      <trkpt lat="43.51811" lon="3.07219">
        <ele>365.5</ele>
        <time>2015-11-29T08:31:43Z</time>
      </trkpt>
      <trkpt lat="43.51812" lon="3.07216">
        <ele>365.5</ele>
        <time>2015-11-29T08:31:44Z</time>
      </trkpt>
      <trkpt lat="43.51814" lon="3.07213">
        <ele>366</ele>
        <time>2015-11-29T08:31:45Z</time>
      </trkpt>
      <trkpt lat="43.51815" lon="3.07211">
        <ele>367</ele>
        <time>2015-11-29T08:31:46Z</time>
      </trkpt>
      <trkpt lat="43.51817" lon="3.07208">
        <ele>367.5</ele>
        <time>2015-11-29T08:31:47Z</time>
      </trkpt>
      <trkpt lat="43.51818" lon="3.07205">
        <ele>368</ele>
        <time>2015-11-29T08:31:48Z</time>
      </trkpt>
      <trkpt lat="43.5182" lon="3.07203">
        <ele>368.5</ele>
        <time>2015-11-29T08:31:49Z</time>
      </trkpt>
      <trkpt lat="43.51821" lon="3.072">
        <ele>368.5</ele>
        <time>2015-11-29T08:31:50Z</time>
      </trkpt>
      <trkpt lat="43.51823" lon="3.07198">
        <ele>369</ele>
        <time>2015-11-29T08:31:51Z</time>
      </trkpt>
      <trkpt lat="43.51825" lon="3.07195">
        <ele>369.5</ele>
        <time>2015-11-29T08:31:52Z</time>
      </trkpt>
      <trkpt lat="43.51827" lon="3.07193">
        <ele>370</ele>
        <time>2015-11-29T08:31:53Z</time>
      </trkpt>
      <trkpt lat="43.51828" lon="3.0719">
        <ele>370.5</ele>
        <time>2015-11-29T08:31:54Z</time>
      </trkpt>
      <trkpt lat="43.51831" lon="3.07188">
        <ele>370.5</ele>
        <time>2015-11-29T08:31:55Z</time>
      </trkpt>
      <trkpt lat="43.51833" lon="3.07186">
        <ele>369.5</ele>
        <time>2015-11-29T08:31:56Z</time>
      </trkpt>
      <trkpt lat="43.51835" lon="3.07183">
        <ele>370</ele>
        <time>2015-11-29T08:31:57Z</time>
      </trkpt>
      <trkpt lat="43.51837" lon="3.07181">
        <ele>370.5</ele>
        <time>2015-11-29T08:31:58Z</time>
      </trkpt>
      <trkpt lat="43.51839" lon="3.07178">
        <ele>370.5</ele>
        <time>2015-11-29T08:31:59Z</time>
      </trkpt>
      <trkpt lat="43.51841" lon="3.07176">
        <ele>370</ele>
        <time>2015-11-29T08:32:00Z</time>
      </trkpt>
      <trkpt lat="43.51843" lon="3.07174">
        <ele>369.5</ele>
        <time>2015-11-29T08:32:01Z</time>
      </trkpt>
      <trkpt lat="43.51845" lon="3.07172">
        <ele>369.5</ele>
        <time>2015-11-29T08:32:02Z</time>
      </trkpt>
      <trkpt lat="43.51848" lon="3.07171">
        <ele>369</ele>
        <time>2015-11-29T08:32:03Z</time>
      </trkpt>
      <trkpt lat="43.5185" lon="3.07168">
        <ele>368.5</ele>
        <time>2015-11-29T08:32:04Z</time>
      </trkpt>
      <trkpt lat="43.51852" lon="3.07166">
        <ele>368</ele>
        <time>2015-11-29T08:32:05Z</time>
      </trkpt>
      <trkpt lat="43.51855" lon="3.07164">
        <ele>368</ele>
        <time>2015-11-29T08:32:06Z</time>
      </trkpt>
      <trkpt lat="43.51857" lon="3.07163">
        <ele>368</ele>
        <time>2015-11-29T08:32:07Z</time>
      </trkpt>
      <trkpt lat="43.51859" lon="3.07161">
        <ele>369</ele>
        <time>2015-11-29T08:32:08Z</time>
      </trkpt>
      <trkpt lat="43.51862" lon="3.07159">
        <ele>368.5</ele>
        <time>2015-11-29T08:32:09Z</time>
      </trkpt>
      <trkpt lat="43.51864" lon="3.07158">
        <ele>368</ele>
        <time>2015-11-29T08:32:10Z</time>
      </trkpt>
      <trkpt lat="43.51867" lon="3.07156">
        <ele>367.5</ele>
        <time>2015-11-29T08:32:11Z</time>
      </trkpt>
      <trkpt lat="43.5187" lon="3.07155">
        <ele>367</ele>
        <time>2015-11-29T08:32:12Z</time>
      </trkpt>
      <trkpt lat="43.51872" lon="3.07154">
        <ele>367.5</ele>
        <time>2015-11-29T08:32:13Z</time>
      </trkpt>
      <trkpt lat="43.51874" lon="3.07152">
        <ele>368</ele>
        <time>2015-11-29T08:32:14Z</time>
      </trkpt>
      <trkpt lat="43.51876" lon="3.0715">
        <ele>368.5</ele>
        <time>2015-11-29T08:32:15Z</time>
      </trkpt>
      <trkpt lat="43.51879" lon="3.07149">
        <ele>368.5</ele>
        <time>2015-11-29T08:32:16Z</time>
      </trkpt>
      <trkpt lat="43.51881" lon="3.07147">
        <ele>368.5</ele>
        <time>2015-11-29T08:32:17Z</time>
      </trkpt>
      <trkpt lat="43.51882" lon="3.07145">
        <ele>370</ele>
        <time>2015-11-29T08:32:18Z</time>
      </trkpt>
      <trkpt lat="43.51885" lon="3.07143">
        <ele>370.5</ele>
        <time>2015-11-29T08:32:19Z</time>
      </trkpt>
      <trkpt lat="43.51888" lon="3.07142">
        <ele>369.5</ele>
        <time>2015-11-29T08:32:20Z</time>
      </trkpt>
      <trkpt lat="43.5189" lon="3.0714">
        <ele>370</ele>
        <time>2015-11-29T08:32:21Z</time>
      </trkpt>
      <trkpt lat="43.51892" lon="3.07137">
        <ele>370.5</ele>
        <time>2015-11-29T08:32:22Z</time>
      </trkpt>
      <trkpt lat="43.51894" lon="3.07134">
        <ele>372.5</ele>
        <time>2015-11-29T08:32:23Z</time>
      </trkpt>
      <trkpt lat="43.51896" lon="3.07131">
        <ele>374.5</ele>
        <time>2015-11-29T08:32:24Z</time>
      </trkpt>
      <trkpt lat="43.51898" lon="3.07129">
        <ele>375.5</ele>
        <time>2015-11-29T08:32:25Z</time>
      </trkpt>
      <trkpt lat="43.519" lon="3.07127">
        <ele>377</ele>
        <time>2015-11-29T08:32:26Z</time>
      </trkpt>
      <trkpt lat="43.51902" lon="3.07125">
        <ele>378</ele>
        <time>2015-11-29T08:32:27Z</time>
      </trkpt>
      <trkpt lat="43.51905" lon="3.07122">
        <ele>378.5</ele>
        <time>2015-11-29T08:32:28Z</time>
      </trkpt>
      <trkpt lat="43.51907" lon="3.0712">
        <ele>379.5</ele>
        <time>2015-11-29T08:32:29Z</time>
      </trkpt>
      <trkpt lat="43.5191" lon="3.07118">
        <ele>380.5</ele>
        <time>2015-11-29T08:32:30Z</time>
      </trkpt>
      <trkpt lat="43.51912" lon="3.07116">
        <ele>381</ele>
        <time>2015-11-29T08:32:31Z</time>
      </trkpt>
      <trkpt lat="43.51914" lon="3.07115">
        <ele>380.5</ele>
        <time>2015-11-29T08:32:32Z</time>
      </trkpt>
      <trkpt lat="43.51917" lon="3.07113">
        <ele>381.5</ele>
        <time>2015-11-29T08:32:33Z</time>
      </trkpt>
      <trkpt lat="43.51919" lon="3.07111">
        <ele>380.5</ele>
        <time>2015-11-29T08:32:34Z</time>
      </trkpt>
      <trkpt lat="43.51921" lon="3.07109">
        <ele>381</ele>
        <time>2015-11-29T08:32:35Z</time>
      </trkpt>
      <trkpt lat="43.51924" lon="3.07108">
        <ele>382</ele>
        <time>2015-11-29T08:32:36Z</time>
      </trkpt>
      <trkpt lat="43.51926" lon="3.07107">
        <ele>381.5</ele>
        <time>2015-11-29T08:32:37Z</time>
      </trkpt>
      <trkpt lat="43.51929" lon="3.07105">
        <ele>381</ele>
        <time>2015-11-29T08:32:38Z</time>
      </trkpt>
      <trkpt lat="43.51931" lon="3.07104">
        <ele>382.5</ele>
        <time>2015-11-29T08:32:39Z</time>
      </trkpt>
      <trkpt lat="43.51933" lon="3.07102">
        <ele>383.5</ele>
        <time>2015-11-29T08:32:40Z</time>
      </trkpt>
      <trkpt lat="43.51935" lon="3.07101">
        <ele>384</ele>
        <time>2015-11-29T08:32:41Z</time>
      </trkpt>
      <trkpt lat="43.51938" lon="3.07099">
        <ele>384.5</ele>
        <time>2015-11-29T08:32:42Z</time>
      </trkpt>
      <trkpt lat="43.5194" lon="3.07098">
        <ele>384</ele>
        <time>2015-11-29T08:32:43Z</time>
      </trkpt>
      <trkpt lat="43.51942" lon="3.07096">
        <ele>385</ele>
        <time>2015-11-29T08:32:44Z</time>
      </trkpt>
      <trkpt lat="43.51945" lon="3.07095">
        <ele>385</ele>
        <time>2015-11-29T08:32:45Z</time>
      </trkpt>
      <trkpt lat="43.51948" lon="3.07093">
        <ele>385</ele>
        <time>2015-11-29T08:32:46Z</time>
      </trkpt>
      <trkpt lat="43.51949" lon="3.0709">
        <ele>386.5</ele>
        <time>2015-11-29T08:32:47Z</time>
      </trkpt>
      <trkpt lat="43.5195" lon="3.07086">
        <ele>387</ele>
        <time>2015-11-29T08:32:48Z</time>
      </trkpt>
      <trkpt lat="43.51951" lon="3.07082">
        <ele>386.5</ele>
        <time>2015-11-29T08:32:49Z</time>
      </trkpt>
      <trkpt lat="43.51951" lon="3.07078">
        <ele>388</ele>
        <time>2015-11-29T08:32:50Z</time>
      </trkpt>
      <trkpt lat="43.5195" lon="3.07075">
        <ele>388</ele>
        <time>2015-11-29T08:32:51Z</time>
      </trkpt>
      <trkpt lat="43.51948" lon="3.07073">
        <ele>388</ele>
        <time>2015-11-29T08:32:52Z</time>
      </trkpt>
      <trkpt lat="43.51945" lon="3.07071">
        <ele>388</ele>
        <time>2015-11-29T08:32:53Z</time>
      </trkpt>
      <trkpt lat="43.51943" lon="3.07069">
        <ele>389</ele>
        <time>2015-11-29T08:32:54Z</time>
      </trkpt>
      <trkpt lat="43.51941" lon="3.07067">
        <ele>388.5</ele>
        <time>2015-11-29T08:32:55Z</time>
      </trkpt>
      <trkpt lat="43.51942" lon="3.07063">
        <ele>387.5</ele>
        <time>2015-11-29T08:32:56Z</time>
      </trkpt>
      <trkpt lat="43.51941" lon="3.0706">
        <ele>387</ele>
        <time>2015-11-29T08:32:57Z</time>
      </trkpt>
      <trkpt lat="43.51941" lon="3.07057">
        <ele>386</ele>
        <time>2015-11-29T08:32:58Z</time>
      </trkpt>
      <trkpt lat="43.51942" lon="3.07054">
        <ele>386</ele>
        <time>2015-11-29T08:32:59Z</time>
      </trkpt>
      <trkpt lat="43.51942" lon="3.0705">
        <ele>385.5</ele>
        <time>2015-11-29T08:33:00Z</time>
      </trkpt>
      <trkpt lat="43.51942" lon="3.07046">
        <ele>385.5</ele>
        <time>2015-11-29T08:33:01Z</time>
      </trkpt>
      <trkpt lat="43.51943" lon="3.07042">
        <ele>385</ele>
        <time>2015-11-29T08:33:02Z</time>
      </trkpt>
      <trkpt lat="43.51944" lon="3.07038">
        <ele>385</ele>
        <time>2015-11-29T08:33:03Z</time>
      </trkpt>
      <trkpt lat="43.51945" lon="3.07034">
        <ele>385</ele>
        <time>2015-11-29T08:33:04Z</time>
      </trkpt>
      <trkpt lat="43.51946" lon="3.07031">
        <ele>385</ele>
        <time>2015-11-29T08:33:05Z</time>
      </trkpt>
      <trkpt lat="43.51946" lon="3.07027">
        <ele>385</ele>
        <time>2015-11-29T08:33:06Z</time>
      </trkpt>
      <trkpt lat="43.51947" lon="3.07023">
        <ele>385.5</ele>
        <time>2015-11-29T08:33:07Z</time>
      </trkpt>
      <trkpt lat="43.51949" lon="3.07019">
        <ele>385.5</ele>
        <time>2015-11-29T08:33:08Z</time>
      </trkpt>
      <trkpt lat="43.5195" lon="3.07015">
        <ele>385.5</ele>
        <time>2015-11-29T08:33:09Z</time>
      </trkpt>
      <trkpt lat="43.51951" lon="3.07011">
        <ele>386</ele>
        <time>2015-11-29T08:33:10Z</time>
      </trkpt>
      <trkpt lat="43.51952" lon="3.07007">
        <ele>386.5</ele>
        <time>2015-11-29T08:33:11Z</time>
      </trkpt>
      <trkpt lat="43.51953" lon="3.07004">
        <ele>387</ele>
        <time>2015-11-29T08:33:12Z</time>
      </trkpt>
      <trkpt lat="43.51954" lon="3.07">
        <ele>387</ele>
        <time>2015-11-29T08:33:13Z</time>
      </trkpt>
      <trkpt lat="43.51956" lon="3.06995">
        <ele>386.5</ele>
        <time>2015-11-29T08:33:14Z</time>
      </trkpt>
      <trkpt lat="43.51957" lon="3.06992">
        <ele>386.5</ele>
        <time>2015-11-29T08:33:15Z</time>
      </trkpt>
      <trkpt lat="43.51958" lon="3.06989">
        <ele>386.5</ele>
        <time>2015-11-29T08:33:16Z</time>
      </trkpt>
      <trkpt lat="43.51959" lon="3.06986">
        <ele>387</ele>
        <time>2015-11-29T08:33:17Z</time>
      </trkpt>
      <trkpt lat="43.51958" lon="3.06982">
        <ele>387.5</ele>
        <time>2015-11-29T08:33:18Z</time>
      </trkpt>
      <trkpt lat="43.51958" lon="3.06979">
        <ele>388</ele>
        <time>2015-11-29T08:33:19Z</time>
      </trkpt>
      <trkpt lat="43.51957" lon="3.06975">
        <ele>388.5</ele>
        <time>2015-11-29T08:33:20Z</time>
      </trkpt>
      <trkpt lat="43.51955" lon="3.06973">
        <ele>389.5</ele>
        <time>2015-11-29T08:33:21Z</time>
      </trkpt>
      <trkpt lat="43.51954" lon="3.0697">
        <ele>389.5</ele>
        <time>2015-11-29T08:33:22Z</time>
      </trkpt>
      <trkpt lat="43.51951" lon="3.06969">
        <ele>389.5</ele>
        <time>2015-11-29T08:33:23Z</time>
      </trkpt>
      <trkpt lat="43.51949" lon="3.06967">
        <ele>390.5</ele>
        <time>2015-11-29T08:33:24Z</time>
      </trkpt>
      <trkpt lat="43.51946" lon="3.06967">
        <ele>390.5</ele>
        <time>2015-11-29T08:33:25Z</time>
      </trkpt>
      <trkpt lat="43.51943" lon="3.06967">
        <ele>391</ele>
        <time>2015-11-29T08:33:26Z</time>
      </trkpt>
      <trkpt lat="43.51941" lon="3.06968">
        <ele>391</ele>
        <time>2015-11-29T08:33:27Z</time>
      </trkpt>
      <trkpt lat="43.51939" lon="3.06969">
        <ele>391</ele>
        <time>2015-11-29T08:33:28Z</time>
      </trkpt>
      <trkpt lat="43.51936" lon="3.06969">
        <ele>389.5</ele>
        <time>2015-11-29T08:33:29Z</time>
      </trkpt>
      <trkpt lat="43.51934" lon="3.0697">
        <ele>390</ele>
        <time>2015-11-29T08:33:30Z</time>
      </trkpt>
      <trkpt lat="43.51932" lon="3.06971">
        <ele>390.5</ele>
        <time>2015-11-29T08:33:31Z</time>
      </trkpt>
      <trkpt lat="43.5193" lon="3.06973">
        <ele>390.5</ele>
        <time>2015-11-29T08:33:32Z</time>
      </trkpt>
      <trkpt lat="43.51927" lon="3.06974">
        <ele>390.5</ele>
        <time>2015-11-29T08:33:33Z</time>
      </trkpt>
      <trkpt lat="43.51925" lon="3.06975">
        <ele>390.5</ele>
        <time>2015-11-29T08:33:34Z</time>
      </trkpt>
      <trkpt lat="43.51923" lon="3.06975">
        <ele>390</ele>
        <time>2015-11-29T08:33:34Z</time>
      </trkpt>
      <trkpt lat="43.5192" lon="3.06976">
        <ele>390</ele>
        <time>2015-11-29T08:33:36Z</time>
      </trkpt>
      <trkpt lat="43.51918" lon="3.06977">
        <ele>389.5</ele>
        <time>2015-11-29T08:33:36Z</time>
      </trkpt>
      <trkpt lat="43.51915" lon="3.06976">
        <ele>387.5</ele>
        <time>2015-11-29T08:33:38Z</time>
      </trkpt>
      <trkpt lat="43.51913" lon="3.06976">
        <ele>386.5</ele>
        <time>2015-11-29T08:33:38Z</time>
      </trkpt>
      <trkpt lat="43.51911" lon="3.06978">
        <ele>386.5</ele>
        <time>2015-11-29T08:33:39Z</time>
      </trkpt>
      <trkpt lat="43.51909" lon="3.06979">
        <ele>387.5</ele>
        <time>2015-11-29T08:33:41Z</time>
      </trkpt>
      <trkpt lat="43.51907" lon="3.0698">
        <ele>387</ele>
        <time>2015-11-29T08:33:41Z</time>
      </trkpt>
      <trkpt lat="43.51905" lon="3.06981">
        <ele>387</ele>
        <time>2015-11-29T08:33:42Z</time>
      </trkpt>
      <trkpt lat="43.51903" lon="3.06981">
        <ele>386.5</ele>
        <time>2015-11-29T08:33:44Z</time>
      </trkpt>
      <trkpt lat="43.51901" lon="3.06982">
        <ele>386.5</ele>
        <time>2015-11-29T08:33:44Z</time>
      </trkpt>
      <trkpt lat="43.51899" lon="3.06984">
        <ele>387</ele>
        <time>2015-11-29T08:33:45Z</time>
      </trkpt>
      <trkpt lat="43.51897" lon="3.06985">
        <ele>387</ele>
        <time>2015-11-29T08:33:47Z</time>
      </trkpt>
      <trkpt lat="43.51894" lon="3.06986">
        <ele>387.5</ele>
        <time>2015-11-29T08:33:47Z</time>
      </trkpt>
      <trkpt lat="43.51892" lon="3.06987">
        <ele>387</ele>
        <time>2015-11-29T08:33:48Z</time>
      </trkpt>
      <trkpt lat="43.51891" lon="3.06986">
        <ele>387</ele>
        <time>2015-11-29T08:33:49Z</time>
      </trkpt>
      <trkpt lat="43.51889" lon="3.06987">
        <ele>387</ele>
        <time>2015-11-29T08:33:50Z</time>
      </trkpt>
      <trkpt lat="43.51887" lon="3.06988">
        <ele>387</ele>
        <time>2015-11-29T08:33:51Z</time>
      </trkpt>
      <trkpt lat="43.51885" lon="3.06988">
        <ele>387.5</ele>
        <time>2015-11-29T08:33:52Z</time>
      </trkpt>
      <trkpt lat="43.51883" lon="3.06989">
        <ele>387.5</ele>
        <time>2015-11-29T08:33:53Z</time>
      </trkpt>
      <trkpt lat="43.5188" lon="3.0699">
        <ele>387.5</ele>
        <time>2015-11-29T08:33:54Z</time>
      </trkpt>
      <trkpt lat="43.51878" lon="3.0699">
        <ele>388</ele>
        <time>2015-11-29T08:33:55Z</time>
      </trkpt>
      <trkpt lat="43.51876" lon="3.06992">
        <ele>389</ele>
        <time>2015-11-29T08:33:56Z</time>
      </trkpt>
      <trkpt lat="43.51874" lon="3.06992">
        <ele>389.5</ele>
        <time>2015-11-29T08:33:57Z</time>
      </trkpt>
      <trkpt lat="43.51872" lon="3.06993">
        <ele>389.5</ele>
        <time>2015-11-29T08:33:59Z</time>
      </trkpt>
      <trkpt lat="43.5187" lon="3.06993">
        <ele>389.5</ele>
        <time>2015-11-29T08:33:59Z</time>
      </trkpt>
      <trkpt lat="43.51868" lon="3.06993">
        <ele>390</ele>
        <time>2015-11-29T08:34:00Z</time>
      </trkpt>
      <trkpt lat="43.51866" lon="3.06993">
        <ele>390</ele>
        <time>2015-11-29T08:34:01Z</time>
      </trkpt>
      <trkpt lat="43.51864" lon="3.06993">
        <ele>390.5</ele>
        <time>2015-11-29T08:34:02Z</time>
      </trkpt>
      <trkpt lat="43.51861" lon="3.06993">
        <ele>390.5</ele>
        <time>2015-11-29T08:34:03Z</time>
      </trkpt>
      <trkpt lat="43.51859" lon="3.06993">
        <ele>391</ele>
        <time>2015-11-29T08:34:04Z</time>
      </trkpt>
      <trkpt lat="43.51857" lon="3.06993">
        <ele>391.5</ele>
        <time>2015-11-29T08:34:05Z</time>
      </trkpt>
      <trkpt lat="43.51855" lon="3.06993">
        <ele>391.5</ele>
        <time>2015-11-29T08:34:06Z</time>
      </trkpt>
      <trkpt lat="43.51852" lon="3.06992">
        <ele>392</ele>
        <time>2015-11-29T08:34:07Z</time>
      </trkpt>
      <trkpt lat="43.5185" lon="3.06992">
        <ele>392</ele>
        <time>2015-11-29T08:34:08Z</time>
      </trkpt>
      <trkpt lat="43.51848" lon="3.06992">
        <ele>391</ele>
        <time>2015-11-29T08:34:09Z</time>
      </trkpt>
      <trkpt lat="43.51845" lon="3.06991">
        <ele>391.5</ele>
        <time>2015-11-29T08:34:10Z</time>
      </trkpt>
      <trkpt lat="43.51842" lon="3.06991">
        <ele>391.5</ele>
        <time>2015-11-29T08:34:11Z</time>
      </trkpt>
      <trkpt lat="43.5184" lon="3.0699">
        <ele>391.5</ele>
        <time>2015-11-29T08:34:12Z</time>
      </trkpt>
      <trkpt lat="43.51838" lon="3.0699">
        <ele>391.5</ele>
        <time>2015-11-29T08:34:13Z</time>
      </trkpt>
      <trkpt lat="43.51835" lon="3.06989">
        <ele>391.5</ele>
        <time>2015-11-29T08:34:14Z</time>
      </trkpt>
      <trkpt lat="43.51832" lon="3.06989">
        <ele>391</ele>
        <time>2015-11-29T08:34:15Z</time>
      </trkpt>
      <trkpt lat="43.5183" lon="3.06989">
        <ele>391</ele>
        <time>2015-11-29T08:34:16Z</time>
      </trkpt>
      <trkpt lat="43.51827" lon="3.06988">
        <ele>390.5</ele>
        <time>2015-11-29T08:34:17Z</time>
      </trkpt>
      <trkpt lat="43.51824" lon="3.06989">
        <ele>390.5</ele>
        <time>2015-11-29T08:34:18Z</time>
      </trkpt>
      <trkpt lat="43.51822" lon="3.06989">
        <ele>390.5</ele>
        <time>2015-11-29T08:34:19Z</time>
      </trkpt>
      <trkpt lat="43.51819" lon="3.06989">
        <ele>390</ele>
        <time>2015-11-29T08:34:20Z</time>
      </trkpt>
      <trkpt lat="43.51816" lon="3.06989">
        <ele>390</ele>
        <time>2015-11-29T08:34:21Z</time>
      </trkpt>
      <trkpt lat="43.51813" lon="3.0699">
        <ele>390</ele>
        <time>2015-11-29T08:34:23Z</time>
      </trkpt>
      <trkpt lat="43.5181" lon="3.06991">
        <ele>391</ele>
        <time>2015-11-29T08:34:23Z</time>
      </trkpt>
      <trkpt lat="43.51808" lon="3.06991">
        <ele>390.5</ele>
        <time>2015-11-29T08:34:24Z</time>
      </trkpt>
      <trkpt lat="43.51805" lon="3.06992">
        <ele>391</ele>
        <time>2015-11-29T08:34:25Z</time>
      </trkpt>
      <trkpt lat="43.51802" lon="3.06992">
        <ele>391</ele>
        <time>2015-11-29T08:34:26Z</time>
      </trkpt>
      <trkpt lat="43.51799" lon="3.06993">
        <ele>391</ele>
        <time>2015-11-29T08:34:27Z</time>
      </trkpt>
      <trkpt lat="43.51797" lon="3.06993">
        <ele>391</ele>
        <time>2015-11-29T08:34:28Z</time>
      </trkpt>
      <trkpt lat="43.51794" lon="3.06994">
        <ele>392</ele>
        <time>2015-11-29T08:34:29Z</time>
      </trkpt>
      <trkpt lat="43.51791" lon="3.06996">
        <ele>392</ele>
        <time>2015-11-29T08:34:30Z</time>
      </trkpt>
      <trkpt lat="43.51786" lon="3.06998">
        <ele>392.5</ele>
        <time>2015-11-29T08:34:32Z</time>
      </trkpt>
      <trkpt lat="43.51783" lon="3.06999">
        <ele>392.5</ele>
        <time>2015-11-29T08:34:33Z</time>
      </trkpt>
      <trkpt lat="43.5178" lon="3.07">
        <ele>393</ele>
        <time>2015-11-29T08:34:34Z</time>
      </trkpt>
      <trkpt lat="43.51777" lon="3.07001">
        <ele>394.5</ele>
        <time>2015-11-29T08:34:35Z</time>
      </trkpt>
      <trkpt lat="43.51775" lon="3.07003">
        <ele>395.5</ele>
        <time>2015-11-29T08:34:36Z</time>
      </trkpt>
      <trkpt lat="43.51772" lon="3.07004">
        <ele>396</ele>
        <time>2015-11-29T08:34:37Z</time>
      </trkpt>
      <trkpt lat="43.51769" lon="3.07005">
        <ele>396.5</ele>
        <time>2015-11-29T08:34:38Z</time>
      </trkpt>
      <trkpt lat="43.51766" lon="3.07006">
        <ele>397</ele>
        <time>2015-11-29T08:34:39Z</time>
      </trkpt>
      <trkpt lat="43.51763" lon="3.07007">
        <ele>397.5</ele>
        <time>2015-11-29T08:34:40Z</time>
      </trkpt>
      <trkpt lat="43.5176" lon="3.07008">
        <ele>398</ele>
        <time>2015-11-29T08:34:41Z</time>
      </trkpt>
      <trkpt lat="43.51757" lon="3.07009">
        <ele>398.5</ele>
        <time>2015-11-29T08:34:42Z</time>
      </trkpt>
      <trkpt lat="43.51754" lon="3.07009">
        <ele>399</ele>
        <time>2015-11-29T08:34:43Z</time>
      </trkpt>
      <trkpt lat="43.51752" lon="3.07009">
        <ele>399</ele>
        <time>2015-11-29T08:34:44Z</time>
      </trkpt>
      <trkpt lat="43.51749" lon="3.07009">
        <ele>399.5</ele>
        <time>2015-11-29T08:34:45Z</time>
      </trkpt>
      <trkpt lat="43.51747" lon="3.07009">
        <ele>399</ele>
        <time>2015-11-29T08:34:46Z</time>
      </trkpt>
      <trkpt lat="43.51745" lon="3.0701">
        <ele>400.5</ele>
        <time>2015-11-29T08:34:47Z</time>
      </trkpt>
      <trkpt lat="43.51742" lon="3.0701">
        <ele>401.5</ele>
        <time>2015-11-29T08:34:48Z</time>
      </trkpt>
      <trkpt lat="43.5174" lon="3.0701">
        <ele>401.5</ele>
        <time>2015-11-29T08:34:49Z</time>
      </trkpt>
      <trkpt lat="43.51737" lon="3.0701">
        <ele>402</ele>
        <time>2015-11-29T08:34:50Z</time>
      </trkpt>
      <trkpt lat="43.51734" lon="3.07008">
        <ele>401.5</ele>
        <time>2015-11-29T08:34:51Z</time>
      </trkpt>
      <trkpt lat="43.51732" lon="3.07008">
        <ele>402</ele>
        <time>2015-11-29T08:34:52Z</time>
      </trkpt>
      <trkpt lat="43.51729" lon="3.07006">
        <ele>402</ele>
        <time>2015-11-29T08:34:53Z</time>
      </trkpt>
      <trkpt lat="43.51727" lon="3.07005">
        <ele>402</ele>
        <time>2015-11-29T08:34:54Z</time>
      </trkpt>
      <trkpt lat="43.51724" lon="3.07003">
        <ele>401.5</ele>
        <time>2015-11-29T08:34:55Z</time>
      </trkpt>
      <trkpt lat="43.51722" lon="3.07001">
        <ele>401.5</ele>
        <time>2015-11-29T08:34:56Z</time>
      </trkpt>
      <trkpt lat="43.5172" lon="3.07">
        <ele>402</ele>
        <time>2015-11-29T08:34:57Z</time>
      </trkpt>
      <trkpt lat="43.51718" lon="3.06999">
        <ele>402.5</ele>
        <time>2015-11-29T08:34:58Z</time>
      </trkpt>
      <trkpt lat="43.51716" lon="3.06998">
        <ele>403.5</ele>
        <time>2015-11-29T08:34:59Z</time>
      </trkpt>
      <trkpt lat="43.51715" lon="3.06997">
        <ele>403.5</ele>
        <time>2015-11-29T08:35:00Z</time>
      </trkpt>
      <trkpt lat="43.51713" lon="3.06995">
        <ele>404</ele>
        <time>2015-11-29T08:35:01Z</time>
      </trkpt>
      <trkpt lat="43.51711" lon="3.06994">
        <ele>405</ele>
        <time>2015-11-29T08:35:02Z</time>
      </trkpt>
      <trkpt lat="43.51709" lon="3.06991">
        <ele>404.5</ele>
        <time>2015-11-29T08:35:03Z</time>
      </trkpt>
      <trkpt lat="43.51708" lon="3.0699">
        <ele>405</ele>
        <time>2015-11-29T08:35:04Z</time>
      </trkpt>
      <trkpt lat="43.51707" lon="3.06989">
        <ele>405.5</ele>
        <time>2015-11-29T08:35:05Z</time>
      </trkpt>
      <trkpt lat="43.51706" lon="3.06987">
        <ele>405.5</ele>
        <time>2015-11-29T08:35:06Z</time>
      </trkpt>
      <trkpt lat="43.51706" lon="3.06986">
        <ele>405</ele>
        <time>2015-11-29T08:35:07Z</time>
      </trkpt>
      <trkpt lat="43.51705" lon="3.06983">
        <ele>404.5</ele>
        <time>2015-11-29T08:35:08Z</time>
      </trkpt>
      <trkpt lat="43.51704" lon="3.06981">
        <ele>404</ele>
        <time>2015-11-29T08:35:09Z</time>
      </trkpt>
      <trkpt lat="43.51703" lon="3.06979">
        <ele>404</ele>
        <time>2015-11-29T08:35:10Z</time>
      </trkpt>
      <trkpt lat="43.51701" lon="3.06978">
        <ele>404</ele>
        <time>2015-11-29T08:35:11Z</time>
      </trkpt>
      <trkpt lat="43.517" lon="3.06976">
        <ele>404</ele>
        <time>2015-11-29T08:35:12Z</time>
      </trkpt>
      <trkpt lat="43.517" lon="3.06974">
        <ele>404</ele>
        <time>2015-11-29T08:35:13Z</time>
      </trkpt>
      <trkpt lat="43.51699" lon="3.06973">
        <ele>403.5</ele>
        <time>2015-11-29T08:35:14Z</time>
      </trkpt>
      <trkpt lat="43.51699" lon="3.06973">
        <ele>403.5</ele>
        <time>2015-11-29T08:35:15Z</time>
      </trkpt>
      <trkpt lat="43.51698" lon="3.06971">
        <ele>402</ele>
        <time>2015-11-29T08:35:16Z</time>
      </trkpt>
      <trkpt lat="43.51697" lon="3.06969">
        <ele>400.5</ele>
        <time>2015-11-29T08:35:17Z</time>
      </trkpt>
      <trkpt lat="43.51697" lon="3.06967">
        <ele>400.5</ele>
        <time>2015-11-29T08:35:18Z</time>
      </trkpt>
      <trkpt lat="43.51696" lon="3.06965">
        <ele>399</ele>
        <time>2015-11-29T08:35:19Z</time>
      </trkpt>
      <trkpt lat="43.51695" lon="3.06964">
        <ele>398.5</ele>
        <time>2015-11-29T08:35:20Z</time>
      </trkpt>
      <trkpt lat="43.51695" lon="3.06962">
        <ele>398.5</ele>
        <time>2015-11-29T08:35:21Z</time>
      </trkpt>
      <trkpt lat="43.51694" lon="3.0696">
        <ele>397.5</ele>
        <time>2015-11-29T08:35:22Z</time>
      </trkpt>
      <trkpt lat="43.51695" lon="3.06959">
        <ele>397</ele>
        <time>2015-11-29T08:35:23Z</time>
      </trkpt>
      <trkpt lat="43.51695" lon="3.06958">
        <ele>396.5</ele>
        <time>2015-11-29T08:35:24Z</time>
      </trkpt>
      <trkpt lat="43.51696" lon="3.06957">
        <ele>396</ele>
        <time>2015-11-29T08:35:25Z</time>
      </trkpt>
      <trkpt lat="43.51696" lon="3.06956">
        <ele>395.5</ele>
        <time>2015-11-29T08:35:26Z</time>
      </trkpt>
      <trkpt lat="43.51697" lon="3.06956">
        <ele>394.5</ele>
        <time>2015-11-29T08:35:27Z</time>
      </trkpt>
      <trkpt lat="43.51697" lon="3.06956">
        <ele>393.5</ele>
        <time>2015-11-29T08:35:28Z</time>
      </trkpt>
      <trkpt lat="43.51698" lon="3.06956">
        <ele>393.5</ele>
        <time>2015-11-29T08:35:29Z</time>
      </trkpt>
      <trkpt lat="43.51698" lon="3.06956">
        <ele>393</ele>
        <time>2015-11-29T08:35:30Z</time>
      </trkpt>
      <trkpt lat="43.51697" lon="3.06952">
        <ele>394</ele>
        <time>2015-11-29T08:35:41Z</time>
      </trkpt>
      <trkpt lat="43.51696" lon="3.06947">
        <ele>396</ele>
        <time>2015-11-29T08:35:51Z</time>
      </trkpt>
      <trkpt lat="43.51695" lon="3.06947">
        <ele>395.5</ele>
        <time>2015-11-29T08:35:53Z</time>
      </trkpt>
      <trkpt lat="43.51696" lon="3.06946">
        <ele>394.5</ele>
        <time>2015-11-29T08:36:01Z</time>
      </trkpt>
      <trkpt lat="43.51695" lon="3.06948">
        <ele>392.5</ele>
        <time>2015-11-29T08:36:10Z</time>
      </trkpt>
      <trkpt lat="43.51694" lon="3.06949">
        <ele>393.5</ele>
        <time>2015-11-29T08:36:14Z</time>
      </trkpt>
      <trkpt lat="43.51693" lon="3.06951">
        <ele>394</ele>
        <time>2015-11-29T08:36:19Z</time>
      </trkpt>
      <trkpt lat="43.51693" lon="3.06951">
        <ele>395.5</ele>
        <time>2015-11-29T08:36:31Z</time>
      </trkpt>
      <trkpt lat="43.51693" lon="3.06952">
        <ele>396</ele>
        <time>2015-11-29T08:36:33Z</time>
      </trkpt>
      <trkpt lat="43.51693" lon="3.06952">
        <ele>396</ele>
        <time>2015-11-29T08:36:34Z</time>
      </trkpt>
      <trkpt lat="43.51693" lon="3.06953">
        <ele>396.5</ele>
        <time>2015-11-29T08:36:35Z</time>
      </trkpt>
      <trkpt lat="43.51691" lon="3.06955">
        <ele>397</ele>
        <time>2015-11-29T08:36:38Z</time>
      </trkpt>
      <trkpt lat="43.51692" lon="3.06954">
        <ele>398.5</ele>
        <time>2015-11-29T08:36:39Z</time>
      </trkpt>
      <trkpt lat="43.5169" lon="3.06954">
        <ele>396.5</ele>
        <time>2015-11-29T08:40:00Z</time>
      </trkpt>
      <trkpt lat="43.51691" lon="3.06956">
        <ele>398</ele>
        <time>2015-11-29T08:40:02Z</time>
      </trkpt>
      <trkpt lat="43.51691" lon="3.06956">
        <ele>398</ele>
        <time>2015-11-29T08:40:03Z</time>
      </trkpt>
      <trkpt lat="43.51692" lon="3.06958">
        <ele>398</ele>
        <time>2015-11-29T08:40:04Z</time>
      </trkpt>
      <trkpt lat="43.51693" lon="3.06959">
        <ele>398.5</ele>
        <time>2015-11-29T08:40:05Z</time>
      </trkpt>
      <trkpt lat="43.51694" lon="3.0696">
        <ele>399</ele>
        <time>2015-11-29T08:40:06Z</time>
      </trkpt>
      <trkpt lat="43.51695" lon="3.06962">
        <ele>399</ele>
        <time>2015-11-29T08:40:07Z</time>
      </trkpt>
      <trkpt lat="43.51696" lon="3.06964">
        <ele>399.5</ele>
        <time>2015-11-29T08:40:08Z</time>
      </trkpt>
      <trkpt lat="43.51697" lon="3.06966">
        <ele>399.5</ele>
        <time>2015-11-29T08:40:09Z</time>
      </trkpt>
      <trkpt lat="43.51698" lon="3.06968">
        <ele>399.5</ele>
        <time>2015-11-29T08:40:10Z</time>
      </trkpt>
      <trkpt lat="43.51699" lon="3.0697">
        <ele>399.5</ele>
        <time>2015-11-29T08:40:11Z</time>
      </trkpt>
      <trkpt lat="43.51701" lon="3.06971">
        <ele>399.5</ele>
        <time>2015-11-29T08:40:12Z</time>
      </trkpt>
      <trkpt lat="43.51703" lon="3.06972">
        <ele>399</ele>
        <time>2015-11-29T08:40:13Z</time>
      </trkpt>
      <trkpt lat="43.51704" lon="3.06974">
        <ele>399</ele>
        <time>2015-11-29T08:40:14Z</time>
      </trkpt>
      <trkpt lat="43.51705" lon="3.06975">
        <ele>399</ele>
        <time>2015-11-29T08:40:15Z</time>
      </trkpt>
      <trkpt lat="43.51707" lon="3.06976">
        <ele>400</ele>
        <time>2015-11-29T08:40:16Z</time>
      </trkpt>
      <trkpt lat="43.51709" lon="3.06976">
        <ele>400.5</ele>
        <time>2015-11-29T08:40:17Z</time>
      </trkpt>
      <trkpt lat="43.51711" lon="3.06977">
        <ele>400.5</ele>
        <time>2015-11-29T08:40:18Z</time>
      </trkpt>
      <trkpt lat="43.51713" lon="3.06977">
        <ele>402</ele>
        <time>2015-11-29T08:40:19Z</time>
      </trkpt>
      <trkpt lat="43.51715" lon="3.06978">
        <ele>402.5</ele>
        <time>2015-11-29T08:40:20Z</time>
      </trkpt>
      <trkpt lat="43.51717" lon="3.06978">
        <ele>402.5</ele>
        <time>2015-11-29T08:40:21Z</time>
      </trkpt>
      <trkpt lat="43.51719" lon="3.06978">
        <ele>403</ele>
        <time>2015-11-29T08:40:22Z</time>
      </trkpt>
      <trkpt lat="43.51722" lon="3.06978">
        <ele>402.5</ele>
        <time>2015-11-29T08:40:23Z</time>
      </trkpt>
      <trkpt lat="43.51724" lon="3.06978">
        <ele>402.5</ele>
        <time>2015-11-29T08:40:24Z</time>
      </trkpt>
      <trkpt lat="43.51725" lon="3.06977">
        <ele>403.5</ele>
        <time>2015-11-29T08:40:25Z</time>
      </trkpt>
      <trkpt lat="43.51727" lon="3.06977">
        <ele>404</ele>
        <time>2015-11-29T08:40:26Z</time>
      </trkpt>
      <trkpt lat="43.51729" lon="3.06975">
        <ele>404</ele>
        <time>2015-11-29T08:40:27Z</time>
      </trkpt>
      <trkpt lat="43.51731" lon="3.06976">
        <ele>403</ele>
        <time>2015-11-29T08:40:28Z</time>
      </trkpt>
      <trkpt lat="43.51733" lon="3.06975">
        <ele>403</ele>
        <time>2015-11-29T08:40:29Z</time>
      </trkpt>
      <trkpt lat="43.51735" lon="3.06974">
        <ele>403.5</ele>
        <time>2015-11-29T08:40:30Z</time>
      </trkpt>
      <trkpt lat="43.51737" lon="3.06973">
        <ele>405</ele>
        <time>2015-11-29T08:40:31Z</time>
      </trkpt>
      <trkpt lat="43.5174" lon="3.06973">
        <ele>405</ele>
        <time>2015-11-29T08:40:32Z</time>
      </trkpt>
      <trkpt lat="43.51742" lon="3.06972">
        <ele>405.5</ele>
        <time>2015-11-29T08:40:33Z</time>
      </trkpt>
      <trkpt lat="43.51744" lon="3.0697">
        <ele>405.5</ele>
        <time>2015-11-29T08:40:34Z</time>
      </trkpt>
      <trkpt lat="43.51745" lon="3.06968">
        <ele>408</ele>
        <time>2015-11-29T08:40:35Z</time>
      </trkpt>
      <trkpt lat="43.51749" lon="3.06966">
        <ele>406.5</ele>
        <time>2015-11-29T08:40:36Z</time>
      </trkpt>
      <trkpt lat="43.51753" lon="3.06963">
        <ele>408.5</ele>
        <time>2015-11-29T08:40:38Z</time>
      </trkpt>
      <trkpt lat="43.51754" lon="3.06961">
        <ele>410.5</ele>
        <time>2015-11-29T08:40:39Z</time>
      </trkpt>
      <trkpt lat="43.51756" lon="3.0696">
        <ele>410</ele>
        <time>2015-11-29T08:40:40Z</time>
      </trkpt>
      <trkpt lat="43.51758" lon="3.06959">
        <ele>410</ele>
        <time>2015-11-29T08:40:41Z</time>
      </trkpt>
      <trkpt lat="43.5176" lon="3.06958">
        <ele>410.5</ele>
        <time>2015-11-29T08:40:42Z</time>
      </trkpt>
      <trkpt lat="43.51762" lon="3.06956">
        <ele>411</ele>
        <time>2015-11-29T08:40:44Z</time>
      </trkpt>
      <trkpt lat="43.51764" lon="3.06954">
        <ele>411.5</ele>
        <time>2015-11-29T08:40:44Z</time>
      </trkpt>
      <trkpt lat="43.51767" lon="3.06953">
        <ele>411</ele>
        <time>2015-11-29T08:40:45Z</time>
      </trkpt>
      <trkpt lat="43.51769" lon="3.06952">
        <ele>411.5</ele>
        <time>2015-11-29T08:40:46Z</time>
      </trkpt>
      <trkpt lat="43.51772" lon="3.0695">
        <ele>409.5</ele>
        <time>2015-11-29T08:40:47Z</time>
      </trkpt>
      <trkpt lat="43.51775" lon="3.06949">
        <ele>409.5</ele>
        <time>2015-11-29T08:40:48Z</time>
      </trkpt>
      <trkpt lat="43.51777" lon="3.06948">
        <ele>409</ele>
        <time>2015-11-29T08:40:49Z</time>
      </trkpt>
      <trkpt lat="43.51778" lon="3.06947">
        <ele>409</ele>
        <time>2015-11-29T08:40:50Z</time>
      </trkpt>
      <trkpt lat="43.51781" lon="3.06946">
        <ele>409</ele>
        <time>2015-11-29T08:40:51Z</time>
      </trkpt>
      <trkpt lat="43.51783" lon="3.06944">
        <ele>407.5</ele>
        <time>2015-11-29T08:40:52Z</time>
      </trkpt>
      <trkpt lat="43.51785" lon="3.06943">
        <ele>408.5</ele>
        <time>2015-11-29T08:40:53Z</time>
      </trkpt>
      <trkpt lat="43.51787" lon="3.06942">
        <ele>408.5</ele>
        <time>2015-11-29T08:40:54Z</time>
      </trkpt>
      <trkpt lat="43.51788" lon="3.06942">
        <ele>408.5</ele>
        <time>2015-11-29T08:40:55Z</time>
      </trkpt>
      <trkpt lat="43.51789" lon="3.06942">
        <ele>409.5</ele>
        <time>2015-11-29T08:40:56Z</time>
      </trkpt>
      <trkpt lat="43.5179" lon="3.06942">
        <ele>409.5</ele>
        <time>2015-11-29T08:40:57Z</time>
      </trkpt>
      <trkpt lat="43.5179" lon="3.06942">
        <ele>408.5</ele>
        <time>2015-11-29T08:40:58Z</time>
      </trkpt>
      <trkpt lat="43.51791" lon="3.06942">
        <ele>408.5</ele>
        <time>2015-11-29T08:40:59Z</time>
      </trkpt>
      <trkpt lat="43.51791" lon="3.06941">
        <ele>409</ele>
        <time>2015-11-29T08:41:03Z</time>
      </trkpt>
      <trkpt lat="43.51791" lon="3.0694">
        <ele>408.5</ele>
        <time>2015-11-29T08:41:05Z</time>
      </trkpt>
      <trkpt lat="43.51793" lon="3.0694">
        <ele>408</ele>
        <time>2015-11-29T08:41:06Z</time>
      </trkpt>
      <trkpt lat="43.51795" lon="3.0694">
        <ele>404.5</ele>
        <time>2015-11-29T08:41:07Z</time>
      </trkpt>
      <trkpt lat="43.51796" lon="3.0694">
        <ele>402</ele>
        <time>2015-11-29T08:41:08Z</time>
      </trkpt>
      <trkpt lat="43.51797" lon="3.0694">
        <ele>402</ele>
        <time>2015-11-29T08:41:09Z</time>
      </trkpt>
      <trkpt lat="43.51798" lon="3.0694">
        <ele>402.5</ele>
        <time>2015-11-29T08:41:10Z</time>
      </trkpt>
      <trkpt lat="43.518" lon="3.06939">
        <ele>402.5</ele>
        <time>2015-11-29T08:41:11Z</time>
      </trkpt>
      <trkpt lat="43.51802" lon="3.06939">
        <ele>403.5</ele>
        <time>2015-11-29T08:41:12Z</time>
      </trkpt>
      <trkpt lat="43.51804" lon="3.06938">
        <ele>404</ele>
        <time>2015-11-29T08:41:13Z</time>
      </trkpt>
      <trkpt lat="43.51806" lon="3.06937">
        <ele>403</ele>
        <time>2015-11-29T08:41:14Z</time>
      </trkpt>
      <trkpt lat="43.51807" lon="3.06936">
        <ele>402</ele>
        <time>2015-11-29T08:41:15Z</time>
      </trkpt>
      <trkpt lat="43.51809" lon="3.06935">
        <ele>402</ele>
        <time>2015-11-29T08:41:16Z</time>
      </trkpt>
      <trkpt lat="43.5181" lon="3.06935">
        <ele>401.5</ele>
        <time>2015-11-29T08:41:17Z</time>
      </trkpt>
      <trkpt lat="43.51809" lon="3.06932">
        <ele>402</ele>
        <time>2015-11-29T08:41:18Z</time>
      </trkpt>
      <trkpt lat="43.51812" lon="3.06932">
        <ele>402.5</ele>
        <time>2015-11-29T08:41:19Z</time>
      </trkpt>
      <trkpt lat="43.51812" lon="3.06929">
        <ele>403</ele>
        <time>2015-11-29T08:41:20Z</time>
      </trkpt>
      <trkpt lat="43.51813" lon="3.06928">
        <ele>403.5</ele>
        <time>2015-11-29T08:41:21Z</time>
      </trkpt>
      <trkpt lat="43.51814" lon="3.06926">
        <ele>405</ele>
        <time>2015-11-29T08:41:22Z</time>
      </trkpt>
      <trkpt lat="43.51816" lon="3.06926">
        <ele>406</ele>
        <time>2015-11-29T08:41:23Z</time>
      </trkpt>
      <trkpt lat="43.51818" lon="3.06925">
        <ele>407</ele>
        <time>2015-11-29T08:41:24Z</time>
      </trkpt>
      <trkpt lat="43.5182" lon="3.06924">
        <ele>407.5</ele>
        <time>2015-11-29T08:41:25Z</time>
      </trkpt>
      <trkpt lat="43.51822" lon="3.06924">
        <ele>407.5</ele>
        <time>2015-11-29T08:41:26Z</time>
      </trkpt>
      <trkpt lat="43.51824" lon="3.06923">
        <ele>408.5</ele>
        <time>2015-11-29T08:41:27Z</time>
      </trkpt>
      <trkpt lat="43.51825" lon="3.06923">
        <ele>408</ele>
        <time>2015-11-29T08:41:28Z</time>
      </trkpt>
      <trkpt lat="43.51827" lon="3.06923">
        <ele>408.5</ele>
        <time>2015-11-29T08:41:29Z</time>
      </trkpt>
      <trkpt lat="43.51829" lon="3.06922">
        <ele>408.5</ele>
        <time>2015-11-29T08:41:30Z</time>
      </trkpt>
      <trkpt lat="43.51831" lon="3.06921">
        <ele>409</ele>
        <time>2015-11-29T08:41:31Z</time>
      </trkpt>
      <trkpt lat="43.51833" lon="3.06921">
        <ele>410</ele>
        <time>2015-11-29T08:41:32Z</time>
      </trkpt>
      <trkpt lat="43.51836" lon="3.0692">
        <ele>410.5</ele>
        <time>2015-11-29T08:41:33Z</time>
      </trkpt>
      <trkpt lat="43.51838" lon="3.0692">
        <ele>411.5</ele>
        <time>2015-11-29T08:41:34Z</time>
      </trkpt>
      <trkpt lat="43.51841" lon="3.0692">
        <ele>413.5</ele>
        <time>2015-11-29T08:41:35Z</time>
      </trkpt>
      <trkpt lat="43.51842" lon="3.06918">
        <ele>415</ele>
        <time>2015-11-29T08:41:36Z</time>
      </trkpt>
      <trkpt lat="43.51845" lon="3.06917">
        <ele>415.5</ele>
        <time>2015-11-29T08:41:37Z</time>
      </trkpt>
      <trkpt lat="43.51847" lon="3.06916">
        <ele>416</ele>
        <time>2015-11-29T08:41:38Z</time>
      </trkpt>
      <trkpt lat="43.51849" lon="3.06916">
        <ele>416.5</ele>
        <time>2015-11-29T08:41:39Z</time>
      </trkpt>
      <trkpt lat="43.51852" lon="3.06915">
        <ele>417</ele>
        <time>2015-11-29T08:41:40Z</time>
      </trkpt>
      <trkpt lat="43.51854" lon="3.06914">
        <ele>417</ele>
        <time>2015-11-29T08:41:41Z</time>
      </trkpt>
      <trkpt lat="43.51857" lon="3.06913">
        <ele>418</ele>
        <time>2015-11-29T08:41:42Z</time>
      </trkpt>
      <trkpt lat="43.51859" lon="3.06913">
        <ele>417.5</ele>
        <time>2015-11-29T08:41:43Z</time>
      </trkpt>
      <trkpt lat="43.51866" lon="3.06912">
        <ele>417.5</ele>
        <time>2015-11-29T08:41:45Z</time>
      </trkpt>
      <trkpt lat="43.51868" lon="3.06912">
        <ele>417.5</ele>
        <time>2015-11-29T08:41:46Z</time>
      </trkpt>
      <trkpt lat="43.51871" lon="3.06911">
        <ele>417.5</ele>
        <time>2015-11-29T08:41:47Z</time>
      </trkpt>
      <trkpt lat="43.51873" lon="3.0691">
        <ele>417</ele>
        <time>2015-11-29T08:41:48Z</time>
      </trkpt>
      <trkpt lat="43.51874" lon="3.06908">
        <ele>418</ele>
        <time>2015-11-29T08:41:49Z</time>
      </trkpt>
      <trkpt lat="43.51876" lon="3.06907">
        <ele>418.5</ele>
        <time>2015-11-29T08:41:50Z</time>
      </trkpt>
      <trkpt lat="43.51878" lon="3.06905">
        <ele>419.5</ele>
        <time>2015-11-29T08:41:51Z</time>
      </trkpt>
      <trkpt lat="43.51881" lon="3.06905">
        <ele>419.5</ele>
        <time>2015-11-29T08:41:52Z</time>
      </trkpt>
      <trkpt lat="43.51883" lon="3.06904">
        <ele>419</ele>
        <time>2015-11-29T08:41:53Z</time>
      </trkpt>
      <trkpt lat="43.51885" lon="3.06902">
        <ele>419.5</ele>
        <time>2015-11-29T08:41:54Z</time>
      </trkpt>
      <trkpt lat="43.51886" lon="3.069">
        <ele>419.5</ele>
        <time>2015-11-29T08:41:55Z</time>
      </trkpt>
      <trkpt lat="43.51888" lon="3.06899">
        <ele>419.5</ele>
        <time>2015-11-29T08:41:56Z</time>
      </trkpt>
      <trkpt lat="43.5189" lon="3.06898">
        <ele>419</ele>
        <time>2015-11-29T08:41:57Z</time>
      </trkpt>
      <trkpt lat="43.51893" lon="3.06897">
        <ele>419</ele>
        <time>2015-11-29T08:41:58Z</time>
      </trkpt>
      <trkpt lat="43.51895" lon="3.06896">
        <ele>418.5</ele>
        <time>2015-11-29T08:41:59Z</time>
      </trkpt>
      <trkpt lat="43.51896" lon="3.06896">
        <ele>420.5</ele>
        <time>2015-11-29T08:42:00Z</time>
      </trkpt>
      <trkpt lat="43.51897" lon="3.06895">
        <ele>421</ele>
        <time>2015-11-29T08:42:01Z</time>
      </trkpt>
      <trkpt lat="43.51899" lon="3.06894">
        <ele>422</ele>
        <time>2015-11-29T08:42:02Z</time>
      </trkpt>
      <trkpt lat="43.51901" lon="3.06893">
        <ele>422.5</ele>
        <time>2015-11-29T08:42:03Z</time>
      </trkpt>
      <trkpt lat="43.51902" lon="3.06891">
        <ele>423</ele>
        <time>2015-11-29T08:42:04Z</time>
      </trkpt>
      <trkpt lat="43.51904" lon="3.06889">
        <ele>423</ele>
        <time>2015-11-29T08:42:05Z</time>
      </trkpt>
      <trkpt lat="43.51905" lon="3.06888">
        <ele>422.5</ele>
        <time>2015-11-29T08:42:06Z</time>
      </trkpt>
      <trkpt lat="43.51907" lon="3.06886">
        <ele>423</ele>
        <time>2015-11-29T08:42:07Z</time>
      </trkpt>
      <trkpt lat="43.51909" lon="3.06884">
        <ele>423</ele>
        <time>2015-11-29T08:42:08Z</time>
      </trkpt>
      <trkpt lat="43.51911" lon="3.06883">
        <ele>422.5</ele>
        <time>2015-11-29T08:42:09Z</time>
      </trkpt>
      <trkpt lat="43.51912" lon="3.06882">
        <ele>423</ele>
        <time>2015-11-29T08:42:10Z</time>
      </trkpt>
      <trkpt lat="43.51914" lon="3.0688">
        <ele>423.5</ele>
        <time>2015-11-29T08:42:11Z</time>
      </trkpt>
      <trkpt lat="43.51916" lon="3.06879">
        <ele>424</ele>
        <time>2015-11-29T08:42:12Z</time>
      </trkpt>
      <trkpt lat="43.51917" lon="3.06877">
        <ele>424.5</ele>
        <time>2015-11-29T08:42:13Z</time>
      </trkpt>
      <trkpt lat="43.51918" lon="3.06875">
        <ele>426</ele>
        <time>2015-11-29T08:42:14Z</time>
      </trkpt>
      <trkpt lat="43.5192" lon="3.06873">
        <ele>425.5</ele>
        <time>2015-11-29T08:42:15Z</time>
      </trkpt>
      <trkpt lat="43.51921" lon="3.06871">
        <ele>426</ele>
        <time>2015-11-29T08:42:16Z</time>
      </trkpt>
      <trkpt lat="43.51923" lon="3.0687">
        <ele>426</ele>
        <time>2015-11-29T08:42:17Z</time>
      </trkpt>
      <trkpt lat="43.51924" lon="3.06868">
        <ele>425.5</ele>
        <time>2015-11-29T08:42:18Z</time>
      </trkpt>
      <trkpt lat="43.51926" lon="3.06866">
        <ele>425.5</ele>
        <time>2015-11-29T08:42:19Z</time>
      </trkpt>
      <trkpt lat="43.51927" lon="3.06864">
        <ele>425</ele>
        <time>2015-11-29T08:42:20Z</time>
      </trkpt>
      <trkpt lat="43.51929" lon="3.06863">
        <ele>426</ele>
        <time>2015-11-29T08:42:21Z</time>
      </trkpt>
      <trkpt lat="43.5193" lon="3.06861">
        <ele>427</ele>
        <time>2015-11-29T08:42:22Z</time>
      </trkpt>
      <trkpt lat="43.51932" lon="3.06859">
        <ele>427</ele>
        <time>2015-11-29T08:42:23Z</time>
      </trkpt>
      <trkpt lat="43.51933" lon="3.06858">
        <ele>427.5</ele>
        <time>2015-11-29T08:42:24Z</time>
      </trkpt>
      <trkpt lat="43.51934" lon="3.06857">
        <ele>428</ele>
        <time>2015-11-29T08:42:25Z</time>
      </trkpt>
      <trkpt lat="43.51936" lon="3.06855">
        <ele>429</ele>
        <time>2015-11-29T08:42:26Z</time>
      </trkpt>
      <trkpt lat="43.51937" lon="3.06854">
        <ele>429</ele>
        <time>2015-11-29T08:42:27Z</time>
      </trkpt>
      <trkpt lat="43.51939" lon="3.06852">
        <ele>429.5</ele>
        <time>2015-11-29T08:42:28Z</time>
      </trkpt>
      <trkpt lat="43.5194" lon="3.0685">
        <ele>430</ele>
        <time>2015-11-29T08:42:29Z</time>
      </trkpt>
      <trkpt lat="43.51941" lon="3.06847">
        <ele>431</ele>
        <time>2015-11-29T08:42:30Z</time>
      </trkpt>
      <trkpt lat="43.51943" lon="3.06845">
        <ele>430.5</ele>
        <time>2015-11-29T08:42:31Z</time>
      </trkpt>
      <trkpt lat="43.51944" lon="3.06843">
        <ele>430.5</ele>
        <time>2015-11-29T08:42:32Z</time>
      </trkpt>
      <trkpt lat="43.51945" lon="3.06842">
        <ele>430.5</ele>
        <time>2015-11-29T08:42:33Z</time>
      </trkpt>
      <trkpt lat="43.51947" lon="3.0684">
        <ele>430.5</ele>
        <time>2015-11-29T08:42:34Z</time>
      </trkpt>
      <trkpt lat="43.51948" lon="3.06838">
        <ele>429.5</ele>
        <time>2015-11-29T08:42:35Z</time>
      </trkpt>
      <trkpt lat="43.5195" lon="3.06836">
        <ele>429.5</ele>
        <time>2015-11-29T08:42:36Z</time>
      </trkpt>
      <trkpt lat="43.51951" lon="3.06835">
        <ele>430.5</ele>
        <time>2015-11-29T08:42:37Z</time>
      </trkpt>
      <trkpt lat="43.51953" lon="3.06834">
        <ele>430.5</ele>
        <time>2015-11-29T08:42:38Z</time>
      </trkpt>
      <trkpt lat="43.51955" lon="3.06833">
        <ele>430.5</ele>
        <time>2015-11-29T08:42:39Z</time>
      </trkpt>
      <trkpt lat="43.51956" lon="3.06832">
        <ele>430.5</ele>
        <time>2015-11-29T08:42:40Z</time>
      </trkpt>
      <trkpt lat="43.51958" lon="3.06831">
        <ele>430</ele>
        <time>2015-11-29T08:42:41Z</time>
      </trkpt>
      <trkpt lat="43.5196" lon="3.0683">
        <ele>430</ele>
        <time>2015-11-29T08:42:42Z</time>
      </trkpt>
      <trkpt lat="43.51961" lon="3.06829">
        <ele>430</ele>
        <time>2015-11-29T08:42:43Z</time>
      </trkpt>
      <trkpt lat="43.51963" lon="3.06828">
        <ele>430.5</ele>
        <time>2015-11-29T08:42:44Z</time>
      </trkpt>
      <trkpt lat="43.51965" lon="3.06828">
        <ele>430.5</ele>
        <time>2015-11-29T08:42:45Z</time>
      </trkpt>
      <trkpt lat="43.51968" lon="3.06828">
        <ele>430</ele>
        <time>2015-11-29T08:42:46Z</time>
      </trkpt>
      <trkpt lat="43.5197" lon="3.06829">
        <ele>430.5</ele>
        <time>2015-11-29T08:42:47Z</time>
      </trkpt>
      <trkpt lat="43.51973" lon="3.06831">
        <ele>430.5</ele>
        <time>2015-11-29T08:42:48Z</time>
      </trkpt>
      <trkpt lat="43.51974" lon="3.06832">
        <ele>430.5</ele>
        <time>2015-11-29T08:42:49Z</time>
      </trkpt>
      <trkpt lat="43.51976" lon="3.06833">
        <ele>430.5</ele>
        <time>2015-11-29T08:42:50Z</time>
      </trkpt>
      <trkpt lat="43.51978" lon="3.06835">
        <ele>430.5</ele>
        <time>2015-11-29T08:42:51Z</time>
      </trkpt>
      <trkpt lat="43.5198" lon="3.06836">
        <ele>430.5</ele>
        <time>2015-11-29T08:42:52Z</time>
      </trkpt>
      <trkpt lat="43.51981" lon="3.06838">
        <ele>430.5</ele>
        <time>2015-11-29T08:42:53Z</time>
      </trkpt>
      <trkpt lat="43.51983" lon="3.0684">
        <ele>430.5</ele>
        <time>2015-11-29T08:42:54Z</time>
      </trkpt>
      <trkpt lat="43.51985" lon="3.06842">
        <ele>430.5</ele>
        <time>2015-11-29T08:42:55Z</time>
      </trkpt>
      <trkpt lat="43.51986" lon="3.06844">
        <ele>430.5</ele>
        <time>2015-11-29T08:42:56Z</time>
      </trkpt>
      <trkpt lat="43.51988" lon="3.06845">
        <ele>430</ele>
        <time>2015-11-29T08:42:57Z</time>
      </trkpt>
      <trkpt lat="43.51989" lon="3.06847">
        <ele>430</ele>
        <time>2015-11-29T08:42:58Z</time>
      </trkpt>
      <trkpt lat="43.51992" lon="3.06849">
        <ele>430.5</ele>
        <time>2015-11-29T08:42:59Z</time>
      </trkpt>
      <trkpt lat="43.51994" lon="3.0685">
        <ele>430.5</ele>
        <time>2015-11-29T08:43:00Z</time>
      </trkpt>
      <trkpt lat="43.51996" lon="3.06851">
        <ele>432.5</ele>
        <time>2015-11-29T08:43:01Z</time>
      </trkpt>
      <trkpt lat="43.51998" lon="3.06852">
        <ele>433</ele>
        <time>2015-11-29T08:43:02Z</time>
      </trkpt>
      <trkpt lat="43.52" lon="3.06853">
        <ele>432</ele>
        <time>2015-11-29T08:43:03Z</time>
      </trkpt>
      <trkpt lat="43.52002" lon="3.06854">
        <ele>432.5</ele>
        <time>2015-11-29T08:43:04Z</time>
      </trkpt>
      <trkpt lat="43.52004" lon="3.06855">
        <ele>431.5</ele>
        <time>2015-11-29T08:43:05Z</time>
      </trkpt>
      <trkpt lat="43.52006" lon="3.06855">
        <ele>431.5</ele>
        <time>2015-11-29T08:43:06Z</time>
      </trkpt>
      <trkpt lat="43.52008" lon="3.06855">
        <ele>432</ele>
        <time>2015-11-29T08:43:07Z</time>
      </trkpt>
      <trkpt lat="43.5201" lon="3.06856">
        <ele>432</ele>
        <time>2015-11-29T08:43:08Z</time>
      </trkpt>
      <trkpt lat="43.52012" lon="3.06856">
        <ele>433</ele>
        <time>2015-11-29T08:43:09Z</time>
      </trkpt>
      <trkpt lat="43.52014" lon="3.06857">
        <ele>434</ele>
        <time>2015-11-29T08:43:10Z</time>
      </trkpt>
      <trkpt lat="43.52016" lon="3.06857">
        <ele>435</ele>
        <time>2015-11-29T08:43:11Z</time>
      </trkpt>
      <trkpt lat="43.52017" lon="3.06857">
        <ele>435</ele>
        <time>2015-11-29T08:43:12Z</time>
      </trkpt>
      <trkpt lat="43.52019" lon="3.06858">
        <ele>435</ele>
        <time>2015-11-29T08:43:13Z</time>
      </trkpt>
      <trkpt lat="43.52021" lon="3.06858">
        <ele>435.5</ele>
        <time>2015-11-29T08:43:14Z</time>
      </trkpt>
      <trkpt lat="43.52023" lon="3.06859">
        <ele>436</ele>
        <time>2015-11-29T08:43:15Z</time>
      </trkpt>
      <trkpt lat="43.52025" lon="3.06859">
        <ele>436.5</ele>
        <time>2015-11-29T08:43:16Z</time>
      </trkpt>
      <trkpt lat="43.52027" lon="3.06859">
        <ele>437.5</ele>
        <time>2015-11-29T08:43:17Z</time>
      </trkpt>
      <trkpt lat="43.52028" lon="3.06859">
        <ele>438</ele>
        <time>2015-11-29T08:43:17Z</time>
      </trkpt>
      <trkpt lat="43.5203" lon="3.06859">
        <ele>438</ele>
        <time>2015-11-29T08:43:18Z</time>
      </trkpt>
      <trkpt lat="43.52032" lon="3.0686">
        <ele>438.5</ele>
        <time>2015-11-29T08:43:19Z</time>
      </trkpt>
      <trkpt lat="43.52034" lon="3.0686">
        <ele>438.5</ele>
        <time>2015-11-29T08:43:20Z</time>
      </trkpt>
      <trkpt lat="43.52036" lon="3.0686">
        <ele>438</ele>
        <time>2015-11-29T08:43:22Z</time>
      </trkpt>
      <trkpt lat="43.52038" lon="3.0686">
        <ele>438</ele>
        <time>2015-11-29T08:43:22Z</time>
      </trkpt>
      <trkpt lat="43.52041" lon="3.0686">
        <ele>438</ele>
        <time>2015-11-29T08:43:23Z</time>
      </trkpt>
      <trkpt lat="43.52042" lon="3.0686">
        <ele>438.5</ele>
        <time>2015-11-29T08:43:24Z</time>
      </trkpt>
      <trkpt lat="43.52045" lon="3.0686">
        <ele>439</ele>
        <time>2015-11-29T08:43:25Z</time>
      </trkpt>
      <trkpt lat="43.52047" lon="3.0686">
        <ele>439.5</ele>
        <time>2015-11-29T08:43:26Z</time>
      </trkpt>
      <trkpt lat="43.52048" lon="3.0686">
        <ele>440</ele>
        <time>2015-11-29T08:43:27Z</time>
      </trkpt>
      <trkpt lat="43.5205" lon="3.0686">
        <ele>440.5</ele>
        <time>2015-11-29T08:43:28Z</time>
      </trkpt>
      <trkpt lat="43.52052" lon="3.0686">
        <ele>441</ele>
        <time>2015-11-29T08:43:29Z</time>
      </trkpt>
      <trkpt lat="43.52054" lon="3.0686">
        <ele>441.5</ele>
        <time>2015-11-29T08:43:30Z</time>
      </trkpt>
      <trkpt lat="43.52056" lon="3.0686">
        <ele>442.5</ele>
        <time>2015-11-29T08:43:31Z</time>
      </trkpt>
      <trkpt lat="43.52058" lon="3.0686">
        <ele>443.5</ele>
        <time>2015-11-29T08:43:32Z</time>
      </trkpt>
      <trkpt lat="43.5206" lon="3.0686">
        <ele>443.5</ele>
        <time>2015-11-29T08:43:33Z</time>
      </trkpt>
      <trkpt lat="43.52062" lon="3.0686">
        <ele>443.5</ele>
        <time>2015-11-29T08:43:35Z</time>
      </trkpt>
      <trkpt lat="43.52064" lon="3.0686">
        <ele>444</ele>
        <time>2015-11-29T08:43:35Z</time>
      </trkpt>
      <trkpt lat="43.52066" lon="3.0686">
        <ele>444.5</ele>
        <time>2015-11-29T08:43:36Z</time>
      </trkpt>
      <trkpt lat="43.52068" lon="3.0686">
        <ele>445</ele>
        <time>2015-11-29T08:43:37Z</time>
      </trkpt>
      <trkpt lat="43.5207" lon="3.06859">
        <ele>444.5</ele>
        <time>2015-11-29T08:43:38Z</time>
      </trkpt>
      <trkpt lat="43.52072" lon="3.06859">
        <ele>445</ele>
        <time>2015-11-29T08:43:39Z</time>
      </trkpt>
      <trkpt lat="43.52074" lon="3.06859">
        <ele>445.5</ele>
        <time>2015-11-29T08:43:41Z</time>
      </trkpt>
      <trkpt lat="43.52076" lon="3.0686">
        <ele>446</ele>
        <time>2015-11-29T08:43:41Z</time>
      </trkpt>
      <trkpt lat="43.52078" lon="3.06859">
        <ele>447</ele>
        <time>2015-11-29T08:43:42Z</time>
      </trkpt>
      <trkpt lat="43.5208" lon="3.06859">
        <ele>447</ele>
        <time>2015-11-29T08:43:43Z</time>
      </trkpt>
      <trkpt lat="43.52082" lon="3.06859">
        <ele>447.5</ele>
        <time>2015-11-29T08:43:44Z</time>
      </trkpt>
      <trkpt lat="43.52083" lon="3.06859">
        <ele>448</ele>
        <time>2015-11-29T08:43:45Z</time>
      </trkpt>
      <trkpt lat="43.52085" lon="3.06859">
        <ele>449</ele>
        <time>2015-11-29T08:43:46Z</time>
      </trkpt>
      <trkpt lat="43.52087" lon="3.06859">
        <ele>449</ele>
        <time>2015-11-29T08:43:47Z</time>
      </trkpt>
      <trkpt lat="43.52089" lon="3.06859">
        <ele>449.5</ele>
        <time>2015-11-29T08:43:48Z</time>
      </trkpt>
      <trkpt lat="43.52091" lon="3.06859">
        <ele>449.5</ele>
        <time>2015-11-29T08:43:49Z</time>
      </trkpt>
      <trkpt lat="43.52092" lon="3.06859">
        <ele>450</ele>
        <time>2015-11-29T08:43:50Z</time>
      </trkpt>
      <trkpt lat="43.52094" lon="3.06859">
        <ele>450.5</ele>
        <time>2015-11-29T08:43:51Z</time>
      </trkpt>
      <trkpt lat="43.52096" lon="3.06859">
        <ele>451.5</ele>
        <time>2015-11-29T08:43:52Z</time>
      </trkpt>
      <trkpt lat="43.52098" lon="3.06859">
        <ele>451.5</ele>
        <time>2015-11-29T08:43:53Z</time>
      </trkpt>
      <trkpt lat="43.521" lon="3.06859">
        <ele>451.5</ele>
        <time>2015-11-29T08:43:54Z</time>
      </trkpt>
      <trkpt lat="43.52103" lon="3.06859">
        <ele>452</ele>
        <time>2015-11-29T08:43:55Z</time>
      </trkpt>
      <trkpt lat="43.52105" lon="3.06859">
        <ele>451.5</ele>
        <time>2015-11-29T08:43:57Z</time>
      </trkpt>
      <trkpt lat="43.52107" lon="3.06859">
        <ele>451.5</ele>
        <time>2015-11-29T08:43:57Z</time>
      </trkpt>
      <trkpt lat="43.52109" lon="3.0686">
        <ele>451.5</ele>
        <time>2015-11-29T08:43:58Z</time>
      </trkpt>
      <trkpt lat="43.52111" lon="3.0686">
        <ele>452.5</ele>
        <time>2015-11-29T08:43:59Z</time>
      </trkpt>
      <trkpt lat="43.52115" lon="3.06866">
        <ele>449.5</ele>
        <time>2015-11-29T08:44:01Z</time>
      </trkpt>
      <trkpt lat="43.52116" lon="3.06867">
        <ele>449.5</ele>
        <time>2015-11-29T08:44:02Z</time>
      </trkpt>
      <trkpt lat="43.52117" lon="3.06869">
        <ele>450</ele>
        <time>2015-11-29T08:44:03Z</time>
      </trkpt>
      <trkpt lat="43.52116" lon="3.06871">
        <ele>448.5</ele>
        <time>2015-11-29T08:44:04Z</time>
      </trkpt>
      <trkpt lat="43.52115" lon="3.06873">
        <ele>448.5</ele>
        <time>2015-11-29T08:44:05Z</time>
      </trkpt>
      <trkpt lat="43.52114" lon="3.06875">
        <ele>448.5</ele>
        <time>2015-11-29T08:44:06Z</time>
      </trkpt>
      <trkpt lat="43.52114" lon="3.06877">
        <ele>448</ele>
        <time>2015-11-29T08:44:07Z</time>
      </trkpt>
      <trkpt lat="43.52113" lon="3.06879">
        <ele>448.5</ele>
        <time>2015-11-29T08:44:08Z</time>
      </trkpt>
      <trkpt lat="43.52112" lon="3.06881">
        <ele>448.5</ele>
        <time>2015-11-29T08:44:09Z</time>
      </trkpt>
      <trkpt lat="43.52111" lon="3.06883">
        <ele>448.5</ele>
        <time>2015-11-29T08:44:10Z</time>
      </trkpt>
      <trkpt lat="43.52111" lon="3.06885">
        <ele>448</ele>
        <time>2015-11-29T08:44:11Z</time>
      </trkpt>
      <trkpt lat="43.5211" lon="3.06888">
        <ele>448</ele>
        <time>2015-11-29T08:44:12Z</time>
      </trkpt>
      <trkpt lat="43.52109" lon="3.0689">
        <ele>448</ele>
        <time>2015-11-29T08:44:13Z</time>
      </trkpt>
      <trkpt lat="43.52109" lon="3.06893">
        <ele>447.5</ele>
        <time>2015-11-29T08:44:14Z</time>
      </trkpt>
      <trkpt lat="43.52109" lon="3.06896">
        <ele>447.5</ele>
        <time>2015-11-29T08:44:15Z</time>
      </trkpt>
      <trkpt lat="43.52109" lon="3.06899">
        <ele>447.5</ele>
        <time>2015-11-29T08:44:16Z</time>
      </trkpt>
      <trkpt lat="43.52108" lon="3.06901">
        <ele>448</ele>
        <time>2015-11-29T08:44:17Z</time>
      </trkpt>
      <trkpt lat="43.52107" lon="3.06904">
        <ele>447.5</ele>
        <time>2015-11-29T08:44:18Z</time>
      </trkpt>
      <trkpt lat="43.52106" lon="3.06907">
        <ele>448</ele>
        <time>2015-11-29T08:44:19Z</time>
      </trkpt>
      <trkpt lat="43.52105" lon="3.0691">
        <ele>448</ele>
        <time>2015-11-29T08:44:20Z</time>
      </trkpt>
      <trkpt lat="43.52104" lon="3.06913">
        <ele>448.5</ele>
        <time>2015-11-29T08:44:21Z</time>
      </trkpt>
      <trkpt lat="43.52103" lon="3.06916">
        <ele>448</ele>
        <time>2015-11-29T08:44:23Z</time>
      </trkpt>
      <trkpt lat="43.52102" lon="3.06922">
        <ele>447</ele>
        <time>2015-11-29T08:44:24Z</time>
      </trkpt>
      <trkpt lat="43.52102" lon="3.06925">
        <ele>447</ele>
        <time>2015-11-29T08:44:25Z</time>
      </trkpt>
      <trkpt lat="43.52102" lon="3.06928">
        <ele>446.5</ele>
        <time>2015-11-29T08:44:26Z</time>
      </trkpt>
      <trkpt lat="43.52102" lon="3.06931">
        <ele>446</ele>
        <time>2015-11-29T08:44:27Z</time>
      </trkpt>
      <trkpt lat="43.52101" lon="3.06934">
        <ele>445.5</ele>
        <time>2015-11-29T08:44:28Z</time>
      </trkpt>
      <trkpt lat="43.52101" lon="3.06936">
        <ele>445</ele>
        <time>2015-11-29T08:44:29Z</time>
      </trkpt>
      <trkpt lat="43.52101" lon="3.06939">
        <ele>444.5</ele>
        <time>2015-11-29T08:44:30Z</time>
      </trkpt>
      <trkpt lat="43.521" lon="3.06942">
        <ele>443.5</ele>
        <time>2015-11-29T08:44:31Z</time>
      </trkpt>
      <trkpt lat="43.521" lon="3.06945">
        <ele>442.5</ele>
        <time>2015-11-29T08:44:32Z</time>
      </trkpt>
      <trkpt lat="43.52101" lon="3.06949">
        <ele>441.5</ele>
        <time>2015-11-29T08:44:33Z</time>
      </trkpt>
      <trkpt lat="43.521" lon="3.06952">
        <ele>441.5</ele>
        <time>2015-11-29T08:44:34Z</time>
      </trkpt>
      <trkpt lat="43.521" lon="3.06955">
        <ele>442</ele>
        <time>2015-11-29T08:44:35Z</time>
      </trkpt>
      <trkpt lat="43.521" lon="3.06958">
        <ele>442.5</ele>
        <time>2015-11-29T08:44:36Z</time>
      </trkpt>
      <trkpt lat="43.52101" lon="3.06961">
        <ele>442.5</ele>
        <time>2015-11-29T08:44:37Z</time>
      </trkpt>
      <trkpt lat="43.52102" lon="3.06965">
        <ele>444</ele>
        <time>2015-11-29T08:44:38Z</time>
      </trkpt>
      <trkpt lat="43.52103" lon="3.06968">
        <ele>443</ele>
        <time>2015-11-29T08:44:39Z</time>
      </trkpt>
      <trkpt lat="43.52103" lon="3.06972">
        <ele>442.5</ele>
        <time>2015-11-29T08:44:40Z</time>
      </trkpt>
      <trkpt lat="43.52102" lon="3.06975">
        <ele>442.5</ele>
        <time>2015-11-29T08:44:41Z</time>
      </trkpt>
      <trkpt lat="43.52101" lon="3.06978">
        <ele>442.5</ele>
        <time>2015-11-29T08:44:42Z</time>
      </trkpt>
      <trkpt lat="43.52101" lon="3.06982">
        <ele>443</ele>
        <time>2015-11-29T08:44:43Z</time>
      </trkpt>
      <trkpt lat="43.521" lon="3.06987">
        <ele>443</ele>
        <time>2015-11-29T08:44:44Z</time>
      </trkpt>
      <trkpt lat="43.521" lon="3.06991">
        <ele>443</ele>
        <time>2015-11-29T08:44:45Z</time>
      </trkpt>
      <trkpt lat="43.521" lon="3.06994">
        <ele>443.5</ele>
        <time>2015-11-29T08:44:46Z</time>
      </trkpt>
      <trkpt lat="43.521" lon="3.06997">
        <ele>444</ele>
        <time>2015-11-29T08:44:47Z</time>
      </trkpt>
      <trkpt lat="43.521" lon="3.07">
        <ele>444</ele>
        <time>2015-11-29T08:44:48Z</time>
      </trkpt>
      <trkpt lat="43.521" lon="3.07003">
        <ele>444</ele>
        <time>2015-11-29T08:44:49Z</time>
      </trkpt>
      <trkpt lat="43.521" lon="3.07005">
        <ele>445</ele>
        <time>2015-11-29T08:44:50Z</time>
      </trkpt>
      <trkpt lat="43.52101" lon="3.07007">
        <ele>445.5</ele>
        <time>2015-11-29T08:44:51Z</time>
      </trkpt>
      <trkpt lat="43.52102" lon="3.07008">
        <ele>446.5</ele>
        <time>2015-11-29T08:44:52Z</time>
      </trkpt>
      <trkpt lat="43.52103" lon="3.07009">
        <ele>447.5</ele>
        <time>2015-11-29T08:44:53Z</time>
      </trkpt>
      <trkpt lat="43.52104" lon="3.07008">
        <ele>448</ele>
        <time>2015-11-29T08:44:54Z</time>
      </trkpt>
      <trkpt lat="43.52105" lon="3.07006">
        <ele>448.5</ele>
        <time>2015-11-29T08:44:55Z</time>
      </trkpt>
      <trkpt lat="43.52105" lon="3.07003">
        <ele>450.5</ele>
        <time>2015-11-29T08:44:56Z</time>
      </trkpt>
      <trkpt lat="43.52105" lon="3.07001">
        <ele>451</ele>
        <time>2015-11-29T08:44:57Z</time>
      </trkpt>
      <trkpt lat="43.52106" lon="3.06999">
        <ele>451</ele>
        <time>2015-11-29T08:44:58Z</time>
      </trkpt>
      <trkpt lat="43.52106" lon="3.06996">
        <ele>451.5</ele>
        <time>2015-11-29T08:44:59Z</time>
      </trkpt>
      <trkpt lat="43.52106" lon="3.06994">
        <ele>451.5</ele>
        <time>2015-11-29T08:45:00Z</time>
      </trkpt>
      <trkpt lat="43.52107" lon="3.06991">
        <ele>451.5</ele>
        <time>2015-11-29T08:45:01Z</time>
      </trkpt>
      <trkpt lat="43.52107" lon="3.06989">
        <ele>451.5</ele>
        <time>2015-11-29T08:45:02Z</time>
      </trkpt>
      <trkpt lat="43.52107" lon="3.06986">
        <ele>451.5</ele>
        <time>2015-11-29T08:45:03Z</time>
      </trkpt>
      <trkpt lat="43.52107" lon="3.06984">
        <ele>451.5</ele>
        <time>2015-11-29T08:45:04Z</time>
      </trkpt>
      <trkpt lat="43.52107" lon="3.06981">
        <ele>451.5</ele>
        <time>2015-11-29T08:45:05Z</time>
      </trkpt>
      <trkpt lat="43.52107" lon="3.06979">
        <ele>451</ele>
        <time>2015-11-29T08:45:06Z</time>
      </trkpt>
      <trkpt lat="43.52107" lon="3.06976">
        <ele>451</ele>
        <time>2015-11-29T08:45:07Z</time>
      </trkpt>
      <trkpt lat="43.52108" lon="3.06974">
        <ele>451</ele>
        <time>2015-11-29T08:45:08Z</time>
      </trkpt>
      <trkpt lat="43.5211" lon="3.0697">
        <ele>450</ele>
        <time>2015-11-29T08:45:09Z</time>
      </trkpt>
      <trkpt lat="43.5211" lon="3.06966">
        <ele>451</ele>
        <time>2015-11-29T08:45:11Z</time>
      </trkpt>
      <trkpt lat="43.52111" lon="3.06964">
        <ele>451</ele>
        <time>2015-11-29T08:45:12Z</time>
      </trkpt>
      <trkpt lat="43.52111" lon="3.06961">
        <ele>450.5</ele>
        <time>2015-11-29T08:45:13Z</time>
      </trkpt>
      <trkpt lat="43.52112" lon="3.06959">
        <ele>451</ele>
        <time>2015-11-29T08:45:14Z</time>
      </trkpt>
      <trkpt lat="43.52113" lon="3.06957">
        <ele>451</ele>
        <time>2015-11-29T08:45:15Z</time>
      </trkpt>
      <trkpt lat="43.52114" lon="3.06955">
        <ele>451.5</ele>
        <time>2015-11-29T08:45:16Z</time>
      </trkpt>
      <trkpt lat="43.52114" lon="3.06953">
        <ele>452</ele>
        <time>2015-11-29T08:45:17Z</time>
      </trkpt>
      <trkpt lat="43.52115" lon="3.06951">
        <ele>451.5</ele>
        <time>2015-11-29T08:45:18Z</time>
      </trkpt>
      <trkpt lat="43.52116" lon="3.06949">
        <ele>451</ele>
        <time>2015-11-29T08:45:19Z</time>
      </trkpt>
      <trkpt lat="43.52117" lon="3.06947">
        <ele>450.5</ele>
        <time>2015-11-29T08:45:20Z</time>
      </trkpt>
      <trkpt lat="43.52118" lon="3.06945">
        <ele>450.5</ele>
        <time>2015-11-29T08:45:21Z</time>
      </trkpt>
      <trkpt lat="43.52119" lon="3.06942">
        <ele>450.5</ele>
        <time>2015-11-29T08:45:22Z</time>
      </trkpt>
      <trkpt lat="43.5212" lon="3.0694">
        <ele>450</ele>
        <time>2015-11-29T08:45:23Z</time>
      </trkpt>
      <trkpt lat="43.52121" lon="3.06938">
        <ele>450</ele>
        <time>2015-11-29T08:45:24Z</time>
      </trkpt>
      <trkpt lat="43.52122" lon="3.06937">
        <ele>450.5</ele>
        <time>2015-11-29T08:45:25Z</time>
      </trkpt>
      <trkpt lat="43.52123" lon="3.06935">
        <ele>450.5</ele>
        <time>2015-11-29T08:45:26Z</time>
      </trkpt>
      <trkpt lat="43.52124" lon="3.06933">
        <ele>450.5</ele>
        <time>2015-11-29T08:45:27Z</time>
      </trkpt>
      <trkpt lat="43.52125" lon="3.06931">
        <ele>450.5</ele>
        <time>2015-11-29T08:45:28Z</time>
      </trkpt>
      <trkpt lat="43.52126" lon="3.06929">
        <ele>450.5</ele>
        <time>2015-11-29T08:45:29Z</time>
      </trkpt>
      <trkpt lat="43.52127" lon="3.06927">
        <ele>450.5</ele>
        <time>2015-11-29T08:45:30Z</time>
      </trkpt>
      <trkpt lat="43.52128" lon="3.06925">
        <ele>451</ele>
        <time>2015-11-29T08:45:31Z</time>
      </trkpt>
      <trkpt lat="43.52129" lon="3.06923">
        <ele>451</ele>
        <time>2015-11-29T08:45:32Z</time>
      </trkpt>
      <trkpt lat="43.5213" lon="3.06921">
        <ele>451</ele>
        <time>2015-11-29T08:45:33Z</time>
      </trkpt>
      <trkpt lat="43.52131" lon="3.06919">
        <ele>451.5</ele>
        <time>2015-11-29T08:45:34Z</time>
      </trkpt>
      <trkpt lat="43.52132" lon="3.06917">
        <ele>452</ele>
        <time>2015-11-29T08:45:35Z</time>
      </trkpt>
      <trkpt lat="43.52133" lon="3.06915">
        <ele>453.5</ele>
        <time>2015-11-29T08:45:36Z</time>
      </trkpt>
      <trkpt lat="43.52134" lon="3.06913">
        <ele>454.5</ele>
        <time>2015-11-29T08:45:37Z</time>
      </trkpt>
      <trkpt lat="43.52135" lon="3.0691">
        <ele>455</ele>
        <time>2015-11-29T08:45:38Z</time>
      </trkpt>
      <trkpt lat="43.52136" lon="3.06909">
        <ele>455.5</ele>
        <time>2015-11-29T08:45:39Z</time>
      </trkpt>
      <trkpt lat="43.52138" lon="3.06907">
        <ele>456</ele>
        <time>2015-11-29T08:45:40Z</time>
      </trkpt>
      <trkpt lat="43.52139" lon="3.06905">
        <ele>456</ele>
        <time>2015-11-29T08:45:41Z</time>
      </trkpt>
      <trkpt lat="43.5214" lon="3.06903">
        <ele>457</ele>
        <time>2015-11-29T08:45:42Z</time>
      </trkpt>
      <trkpt lat="43.52141" lon="3.06901">
        <ele>457.5</ele>
        <time>2015-11-29T08:45:43Z</time>
      </trkpt>
      <trkpt lat="43.52143" lon="3.06899">
        <ele>458.5</ele>
        <time>2015-11-29T08:45:44Z</time>
      </trkpt>
      <trkpt lat="43.52144" lon="3.06898">
        <ele>458.5</ele>
        <time>2015-11-29T08:45:45Z</time>
      </trkpt>
      <trkpt lat="43.52145" lon="3.06896">
        <ele>459.5</ele>
        <time>2015-11-29T08:45:46Z</time>
      </trkpt>
      <trkpt lat="43.52146" lon="3.06894">
        <ele>460.5</ele>
        <time>2015-11-29T08:45:47Z</time>
      </trkpt>
      <trkpt lat="43.52148" lon="3.06892">
        <ele>461</ele>
        <time>2015-11-29T08:45:48Z</time>
      </trkpt>
      <trkpt lat="43.52149" lon="3.0689">
        <ele>461.5</ele>
        <time>2015-11-29T08:45:49Z</time>
      </trkpt>
      <trkpt lat="43.5215" lon="3.06888">
        <ele>462</ele>
        <time>2015-11-29T08:45:50Z</time>
      </trkpt>
      <trkpt lat="43.52152" lon="3.06886">
        <ele>462.5</ele>
        <time>2015-11-29T08:45:51Z</time>
      </trkpt>
      <trkpt lat="43.52153" lon="3.06884">
        <ele>462</ele>
        <time>2015-11-29T08:45:52Z</time>
      </trkpt>
      <trkpt lat="43.52154" lon="3.06883">
        <ele>462</ele>
        <time>2015-11-29T08:45:53Z</time>
      </trkpt>
      <trkpt lat="43.52154" lon="3.06881">
        <ele>463.5</ele>
        <time>2015-11-29T08:45:54Z</time>
      </trkpt>
      <trkpt lat="43.52155" lon="3.06879">
        <ele>464</ele>
        <time>2015-11-29T08:45:55Z</time>
      </trkpt>
      <trkpt lat="43.52156" lon="3.06877">
        <ele>465</ele>
        <time>2015-11-29T08:45:56Z</time>
      </trkpt>
      <trkpt lat="43.52157" lon="3.06875">
        <ele>465</ele>
        <time>2015-11-29T08:45:57Z</time>
      </trkpt>
      <trkpt lat="43.52159" lon="3.06873">
        <ele>464.5</ele>
        <time>2015-11-29T08:45:58Z</time>
      </trkpt>
      <trkpt lat="43.5216" lon="3.06871">
        <ele>464</ele>
        <time>2015-11-29T08:45:59Z</time>
      </trkpt>
      <trkpt lat="43.52161" lon="3.06868">
        <ele>464</ele>
        <time>2015-11-29T08:46:00Z</time>
      </trkpt>
      <trkpt lat="43.52162" lon="3.06866">
        <ele>464.5</ele>
        <time>2015-11-29T08:46:01Z</time>
      </trkpt>
      <trkpt lat="43.52163" lon="3.06864">
        <ele>464.5</ele>
        <time>2015-11-29T08:46:02Z</time>
      </trkpt>
      <trkpt lat="43.52164" lon="3.06862">
        <ele>464</ele>
        <time>2015-11-29T08:46:03Z</time>
      </trkpt>
      <trkpt lat="43.52165" lon="3.06859">
        <ele>464</ele>
        <time>2015-11-29T08:46:04Z</time>
      </trkpt>
      <trkpt lat="43.52165" lon="3.06857">
        <ele>463.5</ele>
        <time>2015-11-29T08:46:05Z</time>
      </trkpt>
      <trkpt lat="43.52165" lon="3.06854">
        <ele>463.5</ele>
        <time>2015-11-29T08:46:06Z</time>
      </trkpt>
      <trkpt lat="43.52165" lon="3.0685">
        <ele>464.5</ele>
        <time>2015-11-29T08:46:07Z</time>
      </trkpt>
      <trkpt lat="43.52163" lon="3.06848">
        <ele>466</ele>
        <time>2015-11-29T08:46:08Z</time>
      </trkpt>
      <trkpt lat="43.52161" lon="3.06846">
        <ele>466.5</ele>
        <time>2015-11-29T08:46:09Z</time>
      </trkpt>
      <trkpt lat="43.52159" lon="3.06844">
        <ele>466.5</ele>
        <time>2015-11-29T08:46:10Z</time>
      </trkpt>
      <trkpt lat="43.52157" lon="3.06844">
        <ele>466.5</ele>
        <time>2015-11-29T08:46:11Z</time>
      </trkpt>
      <trkpt lat="43.52155" lon="3.06843">
        <ele>466.5</ele>
        <time>2015-11-29T08:46:12Z</time>
      </trkpt>
      <trkpt lat="43.52154" lon="3.06843">
        <ele>466</ele>
        <time>2015-11-29T08:46:13Z</time>
      </trkpt>
      <trkpt lat="43.52152" lon="3.06843">
        <ele>466</ele>
        <time>2015-11-29T08:46:14Z</time>
      </trkpt>
      <trkpt lat="43.5215" lon="3.06842">
        <ele>466.5</ele>
        <time>2015-11-29T08:46:15Z</time>
      </trkpt>
      <trkpt lat="43.52148" lon="3.06843">
        <ele>468</ele>
        <time>2015-11-29T08:46:16Z</time>
      </trkpt>
      <trkpt lat="43.52145" lon="3.06843">
        <ele>469</ele>
        <time>2015-11-29T08:46:17Z</time>
      </trkpt>
      <trkpt lat="43.52143" lon="3.06843">
        <ele>469.5</ele>
        <time>2015-11-29T08:46:18Z</time>
      </trkpt>
      <trkpt lat="43.52141" lon="3.06842">
        <ele>470</ele>
        <time>2015-11-29T08:46:19Z</time>
      </trkpt>
      <trkpt lat="43.52139" lon="3.06841">
        <ele>470</ele>
        <time>2015-11-29T08:46:20Z</time>
      </trkpt>
      <trkpt lat="43.52137" lon="3.0684">
        <ele>470.5</ele>
        <time>2015-11-29T08:46:21Z</time>
      </trkpt>
      <trkpt lat="43.52135" lon="3.06838">
        <ele>470.5</ele>
        <time>2015-11-29T08:46:22Z</time>
      </trkpt>
      <trkpt lat="43.52133" lon="3.06836">
        <ele>471</ele>
        <time>2015-11-29T08:46:23Z</time>
      </trkpt>
      <trkpt lat="43.52132" lon="3.06835">
        <ele>471.5</ele>
        <time>2015-11-29T08:46:24Z</time>
      </trkpt>
      <trkpt lat="43.5213" lon="3.06832">
        <ele>471</ele>
        <time>2015-11-29T08:46:25Z</time>
      </trkpt>
      <trkpt lat="43.52129" lon="3.0683">
        <ele>471.5</ele>
        <time>2015-11-29T08:46:26Z</time>
      </trkpt>
      <trkpt lat="43.52128" lon="3.06828">
        <ele>472</ele>
        <time>2015-11-29T08:46:27Z</time>
      </trkpt>
      <trkpt lat="43.52126" lon="3.06826">
        <ele>472.5</ele>
        <time>2015-11-29T08:46:28Z</time>
      </trkpt>
      <trkpt lat="43.52125" lon="3.06824">
        <ele>473</ele>
        <time>2015-11-29T08:46:29Z</time>
      </trkpt>
      <trkpt lat="43.52124" lon="3.06822">
        <ele>473</ele>
        <time>2015-11-29T08:46:30Z</time>
      </trkpt>
      <trkpt lat="43.52123" lon="3.0682">
        <ele>473</ele>
        <time>2015-11-29T08:46:31Z</time>
      </trkpt>
      <trkpt lat="43.52122" lon="3.06818">
        <ele>473</ele>
        <time>2015-11-29T08:46:32Z</time>
      </trkpt>
      <trkpt lat="43.5212" lon="3.06816">
        <ele>473.5</ele>
        <time>2015-11-29T08:46:33Z</time>
      </trkpt>
      <trkpt lat="43.52118" lon="3.06814">
        <ele>474</ele>
        <time>2015-11-29T08:46:34Z</time>
      </trkpt>
      <trkpt lat="43.52116" lon="3.06813">
        <ele>474.5</ele>
        <time>2015-11-29T08:46:35Z</time>
      </trkpt>
      <trkpt lat="43.52115" lon="3.06812">
        <ele>474.5</ele>
        <time>2015-11-29T08:46:36Z</time>
      </trkpt>
      <trkpt lat="43.52113" lon="3.06811">
        <ele>474.5</ele>
        <time>2015-11-29T08:46:37Z</time>
      </trkpt>
      <trkpt lat="43.52111" lon="3.0681">
        <ele>475</ele>
        <time>2015-11-29T08:46:38Z</time>
      </trkpt>
      <trkpt lat="43.52109" lon="3.0681">
        <ele>475</ele>
        <time>2015-11-29T08:46:39Z</time>
      </trkpt>
      <trkpt lat="43.52107" lon="3.06809">
        <ele>475.5</ele>
        <time>2015-11-29T08:46:40Z</time>
      </trkpt>
      <trkpt lat="43.52105" lon="3.06809">
        <ele>475.5</ele>
        <time>2015-11-29T08:46:41Z</time>
      </trkpt>
      <trkpt lat="43.52103" lon="3.06808">
        <ele>475.5</ele>
        <time>2015-11-29T08:46:42Z</time>
      </trkpt>
      <trkpt lat="43.52102" lon="3.06807">
        <ele>475</ele>
        <time>2015-11-29T08:46:43Z</time>
      </trkpt>
      <trkpt lat="43.521" lon="3.06805">
        <ele>475</ele>
        <time>2015-11-29T08:46:43Z</time>
      </trkpt>
      <trkpt lat="43.52098" lon="3.06805">
        <ele>476.5</ele>
        <time>2015-11-29T08:46:45Z</time>
      </trkpt>
      <trkpt lat="43.52097" lon="3.06804">
        <ele>475</ele>
        <time>2015-11-29T08:46:45Z</time>
      </trkpt>
      <trkpt lat="43.52095" lon="3.06801">
        <ele>473.5</ele>
        <time>2015-11-29T08:46:46Z</time>
      </trkpt>
      <trkpt lat="43.52092" lon="3.06799">
        <ele>474.5</ele>
        <time>2015-11-29T08:46:48Z</time>
      </trkpt>
      <trkpt lat="43.52091" lon="3.06797">
        <ele>474</ele>
        <time>2015-11-29T08:46:49Z</time>
      </trkpt>
      <trkpt lat="43.52089" lon="3.06796">
        <ele>474.5</ele>
        <time>2015-11-29T08:46:50Z</time>
      </trkpt>
      <trkpt lat="43.52087" lon="3.06794">
        <ele>475</ele>
        <time>2015-11-29T08:46:51Z</time>
      </trkpt>
      <trkpt lat="43.52085" lon="3.06792">
        <ele>475</ele>
        <time>2015-11-29T08:46:52Z</time>
      </trkpt>
      <trkpt lat="43.52084" lon="3.06791">
        <ele>475</ele>
        <time>2015-11-29T08:46:53Z</time>
      </trkpt>
      <trkpt lat="43.52082" lon="3.06789">
        <ele>476</ele>
        <time>2015-11-29T08:46:54Z</time>
      </trkpt>
      <trkpt lat="43.5208" lon="3.06787">
        <ele>476</ele>
        <time>2015-11-29T08:46:55Z</time>
      </trkpt>
      <trkpt lat="43.52079" lon="3.06786">
        <ele>476.5</ele>
        <time>2015-11-29T08:46:56Z</time>
      </trkpt>
      <trkpt lat="43.52077" lon="3.06784">
        <ele>476.5</ele>
        <time>2015-11-29T08:46:57Z</time>
      </trkpt>
      <trkpt lat="43.52076" lon="3.06782">
        <ele>477</ele>
        <time>2015-11-29T08:46:58Z</time>
      </trkpt>
      <trkpt lat="43.52075" lon="3.0678">
        <ele>477.5</ele>
        <time>2015-11-29T08:46:59Z</time>
      </trkpt>
      <trkpt lat="43.52073" lon="3.06778">
        <ele>478</ele>
        <time>2015-11-29T08:47:00Z</time>
      </trkpt>
      <trkpt lat="43.52072" lon="3.06776">
        <ele>478</ele>
        <time>2015-11-29T08:47:02Z</time>
      </trkpt>
      <trkpt lat="43.52071" lon="3.06774">
        <ele>478</ele>
        <time>2015-11-29T08:47:02Z</time>
      </trkpt>
      <trkpt lat="43.5207" lon="3.06771">
        <ele>478</ele>
        <time>2015-11-29T08:47:03Z</time>
      </trkpt>
      <trkpt lat="43.52068" lon="3.06769">
        <ele>477.5</ele>
        <time>2015-11-29T08:47:05Z</time>
      </trkpt>
      <trkpt lat="43.52067" lon="3.06766">
        <ele>478</ele>
        <time>2015-11-29T08:47:05Z</time>
      </trkpt>
      <trkpt lat="43.52066" lon="3.06764">
        <ele>478.5</ele>
        <time>2015-11-29T08:47:06Z</time>
      </trkpt>
      <trkpt lat="43.52064" lon="3.06762">
        <ele>479</ele>
        <time>2015-11-29T08:47:07Z</time>
      </trkpt>
      <trkpt lat="43.52063" lon="3.06759">
        <ele>479</ele>
        <time>2015-11-29T08:47:08Z</time>
      </trkpt>
      <trkpt lat="43.52062" lon="3.06757">
        <ele>479.5</ele>
        <time>2015-11-29T08:47:09Z</time>
      </trkpt>
      <trkpt lat="43.5206" lon="3.06755">
        <ele>480</ele>
        <time>2015-11-29T08:47:10Z</time>
      </trkpt>
      <trkpt lat="43.52059" lon="3.06753">
        <ele>480.5</ele>
        <time>2015-11-29T08:47:12Z</time>
      </trkpt>
      <trkpt lat="43.52057" lon="3.0675">
        <ele>480.5</ele>
        <time>2015-11-29T08:47:12Z</time>
      </trkpt>
      <trkpt lat="43.52056" lon="3.06748">
        <ele>480.5</ele>
        <time>2015-11-29T08:47:13Z</time>
      </trkpt>
      <trkpt lat="43.52054" lon="3.06745">
        <ele>480.5</ele>
        <time>2015-11-29T08:47:14Z</time>
      </trkpt>
      <trkpt lat="43.52053" lon="3.06743">
        <ele>480</ele>
        <time>2015-11-29T08:47:15Z</time>
      </trkpt>
      <trkpt lat="43.52051" lon="3.06741">
        <ele>480</ele>
        <time>2015-11-29T08:47:16Z</time>
      </trkpt>
      <trkpt lat="43.52051" lon="3.06739">
        <ele>479.5</ele>
        <time>2015-11-29T08:47:17Z</time>
      </trkpt>
      <trkpt lat="43.52049" lon="3.06737">
        <ele>480.5</ele>
        <time>2015-11-29T08:47:18Z</time>
      </trkpt>
      <trkpt lat="43.52048" lon="3.06735">
        <ele>480.5</ele>
        <time>2015-11-29T08:47:19Z</time>
      </trkpt>
      <trkpt lat="43.52046" lon="3.06734">
        <ele>481</ele>
        <time>2015-11-29T08:47:20Z</time>
      </trkpt>
      <trkpt lat="43.52044" lon="3.06732">
        <ele>481</ele>
        <time>2015-11-29T08:47:22Z</time>
      </trkpt>
      <trkpt lat="43.52043" lon="3.0673">
        <ele>481.5</ele>
        <time>2015-11-29T08:47:22Z</time>
      </trkpt>
      <trkpt lat="43.52041" lon="3.06728">
        <ele>481.5</ele>
        <time>2015-11-29T08:47:23Z</time>
      </trkpt>
      <trkpt lat="43.52039" lon="3.06726">
        <ele>481</ele>
        <time>2015-11-29T08:47:24Z</time>
      </trkpt>
      <trkpt lat="43.52038" lon="3.06724">
        <ele>481</ele>
        <time>2015-11-29T08:47:25Z</time>
      </trkpt>
      <trkpt lat="43.52036" lon="3.06722">
        <ele>481</ele>
        <time>2015-11-29T08:47:26Z</time>
      </trkpt>
      <trkpt lat="43.52034" lon="3.06721">
        <ele>481.5</ele>
        <time>2015-11-29T08:47:27Z</time>
      </trkpt>
      <trkpt lat="43.52033" lon="3.06719">
        <ele>481.5</ele>
        <time>2015-11-29T08:47:28Z</time>
      </trkpt>
      <trkpt lat="43.52031" lon="3.06718">
        <ele>482</ele>
        <time>2015-11-29T08:47:30Z</time>
      </trkpt>
      <trkpt lat="43.5203" lon="3.06716">
        <ele>483</ele>
        <time>2015-11-29T08:47:30Z</time>
      </trkpt>
      <trkpt lat="43.52028" lon="3.06715">
        <ele>483.5</ele>
        <time>2015-11-29T08:47:31Z</time>
      </trkpt>
      <trkpt lat="43.52027" lon="3.06713">
        <ele>484</ele>
        <time>2015-11-29T08:47:32Z</time>
      </trkpt>
      <trkpt lat="43.52025" lon="3.06711">
        <ele>484.5</ele>
        <time>2015-11-29T08:47:33Z</time>
      </trkpt>
      <trkpt lat="43.52024" lon="3.06708">
        <ele>484</ele>
        <time>2015-11-29T08:47:34Z</time>
      </trkpt>
      <trkpt lat="43.52022" lon="3.06706">
        <ele>484.5</ele>
        <time>2015-11-29T08:47:35Z</time>
      </trkpt>
      <trkpt lat="43.5202" lon="3.06704">
        <ele>484</ele>
        <time>2015-11-29T08:47:37Z</time>
      </trkpt>
      <trkpt lat="43.52017" lon="3.06698">
        <ele>484</ele>
        <time>2015-11-29T08:47:38Z</time>
      </trkpt>
      <trkpt lat="43.52016" lon="3.06696">
        <ele>484.5</ele>
        <time>2015-11-29T08:47:39Z</time>
      </trkpt>
      <trkpt lat="43.52015" lon="3.06694">
        <ele>485</ele>
        <time>2015-11-29T08:47:40Z</time>
      </trkpt>
      <trkpt lat="43.52014" lon="3.06692">
        <ele>485.5</ele>
        <time>2015-11-29T08:47:41Z</time>
      </trkpt>
      <trkpt lat="43.52013" lon="3.06689">
        <ele>486</ele>
        <time>2015-11-29T08:47:42Z</time>
      </trkpt>
      <trkpt lat="43.52013" lon="3.06688">
        <ele>486</ele>
        <time>2015-11-29T08:47:43Z</time>
      </trkpt>
      <trkpt lat="43.52012" lon="3.06685">
        <ele>486</ele>
        <time>2015-11-29T08:47:44Z</time>
      </trkpt>
      <trkpt lat="43.52012" lon="3.06683">
        <ele>486</ele>
        <time>2015-11-29T08:47:45Z</time>
      </trkpt>
      <trkpt lat="43.52011" lon="3.06681">
        <ele>486.5</ele>
        <time>2015-11-29T08:47:46Z</time>
      </trkpt>
      <trkpt lat="43.5201" lon="3.06679">
        <ele>486</ele>
        <time>2015-11-29T08:47:47Z</time>
      </trkpt>
      <trkpt lat="43.52009" lon="3.06677">
        <ele>486</ele>
        <time>2015-11-29T08:47:48Z</time>
      </trkpt>
      <trkpt lat="43.52009" lon="3.06675">
        <ele>485</ele>
        <time>2015-11-29T08:47:49Z</time>
      </trkpt>
      <trkpt lat="43.52008" lon="3.06674">
        <ele>485</ele>
        <time>2015-11-29T08:47:50Z</time>
      </trkpt>
      <trkpt lat="43.52008" lon="3.06672">
        <ele>484</ele>
        <time>2015-11-29T08:47:51Z</time>
      </trkpt>
      <trkpt lat="43.52008" lon="3.0667">
        <ele>482.5</ele>
        <time>2015-11-29T08:47:52Z</time>
      </trkpt>
      <trkpt lat="43.52007" lon="3.06669">
        <ele>483</ele>
        <time>2015-11-29T08:47:53Z</time>
      </trkpt>
      <trkpt lat="43.52007" lon="3.06668">
        <ele>482.5</ele>
        <time>2015-11-29T08:47:54Z</time>
      </trkpt>
      <trkpt lat="43.52007" lon="3.06666">
        <ele>482</ele>
        <time>2015-11-29T08:47:55Z</time>
      </trkpt>
      <trkpt lat="43.52006" lon="3.06664">
        <ele>482</ele>
        <time>2015-11-29T08:47:56Z</time>
      </trkpt>
      <trkpt lat="43.52006" lon="3.06663">
        <ele>482</ele>
        <time>2015-11-29T08:47:57Z</time>
      </trkpt>
      <trkpt lat="43.52008" lon="3.06658">
        <ele>477</ele>
        <time>2015-11-29T08:48:16Z</time>
      </trkpt>
      <trkpt lat="43.52009" lon="3.06654">
        <ele>475.5</ele>
        <time>2015-11-29T08:48:30Z</time>
      </trkpt>
      <trkpt lat="43.5201" lon="3.06652">
        <ele>475</ele>
        <time>2015-11-29T08:48:32Z</time>
      </trkpt>
      <trkpt lat="43.52009" lon="3.0665">
        <ele>473.5</ele>
        <time>2015-11-29T08:48:33Z</time>
      </trkpt>
      <trkpt lat="43.52009" lon="3.06649">
        <ele>474.5</ele>
        <time>2015-11-29T08:48:34Z</time>
      </trkpt>
      <trkpt lat="43.52009" lon="3.06648">
        <ele>474</ele>
        <time>2015-11-29T08:48:35Z</time>
      </trkpt>
      <trkpt lat="43.52008" lon="3.06646">
        <ele>474.5</ele>
        <time>2015-11-29T08:48:36Z</time>
      </trkpt>
      <trkpt lat="43.52007" lon="3.06644">
        <ele>475</ele>
        <time>2015-11-29T08:48:37Z</time>
      </trkpt>
      <trkpt lat="43.52006" lon="3.06642">
        <ele>475.5</ele>
        <time>2015-11-29T08:48:38Z</time>
      </trkpt>
      <trkpt lat="43.52006" lon="3.06641">
        <ele>476.5</ele>
        <time>2015-11-29T08:48:39Z</time>
      </trkpt>
      <trkpt lat="43.52005" lon="3.0664">
        <ele>476.5</ele>
        <time>2015-11-29T08:48:40Z</time>
      </trkpt>
      <trkpt lat="43.52005" lon="3.0664">
        <ele>478.5</ele>
        <time>2015-11-29T08:48:43Z</time>
      </trkpt>
      <trkpt lat="43.52005" lon="3.06641">
        <ele>478.5</ele>
        <time>2015-11-29T08:48:45Z</time>
      </trkpt>
      <trkpt lat="43.52005" lon="3.06643">
        <ele>479</ele>
        <time>2015-11-29T08:48:46Z</time>
      </trkpt>
      <trkpt lat="43.52005" lon="3.06645">
        <ele>479.5</ele>
        <time>2015-11-29T08:48:47Z</time>
      </trkpt>
      <trkpt lat="43.52005" lon="3.06645">
        <ele>479.5</ele>
        <time>2015-11-29T08:48:48Z</time>
      </trkpt>
      <trkpt lat="43.52005" lon="3.06646">
        <ele>479</ele>
        <time>2015-11-29T08:48:50Z</time>
      </trkpt>
      <trkpt lat="43.52004" lon="3.06648">
        <ele>479</ele>
        <time>2015-11-29T08:48:52Z</time>
      </trkpt>
      <trkpt lat="43.52004" lon="3.06648">
        <ele>477</ele>
        <time>2015-11-29T08:48:53Z</time>
      </trkpt>
      <trkpt lat="43.52004" lon="3.06648">
        <ele>477</ele>
        <time>2015-11-29T08:48:56Z</time>
      </trkpt>
      <trkpt lat="43.52004" lon="3.06646">
        <ele>476.5</ele>
        <time>2015-11-29T08:48:58Z</time>
      </trkpt>
      <trkpt lat="43.52004" lon="3.06644">
        <ele>474.5</ele>
        <time>2015-11-29T08:49:05Z</time>
      </trkpt>
      <trkpt lat="43.52001" lon="3.06643">
        <ele>475</ele>
        <time>2015-11-29T08:49:07Z</time>
      </trkpt>
      <trkpt lat="43.51999" lon="3.06642">
        <ele>474.5</ele>
        <time>2015-11-29T08:49:08Z</time>
      </trkpt>
      <trkpt lat="43.51997" lon="3.06641">
        <ele>474</ele>
        <time>2015-11-29T08:49:09Z</time>
      </trkpt>
      <trkpt lat="43.51995" lon="3.0664">
        <ele>473</ele>
        <time>2015-11-29T08:49:10Z</time>
      </trkpt>
      <trkpt lat="43.51993" lon="3.06639">
        <ele>472</ele>
        <time>2015-11-29T08:49:11Z</time>
      </trkpt>
      <trkpt lat="43.5199" lon="3.06638">
        <ele>470.5</ele>
        <time>2015-11-29T08:49:12Z</time>
      </trkpt>
      <trkpt lat="43.51988" lon="3.06638">
        <ele>469</ele>
        <time>2015-11-29T08:49:13Z</time>
      </trkpt>
      <trkpt lat="43.51986" lon="3.06637">
        <ele>468</ele>
        <time>2015-11-29T08:49:14Z</time>
      </trkpt>
      <trkpt lat="43.51984" lon="3.06636">
        <ele>468</ele>
        <time>2015-11-29T08:49:15Z</time>
      </trkpt>
      <trkpt lat="43.51982" lon="3.06636">
        <ele>469.5</ele>
        <time>2015-11-29T08:49:16Z</time>
      </trkpt>
      <trkpt lat="43.5198" lon="3.06636">
        <ele>468.5</ele>
        <time>2015-11-29T08:49:17Z</time>
      </trkpt>
      <trkpt lat="43.51979" lon="3.06635">
        <ele>467</ele>
        <time>2015-11-29T08:49:18Z</time>
      </trkpt>
      <trkpt lat="43.51978" lon="3.06635">
        <ele>467</ele>
        <time>2015-11-29T08:49:21Z</time>
      </trkpt>
      <trkpt lat="43.51978" lon="3.06635">
        <ele>467</ele>
        <time>2015-11-29T08:49:27Z</time>
      </trkpt>
      <trkpt lat="43.51977" lon="3.06635">
        <ele>467.5</ele>
        <time>2015-11-29T08:49:31Z</time>
      </trkpt>
      <trkpt lat="43.51976" lon="3.06637">
        <ele>467.5</ele>
        <time>2015-11-29T08:49:33Z</time>
      </trkpt>
      <trkpt lat="43.51975" lon="3.06638">
        <ele>469</ele>
        <time>2015-11-29T08:49:34Z</time>
      </trkpt>
      <trkpt lat="43.51976" lon="3.06639">
        <ele>469.5</ele>
        <time>2015-11-29T08:49:36Z</time>
      </trkpt>
      <trkpt lat="43.51974" lon="3.06637">
        <ele>468.5</ele>
        <time>2015-11-29T08:49:39Z</time>
      </trkpt>
      <trkpt lat="43.51971" lon="3.06639">
        <ele>469.5</ele>
        <time>2015-11-29T08:49:41Z</time>
      </trkpt>
      <trkpt lat="43.5197" lon="3.06638">
        <ele>469</ele>
        <time>2015-11-29T08:49:42Z</time>
      </trkpt>
      <trkpt lat="43.51969" lon="3.06638">
        <ele>469</ele>
        <time>2015-11-29T08:49:43Z</time>
      </trkpt>
      <trkpt lat="43.51968" lon="3.06637">
        <ele>469</ele>
        <time>2015-11-29T08:49:44Z</time>
      </trkpt>
      <trkpt lat="43.51967" lon="3.06637">
        <ele>470</ele>
        <time>2015-11-29T08:49:45Z</time>
      </trkpt>
      <trkpt lat="43.51966" lon="3.06637">
        <ele>470</ele>
        <time>2015-11-29T08:49:46Z</time>
      </trkpt>
      <trkpt lat="43.51965" lon="3.06637">
        <ele>470.5</ele>
        <time>2015-11-29T08:49:47Z</time>
      </trkpt>
      <trkpt lat="43.51963" lon="3.06637">
        <ele>471</ele>
        <time>2015-11-29T08:49:48Z</time>
      </trkpt>
      <trkpt lat="43.51962" lon="3.06637">
        <ele>471.5</ele>
        <time>2015-11-29T08:49:49Z</time>
      </trkpt>
      <trkpt lat="43.51961" lon="3.06637">
        <ele>472.5</ele>
        <time>2015-11-29T08:49:50Z</time>
      </trkpt>
      <trkpt lat="43.5196" lon="3.06635">
        <ele>472.5</ele>
        <time>2015-11-29T08:49:51Z</time>
      </trkpt>
      <trkpt lat="43.5196" lon="3.06633">
        <ele>472</ele>
        <time>2015-11-29T08:49:52Z</time>
      </trkpt>
      <trkpt lat="43.51958" lon="3.0663">
        <ele>472</ele>
        <time>2015-11-29T08:49:53Z</time>
      </trkpt>
      <trkpt lat="43.51957" lon="3.06628">
        <ele>473</ele>
        <time>2015-11-29T08:49:54Z</time>
      </trkpt>
      <trkpt lat="43.5195" lon="3.0663">
        <ele>472.5</ele>
        <time>2015-11-29T08:49:56Z</time>
      </trkpt>
      <trkpt lat="43.51947" lon="3.06631">
        <ele>471.5</ele>
        <time>2015-11-29T08:49:57Z</time>
      </trkpt>
      <trkpt lat="43.51945" lon="3.06631">
        <ele>469.5</ele>
        <time>2015-11-29T08:49:58Z</time>
      </trkpt>
      <trkpt lat="43.51945" lon="3.06634">
        <ele>470</ele>
        <time>2015-11-29T08:50:00Z</time>
      </trkpt>
      <trkpt lat="43.51944" lon="3.06634">
        <ele>469.5</ele>
        <time>2015-11-29T08:50:01Z</time>
      </trkpt>
      <trkpt lat="43.51944" lon="3.06635">
        <ele>470</ele>
        <time>2015-11-29T08:50:02Z</time>
      </trkpt>
      <trkpt lat="43.51944" lon="3.06637">
        <ele>469.5</ele>
        <time>2015-11-29T08:50:03Z</time>
      </trkpt>
      <trkpt lat="43.51944" lon="3.06639">
        <ele>469.5</ele>
        <time>2015-11-29T08:50:04Z</time>
      </trkpt>
      <trkpt lat="43.51943" lon="3.0664">
        <ele>469.5</ele>
        <time>2015-11-29T08:50:05Z</time>
      </trkpt>
      <trkpt lat="43.51942" lon="3.06641">
        <ele>468.5</ele>
        <time>2015-11-29T08:50:06Z</time>
      </trkpt>
      <trkpt lat="43.5194" lon="3.06643">
        <ele>468</ele>
        <time>2015-11-29T08:50:07Z</time>
      </trkpt>
      <trkpt lat="43.51939" lon="3.06644">
        <ele>468.5</ele>
        <time>2015-11-29T08:50:08Z</time>
      </trkpt>
      <trkpt lat="43.51938" lon="3.06645">
        <ele>468.5</ele>
        <time>2015-11-29T08:50:09Z</time>
      </trkpt>
      <trkpt lat="43.51937" lon="3.06646">
        <ele>469</ele>
        <time>2015-11-29T08:50:10Z</time>
      </trkpt>
      <trkpt lat="43.51936" lon="3.06646">
        <ele>468.5</ele>
        <time>2015-11-29T08:50:11Z</time>
      </trkpt>
      <trkpt lat="43.51935" lon="3.06646">
        <ele>468</ele>
        <time>2015-11-29T08:50:12Z</time>
      </trkpt>
      <trkpt lat="43.51933" lon="3.06647">
        <ele>467.5</ele>
        <time>2015-11-29T08:50:13Z</time>
      </trkpt>
      <trkpt lat="43.51929" lon="3.06649">
        <ele>466</ele>
        <time>2015-11-29T08:50:15Z</time>
      </trkpt>
      <trkpt lat="43.51928" lon="3.06648">
        <ele>465</ele>
        <time>2015-11-29T08:50:16Z</time>
      </trkpt>
      <trkpt lat="43.51927" lon="3.06648">
        <ele>465.5</ele>
        <time>2015-11-29T08:50:17Z</time>
      </trkpt>
      <trkpt lat="43.51927" lon="3.06649">
        <ele>465.5</ele>
        <time>2015-11-29T08:50:18Z</time>
      </trkpt>
      <trkpt lat="43.51927" lon="3.06649">
        <ele>465</ele>
        <time>2015-11-29T08:50:19Z</time>
      </trkpt>
      <trkpt lat="43.51926" lon="3.0665">
        <ele>464.5</ele>
        <time>2015-11-29T08:50:20Z</time>
      </trkpt>
      <trkpt lat="43.51926" lon="3.0665">
        <ele>464.5</ele>
        <time>2015-11-29T08:50:21Z</time>
      </trkpt>
      <trkpt lat="43.51924" lon="3.06651">
        <ele>463.5</ele>
        <time>2015-11-29T08:50:22Z</time>
      </trkpt>
      <trkpt lat="43.51923" lon="3.06653">
        <ele>463.5</ele>
        <time>2015-11-29T08:50:23Z</time>
      </trkpt>
      <trkpt lat="43.51922" lon="3.06653">
        <ele>463.5</ele>
        <time>2015-11-29T08:50:24Z</time>
      </trkpt>
      <trkpt lat="43.51921" lon="3.06654">
        <ele>463</ele>
        <time>2015-11-29T08:50:25Z</time>
      </trkpt>
      <trkpt lat="43.5192" lon="3.06654">
        <ele>462.5</ele>
        <time>2015-11-29T08:50:26Z</time>
      </trkpt>
      <trkpt lat="43.5192" lon="3.06655">
        <ele>462</ele>
        <time>2015-11-29T08:50:27Z</time>
      </trkpt>
      <trkpt lat="43.51919" lon="3.06655">
        <ele>459.5</ele>
        <time>2015-11-29T08:50:28Z</time>
      </trkpt>
      <trkpt lat="43.51919" lon="3.06657">
        <ele>460</ele>
        <time>2015-11-29T08:50:29Z</time>
      </trkpt>
      <trkpt lat="43.5192" lon="3.06656">
        <ele>459</ele>
        <time>2015-11-29T08:50:30Z</time>
      </trkpt>
      <trkpt lat="43.51921" lon="3.06657">
        <ele>456.5</ele>
        <time>2015-11-29T08:50:31Z</time>
      </trkpt>
      <trkpt lat="43.51919" lon="3.06659">
        <ele>455.5</ele>
        <time>2015-11-29T08:50:32Z</time>
      </trkpt>
      <trkpt lat="43.51918" lon="3.0666">
        <ele>454.5</ele>
        <time>2015-11-29T08:50:33Z</time>
      </trkpt>
      <trkpt lat="43.51916" lon="3.06662">
        <ele>455</ele>
        <time>2015-11-29T08:50:34Z</time>
      </trkpt>
      <trkpt lat="43.51915" lon="3.06664">
        <ele>456</ele>
        <time>2015-11-29T08:50:35Z</time>
      </trkpt>
      <trkpt lat="43.51914" lon="3.06666">
        <ele>455</ele>
        <time>2015-11-29T08:50:36Z</time>
      </trkpt>
      <trkpt lat="43.51912" lon="3.06669">
        <ele>453.5</ele>
        <time>2015-11-29T08:50:37Z</time>
      </trkpt>
      <trkpt lat="43.51912" lon="3.06671">
        <ele>454.5</ele>
        <time>2015-11-29T08:50:38Z</time>
      </trkpt>
      <trkpt lat="43.51911" lon="3.06673">
        <ele>452.5</ele>
        <time>2015-11-29T08:50:39Z</time>
      </trkpt>
      <trkpt lat="43.51909" lon="3.06676">
        <ele>451.5</ele>
        <time>2015-11-29T08:50:40Z</time>
      </trkpt>
      <trkpt lat="43.51906" lon="3.06679">
        <ele>451.5</ele>
        <time>2015-11-29T08:50:41Z</time>
      </trkpt>
      <trkpt lat="43.51905" lon="3.06682">
        <ele>451.5</ele>
        <time>2015-11-29T08:50:42Z</time>
      </trkpt>
      <trkpt lat="43.51905" lon="3.06685">
        <ele>451.5</ele>
        <time>2015-11-29T08:50:43Z</time>
      </trkpt>
      <trkpt lat="43.51905" lon="3.06687">
        <ele>453</ele>
        <time>2015-11-29T08:50:44Z</time>
      </trkpt>
      <trkpt lat="43.51904" lon="3.0669">
        <ele>454.5</ele>
        <time>2015-11-29T08:50:45Z</time>
      </trkpt>
      <trkpt lat="43.51904" lon="3.06693">
        <ele>453.5</ele>
        <time>2015-11-29T08:50:46Z</time>
      </trkpt>
      <trkpt lat="43.51904" lon="3.06697">
        <ele>454</ele>
        <time>2015-11-29T08:50:47Z</time>
      </trkpt>
      <trkpt lat="43.51903" lon="3.067">
        <ele>454.5</ele>
        <time>2015-11-29T08:50:48Z</time>
      </trkpt>
      <trkpt lat="43.51902" lon="3.06702">
        <ele>453.5</ele>
        <time>2015-11-29T08:50:49Z</time>
      </trkpt>
      <trkpt lat="43.51901" lon="3.06704">
        <ele>451.5</ele>
        <time>2015-11-29T08:50:50Z</time>
      </trkpt>
      <trkpt lat="43.519" lon="3.06706">
        <ele>451.5</ele>
        <time>2015-11-29T08:50:51Z</time>
      </trkpt>
      <trkpt lat="43.51897" lon="3.06709">
        <ele>451</ele>
        <time>2015-11-29T08:50:52Z</time>
      </trkpt>
      <trkpt lat="43.51896" lon="3.06712">
        <ele>450.5</ele>
        <time>2015-11-29T08:50:53Z</time>
      </trkpt>
      <trkpt lat="43.51894" lon="3.06715">
        <ele>450</ele>
        <time>2015-11-29T08:50:54Z</time>
      </trkpt>
      <trkpt lat="43.51895" lon="3.06718">
        <ele>450</ele>
        <time>2015-11-29T08:50:55Z</time>
      </trkpt>
      <trkpt lat="43.51893" lon="3.06721">
        <ele>448</ele>
        <time>2015-11-29T08:50:56Z</time>
      </trkpt>
      <trkpt lat="43.51892" lon="3.06724">
        <ele>447.5</ele>
        <time>2015-11-29T08:50:57Z</time>
      </trkpt>
      <trkpt lat="43.5189" lon="3.06728">
        <ele>447</ele>
        <time>2015-11-29T08:50:58Z</time>
      </trkpt>
      <trkpt lat="43.51889" lon="3.06731">
        <ele>448.5</ele>
        <time>2015-11-29T08:50:59Z</time>
      </trkpt>
      <trkpt lat="43.51888" lon="3.06734">
        <ele>448</ele>
        <time>2015-11-29T08:51:00Z</time>
      </trkpt>
      <trkpt lat="43.51887" lon="3.06736">
        <ele>446.5</ele>
        <time>2015-11-29T08:51:01Z</time>
      </trkpt>
      <trkpt lat="43.51887" lon="3.06738">
        <ele>446.5</ele>
        <time>2015-11-29T08:51:02Z</time>
      </trkpt>
      <trkpt lat="43.51886" lon="3.06741">
        <ele>445.5</ele>
        <time>2015-11-29T08:51:03Z</time>
      </trkpt>
      <trkpt lat="43.51885" lon="3.06742">
        <ele>445.5</ele>
        <time>2015-11-29T08:51:04Z</time>
      </trkpt>
      <trkpt lat="43.51883" lon="3.06744">
        <ele>446</ele>
        <time>2015-11-29T08:51:05Z</time>
      </trkpt>
      <trkpt lat="43.51882" lon="3.06747">
        <ele>445.5</ele>
        <time>2015-11-29T08:51:06Z</time>
      </trkpt>
      <trkpt lat="43.51881" lon="3.06749">
        <ele>445.5</ele>
        <time>2015-11-29T08:51:07Z</time>
      </trkpt>
      <trkpt lat="43.5188" lon="3.06752">
        <ele>445</ele>
        <time>2015-11-29T08:51:08Z</time>
      </trkpt>
      <trkpt lat="43.5188" lon="3.06754">
        <ele>444.5</ele>
        <time>2015-11-29T08:51:09Z</time>
      </trkpt>
      <trkpt lat="43.5188" lon="3.06756">
        <ele>443.5</ele>
        <time>2015-11-29T08:51:10Z</time>
      </trkpt>
      <trkpt lat="43.51878" lon="3.0676">
        <ele>442</ele>
        <time>2015-11-29T08:51:11Z</time>
      </trkpt>
      <trkpt lat="43.51877" lon="3.06764">
        <ele>441</ele>
        <time>2015-11-29T08:51:12Z</time>
      </trkpt>
      <trkpt lat="43.51876" lon="3.06768">
        <ele>444</ele>
        <time>2015-11-29T08:51:13Z</time>
      </trkpt>
      <trkpt lat="43.51874" lon="3.06772">
        <ele>445</ele>
        <time>2015-11-29T08:51:14Z</time>
      </trkpt>
      <trkpt lat="43.51873" lon="3.06775">
        <ele>443.5</ele>
        <time>2015-11-29T08:51:15Z</time>
      </trkpt>
      <trkpt lat="43.51873" lon="3.06777">
        <ele>443</ele>
        <time>2015-11-29T08:51:16Z</time>
      </trkpt>
      <trkpt lat="43.51873" lon="3.06779">
        <ele>442.5</ele>
        <time>2015-11-29T08:51:17Z</time>
      </trkpt>
      <trkpt lat="43.51872" lon="3.06781">
        <ele>441</ele>
        <time>2015-11-29T08:51:18Z</time>
      </trkpt>
      <trkpt lat="43.51869" lon="3.06783">
        <ele>439</ele>
        <time>2015-11-29T08:51:19Z</time>
      </trkpt>
      <trkpt lat="43.51867" lon="3.06784">
        <ele>438</ele>
        <time>2015-11-29T08:51:20Z</time>
      </trkpt>
      <trkpt lat="43.51866" lon="3.06786">
        <ele>437.5</ele>
        <time>2015-11-29T08:51:21Z</time>
      </trkpt>
      <trkpt lat="43.51864" lon="3.06787">
        <ele>437</ele>
        <time>2015-11-29T08:51:22Z</time>
      </trkpt>
      <trkpt lat="43.51861" lon="3.06788">
        <ele>437</ele>
        <time>2015-11-29T08:51:23Z</time>
      </trkpt>
      <trkpt lat="43.51859" lon="3.06788">
        <ele>437</ele>
        <time>2015-11-29T08:51:24Z</time>
      </trkpt>
      <trkpt lat="43.51858" lon="3.06789">
        <ele>435.5</ele>
        <time>2015-11-29T08:51:25Z</time>
      </trkpt>
      <trkpt lat="43.51856" lon="3.0679">
        <ele>435.5</ele>
        <time>2015-11-29T08:51:26Z</time>
      </trkpt>
      <trkpt lat="43.51855" lon="3.06792">
        <ele>435.5</ele>
        <time>2015-11-29T08:51:27Z</time>
      </trkpt>
      <trkpt lat="43.51856" lon="3.06794">
        <ele>435</ele>
        <time>2015-11-29T08:51:28Z</time>
      </trkpt>
      <trkpt lat="43.51855" lon="3.06796">
        <ele>433.5</ele>
        <time>2015-11-29T08:51:29Z</time>
      </trkpt>
      <trkpt lat="43.51853" lon="3.06799">
        <ele>435</ele>
        <time>2015-11-29T08:51:30Z</time>
      </trkpt>
      <trkpt lat="43.5185" lon="3.06802">
        <ele>434.5</ele>
        <time>2015-11-29T08:51:31Z</time>
      </trkpt>
      <trkpt lat="43.51847" lon="3.06805">
        <ele>433</ele>
        <time>2015-11-29T08:51:32Z</time>
      </trkpt>
      <trkpt lat="43.51845" lon="3.06809">
        <ele>434.5</ele>
        <time>2015-11-29T08:51:33Z</time>
      </trkpt>
      <trkpt lat="43.51844" lon="3.06813">
        <ele>435.5</ele>
        <time>2015-11-29T08:51:34Z</time>
      </trkpt>
      <trkpt lat="43.51841" lon="3.06816">
        <ele>435.5</ele>
        <time>2015-11-29T08:51:34Z</time>
      </trkpt>
      <trkpt lat="43.51838" lon="3.0682">
        <ele>436</ele>
        <time>2015-11-29T08:51:35Z</time>
      </trkpt>
      <trkpt lat="43.51836" lon="3.06824">
        <ele>435.5</ele>
        <time>2015-11-29T08:51:36Z</time>
      </trkpt>
      <trkpt lat="43.51833" lon="3.06825">
        <ele>435.5</ele>
        <time>2015-11-29T08:51:37Z</time>
      </trkpt>
      <trkpt lat="43.51832" lon="3.06828">
        <ele>437</ele>
        <time>2015-11-29T08:51:38Z</time>
      </trkpt>
      <trkpt lat="43.51827" lon="3.06834">
        <ele>434.5</ele>
        <time>2015-11-29T08:51:40Z</time>
      </trkpt>
      <trkpt lat="43.51824" lon="3.06834">
        <ele>432.5</ele>
        <time>2015-11-29T08:51:41Z</time>
      </trkpt>
      <trkpt lat="43.51817" lon="3.0684">
        <ele>431.5</ele>
        <time>2015-11-29T08:51:43Z</time>
      </trkpt>
      <trkpt lat="43.51813" lon="3.06842">
        <ele>431</ele>
        <time>2015-11-29T08:51:44Z</time>
      </trkpt>
      <trkpt lat="43.51808" lon="3.06844">
        <ele>428.5</ele>
        <time>2015-11-29T08:51:45Z</time>
      </trkpt>
      <trkpt lat="43.51803" lon="3.06847">
        <ele>428.5</ele>
        <time>2015-11-29T08:51:46Z</time>
      </trkpt>
      <trkpt lat="43.518" lon="3.06849">
        <ele>427</ele>
        <time>2015-11-29T08:51:47Z</time>
      </trkpt>
      <trkpt lat="43.51798" lon="3.06851">
        <ele>427</ele>
        <time>2015-11-29T08:51:48Z</time>
      </trkpt>
      <trkpt lat="43.51796" lon="3.06853">
        <ele>425</ele>
        <time>2015-11-29T08:51:51Z</time>
      </trkpt>
      <trkpt lat="43.51794" lon="3.06853">
        <ele>425</ele>
        <time>2015-11-29T08:51:51Z</time>
      </trkpt>
      <trkpt lat="43.51793" lon="3.06854">
        <ele>425</ele>
        <time>2015-11-29T08:51:52Z</time>
      </trkpt>
      <trkpt lat="43.51791" lon="3.06854">
        <ele>425</ele>
        <time>2015-11-29T08:51:53Z</time>
      </trkpt>
      <trkpt lat="43.51782" lon="3.06857">
        <ele>420.5</ele>
        <time>2015-11-29T08:51:55Z</time>
      </trkpt>
      <trkpt lat="43.51777" lon="3.06859">
        <ele>419.5</ele>
        <time>2015-11-29T08:51:57Z</time>
      </trkpt>
      <trkpt lat="43.51772" lon="3.06862">
        <ele>418.5</ele>
        <time>2015-11-29T08:51:57Z</time>
      </trkpt>
      <trkpt lat="43.51768" lon="3.06865">
        <ele>418</ele>
        <time>2015-11-29T08:51:59Z</time>
      </trkpt>
      <trkpt lat="43.51763" lon="3.06868">
        <ele>417</ele>
        <time>2015-11-29T08:51:59Z</time>
      </trkpt>
      <trkpt lat="43.51759" lon="3.0687">
        <ele>417</ele>
        <time>2015-11-29T08:52:00Z</time>
      </trkpt>
      <trkpt lat="43.51756" lon="3.06872">
        <ele>415</ele>
        <time>2015-11-29T08:52:02Z</time>
      </trkpt>
      <trkpt lat="43.51753" lon="3.06876">
        <ele>413.5</ele>
        <time>2015-11-29T08:52:02Z</time>
      </trkpt>
      <trkpt lat="43.5175" lon="3.06878">
        <ele>413.5</ele>
        <time>2015-11-29T08:52:03Z</time>
      </trkpt>
      <trkpt lat="43.51743" lon="3.06885">
        <ele>414</ele>
        <time>2015-11-29T08:52:05Z</time>
      </trkpt>
      <trkpt lat="43.51739" lon="3.06885">
        <ele>414</ele>
        <time>2015-11-29T08:52:06Z</time>
      </trkpt>
      <trkpt lat="43.51732" lon="3.0689">
        <ele>411.5</ele>
        <time>2015-11-29T08:52:08Z</time>
      </trkpt>
      <trkpt lat="43.51729" lon="3.06891">
        <ele>411</ele>
        <time>2015-11-29T08:52:10Z</time>
      </trkpt>
      <trkpt lat="43.51726" lon="3.06892">
        <ele>409.5</ele>
        <time>2015-11-29T08:52:10Z</time>
      </trkpt>
      <trkpt lat="43.51724" lon="3.06893">
        <ele>407</ele>
        <time>2015-11-29T08:52:11Z</time>
      </trkpt>
      <trkpt lat="43.51723" lon="3.06895">
        <ele>406.5</ele>
        <time>2015-11-29T08:52:12Z</time>
      </trkpt>
      <trkpt lat="43.51721" lon="3.06896">
        <ele>405</ele>
        <time>2015-11-29T08:52:13Z</time>
      </trkpt>
      <trkpt lat="43.5172" lon="3.06899">
        <ele>403</ele>
        <time>2015-11-29T08:52:16Z</time>
      </trkpt>
      <trkpt lat="43.51717" lon="3.069">
        <ele>402.5</ele>
        <time>2015-11-29T08:52:18Z</time>
      </trkpt>
      <trkpt lat="43.51715" lon="3.069">
        <ele>402.5</ele>
        <time>2015-11-29T08:52:19Z</time>
      </trkpt>
      <trkpt lat="43.51712" lon="3.06901">
        <ele>401.5</ele>
        <time>2015-11-29T08:52:20Z</time>
      </trkpt>
      <trkpt lat="43.5171" lon="3.06902">
        <ele>401.5</ele>
        <time>2015-11-29T08:52:21Z</time>
      </trkpt>
      <trkpt lat="43.51708" lon="3.06902">
        <ele>401</ele>
        <time>2015-11-29T08:52:22Z</time>
      </trkpt>
      <trkpt lat="43.51707" lon="3.06903">
        <ele>402.5</ele>
        <time>2015-11-29T08:52:23Z</time>
      </trkpt>
      <trkpt lat="43.51706" lon="3.06905">
        <ele>402.5</ele>
        <time>2015-11-29T08:52:24Z</time>
      </trkpt>
      <trkpt lat="43.51705" lon="3.06907">
        <ele>402</ele>
        <time>2015-11-29T08:52:25Z</time>
      </trkpt>
      <trkpt lat="43.51704" lon="3.06908">
        <ele>402.5</ele>
        <time>2015-11-29T08:52:27Z</time>
      </trkpt>
      <trkpt lat="43.51703" lon="3.0691">
        <ele>402</ele>
        <time>2015-11-29T08:52:27Z</time>
      </trkpt>
      <trkpt lat="43.51699" lon="3.06918">
        <ele>400</ele>
        <time>2015-11-29T08:52:29Z</time>
      </trkpt>
      <trkpt lat="43.51698" lon="3.0692">
        <ele>400.5</ele>
        <time>2015-11-29T08:52:30Z</time>
      </trkpt>
      <trkpt lat="43.51698" lon="3.06922">
        <ele>401</ele>
        <time>2015-11-29T08:52:31Z</time>
      </trkpt>
      <trkpt lat="43.51697" lon="3.06924">
        <ele>401.5</ele>
        <time>2015-11-29T08:52:32Z</time>
      </trkpt>
      <trkpt lat="43.51696" lon="3.06927">
        <ele>403</ele>
        <time>2015-11-29T08:52:33Z</time>
      </trkpt>
      <trkpt lat="43.51696" lon="3.06929">
        <ele>402.5</ele>
        <time>2015-11-29T08:52:34Z</time>
      </trkpt>
      <trkpt lat="43.51696" lon="3.06929">
        <ele>402</ele>
        <time>2015-11-29T08:52:35Z</time>
      </trkpt>
      <trkpt lat="43.51696" lon="3.06928">
        <ele>401.5</ele>
        <time>2015-11-29T08:52:37Z</time>
      </trkpt>
      <trkpt lat="43.51694" lon="3.06929">
        <ele>400.5</ele>
        <time>2015-11-29T08:52:43Z</time>
      </trkpt>
      <trkpt lat="43.51693" lon="3.06931">
        <ele>398</ele>
        <time>2015-11-29T08:52:50Z</time>
      </trkpt>
      <trkpt lat="43.51692" lon="3.06935">
        <ele>396</ele>
        <time>2015-11-29T08:53:06Z</time>
      </trkpt>
      <trkpt lat="43.5169" lon="3.06938">
        <ele>394.5</ele>
        <time>2015-11-29T08:52:39Z</time>
      </trkpt>
      <trkpt lat="43.5169" lon="3.06939">
        <ele>395</ele>
        <time>2015-11-29T08:52:50Z</time>
      </trkpt>
      <trkpt lat="43.51689" lon="3.06942">
        <ele>395</ele>
        <time>2015-11-29T08:52:21Z</time>
      </trkpt>
      <trkpt lat="43.51689" lon="3.06942">
        <ele>394</ele>
        <time>2015-11-29T08:52:47Z</time>
      </trkpt>
      <trkpt lat="43.51687" lon="3.06943">
        <ele>395.5</ele>
        <time>2015-11-29T08:52:58Z</time>
      </trkpt>
      <trkpt lat="43.51687" lon="3.06944">
        <ele>395.5</ele>
        <time>2015-11-29T08:53:07Z</time>
      </trkpt>
      <trkpt lat="43.51688" lon="3.06943">
        <ele>394</ele>
        <time>2015-11-29T08:52:45Z</time>
      </trkpt>
      <trkpt lat="43.51689" lon="3.06943">
        <ele>393.5</ele>
        <time>2015-11-29T08:52:59Z</time>
      </trkpt>
      <trkpt lat="43.5169" lon="3.06945">
        <ele>394</ele>
        <time>2015-11-29T08:53:04Z</time>
      </trkpt>
      <trkpt lat="43.51689" lon="3.06945">
        <ele>394.5</ele>
        <time>2015-11-29T08:53:06Z</time>
      </trkpt>
      <trkpt lat="43.51691" lon="3.06945">
        <ele>396.5</ele>
        <time>2015-11-29T08:53:07Z</time>
      </trkpt>
      <trkpt lat="43.51691" lon="3.06946">
        <ele>397</ele>
        <time>2015-11-29T08:53:09Z</time>
      </trkpt>
      <trkpt lat="43.51691" lon="3.06947">
        <ele>397.5</ele>
        <time>2015-11-29T08:53:10Z</time>
      </trkpt>
      <trkpt lat="43.51691" lon="3.06948">
        <ele>397.5</ele>
        <time>2015-11-29T08:53:11Z</time>
      </trkpt>
      <trkpt lat="43.5169" lon="3.06948">
        <ele>397.5</ele>
        <time>2015-11-29T08:53:12Z</time>
      </trkpt>
      <trkpt lat="43.5169" lon="3.06948">
        <ele>397.5</ele>
        <time>2015-11-29T08:53:13Z</time>
      </trkpt>
      <trkpt lat="43.5169" lon="3.06948">
        <ele>397.5</ele>
        <time>2015-11-29T08:53:14Z</time>
      </trkpt>
      <trkpt lat="43.51689" lon="3.06948">
        <ele>397.5</ele>
        <time>2015-11-29T08:53:15Z</time>
      </trkpt>
      <trkpt lat="43.51688" lon="3.06948">
        <ele>398</ele>
        <time>2015-11-29T08:53:16Z</time>
      </trkpt>
      <trkpt lat="43.51687" lon="3.06948">
        <ele>397</ele>
        <time>2015-11-29T08:53:17Z</time>
      </trkpt>
      <trkpt lat="43.51684" lon="3.06947">
        <ele>396.5</ele>
        <time>2015-11-29T08:53:18Z</time>
      </trkpt>
      <trkpt lat="43.51679" lon="3.06949">
        <ele>396.5</ele>
        <time>2015-11-29T08:53:20Z</time>
      </trkpt>
      <trkpt lat="43.51676" lon="3.06951">
        <ele>394</ele>
        <time>2015-11-29T08:53:22Z</time>
      </trkpt>
      <trkpt lat="43.51676" lon="3.06953">
        <ele>394</ele>
        <time>2015-11-29T08:53:23Z</time>
      </trkpt>
      <trkpt lat="43.51677" lon="3.06955">
        <ele>394</ele>
        <time>2015-11-29T08:53:24Z</time>
      </trkpt>
      <trkpt lat="43.51677" lon="3.06958">
        <ele>393.5</ele>
        <time>2015-11-29T08:53:25Z</time>
      </trkpt>
      <trkpt lat="43.51677" lon="3.06961">
        <ele>394.5</ele>
        <time>2015-11-29T08:53:26Z</time>
      </trkpt>
      <trkpt lat="43.51676" lon="3.06963">
        <ele>394.5</ele>
        <time>2015-11-29T08:53:27Z</time>
      </trkpt>
      <trkpt lat="43.51675" lon="3.06965">
        <ele>394</ele>
        <time>2015-11-29T08:53:28Z</time>
      </trkpt>
      <trkpt lat="43.51674" lon="3.06965">
        <ele>395</ele>
        <time>2015-11-29T08:53:29Z</time>
      </trkpt>
      <trkpt lat="43.51668" lon="3.06971">
        <ele>395.5</ele>
        <time>2015-11-29T08:53:31Z</time>
      </trkpt>
      <trkpt lat="43.51664" lon="3.06973">
        <ele>395.5</ele>
        <time>2015-11-29T08:53:32Z</time>
      </trkpt>
      <trkpt lat="43.5166" lon="3.06976">
        <ele>396</ele>
        <time>2015-11-29T08:53:33Z</time>
      </trkpt>
      <trkpt lat="43.51655" lon="3.0698">
        <ele>397.5</ele>
        <time>2015-11-29T08:53:34Z</time>
      </trkpt>
      <trkpt lat="43.51646" lon="3.06991">
        <ele>396.5</ele>
        <time>2015-11-29T08:53:36Z</time>
      </trkpt>
      <trkpt lat="43.51642" lon="3.06991">
        <ele>394.5</ele>
        <time>2015-11-29T08:57:02Z</time>
      </trkpt>
      <trkpt lat="43.51641" lon="3.06992">
        <ele>394</ele>
        <time>2015-11-29T08:57:03Z</time>
      </trkpt>
      <trkpt lat="43.5164" lon="3.06993">
        <ele>393.5</ele>
        <time>2015-11-29T08:57:04Z</time>
      </trkpt>
      <trkpt lat="43.51637" lon="3.06996">
        <ele>392</ele>
        <time>2015-11-29T08:57:05Z</time>
      </trkpt>
      <trkpt lat="43.51635" lon="3.06997">
        <ele>391.5</ele>
        <time>2015-11-29T08:57:06Z</time>
      </trkpt>
      <trkpt lat="43.51631" lon="3.06999">
        <ele>391.5</ele>
        <time>2015-11-29T08:57:07Z</time>
      </trkpt>
      <trkpt lat="43.51627" lon="3.07002">
        <ele>389.5</ele>
        <time>2015-11-29T08:57:08Z</time>
      </trkpt>
      <trkpt lat="43.51623" lon="3.07006">
        <ele>389.5</ele>
        <time>2015-11-29T08:57:09Z</time>
      </trkpt>
      <trkpt lat="43.51617" lon="3.0701">
        <ele>389</ele>
        <time>2015-11-29T08:57:10Z</time>
      </trkpt>
      <trkpt lat="43.5161" lon="3.07015">
        <ele>389</ele>
        <time>2015-11-29T08:57:11Z</time>
      </trkpt>
      <trkpt lat="43.51604" lon="3.07019">
        <ele>388.5</ele>
        <time>2015-11-29T08:57:13Z</time>
      </trkpt>
      <trkpt lat="43.51601" lon="3.07018">
        <ele>388</ele>
        <time>2015-11-29T08:57:14Z</time>
      </trkpt>
      <trkpt lat="43.51598" lon="3.0702">
        <ele>387.5</ele>
        <time>2015-11-29T08:57:15Z</time>
      </trkpt>
      <trkpt lat="43.51596" lon="3.07021">
        <ele>387</ele>
        <time>2015-11-29T08:57:16Z</time>
      </trkpt>
      <trkpt lat="43.51594" lon="3.07023">
        <ele>385.5</ele>
        <time>2015-11-29T08:57:17Z</time>
      </trkpt>
      <trkpt lat="43.51591" lon="3.07026">
        <ele>383</ele>
        <time>2015-11-29T08:57:18Z</time>
      </trkpt>
      <trkpt lat="43.51589" lon="3.07027">
        <ele>382</ele>
        <time>2015-11-29T08:57:19Z</time>
      </trkpt>
      <trkpt lat="43.51585" lon="3.0703">
        <ele>380</ele>
        <time>2015-11-29T08:57:20Z</time>
      </trkpt>
      <trkpt lat="43.51583" lon="3.07031">
        <ele>379</ele>
        <time>2015-11-29T08:57:21Z</time>
      </trkpt>
      <trkpt lat="43.51581" lon="3.07031">
        <ele>378</ele>
        <time>2015-11-29T08:57:22Z</time>
      </trkpt>
      <trkpt lat="43.51572" lon="3.0703">
        <ele>374</ele>
        <time>2015-11-29T08:57:24Z</time>
      </trkpt>
      <trkpt lat="43.51568" lon="3.07029">
        <ele>372.5</ele>
        <time>2015-11-29T08:57:25Z</time>
      </trkpt>
      <trkpt lat="43.51565" lon="3.07028">
        <ele>371.5</ele>
        <time>2015-11-29T08:57:26Z</time>
      </trkpt>
      <trkpt lat="43.51563" lon="3.07027">
        <ele>370</ele>
        <time>2015-11-29T08:57:27Z</time>
      </trkpt>
      <trkpt lat="43.51562" lon="3.07026">
        <ele>369.5</ele>
        <time>2015-11-29T08:57:28Z</time>
      </trkpt>
      <trkpt lat="43.5156" lon="3.07024">
        <ele>369.5</ele>
        <time>2015-11-29T08:57:29Z</time>
      </trkpt>
      <trkpt lat="43.51558" lon="3.07022">
        <ele>369.5</ele>
        <time>2015-11-29T08:57:30Z</time>
      </trkpt>
      <trkpt lat="43.51556" lon="3.0702">
        <ele>369</ele>
        <time>2015-11-29T08:57:31Z</time>
      </trkpt>
      <trkpt lat="43.51558" lon="3.07016">
        <ele>366.5</ele>
        <time>2015-11-29T08:57:32Z</time>
      </trkpt>
      <trkpt lat="43.51556" lon="3.07014">
        <ele>366.5</ele>
        <time>2015-11-29T08:57:33Z</time>
      </trkpt>
      <trkpt lat="43.51554" lon="3.07012">
        <ele>366.5</ele>
        <time>2015-11-29T08:57:34Z</time>
      </trkpt>
      <trkpt lat="43.51553" lon="3.0701">
        <ele>365</ele>
        <time>2015-11-29T08:57:35Z</time>
      </trkpt>
      <trkpt lat="43.51552" lon="3.07007">
        <ele>364</ele>
        <time>2015-11-29T08:57:36Z</time>
      </trkpt>
      <trkpt lat="43.51551" lon="3.07004">
        <ele>364</ele>
        <time>2015-11-29T08:57:37Z</time>
      </trkpt>
      <trkpt lat="43.51549" lon="3.07002">
        <ele>363</ele>
        <time>2015-11-29T08:57:38Z</time>
      </trkpt>
      <trkpt lat="43.51547" lon="3.07001">
        <ele>362</ele>
        <time>2015-11-29T08:57:39Z</time>
      </trkpt>
      <trkpt lat="43.51542" lon="3.07006">
        <ele>363.5</ele>
        <time>2015-11-29T08:57:41Z</time>
      </trkpt>
      <trkpt lat="43.51536" lon="3.07011">
        <ele>363</ele>
        <time>2015-11-29T08:57:43Z</time>
      </trkpt>
      <trkpt lat="43.51535" lon="3.07014">
        <ele>363.5</ele>
        <time>2015-11-29T08:57:44Z</time>
      </trkpt>
      <trkpt lat="43.51532" lon="3.07018">
        <ele>365</ele>
        <time>2015-11-29T08:57:45Z</time>
      </trkpt>
      <trkpt lat="43.51528" lon="3.07021">
        <ele>363.5</ele>
        <time>2015-11-29T08:57:46Z</time>
      </trkpt>
      <trkpt lat="43.51525" lon="3.07024">
        <ele>361.5</ele>
        <time>2015-11-29T08:57:47Z</time>
      </trkpt>
      <trkpt lat="43.51522" lon="3.07026">
        <ele>360.5</ele>
        <time>2015-11-29T08:57:48Z</time>
      </trkpt>
      <trkpt lat="43.51518" lon="3.07028">
        <ele>360.5</ele>
        <time>2015-11-29T08:57:49Z</time>
      </trkpt>
      <trkpt lat="43.51516" lon="3.07028">
        <ele>360.5</ele>
        <time>2015-11-29T08:57:50Z</time>
      </trkpt>
      <trkpt lat="43.51513" lon="3.07029">
        <ele>360.5</ele>
        <time>2015-11-29T08:57:51Z</time>
      </trkpt>
      <trkpt lat="43.51511" lon="3.07028">
        <ele>359.5</ele>
        <time>2015-11-29T08:57:52Z</time>
      </trkpt>
      <trkpt lat="43.51509" lon="3.07028">
        <ele>360</ele>
        <time>2015-11-29T08:57:53Z</time>
      </trkpt>
      <trkpt lat="43.51507" lon="3.07029">
        <ele>359</ele>
        <time>2015-11-29T08:57:54Z</time>
      </trkpt>
      <trkpt lat="43.51505" lon="3.07029">
        <ele>357.5</ele>
        <time>2015-11-29T08:57:55Z</time>
      </trkpt>
      <trkpt lat="43.51502" lon="3.07031">
        <ele>356.5</ele>
        <time>2015-11-29T08:57:56Z</time>
      </trkpt>
      <trkpt lat="43.51497" lon="3.07036">
        <ele>357.5</ele>
        <time>2015-11-29T08:57:58Z</time>
      </trkpt>
      <trkpt lat="43.51497" lon="3.07038">
        <ele>356.5</ele>
        <time>2015-11-29T08:57:59Z</time>
      </trkpt>
      <trkpt lat="43.51497" lon="3.07039">
        <ele>356</ele>
        <time>2015-11-29T08:58:00Z</time>
      </trkpt>
      <trkpt lat="43.51496" lon="3.07039">
        <ele>353.5</ele>
        <time>2015-11-29T08:58:15Z</time>
      </trkpt>
      <trkpt lat="43.51496" lon="3.07041">
        <ele>352.5</ele>
        <time>2015-11-29T08:58:17Z</time>
      </trkpt>
      <trkpt lat="43.51495" lon="3.07042">
        <ele>352</ele>
        <time>2015-11-29T08:58:22Z</time>
      </trkpt>
      <trkpt lat="43.51493" lon="3.07042">
        <ele>351.5</ele>
        <time>2015-11-29T08:58:25Z</time>
      </trkpt>
      <trkpt lat="43.51494" lon="3.07042">
        <ele>353</ele>
        <time>2015-11-29T08:58:26Z</time>
      </trkpt>
      <trkpt lat="43.51494" lon="3.07043">
        <ele>348</ele>
        <time>2015-11-29T08:58:32Z</time>
      </trkpt>
      <trkpt lat="43.51491" lon="3.07043">
        <ele>345.5</ele>
        <time>2015-11-29T08:58:47Z</time>
      </trkpt>
      <trkpt lat="43.51489" lon="3.07043">
        <ele>343.5</ele>
        <time>2015-11-29T08:58:59Z</time>
      </trkpt>
      <trkpt lat="43.51486" lon="3.07044">
        <ele>343</ele>
        <time>2015-11-29T08:59:02Z</time>
      </trkpt>
      <trkpt lat="43.51484" lon="3.07047">
        <ele>339.5</ele>
        <time>2015-11-29T08:59:07Z</time>
      </trkpt>
      <trkpt lat="43.51485" lon="3.07048">
        <ele>339.5</ele>
        <time>2015-11-29T08:59:09Z</time>
      </trkpt>
      <trkpt lat="43.51485" lon="3.07049">
        <ele>340</ele>
        <time>2015-11-29T08:59:10Z</time>
      </trkpt>
      <trkpt lat="43.51485" lon="3.07051">
        <ele>340</ele>
        <time>2015-11-29T08:59:11Z</time>
      </trkpt>
      <trkpt lat="43.51486" lon="3.07052">
        <ele>339.5</ele>
        <time>2015-11-29T08:59:12Z</time>
      </trkpt>
      <trkpt lat="43.51487" lon="3.07054">
        <ele>340</ele>
        <time>2015-11-29T08:59:13Z</time>
      </trkpt>
      <trkpt lat="43.51488" lon="3.07057">
        <ele>340</ele>
        <time>2015-11-29T08:59:14Z</time>
      </trkpt>
      <trkpt lat="43.51489" lon="3.07059">
        <ele>339.5</ele>
        <time>2015-11-29T08:59:15Z</time>
      </trkpt>
      <trkpt lat="43.5149" lon="3.07062">
        <ele>339.5</ele>
        <time>2015-11-29T08:59:16Z</time>
      </trkpt>
      <trkpt lat="43.51491" lon="3.07065">
        <ele>340</ele>
        <time>2015-11-29T08:59:17Z</time>
      </trkpt>
      <trkpt lat="43.51492" lon="3.07068">
        <ele>340</ele>
        <time>2015-11-29T08:59:18Z</time>
      </trkpt>
      <trkpt lat="43.51494" lon="3.07071">
        <ele>341</ele>
        <time>2015-11-29T08:59:19Z</time>
      </trkpt>
      <trkpt lat="43.51495" lon="3.07075">
        <ele>341.5</ele>
        <time>2015-11-29T08:59:20Z</time>
      </trkpt>
      <trkpt lat="43.51497" lon="3.07078">
        <ele>342.5</ele>
        <time>2015-11-29T08:59:21Z</time>
      </trkpt>
      <trkpt lat="43.51498" lon="3.07081">
        <ele>341.5</ele>
        <time>2015-11-29T08:59:22Z</time>
      </trkpt>
      <trkpt lat="43.515" lon="3.07084">
        <ele>342</ele>
        <time>2015-11-29T08:59:23Z</time>
      </trkpt>
      <trkpt lat="43.51501" lon="3.07087">
        <ele>342.5</ele>
        <time>2015-11-29T08:59:24Z</time>
      </trkpt>
      <trkpt lat="43.51502" lon="3.0709">
        <ele>342.5</ele>
        <time>2015-11-29T08:59:25Z</time>
      </trkpt>
      <trkpt lat="43.51504" lon="3.07093">
        <ele>342.5</ele>
        <time>2015-11-29T08:59:25Z</time>
      </trkpt>
      <trkpt lat="43.51505" lon="3.07096">
        <ele>342</ele>
        <time>2015-11-29T08:59:27Z</time>
      </trkpt>
      <trkpt lat="43.51506" lon="3.07099">
        <ele>341</ele>
        <time>2015-11-29T08:59:27Z</time>
      </trkpt>
      <trkpt lat="43.51508" lon="3.07102">
        <ele>340.5</ele>
        <time>2015-11-29T08:59:29Z</time>
      </trkpt>
      <trkpt lat="43.51509" lon="3.07105">
        <ele>340.5</ele>
        <time>2015-11-29T08:59:29Z</time>
      </trkpt>
      <trkpt lat="43.51511" lon="3.07108">
        <ele>340.5</ele>
        <time>2015-11-29T08:59:30Z</time>
      </trkpt>
      <trkpt lat="43.51512" lon="3.07111">
        <ele>341</ele>
        <time>2015-11-29T08:59:31Z</time>
      </trkpt>
      <trkpt lat="43.51514" lon="3.07113">
        <ele>342</ele>
        <time>2015-11-29T08:59:32Z</time>
      </trkpt>
      <trkpt lat="43.51515" lon="3.07116">
        <ele>342.5</ele>
        <time>2015-11-29T08:59:33Z</time>
      </trkpt>
      <trkpt lat="43.51516" lon="3.07118">
        <ele>343</ele>
        <time>2015-11-29T08:59:34Z</time>
      </trkpt>
      <trkpt lat="43.51518" lon="3.07121">
        <ele>344</ele>
        <time>2015-11-29T08:59:35Z</time>
      </trkpt>
      <trkpt lat="43.51519" lon="3.07123">
        <ele>344.5</ele>
        <time>2015-11-29T08:59:36Z</time>
      </trkpt>
      <trkpt lat="43.51521" lon="3.07125">
        <ele>345</ele>
        <time>2015-11-29T08:59:37Z</time>
      </trkpt>
      <trkpt lat="43.51523" lon="3.07127">
        <ele>345.5</ele>
        <time>2015-11-29T08:59:38Z</time>
      </trkpt>
      <trkpt lat="43.51525" lon="3.07129">
        <ele>346</ele>
        <time>2015-11-29T08:59:39Z</time>
      </trkpt>
      <trkpt lat="43.51526" lon="3.07131">
        <ele>348</ele>
        <time>2015-11-29T08:59:41Z</time>
      </trkpt>
      <trkpt lat="43.51529" lon="3.07132">
        <ele>349.5</ele>
        <time>2015-11-29T08:59:41Z</time>
      </trkpt>
      <trkpt lat="43.51531" lon="3.07134">
        <ele>350</ele>
        <time>2015-11-29T08:59:42Z</time>
      </trkpt>
      <trkpt lat="43.51533" lon="3.07135">
        <ele>351</ele>
        <time>2015-11-29T08:59:43Z</time>
      </trkpt>
      <trkpt lat="43.51536" lon="3.07137">
        <ele>352</ele>
        <time>2015-11-29T08:59:44Z</time>
      </trkpt>
      <trkpt lat="43.51539" lon="3.07138">
        <ele>353.5</ele>
        <time>2015-11-29T08:59:45Z</time>
      </trkpt>
      <trkpt lat="43.51541" lon="3.07139">
        <ele>354.5</ele>
        <time>2015-11-29T08:59:46Z</time>
      </trkpt>
      <trkpt lat="43.51544" lon="3.0714">
        <ele>355.5</ele>
        <time>2015-11-29T08:59:47Z</time>
      </trkpt>
      <trkpt lat="43.51546" lon="3.07141">
        <ele>356</ele>
        <time>2015-11-29T08:59:48Z</time>
      </trkpt>
      <trkpt lat="43.51549" lon="3.07141">
        <ele>357</ele>
        <time>2015-11-29T08:59:49Z</time>
      </trkpt>
      <trkpt lat="43.51551" lon="3.07142">
        <ele>357.5</ele>
        <time>2015-11-29T08:59:50Z</time>
      </trkpt>
      <trkpt lat="43.51554" lon="3.07143">
        <ele>358.5</ele>
        <time>2015-11-29T08:59:52Z</time>
      </trkpt>
      <trkpt lat="43.51556" lon="3.07144">
        <ele>359.5</ele>
        <time>2015-11-29T08:59:52Z</time>
      </trkpt>
      <trkpt lat="43.51558" lon="3.07145">
        <ele>360.5</ele>
        <time>2015-11-29T08:59:53Z</time>
      </trkpt>
      <trkpt lat="43.51561" lon="3.07146">
        <ele>361</ele>
        <time>2015-11-29T08:59:54Z</time>
      </trkpt>
      <trkpt lat="43.51564" lon="3.07147">
        <ele>361.5</ele>
        <time>2015-11-29T08:59:55Z</time>
      </trkpt>
      <trkpt lat="43.51566" lon="3.07148">
        <ele>361.5</ele>
        <time>2015-11-29T08:59:56Z</time>
      </trkpt>
      <trkpt lat="43.51569" lon="3.07149">
        <ele>362</ele>
        <time>2015-11-29T08:59:57Z</time>
      </trkpt>
      <trkpt lat="43.51572" lon="3.0715">
        <ele>362</ele>
        <time>2015-11-29T08:59:58Z</time>
      </trkpt>
      <trkpt lat="43.51575" lon="3.07152">
        <ele>361.5</ele>
        <time>2015-11-29T08:59:59Z</time>
      </trkpt>
      <trkpt lat="43.51578" lon="3.07153">
        <ele>361</ele>
        <time>2015-11-29T09:00:00Z</time>
      </trkpt>
      <trkpt lat="43.51581" lon="3.07154">
        <ele>361.5</ele>
        <time>2015-11-29T09:00:01Z</time>
      </trkpt>
      <trkpt lat="43.51585" lon="3.07155">
        <ele>361.5</ele>
        <time>2015-11-29T09:00:02Z</time>
      </trkpt>
      <trkpt lat="43.51588" lon="3.07156">
        <ele>361.5</ele>
        <time>2015-11-29T09:00:03Z</time>
      </trkpt>
      <trkpt lat="43.51592" lon="3.07156">
        <ele>361.5</ele>
        <time>2015-11-29T09:00:04Z</time>
      </trkpt>
      <trkpt lat="43.51595" lon="3.07157">
        <ele>361.5</ele>
        <time>2015-11-29T09:00:05Z</time>
      </trkpt>
      <trkpt lat="43.51599" lon="3.07158">
        <ele>360.5</ele>
        <time>2015-11-29T09:00:06Z</time>
      </trkpt>
      <trkpt lat="43.51603" lon="3.07158">
        <ele>360.5</ele>
        <time>2015-11-29T09:00:07Z</time>
      </trkpt>
      <trkpt lat="43.51606" lon="3.07158">
        <ele>360.5</ele>
        <time>2015-11-29T09:00:08Z</time>
      </trkpt>
      <trkpt lat="43.51609" lon="3.07157">
        <ele>360.5</ele>
        <time>2015-11-29T09:00:09Z</time>
      </trkpt>
      <trkpt lat="43.51613" lon="3.07157">
        <ele>360.5</ele>
        <time>2015-11-29T09:00:10Z</time>
      </trkpt>
      <trkpt lat="43.51617" lon="3.07156">
        <ele>360.5</ele>
        <time>2015-11-29T09:00:11Z</time>
      </trkpt>
      <trkpt lat="43.5162" lon="3.07155">
        <ele>361</ele>
        <time>2015-11-29T09:00:12Z</time>
      </trkpt>
      <trkpt lat="43.51624" lon="3.07154">
        <ele>361</ele>
        <time>2015-11-29T09:00:14Z</time>
      </trkpt>
      <trkpt lat="43.51628" lon="3.07153">
        <ele>361</ele>
        <time>2015-11-29T09:00:14Z</time>
      </trkpt>
      <trkpt lat="43.51631" lon="3.07152">
        <ele>361.5</ele>
        <time>2015-11-29T09:00:15Z</time>
      </trkpt>
      <trkpt lat="43.51634" lon="3.0715">
        <ele>361</ele>
        <time>2015-11-29T09:00:17Z</time>
      </trkpt>
      <trkpt lat="43.51638" lon="3.07148">
        <ele>360.5</ele>
        <time>2015-11-29T09:00:17Z</time>
      </trkpt>
      <trkpt lat="43.51641" lon="3.07147">
        <ele>360.5</ele>
        <time>2015-11-29T09:00:18Z</time>
      </trkpt>
      <trkpt lat="43.51645" lon="3.07146">
        <ele>360.5</ele>
        <time>2015-11-29T09:00:19Z</time>
      </trkpt>
      <trkpt lat="43.51648" lon="3.07144">
        <ele>361</ele>
        <time>2015-11-29T09:00:20Z</time>
      </trkpt>
      <trkpt lat="43.51651" lon="3.07142">
        <ele>361.5</ele>
        <time>2015-11-29T09:00:21Z</time>
      </trkpt>
      <trkpt lat="43.51655" lon="3.07141">
        <ele>361.5</ele>
        <time>2015-11-29T09:00:22Z</time>
      </trkpt>
      <trkpt lat="43.51658" lon="3.0714">
        <ele>360.5</ele>
        <time>2015-11-29T09:00:23Z</time>
      </trkpt>
      <trkpt lat="43.51662" lon="3.07139">
        <ele>360.5</ele>
        <time>2015-11-29T09:00:24Z</time>
      </trkpt>
      <trkpt lat="43.51666" lon="3.07138">
        <ele>360.5</ele>
        <time>2015-11-29T09:00:25Z</time>
      </trkpt>
      <trkpt lat="43.51669" lon="3.07138">
        <ele>360</ele>
        <time>2015-11-29T09:00:26Z</time>
      </trkpt>
      <trkpt lat="43.51673" lon="3.07137">
        <ele>360.5</ele>
        <time>2015-11-29T09:00:27Z</time>
      </trkpt>
      <trkpt lat="43.51677" lon="3.07136">
        <ele>360.5</ele>
        <time>2015-11-29T09:00:28Z</time>
      </trkpt>
      <trkpt lat="43.5168" lon="3.07135">
        <ele>360.5</ele>
        <time>2015-11-29T09:00:29Z</time>
      </trkpt>
      <trkpt lat="43.51684" lon="3.07134">
        <ele>360</ele>
        <time>2015-11-29T09:00:30Z</time>
      </trkpt>
      <trkpt lat="43.51688" lon="3.07133">
        <ele>360</ele>
        <time>2015-11-29T09:00:31Z</time>
      </trkpt>
      <trkpt lat="43.51692" lon="3.07131">
        <ele>359.5</ele>
        <time>2015-11-29T09:00:32Z</time>
      </trkpt>
      <trkpt lat="43.51695" lon="3.0713">
        <ele>359</ele>
        <time>2015-11-29T09:00:33Z</time>
      </trkpt>
      <trkpt lat="43.51699" lon="3.07128">
        <ele>358.5</ele>
        <time>2015-11-29T09:00:34Z</time>
      </trkpt>
      <trkpt lat="43.51703" lon="3.07127">
        <ele>357.5</ele>
        <time>2015-11-29T09:00:35Z</time>
      </trkpt>
      <trkpt lat="43.51707" lon="3.07125">
        <ele>357</ele>
        <time>2015-11-29T09:00:36Z</time>
      </trkpt>
      <trkpt lat="43.51711" lon="3.07123">
        <ele>357</ele>
        <time>2015-11-29T09:00:37Z</time>
      </trkpt>
      <trkpt lat="43.51715" lon="3.07121">
        <ele>357.5</ele>
        <time>2015-11-29T09:00:38Z</time>
      </trkpt>
      <trkpt lat="43.51719" lon="3.07119">
        <ele>357.5</ele>
        <time>2015-11-29T09:00:39Z</time>
      </trkpt>
      <trkpt lat="43.51723" lon="3.07117">
        <ele>357</ele>
        <time>2015-11-29T09:00:40Z</time>
      </trkpt>
      <trkpt lat="43.51727" lon="3.07115">
        <ele>357.5</ele>
        <time>2015-11-29T09:00:41Z</time>
      </trkpt>
      <trkpt lat="43.5173" lon="3.07113">
        <ele>357.5</ele>
        <time>2015-11-29T09:00:42Z</time>
      </trkpt>
      <trkpt lat="43.51733" lon="3.07111">
        <ele>357</ele>
        <time>2015-11-29T09:00:43Z</time>
      </trkpt>
      <trkpt lat="43.51736" lon="3.07109">
        <ele>358</ele>
        <time>2015-11-29T09:00:44Z</time>
      </trkpt>
      <trkpt lat="43.51739" lon="3.07106">
        <ele>358.5</ele>
        <time>2015-11-29T09:00:45Z</time>
      </trkpt>
      <trkpt lat="43.51743" lon="3.07105">
        <ele>359</ele>
        <time>2015-11-29T09:00:46Z</time>
      </trkpt>
      <trkpt lat="43.51745" lon="3.07103">
        <ele>358</ele>
        <time>2015-11-29T09:00:47Z</time>
      </trkpt>
      <trkpt lat="43.51748" lon="3.07102">
        <ele>358</ele>
        <time>2015-11-29T09:00:48Z</time>
      </trkpt>
      <trkpt lat="43.5175" lon="3.07101">
        <ele>358.5</ele>
        <time>2015-11-29T09:00:49Z</time>
      </trkpt>
      <trkpt lat="43.51752" lon="3.071">
        <ele>358.5</ele>
        <time>2015-11-29T09:00:50Z</time>
      </trkpt>
      <trkpt lat="43.51755" lon="3.07099">
        <ele>358.5</ele>
        <time>2015-11-29T09:00:51Z</time>
      </trkpt>
      <trkpt lat="43.51758" lon="3.07098">
        <ele>358.5</ele>
        <time>2015-11-29T09:00:52Z</time>
      </trkpt>
      <trkpt lat="43.51761" lon="3.07097">
        <ele>358.5</ele>
        <time>2015-11-29T09:00:53Z</time>
      </trkpt>
      <trkpt lat="43.51764" lon="3.07096">
        <ele>358</ele>
        <time>2015-11-29T09:00:54Z</time>
      </trkpt>
      <trkpt lat="43.51766" lon="3.07094">
        <ele>358</ele>
        <time>2015-11-29T09:00:55Z</time>
      </trkpt>
      <trkpt lat="43.51769" lon="3.07093">
        <ele>358</ele>
        <time>2015-11-29T09:00:56Z</time>
      </trkpt>
      <trkpt lat="43.51771" lon="3.07092">
        <ele>358</ele>
        <time>2015-11-29T09:00:57Z</time>
      </trkpt>
      <trkpt lat="43.51774" lon="3.0709">
        <ele>359</ele>
        <time>2015-11-29T09:00:58Z</time>
      </trkpt>
      <trkpt lat="43.51776" lon="3.07089">
        <ele>359</ele>
        <time>2015-11-29T09:00:59Z</time>
      </trkpt>
      <trkpt lat="43.51779" lon="3.07087">
        <ele>359.5</ele>
        <time>2015-11-29T09:01:00Z</time>
      </trkpt>
      <trkpt lat="43.51782" lon="3.07086">
        <ele>359.5</ele>
        <time>2015-11-29T09:01:01Z</time>
      </trkpt>
      <trkpt lat="43.51785" lon="3.07084">
        <ele>359</ele>
        <time>2015-11-29T09:01:02Z</time>
      </trkpt>
      <trkpt lat="43.51788" lon="3.07083">
        <ele>359</ele>
        <time>2015-11-29T09:01:03Z</time>
      </trkpt>
      <trkpt lat="43.51791" lon="3.07081">
        <ele>360</ele>
        <time>2015-11-29T09:01:04Z</time>
      </trkpt>
      <trkpt lat="43.51794" lon="3.0708">
        <ele>360</ele>
        <time>2015-11-29T09:01:05Z</time>
      </trkpt>
      <trkpt lat="43.51797" lon="3.07079">
        <ele>360</ele>
        <time>2015-11-29T09:01:06Z</time>
      </trkpt>
      <trkpt lat="43.518" lon="3.07077">
        <ele>360</ele>
        <time>2015-11-29T09:01:07Z</time>
      </trkpt>
      <trkpt lat="43.51802" lon="3.07076">
        <ele>360</ele>
        <time>2015-11-29T09:01:08Z</time>
      </trkpt>
      <trkpt lat="43.51805" lon="3.07076">
        <ele>360.5</ele>
        <time>2015-11-29T09:01:09Z</time>
      </trkpt>
      <trkpt lat="43.51808" lon="3.07075">
        <ele>361</ele>
        <time>2015-11-29T09:01:10Z</time>
      </trkpt>
      <trkpt lat="43.51811" lon="3.07074">
        <ele>362</ele>
        <time>2015-11-29T09:01:11Z</time>
      </trkpt>
      <trkpt lat="43.51814" lon="3.07074">
        <ele>362.5</ele>
        <time>2015-11-29T09:01:12Z</time>
      </trkpt>
      <trkpt lat="43.51818" lon="3.07074">
        <ele>361</ele>
        <time>2015-11-29T09:01:13Z</time>
      </trkpt>
      <trkpt lat="43.51821" lon="3.07074">
        <ele>360</ele>
        <time>2015-11-29T09:01:14Z</time>
      </trkpt>
      <trkpt lat="43.51825" lon="3.07074">
        <ele>359.5</ele>
        <time>2015-11-29T09:01:15Z</time>
      </trkpt>
      <trkpt lat="43.51828" lon="3.07074">
        <ele>359</ele>
        <time>2015-11-29T09:01:16Z</time>
      </trkpt>
      <trkpt lat="43.51831" lon="3.07074">
        <ele>358.5</ele>
        <time>2015-11-29T09:01:17Z</time>
      </trkpt>
      <trkpt lat="43.51835" lon="3.07074">
        <ele>358.5</ele>
        <time>2015-11-29T09:01:18Z</time>
      </trkpt>
      <trkpt lat="43.51838" lon="3.07074">
        <ele>358.5</ele>
        <time>2015-11-29T09:01:19Z</time>
      </trkpt>
      <trkpt lat="43.51841" lon="3.07073">
        <ele>359.5</ele>
        <time>2015-11-29T09:01:20Z</time>
      </trkpt>
      <trkpt lat="43.51844" lon="3.07073">
        <ele>359.5</ele>
        <time>2015-11-29T09:01:21Z</time>
      </trkpt>
      <trkpt lat="43.51847" lon="3.07073">
        <ele>359.5</ele>
        <time>2015-11-29T09:01:22Z</time>
      </trkpt>
      <trkpt lat="43.5185" lon="3.07073">
        <ele>359.5</ele>
        <time>2015-11-29T09:01:23Z</time>
      </trkpt>
      <trkpt lat="43.51853" lon="3.07072">
        <ele>359.5</ele>
        <time>2015-11-29T09:01:24Z</time>
      </trkpt>
      <trkpt lat="43.51856" lon="3.07072">
        <ele>359.5</ele>
        <time>2015-11-29T09:01:25Z</time>
      </trkpt>
      <trkpt lat="43.51859" lon="3.07072">
        <ele>360.5</ele>
        <time>2015-11-29T09:01:26Z</time>
      </trkpt>
      <trkpt lat="43.51862" lon="3.07071">
        <ele>360.5</ele>
        <time>2015-11-29T09:01:27Z</time>
      </trkpt>
      <trkpt lat="43.51866" lon="3.07071">
        <ele>361</ele>
        <time>2015-11-29T09:01:28Z</time>
      </trkpt>
      <trkpt lat="43.5187" lon="3.07071">
        <ele>361</ele>
        <time>2015-11-29T09:01:29Z</time>
      </trkpt>
      <trkpt lat="43.51874" lon="3.0707">
        <ele>361</ele>
        <time>2015-11-29T09:01:30Z</time>
      </trkpt>
      <trkpt lat="43.51877" lon="3.07069">
        <ele>361</ele>
        <time>2015-11-29T09:01:31Z</time>
      </trkpt>
      <trkpt lat="43.5188" lon="3.07067">
        <ele>361</ele>
        <time>2015-11-29T09:01:32Z</time>
      </trkpt>
      <trkpt lat="43.51884" lon="3.07065">
        <ele>360</ele>
        <time>2015-11-29T09:01:33Z</time>
      </trkpt>
      <trkpt lat="43.51887" lon="3.07063">
        <ele>360</ele>
        <time>2015-11-29T09:01:34Z</time>
      </trkpt>
      <trkpt lat="43.5189" lon="3.07061">
        <ele>360</ele>
        <time>2015-11-29T09:01:35Z</time>
      </trkpt>
      <trkpt lat="43.51893" lon="3.07059">
        <ele>360.5</ele>
        <time>2015-11-29T09:01:36Z</time>
      </trkpt>
      <trkpt lat="43.51895" lon="3.07056">
        <ele>361</ele>
        <time>2015-11-29T09:01:37Z</time>
      </trkpt>
      <trkpt lat="43.51898" lon="3.07053">
        <ele>361</ele>
        <time>2015-11-29T09:01:38Z</time>
      </trkpt>
      <trkpt lat="43.519" lon="3.07051">
        <ele>360.5</ele>
        <time>2015-11-29T09:01:39Z</time>
      </trkpt>
      <trkpt lat="43.51903" lon="3.07048">
        <ele>360.5</ele>
        <time>2015-11-29T09:01:40Z</time>
      </trkpt>
      <trkpt lat="43.51906" lon="3.07045">
        <ele>361</ele>
        <time>2015-11-29T09:01:41Z</time>
      </trkpt>
      <trkpt lat="43.5191" lon="3.07044">
        <ele>361.5</ele>
        <time>2015-11-29T09:01:42Z</time>
      </trkpt>
      <trkpt lat="43.51913" lon="3.07045">
        <ele>361.5</ele>
        <time>2015-11-29T09:01:43Z</time>
      </trkpt>
      <trkpt lat="43.51917" lon="3.0705">
        <ele>359.5</ele>
        <time>2015-11-29T09:01:44Z</time>
      </trkpt>
      <trkpt lat="43.51919" lon="3.07053">
        <ele>360</ele>
        <time>2015-11-29T09:01:45Z</time>
      </trkpt>
      <trkpt lat="43.5192" lon="3.07057">
        <ele>360</ele>
        <time>2015-11-29T09:01:46Z</time>
      </trkpt>
      <trkpt lat="43.51921" lon="3.0706">
        <ele>361</ele>
        <time>2015-11-29T09:01:47Z</time>
      </trkpt>
      <trkpt lat="43.51921" lon="3.07064">
        <ele>362</ele>
        <time>2015-11-29T09:01:48Z</time>
      </trkpt>
      <trkpt lat="43.51921" lon="3.07069">
        <ele>362</ele>
        <time>2015-11-29T09:01:49Z</time>
      </trkpt>
      <trkpt lat="43.51919" lon="3.07073">
        <ele>361.5</ele>
        <time>2015-11-29T09:01:50Z</time>
      </trkpt>
      <trkpt lat="43.51917" lon="3.07078">
        <ele>361.5</ele>
        <time>2015-11-29T09:01:51Z</time>
      </trkpt>
      <trkpt lat="43.51915" lon="3.07081">
        <ele>362</ele>
        <time>2015-11-29T09:01:52Z</time>
      </trkpt>
      <trkpt lat="43.51913" lon="3.07085">
        <ele>362</ele>
        <time>2015-11-29T09:01:53Z</time>
      </trkpt>
      <trkpt lat="43.5191" lon="3.07088">
        <ele>363</ele>
        <time>2015-11-29T09:01:54Z</time>
      </trkpt>
      <trkpt lat="43.51907" lon="3.07091">
        <ele>363</ele>
        <time>2015-11-29T09:01:55Z</time>
      </trkpt>
      <trkpt lat="43.51904" lon="3.07095">
        <ele>362.5</ele>
        <time>2015-11-29T09:01:56Z</time>
      </trkpt>
      <trkpt lat="43.51902" lon="3.07098">
        <ele>361</ele>
        <time>2015-11-29T09:01:57Z</time>
      </trkpt>
      <trkpt lat="43.51899" lon="3.07102">
        <ele>360</ele>
        <time>2015-11-29T09:01:58Z</time>
      </trkpt>
      <trkpt lat="43.51896" lon="3.07105">
        <ele>360.5</ele>
        <time>2015-11-29T09:01:59Z</time>
      </trkpt>
      <trkpt lat="43.51893" lon="3.07108">
        <ele>361</ele>
        <time>2015-11-29T09:02:00Z</time>
      </trkpt>
      <trkpt lat="43.5189" lon="3.07111">
        <ele>361</ele>
        <time>2015-11-29T09:02:01Z</time>
      </trkpt>
      <trkpt lat="43.51885" lon="3.07115">
        <ele>360.5</ele>
        <time>2015-11-29T09:02:03Z</time>
      </trkpt>
      <trkpt lat="43.51881" lon="3.07118">
        <ele>360</ele>
        <time>2015-11-29T09:02:04Z</time>
      </trkpt>
      <trkpt lat="43.51878" lon="3.0712">
        <ele>360.5</ele>
        <time>2015-11-29T09:02:05Z</time>
      </trkpt>
      <trkpt lat="43.51874" lon="3.07123">
        <ele>360</ele>
        <time>2015-11-29T09:02:06Z</time>
      </trkpt>
      <trkpt lat="43.51871" lon="3.07126">
        <ele>360</ele>
        <time>2015-11-29T09:02:07Z</time>
      </trkpt>
      <trkpt lat="43.51867" lon="3.07129">
        <ele>360.5</ele>
        <time>2015-11-29T09:02:08Z</time>
      </trkpt>
      <trkpt lat="43.51864" lon="3.07132">
        <ele>360.5</ele>
        <time>2015-11-29T09:02:09Z</time>
      </trkpt>
      <trkpt lat="43.5186" lon="3.07134">
        <ele>360.5</ele>
        <time>2015-11-29T09:02:10Z</time>
      </trkpt>
      <trkpt lat="43.51856" lon="3.07137">
        <ele>360</ele>
        <time>2015-11-29T09:02:11Z</time>
      </trkpt>
      <trkpt lat="43.51852" lon="3.07139">
        <ele>360</ele>
        <time>2015-11-29T09:02:12Z</time>
      </trkpt>
      <trkpt lat="43.51849" lon="3.07142">
        <ele>360.5</ele>
        <time>2015-11-29T09:02:13Z</time>
      </trkpt>
      <trkpt lat="43.51845" lon="3.07145">
        <ele>361</ele>
        <time>2015-11-29T09:02:14Z</time>
      </trkpt>
      <trkpt lat="43.51842" lon="3.07149">
        <ele>361.5</ele>
        <time>2015-11-29T09:02:15Z</time>
      </trkpt>
      <trkpt lat="43.51838" lon="3.07153">
        <ele>361.5</ele>
        <time>2015-11-29T09:02:16Z</time>
      </trkpt>
      <trkpt lat="43.51835" lon="3.07157">
        <ele>361.5</ele>
        <time>2015-11-29T09:02:17Z</time>
      </trkpt>
      <trkpt lat="43.51832" lon="3.07162">
        <ele>362.5</ele>
        <time>2015-11-29T09:02:18Z</time>
      </trkpt>
      <trkpt lat="43.51829" lon="3.07167">
        <ele>362.5</ele>
        <time>2015-11-29T09:02:19Z</time>
      </trkpt>
      <trkpt lat="43.51826" lon="3.07172">
        <ele>362.5</ele>
        <time>2015-11-29T09:02:20Z</time>
      </trkpt>
      <trkpt lat="43.51823" lon="3.07176">
        <ele>363</ele>
        <time>2015-11-29T09:02:21Z</time>
      </trkpt>
      <trkpt lat="43.51821" lon="3.07181">
        <ele>363.5</ele>
        <time>2015-11-29T09:02:22Z</time>
      </trkpt>
      <trkpt lat="43.51818" lon="3.07185">
        <ele>363</ele>
        <time>2015-11-29T09:02:23Z</time>
      </trkpt>
      <trkpt lat="43.51815" lon="3.0719">
        <ele>363.5</ele>
        <time>2015-11-29T09:02:24Z</time>
      </trkpt>
      <trkpt lat="43.51814" lon="3.07195">
        <ele>365</ele>
        <time>2015-11-29T09:02:25Z</time>
      </trkpt>
      <trkpt lat="43.51812" lon="3.072">
        <ele>366</ele>
        <time>2015-11-29T09:02:26Z</time>
      </trkpt>
      <trkpt lat="43.5181" lon="3.07204">
        <ele>365.5</ele>
        <time>2015-11-29T09:02:27Z</time>
      </trkpt>
      <trkpt lat="43.51807" lon="3.07209">
        <ele>365</ele>
        <time>2015-11-29T09:02:28Z</time>
      </trkpt>
      <trkpt lat="43.51804" lon="3.07214">
        <ele>365</ele>
        <time>2015-11-29T09:02:29Z</time>
      </trkpt>
      <trkpt lat="43.51802" lon="3.07219">
        <ele>365</ele>
        <time>2015-11-29T09:02:30Z</time>
      </trkpt>
      <trkpt lat="43.51799" lon="3.07224">
        <ele>365</ele>
        <time>2015-11-29T09:02:31Z</time>
      </trkpt>
      <trkpt lat="43.51796" lon="3.0723">
        <ele>365.5</ele>
        <time>2015-11-29T09:02:32Z</time>
      </trkpt>
      <trkpt lat="43.51793" lon="3.07235">
        <ele>365</ele>
        <time>2015-11-29T09:02:33Z</time>
      </trkpt>
      <trkpt lat="43.5179" lon="3.0724">
        <ele>365</ele>
        <time>2015-11-29T09:02:34Z</time>
      </trkpt>
      <trkpt lat="43.51787" lon="3.07246">
        <ele>365</ele>
        <time>2015-11-29T09:02:35Z</time>
      </trkpt>
      <trkpt lat="43.51784" lon="3.07251">
        <ele>365.5</ele>
        <time>2015-11-29T09:02:36Z</time>
      </trkpt>
      <trkpt lat="43.51781" lon="3.07256">
        <ele>364</ele>
        <time>2015-11-29T09:02:37Z</time>
      </trkpt>
      <trkpt lat="43.51778" lon="3.07261">
        <ele>363.5</ele>
        <time>2015-11-29T09:02:38Z</time>
      </trkpt>
      <trkpt lat="43.51776" lon="3.07266">
        <ele>363</ele>
        <time>2015-11-29T09:02:39Z</time>
      </trkpt>
      <trkpt lat="43.51773" lon="3.07271">
        <ele>362</ele>
        <time>2015-11-29T09:02:40Z</time>
      </trkpt>
      <trkpt lat="43.51771" lon="3.07275">
        <ele>362</ele>
        <time>2015-11-29T09:02:41Z</time>
      </trkpt>
      <trkpt lat="43.51768" lon="3.07279">
        <ele>361.5</ele>
        <time>2015-11-29T09:02:42Z</time>
      </trkpt>
      <trkpt lat="43.51765" lon="3.07283">
        <ele>361.5</ele>
        <time>2015-11-29T09:02:43Z</time>
      </trkpt>
      <trkpt lat="43.51763" lon="3.07288">
        <ele>361</ele>
        <time>2015-11-29T09:02:44Z</time>
      </trkpt>
      <trkpt lat="43.5176" lon="3.07291">
        <ele>360.5</ele>
        <time>2015-11-29T09:02:45Z</time>
      </trkpt>
      <trkpt lat="43.51758" lon="3.07295">
        <ele>360</ele>
        <time>2015-11-29T09:02:46Z</time>
      </trkpt>
      <trkpt lat="43.51755" lon="3.07298">
        <ele>359.5</ele>
        <time>2015-11-29T09:02:47Z</time>
      </trkpt>
      <trkpt lat="43.51753" lon="3.07302">
        <ele>359</ele>
        <time>2015-11-29T09:02:48Z</time>
      </trkpt>
      <trkpt lat="43.51752" lon="3.07305">
        <ele>358.5</ele>
        <time>2015-11-29T09:02:49Z</time>
      </trkpt>
      <trkpt lat="43.51751" lon="3.07308">
        <ele>359</ele>
        <time>2015-11-29T09:02:50Z</time>
      </trkpt>
      <trkpt lat="43.5175" lon="3.07311">
        <ele>358</ele>
        <time>2015-11-29T09:02:51Z</time>
      </trkpt>
      <trkpt lat="43.5175" lon="3.07313">
        <ele>358.5</ele>
        <time>2015-11-29T09:02:52Z</time>
      </trkpt>
      <trkpt lat="43.5175" lon="3.07314">
        <ele>358</ele>
        <time>2015-11-29T09:02:53Z</time>
      </trkpt>
      <trkpt lat="43.5175" lon="3.07316">
        <ele>358</ele>
        <time>2015-11-29T09:02:54Z</time>
      </trkpt>
      <trkpt lat="43.5175" lon="3.07317">
        <ele>358</ele>
        <time>2015-11-29T09:02:55Z</time>
      </trkpt>
      <trkpt lat="43.5175" lon="3.07318">
        <ele>358</ele>
        <time>2015-11-29T09:02:56Z</time>
      </trkpt>
      <trkpt lat="43.51749" lon="3.07318">
        <ele>357.5</ele>
        <time>2015-11-29T09:02:56Z</time>
      </trkpt>
      <trkpt lat="43.51749" lon="3.07319">
        <ele>357.5</ele>
        <time>2015-11-29T09:02:57Z</time>
      </trkpt>
      <trkpt lat="43.51749" lon="3.0732">
        <ele>357.5</ele>
        <time>2015-11-29T09:02:59Z</time>
      </trkpt>
      <trkpt lat="43.51748" lon="3.0732">
        <ele>358</ele>
        <time>2015-11-29T09:02:59Z</time>
      </trkpt>
      <trkpt lat="43.51748" lon="3.07321">
        <ele>358</ele>
        <time>2015-11-29T09:03:00Z</time>
      </trkpt>
      <trkpt lat="43.51747" lon="3.07321">
        <ele>358</ele>
        <time>2015-11-29T09:03:01Z</time>
      </trkpt>
      <trkpt lat="43.51745" lon="3.07323">
        <ele>358</ele>
        <time>2015-11-29T09:03:02Z</time>
      </trkpt>
      <trkpt lat="43.51743" lon="3.07324">
        <ele>357</ele>
        <time>2015-11-29T09:03:03Z</time>
      </trkpt>
      <trkpt lat="43.51742" lon="3.07326">
        <ele>357.5</ele>
        <time>2015-11-29T09:03:04Z</time>
      </trkpt>
      <trkpt lat="43.51741" lon="3.07327">
        <ele>358.5</ele>
        <time>2015-11-29T09:03:05Z</time>
      </trkpt>
      <trkpt lat="43.51739" lon="3.07327">
        <ele>357</ele>
        <time>2015-11-29T09:03:06Z</time>
      </trkpt>
      <trkpt lat="43.51736" lon="3.07327">
        <ele>357</ele>
        <time>2015-11-29T09:03:07Z</time>
      </trkpt>
      <trkpt lat="43.51734" lon="3.07329">
        <ele>358</ele>
        <time>2015-11-29T09:03:08Z</time>
      </trkpt>
      <trkpt lat="43.51731" lon="3.07329">
        <ele>359</ele>
        <time>2015-11-29T09:03:09Z</time>
      </trkpt>
      <trkpt lat="43.51728" lon="3.07327">
        <ele>358</ele>
        <time>2015-11-29T09:03:10Z</time>
      </trkpt>
      <trkpt lat="43.51724" lon="3.07325">
        <ele>356.5</ele>
        <time>2015-11-29T09:03:11Z</time>
      </trkpt>
      <trkpt lat="43.5172" lon="3.07327">
        <ele>357</ele>
        <time>2015-11-29T09:03:12Z</time>
      </trkpt>
      <trkpt lat="43.51715" lon="3.0733">
        <ele>358</ele>
        <time>2015-11-29T09:03:13Z</time>
      </trkpt>
      <trkpt lat="43.51711" lon="3.07332">
        <ele>357.5</ele>
        <time>2015-11-29T09:03:14Z</time>
      </trkpt>
      <trkpt lat="43.51707" lon="3.07334">
        <ele>358</ele>
        <time>2015-11-29T09:03:15Z</time>
      </trkpt>
      <trkpt lat="43.51703" lon="3.07336">
        <ele>357</ele>
        <time>2015-11-29T09:03:16Z</time>
      </trkpt>
      <trkpt lat="43.51699" lon="3.07337">
        <ele>355</ele>
        <time>2015-11-29T09:03:17Z</time>
      </trkpt>
      <trkpt lat="43.51695" lon="3.07337">
        <ele>354</ele>
        <time>2015-11-29T09:03:18Z</time>
      </trkpt>
      <trkpt lat="43.51691" lon="3.07338">
        <ele>352.5</ele>
        <time>2015-11-29T09:03:19Z</time>
      </trkpt>
      <trkpt lat="43.51687" lon="3.07339">
        <ele>351</ele>
        <time>2015-11-29T09:03:20Z</time>
      </trkpt>
      <trkpt lat="43.51684" lon="3.07339">
        <ele>350</ele>
        <time>2015-11-29T09:03:21Z</time>
      </trkpt>
      <trkpt lat="43.51681" lon="3.07338">
        <ele>349</ele>
        <time>2015-11-29T09:03:22Z</time>
      </trkpt>
      <trkpt lat="43.51676" lon="3.07337">
        <ele>347.5</ele>
        <time>2015-11-29T09:03:23Z</time>
      </trkpt>
      <trkpt lat="43.51672" lon="3.07337">
        <ele>345</ele>
        <time>2015-11-29T09:03:24Z</time>
      </trkpt>
      <trkpt lat="43.51668" lon="3.07337">
        <ele>343.5</ele>
        <time>2015-11-29T09:03:25Z</time>
      </trkpt>
      <trkpt lat="43.51664" lon="3.07338">
        <ele>343</ele>
        <time>2015-11-29T09:03:26Z</time>
      </trkpt>
      <trkpt lat="43.5166" lon="3.0734">
        <ele>341.5</ele>
        <time>2015-11-29T09:03:27Z</time>
      </trkpt>
      <trkpt lat="43.51656" lon="3.0734">
        <ele>340.5</ele>
        <time>2015-11-29T09:03:28Z</time>
      </trkpt>
      <trkpt lat="43.51653" lon="3.0734">
        <ele>339.5</ele>
        <time>2015-11-29T09:03:29Z</time>
      </trkpt>
      <trkpt lat="43.5165" lon="3.07339">
        <ele>339</ele>
        <time>2015-11-29T09:03:30Z</time>
      </trkpt>
      <trkpt lat="43.51646" lon="3.07338">
        <ele>339</ele>
        <time>2015-11-29T09:03:31Z</time>
      </trkpt>
      <trkpt lat="43.51642" lon="3.07337">
        <ele>337.5</ele>
        <time>2015-11-29T09:03:32Z</time>
      </trkpt>
      <trkpt lat="43.51638" lon="3.07336">
        <ele>337</ele>
        <time>2015-11-29T09:03:33Z</time>
      </trkpt>
      <trkpt lat="43.51634" lon="3.07336">
        <ele>336</ele>
        <time>2015-11-29T09:03:34Z</time>
      </trkpt>
      <trkpt lat="43.51631" lon="3.07335">
        <ele>335.5</ele>
        <time>2015-11-29T09:03:35Z</time>
      </trkpt>
      <trkpt lat="43.51628" lon="3.07334">
        <ele>335</ele>
        <time>2015-11-29T09:03:36Z</time>
      </trkpt>
      <trkpt lat="43.51626" lon="3.07335">
        <ele>335</ele>
        <time>2015-11-29T09:03:37Z</time>
      </trkpt>
      <trkpt lat="43.51623" lon="3.07336">
        <ele>335</ele>
        <time>2015-11-29T09:03:38Z</time>
      </trkpt>
      <trkpt lat="43.51621" lon="3.07336">
        <ele>334.5</ele>
        <time>2015-11-29T09:03:39Z</time>
      </trkpt>
      <trkpt lat="43.51619" lon="3.07336">
        <ele>335</ele>
        <time>2015-11-29T09:03:40Z</time>
      </trkpt>
      <trkpt lat="43.51616" lon="3.07336">
        <ele>333.5</ele>
        <time>2015-11-29T09:03:41Z</time>
      </trkpt>
      <trkpt lat="43.51613" lon="3.07337">
        <ele>334</ele>
        <time>2015-11-29T09:03:42Z</time>
      </trkpt>
      <trkpt lat="43.51609" lon="3.07337">
        <ele>333</ele>
        <time>2015-11-29T09:03:43Z</time>
      </trkpt>
      <trkpt lat="43.51605" lon="3.07338">
        <ele>333</ele>
        <time>2015-11-29T09:03:44Z</time>
      </trkpt>
      <trkpt lat="43.516" lon="3.07337">
        <ele>333</ele>
        <time>2015-11-29T09:03:45Z</time>
      </trkpt>
      <trkpt lat="43.51595" lon="3.07335">
        <ele>334.5</ele>
        <time>2015-11-29T09:03:46Z</time>
      </trkpt>
      <trkpt lat="43.51591" lon="3.07333">
        <ele>334.5</ele>
        <time>2015-11-29T09:03:47Z</time>
      </trkpt>
      <trkpt lat="43.51588" lon="3.07333">
        <ele>333.5</ele>
        <time>2015-11-29T09:03:48Z</time>
      </trkpt>
      <trkpt lat="43.51586" lon="3.07334">
        <ele>333.5</ele>
        <time>2015-11-29T09:03:49Z</time>
      </trkpt>
      <trkpt lat="43.51583" lon="3.07334">
        <ele>334</ele>
        <time>2015-11-29T09:03:50Z</time>
      </trkpt>
      <trkpt lat="43.51581" lon="3.07336">
        <ele>334</ele>
        <time>2015-11-29T09:03:51Z</time>
      </trkpt>
      <trkpt lat="43.51578" lon="3.07336">
        <ele>334</ele>
        <time>2015-11-29T09:03:52Z</time>
      </trkpt>
      <trkpt lat="43.51576" lon="3.07337">
        <ele>333</ele>
        <time>2015-11-29T09:03:53Z</time>
      </trkpt>
      <trkpt lat="43.51574" lon="3.07339">
        <ele>332</ele>
        <time>2015-11-29T09:03:54Z</time>
      </trkpt>
      <trkpt lat="43.51571" lon="3.0734">
        <ele>330.5</ele>
        <time>2015-11-29T09:03:55Z</time>
      </trkpt>
      <trkpt lat="43.51568" lon="3.07341">
        <ele>329.5</ele>
        <time>2015-11-29T09:03:56Z</time>
      </trkpt>
      <trkpt lat="43.51565" lon="3.07342">
        <ele>328</ele>
        <time>2015-11-29T09:03:57Z</time>
      </trkpt>
      <trkpt lat="43.51561" lon="3.07343">
        <ele>328.5</ele>
        <time>2015-11-29T09:03:58Z</time>
      </trkpt>
      <trkpt lat="43.51556" lon="3.07343">
        <ele>329</ele>
        <time>2015-11-29T09:03:59Z</time>
      </trkpt>
      <trkpt lat="43.5155" lon="3.07343">
        <ele>328.5</ele>
        <time>2015-11-29T09:04:00Z</time>
      </trkpt>
      <trkpt lat="43.51545" lon="3.07345">
        <ele>327</ele>
        <time>2015-11-29T09:04:01Z</time>
      </trkpt>
      <trkpt lat="43.5154" lon="3.07345">
        <ele>326</ele>
        <time>2015-11-29T09:04:02Z</time>
      </trkpt>
      <trkpt lat="43.51534" lon="3.07345">
        <ele>323.5</ele>
        <time>2015-11-29T09:04:07Z</time>
      </trkpt>
      <trkpt lat="43.51533" lon="3.07344">
        <ele>323.5</ele>
        <time>2015-11-29T09:04:08Z</time>
      </trkpt>
      <trkpt lat="43.51532" lon="3.07345">
        <ele>323.5</ele>
        <time>2015-11-29T09:04:09Z</time>
      </trkpt>
      <trkpt lat="43.5153" lon="3.07347">
        <ele>323.5</ele>
        <time>2015-11-29T09:04:10Z</time>
      </trkpt>
      <trkpt lat="43.5153" lon="3.0735">
        <ele>323.5</ele>
        <time>2015-11-29T09:04:11Z</time>
      </trkpt>
      <trkpt lat="43.51528" lon="3.07353">
        <ele>323</ele>
        <time>2015-11-29T09:04:12Z</time>
      </trkpt>
      <trkpt lat="43.51525" lon="3.07354">
        <ele>321.5</ele>
        <time>2015-11-29T09:04:13Z</time>
      </trkpt>
      <trkpt lat="43.51521" lon="3.07354">
        <ele>321</ele>
        <time>2015-11-29T09:04:14Z</time>
      </trkpt>
      <trkpt lat="43.51518" lon="3.07355">
        <ele>320.5</ele>
        <time>2015-11-29T09:04:15Z</time>
      </trkpt>
      <trkpt lat="43.51514" lon="3.07357">
        <ele>320.5</ele>
        <time>2015-11-29T09:04:16Z</time>
      </trkpt>
      <trkpt lat="43.51511" lon="3.0736">
        <ele>318.5</ele>
        <time>2015-11-29T09:04:17Z</time>
      </trkpt>
      <trkpt lat="43.51508" lon="3.07363">
        <ele>317.5</ele>
        <time>2015-11-29T09:04:18Z</time>
      </trkpt>
      <trkpt lat="43.51504" lon="3.07364">
        <ele>317</ele>
        <time>2015-11-29T09:04:19Z</time>
      </trkpt>
      <trkpt lat="43.515" lon="3.07368">
        <ele>316.5</ele>
        <time>2015-11-29T09:04:20Z</time>
      </trkpt>
      <trkpt lat="43.51495" lon="3.0737">
        <ele>315.5</ele>
        <time>2015-11-29T09:04:21Z</time>
      </trkpt>
      <trkpt lat="43.51492" lon="3.07371">
        <ele>315</ele>
        <time>2015-11-29T09:04:22Z</time>
      </trkpt>
      <trkpt lat="43.51488" lon="3.07371">
        <ele>313.5</ele>
        <time>2015-11-29T09:04:23Z</time>
      </trkpt>
      <trkpt lat="43.51485" lon="3.07375">
        <ele>314</ele>
        <time>2015-11-29T09:04:24Z</time>
      </trkpt>
      <trkpt lat="43.51482" lon="3.07379">
        <ele>312.5</ele>
        <time>2015-11-29T09:04:25Z</time>
      </trkpt>
      <trkpt lat="43.5148" lon="3.07383">
        <ele>312.5</ele>
        <time>2015-11-29T09:04:26Z</time>
      </trkpt>
      <trkpt lat="43.51478" lon="3.07386">
        <ele>312</ele>
        <time>2015-11-29T09:04:27Z</time>
      </trkpt>
      <trkpt lat="43.51476" lon="3.07388">
        <ele>309.5</ele>
        <time>2015-11-29T09:04:28Z</time>
      </trkpt>
      <trkpt lat="43.51474" lon="3.07391">
        <ele>308.5</ele>
        <time>2015-11-29T09:04:29Z</time>
      </trkpt>
      <trkpt lat="43.51472" lon="3.07392">
        <ele>308</ele>
        <time>2015-11-29T09:04:30Z</time>
      </trkpt>
      <trkpt lat="43.51471" lon="3.07392">
        <ele>307</ele>
        <time>2015-11-29T09:04:31Z</time>
      </trkpt>
      <trkpt lat="43.5147" lon="3.07394">
        <ele>307</ele>
        <time>2015-11-29T09:04:32Z</time>
      </trkpt>
      <trkpt lat="43.51469" lon="3.07396">
        <ele>306.5</ele>
        <time>2015-11-29T09:04:33Z</time>
      </trkpt>
      <trkpt lat="43.51468" lon="3.07399">
        <ele>306</ele>
        <time>2015-11-29T09:04:34Z</time>
      </trkpt>
      <trkpt lat="43.51467" lon="3.074">
        <ele>304.5</ele>
        <time>2015-11-29T09:04:35Z</time>
      </trkpt>
      <trkpt lat="43.51464" lon="3.07401">
        <ele>303</ele>
        <time>2015-11-29T09:04:36Z</time>
      </trkpt>
      <trkpt lat="43.51462" lon="3.07402">
        <ele>302</ele>
        <time>2015-11-29T09:04:37Z</time>
      </trkpt>
      <trkpt lat="43.5146" lon="3.07403">
        <ele>300</ele>
        <time>2015-11-29T09:04:38Z</time>
      </trkpt>
      <trkpt lat="43.51457" lon="3.07404">
        <ele>299</ele>
        <time>2015-11-29T09:04:39Z</time>
      </trkpt>
      <trkpt lat="43.51456" lon="3.07405">
        <ele>298</ele>
        <time>2015-11-29T09:04:40Z</time>
      </trkpt>
      <trkpt lat="43.51454" lon="3.07406">
        <ele>297.5</ele>
        <time>2015-11-29T09:04:41Z</time>
      </trkpt>
      <trkpt lat="43.51453" lon="3.07406">
        <ele>297</ele>
        <time>2015-11-29T09:04:42Z</time>
      </trkpt>
      <trkpt lat="43.51453" lon="3.07407">
        <ele>296.5</ele>
        <time>2015-11-29T09:04:43Z</time>
      </trkpt>
      <trkpt lat="43.51452" lon="3.07409">
        <ele>296</ele>
        <time>2015-11-29T09:04:44Z</time>
      </trkpt>
      <trkpt lat="43.51451" lon="3.0741">
        <ele>295.5</ele>
        <time>2015-11-29T09:04:45Z</time>
      </trkpt>
      <trkpt lat="43.51449" lon="3.07411">
        <ele>294.5</ele>
        <time>2015-11-29T09:04:46Z</time>
      </trkpt>
      <trkpt lat="43.51447" lon="3.07412">
        <ele>293</ele>
        <time>2015-11-29T09:04:47Z</time>
      </trkpt>
      <trkpt lat="43.51444" lon="3.07414">
        <ele>292</ele>
        <time>2015-11-29T09:04:48Z</time>
      </trkpt>
      <trkpt lat="43.5144" lon="3.07415">
        <ele>290</ele>
        <time>2015-11-29T09:04:49Z</time>
      </trkpt>
      <trkpt lat="43.51436" lon="3.07416">
        <ele>287.5</ele>
        <time>2015-11-29T09:04:50Z</time>
      </trkpt>
      <trkpt lat="43.51432" lon="3.07416">
        <ele>286</ele>
        <time>2015-11-29T09:04:51Z</time>
      </trkpt>
      <trkpt lat="43.5143" lon="3.07415">
        <ele>286</ele>
        <time>2015-11-29T09:04:52Z</time>
      </trkpt>
      <trkpt lat="43.51429" lon="3.07415">
        <ele>285.5</ele>
        <time>2015-11-29T09:04:53Z</time>
      </trkpt>
      <trkpt lat="43.51428" lon="3.07415">
        <ele>284.5</ele>
        <time>2015-11-29T09:04:54Z</time>
      </trkpt>
      <trkpt lat="43.51427" lon="3.07416">
        <ele>284</ele>
        <time>2015-11-29T09:04:55Z</time>
      </trkpt>
      <trkpt lat="43.51427" lon="3.07415">
        <ele>283</ele>
        <time>2015-11-29T09:04:57Z</time>
      </trkpt>
      <trkpt lat="43.51426" lon="3.07416">
        <ele>283</ele>
        <time>2015-11-29T09:04:58Z</time>
      </trkpt>
      <trkpt lat="43.51425" lon="3.07416">
        <ele>282.5</ele>
        <time>2015-11-29T09:04:59Z</time>
      </trkpt>
      <trkpt lat="43.51424" lon="3.07418">
        <ele>282.5</ele>
        <time>2015-11-29T09:05:00Z</time>
      </trkpt>
      <trkpt lat="43.51422" lon="3.07419">
        <ele>282.5</ele>
        <time>2015-11-29T09:05:01Z</time>
      </trkpt>
      <trkpt lat="43.51421" lon="3.0742">
        <ele>282.5</ele>
        <time>2015-11-29T09:05:02Z</time>
      </trkpt>
      <trkpt lat="43.5142" lon="3.0742">
        <ele>282.5</ele>
        <time>2015-11-29T09:05:03Z</time>
      </trkpt>
      <trkpt lat="43.5142" lon="3.0742">
        <ele>282.5</ele>
        <time>2015-11-29T09:05:04Z</time>
      </trkpt>
      <trkpt lat="43.5142" lon="3.0742">
        <ele>282.5</ele>
        <time>2015-11-29T09:05:05Z</time>
      </trkpt>
      <trkpt lat="43.51418" lon="3.07419">
        <ele>281</ele>
        <time>2015-11-29T09:05:06Z</time>
      </trkpt>
      <trkpt lat="43.51417" lon="3.07419">
        <ele>280</ele>
        <time>2015-11-29T09:05:07Z</time>
      </trkpt>
      <trkpt lat="43.51416" lon="3.07419">
        <ele>279.5</ele>
        <time>2015-11-29T09:05:08Z</time>
      </trkpt>
      <trkpt lat="43.51416" lon="3.07419">
        <ele>280</ele>
        <time>2015-11-29T09:05:09Z</time>
      </trkpt>
      <trkpt lat="43.51415" lon="3.07418">
        <ele>277.5</ele>
        <time>2015-11-29T09:05:10Z</time>
      </trkpt>
      <trkpt lat="43.51412" lon="3.07418">
        <ele>277</ele>
        <time>2015-11-29T09:05:11Z</time>
      </trkpt>
      <trkpt lat="43.51409" lon="3.07417">
        <ele>276</ele>
        <time>2015-11-29T09:05:12Z</time>
      </trkpt>
      <trkpt lat="43.51405" lon="3.07417">
        <ele>274.5</ele>
        <time>2015-11-29T09:05:13Z</time>
      </trkpt>
      <trkpt lat="43.514" lon="3.07418">
        <ele>274</ele>
        <time>2015-11-29T09:05:14Z</time>
      </trkpt>
      <trkpt lat="43.51395" lon="3.07419">
        <ele>273</ele>
        <time>2015-11-29T09:05:15Z</time>
      </trkpt>
      <trkpt lat="43.5139" lon="3.07421">
        <ele>271.5</ele>
        <time>2015-11-29T09:05:16Z</time>
      </trkpt>
      <trkpt lat="43.51386" lon="3.07423">
        <ele>270</ele>
        <time>2015-11-29T09:05:16Z</time>
      </trkpt>
      <trkpt lat="43.51383" lon="3.07429">
        <ele>268</ele>
        <time>2015-11-29T09:05:18Z</time>
      </trkpt>
      <trkpt lat="43.51379" lon="3.07434">
        <ele>268</ele>
        <time>2015-11-29T09:05:18Z</time>
      </trkpt>
      <trkpt lat="43.51373" lon="3.07436">
        <ele>266</ele>
        <time>2015-11-29T09:05:20Z</time>
      </trkpt>
      <trkpt lat="43.51367" lon="3.07438">
        <ele>265</ele>
        <time>2015-11-29T09:05:20Z</time>
      </trkpt>
      <trkpt lat="43.51361" lon="3.07441">
        <ele>264</ele>
        <time>2015-11-29T09:05:21Z</time>
      </trkpt>
      <trkpt lat="43.51354" lon="3.07444">
        <ele>263</ele>
        <time>2015-11-29T09:05:22Z</time>
      </trkpt>
      <trkpt lat="43.51348" lon="3.07447">
        <ele>262</ele>
        <time>2015-11-29T09:05:23Z</time>
      </trkpt>
      <trkpt lat="43.51341" lon="3.07451">
        <ele>260.5</ele>
        <time>2015-11-29T09:05:24Z</time>
      </trkpt>
      <trkpt lat="43.51335" lon="3.07454">
        <ele>258.5</ele>
        <time>2015-11-29T09:05:25Z</time>
      </trkpt>
      <trkpt lat="43.51329" lon="3.07459">
        <ele>256.5</ele>
        <time>2015-11-29T09:05:26Z</time>
      </trkpt>
      <trkpt lat="43.51324" lon="3.07464">
        <ele>254.5</ele>
        <time>2015-11-29T09:05:27Z</time>
      </trkpt>
      <trkpt lat="43.51318" lon="3.07468">
        <ele>253</ele>
        <time>2015-11-29T09:05:28Z</time>
      </trkpt>
      <trkpt lat="43.51312" lon="3.0747">
        <ele>252.5</ele>
        <time>2015-11-29T09:05:29Z</time>
      </trkpt>
      <trkpt lat="43.51296" lon="3.0747">
        <ele>251</ele>
        <time>2015-11-29T09:05:31Z</time>
      </trkpt>
      <trkpt lat="43.51288" lon="3.07472">
        <ele>251</ele>
        <time>2015-11-29T09:05:32Z</time>
      </trkpt>
      <trkpt lat="43.51282" lon="3.07475">
        <ele>251</ele>
        <time>2015-11-29T09:05:33Z</time>
      </trkpt>
      <trkpt lat="43.51275" lon="3.07477">
        <ele>251</ele>
        <time>2015-11-29T09:05:34Z</time>
      </trkpt>
      <trkpt lat="43.51269" lon="3.0748">
        <ele>251</ele>
        <time>2015-11-29T09:05:35Z</time>
      </trkpt>
      <trkpt lat="43.51263" lon="3.07487">
        <ele>251</ele>
        <time>2015-11-29T09:05:36Z</time>
      </trkpt>
      <trkpt lat="43.51259" lon="3.07493">
        <ele>252</ele>
        <time>2015-11-29T09:05:37Z</time>
      </trkpt>
      <trkpt lat="43.51254" lon="3.07497">
        <ele>252</ele>
        <time>2015-11-29T09:05:38Z</time>
      </trkpt>
      <trkpt lat="43.5125" lon="3.075">
        <ele>252</ele>
        <time>2015-11-29T09:05:39Z</time>
      </trkpt>
      <trkpt lat="43.51246" lon="3.075">
        <ele>252</ele>
        <time>2015-11-29T09:05:40Z</time>
      </trkpt>
      <trkpt lat="43.51242" lon="3.07502">
        <ele>252</ele>
        <time>2015-11-29T09:05:41Z</time>
      </trkpt>
      <trkpt lat="43.51238" lon="3.07503">
        <ele>252</ele>
        <time>2015-11-29T09:05:42Z</time>
      </trkpt>
      <trkpt lat="43.51234" lon="3.07504">
        <ele>251</ele>
        <time>2015-11-29T09:05:43Z</time>
      </trkpt>
      <trkpt lat="43.51232" lon="3.07506">
        <ele>251.5</ele>
        <time>2015-11-29T09:05:44Z</time>
      </trkpt>
      <trkpt lat="43.51228" lon="3.07507">
        <ele>251</ele>
        <time>2015-11-29T09:05:45Z</time>
      </trkpt>
      <trkpt lat="43.51224" lon="3.07508">
        <ele>252.5</ele>
        <time>2015-11-29T09:05:46Z</time>
      </trkpt>
      <trkpt lat="43.5122" lon="3.07509">
        <ele>252</ele>
        <time>2015-11-29T09:05:47Z</time>
      </trkpt>
      <trkpt lat="43.51215" lon="3.07509">
        <ele>252</ele>
        <time>2015-11-29T09:05:48Z</time>
      </trkpt>
      <trkpt lat="43.5121" lon="3.0751">
        <ele>251.5</ele>
        <time>2015-11-29T09:05:49Z</time>
      </trkpt>
      <trkpt lat="43.51207" lon="3.07511">
        <ele>251.5</ele>
        <time>2015-11-29T09:05:50Z</time>
      </trkpt>
      <trkpt lat="43.51202" lon="3.07512">
        <ele>250.5</ele>
        <time>2015-11-29T09:05:51Z</time>
      </trkpt>
      <trkpt lat="43.51199" lon="3.07513">
        <ele>250</ele>
        <time>2015-11-29T09:05:52Z</time>
      </trkpt>
      <trkpt lat="43.51195" lon="3.07514">
        <ele>250</ele>
        <time>2015-11-29T09:05:53Z</time>
      </trkpt>
      <trkpt lat="43.51192" lon="3.07515">
        <ele>250</ele>
        <time>2015-11-29T09:05:54Z</time>
      </trkpt>
      <trkpt lat="43.5119" lon="3.07516">
        <ele>250</ele>
        <time>2015-11-29T09:05:55Z</time>
      </trkpt>
      <trkpt lat="43.51187" lon="3.07517">
        <ele>250</ele>
        <time>2015-11-29T09:05:56Z</time>
      </trkpt>
      <trkpt lat="43.51184" lon="3.07518">
        <ele>249.5</ele>
        <time>2015-11-29T09:05:57Z</time>
      </trkpt>
      <trkpt lat="43.51181" lon="3.07519">
        <ele>250</ele>
        <time>2015-11-29T09:05:58Z</time>
      </trkpt>
      <trkpt lat="43.51177" lon="3.07521">
        <ele>249</ele>
        <time>2015-11-29T09:05:59Z</time>
      </trkpt>
      <trkpt lat="43.51175" lon="3.07523">
        <ele>249</ele>
        <time>2015-11-29T09:06:00Z</time>
      </trkpt>
      <trkpt lat="43.51174" lon="3.07525">
        <ele>248.5</ele>
        <time>2015-11-29T09:06:01Z</time>
      </trkpt>
      <trkpt lat="43.51172" lon="3.07526">
        <ele>250</ele>
        <time>2015-11-29T09:06:02Z</time>
      </trkpt>
      <trkpt lat="43.5117" lon="3.07528">
        <ele>249</ele>
        <time>2015-11-29T09:06:03Z</time>
      </trkpt>
      <trkpt lat="43.51169" lon="3.07532">
        <ele>248</ele>
        <time>2015-11-29T09:06:04Z</time>
      </trkpt>
      <trkpt lat="43.51168" lon="3.07535">
        <ele>246.5</ele>
        <time>2015-11-29T09:06:05Z</time>
      </trkpt>
      <trkpt lat="43.51167" lon="3.07539">
        <ele>245</ele>
        <time>2015-11-29T09:06:06Z</time>
      </trkpt>
      <trkpt lat="43.51166" lon="3.07542">
        <ele>244</ele>
        <time>2015-11-29T09:06:07Z</time>
      </trkpt>
      <trkpt lat="43.51164" lon="3.07544">
        <ele>243.5</ele>
        <time>2015-11-29T09:06:08Z</time>
      </trkpt>
      <trkpt lat="43.51163" lon="3.07547">
        <ele>243</ele>
        <time>2015-11-29T09:06:09Z</time>
      </trkpt>
      <trkpt lat="43.51161" lon="3.07548">
        <ele>242.5</ele>
        <time>2015-11-29T09:06:10Z</time>
      </trkpt>
      <trkpt lat="43.51159" lon="3.07551">
        <ele>242.5</ele>
        <time>2015-11-29T09:06:11Z</time>
      </trkpt>
      <trkpt lat="43.51157" lon="3.07554">
        <ele>242</ele>
        <time>2015-11-29T09:06:12Z</time>
      </trkpt>
      <trkpt lat="43.51155" lon="3.07557">
        <ele>241.5</ele>
        <time>2015-11-29T09:06:13Z</time>
      </trkpt>
      <trkpt lat="43.51152" lon="3.07559">
        <ele>241.5</ele>
        <time>2015-11-29T09:06:14Z</time>
      </trkpt>
      <trkpt lat="43.51151" lon="3.07562">
        <ele>241.5</ele>
        <time>2015-11-29T09:06:15Z</time>
      </trkpt>
      <trkpt lat="43.51149" lon="3.07564">
        <ele>241.5</ele>
        <time>2015-11-29T09:06:16Z</time>
      </trkpt>
      <trkpt lat="43.51149" lon="3.07565">
        <ele>241</ele>
        <time>2015-11-29T09:06:17Z</time>
      </trkpt>
      <trkpt lat="43.51148" lon="3.07566">
        <ele>241</ele>
        <time>2015-11-29T09:06:18Z</time>
      </trkpt>
      <trkpt lat="43.51147" lon="3.07566">
        <ele>242</ele>
        <time>2015-11-29T09:06:19Z</time>
      </trkpt>
      <trkpt lat="43.51146" lon="3.07566">
        <ele>242</ele>
        <time>2015-11-29T09:06:20Z</time>
      </trkpt>
      <trkpt lat="43.51144" lon="3.07565">
        <ele>243.5</ele>
        <time>2015-11-29T09:06:30Z</time>
      </trkpt>
      <trkpt lat="43.51144" lon="3.07566">
        <ele>243.5</ele>
        <time>2015-11-29T09:06:31Z</time>
      </trkpt>
      <trkpt lat="43.51142" lon="3.07567">
        <ele>244</ele>
        <time>2015-11-29T09:06:46Z</time>
      </trkpt>
      <trkpt lat="43.51143" lon="3.07567">
        <ele>244.5</ele>
        <time>2015-11-29T09:06:48Z</time>
      </trkpt>
      <trkpt lat="43.51144" lon="3.07568">
        <ele>244.5</ele>
        <time>2015-11-29T09:06:49Z</time>
      </trkpt>
      <trkpt lat="43.51145" lon="3.07569">
        <ele>244.5</ele>
        <time>2015-11-29T09:06:50Z</time>
      </trkpt>
      <trkpt lat="43.51147" lon="3.07569">
        <ele>245</ele>
        <time>2015-11-29T09:06:51Z</time>
      </trkpt>
      <trkpt lat="43.51149" lon="3.07567">
        <ele>245.5</ele>
        <time>2015-11-29T09:06:52Z</time>
      </trkpt>
      <trkpt lat="43.51151" lon="3.07567">
        <ele>247</ele>
        <time>2015-11-29T09:06:53Z</time>
      </trkpt>
      <trkpt lat="43.51153" lon="3.07566">
        <ele>248</ele>
        <time>2015-11-29T09:06:54Z</time>
      </trkpt>
      <trkpt lat="43.51155" lon="3.07566">
        <ele>249.5</ele>
        <time>2015-11-29T09:06:55Z</time>
      </trkpt>
      <trkpt lat="43.51156" lon="3.07565">
        <ele>250</ele>
        <time>2015-11-29T09:06:56Z</time>
      </trkpt>
      <trkpt lat="43.51158" lon="3.07565">
        <ele>250.5</ele>
        <time>2015-11-29T09:06:57Z</time>
      </trkpt>
      <trkpt lat="43.51161" lon="3.07564">
        <ele>251</ele>
        <time>2015-11-29T09:06:58Z</time>
      </trkpt>
      <trkpt lat="43.51163" lon="3.07564">
        <ele>251.5</ele>
        <time>2015-11-29T09:06:59Z</time>
      </trkpt>
      <trkpt lat="43.51165" lon="3.07563">
        <ele>251.5</ele>
        <time>2015-11-29T09:07:00Z</time>
      </trkpt>
      <trkpt lat="43.51167" lon="3.07563">
        <ele>252</ele>
        <time>2015-11-29T09:07:01Z</time>
      </trkpt>
      <trkpt lat="43.51169" lon="3.07563">
        <ele>252.5</ele>
        <time>2015-11-29T09:07:02Z</time>
      </trkpt>
      <trkpt lat="43.51171" lon="3.07562">
        <ele>252.5</ele>
        <time>2015-11-29T09:07:03Z</time>
      </trkpt>
      <trkpt lat="43.51172" lon="3.0756">
        <ele>253</ele>
        <time>2015-11-29T09:07:04Z</time>
      </trkpt>
      <trkpt lat="43.51174" lon="3.07559">
        <ele>253.5</ele>
        <time>2015-11-29T09:07:05Z</time>
      </trkpt>
      <trkpt lat="43.51175" lon="3.07558">
        <ele>254</ele>
        <time>2015-11-29T09:07:06Z</time>
      </trkpt>
      <trkpt lat="43.51176" lon="3.07558">
        <ele>254.5</ele>
        <time>2015-11-29T09:07:07Z</time>
      </trkpt>
      <trkpt lat="43.51178" lon="3.07558">
        <ele>255</ele>
        <time>2015-11-29T09:07:08Z</time>
      </trkpt>
      <trkpt lat="43.51179" lon="3.07558">
        <ele>255</ele>
        <time>2015-11-29T09:07:09Z</time>
      </trkpt>
      <trkpt lat="43.5118" lon="3.07557">
        <ele>255.5</ele>
        <time>2015-11-29T09:07:10Z</time>
      </trkpt>
      <trkpt lat="43.51183" lon="3.07557">
        <ele>254.5</ele>
        <time>2015-11-29T09:07:11Z</time>
      </trkpt>
      <trkpt lat="43.51185" lon="3.07557">
        <ele>254.5</ele>
        <time>2015-11-29T09:07:12Z</time>
      </trkpt>
      <trkpt lat="43.51187" lon="3.07556">
        <ele>255</ele>
        <time>2015-11-29T09:07:13Z</time>
      </trkpt>
      <trkpt lat="43.51189" lon="3.07557">
        <ele>254.5</ele>
        <time>2015-11-29T09:07:14Z</time>
      </trkpt>
      <trkpt lat="43.51191" lon="3.07557">
        <ele>254.5</ele>
        <time>2015-11-29T09:07:15Z</time>
      </trkpt>
      <trkpt lat="43.51192" lon="3.07558">
        <ele>255</ele>
        <time>2015-11-29T09:07:16Z</time>
      </trkpt>
      <trkpt lat="43.51194" lon="3.07558">
        <ele>255</ele>
        <time>2015-11-29T09:07:17Z</time>
      </trkpt>
      <trkpt lat="43.51196" lon="3.07559">
        <ele>255.5</ele>
        <time>2015-11-29T09:07:18Z</time>
      </trkpt>
      <trkpt lat="43.51198" lon="3.07559">
        <ele>255</ele>
        <time>2015-11-29T09:07:19Z</time>
      </trkpt>
      <trkpt lat="43.51199" lon="3.0756">
        <ele>255.5</ele>
        <time>2015-11-29T09:07:20Z</time>
      </trkpt>
      <trkpt lat="43.51201" lon="3.0756">
        <ele>256</ele>
        <time>2015-11-29T09:07:21Z</time>
      </trkpt>
      <trkpt lat="43.51203" lon="3.0756">
        <ele>256</ele>
        <time>2015-11-29T09:07:22Z</time>
      </trkpt>
      <trkpt lat="43.51204" lon="3.0756">
        <ele>256</ele>
        <time>2015-11-29T09:07:23Z</time>
      </trkpt>
      <trkpt lat="43.51206" lon="3.0756">
        <ele>256.5</ele>
        <time>2015-11-29T09:07:24Z</time>
      </trkpt>
      <trkpt lat="43.51207" lon="3.07561">
        <ele>257</ele>
        <time>2015-11-29T09:07:25Z</time>
      </trkpt>
      <trkpt lat="43.51208" lon="3.07561">
        <ele>257</ele>
        <time>2015-11-29T09:07:26Z</time>
      </trkpt>
      <trkpt lat="43.5121" lon="3.07562">
        <ele>257</ele>
        <time>2015-11-29T09:07:27Z</time>
      </trkpt>
      <trkpt lat="43.51212" lon="3.07562">
        <ele>258</ele>
        <time>2015-11-29T09:07:28Z</time>
      </trkpt>
      <trkpt lat="43.51213" lon="3.07562">
        <ele>258</ele>
        <time>2015-11-29T09:07:29Z</time>
      </trkpt>
      <trkpt lat="43.51215" lon="3.07562">
        <ele>258</ele>
        <time>2015-11-29T09:07:30Z</time>
      </trkpt>
      <trkpt lat="43.51217" lon="3.07562">
        <ele>258</ele>
        <time>2015-11-29T09:07:31Z</time>
      </trkpt>
      <trkpt lat="43.51219" lon="3.07563">
        <ele>258</ele>
        <time>2015-11-29T09:07:32Z</time>
      </trkpt>
      <trkpt lat="43.51221" lon="3.07564">
        <ele>258</ele>
        <time>2015-11-29T09:07:33Z</time>
      </trkpt>
      <trkpt lat="43.51223" lon="3.07564">
        <ele>258.5</ele>
        <time>2015-11-29T09:07:34Z</time>
      </trkpt>
      <trkpt lat="43.51225" lon="3.07564">
        <ele>258</ele>
        <time>2015-11-29T09:07:35Z</time>
      </trkpt>
      <trkpt lat="43.51227" lon="3.07565">
        <ele>258</ele>
        <time>2015-11-29T09:07:36Z</time>
      </trkpt>
      <trkpt lat="43.51229" lon="3.07565">
        <ele>258</ele>
        <time>2015-11-29T09:07:37Z</time>
      </trkpt>
      <trkpt lat="43.51231" lon="3.07566">
        <ele>258.5</ele>
        <time>2015-11-29T09:07:38Z</time>
      </trkpt>
      <trkpt lat="43.51233" lon="3.07566">
        <ele>258</ele>
        <time>2015-11-29T09:07:39Z</time>
      </trkpt>
      <trkpt lat="43.51235" lon="3.07567">
        <ele>258</ele>
        <time>2015-11-29T09:07:40Z</time>
      </trkpt>
      <trkpt lat="43.51237" lon="3.07567">
        <ele>258.5</ele>
        <time>2015-11-29T09:07:41Z</time>
      </trkpt>
      <trkpt lat="43.5124" lon="3.07567">
        <ele>258.5</ele>
        <time>2015-11-29T09:07:42Z</time>
      </trkpt>
      <trkpt lat="43.51242" lon="3.07567">
        <ele>258.5</ele>
        <time>2015-11-29T09:07:43Z</time>
      </trkpt>
      <trkpt lat="43.51244" lon="3.07567">
        <ele>259</ele>
        <time>2015-11-29T09:07:44Z</time>
      </trkpt>
      <trkpt lat="43.51246" lon="3.07567">
        <ele>259</ele>
        <time>2015-11-29T09:07:45Z</time>
      </trkpt>
      <trkpt lat="43.51248" lon="3.07568">
        <ele>259.5</ele>
        <time>2015-11-29T09:07:46Z</time>
      </trkpt>
      <trkpt lat="43.5125" lon="3.07569">
        <ele>260</ele>
        <time>2015-11-29T09:07:47Z</time>
      </trkpt>
      <trkpt lat="43.51252" lon="3.0757">
        <ele>261</ele>
        <time>2015-11-29T09:07:48Z</time>
      </trkpt>
      <trkpt lat="43.51254" lon="3.07572">
        <ele>261</ele>
        <time>2015-11-29T09:07:49Z</time>
      </trkpt>
      <trkpt lat="43.51255" lon="3.07574">
        <ele>261</ele>
        <time>2015-11-29T09:07:50Z</time>
      </trkpt>
      <trkpt lat="43.51257" lon="3.07575">
        <ele>261.5</ele>
        <time>2015-11-29T09:07:51Z</time>
      </trkpt>
      <trkpt lat="43.51258" lon="3.07576">
        <ele>262</ele>
        <time>2015-11-29T09:07:52Z</time>
      </trkpt>
      <trkpt lat="43.51259" lon="3.07578">
        <ele>262.5</ele>
        <time>2015-11-29T09:07:53Z</time>
      </trkpt>
      <trkpt lat="43.5126" lon="3.07579">
        <ele>263.5</ele>
        <time>2015-11-29T09:07:54Z</time>
      </trkpt>
      <trkpt lat="43.51261" lon="3.07581">
        <ele>264</ele>
        <time>2015-11-29T09:07:55Z</time>
      </trkpt>
      <trkpt lat="43.51262" lon="3.07583">
        <ele>264.5</ele>
        <time>2015-11-29T09:07:56Z</time>
      </trkpt>
      <trkpt lat="43.51263" lon="3.07585">
        <ele>265</ele>
        <time>2015-11-29T09:07:57Z</time>
      </trkpt>
      <trkpt lat="43.51264" lon="3.07585">
        <ele>267</ele>
        <time>2015-11-29T09:07:58Z</time>
      </trkpt>
      <trkpt lat="43.51264" lon="3.07586">
        <ele>268.5</ele>
        <time>2015-11-29T09:07:59Z</time>
      </trkpt>
      <trkpt lat="43.51265" lon="3.07588">
        <ele>269</ele>
        <time>2015-11-29T09:08:00Z</time>
      </trkpt>
      <trkpt lat="43.51266" lon="3.07589">
        <ele>269.5</ele>
        <time>2015-11-29T09:08:01Z</time>
      </trkpt>
      <trkpt lat="43.51266" lon="3.07591">
        <ele>270</ele>
        <time>2015-11-29T09:08:02Z</time>
      </trkpt>
      <trkpt lat="43.51267" lon="3.07593">
        <ele>271</ele>
        <time>2015-11-29T09:08:03Z</time>
      </trkpt>
      <trkpt lat="43.51268" lon="3.07595">
        <ele>271</ele>
        <time>2015-11-29T09:08:04Z</time>
      </trkpt>
      <trkpt lat="43.51268" lon="3.07597">
        <ele>271.5</ele>
        <time>2015-11-29T09:08:05Z</time>
      </trkpt>
      <trkpt lat="43.5127" lon="3.07601">
        <ele>270</ele>
        <time>2015-11-29T09:08:06Z</time>
      </trkpt>
      <trkpt lat="43.5127" lon="3.07602">
        <ele>271</ele>
        <time>2015-11-29T09:08:07Z</time>
      </trkpt>
      <trkpt lat="43.51271" lon="3.07605">
        <ele>270.5</ele>
        <time>2015-11-29T09:08:08Z</time>
      </trkpt>
      <trkpt lat="43.51272" lon="3.07607">
        <ele>271</ele>
        <time>2015-11-29T09:08:09Z</time>
      </trkpt>
      <trkpt lat="43.51273" lon="3.0761">
        <ele>271</ele>
        <time>2015-11-29T09:08:10Z</time>
      </trkpt>
      <trkpt lat="43.51274" lon="3.07612">
        <ele>271</ele>
        <time>2015-11-29T09:08:11Z</time>
      </trkpt>
      <trkpt lat="43.51275" lon="3.07615">
        <ele>271</ele>
        <time>2015-11-29T09:08:12Z</time>
      </trkpt>
      <trkpt lat="43.51276" lon="3.07617">
        <ele>271.5</ele>
        <time>2015-11-29T09:08:13Z</time>
      </trkpt>
      <trkpt lat="43.51277" lon="3.07619">
        <ele>271.5</ele>
        <time>2015-11-29T09:08:14Z</time>
      </trkpt>
      <trkpt lat="43.51278" lon="3.0762">
        <ele>272</ele>
        <time>2015-11-29T09:08:15Z</time>
      </trkpt>
      <trkpt lat="43.5128" lon="3.07621">
        <ele>273.5</ele>
        <time>2015-11-29T09:08:16Z</time>
      </trkpt>
      <trkpt lat="43.51282" lon="3.07622">
        <ele>274</ele>
        <time>2015-11-29T09:08:17Z</time>
      </trkpt>
      <trkpt lat="43.51285" lon="3.07623">
        <ele>274.5</ele>
        <time>2015-11-29T09:08:18Z</time>
      </trkpt>
      <trkpt lat="43.51287" lon="3.07622">
        <ele>275.5</ele>
        <time>2015-11-29T09:08:19Z</time>
      </trkpt>
      <trkpt lat="43.51289" lon="3.07621">
        <ele>275.5</ele>
        <time>2015-11-29T09:08:20Z</time>
      </trkpt>
      <trkpt lat="43.5129" lon="3.07619">
        <ele>276.5</ele>
        <time>2015-11-29T09:08:21Z</time>
      </trkpt>
      <trkpt lat="43.51291" lon="3.07618">
        <ele>277</ele>
        <time>2015-11-29T09:08:22Z</time>
      </trkpt>
      <trkpt lat="43.51292" lon="3.07616">
        <ele>277.5</ele>
        <time>2015-11-29T09:08:23Z</time>
      </trkpt>
      <trkpt lat="43.51293" lon="3.07615">
        <ele>278</ele>
        <time>2015-11-29T09:08:24Z</time>
      </trkpt>
      <trkpt lat="43.51295" lon="3.07614">
        <ele>278.5</ele>
        <time>2015-11-29T09:08:25Z</time>
      </trkpt>
      <trkpt lat="43.51296" lon="3.07612">
        <ele>278.5</ele>
        <time>2015-11-29T09:08:26Z</time>
      </trkpt>
      <trkpt lat="43.51297" lon="3.07611">
        <ele>278.5</ele>
        <time>2015-11-29T09:08:27Z</time>
      </trkpt>
      <trkpt lat="43.51298" lon="3.0761">
        <ele>279</ele>
        <time>2015-11-29T09:08:28Z</time>
      </trkpt>
      <trkpt lat="43.51299" lon="3.07608">
        <ele>279</ele>
        <time>2015-11-29T09:08:29Z</time>
      </trkpt>
      <trkpt lat="43.513" lon="3.07607">
        <ele>279.5</ele>
        <time>2015-11-29T09:08:30Z</time>
      </trkpt>
      <trkpt lat="43.51302" lon="3.07605">
        <ele>280.5</ele>
        <time>2015-11-29T09:08:31Z</time>
      </trkpt>
      <trkpt lat="43.51303" lon="3.07604">
        <ele>280.5</ele>
        <time>2015-11-29T09:08:32Z</time>
      </trkpt>
      <trkpt lat="43.51304" lon="3.07603">
        <ele>281</ele>
        <time>2015-11-29T09:08:33Z</time>
      </trkpt>
      <trkpt lat="43.51306" lon="3.07602">
        <ele>281.5</ele>
        <time>2015-11-29T09:08:34Z</time>
      </trkpt>
      <trkpt lat="43.51308" lon="3.07601">
        <ele>281.5</ele>
        <time>2015-11-29T09:08:35Z</time>
      </trkpt>
      <trkpt lat="43.5131" lon="3.076">
        <ele>282</ele>
        <time>2015-11-29T09:08:36Z</time>
      </trkpt>
      <trkpt lat="43.51311" lon="3.076">
        <ele>282.5</ele>
        <time>2015-11-29T09:08:37Z</time>
      </trkpt>
      <trkpt lat="43.51313" lon="3.076">
        <ele>282</ele>
        <time>2015-11-29T09:08:38Z</time>
      </trkpt>
      <trkpt lat="43.51315" lon="3.07599">
        <ele>282</ele>
        <time>2015-11-29T09:08:39Z</time>
      </trkpt>
      <trkpt lat="43.51317" lon="3.076">
        <ele>281.5</ele>
        <time>2015-11-29T09:08:40Z</time>
      </trkpt>
      <trkpt lat="43.51319" lon="3.07599">
        <ele>282</ele>
        <time>2015-11-29T09:08:41Z</time>
      </trkpt>
      <trkpt lat="43.51321" lon="3.07599">
        <ele>281.5</ele>
        <time>2015-11-29T09:08:42Z</time>
      </trkpt>
      <trkpt lat="43.51323" lon="3.07599">
        <ele>282</ele>
        <time>2015-11-29T09:08:43Z</time>
      </trkpt>
      <trkpt lat="43.51325" lon="3.07599">
        <ele>282</ele>
        <time>2015-11-29T09:08:44Z</time>
      </trkpt>
      <trkpt lat="43.51327" lon="3.07599">
        <ele>282</ele>
        <time>2015-11-29T09:08:45Z</time>
      </trkpt>
      <trkpt lat="43.51328" lon="3.07599">
        <ele>282.5</ele>
        <time>2015-11-29T09:08:46Z</time>
      </trkpt>
      <trkpt lat="43.5133" lon="3.07599">
        <ele>282</ele>
        <time>2015-11-29T09:08:47Z</time>
      </trkpt>
      <trkpt lat="43.51332" lon="3.07599">
        <ele>282</ele>
        <time>2015-11-29T09:08:48Z</time>
      </trkpt>
      <trkpt lat="43.51334" lon="3.07599">
        <ele>282.5</ele>
        <time>2015-11-29T09:08:49Z</time>
      </trkpt>
      <trkpt lat="43.51336" lon="3.07599">
        <ele>282.5</ele>
        <time>2015-11-29T09:08:50Z</time>
      </trkpt>
      <trkpt lat="43.51338" lon="3.07598">
        <ele>283</ele>
        <time>2015-11-29T09:08:51Z</time>
      </trkpt>
      <trkpt lat="43.5134" lon="3.07598">
        <ele>282.5</ele>
        <time>2015-11-29T09:08:52Z</time>
      </trkpt>
      <trkpt lat="43.51341" lon="3.07598">
        <ele>282.5</ele>
        <time>2015-11-29T09:08:53Z</time>
      </trkpt>
      <trkpt lat="43.51343" lon="3.07598">
        <ele>282.5</ele>
        <time>2015-11-29T09:08:54Z</time>
      </trkpt>
      <trkpt lat="43.51345" lon="3.07599">
        <ele>282.5</ele>
        <time>2015-11-29T09:08:55Z</time>
      </trkpt>
      <trkpt lat="43.51346" lon="3.07599">
        <ele>283</ele>
        <time>2015-11-29T09:08:56Z</time>
      </trkpt>
      <trkpt lat="43.51348" lon="3.07599">
        <ele>283</ele>
        <time>2015-11-29T09:08:57Z</time>
      </trkpt>
      <trkpt lat="43.5135" lon="3.07599">
        <ele>283.5</ele>
        <time>2015-11-29T09:08:58Z</time>
      </trkpt>
      <trkpt lat="43.51352" lon="3.076">
        <ele>283.5</ele>
        <time>2015-11-29T09:08:59Z</time>
      </trkpt>
      <trkpt lat="43.51354" lon="3.076">
        <ele>284</ele>
        <time>2015-11-29T09:09:00Z</time>
      </trkpt>
      <trkpt lat="43.51355" lon="3.07601">
        <ele>284.5</ele>
        <time>2015-11-29T09:09:00Z</time>
      </trkpt>
      <trkpt lat="43.51357" lon="3.07601">
        <ele>284.5</ele>
        <time>2015-11-29T09:09:01Z</time>
      </trkpt>
      <trkpt lat="43.51359" lon="3.07603">
        <ele>285</ele>
        <time>2015-11-29T09:09:02Z</time>
      </trkpt>
      <trkpt lat="43.51361" lon="3.07604">
        <ele>284.5</ele>
        <time>2015-11-29T09:09:03Z</time>
      </trkpt>
      <trkpt lat="43.51362" lon="3.07605">
        <ele>284.5</ele>
        <time>2015-11-29T09:09:05Z</time>
      </trkpt>
      <trkpt lat="43.51364" lon="3.07606">
        <ele>285</ele>
        <time>2015-11-29T09:09:05Z</time>
      </trkpt>
      <trkpt lat="43.51367" lon="3.07608">
        <ele>285</ele>
        <time>2015-11-29T09:09:06Z</time>
      </trkpt>
      <trkpt lat="43.51369" lon="3.07609">
        <ele>285</ele>
        <time>2015-11-29T09:09:07Z</time>
      </trkpt>
      <trkpt lat="43.51371" lon="3.07611">
        <ele>284.5</ele>
        <time>2015-11-29T09:09:08Z</time>
      </trkpt>
      <trkpt lat="43.51373" lon="3.07612">
        <ele>285</ele>
        <time>2015-11-29T09:09:09Z</time>
      </trkpt>
      <trkpt lat="43.51375" lon="3.07613">
        <ele>285</ele>
        <time>2015-11-29T09:09:10Z</time>
      </trkpt>
      <trkpt lat="43.51377" lon="3.07614">
        <ele>285</ele>
        <time>2015-11-29T09:09:11Z</time>
      </trkpt>
      <trkpt lat="43.51379" lon="3.07615">
        <ele>285</ele>
        <time>2015-11-29T09:09:12Z</time>
      </trkpt>
      <trkpt lat="43.51381" lon="3.07616">
        <ele>285.5</ele>
        <time>2015-11-29T09:09:13Z</time>
      </trkpt>
      <trkpt lat="43.51383" lon="3.07616">
        <ele>285</ele>
        <time>2015-11-29T09:09:14Z</time>
      </trkpt>
      <trkpt lat="43.51384" lon="3.07616">
        <ele>285.5</ele>
        <time>2015-11-29T09:09:15Z</time>
      </trkpt>
      <trkpt lat="43.51386" lon="3.07615">
        <ele>286</ele>
        <time>2015-11-29T09:09:16Z</time>
      </trkpt>
      <trkpt lat="43.51388" lon="3.07614">
        <ele>287</ele>
        <time>2015-11-29T09:09:17Z</time>
      </trkpt>
      <trkpt lat="43.5139" lon="3.07614">
        <ele>287.5</ele>
        <time>2015-11-29T09:09:18Z</time>
      </trkpt>
      <trkpt lat="43.51391" lon="3.07613">
        <ele>287.5</ele>
        <time>2015-11-29T09:09:19Z</time>
      </trkpt>
      <trkpt lat="43.51393" lon="3.07612">
        <ele>288</ele>
        <time>2015-11-29T09:09:20Z</time>
      </trkpt>
      <trkpt lat="43.51394" lon="3.07611">
        <ele>289</ele>
        <time>2015-11-29T09:09:21Z</time>
      </trkpt>
      <trkpt lat="43.51396" lon="3.0761">
        <ele>289.5</ele>
        <time>2015-11-29T09:09:22Z</time>
      </trkpt>
      <trkpt lat="43.51397" lon="3.07608">
        <ele>290</ele>
        <time>2015-11-29T09:09:23Z</time>
      </trkpt>
      <trkpt lat="43.51399" lon="3.07608">
        <ele>290.5</ele>
        <time>2015-11-29T09:09:24Z</time>
      </trkpt>
      <trkpt lat="43.514" lon="3.07607">
        <ele>291</ele>
        <time>2015-11-29T09:09:25Z</time>
      </trkpt>
      <trkpt lat="43.51402" lon="3.07606">
        <ele>291.5</ele>
        <time>2015-11-29T09:09:26Z</time>
      </trkpt>
      <trkpt lat="43.51403" lon="3.07605">
        <ele>292</ele>
        <time>2015-11-29T09:09:27Z</time>
      </trkpt>
      <trkpt lat="43.51404" lon="3.07605">
        <ele>292.5</ele>
        <time>2015-11-29T09:09:28Z</time>
      </trkpt>
      <trkpt lat="43.51406" lon="3.07604">
        <ele>292.5</ele>
        <time>2015-11-29T09:09:29Z</time>
      </trkpt>
      <trkpt lat="43.51407" lon="3.07604">
        <ele>292.5</ele>
        <time>2015-11-29T09:09:30Z</time>
      </trkpt>
      <trkpt lat="43.51408" lon="3.07603">
        <ele>293</ele>
        <time>2015-11-29T09:09:31Z</time>
      </trkpt>
      <trkpt lat="43.51409" lon="3.07603">
        <ele>293.5</ele>
        <time>2015-11-29T09:09:32Z</time>
      </trkpt>
      <trkpt lat="43.51411" lon="3.07603">
        <ele>293</ele>
        <time>2015-11-29T09:09:33Z</time>
      </trkpt>
      <trkpt lat="43.51412" lon="3.07602">
        <ele>293.5</ele>
        <time>2015-11-29T09:09:34Z</time>
      </trkpt>
      <trkpt lat="43.51413" lon="3.07602">
        <ele>293.5</ele>
        <time>2015-11-29T09:09:35Z</time>
      </trkpt>
      <trkpt lat="43.51414" lon="3.07601">
        <ele>294</ele>
        <time>2015-11-29T09:09:36Z</time>
      </trkpt>
      <trkpt lat="43.51416" lon="3.076">
        <ele>294.5</ele>
        <time>2015-11-29T09:09:37Z</time>
      </trkpt>
      <trkpt lat="43.51417" lon="3.076">
        <ele>294.5</ele>
        <time>2015-11-29T09:09:38Z</time>
      </trkpt>
      <trkpt lat="43.51419" lon="3.07599">
        <ele>295</ele>
        <time>2015-11-29T09:09:39Z</time>
      </trkpt>
      <trkpt lat="43.5142" lon="3.07599">
        <ele>295</ele>
        <time>2015-11-29T09:09:40Z</time>
      </trkpt>
      <trkpt lat="43.51422" lon="3.07598">
        <ele>294.5</ele>
        <time>2015-11-29T09:09:41Z</time>
      </trkpt>
      <trkpt lat="43.51423" lon="3.07597">
        <ele>295</ele>
        <time>2015-11-29T09:09:42Z</time>
      </trkpt>
      <trkpt lat="43.51425" lon="3.07596">
        <ele>295</ele>
        <time>2015-11-29T09:09:43Z</time>
      </trkpt>
      <trkpt lat="43.51426" lon="3.07596">
        <ele>295</ele>
        <time>2015-11-29T09:09:44Z</time>
      </trkpt>
      <trkpt lat="43.51428" lon="3.07595">
        <ele>295.5</ele>
        <time>2015-11-29T09:09:45Z</time>
      </trkpt>
      <trkpt lat="43.51429" lon="3.07594">
        <ele>295.5</ele>
        <time>2015-11-29T09:09:46Z</time>
      </trkpt>
      <trkpt lat="43.51431" lon="3.07594">
        <ele>295.5</ele>
        <time>2015-11-29T09:09:47Z</time>
      </trkpt>
      <trkpt lat="43.51432" lon="3.07593">
        <ele>295.5</ele>
        <time>2015-11-29T09:09:48Z</time>
      </trkpt>
      <trkpt lat="43.51434" lon="3.07593">
        <ele>295.5</ele>
        <time>2015-11-29T09:09:49Z</time>
      </trkpt>
      <trkpt lat="43.51436" lon="3.07592">
        <ele>295.5</ele>
        <time>2015-11-29T09:09:50Z</time>
      </trkpt>
      <trkpt lat="43.51437" lon="3.07591">
        <ele>295</ele>
        <time>2015-11-29T09:09:51Z</time>
      </trkpt>
      <trkpt lat="43.51439" lon="3.07591">
        <ele>295</ele>
        <time>2015-11-29T09:09:52Z</time>
      </trkpt>
      <trkpt lat="43.51441" lon="3.0759">
        <ele>295</ele>
        <time>2015-11-29T09:09:53Z</time>
      </trkpt>
      <trkpt lat="43.51442" lon="3.0759">
        <ele>295</ele>
        <time>2015-11-29T09:09:54Z</time>
      </trkpt>
      <trkpt lat="43.51444" lon="3.07589">
        <ele>294.5</ele>
        <time>2015-11-29T09:09:55Z</time>
      </trkpt>
      <trkpt lat="43.51446" lon="3.07589">
        <ele>295</ele>
        <time>2015-11-29T09:09:56Z</time>
      </trkpt>
      <trkpt lat="43.51447" lon="3.07588">
        <ele>295</ele>
        <time>2015-11-29T09:09:57Z</time>
      </trkpt>
      <trkpt lat="43.51449" lon="3.07588">
        <ele>295</ele>
        <time>2015-11-29T09:09:58Z</time>
      </trkpt>
      <trkpt lat="43.5145" lon="3.07587">
        <ele>295.5</ele>
        <time>2015-11-29T09:09:59Z</time>
      </trkpt>
      <trkpt lat="43.51451" lon="3.07587">
        <ele>296</ele>
        <time>2015-11-29T09:10:00Z</time>
      </trkpt>
      <trkpt lat="43.51453" lon="3.07586">
        <ele>296</ele>
        <time>2015-11-29T09:10:01Z</time>
      </trkpt>
      <trkpt lat="43.51455" lon="3.07586">
        <ele>295.5</ele>
        <time>2015-11-29T09:10:02Z</time>
      </trkpt>
      <trkpt lat="43.51456" lon="3.07585">
        <ele>296</ele>
        <time>2015-11-29T09:10:03Z</time>
      </trkpt>
      <trkpt lat="43.51458" lon="3.07585">
        <ele>296</ele>
        <time>2015-11-29T09:10:04Z</time>
      </trkpt>
      <trkpt lat="43.51459" lon="3.07584">
        <ele>296.5</ele>
        <time>2015-11-29T09:10:05Z</time>
      </trkpt>
      <trkpt lat="43.51461" lon="3.07584">
        <ele>296.5</ele>
        <time>2015-11-29T09:10:06Z</time>
      </trkpt>
      <trkpt lat="43.51462" lon="3.07584">
        <ele>296.5</ele>
        <time>2015-11-29T09:10:07Z</time>
      </trkpt>
      <trkpt lat="43.51464" lon="3.07584">
        <ele>296.5</ele>
        <time>2015-11-29T09:10:08Z</time>
      </trkpt>
      <trkpt lat="43.51466" lon="3.07583">
        <ele>296</ele>
        <time>2015-11-29T09:10:09Z</time>
      </trkpt>
      <trkpt lat="43.51467" lon="3.07583">
        <ele>296.5</ele>
        <time>2015-11-29T09:10:10Z</time>
      </trkpt>
      <trkpt lat="43.51469" lon="3.07582">
        <ele>296.5</ele>
        <time>2015-11-29T09:10:11Z</time>
      </trkpt>
      <trkpt lat="43.5147" lon="3.07582">
        <ele>297.5</ele>
        <time>2015-11-29T09:10:12Z</time>
      </trkpt>
      <trkpt lat="43.51472" lon="3.07581">
        <ele>297.5</ele>
        <time>2015-11-29T09:10:13Z</time>
      </trkpt>
      <trkpt lat="43.51473" lon="3.07581">
        <ele>297.5</ele>
        <time>2015-11-29T09:10:14Z</time>
      </trkpt>
      <trkpt lat="43.51475" lon="3.07581">
        <ele>297.5</ele>
        <time>2015-11-29T09:10:15Z</time>
      </trkpt>
      <trkpt lat="43.51477" lon="3.0758">
        <ele>297.5</ele>
        <time>2015-11-29T09:10:16Z</time>
      </trkpt>
      <trkpt lat="43.51478" lon="3.0758">
        <ele>297.5</ele>
        <time>2015-11-29T09:10:17Z</time>
      </trkpt>
      <trkpt lat="43.5148" lon="3.0758">
        <ele>298</ele>
        <time>2015-11-29T09:10:18Z</time>
      </trkpt>
      <trkpt lat="43.51481" lon="3.0758">
        <ele>298</ele>
        <time>2015-11-29T09:10:19Z</time>
      </trkpt>
      <trkpt lat="43.51483" lon="3.07579">
        <ele>298</ele>
        <time>2015-11-29T09:10:20Z</time>
      </trkpt>
      <trkpt lat="43.51484" lon="3.07579">
        <ele>298.5</ele>
        <time>2015-11-29T09:10:21Z</time>
      </trkpt>
      <trkpt lat="43.51486" lon="3.07579">
        <ele>298.5</ele>
        <time>2015-11-29T09:10:22Z</time>
      </trkpt>
      <trkpt lat="43.51487" lon="3.07578">
        <ele>299</ele>
        <time>2015-11-29T09:10:23Z</time>
      </trkpt>
      <trkpt lat="43.51489" lon="3.07578">
        <ele>298.5</ele>
        <time>2015-11-29T09:10:24Z</time>
      </trkpt>
      <trkpt lat="43.51491" lon="3.07578">
        <ele>298.5</ele>
        <time>2015-11-29T09:10:25Z</time>
      </trkpt>
      <trkpt lat="43.51493" lon="3.07578">
        <ele>299</ele>
        <time>2015-11-29T09:10:26Z</time>
      </trkpt>
      <trkpt lat="43.51495" lon="3.07578">
        <ele>299</ele>
        <time>2015-11-29T09:10:27Z</time>
      </trkpt>
      <trkpt lat="43.51497" lon="3.07578">
        <ele>299.5</ele>
        <time>2015-11-29T09:10:28Z</time>
      </trkpt>
      <trkpt lat="43.51499" lon="3.07578">
        <ele>299.5</ele>
        <time>2015-11-29T09:10:29Z</time>
      </trkpt>
      <trkpt lat="43.51501" lon="3.07578">
        <ele>299</ele>
        <time>2015-11-29T09:10:30Z</time>
      </trkpt>
      <trkpt lat="43.51503" lon="3.07579">
        <ele>298</ele>
        <time>2015-11-29T09:10:31Z</time>
      </trkpt>
      <trkpt lat="43.51505" lon="3.07579">
        <ele>297.5</ele>
        <time>2015-11-29T09:10:32Z</time>
      </trkpt>
      <trkpt lat="43.51507" lon="3.0758">
        <ele>297</ele>
        <time>2015-11-29T09:10:33Z</time>
      </trkpt>
      <trkpt lat="43.51509" lon="3.0758">
        <ele>297</ele>
        <time>2015-11-29T09:10:34Z</time>
      </trkpt>
      <trkpt lat="43.51512" lon="3.0758">
        <ele>297</ele>
        <time>2015-11-29T09:10:35Z</time>
      </trkpt>
      <trkpt lat="43.51513" lon="3.0758">
        <ele>297.5</ele>
        <time>2015-11-29T09:10:36Z</time>
      </trkpt>
      <trkpt lat="43.51515" lon="3.0758">
        <ele>297.5</ele>
        <time>2015-11-29T09:10:37Z</time>
      </trkpt>
      <trkpt lat="43.51517" lon="3.0758">
        <ele>298</ele>
        <time>2015-11-29T09:10:38Z</time>
      </trkpt>
      <trkpt lat="43.51519" lon="3.0758">
        <ele>298.5</ele>
        <time>2015-11-29T09:10:39Z</time>
      </trkpt>
      <trkpt lat="43.51521" lon="3.07581">
        <ele>298</ele>
        <time>2015-11-29T09:10:40Z</time>
      </trkpt>
      <trkpt lat="43.51522" lon="3.07582">
        <ele>298</ele>
        <time>2015-11-29T09:10:41Z</time>
      </trkpt>
      <trkpt lat="43.51524" lon="3.07583">
        <ele>298.5</ele>
        <time>2015-11-29T09:10:42Z</time>
      </trkpt>
      <trkpt lat="43.51526" lon="3.07584">
        <ele>298.5</ele>
        <time>2015-11-29T09:10:43Z</time>
      </trkpt>
      <trkpt lat="43.51528" lon="3.07585">
        <ele>298</ele>
        <time>2015-11-29T09:10:44Z</time>
      </trkpt>
      <trkpt lat="43.5153" lon="3.07585">
        <ele>298.5</ele>
        <time>2015-11-29T09:10:45Z</time>
      </trkpt>
      <trkpt lat="43.51531" lon="3.07587">
        <ele>298.5</ele>
        <time>2015-11-29T09:10:46Z</time>
      </trkpt>
      <trkpt lat="43.51533" lon="3.07588">
        <ele>298.5</ele>
        <time>2015-11-29T09:10:47Z</time>
      </trkpt>
      <trkpt lat="43.51535" lon="3.07589">
        <ele>298.5</ele>
        <time>2015-11-29T09:10:48Z</time>
      </trkpt>
      <trkpt lat="43.51537" lon="3.07589">
        <ele>298.5</ele>
        <time>2015-11-29T09:10:49Z</time>
      </trkpt>
      <trkpt lat="43.51539" lon="3.07589">
        <ele>298.5</ele>
        <time>2015-11-29T09:10:50Z</time>
      </trkpt>
      <trkpt lat="43.51542" lon="3.07588">
        <ele>298</ele>
        <time>2015-11-29T09:10:51Z</time>
      </trkpt>
      <trkpt lat="43.51544" lon="3.07587">
        <ele>298.5</ele>
        <time>2015-11-29T09:10:52Z</time>
      </trkpt>
      <trkpt lat="43.51546" lon="3.07585">
        <ele>298.5</ele>
        <time>2015-11-29T09:10:53Z</time>
      </trkpt>
      <trkpt lat="43.51547" lon="3.07583">
        <ele>299.5</ele>
        <time>2015-11-29T09:10:54Z</time>
      </trkpt>
      <trkpt lat="43.51548" lon="3.07581">
        <ele>300</ele>
        <time>2015-11-29T09:10:55Z</time>
      </trkpt>
      <trkpt lat="43.51548" lon="3.07578">
        <ele>301</ele>
        <time>2015-11-29T09:10:56Z</time>
      </trkpt>
      <trkpt lat="43.51549" lon="3.07576">
        <ele>301.5</ele>
        <time>2015-11-29T09:10:57Z</time>
      </trkpt>
      <trkpt lat="43.5155" lon="3.07574">
        <ele>302</ele>
        <time>2015-11-29T09:10:58Z</time>
      </trkpt>
      <trkpt lat="43.5155" lon="3.07571">
        <ele>302.5</ele>
        <time>2015-11-29T09:10:59Z</time>
      </trkpt>
      <trkpt lat="43.51551" lon="3.07569">
        <ele>303</ele>
        <time>2015-11-29T09:11:00Z</time>
      </trkpt>
      <trkpt lat="43.51552" lon="3.07566">
        <ele>303.5</ele>
        <time>2015-11-29T09:11:01Z</time>
      </trkpt>
      <trkpt lat="43.51553" lon="3.07564">
        <ele>304</ele>
        <time>2015-11-29T09:11:02Z</time>
      </trkpt>
      <trkpt lat="43.51555" lon="3.07562">
        <ele>304</ele>
        <time>2015-11-29T09:11:03Z</time>
      </trkpt>
      <trkpt lat="43.51556" lon="3.07561">
        <ele>304</ele>
        <time>2015-11-29T09:11:04Z</time>
      </trkpt>
      <trkpt lat="43.51557" lon="3.07559">
        <ele>304.5</ele>
        <time>2015-11-29T09:11:05Z</time>
      </trkpt>
      <trkpt lat="43.51559" lon="3.07557">
        <ele>305</ele>
        <time>2015-11-29T09:11:06Z</time>
      </trkpt>
      <trkpt lat="43.5156" lon="3.07556">
        <ele>304.5</ele>
        <time>2015-11-29T09:11:07Z</time>
      </trkpt>
      <trkpt lat="43.51562" lon="3.07555">
        <ele>304.5</ele>
        <time>2015-11-29T09:11:08Z</time>
      </trkpt>
      <trkpt lat="43.51563" lon="3.07554">
        <ele>305</ele>
        <time>2015-11-29T09:11:09Z</time>
      </trkpt>
      <trkpt lat="43.51564" lon="3.07553">
        <ele>305</ele>
        <time>2015-11-29T09:11:10Z</time>
      </trkpt>
      <trkpt lat="43.51565" lon="3.07552">
        <ele>305</ele>
        <time>2015-11-29T09:11:11Z</time>
      </trkpt>
      <trkpt lat="43.51566" lon="3.07551">
        <ele>305</ele>
        <time>2015-11-29T09:11:12Z</time>
      </trkpt>
      <trkpt lat="43.51568" lon="3.07551">
        <ele>305</ele>
        <time>2015-11-29T09:11:13Z</time>
      </trkpt>
      <trkpt lat="43.51569" lon="3.0755">
        <ele>305</ele>
        <time>2015-11-29T09:11:14Z</time>
      </trkpt>
      <trkpt lat="43.5157" lon="3.07549">
        <ele>305</ele>
        <time>2015-11-29T09:11:15Z</time>
      </trkpt>
      <trkpt lat="43.51572" lon="3.07548">
        <ele>305</ele>
        <time>2015-11-29T09:11:16Z</time>
      </trkpt>
      <trkpt lat="43.51573" lon="3.07548">
        <ele>304.5</ele>
        <time>2015-11-29T09:11:17Z</time>
      </trkpt>
      <trkpt lat="43.51575" lon="3.07547">
        <ele>304.5</ele>
        <time>2015-11-29T09:11:18Z</time>
      </trkpt>
      <trkpt lat="43.51577" lon="3.07546">
        <ele>305</ele>
        <time>2015-11-29T09:11:19Z</time>
      </trkpt>
      <trkpt lat="43.51578" lon="3.07546">
        <ele>305.5</ele>
        <time>2015-11-29T09:11:20Z</time>
      </trkpt>
      <trkpt lat="43.51579" lon="3.07545">
        <ele>305.5</ele>
        <time>2015-11-29T09:11:21Z</time>
      </trkpt>
      <trkpt lat="43.51581" lon="3.07544">
        <ele>306</ele>
        <time>2015-11-29T09:11:22Z</time>
      </trkpt>
      <trkpt lat="43.51583" lon="3.07543">
        <ele>306</ele>
        <time>2015-11-29T09:11:23Z</time>
      </trkpt>
      <trkpt lat="43.51584" lon="3.07543">
        <ele>306</ele>
        <time>2015-11-29T09:11:24Z</time>
      </trkpt>
      <trkpt lat="43.51586" lon="3.07542">
        <ele>305.5</ele>
        <time>2015-11-29T09:11:25Z</time>
      </trkpt>
      <trkpt lat="43.51587" lon="3.07541">
        <ele>306</ele>
        <time>2015-11-29T09:11:26Z</time>
      </trkpt>
      <trkpt lat="43.51589" lon="3.07541">
        <ele>306</ele>
        <time>2015-11-29T09:11:27Z</time>
      </trkpt>
      <trkpt lat="43.51591" lon="3.07541">
        <ele>306</ele>
        <time>2015-11-29T09:11:28Z</time>
      </trkpt>
      <trkpt lat="43.51593" lon="3.0754">
        <ele>306</ele>
        <time>2015-11-29T09:11:29Z</time>
      </trkpt>
      <trkpt lat="43.51594" lon="3.0754">
        <ele>306.5</ele>
        <time>2015-11-29T09:11:30Z</time>
      </trkpt>
      <trkpt lat="43.51596" lon="3.07539">
        <ele>306.5</ele>
        <time>2015-11-29T09:11:31Z</time>
      </trkpt>
      <trkpt lat="43.51597" lon="3.07539">
        <ele>306.5</ele>
        <time>2015-11-29T09:11:32Z</time>
      </trkpt>
      <trkpt lat="43.51599" lon="3.07539">
        <ele>306.5</ele>
        <time>2015-11-29T09:11:33Z</time>
      </trkpt>
      <trkpt lat="43.516" lon="3.07539">
        <ele>306.5</ele>
        <time>2015-11-29T09:11:34Z</time>
      </trkpt>
      <trkpt lat="43.51601" lon="3.07539">
        <ele>307</ele>
        <time>2015-11-29T09:11:35Z</time>
      </trkpt>
      <trkpt lat="43.51603" lon="3.07538">
        <ele>307.5</ele>
        <time>2015-11-29T09:11:36Z</time>
      </trkpt>
      <trkpt lat="43.51604" lon="3.07538">
        <ele>307.5</ele>
        <time>2015-11-29T09:11:37Z</time>
      </trkpt>
      <trkpt lat="43.51606" lon="3.07537">
        <ele>307.5</ele>
        <time>2015-11-29T09:11:38Z</time>
      </trkpt>
      <trkpt lat="43.51607" lon="3.07537">
        <ele>308</ele>
        <time>2015-11-29T09:11:39Z</time>
      </trkpt>
      <trkpt lat="43.51609" lon="3.07537">
        <ele>308</ele>
        <time>2015-11-29T09:11:40Z</time>
      </trkpt>
      <trkpt lat="43.51611" lon="3.07539">
        <ele>306</ele>
        <time>2015-11-29T09:11:41Z</time>
      </trkpt>
      <trkpt lat="43.51613" lon="3.07539">
        <ele>306</ele>
        <time>2015-11-29T09:11:42Z</time>
      </trkpt>
      <trkpt lat="43.51615" lon="3.07539">
        <ele>305</ele>
        <time>2015-11-29T09:11:43Z</time>
      </trkpt>
      <trkpt lat="43.51617" lon="3.07539">
        <ele>305</ele>
        <time>2015-11-29T09:11:44Z</time>
      </trkpt>
      <trkpt lat="43.51618" lon="3.07539">
        <ele>305.5</ele>
        <time>2015-11-29T09:11:45Z</time>
      </trkpt>
      <trkpt lat="43.5162" lon="3.07539">
        <ele>305.5</ele>
        <time>2015-11-29T09:11:46Z</time>
      </trkpt>
      <trkpt lat="43.51622" lon="3.07539">
        <ele>306</ele>
        <time>2015-11-29T09:11:47Z</time>
      </trkpt>
      <trkpt lat="43.51624" lon="3.0754">
        <ele>305.5</ele>
        <time>2015-11-29T09:11:48Z</time>
      </trkpt>
      <trkpt lat="43.51624" lon="3.0754">
        <ele>305</ele>
        <time>2015-11-29T09:11:49Z</time>
      </trkpt>
      <trkpt lat="43.51624" lon="3.0754">
        <ele>305</ele>
        <time>2015-11-29T09:11:51Z</time>
      </trkpt>
      <trkpt lat="43.51624" lon="3.07539">
        <ele>306</ele>
        <time>2015-11-29T09:11:56Z</time>
      </trkpt>
      <trkpt lat="43.51626" lon="3.07536">
        <ele>309</ele>
        <time>2015-11-29T09:12:18Z</time>
      </trkpt>
      <trkpt lat="43.51627" lon="3.07537">
        <ele>310</ele>
        <time>2015-11-29T09:12:21Z</time>
      </trkpt>
      <trkpt lat="43.51631" lon="3.0754">
        <ele>303</ele>
        <time>2015-11-29T09:12:44Z</time>
      </trkpt>
      <trkpt lat="43.51631" lon="3.0754">
        <ele>302</ele>
        <time>2015-11-29T09:12:54Z</time>
      </trkpt>
      <trkpt lat="43.5163" lon="3.07539">
        <ele>301.5</ele>
        <time>2015-11-29T09:12:56Z</time>
      </trkpt>
      <trkpt lat="43.51629" lon="3.07539">
        <ele>301</ele>
        <time>2015-11-29T09:12:57Z</time>
      </trkpt>
      <trkpt lat="43.51628" lon="3.07539">
        <ele>301</ele>
        <time>2015-11-29T09:12:58Z</time>
      </trkpt>
      <trkpt lat="43.51626" lon="3.07538">
        <ele>301.5</ele>
        <time>2015-11-29T09:12:59Z</time>
      </trkpt>
      <trkpt lat="43.51625" lon="3.07538">
        <ele>301.5</ele>
        <time>2015-11-29T09:13:00Z</time>
      </trkpt>
      <trkpt lat="43.51622" lon="3.07538">
        <ele>300.5</ele>
        <time>2015-11-29T09:13:01Z</time>
      </trkpt>
      <trkpt lat="43.5162" lon="3.07538">
        <ele>300.5</ele>
        <time>2015-11-29T09:13:02Z</time>
      </trkpt>
      <trkpt lat="43.51618" lon="3.07538">
        <ele>300</ele>
        <time>2015-11-29T09:13:03Z</time>
      </trkpt>
      <trkpt lat="43.51616" lon="3.07538">
        <ele>299.5</ele>
        <time>2015-11-29T09:13:04Z</time>
      </trkpt>
      <trkpt lat="43.51613" lon="3.07538">
        <ele>299.5</ele>
        <time>2015-11-29T09:13:05Z</time>
      </trkpt>
      <trkpt lat="43.5161" lon="3.07539">
        <ele>298.5</ele>
        <time>2015-11-29T09:13:06Z</time>
      </trkpt>
      <trkpt lat="43.51607" lon="3.07539">
        <ele>297.5</ele>
        <time>2015-11-29T09:13:07Z</time>
      </trkpt>
      <trkpt lat="43.51605" lon="3.07539">
        <ele>298</ele>
        <time>2015-11-29T09:13:08Z</time>
      </trkpt>
      <trkpt lat="43.51603" lon="3.07539">
        <ele>298</ele>
        <time>2015-11-29T09:13:09Z</time>
      </trkpt>
      <trkpt lat="43.516" lon="3.0754">
        <ele>299</ele>
        <time>2015-11-29T09:13:10Z</time>
      </trkpt>
      <trkpt lat="43.51598" lon="3.07541">
        <ele>299</ele>
        <time>2015-11-29T09:13:11Z</time>
      </trkpt>
      <trkpt lat="43.51595" lon="3.07541">
        <ele>299</ele>
        <time>2015-11-29T09:13:12Z</time>
      </trkpt>
      <trkpt lat="43.51592" lon="3.07542">
        <ele>299</ele>
        <time>2015-11-29T09:13:13Z</time>
      </trkpt>
      <trkpt lat="43.51589" lon="3.07543">
        <ele>298</ele>
        <time>2015-11-29T09:13:14Z</time>
      </trkpt>
      <trkpt lat="43.51587" lon="3.07545">
        <ele>298.5</ele>
        <time>2015-11-29T09:13:15Z</time>
      </trkpt>
      <trkpt lat="43.51585" lon="3.07546">
        <ele>298.5</ele>
        <time>2015-11-29T09:13:16Z</time>
      </trkpt>
      <trkpt lat="43.51582" lon="3.07548">
        <ele>299</ele>
        <time>2015-11-29T09:13:17Z</time>
      </trkpt>
      <trkpt lat="43.5158" lon="3.0755">
        <ele>299.5</ele>
        <time>2015-11-29T09:13:18Z</time>
      </trkpt>
      <trkpt lat="43.51577" lon="3.07553">
        <ele>300</ele>
        <time>2015-11-29T09:13:19Z</time>
      </trkpt>
      <trkpt lat="43.51575" lon="3.07555">
        <ele>300.5</ele>
        <time>2015-11-29T09:13:20Z</time>
      </trkpt>
      <trkpt lat="43.51572" lon="3.07558">
        <ele>300</ele>
        <time>2015-11-29T09:13:21Z</time>
      </trkpt>
      <trkpt lat="43.51569" lon="3.07561">
        <ele>300.5</ele>
        <time>2015-11-29T09:13:22Z</time>
      </trkpt>
      <trkpt lat="43.51567" lon="3.07566">
        <ele>301</ele>
        <time>2015-11-29T09:13:23Z</time>
      </trkpt>
      <trkpt lat="43.51564" lon="3.07571">
        <ele>301</ele>
        <time>2015-11-29T09:13:24Z</time>
      </trkpt>
      <trkpt lat="43.51562" lon="3.07576">
        <ele>301</ele>
        <time>2015-11-29T09:13:25Z</time>
      </trkpt>
      <trkpt lat="43.51559" lon="3.07581">
        <ele>300.5</ele>
        <time>2015-11-29T09:13:26Z</time>
      </trkpt>
      <trkpt lat="43.51556" lon="3.07585">
        <ele>300</ele>
        <time>2015-11-29T09:13:27Z</time>
      </trkpt>
      <trkpt lat="43.51552" lon="3.07588">
        <ele>300</ele>
        <time>2015-11-29T09:13:28Z</time>
      </trkpt>
      <trkpt lat="43.51548" lon="3.07589">
        <ele>301.5</ele>
        <time>2015-11-29T09:13:29Z</time>
      </trkpt>
      <trkpt lat="43.51544" lon="3.07587">
        <ele>300.5</ele>
        <time>2015-11-29T09:13:30Z</time>
      </trkpt>
      <trkpt lat="43.51541" lon="3.07584">
        <ele>300</ele>
        <time>2015-11-29T09:13:31Z</time>
      </trkpt>
      <trkpt lat="43.51537" lon="3.07582">
        <ele>299.5</ele>
        <time>2015-11-29T09:13:31Z</time>
      </trkpt>
      <trkpt lat="43.51534" lon="3.0758">
        <ele>298.5</ele>
        <time>2015-11-29T09:13:32Z</time>
      </trkpt>
      <trkpt lat="43.51529" lon="3.07578">
        <ele>297.5</ele>
        <time>2015-11-29T09:13:33Z</time>
      </trkpt>
      <trkpt lat="43.51525" lon="3.07577">
        <ele>297</ele>
        <time>2015-11-29T09:13:34Z</time>
      </trkpt>
      <trkpt lat="43.5152" lon="3.07577">
        <ele>295.5</ele>
        <time>2015-11-29T09:13:35Z</time>
      </trkpt>
      <trkpt lat="43.51515" lon="3.07576">
        <ele>294.5</ele>
        <time>2015-11-29T09:13:36Z</time>
      </trkpt>
      <trkpt lat="43.51511" lon="3.07576">
        <ele>295.5</ele>
        <time>2015-11-29T09:13:37Z</time>
      </trkpt>
      <trkpt lat="43.51507" lon="3.07577">
        <ele>295</ele>
        <time>2015-11-29T09:13:38Z</time>
      </trkpt>
      <trkpt lat="43.51504" lon="3.07577">
        <ele>293</ele>
        <time>2015-11-29T09:13:39Z</time>
      </trkpt>
      <trkpt lat="43.515" lon="3.07577">
        <ele>292</ele>
        <time>2015-11-29T09:13:40Z</time>
      </trkpt>
      <trkpt lat="43.51496" lon="3.07578">
        <ele>292.5</ele>
        <time>2015-11-29T09:13:41Z</time>
      </trkpt>
      <trkpt lat="43.51494" lon="3.07581">
        <ele>293</ele>
        <time>2015-11-29T09:13:42Z</time>
      </trkpt>
      <trkpt lat="43.5149" lon="3.07582">
        <ele>293.5</ele>
        <time>2015-11-29T09:13:43Z</time>
      </trkpt>
      <trkpt lat="43.51486" lon="3.07582">
        <ele>293</ele>
        <time>2015-11-29T09:13:44Z</time>
      </trkpt>
      <trkpt lat="43.51481" lon="3.07583">
        <ele>293</ele>
        <time>2015-11-29T09:13:45Z</time>
      </trkpt>
      <trkpt lat="43.51476" lon="3.07583">
        <ele>293</ele>
        <time>2015-11-29T09:13:46Z</time>
      </trkpt>
      <trkpt lat="43.51471" lon="3.07585">
        <ele>294.5</ele>
        <time>2015-11-29T09:13:48Z</time>
      </trkpt>
      <trkpt lat="43.51465" lon="3.07587">
        <ele>293.5</ele>
        <time>2015-11-29T09:13:48Z</time>
      </trkpt>
      <trkpt lat="43.5146" lon="3.0759">
        <ele>293</ele>
        <time>2015-11-29T09:13:49Z</time>
      </trkpt>
      <trkpt lat="43.51454" lon="3.07593">
        <ele>292.5</ele>
        <time>2015-11-29T09:13:50Z</time>
      </trkpt>
      <trkpt lat="43.51447" lon="3.07594">
        <ele>291</ele>
        <time>2015-11-29T09:13:51Z</time>
      </trkpt>
      <trkpt lat="43.51441" lon="3.07598">
        <ele>290</ele>
        <time>2015-11-29T09:13:52Z</time>
      </trkpt>
      <trkpt lat="43.51435" lon="3.07601">
        <ele>289.5</ele>
        <time>2015-11-29T09:13:53Z</time>
      </trkpt>
      <trkpt lat="43.51429" lon="3.07604">
        <ele>289.5</ele>
        <time>2015-11-29T09:13:54Z</time>
      </trkpt>
      <trkpt lat="43.51422" lon="3.07607">
        <ele>288</ele>
        <time>2015-11-29T09:13:55Z</time>
      </trkpt>
      <trkpt lat="43.51415" lon="3.0761">
        <ele>287</ele>
        <time>2015-11-29T09:13:56Z</time>
      </trkpt>
      <trkpt lat="43.51407" lon="3.07613">
        <ele>286</ele>
        <time>2015-11-29T09:13:57Z</time>
      </trkpt>
      <trkpt lat="43.514" lon="3.07616">
        <ele>285</ele>
        <time>2015-11-29T09:13:58Z</time>
      </trkpt>
      <trkpt lat="43.51393" lon="3.07618">
        <ele>284.5</ele>
        <time>2015-11-29T09:13:59Z</time>
      </trkpt>
      <trkpt lat="43.51384" lon="3.07615">
        <ele>284</ele>
        <time>2015-11-29T09:14:01Z</time>
      </trkpt>
      <trkpt lat="43.5138" lon="3.07612">
        <ele>283.5</ele>
        <time>2015-11-29T09:14:02Z</time>
      </trkpt>
      <trkpt lat="43.51375" lon="3.07609">
        <ele>283</ele>
        <time>2015-11-29T09:14:03Z</time>
      </trkpt>
      <trkpt lat="43.5137" lon="3.07606">
        <ele>283.5</ele>
        <time>2015-11-29T09:14:04Z</time>
      </trkpt>
      <trkpt lat="43.51365" lon="3.07603">
        <ele>283</ele>
        <time>2015-11-29T09:14:05Z</time>
      </trkpt>
      <trkpt lat="43.51359" lon="3.07601">
        <ele>282</ele>
        <time>2015-11-29T09:14:06Z</time>
      </trkpt>
      <trkpt lat="43.51353" lon="3.07601">
        <ele>281.5</ele>
        <time>2015-11-29T09:14:07Z</time>
      </trkpt>
      <trkpt lat="43.51346" lon="3.07602">
        <ele>281</ele>
        <time>2015-11-29T09:14:08Z</time>
      </trkpt>
      <trkpt lat="43.51338" lon="3.07602">
        <ele>279</ele>
        <time>2015-11-29T09:14:09Z</time>
      </trkpt>
      <trkpt lat="43.5133" lon="3.07603">
        <ele>276.5</ele>
        <time>2015-11-29T09:14:11Z</time>
      </trkpt>
      <trkpt lat="43.51322" lon="3.07605">
        <ele>275.5</ele>
        <time>2015-11-29T09:14:11Z</time>
      </trkpt>
      <trkpt lat="43.51316" lon="3.07609">
        <ele>273.5</ele>
        <time>2015-11-29T09:14:13Z</time>
      </trkpt>
      <trkpt lat="43.5131" lon="3.07614">
        <ele>272</ele>
        <time>2015-11-29T09:14:13Z</time>
      </trkpt>
      <trkpt lat="43.51308" lon="3.07623">
        <ele>273</ele>
        <time>2015-11-29T09:14:14Z</time>
      </trkpt>
      <trkpt lat="43.51302" lon="3.07629">
        <ele>272.5</ele>
        <time>2015-11-29T09:14:15Z</time>
      </trkpt>
      <trkpt lat="43.51297" lon="3.07633">
        <ele>272.5</ele>
        <time>2015-11-29T09:14:16Z</time>
      </trkpt>
      <trkpt lat="43.51293" lon="3.07636">
        <ele>272.5</ele>
        <time>2015-11-29T09:14:17Z</time>
      </trkpt>
      <trkpt lat="43.51288" lon="3.07628">
        <ele>274</ele>
        <time>2015-11-29T09:14:19Z</time>
      </trkpt>
      <trkpt lat="43.51286" lon="3.07622">
        <ele>273.5</ele>
        <time>2015-11-29T09:14:20Z</time>
      </trkpt>
      <trkpt lat="43.51284" lon="3.07616">
        <ele>273</ele>
        <time>2015-11-29T09:14:21Z</time>
      </trkpt>
      <trkpt lat="43.51282" lon="3.07609">
        <ele>271</ele>
        <time>2015-11-29T09:14:22Z</time>
      </trkpt>
      <trkpt lat="43.5128" lon="3.07601">
        <ele>269.5</ele>
        <time>2015-11-29T09:14:23Z</time>
      </trkpt>
      <trkpt lat="43.51276" lon="3.07594">
        <ele>268</ele>
        <time>2015-11-29T09:14:24Z</time>
      </trkpt>
      <trkpt lat="43.51272" lon="3.07588">
        <ele>267.5</ele>
        <time>2015-11-29T09:14:25Z</time>
      </trkpt>
      <trkpt lat="43.51268" lon="3.07582">
        <ele>267.5</ele>
        <time>2015-11-29T09:14:26Z</time>
      </trkpt>
      <trkpt lat="43.51263" lon="3.07576">
        <ele>267</ele>
        <time>2015-11-29T09:14:27Z</time>
      </trkpt>
      <trkpt lat="43.51258" lon="3.0757">
        <ele>266</ele>
        <time>2015-11-29T09:14:28Z</time>
      </trkpt>
      <trkpt lat="43.51247" lon="3.07571">
        <ele>264.5</ele>
        <time>2015-11-29T09:14:30Z</time>
      </trkpt>
      <trkpt lat="43.51241" lon="3.07571">
        <ele>264</ele>
        <time>2015-11-29T09:14:31Z</time>
      </trkpt>
      <trkpt lat="43.51235" lon="3.0757">
        <ele>264</ele>
        <time>2015-11-29T09:14:32Z</time>
      </trkpt>
      <trkpt lat="43.51228" lon="3.07569">
        <ele>264</ele>
        <time>2015-11-29T09:14:33Z</time>
      </trkpt>
      <trkpt lat="43.51221" lon="3.07567">
        <ele>264.5</ele>
        <time>2015-11-29T09:14:34Z</time>
      </trkpt>
      <trkpt lat="43.51214" lon="3.07566">
        <ele>263.5</ele>
        <time>2015-11-29T09:14:35Z</time>
      </trkpt>
      <trkpt lat="43.51207" lon="3.07563">
        <ele>263</ele>
        <time>2015-11-29T09:14:36Z</time>
      </trkpt>
      <trkpt lat="43.512" lon="3.07561">
        <ele>263</ele>
        <time>2015-11-29T09:14:37Z</time>
      </trkpt>
      <trkpt lat="43.51192" lon="3.07562">
        <ele>261.5</ele>
        <time>2015-11-29T09:14:38Z</time>
      </trkpt>
      <trkpt lat="43.51185" lon="3.07562">
        <ele>260</ele>
        <time>2015-11-29T09:14:39Z</time>
      </trkpt>
      <trkpt lat="43.51178" lon="3.07565">
        <ele>260</ele>
        <time>2015-11-29T09:14:40Z</time>
      </trkpt>
      <trkpt lat="43.5117" lon="3.07569">
        <ele>260</ele>
        <time>2015-11-29T09:14:41Z</time>
      </trkpt>
      <trkpt lat="43.51151" lon="3.07573">
        <ele>260.5</ele>
        <time>2015-11-29T09:14:43Z</time>
      </trkpt>
      <trkpt lat="43.5114" lon="3.07574">
        <ele>260.5</ele>
        <time>2015-11-29T09:14:44Z</time>
      </trkpt>
      <trkpt lat="43.5113" lon="3.07575">
        <ele>259</ele>
        <time>2015-11-29T09:14:45Z</time>
      </trkpt>
      <trkpt lat="43.5112" lon="3.07577">
        <ele>259</ele>
        <time>2015-11-29T09:14:46Z</time>
      </trkpt>
      <trkpt lat="43.51111" lon="3.07578">
        <ele>257.5</ele>
        <time>2015-11-29T09:14:47Z</time>
      </trkpt>
      <trkpt lat="43.51101" lon="3.07579">
        <ele>255.5</ele>
        <time>2015-11-29T09:14:48Z</time>
      </trkpt>
      <trkpt lat="43.51092" lon="3.07581">
        <ele>255</ele>
        <time>2015-11-29T09:14:49Z</time>
      </trkpt>
      <trkpt lat="43.51083" lon="3.07585">
        <ele>255</ele>
        <time>2015-11-29T09:14:50Z</time>
      </trkpt>
      <trkpt lat="43.51074" lon="3.07588">
        <ele>255.5</ele>
        <time>2015-11-29T09:14:51Z</time>
      </trkpt>
      <trkpt lat="43.51065" lon="3.07591">
        <ele>254.5</ele>
        <time>2015-11-29T09:14:52Z</time>
      </trkpt>
      <trkpt lat="43.51057" lon="3.07594">
        <ele>253.5</ele>
        <time>2015-11-29T09:14:53Z</time>
      </trkpt>
      <trkpt lat="43.5105" lon="3.07596">
        <ele>252.5</ele>
        <time>2015-11-29T09:14:54Z</time>
      </trkpt>
      <trkpt lat="43.51043" lon="3.07599">
        <ele>252.5</ele>
        <time>2015-11-29T09:14:55Z</time>
      </trkpt>
      <trkpt lat="43.51037" lon="3.076">
        <ele>252</ele>
        <time>2015-11-29T09:14:56Z</time>
      </trkpt>
      <trkpt lat="43.51002" lon="3.0759">
        <ele>251</ele>
        <time>2015-11-29T09:15:03Z</time>
      </trkpt>
      <trkpt lat="43.50998" lon="3.07597">
        <ele>250</ele>
        <time>2015-11-29T09:15:05Z</time>
      </trkpt>
      <trkpt lat="43.50992" lon="3.07592">
        <ele>250</ele>
        <time>2015-11-29T09:15:07Z</time>
      </trkpt>
      <trkpt lat="43.50984" lon="3.07593">
        <ele>249.5</ele>
        <time>2015-11-29T09:15:09Z</time>
      </trkpt>
      <trkpt lat="43.50957" lon="3.07613">
        <ele>249.5</ele>
        <time>2015-11-29T09:15:13Z</time>
      </trkpt>
      <trkpt lat="43.50953" lon="3.07612">
        <ele>249.5</ele>
        <time>2015-11-29T09:15:14Z</time>
      </trkpt>
      <trkpt lat="43.50954" lon="3.07606">
        <ele>249.5</ele>
        <time>2015-11-29T09:15:16Z</time>
      </trkpt>
      <trkpt lat="43.50953" lon="3.07602">
        <ele>250</ele>
        <time>2015-11-29T09:15:17Z</time>
      </trkpt>
      <trkpt lat="43.50957" lon="3.07595">
        <ele>251</ele>
        <time>2015-11-29T09:15:19Z</time>
      </trkpt>
      <trkpt lat="43.50957" lon="3.07591">
        <ele>251</ele>
        <time>2015-11-29T09:15:20Z</time>
      </trkpt>
      <trkpt lat="43.50957" lon="3.07587">
        <ele>250.5</ele>
        <time>2015-11-29T09:15:21Z</time>
      </trkpt>
      <trkpt lat="43.50958" lon="3.07584">
        <ele>250.5</ele>
        <time>2015-11-29T09:15:22Z</time>
      </trkpt>
      <trkpt lat="43.50956" lon="3.07584">
        <ele>251</ele>
        <time>2015-11-29T09:15:23Z</time>
      </trkpt>
      <trkpt lat="43.50955" lon="3.07582">
        <ele>252.5</ele>
        <time>2015-11-29T09:15:24Z</time>
      </trkpt>
      <trkpt lat="43.50956" lon="3.0758">
        <ele>252.5</ele>
        <time>2015-11-29T09:15:25Z</time>
      </trkpt>
      <trkpt lat="43.50955" lon="3.07578">
        <ele>254</ele>
        <time>2015-11-29T09:15:26Z</time>
      </trkpt>
      <trkpt lat="43.50955" lon="3.07575">
        <ele>254</ele>
        <time>2015-11-29T09:15:27Z</time>
      </trkpt>
      <trkpt lat="43.50955" lon="3.07572">
        <ele>253.5</ele>
        <time>2015-11-29T09:15:28Z</time>
      </trkpt>
      <trkpt lat="43.50955" lon="3.07569">
        <ele>252.5</ele>
        <time>2015-11-29T09:15:29Z</time>
      </trkpt>
      <trkpt lat="43.50955" lon="3.07565">
        <ele>252.5</ele>
        <time>2015-11-29T09:15:30Z</time>
      </trkpt>
      <trkpt lat="43.50955" lon="3.07561">
        <ele>250.5</ele>
        <time>2015-11-29T09:15:31Z</time>
      </trkpt>
      <trkpt lat="43.50955" lon="3.07558">
        <ele>250.5</ele>
        <time>2015-11-29T09:15:32Z</time>
      </trkpt>
      <trkpt lat="43.50956" lon="3.07555">
        <ele>250</ele>
        <time>2015-11-29T09:15:33Z</time>
      </trkpt>
      <trkpt lat="43.50955" lon="3.07551">
        <ele>249.5</ele>
        <time>2015-11-29T09:15:34Z</time>
      </trkpt>
      <trkpt lat="43.50954" lon="3.07549">
        <ele>249</ele>
        <time>2015-11-29T09:15:35Z</time>
      </trkpt>
      <trkpt lat="43.50951" lon="3.07548">
        <ele>246.5</ele>
        <time>2015-11-29T09:15:36Z</time>
      </trkpt>
      <trkpt lat="43.50949" lon="3.07545">
        <ele>244</ele>
        <time>2015-11-29T09:15:37Z</time>
      </trkpt>
      <trkpt lat="43.50947" lon="3.07543">
        <ele>243.5</ele>
        <time>2015-11-29T09:15:38Z</time>
      </trkpt>
      <trkpt lat="43.50945" lon="3.0754">
        <ele>244</ele>
        <time>2015-11-29T09:15:39Z</time>
      </trkpt>
      <trkpt lat="43.50944" lon="3.07537">
        <ele>242.5</ele>
        <time>2015-11-29T09:15:40Z</time>
      </trkpt>
      <trkpt lat="43.50942" lon="3.07536">
        <ele>243.5</ele>
        <time>2015-11-29T09:15:41Z</time>
      </trkpt>
      <trkpt lat="43.5094" lon="3.07535">
        <ele>245</ele>
        <time>2015-11-29T09:15:42Z</time>
      </trkpt>
      <trkpt lat="43.50938" lon="3.07533">
        <ele>244.5</ele>
        <time>2015-11-29T09:15:43Z</time>
      </trkpt>
      <trkpt lat="43.50936" lon="3.07531">
        <ele>244</ele>
        <time>2015-11-29T09:15:44Z</time>
      </trkpt>
      <trkpt lat="43.50935" lon="3.07531">
        <ele>244.5</ele>
        <time>2015-11-29T09:15:45Z</time>
      </trkpt>
      <trkpt lat="43.50934" lon="3.0753">
        <ele>244</ele>
        <time>2015-11-29T09:15:46Z</time>
      </trkpt>
      <trkpt lat="43.50933" lon="3.07529">
        <ele>244</ele>
        <time>2015-11-29T09:15:47Z</time>
      </trkpt>
      <trkpt lat="43.50931" lon="3.07528">
        <ele>243.5</ele>
        <time>2015-11-29T09:15:48Z</time>
      </trkpt>
      <trkpt lat="43.5093" lon="3.07528">
        <ele>243.5</ele>
        <time>2015-11-29T09:15:49Z</time>
      </trkpt>
      <trkpt lat="43.50929" lon="3.07527">
        <ele>244</ele>
        <time>2015-11-29T09:15:50Z</time>
      </trkpt>
      <trkpt lat="43.50928" lon="3.07526">
        <ele>244.5</ele>
        <time>2015-11-29T09:15:51Z</time>
      </trkpt>
      <trkpt lat="43.50926" lon="3.07525">
        <ele>244.5</ele>
        <time>2015-11-29T09:15:52Z</time>
      </trkpt>
      <trkpt lat="43.50925" lon="3.07524">
        <ele>246.5</ele>
        <time>2015-11-29T09:15:53Z</time>
      </trkpt>
      <trkpt lat="43.50923" lon="3.07524">
        <ele>246.5</ele>
        <time>2015-11-29T09:15:54Z</time>
      </trkpt>
      <trkpt lat="43.50921" lon="3.07523">
        <ele>246.5</ele>
        <time>2015-11-29T09:15:55Z</time>
      </trkpt>
      <trkpt lat="43.50919" lon="3.07522">
        <ele>247</ele>
        <time>2015-11-29T09:15:56Z</time>
      </trkpt>
      <trkpt lat="43.50918" lon="3.07522">
        <ele>247</ele>
        <time>2015-11-29T09:15:57Z</time>
      </trkpt>
      <trkpt lat="43.50918" lon="3.07523">
        <ele>246.5</ele>
        <time>2015-11-29T09:15:58Z</time>
      </trkpt>
      <trkpt lat="43.50917" lon="3.07524">
        <ele>246.5</ele>
        <time>2015-11-29T09:15:59Z</time>
      </trkpt>
      <trkpt lat="43.50917" lon="3.07525">
        <ele>248</ele>
        <time>2015-11-29T09:16:00Z</time>
      </trkpt>
      <trkpt lat="43.50918" lon="3.07525">
        <ele>248</ele>
        <time>2015-11-29T09:16:01Z</time>
      </trkpt>
      <trkpt lat="43.50919" lon="3.07524">
        <ele>247.5</ele>
        <time>2015-11-29T09:16:02Z</time>
      </trkpt>
      <trkpt lat="43.50919" lon="3.07523">
        <ele>249.5</ele>
        <time>2015-11-29T09:16:03Z</time>
      </trkpt>
      <trkpt lat="43.5092" lon="3.07523">
        <ele>249.5</ele>
        <time>2015-11-29T09:16:04Z</time>
      </trkpt>
      <trkpt lat="43.50921" lon="3.07523">
        <ele>249.5</ele>
        <time>2015-11-29T09:16:05Z</time>
      </trkpt>
      <trkpt lat="43.50922" lon="3.07523">
        <ele>249.5</ele>
        <time>2015-11-29T09:16:06Z</time>
      </trkpt>
      <trkpt lat="43.50923" lon="3.07523">
        <ele>249</ele>
        <time>2015-11-29T09:16:07Z</time>
      </trkpt>
      <trkpt lat="43.50924" lon="3.07523">
        <ele>249.5</ele>
        <time>2015-11-29T09:16:08Z</time>
      </trkpt>
      <trkpt lat="43.50924" lon="3.07523">
        <ele>249.5</ele>
        <time>2015-11-29T09:16:09Z</time>
      </trkpt>
      <trkpt lat="43.50923" lon="3.07521">
        <ele>249</ele>
        <time>2015-11-29T09:16:10Z</time>
      </trkpt>
      <trkpt lat="43.50922" lon="3.07521">
        <ele>249</ele>
        <time>2015-11-29T09:16:11Z</time>
      </trkpt>
      <trkpt lat="43.50922" lon="3.07522">
        <ele>249.5</ele>
        <time>2015-11-29T09:16:12Z</time>
      </trkpt>
      <trkpt lat="43.50922" lon="3.07523">
        <ele>249.5</ele>
        <time>2015-11-29T09:16:13Z</time>
      </trkpt>
      <trkpt lat="43.50922" lon="3.07524">
        <ele>249.5</ele>
        <time>2015-11-29T09:16:14Z</time>
      </trkpt>
      <trkpt lat="43.50921" lon="3.07524">
        <ele>250</ele>
        <time>2015-11-29T09:16:15Z</time>
      </trkpt>
      <trkpt lat="43.50921" lon="3.07525">
        <ele>250</ele>
        <time>2015-11-29T09:16:16Z</time>
      </trkpt>
      <trkpt lat="43.50921" lon="3.07525">
        <ele>249.5</ele>
        <time>2015-11-29T09:16:17Z</time>
      </trkpt>
      <trkpt lat="43.50921" lon="3.07526">
        <ele>249.5</ele>
        <time>2015-11-29T09:16:18Z</time>
      </trkpt>
      <trkpt lat="43.50921" lon="3.07527">
        <ele>249.5</ele>
        <time>2015-11-29T09:16:19Z</time>
      </trkpt>
      <trkpt lat="43.50923" lon="3.07528">
        <ele>249.5</ele>
        <time>2015-11-29T09:16:20Z</time>
      </trkpt>
      <trkpt lat="43.50923" lon="3.07529">
        <ele>249.5</ele>
        <time>2015-11-29T09:16:21Z</time>
      </trkpt>
      <trkpt lat="43.50925" lon="3.07534">
        <ele>250</ele>
        <time>2015-11-29T09:16:23Z</time>
      </trkpt>
      <trkpt lat="43.50926" lon="3.07536">
        <ele>249.5</ele>
        <time>2015-11-29T09:16:24Z</time>
      </trkpt>
      <trkpt lat="43.50925" lon="3.07536">
        <ele>249.5</ele>
        <time>2015-11-29T09:16:25Z</time>
      </trkpt>
      <trkpt lat="43.50924" lon="3.07536">
        <ele>250.5</ele>
        <time>2015-11-29T09:16:26Z</time>
      </trkpt>
      <trkpt lat="43.50924" lon="3.07537">
        <ele>251</ele>
        <time>2015-11-29T09:16:26Z</time>
      </trkpt>
      <trkpt lat="43.50924" lon="3.07538">
        <ele>251.5</ele>
        <time>2015-11-29T09:16:27Z</time>
      </trkpt>
      <trkpt lat="43.50925" lon="3.07538">
        <ele>251</ele>
        <time>2015-11-29T09:16:29Z</time>
      </trkpt>
      <trkpt lat="43.50926" lon="3.07539">
        <ele>251</ele>
        <time>2015-11-29T09:16:30Z</time>
      </trkpt>
      <trkpt lat="43.50926" lon="3.07539">
        <ele>247</ele>
        <time>2015-11-29T09:16:43Z</time>
      </trkpt>
      <trkpt lat="43.50929" lon="3.07541">
        <ele>246.5</ele>
        <time>2015-11-29T09:16:54Z</time>
      </trkpt>
      <trkpt lat="43.50928" lon="3.07542">
        <ele>245.5</ele>
        <time>2015-11-29T09:17:00Z</time>
      </trkpt>
      <trkpt lat="43.50929" lon="3.07543">
        <ele>246.5</ele>
        <time>2015-11-29T09:17:03Z</time>
      </trkpt>
      <trkpt lat="43.50926" lon="3.07544">
        <ele>246</ele>
        <time>2015-11-29T09:17:06Z</time>
      </trkpt>
      <trkpt lat="43.50926" lon="3.07548">
        <ele>243.5</ele>
        <time>2015-11-29T09:17:07Z</time>
      </trkpt>
      <trkpt lat="43.50926" lon="3.07549">
        <ele>243.5</ele>
        <time>2015-11-29T09:17:08Z</time>
      </trkpt>
      <trkpt lat="43.50924" lon="3.07551">
        <ele>242.5</ele>
        <time>2015-11-29T09:17:09Z</time>
      </trkpt>
      <trkpt lat="43.50923" lon="3.07555">
        <ele>242</ele>
        <time>2015-11-29T09:17:10Z</time>
      </trkpt>
      <trkpt lat="43.50924" lon="3.07554">
        <ele>242</ele>
        <time>2015-11-29T09:17:11Z</time>
      </trkpt>
      <trkpt lat="43.50923" lon="3.07553">
        <ele>242</ele>
        <time>2015-11-29T09:17:12Z</time>
      </trkpt>
      <trkpt lat="43.50922" lon="3.07553">
        <ele>241.5</ele>
        <time>2015-11-29T09:17:13Z</time>
      </trkpt>
      <trkpt lat="43.50921" lon="3.07553">
        <ele>241.5</ele>
        <time>2015-11-29T09:17:14Z</time>
      </trkpt>
      <trkpt lat="43.50921" lon="3.07553">
        <ele>241</ele>
        <time>2015-11-29T09:17:15Z</time>
      </trkpt>
      <trkpt lat="43.5092" lon="3.07553">
        <ele>240.5</ele>
        <time>2015-11-29T09:17:16Z</time>
      </trkpt>
      <trkpt lat="43.5092" lon="3.07554">
        <ele>241</ele>
        <time>2015-11-29T09:17:20Z</time>
      </trkpt>
      <trkpt lat="43.50919" lon="3.07554">
        <ele>241</ele>
        <time>2015-11-29T09:17:23Z</time>
      </trkpt>
      <trkpt lat="43.50918" lon="3.07554">
        <ele>241</ele>
        <time>2015-11-29T09:17:25Z</time>
      </trkpt>
      <trkpt lat="43.50917" lon="3.07554">
        <ele>239.5</ele>
        <time>2015-11-29T09:17:27Z</time>
      </trkpt>
      <trkpt lat="43.50915" lon="3.07553">
        <ele>240</ele>
        <time>2015-11-29T09:17:28Z</time>
      </trkpt>
      <trkpt lat="43.50913" lon="3.07552">
        <ele>239.5</ele>
        <time>2015-11-29T09:17:29Z</time>
      </trkpt>
      <trkpt lat="43.5091" lon="3.07551">
        <ele>239</ele>
        <time>2015-11-29T09:17:30Z</time>
      </trkpt>
      <trkpt lat="43.50908" lon="3.0755">
        <ele>238.5</ele>
        <time>2015-11-29T09:17:31Z</time>
      </trkpt>
      <trkpt lat="43.50905" lon="3.0755">
        <ele>238.5</ele>
        <time>2015-11-29T09:17:32Z</time>
      </trkpt>
      <trkpt lat="43.50903" lon="3.0755">
        <ele>238</ele>
        <time>2015-11-29T09:17:33Z</time>
      </trkpt>
      <trkpt lat="43.50901" lon="3.07549">
        <ele>236.5</ele>
        <time>2015-11-29T09:17:34Z</time>
      </trkpt>
      <trkpt lat="43.50898" lon="3.07549">
        <ele>236.5</ele>
        <time>2015-11-29T09:17:35Z</time>
      </trkpt>
      <trkpt lat="43.50896" lon="3.0755">
        <ele>236.5</ele>
        <time>2015-11-29T09:17:36Z</time>
      </trkpt>
      <trkpt lat="43.50895" lon="3.0755">
        <ele>236</ele>
        <time>2015-11-29T09:17:37Z</time>
      </trkpt>
      <trkpt lat="43.50892" lon="3.0755">
        <ele>236</ele>
        <time>2015-11-29T09:17:38Z</time>
      </trkpt>
      <trkpt lat="43.5089" lon="3.0755">
        <ele>235.5</ele>
        <time>2015-11-29T09:17:39Z</time>
      </trkpt>
      <trkpt lat="43.50876" lon="3.07544">
        <ele>235.5</ele>
        <time>2015-11-29T09:17:43Z</time>
      </trkpt>
      <trkpt lat="43.50875" lon="3.07546">
        <ele>234.5</ele>
        <time>2015-11-29T09:17:44Z</time>
      </trkpt>
      <trkpt lat="43.50873" lon="3.07546">
        <ele>233</ele>
        <time>2015-11-29T09:17:45Z</time>
      </trkpt>
      <trkpt lat="43.50871" lon="3.07548">
        <ele>233.5</ele>
        <time>2015-11-29T09:17:46Z</time>
      </trkpt>
      <trkpt lat="43.50869" lon="3.07549">
        <ele>234</ele>
        <time>2015-11-29T09:17:47Z</time>
      </trkpt>
      <trkpt lat="43.50867" lon="3.0755">
        <ele>234</ele>
        <time>2015-11-29T09:17:48Z</time>
      </trkpt>
      <trkpt lat="43.50866" lon="3.0755">
        <ele>234</ele>
        <time>2015-11-29T09:17:50Z</time>
      </trkpt>
      <trkpt lat="43.50866" lon="3.0755">
        <ele>234</ele>
        <time>2015-11-29T09:17:51Z</time>
      </trkpt>
      <trkpt lat="43.5086" lon="3.07549">
        <ele>233.5</ele>
        <time>2015-11-29T09:17:53Z</time>
      </trkpt>
      <trkpt lat="43.50859" lon="3.0755">
        <ele>233</ele>
        <time>2015-11-29T09:17:54Z</time>
      </trkpt>
      <trkpt lat="43.50857" lon="3.07551">
        <ele>233</ele>
        <time>2015-11-29T09:17:55Z</time>
      </trkpt>
      <trkpt lat="43.50855" lon="3.07552">
        <ele>232.5</ele>
        <time>2015-11-29T09:17:56Z</time>
      </trkpt>
      <trkpt lat="43.50853" lon="3.07553">
        <ele>232</ele>
        <time>2015-11-29T09:17:57Z</time>
      </trkpt>
      <trkpt lat="43.50851" lon="3.07554">
        <ele>231.5</ele>
        <time>2015-11-29T09:17:58Z</time>
      </trkpt>
      <trkpt lat="43.50849" lon="3.07555">
        <ele>231.5</ele>
        <time>2015-11-29T09:17:59Z</time>
      </trkpt>
      <trkpt lat="43.50848" lon="3.07557">
        <ele>231</ele>
        <time>2015-11-29T09:18:00Z</time>
      </trkpt>
      <trkpt lat="43.50847" lon="3.0756">
        <ele>230.5</ele>
        <time>2015-11-29T09:18:01Z</time>
      </trkpt>
      <trkpt lat="43.50845" lon="3.07561">
        <ele>232</ele>
        <time>2015-11-29T09:18:02Z</time>
      </trkpt>
      <trkpt lat="43.50845" lon="3.07562">
        <ele>232</ele>
        <time>2015-11-29T09:18:03Z</time>
      </trkpt>
      <trkpt lat="43.50844" lon="3.07563">
        <ele>232.5</ele>
        <time>2015-11-29T09:18:04Z</time>
      </trkpt>
      <trkpt lat="43.50843" lon="3.07564">
        <ele>232.5</ele>
        <time>2015-11-29T09:18:05Z</time>
      </trkpt>
      <trkpt lat="43.50843" lon="3.07565">
        <ele>232.5</ele>
        <time>2015-11-29T09:18:06Z</time>
      </trkpt>
      <trkpt lat="43.50844" lon="3.07568">
        <ele>233</ele>
        <time>2015-11-29T09:18:07Z</time>
      </trkpt>
      <trkpt lat="43.50845" lon="3.0757">
        <ele>233</ele>
        <time>2015-11-29T09:18:08Z</time>
      </trkpt>
      <trkpt lat="43.50846" lon="3.07573">
        <ele>232.5</ele>
        <time>2015-11-29T09:18:09Z</time>
      </trkpt>
      <trkpt lat="43.50847" lon="3.07575">
        <ele>233</ele>
        <time>2015-11-29T09:18:10Z</time>
      </trkpt>
      <trkpt lat="43.50848" lon="3.07577">
        <ele>233.5</ele>
        <time>2015-11-29T09:18:11Z</time>
      </trkpt>
      <trkpt lat="43.50849" lon="3.07579">
        <ele>233.5</ele>
        <time>2015-11-29T09:18:12Z</time>
      </trkpt>
      <trkpt lat="43.5085" lon="3.07581">
        <ele>233.5</ele>
        <time>2015-11-29T09:18:13Z</time>
      </trkpt>
      <trkpt lat="43.50851" lon="3.07584">
        <ele>233.5</ele>
        <time>2015-11-29T09:18:14Z</time>
      </trkpt>
      <trkpt lat="43.50852" lon="3.07586">
        <ele>232.5</ele>
        <time>2015-11-29T09:18:15Z</time>
      </trkpt>
      <trkpt lat="43.50852" lon="3.07589">
        <ele>232.5</ele>
        <time>2015-11-29T09:18:16Z</time>
      </trkpt>
      <trkpt lat="43.50853" lon="3.0759">
        <ele>232.5</ele>
        <time>2015-11-29T09:18:17Z</time>
      </trkpt>
      <trkpt lat="43.50852" lon="3.0759">
        <ele>234</ele>
        <time>2015-11-29T09:18:18Z</time>
      </trkpt>
      <trkpt lat="43.50852" lon="3.07592">
        <ele>234</ele>
        <time>2015-11-29T09:18:19Z</time>
      </trkpt>
      <trkpt lat="43.50853" lon="3.07592">
        <ele>234.5</ele>
        <time>2015-11-29T09:18:20Z</time>
      </trkpt>
      <trkpt lat="43.50854" lon="3.07593">
        <ele>234.5</ele>
        <time>2015-11-29T09:18:21Z</time>
      </trkpt>
      <trkpt lat="43.50855" lon="3.07594">
        <ele>234</ele>
        <time>2015-11-29T09:18:22Z</time>
      </trkpt>
      <trkpt lat="43.50856" lon="3.07594">
        <ele>235.5</ele>
        <time>2015-11-29T09:18:23Z</time>
      </trkpt>
      <trkpt lat="43.50857" lon="3.07596">
        <ele>235.5</ele>
        <time>2015-11-29T09:18:24Z</time>
      </trkpt>
      <trkpt lat="43.50859" lon="3.07597">
        <ele>235</ele>
        <time>2015-11-29T09:18:25Z</time>
      </trkpt>
      <trkpt lat="43.50861" lon="3.07598">
        <ele>235</ele>
        <time>2015-11-29T09:18:26Z</time>
      </trkpt>
      <trkpt lat="43.50866" lon="3.07596">
        <ele>234</ele>
        <time>2015-11-29T09:18:28Z</time>
      </trkpt>
      <trkpt lat="43.50868" lon="3.07598">
        <ele>234.5</ele>
        <time>2015-11-29T09:18:29Z</time>
      </trkpt>
      <trkpt lat="43.50869" lon="3.07599">
        <ele>235</ele>
        <time>2015-11-29T09:18:30Z</time>
      </trkpt>
      <trkpt lat="43.50871" lon="3.076">
        <ele>235.5</ele>
        <time>2015-11-29T09:18:31Z</time>
      </trkpt>
      <trkpt lat="43.50872" lon="3.07601">
        <ele>236</ele>
        <time>2015-11-29T09:18:32Z</time>
      </trkpt>
      <trkpt lat="43.50874" lon="3.07602">
        <ele>236</ele>
        <time>2015-11-29T09:18:33Z</time>
      </trkpt>
      <trkpt lat="43.50875" lon="3.07603">
        <ele>236</ele>
        <time>2015-11-29T09:18:34Z</time>
      </trkpt>
      <trkpt lat="43.50876" lon="3.07605">
        <ele>236.5</ele>
        <time>2015-11-29T09:18:35Z</time>
      </trkpt>
      <trkpt lat="43.50877" lon="3.07607">
        <ele>236</ele>
        <time>2015-11-29T09:18:36Z</time>
      </trkpt>
      <trkpt lat="43.50877" lon="3.07608">
        <ele>235.5</ele>
        <time>2015-11-29T09:18:37Z</time>
      </trkpt>
      <trkpt lat="43.50877" lon="3.0761">
        <ele>235.5</ele>
        <time>2015-11-29T09:18:38Z</time>
      </trkpt>
      <trkpt lat="43.50877" lon="3.07611">
        <ele>235.5</ele>
        <time>2015-11-29T09:18:39Z</time>
      </trkpt>
      <trkpt lat="43.50878" lon="3.07612">
        <ele>236.5</ele>
        <time>2015-11-29T09:18:40Z</time>
      </trkpt>
      <trkpt lat="43.50878" lon="3.07613">
        <ele>237</ele>
        <time>2015-11-29T09:18:41Z</time>
      </trkpt>
      <trkpt lat="43.50879" lon="3.07615">
        <ele>235.5</ele>
        <time>2015-11-29T09:18:50Z</time>
      </trkpt>
      <trkpt lat="43.5088" lon="3.07614">
        <ele>237</ele>
        <time>2015-11-29T09:18:51Z</time>
      </trkpt>
      <trkpt lat="43.50879" lon="3.07614">
        <ele>238</ele>
        <time>2015-11-29T09:18:55Z</time>
      </trkpt>
      <trkpt lat="43.5088" lon="3.07615">
        <ele>237</ele>
        <time>2015-11-29T09:18:57Z</time>
      </trkpt>
      <trkpt lat="43.50881" lon="3.07615">
        <ele>236</ele>
        <time>2015-11-29T09:19:03Z</time>
      </trkpt>
      <trkpt lat="43.50882" lon="3.07615">
        <ele>234.5</ele>
        <time>2015-11-29T09:19:11Z</time>
      </trkpt>
      <trkpt lat="43.50883" lon="3.07615">
        <ele>233.5</ele>
        <time>2015-11-29T09:19:17Z</time>
      </trkpt>
      <trkpt lat="43.50883" lon="3.07616">
        <ele>233.5</ele>
        <time>2015-11-29T09:19:19Z</time>
      </trkpt>
      <trkpt lat="43.50885" lon="3.07615">
        <ele>233</ele>
        <time>2015-11-29T09:19:20Z</time>
      </trkpt>
      <trkpt lat="43.50885" lon="3.07615">
        <ele>233.5</ele>
        <time>2015-11-29T09:19:21Z</time>
      </trkpt>
      <trkpt lat="43.50886" lon="3.07615">
        <ele>233</ele>
        <time>2015-11-29T09:19:22Z</time>
      </trkpt>
      <trkpt lat="43.50886" lon="3.07615">
        <ele>233.5</ele>
        <time>2015-11-29T09:19:25Z</time>
      </trkpt>
      <trkpt lat="43.50885" lon="3.07616">
        <ele>234.5</ele>
        <time>2015-11-29T09:19:27Z</time>
      </trkpt>
      <trkpt lat="43.50886" lon="3.07617">
        <ele>233.5</ele>
        <time>2015-11-29T09:19:28Z</time>
      </trkpt>
      <trkpt lat="43.50887" lon="3.07617">
        <ele>233.5</ele>
        <time>2015-11-29T09:19:29Z</time>
      </trkpt>
      <trkpt lat="43.50887" lon="3.07617">
        <ele>233.5</ele>
        <time>2015-11-29T09:19:30Z</time>
      </trkpt>
      <trkpt lat="43.50888" lon="3.07618">
        <ele>233</ele>
        <time>2015-11-29T09:19:31Z</time>
      </trkpt>
      <trkpt lat="43.50889" lon="3.07618">
        <ele>233.5</ele>
        <time>2015-11-29T09:19:32Z</time>
      </trkpt>
      <trkpt lat="43.50889" lon="3.0762">
        <ele>233.5</ele>
        <time>2015-11-29T09:19:33Z</time>
      </trkpt>
      <trkpt lat="43.5089" lon="3.0762">
        <ele>233.5</ele>
        <time>2015-11-29T09:19:34Z</time>
      </trkpt>
      <trkpt lat="43.50892" lon="3.0762">
        <ele>233</ele>
        <time>2015-11-29T09:19:35Z</time>
      </trkpt>
      <trkpt lat="43.50893" lon="3.07621">
        <ele>233.5</ele>
        <time>2015-11-29T09:19:36Z</time>
      </trkpt>
      <trkpt lat="43.50895" lon="3.07622">
        <ele>233.5</ele>
        <time>2015-11-29T09:19:37Z</time>
      </trkpt>
      <trkpt lat="43.50897" lon="3.07624">
        <ele>234</ele>
        <time>2015-11-29T09:19:38Z</time>
      </trkpt>
      <trkpt lat="43.50899" lon="3.07625">
        <ele>235</ele>
        <time>2015-11-29T09:19:39Z</time>
      </trkpt>
      <trkpt lat="43.50903" lon="3.07628">
        <ele>236.5</ele>
        <time>2015-11-29T09:19:40Z</time>
      </trkpt>
      <trkpt lat="43.50904" lon="3.07631">
        <ele>236.5</ele>
        <time>2015-11-29T09:19:41Z</time>
      </trkpt>
      <trkpt lat="43.50905" lon="3.07641">
        <ele>237.5</ele>
        <time>2015-11-29T09:19:43Z</time>
      </trkpt>
      <trkpt lat="43.50906" lon="3.07645">
        <ele>238</ele>
        <time>2015-11-29T09:19:44Z</time>
      </trkpt>
      <trkpt lat="43.50906" lon="3.07649">
        <ele>238.5</ele>
        <time>2015-11-29T09:19:45Z</time>
      </trkpt>
      <trkpt lat="43.50907" lon="3.07653">
        <ele>238</ele>
        <time>2015-11-29T09:19:46Z</time>
      </trkpt>
      <trkpt lat="43.50907" lon="3.07657">
        <ele>236.5</ele>
        <time>2015-11-29T09:19:46Z</time>
      </trkpt>
      <trkpt lat="43.50907" lon="3.07661">
        <ele>235.5</ele>
        <time>2015-11-29T09:19:48Z</time>
      </trkpt>
      <trkpt lat="43.50908" lon="3.07665">
        <ele>235</ele>
        <time>2015-11-29T09:19:49Z</time>
      </trkpt>
      <trkpt lat="43.50908" lon="3.07669">
        <ele>235.5</ele>
        <time>2015-11-29T09:19:49Z</time>
      </trkpt>
      <trkpt lat="43.50908" lon="3.07673">
        <ele>235.5</ele>
        <time>2015-11-29T09:19:50Z</time>
      </trkpt>
      <trkpt lat="43.50908" lon="3.07676">
        <ele>236</ele>
        <time>2015-11-29T09:19:51Z</time>
      </trkpt>
      <trkpt lat="43.50908" lon="3.0768">
        <ele>236</ele>
        <time>2015-11-29T09:19:53Z</time>
      </trkpt>
      <trkpt lat="43.50909" lon="3.07683">
        <ele>236</ele>
        <time>2015-11-29T09:19:53Z</time>
      </trkpt>
      <trkpt lat="43.50909" lon="3.07686">
        <ele>236</ele>
        <time>2015-11-29T09:19:54Z</time>
      </trkpt>
      <trkpt lat="43.50909" lon="3.07688">
        <ele>236</ele>
        <time>2015-11-29T09:19:55Z</time>
      </trkpt>
      <trkpt lat="43.5091" lon="3.07691">
        <ele>236.5</ele>
        <time>2015-11-29T09:19:56Z</time>
      </trkpt>
      <trkpt lat="43.5091" lon="3.07694">
        <ele>237</ele>
        <time>2015-11-29T09:19:57Z</time>
      </trkpt>
      <trkpt lat="43.50911" lon="3.07698">
        <ele>237.5</ele>
        <time>2015-11-29T09:19:58Z</time>
      </trkpt>
      <trkpt lat="43.50911" lon="3.07702">
        <ele>237.5</ele>
        <time>2015-11-29T09:19:59Z</time>
      </trkpt>
      <trkpt lat="43.50911" lon="3.07705">
        <ele>237</ele>
        <time>2015-11-29T09:20:01Z</time>
      </trkpt>
      <trkpt lat="43.50913" lon="3.07708">
        <ele>237</ele>
        <time>2015-11-29T09:20:01Z</time>
      </trkpt>
      <trkpt lat="43.50913" lon="3.07712">
        <ele>237</ele>
        <time>2015-11-29T09:20:02Z</time>
      </trkpt>
      <trkpt lat="43.50913" lon="3.07714">
        <ele>237</ele>
        <time>2015-11-29T09:20:03Z</time>
      </trkpt>
      <trkpt lat="43.50913" lon="3.07717">
        <ele>237.5</ele>
        <time>2015-11-29T09:20:04Z</time>
      </trkpt>
      <trkpt lat="43.50915" lon="3.07719">
        <ele>237.5</ele>
        <time>2015-11-29T09:20:05Z</time>
      </trkpt>
      <trkpt lat="43.50915" lon="3.07723">
        <ele>237.5</ele>
        <time>2015-11-29T09:20:06Z</time>
      </trkpt>
      <trkpt lat="43.50915" lon="3.07726">
        <ele>237.5</ele>
        <time>2015-11-29T09:20:07Z</time>
      </trkpt>
      <trkpt lat="43.50915" lon="3.07729">
        <ele>237</ele>
        <time>2015-11-29T09:20:08Z</time>
      </trkpt>
      <trkpt lat="43.50915" lon="3.07733">
        <ele>237</ele>
        <time>2015-11-29T09:20:09Z</time>
      </trkpt>
      <trkpt lat="43.50919" lon="3.07735">
        <ele>236.5</ele>
        <time>2015-11-29T09:20:10Z</time>
      </trkpt>
      <trkpt lat="43.50921" lon="3.07738">
        <ele>236.5</ele>
        <time>2015-11-29T09:20:11Z</time>
      </trkpt>
      <trkpt lat="43.50922" lon="3.0774">
        <ele>236</ele>
        <time>2015-11-29T09:20:12Z</time>
      </trkpt>
      <trkpt lat="43.50923" lon="3.07742">
        <ele>234.5</ele>
        <time>2015-11-29T09:20:13Z</time>
      </trkpt>
      <trkpt lat="43.50922" lon="3.07745">
        <ele>234.5</ele>
        <time>2015-11-29T09:20:14Z</time>
      </trkpt>
      <trkpt lat="43.50921" lon="3.07747">
        <ele>234.5</ele>
        <time>2015-11-29T09:20:15Z</time>
      </trkpt>
      <trkpt lat="43.50921" lon="3.07749">
        <ele>235.5</ele>
        <time>2015-11-29T09:20:16Z</time>
      </trkpt>
      <trkpt lat="43.50922" lon="3.07752">
        <ele>235</ele>
        <time>2015-11-29T09:20:17Z</time>
      </trkpt>
      <trkpt lat="43.50923" lon="3.07755">
        <ele>233.5</ele>
        <time>2015-11-29T09:20:18Z</time>
      </trkpt>
      <trkpt lat="43.50925" lon="3.07757">
        <ele>233.5</ele>
        <time>2015-11-29T09:20:19Z</time>
      </trkpt>
      <trkpt lat="43.50926" lon="3.07757">
        <ele>235.5</ele>
        <time>2015-11-29T09:20:20Z</time>
      </trkpt>
      <trkpt lat="43.50927" lon="3.07758">
        <ele>235.5</ele>
        <time>2015-11-29T09:20:21Z</time>
      </trkpt>
      <trkpt lat="43.50929" lon="3.07759">
        <ele>235.5</ele>
        <time>2015-11-29T09:20:22Z</time>
      </trkpt>
      <trkpt lat="43.50931" lon="3.0776">
        <ele>236</ele>
        <time>2015-11-29T09:20:23Z</time>
      </trkpt>
      <trkpt lat="43.50932" lon="3.07761">
        <ele>237</ele>
        <time>2015-11-29T09:20:24Z</time>
      </trkpt>
      <trkpt lat="43.50934" lon="3.07762">
        <ele>237.5</ele>
        <time>2015-11-29T09:20:25Z</time>
      </trkpt>
      <trkpt lat="43.50935" lon="3.07764">
        <ele>238</ele>
        <time>2015-11-29T09:20:26Z</time>
      </trkpt>
      <trkpt lat="43.50937" lon="3.07765">
        <ele>238</ele>
        <time>2015-11-29T09:20:28Z</time>
      </trkpt>
      <trkpt lat="43.50939" lon="3.07767">
        <ele>238.5</ele>
        <time>2015-11-29T09:20:28Z</time>
      </trkpt>
      <trkpt lat="43.50942" lon="3.07768">
        <ele>239</ele>
        <time>2015-11-29T09:20:29Z</time>
      </trkpt>
      <trkpt lat="43.50944" lon="3.07768">
        <ele>240.5</ele>
        <time>2015-11-29T09:20:30Z</time>
      </trkpt>
      <trkpt lat="43.50946" lon="3.07769">
        <ele>240.5</ele>
        <time>2015-11-29T09:20:31Z</time>
      </trkpt>
      <trkpt lat="43.50947" lon="3.0777">
        <ele>241.5</ele>
        <time>2015-11-29T09:20:32Z</time>
      </trkpt>
      <trkpt lat="43.50949" lon="3.0777">
        <ele>243.5</ele>
        <time>2015-11-29T09:20:33Z</time>
      </trkpt>
      <trkpt lat="43.50951" lon="3.07772">
        <ele>243.5</ele>
        <time>2015-11-29T09:20:34Z</time>
      </trkpt>
      <trkpt lat="43.50953" lon="3.07774">
        <ele>244</ele>
        <time>2015-11-29T09:20:35Z</time>
      </trkpt>
      <trkpt lat="43.50955" lon="3.07776">
        <ele>244</ele>
        <time>2015-11-29T09:20:36Z</time>
      </trkpt>
      <trkpt lat="43.50956" lon="3.07776">
        <ele>246</ele>
        <time>2015-11-29T09:20:37Z</time>
      </trkpt>
      <trkpt lat="43.50958" lon="3.07776">
        <ele>246.5</ele>
        <time>2015-11-29T09:20:38Z</time>
      </trkpt>
      <trkpt lat="43.5096" lon="3.07777">
        <ele>247.5</ele>
        <time>2015-11-29T09:20:39Z</time>
      </trkpt>
      <trkpt lat="43.50962" lon="3.07779">
        <ele>248</ele>
        <time>2015-11-29T09:20:40Z</time>
      </trkpt>
      <trkpt lat="43.50965" lon="3.07782">
        <ele>245.5</ele>
        <time>2015-11-29T09:20:41Z</time>
      </trkpt>
      <trkpt lat="43.50967" lon="3.07784">
        <ele>245</ele>
        <time>2015-11-29T09:20:42Z</time>
      </trkpt>
      <trkpt lat="43.50969" lon="3.07786">
        <ele>245</ele>
        <time>2015-11-29T09:20:43Z</time>
      </trkpt>
      <trkpt lat="43.50971" lon="3.07788">
        <ele>244</ele>
        <time>2015-11-29T09:20:44Z</time>
      </trkpt>
      <trkpt lat="43.50973" lon="3.0779">
        <ele>243.5</ele>
        <time>2015-11-29T09:20:45Z</time>
      </trkpt>
      <trkpt lat="43.50975" lon="3.07791">
        <ele>244</ele>
        <time>2015-11-29T09:20:46Z</time>
      </trkpt>
      <trkpt lat="43.50977" lon="3.07792">
        <ele>245</ele>
        <time>2015-11-29T09:20:47Z</time>
      </trkpt>
      <trkpt lat="43.50979" lon="3.07794">
        <ele>245</ele>
        <time>2015-11-29T09:20:48Z</time>
      </trkpt>
      <trkpt lat="43.50981" lon="3.07795">
        <ele>245.5</ele>
        <time>2015-11-29T09:20:49Z</time>
      </trkpt>
      <trkpt lat="43.50982" lon="3.07797">
        <ele>246</ele>
        <time>2015-11-29T09:20:50Z</time>
      </trkpt>
      <trkpt lat="43.50984" lon="3.07799">
        <ele>246.5</ele>
        <time>2015-11-29T09:20:51Z</time>
      </trkpt>
      <trkpt lat="43.50985" lon="3.07801">
        <ele>246</ele>
        <time>2015-11-29T09:20:52Z</time>
      </trkpt>
      <trkpt lat="43.50987" lon="3.07803">
        <ele>246.5</ele>
        <time>2015-11-29T09:20:53Z</time>
      </trkpt>
      <trkpt lat="43.50988" lon="3.07805">
        <ele>247</ele>
        <time>2015-11-29T09:20:54Z</time>
      </trkpt>
      <trkpt lat="43.5099" lon="3.07808">
        <ele>246.5</ele>
        <time>2015-11-29T09:20:55Z</time>
      </trkpt>
      <trkpt lat="43.50992" lon="3.0781">
        <ele>246.5</ele>
        <time>2015-11-29T09:20:56Z</time>
      </trkpt>
      <trkpt lat="43.50994" lon="3.07813">
        <ele>246.5</ele>
        <time>2015-11-29T09:20:57Z</time>
      </trkpt>
      <trkpt lat="43.50997" lon="3.07815">
        <ele>246</ele>
        <time>2015-11-29T09:20:58Z</time>
      </trkpt>
      <trkpt lat="43.50999" lon="3.07819">
        <ele>246</ele>
        <time>2015-11-29T09:20:59Z</time>
      </trkpt>
      <trkpt lat="43.51" lon="3.07822">
        <ele>246</ele>
        <time>2015-11-29T09:21:00Z</time>
      </trkpt>
      <trkpt lat="43.51002" lon="3.07825">
        <ele>245.5</ele>
        <time>2015-11-29T09:21:01Z</time>
      </trkpt>
      <trkpt lat="43.51003" lon="3.07829">
        <ele>245</ele>
        <time>2015-11-29T09:21:02Z</time>
      </trkpt>
      <trkpt lat="43.51005" lon="3.07832">
        <ele>245</ele>
        <time>2015-11-29T09:21:03Z</time>
      </trkpt>
      <trkpt lat="43.51005" lon="3.07836">
        <ele>244.5</ele>
        <time>2015-11-29T09:21:04Z</time>
      </trkpt>
      <trkpt lat="43.51006" lon="3.07841">
        <ele>244</ele>
        <time>2015-11-29T09:21:05Z</time>
      </trkpt>
      <trkpt lat="43.51006" lon="3.07845">
        <ele>243</ele>
        <time>2015-11-29T09:21:06Z</time>
      </trkpt>
      <trkpt lat="43.51006" lon="3.0785">
        <ele>242.5</ele>
        <time>2015-11-29T09:21:07Z</time>
      </trkpt>
      <trkpt lat="43.51006" lon="3.07856">
        <ele>242.5</ele>
        <time>2015-11-29T09:21:08Z</time>
      </trkpt>
      <trkpt lat="43.51006" lon="3.07861">
        <ele>242</ele>
        <time>2015-11-29T09:21:09Z</time>
      </trkpt>
      <trkpt lat="43.51006" lon="3.07866">
        <ele>241.5</ele>
        <time>2015-11-29T09:21:10Z</time>
      </trkpt>
      <trkpt lat="43.51006" lon="3.07872">
        <ele>241</ele>
        <time>2015-11-29T09:21:11Z</time>
      </trkpt>
      <trkpt lat="43.51006" lon="3.07877">
        <ele>241</ele>
        <time>2015-11-29T09:21:12Z</time>
      </trkpt>
      <trkpt lat="43.51005" lon="3.07883">
        <ele>240.5</ele>
        <time>2015-11-29T09:21:13Z</time>
      </trkpt>
      <trkpt lat="43.51005" lon="3.07889">
        <ele>240</ele>
        <time>2015-11-29T09:21:14Z</time>
      </trkpt>
      <trkpt lat="43.51004" lon="3.07894">
        <ele>240</ele>
        <time>2015-11-29T09:21:15Z</time>
      </trkpt>
      <trkpt lat="43.51004" lon="3.079">
        <ele>240</ele>
        <time>2015-11-29T09:21:16Z</time>
      </trkpt>
      <trkpt lat="43.51004" lon="3.07906">
        <ele>240</ele>
        <time>2015-11-29T09:21:17Z</time>
      </trkpt>
      <trkpt lat="43.51003" lon="3.07912">
        <ele>240</ele>
        <time>2015-11-29T09:21:18Z</time>
      </trkpt>
      <trkpt lat="43.51003" lon="3.07917">
        <ele>240</ele>
        <time>2015-11-29T09:21:19Z</time>
      </trkpt>
      <trkpt lat="43.51002" lon="3.07923">
        <ele>240</ele>
        <time>2015-11-29T09:21:20Z</time>
      </trkpt>
      <trkpt lat="43.51001" lon="3.07928">
        <ele>240</ele>
        <time>2015-11-29T09:21:21Z</time>
      </trkpt>
      <trkpt lat="43.51" lon="3.07934">
        <ele>240</ele>
        <time>2015-11-29T09:21:22Z</time>
      </trkpt>
      <trkpt lat="43.51" lon="3.07939">
        <ele>240.5</ele>
        <time>2015-11-29T09:21:23Z</time>
      </trkpt>
      <trkpt lat="43.50999" lon="3.07945">
        <ele>241</ele>
        <time>2015-11-29T09:21:24Z</time>
      </trkpt>
      <trkpt lat="43.50999" lon="3.07951">
        <ele>241.5</ele>
        <time>2015-11-29T09:21:25Z</time>
      </trkpt>
      <trkpt lat="43.50998" lon="3.07956">
        <ele>242</ele>
        <time>2015-11-29T09:21:26Z</time>
      </trkpt>
      <trkpt lat="43.50997" lon="3.07961">
        <ele>242</ele>
        <time>2015-11-29T09:21:27Z</time>
      </trkpt>
      <trkpt lat="43.50998" lon="3.07966">
        <ele>242</ele>
        <time>2015-11-29T09:21:28Z</time>
      </trkpt>
      <trkpt lat="43.50997" lon="3.07971">
        <ele>241.5</ele>
        <time>2015-11-29T09:21:29Z</time>
      </trkpt>
      <trkpt lat="43.50996" lon="3.07975">
        <ele>241.5</ele>
        <time>2015-11-29T09:21:30Z</time>
      </trkpt>
      <trkpt lat="43.50995" lon="3.0798">
        <ele>242</ele>
        <time>2015-11-29T09:21:31Z</time>
      </trkpt>
      <trkpt lat="43.50995" lon="3.07985">
        <ele>242</ele>
        <time>2015-11-29T09:21:32Z</time>
      </trkpt>
      <trkpt lat="43.50995" lon="3.0799">
        <ele>242.5</ele>
        <time>2015-11-29T09:21:33Z</time>
      </trkpt>
      <trkpt lat="43.50995" lon="3.07994">
        <ele>243.5</ele>
        <time>2015-11-29T09:21:34Z</time>
      </trkpt>
      <trkpt lat="43.50994" lon="3.07999">
        <ele>243</ele>
        <time>2015-11-29T09:21:35Z</time>
      </trkpt>
      <trkpt lat="43.50993" lon="3.08003">
        <ele>243.5</ele>
        <time>2015-11-29T09:21:36Z</time>
      </trkpt>
      <trkpt lat="43.50993" lon="3.08007">
        <ele>244</ele>
        <time>2015-11-29T09:21:37Z</time>
      </trkpt>
      <trkpt lat="43.50993" lon="3.08011">
        <ele>244</ele>
        <time>2015-11-29T09:21:38Z</time>
      </trkpt>
      <trkpt lat="43.50992" lon="3.08016">
        <ele>244.5</ele>
        <time>2015-11-29T09:21:39Z</time>
      </trkpt>
      <trkpt lat="43.50992" lon="3.0802">
        <ele>244.5</ele>
        <time>2015-11-29T09:21:40Z</time>
      </trkpt>
      <trkpt lat="43.50992" lon="3.08024">
        <ele>244.5</ele>
        <time>2015-11-29T09:21:41Z</time>
      </trkpt>
      <trkpt lat="43.50992" lon="3.08028">
        <ele>245.5</ele>
        <time>2015-11-29T09:21:42Z</time>
      </trkpt>
      <trkpt lat="43.50992" lon="3.08033">
        <ele>246</ele>
        <time>2015-11-29T09:21:43Z</time>
      </trkpt>
      <trkpt lat="43.50991" lon="3.08036">
        <ele>246</ele>
        <time>2015-11-29T09:21:44Z</time>
      </trkpt>
      <trkpt lat="43.5099" lon="3.0804">
        <ele>246</ele>
        <time>2015-11-29T09:21:45Z</time>
      </trkpt>
      <trkpt lat="43.5099" lon="3.08044">
        <ele>246.5</ele>
        <time>2015-11-29T09:21:46Z</time>
      </trkpt>
      <trkpt lat="43.5099" lon="3.08048">
        <ele>246.5</ele>
        <time>2015-11-29T09:21:47Z</time>
      </trkpt>
      <trkpt lat="43.50989" lon="3.08052">
        <ele>246.5</ele>
        <time>2015-11-29T09:21:48Z</time>
      </trkpt>
      <trkpt lat="43.50989" lon="3.08055">
        <ele>246</ele>
        <time>2015-11-29T09:21:49Z</time>
      </trkpt>
      <trkpt lat="43.50988" lon="3.08059">
        <ele>246.5</ele>
        <time>2015-11-29T09:21:50Z</time>
      </trkpt>
      <trkpt lat="43.50987" lon="3.08062">
        <ele>246.5</ele>
        <time>2015-11-29T09:21:51Z</time>
      </trkpt>
      <trkpt lat="43.50987" lon="3.08065">
        <ele>247</ele>
        <time>2015-11-29T09:21:52Z</time>
      </trkpt>
      <trkpt lat="43.50987" lon="3.08069">
        <ele>247</ele>
        <time>2015-11-29T09:21:53Z</time>
      </trkpt>
      <trkpt lat="43.50986" lon="3.08073">
        <ele>247</ele>
        <time>2015-11-29T09:21:54Z</time>
      </trkpt>
      <trkpt lat="43.50986" lon="3.08077">
        <ele>247.5</ele>
        <time>2015-11-29T09:21:55Z</time>
      </trkpt>
      <trkpt lat="43.50986" lon="3.0808">
        <ele>248</ele>
        <time>2015-11-29T09:21:56Z</time>
      </trkpt>
      <trkpt lat="43.50985" lon="3.08084">
        <ele>248</ele>
        <time>2015-11-29T09:21:57Z</time>
      </trkpt>
      <trkpt lat="43.50985" lon="3.08088">
        <ele>248</ele>
        <time>2015-11-29T09:21:58Z</time>
      </trkpt>
      <trkpt lat="43.50984" lon="3.08092">
        <ele>248</ele>
        <time>2015-11-29T09:21:59Z</time>
      </trkpt>
      <trkpt lat="43.50984" lon="3.08095">
        <ele>248.5</ele>
        <time>2015-11-29T09:22:00Z</time>
      </trkpt>
      <trkpt lat="43.50984" lon="3.08099">
        <ele>248.5</ele>
        <time>2015-11-29T09:22:01Z</time>
      </trkpt>
      <trkpt lat="43.50984" lon="3.08103">
        <ele>249</ele>
        <time>2015-11-29T09:22:02Z</time>
      </trkpt>
      <trkpt lat="43.50984" lon="3.08106">
        <ele>249</ele>
        <time>2015-11-29T09:22:03Z</time>
      </trkpt>
      <trkpt lat="43.50984" lon="3.0811">
        <ele>249.5</ele>
        <time>2015-11-29T09:22:04Z</time>
      </trkpt>
      <trkpt lat="43.50984" lon="3.08113">
        <ele>249.5</ele>
        <time>2015-11-29T09:22:05Z</time>
      </trkpt>
      <trkpt lat="43.50984" lon="3.08117">
        <ele>250</ele>
        <time>2015-11-29T09:22:06Z</time>
      </trkpt>
      <trkpt lat="43.50984" lon="3.0812">
        <ele>250.5</ele>
        <time>2015-11-29T09:22:07Z</time>
      </trkpt>
      <trkpt lat="43.50985" lon="3.08124">
        <ele>251.5</ele>
        <time>2015-11-29T09:22:08Z</time>
      </trkpt>
      <trkpt lat="43.50985" lon="3.08127">
        <ele>252.5</ele>
        <time>2015-11-29T09:22:09Z</time>
      </trkpt>
      <trkpt lat="43.50985" lon="3.08131">
        <ele>252.5</ele>
        <time>2015-11-29T09:22:10Z</time>
      </trkpt>
      <trkpt lat="43.50986" lon="3.08134">
        <ele>253</ele>
        <time>2015-11-29T09:22:11Z</time>
      </trkpt>
      <trkpt lat="43.50986" lon="3.08138">
        <ele>254</ele>
        <time>2015-11-29T09:22:12Z</time>
      </trkpt>
      <trkpt lat="43.50986" lon="3.08142">
        <ele>254.5</ele>
        <time>2015-11-29T09:22:13Z</time>
      </trkpt>
      <trkpt lat="43.50986" lon="3.08145">
        <ele>255</ele>
        <time>2015-11-29T09:22:14Z</time>
      </trkpt>
      <trkpt lat="43.50986" lon="3.08149">
        <ele>255</ele>
        <time>2015-11-29T09:22:15Z</time>
      </trkpt>
      <trkpt lat="43.50986" lon="3.08153">
        <ele>255</ele>
        <time>2015-11-29T09:22:16Z</time>
      </trkpt>
      <trkpt lat="43.50986" lon="3.08157">
        <ele>255</ele>
        <time>2015-11-29T09:22:17Z</time>
      </trkpt>
      <trkpt lat="43.50986" lon="3.0816">
        <ele>255.5</ele>
        <time>2015-11-29T09:22:18Z</time>
      </trkpt>
      <trkpt lat="43.50986" lon="3.08163">
        <ele>255.5</ele>
        <time>2015-11-29T09:22:19Z</time>
      </trkpt>
      <trkpt lat="43.50986" lon="3.08167">
        <ele>256</ele>
        <time>2015-11-29T09:22:20Z</time>
      </trkpt>
      <trkpt lat="43.50987" lon="3.08171">
        <ele>256.5</ele>
        <time>2015-11-29T09:22:21Z</time>
      </trkpt>
      <trkpt lat="43.50987" lon="3.08174">
        <ele>256.5</ele>
        <time>2015-11-29T09:22:22Z</time>
      </trkpt>
      <trkpt lat="43.50987" lon="3.08178">
        <ele>256.5</ele>
        <time>2015-11-29T09:22:23Z</time>
      </trkpt>
      <trkpt lat="43.50987" lon="3.08182">
        <ele>256.5</ele>
        <time>2015-11-29T09:22:24Z</time>
      </trkpt>
      <trkpt lat="43.50988" lon="3.08186">
        <ele>257</ele>
        <time>2015-11-29T09:22:25Z</time>
      </trkpt>
      <trkpt lat="43.50988" lon="3.08189">
        <ele>258</ele>
        <time>2015-11-29T09:22:26Z</time>
      </trkpt>
      <trkpt lat="43.50989" lon="3.08193">
        <ele>258</ele>
        <time>2015-11-29T09:22:27Z</time>
      </trkpt>
      <trkpt lat="43.50988" lon="3.08197">
        <ele>258</ele>
        <time>2015-11-29T09:22:28Z</time>
      </trkpt>
      <trkpt lat="43.50988" lon="3.08201">
        <ele>258</ele>
        <time>2015-11-29T09:22:29Z</time>
      </trkpt>
      <trkpt lat="43.50989" lon="3.08204">
        <ele>258.5</ele>
        <time>2015-11-29T09:22:30Z</time>
      </trkpt>
      <trkpt lat="43.50989" lon="3.08208">
        <ele>258.5</ele>
        <time>2015-11-29T09:22:31Z</time>
      </trkpt>
      <trkpt lat="43.50989" lon="3.08212">
        <ele>259</ele>
        <time>2015-11-29T09:22:32Z</time>
      </trkpt>
      <trkpt lat="43.50989" lon="3.08216">
        <ele>260</ele>
        <time>2015-11-29T09:22:33Z</time>
      </trkpt>
      <trkpt lat="43.5099" lon="3.08219">
        <ele>260.5</ele>
        <time>2015-11-29T09:22:34Z</time>
      </trkpt>
      <trkpt lat="43.5099" lon="3.08223">
        <ele>261</ele>
        <time>2015-11-29T09:22:35Z</time>
      </trkpt>
      <trkpt lat="43.5099" lon="3.08227">
        <ele>261</ele>
        <time>2015-11-29T09:22:36Z</time>
      </trkpt>
      <trkpt lat="43.5099" lon="3.0823">
        <ele>261</ele>
        <time>2015-11-29T09:22:37Z</time>
      </trkpt>
      <trkpt lat="43.5099" lon="3.08233">
        <ele>261.5</ele>
        <time>2015-11-29T09:22:38Z</time>
      </trkpt>
      <trkpt lat="43.50989" lon="3.08237">
        <ele>261.5</ele>
        <time>2015-11-29T09:22:39Z</time>
      </trkpt>
      <trkpt lat="43.50989" lon="3.0824">
        <ele>261.5</ele>
        <time>2015-11-29T09:22:40Z</time>
      </trkpt>
      <trkpt lat="43.50988" lon="3.08243">
        <ele>261.5</ele>
        <time>2015-11-29T09:22:41Z</time>
      </trkpt>
      <trkpt lat="43.50987" lon="3.08247">
        <ele>261.5</ele>
        <time>2015-11-29T09:22:42Z</time>
      </trkpt>
      <trkpt lat="43.50986" lon="3.0825">
        <ele>262</ele>
        <time>2015-11-29T09:22:43Z</time>
      </trkpt>
      <trkpt lat="43.50985" lon="3.08253">
        <ele>262</ele>
        <time>2015-11-29T09:22:44Z</time>
      </trkpt>
      <trkpt lat="43.50985" lon="3.08257">
        <ele>262.5</ele>
        <time>2015-11-29T09:22:45Z</time>
      </trkpt>
      <trkpt lat="43.50983" lon="3.0826">
        <ele>262.5</ele>
        <time>2015-11-29T09:22:46Z</time>
      </trkpt>
      <trkpt lat="43.50982" lon="3.08264">
        <ele>262.5</ele>
        <time>2015-11-29T09:22:47Z</time>
      </trkpt>
      <trkpt lat="43.5098" lon="3.08267">
        <ele>262.5</ele>
        <time>2015-11-29T09:22:48Z</time>
      </trkpt>
      <trkpt lat="43.50979" lon="3.08271">
        <ele>262.5</ele>
        <time>2015-11-29T09:22:49Z</time>
      </trkpt>
      <trkpt lat="43.50977" lon="3.08274">
        <ele>263</ele>
        <time>2015-11-29T09:22:50Z</time>
      </trkpt>
      <trkpt lat="43.50975" lon="3.08276">
        <ele>263.5</ele>
        <time>2015-11-29T09:22:51Z</time>
      </trkpt>
      <trkpt lat="43.50973" lon="3.08279">
        <ele>264.5</ele>
        <time>2015-11-29T09:22:52Z</time>
      </trkpt>
      <trkpt lat="43.50971" lon="3.08282">
        <ele>264.5</ele>
        <time>2015-11-29T09:22:53Z</time>
      </trkpt>
      <trkpt lat="43.50969" lon="3.08284">
        <ele>265</ele>
        <time>2015-11-29T09:22:54Z</time>
      </trkpt>
      <trkpt lat="43.50967" lon="3.08286">
        <ele>265</ele>
        <time>2015-11-29T09:22:55Z</time>
      </trkpt>
      <trkpt lat="43.50965" lon="3.08288">
        <ele>265</ele>
        <time>2015-11-29T09:22:56Z</time>
      </trkpt>
      <trkpt lat="43.50963" lon="3.08291">
        <ele>265.5</ele>
        <time>2015-11-29T09:22:57Z</time>
      </trkpt>
      <trkpt lat="43.50961" lon="3.08293">
        <ele>266</ele>
        <time>2015-11-29T09:22:58Z</time>
      </trkpt>
      <trkpt lat="43.50959" lon="3.08294">
        <ele>266</ele>
        <time>2015-11-29T09:22:59Z</time>
      </trkpt>
      <trkpt lat="43.50957" lon="3.08296">
        <ele>264</ele>
        <time>2015-11-29T09:23:00Z</time>
      </trkpt>
      <trkpt lat="43.50955" lon="3.08298">
        <ele>264</ele>
        <time>2015-11-29T09:23:01Z</time>
      </trkpt>
      <trkpt lat="43.50953" lon="3.08299">
        <ele>265</ele>
        <time>2015-11-29T09:23:02Z</time>
      </trkpt>
      <trkpt lat="43.50951" lon="3.08301">
        <ele>266</ele>
        <time>2015-11-29T09:23:03Z</time>
      </trkpt>
      <trkpt lat="43.50949" lon="3.08302">
        <ele>265</ele>
        <time>2015-11-29T09:23:04Z</time>
      </trkpt>
      <trkpt lat="43.50947" lon="3.08303">
        <ele>265.5</ele>
        <time>2015-11-29T09:23:05Z</time>
      </trkpt>
      <trkpt lat="43.50944" lon="3.08303">
        <ele>265.5</ele>
        <time>2015-11-29T09:23:06Z</time>
      </trkpt>
      <trkpt lat="43.50942" lon="3.08304">
        <ele>266</ele>
        <time>2015-11-29T09:23:07Z</time>
      </trkpt>
      <trkpt lat="43.50939" lon="3.08305">
        <ele>266</ele>
        <time>2015-11-29T09:23:08Z</time>
      </trkpt>
      <trkpt lat="43.50937" lon="3.08305">
        <ele>265.5</ele>
        <time>2015-11-29T09:23:09Z</time>
      </trkpt>
      <trkpt lat="43.50934" lon="3.08305">
        <ele>266</ele>
        <time>2015-11-29T09:23:10Z</time>
      </trkpt>
      <trkpt lat="43.50932" lon="3.08305">
        <ele>266</ele>
        <time>2015-11-29T09:23:11Z</time>
      </trkpt>
      <trkpt lat="43.5093" lon="3.08305">
        <ele>266</ele>
        <time>2015-11-29T09:23:12Z</time>
      </trkpt>
      <trkpt lat="43.50928" lon="3.08305">
        <ele>266</ele>
        <time>2015-11-29T09:23:13Z</time>
      </trkpt>
      <trkpt lat="43.50925" lon="3.08305">
        <ele>266</ele>
        <time>2015-11-29T09:23:14Z</time>
      </trkpt>
      <trkpt lat="43.50923" lon="3.08306">
        <ele>267</ele>
        <time>2015-11-29T09:23:15Z</time>
      </trkpt>
      <trkpt lat="43.50921" lon="3.08306">
        <ele>267.5</ele>
        <time>2015-11-29T09:23:16Z</time>
      </trkpt>
      <trkpt lat="43.50918" lon="3.08306">
        <ele>267</ele>
        <time>2015-11-29T09:23:17Z</time>
      </trkpt>
      <trkpt lat="43.50916" lon="3.08306">
        <ele>267</ele>
        <time>2015-11-29T09:23:18Z</time>
      </trkpt>
      <trkpt lat="43.50914" lon="3.08306">
        <ele>267</ele>
        <time>2015-11-29T09:23:19Z</time>
      </trkpt>
      <trkpt lat="43.50911" lon="3.08307">
        <ele>268.5</ele>
        <time>2015-11-29T09:23:20Z</time>
      </trkpt>
      <trkpt lat="43.50909" lon="3.08307">
        <ele>268.5</ele>
        <time>2015-11-29T09:23:21Z</time>
      </trkpt>
      <trkpt lat="43.50906" lon="3.08306">
        <ele>268.5</ele>
        <time>2015-11-29T09:23:22Z</time>
      </trkpt>
      <trkpt lat="43.50903" lon="3.08307">
        <ele>269</ele>
        <time>2015-11-29T09:23:23Z</time>
      </trkpt>
      <trkpt lat="43.50901" lon="3.08306">
        <ele>269.5</ele>
        <time>2015-11-29T09:23:24Z</time>
      </trkpt>
      <trkpt lat="43.50898" lon="3.08306">
        <ele>269</ele>
        <time>2015-11-29T09:23:25Z</time>
      </trkpt>
      <trkpt lat="43.50895" lon="3.08306">
        <ele>269</ele>
        <time>2015-11-29T09:23:26Z</time>
      </trkpt>
      <trkpt lat="43.50893" lon="3.08306">
        <ele>269.5</ele>
        <time>2015-11-29T09:23:27Z</time>
      </trkpt>
      <trkpt lat="43.5089" lon="3.08306">
        <ele>269.5</ele>
        <time>2015-11-29T09:23:28Z</time>
      </trkpt>
      <trkpt lat="43.50888" lon="3.08306">
        <ele>269</ele>
        <time>2015-11-29T09:23:28Z</time>
      </trkpt>
      <trkpt lat="43.50886" lon="3.08306">
        <ele>270.5</ele>
        <time>2015-11-29T09:23:30Z</time>
      </trkpt>
      <trkpt lat="43.50883" lon="3.08308">
        <ele>270.5</ele>
        <time>2015-11-29T09:23:31Z</time>
      </trkpt>
      <trkpt lat="43.50881" lon="3.08308">
        <ele>271.5</ele>
        <time>2015-11-29T09:23:31Z</time>
      </trkpt>
      <trkpt lat="43.50878" lon="3.08308">
        <ele>271.5</ele>
        <time>2015-11-29T09:23:33Z</time>
      </trkpt>
      <trkpt lat="43.50876" lon="3.08308">
        <ele>271</ele>
        <time>2015-11-29T09:23:34Z</time>
      </trkpt>
      <trkpt lat="43.50872" lon="3.08307">
        <ele>269.5</ele>
        <time>2015-11-29T09:23:34Z</time>
      </trkpt>
      <trkpt lat="43.50868" lon="3.08305">
        <ele>268</ele>
        <time>2015-11-29T09:23:36Z</time>
      </trkpt>
      <trkpt lat="43.50866" lon="3.08304">
        <ele>268.5</ele>
        <time>2015-11-29T09:23:37Z</time>
      </trkpt>
      <trkpt lat="43.50864" lon="3.08304">
        <ele>270</ele>
        <time>2015-11-29T09:23:38Z</time>
      </trkpt>
      <trkpt lat="43.50861" lon="3.08304">
        <ele>271.5</ele>
        <time>2015-11-29T09:23:39Z</time>
      </trkpt>
      <trkpt lat="43.50859" lon="3.08303">
        <ele>272.5</ele>
        <time>2015-11-29T09:23:40Z</time>
      </trkpt>
      <trkpt lat="43.50857" lon="3.08303">
        <ele>274.5</ele>
        <time>2015-11-29T09:23:41Z</time>
      </trkpt>
      <trkpt lat="43.50855" lon="3.08302">
        <ele>274.5</ele>
        <time>2015-11-29T09:23:43Z</time>
      </trkpt>
      <trkpt lat="43.50852" lon="3.083">
        <ele>274</ele>
        <time>2015-11-29T09:23:43Z</time>
      </trkpt>
      <trkpt lat="43.5085" lon="3.08299">
        <ele>274</ele>
        <time>2015-11-29T09:23:44Z</time>
      </trkpt>
      <trkpt lat="43.50847" lon="3.083">
        <ele>276</ele>
        <time>2015-11-29T09:23:45Z</time>
      </trkpt>
      <trkpt lat="43.50845" lon="3.08298">
        <ele>276</ele>
        <time>2015-11-29T09:23:46Z</time>
      </trkpt>
      <trkpt lat="43.50842" lon="3.08298">
        <ele>277.5</ele>
        <time>2015-11-29T09:23:47Z</time>
      </trkpt>
      <trkpt lat="43.5084" lon="3.08297">
        <ele>278</ele>
        <time>2015-11-29T09:23:49Z</time>
      </trkpt>
      <trkpt lat="43.50838" lon="3.08296">
        <ele>278.5</ele>
        <time>2015-11-29T09:23:49Z</time>
      </trkpt>
      <trkpt lat="43.50835" lon="3.08295">
        <ele>280</ele>
        <time>2015-11-29T09:23:50Z</time>
      </trkpt>
      <trkpt lat="43.50833" lon="3.08294">
        <ele>281.5</ele>
        <time>2015-11-29T09:23:51Z</time>
      </trkpt>
      <trkpt lat="43.50831" lon="3.08294">
        <ele>282</ele>
        <time>2015-11-29T09:23:53Z</time>
      </trkpt>
      <trkpt lat="43.50828" lon="3.08292">
        <ele>282.5</ele>
        <time>2015-11-29T09:23:53Z</time>
      </trkpt>
      <trkpt lat="43.50826" lon="3.08292">
        <ele>283.5</ele>
        <time>2015-11-29T09:23:54Z</time>
      </trkpt>
      <trkpt lat="43.50824" lon="3.08291">
        <ele>284.5</ele>
        <time>2015-11-29T09:23:55Z</time>
      </trkpt>
      <trkpt lat="43.50821" lon="3.08289">
        <ele>285</ele>
        <time>2015-11-29T09:23:56Z</time>
      </trkpt>
      <trkpt lat="43.50819" lon="3.08289">
        <ele>286.5</ele>
        <time>2015-11-29T09:23:57Z</time>
      </trkpt>
      <trkpt lat="43.50816" lon="3.08288">
        <ele>287</ele>
        <time>2015-11-29T09:23:58Z</time>
      </trkpt>
      <trkpt lat="43.50814" lon="3.08287">
        <ele>287</ele>
        <time>2015-11-29T09:23:59Z</time>
      </trkpt>
      <trkpt lat="43.50811" lon="3.08285">
        <ele>287</ele>
        <time>2015-11-29T09:24:01Z</time>
      </trkpt>
      <trkpt lat="43.50809" lon="3.08284">
        <ele>287.5</ele>
        <time>2015-11-29T09:24:01Z</time>
      </trkpt>
      <trkpt lat="43.50806" lon="3.08282">
        <ele>286.5</ele>
        <time>2015-11-29T09:24:02Z</time>
      </trkpt>
      <trkpt lat="43.50804" lon="3.08281">
        <ele>286</ele>
        <time>2015-11-29T09:24:04Z</time>
      </trkpt>
      <trkpt lat="43.50801" lon="3.0828">
        <ele>286.5</ele>
        <time>2015-11-29T09:24:04Z</time>
      </trkpt>
      <trkpt lat="43.50798" lon="3.0828">
        <ele>287</ele>
        <time>2015-11-29T09:24:05Z</time>
      </trkpt>
      <trkpt lat="43.50796" lon="3.08279">
        <ele>288</ele>
        <time>2015-11-29T09:24:06Z</time>
      </trkpt>
      <trkpt lat="43.50794" lon="3.08278">
        <ele>288</ele>
        <time>2015-11-29T09:24:07Z</time>
      </trkpt>
      <trkpt lat="43.50791" lon="3.08278">
        <ele>288</ele>
        <time>2015-11-29T09:24:08Z</time>
      </trkpt>
      <trkpt lat="43.50789" lon="3.08278">
        <ele>288.5</ele>
        <time>2015-11-29T09:24:10Z</time>
      </trkpt>
      <trkpt lat="43.50786" lon="3.08277">
        <ele>288</ele>
        <time>2015-11-29T09:24:10Z</time>
      </trkpt>
      <trkpt lat="43.50784" lon="3.08277">
        <ele>287.5</ele>
        <time>2015-11-29T09:24:11Z</time>
      </trkpt>
      <trkpt lat="43.50781" lon="3.08276">
        <ele>288</ele>
        <time>2015-11-29T09:24:12Z</time>
      </trkpt>
      <trkpt lat="43.50778" lon="3.08277">
        <ele>289.5</ele>
        <time>2015-11-29T09:24:13Z</time>
      </trkpt>
      <trkpt lat="43.50776" lon="3.08276">
        <ele>290</ele>
        <time>2015-11-29T09:24:14Z</time>
      </trkpt>
      <trkpt lat="43.50773" lon="3.08276">
        <ele>289.5</ele>
        <time>2015-11-29T09:24:15Z</time>
      </trkpt>
      <trkpt lat="43.50771" lon="3.08276">
        <ele>290.5</ele>
        <time>2015-11-29T09:24:16Z</time>
      </trkpt>
      <trkpt lat="43.50768" lon="3.08275">
        <ele>290.5</ele>
        <time>2015-11-29T09:24:17Z</time>
      </trkpt>
      <trkpt lat="43.50766" lon="3.08274">
        <ele>290.5</ele>
        <time>2015-11-29T09:24:19Z</time>
      </trkpt>
      <trkpt lat="43.50763" lon="3.08274">
        <ele>291</ele>
        <time>2015-11-29T09:24:19Z</time>
      </trkpt>
      <trkpt lat="43.50761" lon="3.08273">
        <ele>291</ele>
        <time>2015-11-29T09:24:20Z</time>
      </trkpt>
      <trkpt lat="43.50758" lon="3.08272">
        <ele>291</ele>
        <time>2015-11-29T09:24:21Z</time>
      </trkpt>
      <trkpt lat="43.50756" lon="3.08272">
        <ele>291.5</ele>
        <time>2015-11-29T09:24:22Z</time>
      </trkpt>
      <trkpt lat="43.50754" lon="3.08271">
        <ele>291</ele>
        <time>2015-11-29T09:24:24Z</time>
      </trkpt>
      <trkpt lat="43.50751" lon="3.0827">
        <ele>291</ele>
        <time>2015-11-29T09:24:24Z</time>
      </trkpt>
      <trkpt lat="43.50749" lon="3.08269">
        <ele>291.5</ele>
        <time>2015-11-29T09:24:25Z</time>
      </trkpt>
      <trkpt lat="43.50747" lon="3.08268">
        <ele>291</ele>
        <time>2015-11-29T09:24:26Z</time>
      </trkpt>
      <trkpt lat="43.50744" lon="3.08267">
        <ele>291</ele>
        <time>2015-11-29T09:24:27Z</time>
      </trkpt>
      <trkpt lat="43.50742" lon="3.08266">
        <ele>291</ele>
        <time>2015-11-29T09:24:28Z</time>
      </trkpt>
      <trkpt lat="43.50739" lon="3.08265">
        <ele>290.5</ele>
        <time>2015-11-29T09:24:29Z</time>
      </trkpt>
      <trkpt lat="43.50737" lon="3.08264">
        <ele>290.5</ele>
        <time>2015-11-29T09:24:30Z</time>
      </trkpt>
      <trkpt lat="43.50734" lon="3.08263">
        <ele>290</ele>
        <time>2015-11-29T09:24:31Z</time>
      </trkpt>
      <trkpt lat="43.50731" lon="3.08263">
        <ele>290</ele>
        <time>2015-11-29T09:24:32Z</time>
      </trkpt>
      <trkpt lat="43.50728" lon="3.08262">
        <ele>290.5</ele>
        <time>2015-11-29T09:24:34Z</time>
      </trkpt>
      <trkpt lat="43.50725" lon="3.08261">
        <ele>291</ele>
        <time>2015-11-29T09:24:34Z</time>
      </trkpt>
      <trkpt lat="43.50722" lon="3.08261">
        <ele>292</ele>
        <time>2015-11-29T09:24:35Z</time>
      </trkpt>
      <trkpt lat="43.50719" lon="3.08261">
        <ele>293</ele>
        <time>2015-11-29T09:24:36Z</time>
      </trkpt>
      <trkpt lat="43.50716" lon="3.08261">
        <ele>293.5</ele>
        <time>2015-11-29T09:24:38Z</time>
      </trkpt>
      <trkpt lat="43.50713" lon="3.08261">
        <ele>294</ele>
        <time>2015-11-29T09:24:38Z</time>
      </trkpt>
      <trkpt lat="43.50711" lon="3.08261">
        <ele>294.5</ele>
        <time>2015-11-29T09:24:39Z</time>
      </trkpt>
      <trkpt lat="43.50708" lon="3.08261">
        <ele>295.5</ele>
        <time>2015-11-29T09:24:40Z</time>
      </trkpt>
      <trkpt lat="43.50706" lon="3.08261">
        <ele>296</ele>
        <time>2015-11-29T09:24:41Z</time>
      </trkpt>
      <trkpt lat="43.50703" lon="3.08262">
        <ele>298</ele>
        <time>2015-11-29T09:24:42Z</time>
      </trkpt>
      <trkpt lat="43.507" lon="3.08262">
        <ele>298</ele>
        <time>2015-11-29T09:24:43Z</time>
      </trkpt>
      <trkpt lat="43.50698" lon="3.08262">
        <ele>298</ele>
        <time>2015-11-29T09:24:44Z</time>
      </trkpt>
      <trkpt lat="43.50695" lon="3.08262">
        <ele>298</ele>
        <time>2015-11-29T09:24:45Z</time>
      </trkpt>
      <trkpt lat="43.50693" lon="3.08263">
        <ele>300</ele>
        <time>2015-11-29T09:24:46Z</time>
      </trkpt>
      <trkpt lat="43.5069" lon="3.08264">
        <ele>300</ele>
        <time>2015-11-29T09:24:47Z</time>
      </trkpt>
      <trkpt lat="43.50688" lon="3.08264">
        <ele>300</ele>
        <time>2015-11-29T09:24:48Z</time>
      </trkpt>
      <trkpt lat="43.50685" lon="3.08264">
        <ele>300</ele>
        <time>2015-11-29T09:24:49Z</time>
      </trkpt>
      <trkpt lat="43.50683" lon="3.08266">
        <ele>301.5</ele>
        <time>2015-11-29T09:24:50Z</time>
      </trkpt>
      <trkpt lat="43.5068" lon="3.08267">
        <ele>301.5</ele>
        <time>2015-11-29T09:24:51Z</time>
      </trkpt>
      <trkpt lat="43.50678" lon="3.08268">
        <ele>302</ele>
        <time>2015-11-29T09:24:52Z</time>
      </trkpt>
      <trkpt lat="43.50676" lon="3.08269">
        <ele>302</ele>
        <time>2015-11-29T09:24:53Z</time>
      </trkpt>
      <trkpt lat="43.50673" lon="3.0827">
        <ele>301.5</ele>
        <time>2015-11-29T09:24:54Z</time>
      </trkpt>
      <trkpt lat="43.50671" lon="3.08272">
        <ele>302</ele>
        <time>2015-11-29T09:24:55Z</time>
      </trkpt>
      <trkpt lat="43.5067" lon="3.08274">
        <ele>303</ele>
        <time>2015-11-29T09:24:56Z</time>
      </trkpt>
      <trkpt lat="43.50668" lon="3.08276">
        <ele>303</ele>
        <time>2015-11-29T09:24:57Z</time>
      </trkpt>
      <trkpt lat="43.50666" lon="3.08278">
        <ele>302.5</ele>
        <time>2015-11-29T09:24:58Z</time>
      </trkpt>
      <trkpt lat="43.50664" lon="3.0828">
        <ele>302.5</ele>
        <time>2015-11-29T09:24:59Z</time>
      </trkpt>
      <trkpt lat="43.50662" lon="3.08283">
        <ele>304</ele>
        <time>2015-11-29T09:25:00Z</time>
      </trkpt>
      <trkpt lat="43.5066" lon="3.08285">
        <ele>303.5</ele>
        <time>2015-11-29T09:25:01Z</time>
      </trkpt>
      <trkpt lat="43.50658" lon="3.08287">
        <ele>303.5</ele>
        <time>2015-11-29T09:25:02Z</time>
      </trkpt>
      <trkpt lat="43.50656" lon="3.08288">
        <ele>302.5</ele>
        <time>2015-11-29T09:25:03Z</time>
      </trkpt>
      <trkpt lat="43.50654" lon="3.0829">
        <ele>300.5</ele>
        <time>2015-11-29T09:25:04Z</time>
      </trkpt>
      <trkpt lat="43.50652" lon="3.08291">
        <ele>299.5</ele>
        <time>2015-11-29T09:25:05Z</time>
      </trkpt>
      <trkpt lat="43.5065" lon="3.08293">
        <ele>298</ele>
        <time>2015-11-29T09:25:06Z</time>
      </trkpt>
      <trkpt lat="43.50648" lon="3.08295">
        <ele>298</ele>
        <time>2015-11-29T09:25:07Z</time>
      </trkpt>
      <trkpt lat="43.50646" lon="3.08297">
        <ele>298</ele>
        <time>2015-11-29T09:25:08Z</time>
      </trkpt>
      <trkpt lat="43.50645" lon="3.08299">
        <ele>298</ele>
        <time>2015-11-29T09:25:09Z</time>
      </trkpt>
      <trkpt lat="43.50642" lon="3.08301">
        <ele>297.5</ele>
        <time>2015-11-29T09:25:10Z</time>
      </trkpt>
      <trkpt lat="43.50641" lon="3.08302">
        <ele>294</ele>
        <time>2015-11-29T09:25:11Z</time>
      </trkpt>
      <trkpt lat="43.50639" lon="3.08303">
        <ele>292</ele>
        <time>2015-11-29T09:25:12Z</time>
      </trkpt>
      <trkpt lat="43.50637" lon="3.08305">
        <ele>290.5</ele>
        <time>2015-11-29T09:25:13Z</time>
      </trkpt>
      <trkpt lat="43.50635" lon="3.08306">
        <ele>289.5</ele>
        <time>2015-11-29T09:25:14Z</time>
      </trkpt>
      <trkpt lat="43.50633" lon="3.08308">
        <ele>289</ele>
        <time>2015-11-29T09:25:15Z</time>
      </trkpt>
      <trkpt lat="43.50631" lon="3.0831">
        <ele>289</ele>
        <time>2015-11-29T09:25:16Z</time>
      </trkpt>
      <trkpt lat="43.5063" lon="3.08313">
        <ele>289</ele>
        <time>2015-11-29T09:25:17Z</time>
      </trkpt>
      <trkpt lat="43.50628" lon="3.08315">
        <ele>289.5</ele>
        <time>2015-11-29T09:25:18Z</time>
      </trkpt>
      <trkpt lat="43.50627" lon="3.08317">
        <ele>290</ele>
        <time>2015-11-29T09:25:19Z</time>
      </trkpt>
      <trkpt lat="43.50626" lon="3.08318">
        <ele>290</ele>
        <time>2015-11-29T09:25:20Z</time>
      </trkpt>
      <trkpt lat="43.50624" lon="3.0832">
        <ele>289.5</ele>
        <time>2015-11-29T09:25:21Z</time>
      </trkpt>
      <trkpt lat="43.50622" lon="3.08322">
        <ele>289</ele>
        <time>2015-11-29T09:25:22Z</time>
      </trkpt>
      <trkpt lat="43.5062" lon="3.08324">
        <ele>288.5</ele>
        <time>2015-11-29T09:25:23Z</time>
      </trkpt>
      <trkpt lat="43.50619" lon="3.08327">
        <ele>288.5</ele>
        <time>2015-11-29T09:25:24Z</time>
      </trkpt>
      <trkpt lat="43.50618" lon="3.08329">
        <ele>289</ele>
        <time>2015-11-29T09:25:25Z</time>
      </trkpt>
      <trkpt lat="43.50617" lon="3.08332">
        <ele>289.5</ele>
        <time>2015-11-29T09:25:26Z</time>
      </trkpt>
      <trkpt lat="43.50616" lon="3.08335">
        <ele>289.5</ele>
        <time>2015-11-29T09:25:27Z</time>
      </trkpt>
      <trkpt lat="43.50615" lon="3.08338">
        <ele>290</ele>
        <time>2015-11-29T09:25:28Z</time>
      </trkpt>
      <trkpt lat="43.50615" lon="3.08341">
        <ele>290.5</ele>
        <time>2015-11-29T09:25:29Z</time>
      </trkpt>
      <trkpt lat="43.50616" lon="3.08344">
        <ele>291</ele>
        <time>2015-11-29T09:25:30Z</time>
      </trkpt>
      <trkpt lat="43.50617" lon="3.08348">
        <ele>291.5</ele>
        <time>2015-11-29T09:25:31Z</time>
      </trkpt>
      <trkpt lat="43.50619" lon="3.0835">
        <ele>292.5</ele>
        <time>2015-11-29T09:25:32Z</time>
      </trkpt>
      <trkpt lat="43.5062" lon="3.08351">
        <ele>292.5</ele>
        <time>2015-11-29T09:25:33Z</time>
      </trkpt>
      <trkpt lat="43.50622" lon="3.08351">
        <ele>291.5</ele>
        <time>2015-11-29T09:25:34Z</time>
      </trkpt>
      <trkpt lat="43.50625" lon="3.08351">
        <ele>292</ele>
        <time>2015-11-29T09:25:35Z</time>
      </trkpt>
      <trkpt lat="43.50626" lon="3.08351">
        <ele>291</ele>
        <time>2015-11-29T09:25:36Z</time>
      </trkpt>
      <trkpt lat="43.50628" lon="3.08349">
        <ele>290</ele>
        <time>2015-11-29T09:25:37Z</time>
      </trkpt>
      <trkpt lat="43.5063" lon="3.08347">
        <ele>290</ele>
        <time>2015-11-29T09:25:38Z</time>
      </trkpt>
      <trkpt lat="43.50632" lon="3.08345">
        <ele>290</ele>
        <time>2015-11-29T09:25:39Z</time>
      </trkpt>
      <trkpt lat="43.50634" lon="3.08343">
        <ele>289.5</ele>
        <time>2015-11-29T09:25:40Z</time>
      </trkpt>
      <trkpt lat="43.50635" lon="3.08341">
        <ele>289</ele>
        <time>2015-11-29T09:25:41Z</time>
      </trkpt>
      <trkpt lat="43.50637" lon="3.08339">
        <ele>288.5</ele>
        <time>2015-11-29T09:25:42Z</time>
      </trkpt>
      <trkpt lat="43.50639" lon="3.08337">
        <ele>288</ele>
        <time>2015-11-29T09:25:43Z</time>
      </trkpt>
      <trkpt lat="43.50641" lon="3.08335">
        <ele>288</ele>
        <time>2015-11-29T09:25:44Z</time>
      </trkpt>
      <trkpt lat="43.50643" lon="3.08334">
        <ele>288</ele>
        <time>2015-11-29T09:25:45Z</time>
      </trkpt>
      <trkpt lat="43.50645" lon="3.08332">
        <ele>288</ele>
        <time>2015-11-29T09:25:46Z</time>
      </trkpt>
      <trkpt lat="43.50647" lon="3.08331">
        <ele>288</ele>
        <time>2015-11-29T09:25:47Z</time>
      </trkpt>
      <trkpt lat="43.50649" lon="3.0833">
        <ele>288.5</ele>
        <time>2015-11-29T09:25:48Z</time>
      </trkpt>
      <trkpt lat="43.50651" lon="3.08329">
        <ele>288.5</ele>
        <time>2015-11-29T09:25:49Z</time>
      </trkpt>
      <trkpt lat="43.50653" lon="3.08328">
        <ele>289</ele>
        <time>2015-11-29T09:25:50Z</time>
      </trkpt>
      <trkpt lat="43.50655" lon="3.08326">
        <ele>290</ele>
        <time>2015-11-29T09:25:51Z</time>
      </trkpt>
      <trkpt lat="43.50657" lon="3.08325">
        <ele>291</ele>
        <time>2015-11-29T09:25:52Z</time>
      </trkpt>
      <trkpt lat="43.50659" lon="3.08325">
        <ele>291</ele>
        <time>2015-11-29T09:25:53Z</time>
      </trkpt>
      <trkpt lat="43.50661" lon="3.08323">
        <ele>292</ele>
        <time>2015-11-29T09:25:54Z</time>
      </trkpt>
      <trkpt lat="43.50664" lon="3.08323">
        <ele>292</ele>
        <time>2015-11-29T09:25:55Z</time>
      </trkpt>
      <trkpt lat="43.50666" lon="3.08322">
        <ele>293</ele>
        <time>2015-11-29T09:25:56Z</time>
      </trkpt>
      <trkpt lat="43.50669" lon="3.08322">
        <ele>293.5</ele>
        <time>2015-11-29T09:25:57Z</time>
      </trkpt>
      <trkpt lat="43.50672" lon="3.08322">
        <ele>294</ele>
        <time>2015-11-29T09:25:58Z</time>
      </trkpt>
      <trkpt lat="43.50675" lon="3.08322">
        <ele>294.5</ele>
        <time>2015-11-29T09:25:59Z</time>
      </trkpt>
      <trkpt lat="43.50678" lon="3.08322">
        <ele>295</ele>
        <time>2015-11-29T09:26:00Z</time>
      </trkpt>
      <trkpt lat="43.50681" lon="3.08323">
        <ele>295.5</ele>
        <time>2015-11-29T09:26:01Z</time>
      </trkpt>
      <trkpt lat="43.50683" lon="3.08323">
        <ele>296.5</ele>
        <time>2015-11-29T09:26:02Z</time>
      </trkpt>
      <trkpt lat="43.50686" lon="3.08324">
        <ele>296.5</ele>
        <time>2015-11-29T09:26:03Z</time>
      </trkpt>
      <trkpt lat="43.50688" lon="3.08325">
        <ele>296.5</ele>
        <time>2015-11-29T09:26:04Z</time>
      </trkpt>
      <trkpt lat="43.50691" lon="3.08326">
        <ele>297</ele>
        <time>2015-11-29T09:26:05Z</time>
      </trkpt>
      <trkpt lat="43.50693" lon="3.08328">
        <ele>297</ele>
        <time>2015-11-29T09:26:06Z</time>
      </trkpt>
      <trkpt lat="43.50696" lon="3.0833">
        <ele>297</ele>
        <time>2015-11-29T09:26:07Z</time>
      </trkpt>
      <trkpt lat="43.50699" lon="3.08332">
        <ele>297</ele>
        <time>2015-11-29T09:26:08Z</time>
      </trkpt>
      <trkpt lat="43.50701" lon="3.08333">
        <ele>297</ele>
        <time>2015-11-29T09:26:09Z</time>
      </trkpt>
      <trkpt lat="43.50704" lon="3.08335">
        <ele>297</ele>
        <time>2015-11-29T09:26:10Z</time>
      </trkpt>
      <trkpt lat="43.50706" lon="3.08337">
        <ele>297</ele>
        <time>2015-11-29T09:26:11Z</time>
      </trkpt>
      <trkpt lat="43.50709" lon="3.08338">
        <ele>297.5</ele>
        <time>2015-11-29T09:26:12Z</time>
      </trkpt>
      <trkpt lat="43.50711" lon="3.0834">
        <ele>297.5</ele>
        <time>2015-11-29T09:26:13Z</time>
      </trkpt>
      <trkpt lat="43.50713" lon="3.08342">
        <ele>297.5</ele>
        <time>2015-11-29T09:26:14Z</time>
      </trkpt>
      <trkpt lat="43.50716" lon="3.08344">
        <ele>297.5</ele>
        <time>2015-11-29T09:26:15Z</time>
      </trkpt>
      <trkpt lat="43.50718" lon="3.08346">
        <ele>297.5</ele>
        <time>2015-11-29T09:26:16Z</time>
      </trkpt>
      <trkpt lat="43.50721" lon="3.08348">
        <ele>297.5</ele>
        <time>2015-11-29T09:26:17Z</time>
      </trkpt>
      <trkpt lat="43.50723" lon="3.0835">
        <ele>297.5</ele>
        <time>2015-11-29T09:26:18Z</time>
      </trkpt>
      <trkpt lat="43.50725" lon="3.08352">
        <ele>297.5</ele>
        <time>2015-11-29T09:26:19Z</time>
      </trkpt>
      <trkpt lat="43.50728" lon="3.08354">
        <ele>297.5</ele>
        <time>2015-11-29T09:26:20Z</time>
      </trkpt>
      <trkpt lat="43.5073" lon="3.08356">
        <ele>298</ele>
        <time>2015-11-29T09:26:21Z</time>
      </trkpt>
      <trkpt lat="43.50732" lon="3.08359">
        <ele>298</ele>
        <time>2015-11-29T09:26:22Z</time>
      </trkpt>
      <trkpt lat="43.50734" lon="3.08361">
        <ele>298</ele>
        <time>2015-11-29T09:26:23Z</time>
      </trkpt>
      <trkpt lat="43.50736" lon="3.08364">
        <ele>298</ele>
        <time>2015-11-29T09:26:24Z</time>
      </trkpt>
      <trkpt lat="43.50738" lon="3.08366">
        <ele>298.5</ele>
        <time>2015-11-29T09:26:25Z</time>
      </trkpt>
      <trkpt lat="43.5074" lon="3.08368">
        <ele>298.5</ele>
        <time>2015-11-29T09:26:26Z</time>
      </trkpt>
      <trkpt lat="43.50742" lon="3.08369">
        <ele>299</ele>
        <time>2015-11-29T09:26:27Z</time>
      </trkpt>
      <trkpt lat="43.50744" lon="3.08371">
        <ele>299</ele>
        <time>2015-11-29T09:26:28Z</time>
      </trkpt>
      <trkpt lat="43.50746" lon="3.08374">
        <ele>299.5</ele>
        <time>2015-11-29T09:26:29Z</time>
      </trkpt>
      <trkpt lat="43.50747" lon="3.08377">
        <ele>299.5</ele>
        <time>2015-11-29T09:26:30Z</time>
      </trkpt>
      <trkpt lat="43.50749" lon="3.0838">
        <ele>299.5</ele>
        <time>2015-11-29T09:26:31Z</time>
      </trkpt>
      <trkpt lat="43.50751" lon="3.08383">
        <ele>299.5</ele>
        <time>2015-11-29T09:26:32Z</time>
      </trkpt>
      <trkpt lat="43.50752" lon="3.08386">
        <ele>299.5</ele>
        <time>2015-11-29T09:26:33Z</time>
      </trkpt>
      <trkpt lat="43.50754" lon="3.08388">
        <ele>300</ele>
        <time>2015-11-29T09:26:34Z</time>
      </trkpt>
      <trkpt lat="43.50756" lon="3.08391">
        <ele>300.5</ele>
        <time>2015-11-29T09:26:35Z</time>
      </trkpt>
      <trkpt lat="43.50758" lon="3.08393">
        <ele>300.5</ele>
        <time>2015-11-29T09:26:36Z</time>
      </trkpt>
      <trkpt lat="43.50759" lon="3.08396">
        <ele>301</ele>
        <time>2015-11-29T09:26:37Z</time>
      </trkpt>
      <trkpt lat="43.50761" lon="3.08398">
        <ele>301.5</ele>
        <time>2015-11-29T09:26:38Z</time>
      </trkpt>
      <trkpt lat="43.50763" lon="3.08401">
        <ele>301.5</ele>
        <time>2015-11-29T09:26:39Z</time>
      </trkpt>
      <trkpt lat="43.50765" lon="3.08403">
        <ele>302</ele>
        <time>2015-11-29T09:26:40Z</time>
      </trkpt>
      <trkpt lat="43.50766" lon="3.08405">
        <ele>302</ele>
        <time>2015-11-29T09:26:41Z</time>
      </trkpt>
      <trkpt lat="43.50768" lon="3.08408">
        <ele>302</ele>
        <time>2015-11-29T09:26:42Z</time>
      </trkpt>
      <trkpt lat="43.5077" lon="3.0841">
        <ele>302.5</ele>
        <time>2015-11-29T09:26:43Z</time>
      </trkpt>
      <trkpt lat="43.50772" lon="3.08412">
        <ele>303</ele>
        <time>2015-11-29T09:26:44Z</time>
      </trkpt>
      <trkpt lat="43.50774" lon="3.08413">
        <ele>304</ele>
        <time>2015-11-29T09:26:45Z</time>
      </trkpt>
      <trkpt lat="43.50776" lon="3.08415">
        <ele>304.5</ele>
        <time>2015-11-29T09:26:46Z</time>
      </trkpt>
      <trkpt lat="43.50777" lon="3.08417">
        <ele>305</ele>
        <time>2015-11-29T09:26:47Z</time>
      </trkpt>
      <trkpt lat="43.5078" lon="3.08419">
        <ele>305.5</ele>
        <time>2015-11-29T09:26:48Z</time>
      </trkpt>
      <trkpt lat="43.50782" lon="3.0842">
        <ele>305.5</ele>
        <time>2015-11-29T09:26:49Z</time>
      </trkpt>
      <trkpt lat="43.50784" lon="3.08422">
        <ele>306</ele>
        <time>2015-11-29T09:26:50Z</time>
      </trkpt>
      <trkpt lat="43.50787" lon="3.08424">
        <ele>306</ele>
        <time>2015-11-29T09:26:51Z</time>
      </trkpt>
      <trkpt lat="43.50789" lon="3.08426">
        <ele>306</ele>
        <time>2015-11-29T09:26:52Z</time>
      </trkpt>
      <trkpt lat="43.50791" lon="3.08428">
        <ele>306.5</ele>
        <time>2015-11-29T09:26:53Z</time>
      </trkpt>
      <trkpt lat="43.50793" lon="3.0843">
        <ele>306.5</ele>
        <time>2015-11-29T09:26:54Z</time>
      </trkpt>
      <trkpt lat="43.50795" lon="3.08432">
        <ele>306.5</ele>
        <time>2015-11-29T09:26:55Z</time>
      </trkpt>
      <trkpt lat="43.50798" lon="3.08434">
        <ele>307</ele>
        <time>2015-11-29T09:26:56Z</time>
      </trkpt>
      <trkpt lat="43.508" lon="3.08436">
        <ele>307</ele>
        <time>2015-11-29T09:26:57Z</time>
      </trkpt>
      <trkpt lat="43.50802" lon="3.08438">
        <ele>307</ele>
        <time>2015-11-29T09:26:58Z</time>
      </trkpt>
      <trkpt lat="43.50804" lon="3.0844">
        <ele>307</ele>
        <time>2015-11-29T09:26:59Z</time>
      </trkpt>
      <trkpt lat="43.50806" lon="3.08442">
        <ele>307.5</ele>
        <time>2015-11-29T09:27:00Z</time>
      </trkpt>
      <trkpt lat="43.50808" lon="3.08445">
        <ele>307.5</ele>
        <time>2015-11-29T09:27:01Z</time>
      </trkpt>
      <trkpt lat="43.5081" lon="3.08447">
        <ele>307.5</ele>
        <time>2015-11-29T09:27:02Z</time>
      </trkpt>
      <trkpt lat="43.50812" lon="3.0845">
        <ele>307.5</ele>
        <time>2015-11-29T09:27:03Z</time>
      </trkpt>
      <trkpt lat="43.50813" lon="3.08453">
        <ele>307.5</ele>
        <time>2015-11-29T09:27:04Z</time>
      </trkpt>
      <trkpt lat="43.50815" lon="3.08456">
        <ele>307.5</ele>
        <time>2015-11-29T09:27:05Z</time>
      </trkpt>
      <trkpt lat="43.50817" lon="3.08458">
        <ele>308</ele>
        <time>2015-11-29T09:27:06Z</time>
      </trkpt>
      <trkpt lat="43.50818" lon="3.08461">
        <ele>308.5</ele>
        <time>2015-11-29T09:27:07Z</time>
      </trkpt>
      <trkpt lat="43.50819" lon="3.08465">
        <ele>308.5</ele>
        <time>2015-11-29T09:27:08Z</time>
      </trkpt>
      <trkpt lat="43.5082" lon="3.08469">
        <ele>308.5</ele>
        <time>2015-11-29T09:27:09Z</time>
      </trkpt>
      <trkpt lat="43.50821" lon="3.08473">
        <ele>308</ele>
        <time>2015-11-29T09:27:10Z</time>
      </trkpt>
      <trkpt lat="43.50822" lon="3.08477">
        <ele>308</ele>
        <time>2015-11-29T09:27:11Z</time>
      </trkpt>
      <trkpt lat="43.50823" lon="3.08481">
        <ele>308</ele>
        <time>2015-11-29T09:27:11Z</time>
      </trkpt>
      <trkpt lat="43.50824" lon="3.08485">
        <ele>308</ele>
        <time>2015-11-29T09:27:12Z</time>
      </trkpt>
      <trkpt lat="43.50824" lon="3.08489">
        <ele>308.5</ele>
        <time>2015-11-29T09:27:14Z</time>
      </trkpt>
      <trkpt lat="43.50825" lon="3.08493">
        <ele>308.5</ele>
        <time>2015-11-29T09:27:14Z</time>
      </trkpt>
      <trkpt lat="43.50825" lon="3.08497">
        <ele>309</ele>
        <time>2015-11-29T09:27:15Z</time>
      </trkpt>
      <trkpt lat="43.50825" lon="3.08501">
        <ele>309</ele>
        <time>2015-11-29T09:27:16Z</time>
      </trkpt>
      <trkpt lat="43.50825" lon="3.08505">
        <ele>308</ele>
        <time>2015-11-29T09:27:17Z</time>
      </trkpt>
      <trkpt lat="43.50825" lon="3.08508">
        <ele>308.5</ele>
        <time>2015-11-29T09:27:18Z</time>
      </trkpt>
      <trkpt lat="43.50824" lon="3.08512">
        <ele>308</ele>
        <time>2015-11-29T09:27:19Z</time>
      </trkpt>
      <trkpt lat="43.50824" lon="3.08516">
        <ele>308</ele>
        <time>2015-11-29T09:27:20Z</time>
      </trkpt>
      <trkpt lat="43.50823" lon="3.0852">
        <ele>308</ele>
        <time>2015-11-29T09:27:21Z</time>
      </trkpt>
      <trkpt lat="43.50823" lon="3.08524">
        <ele>308</ele>
        <time>2015-11-29T09:27:22Z</time>
      </trkpt>
      <trkpt lat="43.50823" lon="3.08527">
        <ele>308</ele>
        <time>2015-11-29T09:27:23Z</time>
      </trkpt>
      <trkpt lat="43.50823" lon="3.08531">
        <ele>308.5</ele>
        <time>2015-11-29T09:27:24Z</time>
      </trkpt>
      <trkpt lat="43.50822" lon="3.08534">
        <ele>308.5</ele>
        <time>2015-11-29T09:27:25Z</time>
      </trkpt>
      <trkpt lat="43.50823" lon="3.08538">
        <ele>309</ele>
        <time>2015-11-29T09:27:27Z</time>
      </trkpt>
      <trkpt lat="43.50823" lon="3.08542">
        <ele>310</ele>
        <time>2015-11-29T09:27:27Z</time>
      </trkpt>
      <trkpt lat="43.50823" lon="3.08546">
        <ele>310</ele>
        <time>2015-11-29T09:27:28Z</time>
      </trkpt>
      <trkpt lat="43.50823" lon="3.08549">
        <ele>311</ele>
        <time>2015-11-29T09:27:29Z</time>
      </trkpt>
      <trkpt lat="43.50825" lon="3.08553">
        <ele>312.5</ele>
        <time>2015-11-29T09:27:30Z</time>
      </trkpt>
      <trkpt lat="43.50825" lon="3.08556">
        <ele>312.5</ele>
        <time>2015-11-29T09:27:31Z</time>
      </trkpt>
      <trkpt lat="43.50825" lon="3.0856">
        <ele>312.5</ele>
        <time>2015-11-29T09:27:32Z</time>
      </trkpt>
      <trkpt lat="43.50825" lon="3.08563">
        <ele>312.5</ele>
        <time>2015-11-29T09:27:33Z</time>
      </trkpt>
      <trkpt lat="43.50826" lon="3.08566">
        <ele>312.5</ele>
        <time>2015-11-29T09:27:34Z</time>
      </trkpt>
      <trkpt lat="43.50826" lon="3.0857">
        <ele>312.5</ele>
        <time>2015-11-29T09:27:35Z</time>
      </trkpt>
      <trkpt lat="43.50827" lon="3.08573">
        <ele>312.5</ele>
        <time>2015-11-29T09:27:36Z</time>
      </trkpt>
      <trkpt lat="43.50828" lon="3.08576">
        <ele>313</ele>
        <time>2015-11-29T09:27:37Z</time>
      </trkpt>
      <trkpt lat="43.50829" lon="3.08579">
        <ele>312.5</ele>
        <time>2015-11-29T09:27:38Z</time>
      </trkpt>
      <trkpt lat="43.50829" lon="3.08582">
        <ele>313</ele>
        <time>2015-11-29T09:27:39Z</time>
      </trkpt>
      <trkpt lat="43.5083" lon="3.08584">
        <ele>313</ele>
        <time>2015-11-29T09:27:40Z</time>
      </trkpt>
      <trkpt lat="43.50831" lon="3.08587">
        <ele>313</ele>
        <time>2015-11-29T09:27:41Z</time>
      </trkpt>
      <trkpt lat="43.50833" lon="3.08589">
        <ele>313.5</ele>
        <time>2015-11-29T09:27:42Z</time>
      </trkpt>
      <trkpt lat="43.50834" lon="3.08592">
        <ele>313.5</ele>
        <time>2015-11-29T09:27:43Z</time>
      </trkpt>
      <trkpt lat="43.50835" lon="3.08594">
        <ele>314</ele>
        <time>2015-11-29T09:27:44Z</time>
      </trkpt>
      <trkpt lat="43.50837" lon="3.08596">
        <ele>314</ele>
        <time>2015-11-29T09:27:45Z</time>
      </trkpt>
      <trkpt lat="43.50838" lon="3.08598">
        <ele>315</ele>
        <time>2015-11-29T09:27:46Z</time>
      </trkpt>
      <trkpt lat="43.5084" lon="3.086">
        <ele>315.5</ele>
        <time>2015-11-29T09:27:47Z</time>
      </trkpt>
      <trkpt lat="43.50841" lon="3.08602">
        <ele>316</ele>
        <time>2015-11-29T09:27:48Z</time>
      </trkpt>
      <trkpt lat="43.50842" lon="3.08603">
        <ele>316</ele>
        <time>2015-11-29T09:27:49Z</time>
      </trkpt>
      <trkpt lat="43.50844" lon="3.08605">
        <ele>316.5</ele>
        <time>2015-11-29T09:27:50Z</time>
      </trkpt>
      <trkpt lat="43.50845" lon="3.08606">
        <ele>316.5</ele>
        <time>2015-11-29T09:27:51Z</time>
      </trkpt>
      <trkpt lat="43.50846" lon="3.08607">
        <ele>317</ele>
        <time>2015-11-29T09:27:52Z</time>
      </trkpt>
      <trkpt lat="43.50848" lon="3.08609">
        <ele>317</ele>
        <time>2015-11-29T09:27:53Z</time>
      </trkpt>
      <trkpt lat="43.50848" lon="3.08611">
        <ele>317</ele>
        <time>2015-11-29T09:27:54Z</time>
      </trkpt>
      <trkpt lat="43.50849" lon="3.08612">
        <ele>317</ele>
        <time>2015-11-29T09:27:55Z</time>
      </trkpt>
      <trkpt lat="43.5085" lon="3.08614">
        <ele>317</ele>
        <time>2015-11-29T09:27:56Z</time>
      </trkpt>
      <trkpt lat="43.5085" lon="3.08616">
        <ele>317</ele>
        <time>2015-11-29T09:27:57Z</time>
      </trkpt>
      <trkpt lat="43.50851" lon="3.08618">
        <ele>317</ele>
        <time>2015-11-29T09:27:58Z</time>
      </trkpt>
      <trkpt lat="43.5085" lon="3.0862">
        <ele>316.5</ele>
        <time>2015-11-29T09:27:59Z</time>
      </trkpt>
      <trkpt lat="43.50849" lon="3.08623">
        <ele>317.5</ele>
        <time>2015-11-29T09:28:00Z</time>
      </trkpt>
      <trkpt lat="43.50845" lon="3.08624">
        <ele>318</ele>
        <time>2015-11-29T09:28:01Z</time>
      </trkpt>
      <trkpt lat="43.50843" lon="3.08623">
        <ele>319.5</ele>
        <time>2015-11-29T09:28:02Z</time>
      </trkpt>
      <trkpt lat="43.50842" lon="3.08621">
        <ele>320</ele>
        <time>2015-11-29T09:28:03Z</time>
      </trkpt>
      <trkpt lat="43.5084" lon="3.0862">
        <ele>320</ele>
        <time>2015-11-29T09:28:04Z</time>
      </trkpt>
      <trkpt lat="43.50839" lon="3.08619">
        <ele>320</ele>
        <time>2015-11-29T09:28:05Z</time>
      </trkpt>
      <trkpt lat="43.50838" lon="3.08618">
        <ele>321</ele>
        <time>2015-11-29T09:28:06Z</time>
      </trkpt>
      <trkpt lat="43.50836" lon="3.08617">
        <ele>321</ele>
        <time>2015-11-29T09:28:07Z</time>
      </trkpt>
      <trkpt lat="43.50834" lon="3.08616">
        <ele>321</ele>
        <time>2015-11-29T09:28:08Z</time>
      </trkpt>
      <trkpt lat="43.50833" lon="3.08615">
        <ele>321.5</ele>
        <time>2015-11-29T09:28:09Z</time>
      </trkpt>
      <trkpt lat="43.50831" lon="3.08614">
        <ele>321.5</ele>
        <time>2015-11-29T09:28:10Z</time>
      </trkpt>
      <trkpt lat="43.50829" lon="3.08614">
        <ele>322</ele>
        <time>2015-11-29T09:28:11Z</time>
      </trkpt>
      <trkpt lat="43.50828" lon="3.08613">
        <ele>322</ele>
        <time>2015-11-29T09:28:12Z</time>
      </trkpt>
      <trkpt lat="43.50827" lon="3.08612">
        <ele>323</ele>
        <time>2015-11-29T09:28:13Z</time>
      </trkpt>
      <trkpt lat="43.50825" lon="3.08611">
        <ele>323.5</ele>
        <time>2015-11-29T09:28:14Z</time>
      </trkpt>
      <trkpt lat="43.50824" lon="3.0861">
        <ele>324</ele>
        <time>2015-11-29T09:28:15Z</time>
      </trkpt>
      <trkpt lat="43.50822" lon="3.08609">
        <ele>324.5</ele>
        <time>2015-11-29T09:28:16Z</time>
      </trkpt>
      <trkpt lat="43.50821" lon="3.08607">
        <ele>325</ele>
        <time>2015-11-29T09:28:17Z</time>
      </trkpt>
      <trkpt lat="43.5082" lon="3.08606">
        <ele>325.5</ele>
        <time>2015-11-29T09:28:18Z</time>
      </trkpt>
      <trkpt lat="43.50819" lon="3.08605">
        <ele>325.5</ele>
        <time>2015-11-29T09:28:19Z</time>
      </trkpt>
      <trkpt lat="43.50817" lon="3.08603">
        <ele>325.5</ele>
        <time>2015-11-29T09:28:20Z</time>
      </trkpt>
      <trkpt lat="43.50816" lon="3.08602">
        <ele>325.5</ele>
        <time>2015-11-29T09:28:21Z</time>
      </trkpt>
      <trkpt lat="43.50815" lon="3.086">
        <ele>325</ele>
        <time>2015-11-29T09:28:22Z</time>
      </trkpt>
      <trkpt lat="43.50814" lon="3.08598">
        <ele>324.5</ele>
        <time>2015-11-29T09:28:23Z</time>
      </trkpt>
      <trkpt lat="43.50813" lon="3.08597">
        <ele>324.5</ele>
        <time>2015-11-29T09:28:24Z</time>
      </trkpt>
      <trkpt lat="43.50812" lon="3.08595">
        <ele>324</ele>
        <time>2015-11-29T09:28:25Z</time>
      </trkpt>
      <trkpt lat="43.50811" lon="3.08594">
        <ele>324</ele>
        <time>2015-11-29T09:28:26Z</time>
      </trkpt>
      <trkpt lat="43.50809" lon="3.08593">
        <ele>324.5</ele>
        <time>2015-11-29T09:28:27Z</time>
      </trkpt>
      <trkpt lat="43.50808" lon="3.08592">
        <ele>324.5</ele>
        <time>2015-11-29T09:28:28Z</time>
      </trkpt>
      <trkpt lat="43.50807" lon="3.08591">
        <ele>324</ele>
        <time>2015-11-29T09:28:29Z</time>
      </trkpt>
      <trkpt lat="43.50806" lon="3.0859">
        <ele>323</ele>
        <time>2015-11-29T09:28:30Z</time>
      </trkpt>
      <trkpt lat="43.50805" lon="3.08591">
        <ele>323.5</ele>
        <time>2015-11-29T09:28:31Z</time>
      </trkpt>
      <trkpt lat="43.50804" lon="3.08592">
        <ele>323</ele>
        <time>2015-11-29T09:28:32Z</time>
      </trkpt>
      <trkpt lat="43.50803" lon="3.08594">
        <ele>322.5</ele>
        <time>2015-11-29T09:28:33Z</time>
      </trkpt>
      <trkpt lat="43.50802" lon="3.08596">
        <ele>322</ele>
        <time>2015-11-29T09:28:34Z</time>
      </trkpt>
      <trkpt lat="43.50803" lon="3.08598">
        <ele>321.5</ele>
        <time>2015-11-29T09:28:35Z</time>
      </trkpt>
      <trkpt lat="43.50804" lon="3.086">
        <ele>321.5</ele>
        <time>2015-11-29T09:28:36Z</time>
      </trkpt>
      <trkpt lat="43.50804" lon="3.08602">
        <ele>321</ele>
        <time>2015-11-29T09:28:37Z</time>
      </trkpt>
      <trkpt lat="43.50805" lon="3.08604">
        <ele>321.5</ele>
        <time>2015-11-29T09:28:38Z</time>
      </trkpt>
      <trkpt lat="43.50805" lon="3.08606">
        <ele>321.5</ele>
        <time>2015-11-29T09:28:39Z</time>
      </trkpt>
      <trkpt lat="43.50805" lon="3.08608">
        <ele>321</ele>
        <time>2015-11-29T09:28:40Z</time>
      </trkpt>
      <trkpt lat="43.50806" lon="3.08611">
        <ele>321</ele>
        <time>2015-11-29T09:28:41Z</time>
      </trkpt>
      <trkpt lat="43.50806" lon="3.08613">
        <ele>321</ele>
        <time>2015-11-29T09:28:42Z</time>
      </trkpt>
      <trkpt lat="43.50806" lon="3.08615">
        <ele>321</ele>
        <time>2015-11-29T09:28:43Z</time>
      </trkpt>
      <trkpt lat="43.50807" lon="3.08618">
        <ele>321</ele>
        <time>2015-11-29T09:28:44Z</time>
      </trkpt>
      <trkpt lat="43.50807" lon="3.0862">
        <ele>321</ele>
        <time>2015-11-29T09:28:45Z</time>
      </trkpt>
      <trkpt lat="43.50807" lon="3.08622">
        <ele>321</ele>
        <time>2015-11-29T09:28:46Z</time>
      </trkpt>
      <trkpt lat="43.50807" lon="3.08625">
        <ele>321.5</ele>
        <time>2015-11-29T09:28:47Z</time>
      </trkpt>
      <trkpt lat="43.50808" lon="3.08627">
        <ele>321.5</ele>
        <time>2015-11-29T09:28:48Z</time>
      </trkpt>
      <trkpt lat="43.50808" lon="3.0863">
        <ele>322</ele>
        <time>2015-11-29T09:28:49Z</time>
      </trkpt>
      <trkpt lat="43.50808" lon="3.08632">
        <ele>322</ele>
        <time>2015-11-29T09:28:50Z</time>
      </trkpt>
      <trkpt lat="43.50807" lon="3.08634">
        <ele>321.5</ele>
        <time>2015-11-29T09:28:51Z</time>
      </trkpt>
      <trkpt lat="43.50806" lon="3.08637">
        <ele>321.5</ele>
        <time>2015-11-29T09:28:52Z</time>
      </trkpt>
      <trkpt lat="43.50806" lon="3.0864">
        <ele>321</ele>
        <time>2015-11-29T09:28:53Z</time>
      </trkpt>
      <trkpt lat="43.50806" lon="3.08642">
        <ele>321.5</ele>
        <time>2015-11-29T09:28:54Z</time>
      </trkpt>
      <trkpt lat="43.50805" lon="3.08645">
        <ele>321.5</ele>
        <time>2015-11-29T09:28:55Z</time>
      </trkpt>
      <trkpt lat="43.50804" lon="3.08648">
        <ele>321</ele>
        <time>2015-11-29T09:28:56Z</time>
      </trkpt>
      <trkpt lat="43.50803" lon="3.0865">
        <ele>321</ele>
        <time>2015-11-29T09:28:57Z</time>
      </trkpt>
      <trkpt lat="43.50802" lon="3.08652">
        <ele>321.5</ele>
        <time>2015-11-29T09:28:58Z</time>
      </trkpt>
      <trkpt lat="43.50802" lon="3.08654">
        <ele>322</ele>
        <time>2015-11-29T09:28:59Z</time>
      </trkpt>
      <trkpt lat="43.50801" lon="3.08656">
        <ele>323</ele>
        <time>2015-11-29T09:29:00Z</time>
      </trkpt>
      <trkpt lat="43.50801" lon="3.08658">
        <ele>323.5</ele>
        <time>2015-11-29T09:29:01Z</time>
      </trkpt>
      <trkpt lat="43.50801" lon="3.0866">
        <ele>324.5</ele>
        <time>2015-11-29T09:29:02Z</time>
      </trkpt>
      <trkpt lat="43.508" lon="3.08662">
        <ele>325</ele>
        <time>2015-11-29T09:29:03Z</time>
      </trkpt>
      <trkpt lat="43.50801" lon="3.08663">
        <ele>327</ele>
        <time>2015-11-29T09:29:04Z</time>
      </trkpt>
      <trkpt lat="43.508" lon="3.08665">
        <ele>327.5</ele>
        <time>2015-11-29T09:29:05Z</time>
      </trkpt>
      <trkpt lat="43.50798" lon="3.08666">
        <ele>328</ele>
        <time>2015-11-29T09:29:06Z</time>
      </trkpt>
      <trkpt lat="43.50797" lon="3.08668">
        <ele>328</ele>
        <time>2015-11-29T09:29:07Z</time>
      </trkpt>
      <trkpt lat="43.50795" lon="3.0867">
        <ele>329</ele>
        <time>2015-11-29T09:29:08Z</time>
      </trkpt>
      <trkpt lat="43.50794" lon="3.08671">
        <ele>330</ele>
        <time>2015-11-29T09:29:09Z</time>
      </trkpt>
      <trkpt lat="43.50793" lon="3.08672">
        <ele>329.5</ele>
        <time>2015-11-29T09:29:10Z</time>
      </trkpt>
      <trkpt lat="43.50791" lon="3.08674">
        <ele>329.5</ele>
        <time>2015-11-29T09:29:11Z</time>
      </trkpt>
      <trkpt lat="43.50789" lon="3.08675">
        <ele>329</ele>
        <time>2015-11-29T09:29:12Z</time>
      </trkpt>
      <trkpt lat="43.50788" lon="3.08677">
        <ele>328.5</ele>
        <time>2015-11-29T09:29:13Z</time>
      </trkpt>
      <trkpt lat="43.50786" lon="3.08679">
        <ele>327.5</ele>
        <time>2015-11-29T09:29:14Z</time>
      </trkpt>
      <trkpt lat="43.50784" lon="3.0868">
        <ele>327.5</ele>
        <time>2015-11-29T09:29:15Z</time>
      </trkpt>
      <trkpt lat="43.50782" lon="3.08681">
        <ele>327.5</ele>
        <time>2015-11-29T09:29:16Z</time>
      </trkpt>
      <trkpt lat="43.5078" lon="3.08682">
        <ele>327.5</ele>
        <time>2015-11-29T09:29:17Z</time>
      </trkpt>
      <trkpt lat="43.50778" lon="3.08684">
        <ele>327.5</ele>
        <time>2015-11-29T09:29:18Z</time>
      </trkpt>
      <trkpt lat="43.50775" lon="3.08685">
        <ele>327.5</ele>
        <time>2015-11-29T09:29:19Z</time>
      </trkpt>
      <trkpt lat="43.50774" lon="3.08687">
        <ele>328</ele>
        <time>2015-11-29T09:29:20Z</time>
      </trkpt>
      <trkpt lat="43.50771" lon="3.08688">
        <ele>327.5</ele>
        <time>2015-11-29T09:29:21Z</time>
      </trkpt>
      <trkpt lat="43.50769" lon="3.08689">
        <ele>328</ele>
        <time>2015-11-29T09:29:22Z</time>
      </trkpt>
      <trkpt lat="43.50767" lon="3.08691">
        <ele>328.5</ele>
        <time>2015-11-29T09:29:23Z</time>
      </trkpt>
      <trkpt lat="43.50765" lon="3.08692">
        <ele>329.5</ele>
        <time>2015-11-29T09:29:24Z</time>
      </trkpt>
      <trkpt lat="43.50763" lon="3.08694">
        <ele>330.5</ele>
        <time>2015-11-29T09:29:25Z</time>
      </trkpt>
      <trkpt lat="43.50761" lon="3.08695">
        <ele>331</ele>
        <time>2015-11-29T09:29:26Z</time>
      </trkpt>
      <trkpt lat="43.50759" lon="3.08697">
        <ele>332</ele>
        <time>2015-11-29T09:29:27Z</time>
      </trkpt>
      <trkpt lat="43.50757" lon="3.08699">
        <ele>332.5</ele>
        <time>2015-11-29T09:29:28Z</time>
      </trkpt>
      <trkpt lat="43.50756" lon="3.08701">
        <ele>334</ele>
        <time>2015-11-29T09:29:29Z</time>
      </trkpt>
      <trkpt lat="43.50753" lon="3.08704">
        <ele>334</ele>
        <time>2015-11-29T09:29:30Z</time>
      </trkpt>
      <trkpt lat="43.50751" lon="3.08706">
        <ele>334.5</ele>
        <time>2015-11-29T09:29:31Z</time>
      </trkpt>
      <trkpt lat="43.50748" lon="3.08709">
        <ele>336</ele>
        <time>2015-11-29T09:29:32Z</time>
      </trkpt>
      <trkpt lat="43.50746" lon="3.0871">
        <ele>335.5</ele>
        <time>2015-11-29T09:29:33Z</time>
      </trkpt>
      <trkpt lat="43.50744" lon="3.08711">
        <ele>334.5</ele>
        <time>2015-11-29T09:29:34Z</time>
      </trkpt>
      <trkpt lat="43.50738" lon="3.08717">
        <ele>336</ele>
        <time>2015-11-29T09:29:36Z</time>
      </trkpt>
      <trkpt lat="43.50735" lon="3.08719">
        <ele>337.5</ele>
        <time>2015-11-29T09:29:37Z</time>
      </trkpt>
      <trkpt lat="43.50733" lon="3.08723">
        <ele>338</ele>
        <time>2015-11-29T09:29:38Z</time>
      </trkpt>
      <trkpt lat="43.5073" lon="3.08726">
        <ele>337</ele>
        <time>2015-11-29T09:29:39Z</time>
      </trkpt>
      <trkpt lat="43.50728" lon="3.08729">
        <ele>337</ele>
        <time>2015-11-29T09:29:40Z</time>
      </trkpt>
      <trkpt lat="43.50726" lon="3.08733">
        <ele>336</ele>
        <time>2015-11-29T09:29:41Z</time>
      </trkpt>
      <trkpt lat="43.50724" lon="3.08735">
        <ele>335.5</ele>
        <time>2015-11-29T09:29:42Z</time>
      </trkpt>
      <trkpt lat="43.50724" lon="3.08737">
        <ele>336</ele>
        <time>2015-11-29T09:29:43Z</time>
      </trkpt>
      <trkpt lat="43.50717" lon="3.08742">
        <ele>337</ele>
        <time>2015-11-29T09:29:45Z</time>
      </trkpt>
      <trkpt lat="43.50714" lon="3.08745">
        <ele>337.5</ele>
        <time>2015-11-29T09:29:46Z</time>
      </trkpt>
      <trkpt lat="43.50711" lon="3.08748">
        <ele>337.5</ele>
        <time>2015-11-29T09:29:47Z</time>
      </trkpt>
      <trkpt lat="43.50706" lon="3.0875">
        <ele>337.5</ele>
        <time>2015-11-29T09:29:48Z</time>
      </trkpt>
      <trkpt lat="43.50703" lon="3.08753">
        <ele>340</ele>
        <time>2015-11-29T09:29:49Z</time>
      </trkpt>
      <trkpt lat="43.50698" lon="3.08755">
        <ele>340</ele>
        <time>2015-11-29T09:29:50Z</time>
      </trkpt>
      <trkpt lat="43.50694" lon="3.08757">
        <ele>340</ele>
        <time>2015-11-29T09:29:51Z</time>
      </trkpt>
      <trkpt lat="43.5069" lon="3.08758">
        <ele>339.5</ele>
        <time>2015-11-29T09:29:52Z</time>
      </trkpt>
      <trkpt lat="43.50688" lon="3.0876">
        <ele>339.5</ele>
        <time>2015-11-29T09:29:53Z</time>
      </trkpt>
      <trkpt lat="43.50685" lon="3.08761">
        <ele>340.5</ele>
        <time>2015-11-29T09:29:54Z</time>
      </trkpt>
      <trkpt lat="43.50683" lon="3.08762">
        <ele>341</ele>
        <time>2015-11-29T09:29:55Z</time>
      </trkpt>
      <trkpt lat="43.5068" lon="3.08763">
        <ele>340.5</ele>
        <time>2015-11-29T09:29:56Z</time>
      </trkpt>
      <trkpt lat="43.50677" lon="3.08766">
        <ele>341.5</ele>
        <time>2015-11-29T09:29:57Z</time>
      </trkpt>
      <trkpt lat="43.50674" lon="3.08767">
        <ele>340</ele>
        <time>2015-11-29T09:29:58Z</time>
      </trkpt>
      <trkpt lat="43.50673" lon="3.08768">
        <ele>341</ele>
        <time>2015-11-29T09:29:59Z</time>
      </trkpt>
      <trkpt lat="43.50671" lon="3.0877">
        <ele>340</ele>
        <time>2015-11-29T09:30:00Z</time>
      </trkpt>
      <trkpt lat="43.50669" lon="3.08772">
        <ele>339.5</ele>
        <time>2015-11-29T09:30:01Z</time>
      </trkpt>
      <trkpt lat="43.50667" lon="3.08773">
        <ele>340.5</ele>
        <time>2015-11-29T09:30:02Z</time>
      </trkpt>
      <trkpt lat="43.50665" lon="3.08775">
        <ele>340.5</ele>
        <time>2015-11-29T09:30:03Z</time>
      </trkpt>
      <trkpt lat="43.50663" lon="3.08776">
        <ele>340</ele>
        <time>2015-11-29T09:30:04Z</time>
      </trkpt>
      <trkpt lat="43.50661" lon="3.08777">
        <ele>340.5</ele>
        <time>2015-11-29T09:30:05Z</time>
      </trkpt>
      <trkpt lat="43.5066" lon="3.08778">
        <ele>340.5</ele>
        <time>2015-11-29T09:30:06Z</time>
      </trkpt>
      <trkpt lat="43.50658" lon="3.08778">
        <ele>340</ele>
        <time>2015-11-29T09:30:07Z</time>
      </trkpt>
      <trkpt lat="43.50655" lon="3.08779">
        <ele>338</ele>
        <time>2015-11-29T09:30:08Z</time>
      </trkpt>
      <trkpt lat="43.50653" lon="3.0878">
        <ele>337.5</ele>
        <time>2015-11-29T09:30:09Z</time>
      </trkpt>
      <trkpt lat="43.50651" lon="3.0878">
        <ele>337</ele>
        <time>2015-11-29T09:30:10Z</time>
      </trkpt>
      <trkpt lat="43.50649" lon="3.08781">
        <ele>336.5</ele>
        <time>2015-11-29T09:30:11Z</time>
      </trkpt>
      <trkpt lat="43.50647" lon="3.08783">
        <ele>339.5</ele>
        <time>2015-11-29T09:30:12Z</time>
      </trkpt>
      <trkpt lat="43.50645" lon="3.08785">
        <ele>343</ele>
        <time>2015-11-29T09:30:13Z</time>
      </trkpt>
      <trkpt lat="43.50643" lon="3.08786">
        <ele>342.5</ele>
        <time>2015-11-29T09:30:14Z</time>
      </trkpt>
      <trkpt lat="43.50641" lon="3.08787">
        <ele>344</ele>
        <time>2015-11-29T09:30:15Z</time>
      </trkpt>
      <trkpt lat="43.50639" lon="3.08787">
        <ele>343</ele>
        <time>2015-11-29T09:30:16Z</time>
      </trkpt>
      <trkpt lat="43.50637" lon="3.08788">
        <ele>342</ele>
        <time>2015-11-29T09:30:17Z</time>
      </trkpt>
      <trkpt lat="43.50635" lon="3.08788">
        <ele>341.5</ele>
        <time>2015-11-29T09:30:18Z</time>
      </trkpt>
      <trkpt lat="43.50632" lon="3.08789">
        <ele>340.5</ele>
        <time>2015-11-29T09:30:19Z</time>
      </trkpt>
      <trkpt lat="43.50631" lon="3.0879">
        <ele>341</ele>
        <time>2015-11-29T09:30:20Z</time>
      </trkpt>
      <trkpt lat="43.50629" lon="3.08791">
        <ele>341</ele>
        <time>2015-11-29T09:30:21Z</time>
      </trkpt>
      <trkpt lat="43.50627" lon="3.08791">
        <ele>339.5</ele>
        <time>2015-11-29T09:30:22Z</time>
      </trkpt>
      <trkpt lat="43.50626" lon="3.08792">
        <ele>339.5</ele>
        <time>2015-11-29T09:30:23Z</time>
      </trkpt>
      <trkpt lat="43.50625" lon="3.08793">
        <ele>340</ele>
        <time>2015-11-29T09:30:24Z</time>
      </trkpt>
      <trkpt lat="43.50624" lon="3.08795">
        <ele>341</ele>
        <time>2015-11-29T09:30:25Z</time>
      </trkpt>
      <trkpt lat="43.50623" lon="3.08798">
        <ele>343</ele>
        <time>2015-11-29T09:30:26Z</time>
      </trkpt>
      <trkpt lat="43.50621" lon="3.088">
        <ele>343</ele>
        <time>2015-11-29T09:30:27Z</time>
      </trkpt>
      <trkpt lat="43.50619" lon="3.08803">
        <ele>343</ele>
        <time>2015-11-29T09:30:28Z</time>
      </trkpt>
      <trkpt lat="43.50617" lon="3.08805">
        <ele>343.5</ele>
        <time>2015-11-29T09:30:29Z</time>
      </trkpt>
      <trkpt lat="43.50615" lon="3.08808">
        <ele>343</ele>
        <time>2015-11-29T09:30:30Z</time>
      </trkpt>
      <trkpt lat="43.50613" lon="3.08811">
        <ele>343.5</ele>
        <time>2015-11-29T09:30:31Z</time>
      </trkpt>
      <trkpt lat="43.50611" lon="3.08815">
        <ele>346</ele>
        <time>2015-11-29T09:30:32Z</time>
      </trkpt>
      <trkpt lat="43.50608" lon="3.08819">
        <ele>346</ele>
        <time>2015-11-29T09:30:33Z</time>
      </trkpt>
      <trkpt lat="43.50606" lon="3.08823">
        <ele>345.5</ele>
        <time>2015-11-29T09:30:34Z</time>
      </trkpt>
      <trkpt lat="43.50604" lon="3.08826">
        <ele>346</ele>
        <time>2015-11-29T09:30:34Z</time>
      </trkpt>
      <trkpt lat="43.50602" lon="3.08829">
        <ele>345.5</ele>
        <time>2015-11-29T09:30:35Z</time>
      </trkpt>
      <trkpt lat="43.506" lon="3.08832">
        <ele>345</ele>
        <time>2015-11-29T09:30:37Z</time>
      </trkpt>
      <trkpt lat="43.50598" lon="3.08835">
        <ele>344.5</ele>
        <time>2015-11-29T09:30:37Z</time>
      </trkpt>
      <trkpt lat="43.50596" lon="3.08839">
        <ele>344.5</ele>
        <time>2015-11-29T09:30:38Z</time>
      </trkpt>
      <trkpt lat="43.50594" lon="3.08841">
        <ele>344</ele>
        <time>2015-11-29T09:30:40Z</time>
      </trkpt>
      <trkpt lat="43.50592" lon="3.08844">
        <ele>344</ele>
        <time>2015-11-29T09:30:40Z</time>
      </trkpt>
      <trkpt lat="43.5059" lon="3.08847">
        <ele>344</ele>
        <time>2015-11-29T09:30:42Z</time>
      </trkpt>
      <trkpt lat="43.50588" lon="3.0885">
        <ele>344</ele>
        <time>2015-11-29T09:30:43Z</time>
      </trkpt>
      <trkpt lat="43.50586" lon="3.08852">
        <ele>344</ele>
        <time>2015-11-29T09:30:43Z</time>
      </trkpt>
      <trkpt lat="43.50584" lon="3.08855">
        <ele>344.5</ele>
        <time>2015-11-29T09:30:44Z</time>
      </trkpt>
      <trkpt lat="43.50582" lon="3.08857">
        <ele>344.5</ele>
        <time>2015-11-29T09:30:46Z</time>
      </trkpt>
      <trkpt lat="43.50581" lon="3.08859">
        <ele>344</ele>
        <time>2015-11-29T09:30:46Z</time>
      </trkpt>
      <trkpt lat="43.50579" lon="3.08861">
        <ele>344.5</ele>
        <time>2015-11-29T09:30:47Z</time>
      </trkpt>
      <trkpt lat="43.50578" lon="3.08863">
        <ele>345</ele>
        <time>2015-11-29T09:30:48Z</time>
      </trkpt>
      <trkpt lat="43.50576" lon="3.08865">
        <ele>344</ele>
        <time>2015-11-29T09:30:49Z</time>
      </trkpt>
      <trkpt lat="43.50575" lon="3.08867">
        <ele>344</ele>
        <time>2015-11-29T09:30:50Z</time>
      </trkpt>
      <trkpt lat="43.50574" lon="3.08869">
        <ele>344.5</ele>
        <time>2015-11-29T09:30:51Z</time>
      </trkpt>
      <trkpt lat="43.50573" lon="3.08871">
        <ele>345</ele>
        <time>2015-11-29T09:30:53Z</time>
      </trkpt>
      <trkpt lat="43.50571" lon="3.08874">
        <ele>345</ele>
        <time>2015-11-29T09:30:53Z</time>
      </trkpt>
      <trkpt lat="43.5057" lon="3.08876">
        <ele>345</ele>
        <time>2015-11-29T09:30:54Z</time>
      </trkpt>
      <trkpt lat="43.50569" lon="3.08878">
        <ele>345.5</ele>
        <time>2015-11-29T09:30:55Z</time>
      </trkpt>
      <trkpt lat="43.50568" lon="3.0888">
        <ele>345.5</ele>
        <time>2015-11-29T09:30:56Z</time>
      </trkpt>
      <trkpt lat="43.50567" lon="3.08882">
        <ele>346</ele>
        <time>2015-11-29T09:30:57Z</time>
      </trkpt>
      <trkpt lat="43.50566" lon="3.08885">
        <ele>346</ele>
        <time>2015-11-29T09:30:58Z</time>
      </trkpt>
      <trkpt lat="43.50566" lon="3.08887">
        <ele>347</ele>
        <time>2015-11-29T09:30:59Z</time>
      </trkpt>
      <trkpt lat="43.50567" lon="3.08889">
        <ele>349</ele>
        <time>2015-11-29T09:31:00Z</time>
      </trkpt>
      <trkpt lat="43.50567" lon="3.08891">
        <ele>350</ele>
        <time>2015-11-29T09:31:01Z</time>
      </trkpt>
      <trkpt lat="43.50566" lon="3.08893">
        <ele>350</ele>
        <time>2015-11-29T09:31:02Z</time>
      </trkpt>
      <trkpt lat="43.50565" lon="3.08894">
        <ele>350</ele>
        <time>2015-11-29T09:31:03Z</time>
      </trkpt>
      <trkpt lat="43.50564" lon="3.08896">
        <ele>348</ele>
        <time>2015-11-29T09:31:04Z</time>
      </trkpt>
      <trkpt lat="43.50564" lon="3.08898">
        <ele>348.5</ele>
        <time>2015-11-29T09:31:05Z</time>
      </trkpt>
      <trkpt lat="43.50564" lon="3.089">
        <ele>348</ele>
        <time>2015-11-29T09:31:06Z</time>
      </trkpt>
      <trkpt lat="43.50563" lon="3.08902">
        <ele>347</ele>
        <time>2015-11-29T09:31:07Z</time>
      </trkpt>
      <trkpt lat="43.50562" lon="3.08904">
        <ele>346.5</ele>
        <time>2015-11-29T09:31:08Z</time>
      </trkpt>
      <trkpt lat="43.50562" lon="3.08906">
        <ele>346.5</ele>
        <time>2015-11-29T09:31:09Z</time>
      </trkpt>
      <trkpt lat="43.50562" lon="3.08908">
        <ele>347</ele>
        <time>2015-11-29T09:31:10Z</time>
      </trkpt>
      <trkpt lat="43.50561" lon="3.0891">
        <ele>347.5</ele>
        <time>2015-11-29T09:31:11Z</time>
      </trkpt>
      <trkpt lat="43.5056" lon="3.08912">
        <ele>347</ele>
        <time>2015-11-29T09:31:12Z</time>
      </trkpt>
      <trkpt lat="43.50559" lon="3.08914">
        <ele>348</ele>
        <time>2015-11-29T09:31:13Z</time>
      </trkpt>
      <trkpt lat="43.50558" lon="3.08916">
        <ele>348.5</ele>
        <time>2015-11-29T09:31:14Z</time>
      </trkpt>
      <trkpt lat="43.50557" lon="3.08918">
        <ele>349</ele>
        <time>2015-11-29T09:31:15Z</time>
      </trkpt>
      <trkpt lat="43.50557" lon="3.08919">
        <ele>349.5</ele>
        <time>2015-11-29T09:31:16Z</time>
      </trkpt>
      <trkpt lat="43.50556" lon="3.08921">
        <ele>350</ele>
        <time>2015-11-29T09:31:17Z</time>
      </trkpt>
      <trkpt lat="43.50555" lon="3.08923">
        <ele>350.5</ele>
        <time>2015-11-29T09:31:18Z</time>
      </trkpt>
      <trkpt lat="43.50554" lon="3.08925">
        <ele>350.5</ele>
        <time>2015-11-29T09:31:19Z</time>
      </trkpt>
      <trkpt lat="43.50553" lon="3.08926">
        <ele>351.5</ele>
        <time>2015-11-29T09:31:20Z</time>
      </trkpt>
      <trkpt lat="43.50552" lon="3.08927">
        <ele>351.5</ele>
        <time>2015-11-29T09:31:21Z</time>
      </trkpt>
      <trkpt lat="43.50552" lon="3.08929">
        <ele>352.5</ele>
        <time>2015-11-29T09:31:22Z</time>
      </trkpt>
      <trkpt lat="43.50551" lon="3.0893">
        <ele>352.5</ele>
        <time>2015-11-29T09:31:23Z</time>
      </trkpt>
      <trkpt lat="43.50551" lon="3.08932">
        <ele>352</ele>
        <time>2015-11-29T09:31:24Z</time>
      </trkpt>
      <trkpt lat="43.50549" lon="3.08933">
        <ele>352</ele>
        <time>2015-11-29T09:31:25Z</time>
      </trkpt>
      <trkpt lat="43.50548" lon="3.08935">
        <ele>352</ele>
        <time>2015-11-29T09:31:26Z</time>
      </trkpt>
      <trkpt lat="43.50546" lon="3.08936">
        <ele>352</ele>
        <time>2015-11-29T09:31:27Z</time>
      </trkpt>
      <trkpt lat="43.50545" lon="3.08938">
        <ele>352</ele>
        <time>2015-11-29T09:31:28Z</time>
      </trkpt>
      <trkpt lat="43.50544" lon="3.0894">
        <ele>352.5</ele>
        <time>2015-11-29T09:31:29Z</time>
      </trkpt>
      <trkpt lat="43.50543" lon="3.08941">
        <ele>353</ele>
        <time>2015-11-29T09:31:30Z</time>
      </trkpt>
      <trkpt lat="43.50543" lon="3.08943">
        <ele>353</ele>
        <time>2015-11-29T09:31:31Z</time>
      </trkpt>
      <trkpt lat="43.50544" lon="3.08944">
        <ele>355.5</ele>
        <time>2015-11-29T09:31:32Z</time>
      </trkpt>
      <trkpt lat="43.50544" lon="3.08945">
        <ele>356</ele>
        <time>2015-11-29T09:31:33Z</time>
      </trkpt>
      <trkpt lat="43.50542" lon="3.08947">
        <ele>356</ele>
        <time>2015-11-29T09:31:34Z</time>
      </trkpt>
      <trkpt lat="43.50541" lon="3.08948">
        <ele>356</ele>
        <time>2015-11-29T09:31:35Z</time>
      </trkpt>
      <trkpt lat="43.5054" lon="3.0895">
        <ele>356</ele>
        <time>2015-11-29T09:31:36Z</time>
      </trkpt>
      <trkpt lat="43.50539" lon="3.08951">
        <ele>355.5</ele>
        <time>2015-11-29T09:31:37Z</time>
      </trkpt>
      <trkpt lat="43.50537" lon="3.08953">
        <ele>354.5</ele>
        <time>2015-11-29T09:31:38Z</time>
      </trkpt>
      <trkpt lat="43.50536" lon="3.08954">
        <ele>354.5</ele>
        <time>2015-11-29T09:31:39Z</time>
      </trkpt>
      <trkpt lat="43.50534" lon="3.08956">
        <ele>354</ele>
        <time>2015-11-29T09:31:40Z</time>
      </trkpt>
      <trkpt lat="43.50533" lon="3.08957">
        <ele>354</ele>
        <time>2015-11-29T09:31:41Z</time>
      </trkpt>
      <trkpt lat="43.50532" lon="3.08959">
        <ele>354.5</ele>
        <time>2015-11-29T09:31:42Z</time>
      </trkpt>
      <trkpt lat="43.50531" lon="3.08961">
        <ele>354.5</ele>
        <time>2015-11-29T09:31:43Z</time>
      </trkpt>
      <trkpt lat="43.5053" lon="3.08962">
        <ele>355</ele>
        <time>2015-11-29T09:31:44Z</time>
      </trkpt>
      <trkpt lat="43.50528" lon="3.08964">
        <ele>355</ele>
        <time>2015-11-29T09:31:45Z</time>
      </trkpt>
      <trkpt lat="43.50527" lon="3.08965">
        <ele>355.5</ele>
        <time>2015-11-29T09:31:46Z</time>
      </trkpt>
      <trkpt lat="43.50526" lon="3.08967">
        <ele>355.5</ele>
        <time>2015-11-29T09:31:47Z</time>
      </trkpt>
      <trkpt lat="43.50525" lon="3.08968">
        <ele>355.5</ele>
        <time>2015-11-29T09:31:48Z</time>
      </trkpt>
      <trkpt lat="43.50523" lon="3.0897">
        <ele>355</ele>
        <time>2015-11-29T09:31:49Z</time>
      </trkpt>
      <trkpt lat="43.50522" lon="3.08972">
        <ele>354.5</ele>
        <time>2015-11-29T09:31:50Z</time>
      </trkpt>
      <trkpt lat="43.50521" lon="3.08973">
        <ele>354.5</ele>
        <time>2015-11-29T09:31:51Z</time>
      </trkpt>
      <trkpt lat="43.5052" lon="3.08975">
        <ele>354</ele>
        <time>2015-11-29T09:31:52Z</time>
      </trkpt>
      <trkpt lat="43.50519" lon="3.08977">
        <ele>354.5</ele>
        <time>2015-11-29T09:31:53Z</time>
      </trkpt>
      <trkpt lat="43.50518" lon="3.08978">
        <ele>354.5</ele>
        <time>2015-11-29T09:31:54Z</time>
      </trkpt>
      <trkpt lat="43.50516" lon="3.0898">
        <ele>354</ele>
        <time>2015-11-29T09:31:55Z</time>
      </trkpt>
      <trkpt lat="43.50515" lon="3.08981">
        <ele>354</ele>
        <time>2015-11-29T09:31:56Z</time>
      </trkpt>
      <trkpt lat="43.50513" lon="3.08982">
        <ele>353</ele>
        <time>2015-11-29T09:31:57Z</time>
      </trkpt>
      <trkpt lat="43.50511" lon="3.08984">
        <ele>352</ele>
        <time>2015-11-29T09:31:58Z</time>
      </trkpt>
      <trkpt lat="43.5051" lon="3.08985">
        <ele>352</ele>
        <time>2015-11-29T09:31:59Z</time>
      </trkpt>
      <trkpt lat="43.5051" lon="3.08987">
        <ele>353</ele>
        <time>2015-11-29T09:32:00Z</time>
      </trkpt>
      <trkpt lat="43.50508" lon="3.08988">
        <ele>352.5</ele>
        <time>2015-11-29T09:32:01Z</time>
      </trkpt>
      <trkpt lat="43.50507" lon="3.0899">
        <ele>352.5</ele>
        <time>2015-11-29T09:32:02Z</time>
      </trkpt>
      <trkpt lat="43.50505" lon="3.08992">
        <ele>352</ele>
        <time>2015-11-29T09:32:03Z</time>
      </trkpt>
      <trkpt lat="43.50505" lon="3.08993">
        <ele>352.5</ele>
        <time>2015-11-29T09:32:04Z</time>
      </trkpt>
      <trkpt lat="43.50504" lon="3.08994">
        <ele>353.5</ele>
        <time>2015-11-29T09:32:05Z</time>
      </trkpt>
      <trkpt lat="43.50503" lon="3.08995">
        <ele>353</ele>
        <time>2015-11-29T09:32:06Z</time>
      </trkpt>
      <trkpt lat="43.50503" lon="3.08996">
        <ele>353</ele>
        <time>2015-11-29T09:32:07Z</time>
      </trkpt>
      <trkpt lat="43.50502" lon="3.08997">
        <ele>353</ele>
        <time>2015-11-29T09:32:08Z</time>
      </trkpt>
      <trkpt lat="43.505" lon="3.08999">
        <ele>353</ele>
        <time>2015-11-29T09:32:09Z</time>
      </trkpt>
      <trkpt lat="43.505" lon="3.09001">
        <ele>354</ele>
        <time>2015-11-29T09:32:10Z</time>
      </trkpt>
      <trkpt lat="43.50498" lon="3.09002">
        <ele>354</ele>
        <time>2015-11-29T09:32:11Z</time>
      </trkpt>
      <trkpt lat="43.50498" lon="3.09004">
        <ele>354.5</ele>
        <time>2015-11-29T09:32:12Z</time>
      </trkpt>
      <trkpt lat="43.50498" lon="3.09006">
        <ele>355.5</ele>
        <time>2015-11-29T09:32:13Z</time>
      </trkpt>
      <trkpt lat="43.50498" lon="3.09008">
        <ele>356.5</ele>
        <time>2015-11-29T09:32:14Z</time>
      </trkpt>
      <trkpt lat="43.50497" lon="3.09009">
        <ele>358</ele>
        <time>2015-11-29T09:32:15Z</time>
      </trkpt>
      <trkpt lat="43.50496" lon="3.0901">
        <ele>358.5</ele>
        <time>2015-11-29T09:32:16Z</time>
      </trkpt>
      <trkpt lat="43.50496" lon="3.09012">
        <ele>359.5</ele>
        <time>2015-11-29T09:32:17Z</time>
      </trkpt>
      <trkpt lat="43.50495" lon="3.09013">
        <ele>360</ele>
        <time>2015-11-29T09:32:18Z</time>
      </trkpt>
      <trkpt lat="43.50493" lon="3.09015">
        <ele>359</ele>
        <time>2015-11-29T09:32:19Z</time>
      </trkpt>
      <trkpt lat="43.5049" lon="3.09018">
        <ele>357.5</ele>
        <time>2015-11-29T09:32:21Z</time>
      </trkpt>
      <trkpt lat="43.50489" lon="3.0902">
        <ele>357.5</ele>
        <time>2015-11-29T09:32:22Z</time>
      </trkpt>
      <trkpt lat="43.50488" lon="3.09022">
        <ele>359</ele>
        <time>2015-11-29T09:32:23Z</time>
      </trkpt>
      <trkpt lat="43.50487" lon="3.09024">
        <ele>360</ele>
        <time>2015-11-29T09:32:24Z</time>
      </trkpt>
      <trkpt lat="43.50487" lon="3.09026">
        <ele>362</ele>
        <time>2015-11-29T09:32:25Z</time>
      </trkpt>
      <trkpt lat="43.50487" lon="3.09028">
        <ele>363</ele>
        <time>2015-11-29T09:32:26Z</time>
      </trkpt>
      <trkpt lat="43.50486" lon="3.0903">
        <ele>363</ele>
        <time>2015-11-29T09:32:27Z</time>
      </trkpt>
      <trkpt lat="43.50484" lon="3.09031">
        <ele>363</ele>
        <time>2015-11-29T09:32:28Z</time>
      </trkpt>
      <trkpt lat="43.50482" lon="3.09032">
        <ele>362.5</ele>
        <time>2015-11-29T09:32:29Z</time>
      </trkpt>
      <trkpt lat="43.5048" lon="3.09033">
        <ele>361.5</ele>
        <time>2015-11-29T09:32:30Z</time>
      </trkpt>
      <trkpt lat="43.50478" lon="3.09033">
        <ele>360.5</ele>
        <time>2015-11-29T09:32:31Z</time>
      </trkpt>
      <trkpt lat="43.50476" lon="3.09032">
        <ele>360</ele>
        <time>2015-11-29T09:32:32Z</time>
      </trkpt>
      <trkpt lat="43.50474" lon="3.09031">
        <ele>360</ele>
        <time>2015-11-29T09:32:33Z</time>
      </trkpt>
      <trkpt lat="43.50473" lon="3.0903">
        <ele>359.5</ele>
        <time>2015-11-29T09:32:34Z</time>
      </trkpt>
      <trkpt lat="43.50472" lon="3.09029">
        <ele>361</ele>
        <time>2015-11-29T09:32:35Z</time>
      </trkpt>
      <trkpt lat="43.50472" lon="3.09027">
        <ele>361</ele>
        <time>2015-11-29T09:32:36Z</time>
      </trkpt>
      <trkpt lat="43.50472" lon="3.09025">
        <ele>361.5</ele>
        <time>2015-11-29T09:32:37Z</time>
      </trkpt>
      <trkpt lat="43.50472" lon="3.09023">
        <ele>361</ele>
        <time>2015-11-29T09:32:38Z</time>
      </trkpt>
      <trkpt lat="43.50472" lon="3.09021">
        <ele>360.5</ele>
        <time>2015-11-29T09:32:39Z</time>
      </trkpt>
      <trkpt lat="43.50473" lon="3.09019">
        <ele>360.5</ele>
        <time>2015-11-29T09:32:40Z</time>
      </trkpt>
      <trkpt lat="43.50473" lon="3.09018">
        <ele>360.5</ele>
        <time>2015-11-29T09:32:41Z</time>
      </trkpt>
      <trkpt lat="43.50474" lon="3.09016">
        <ele>361</ele>
        <time>2015-11-29T09:32:42Z</time>
      </trkpt>
      <trkpt lat="43.50474" lon="3.09014">
        <ele>360.5</ele>
        <time>2015-11-29T09:32:43Z</time>
      </trkpt>
      <trkpt lat="43.50475" lon="3.09012">
        <ele>360.5</ele>
        <time>2015-11-29T09:32:44Z</time>
      </trkpt>
      <trkpt lat="43.50476" lon="3.09011">
        <ele>360.5</ele>
        <time>2015-11-29T09:32:45Z</time>
      </trkpt>
      <trkpt lat="43.50476" lon="3.09009">
        <ele>360.5</ele>
        <time>2015-11-29T09:32:46Z</time>
      </trkpt>
      <trkpt lat="43.50476" lon="3.09007">
        <ele>360.5</ele>
        <time>2015-11-29T09:32:47Z</time>
      </trkpt>
      <trkpt lat="43.50476" lon="3.09005">
        <ele>360.5</ele>
        <time>2015-11-29T09:32:48Z</time>
      </trkpt>
      <trkpt lat="43.50477" lon="3.09003">
        <ele>360.5</ele>
        <time>2015-11-29T09:32:49Z</time>
      </trkpt>
      <trkpt lat="43.50477" lon="3.09001">
        <ele>360.5</ele>
        <time>2015-11-29T09:32:50Z</time>
      </trkpt>
      <trkpt lat="43.50477" lon="3.08999">
        <ele>360.5</ele>
        <time>2015-11-29T09:32:51Z</time>
      </trkpt>
      <trkpt lat="43.50477" lon="3.08998">
        <ele>361.5</ele>
        <time>2015-11-29T09:32:52Z</time>
      </trkpt>
      <trkpt lat="43.50477" lon="3.08996">
        <ele>362</ele>
        <time>2015-11-29T09:32:53Z</time>
      </trkpt>
      <trkpt lat="43.50477" lon="3.08994">
        <ele>363</ele>
        <time>2015-11-29T09:32:54Z</time>
      </trkpt>
      <trkpt lat="43.50477" lon="3.08992">
        <ele>364</ele>
        <time>2015-11-29T09:32:55Z</time>
      </trkpt>
      <trkpt lat="43.50476" lon="3.08991">
        <ele>365</ele>
        <time>2015-11-29T09:32:56Z</time>
      </trkpt>
      <trkpt lat="43.50476" lon="3.08988">
        <ele>365.5</ele>
        <time>2015-11-29T09:32:57Z</time>
      </trkpt>
      <trkpt lat="43.50476" lon="3.08987">
        <ele>366</ele>
        <time>2015-11-29T09:32:58Z</time>
      </trkpt>
      <trkpt lat="43.50476" lon="3.08985">
        <ele>367</ele>
        <time>2015-11-29T09:32:59Z</time>
      </trkpt>
      <trkpt lat="43.50475" lon="3.08983">
        <ele>367.5</ele>
        <time>2015-11-29T09:33:00Z</time>
      </trkpt>
      <trkpt lat="43.50475" lon="3.08981">
        <ele>368.5</ele>
        <time>2015-11-29T09:33:01Z</time>
      </trkpt>
      <trkpt lat="43.50475" lon="3.0898">
        <ele>369.5</ele>
        <time>2015-11-29T09:33:02Z</time>
      </trkpt>
      <trkpt lat="43.50475" lon="3.08978">
        <ele>370.5</ele>
        <time>2015-11-29T09:33:03Z</time>
      </trkpt>
      <trkpt lat="43.50474" lon="3.08977">
        <ele>371</ele>
        <time>2015-11-29T09:33:04Z</time>
      </trkpt>
      <trkpt lat="43.50474" lon="3.08975">
        <ele>371</ele>
        <time>2015-11-29T09:33:05Z</time>
      </trkpt>
      <trkpt lat="43.50473" lon="3.08973">
        <ele>371.5</ele>
        <time>2015-11-29T09:33:06Z</time>
      </trkpt>
      <trkpt lat="43.50472" lon="3.08972">
        <ele>372</ele>
        <time>2015-11-29T09:33:07Z</time>
      </trkpt>
      <trkpt lat="43.50472" lon="3.0897">
        <ele>372</ele>
        <time>2015-11-29T09:33:08Z</time>
      </trkpt>
      <trkpt lat="43.50471" lon="3.08968">
        <ele>372.5</ele>
        <time>2015-11-29T09:33:09Z</time>
      </trkpt>
      <trkpt lat="43.50471" lon="3.08967">
        <ele>373</ele>
        <time>2015-11-29T09:33:10Z</time>
      </trkpt>
      <trkpt lat="43.5047" lon="3.08965">
        <ele>372.5</ele>
        <time>2015-11-29T09:33:11Z</time>
      </trkpt>
      <trkpt lat="43.50469" lon="3.08963">
        <ele>372.5</ele>
        <time>2015-11-29T09:33:12Z</time>
      </trkpt>
      <trkpt lat="43.50469" lon="3.08961">
        <ele>373</ele>
        <time>2015-11-29T09:33:13Z</time>
      </trkpt>
      <trkpt lat="43.50468" lon="3.0896">
        <ele>373.5</ele>
        <time>2015-11-29T09:33:14Z</time>
      </trkpt>
      <trkpt lat="43.50467" lon="3.08958">
        <ele>374</ele>
        <time>2015-11-29T09:33:15Z</time>
      </trkpt>
      <trkpt lat="43.50466" lon="3.08957">
        <ele>374.5</ele>
        <time>2015-11-29T09:33:16Z</time>
      </trkpt>
      <trkpt lat="43.50465" lon="3.08955">
        <ele>374.5</ele>
        <time>2015-11-29T09:33:17Z</time>
      </trkpt>
      <trkpt lat="43.50464" lon="3.08954">
        <ele>374.5</ele>
        <time>2015-11-29T09:33:18Z</time>
      </trkpt>
      <trkpt lat="43.50462" lon="3.08953">
        <ele>375</ele>
        <time>2015-11-29T09:33:19Z</time>
      </trkpt>
      <trkpt lat="43.50461" lon="3.08951">
        <ele>375.5</ele>
        <time>2015-11-29T09:33:20Z</time>
      </trkpt>
      <trkpt lat="43.5046" lon="3.08949">
        <ele>375.5</ele>
        <time>2015-11-29T09:33:21Z</time>
      </trkpt>
      <trkpt lat="43.50459" lon="3.08948">
        <ele>375</ele>
        <time>2015-11-29T09:33:22Z</time>
      </trkpt>
      <trkpt lat="43.50458" lon="3.08947">
        <ele>375.5</ele>
        <time>2015-11-29T09:33:23Z</time>
      </trkpt>
      <trkpt lat="43.50457" lon="3.08946">
        <ele>376</ele>
        <time>2015-11-29T09:33:24Z</time>
      </trkpt>
      <trkpt lat="43.50455" lon="3.08945">
        <ele>376.5</ele>
        <time>2015-11-29T09:33:25Z</time>
      </trkpt>
      <trkpt lat="43.50454" lon="3.08943">
        <ele>376.5</ele>
        <time>2015-11-29T09:33:26Z</time>
      </trkpt>
      <trkpt lat="43.50453" lon="3.08942">
        <ele>376.5</ele>
        <time>2015-11-29T09:33:27Z</time>
      </trkpt>
      <trkpt lat="43.50452" lon="3.08941">
        <ele>377</ele>
        <time>2015-11-29T09:33:28Z</time>
      </trkpt>
      <trkpt lat="43.5045" lon="3.0894">
        <ele>377</ele>
        <time>2015-11-29T09:33:29Z</time>
      </trkpt>
      <trkpt lat="43.50449" lon="3.08938">
        <ele>376</ele>
        <time>2015-11-29T09:33:30Z</time>
      </trkpt>
      <trkpt lat="43.50448" lon="3.08937">
        <ele>375.5</ele>
        <time>2015-11-29T09:33:31Z</time>
      </trkpt>
      <trkpt lat="43.50446" lon="3.08936">
        <ele>375.5</ele>
        <time>2015-11-29T09:33:32Z</time>
      </trkpt>
      <trkpt lat="43.50445" lon="3.08935">
        <ele>376</ele>
        <time>2015-11-29T09:33:33Z</time>
      </trkpt>
      <trkpt lat="43.50443" lon="3.08933">
        <ele>375.5</ele>
        <time>2015-11-29T09:33:34Z</time>
      </trkpt>
      <trkpt lat="43.50442" lon="3.08932">
        <ele>375.5</ele>
        <time>2015-11-29T09:33:35Z</time>
      </trkpt>
      <trkpt lat="43.5044" lon="3.08931">
        <ele>375.5</ele>
        <time>2015-11-29T09:33:36Z</time>
      </trkpt>
      <trkpt lat="43.50439" lon="3.0893">
        <ele>376</ele>
        <time>2015-11-29T09:33:37Z</time>
      </trkpt>
      <trkpt lat="43.50437" lon="3.0893">
        <ele>376.5</ele>
        <time>2015-11-29T09:33:38Z</time>
      </trkpt>
      <trkpt lat="43.50436" lon="3.08928">
        <ele>375.5</ele>
        <time>2015-11-29T09:33:39Z</time>
      </trkpt>
      <trkpt lat="43.50435" lon="3.08927">
        <ele>375.5</ele>
        <time>2015-11-29T09:33:40Z</time>
      </trkpt>
      <trkpt lat="43.50434" lon="3.08925">
        <ele>374.5</ele>
        <time>2015-11-29T09:33:41Z</time>
      </trkpt>
      <trkpt lat="43.50433" lon="3.08925">
        <ele>374.5</ele>
        <time>2015-11-29T09:33:42Z</time>
      </trkpt>
      <trkpt lat="43.50432" lon="3.08924">
        <ele>376</ele>
        <time>2015-11-29T09:33:43Z</time>
      </trkpt>
      <trkpt lat="43.50431" lon="3.08924">
        <ele>378</ele>
        <time>2015-11-29T09:33:44Z</time>
      </trkpt>
      <trkpt lat="43.5043" lon="3.08922">
        <ele>376.5</ele>
        <time>2015-11-29T09:33:45Z</time>
      </trkpt>
      <trkpt lat="43.50428" lon="3.08921">
        <ele>375.5</ele>
        <time>2015-11-29T09:33:46Z</time>
      </trkpt>
      <trkpt lat="43.50427" lon="3.08919">
        <ele>375.5</ele>
        <time>2015-11-29T09:33:47Z</time>
      </trkpt>
      <trkpt lat="43.50426" lon="3.08918">
        <ele>376</ele>
        <time>2015-11-29T09:33:48Z</time>
      </trkpt>
      <trkpt lat="43.50425" lon="3.08917">
        <ele>375.5</ele>
        <time>2015-11-29T09:33:49Z</time>
      </trkpt>
      <trkpt lat="43.50424" lon="3.08916">
        <ele>376</ele>
        <time>2015-11-29T09:33:50Z</time>
      </trkpt>
      <trkpt lat="43.50422" lon="3.08915">
        <ele>376.5</ele>
        <time>2015-11-29T09:33:51Z</time>
      </trkpt>
      <trkpt lat="43.50421" lon="3.08914">
        <ele>376.5</ele>
        <time>2015-11-29T09:33:52Z</time>
      </trkpt>
      <trkpt lat="43.5042" lon="3.08912">
        <ele>375.5</ele>
        <time>2015-11-29T09:33:53Z</time>
      </trkpt>
      <trkpt lat="43.50418" lon="3.08911">
        <ele>375.5</ele>
        <time>2015-11-29T09:33:54Z</time>
      </trkpt>
      <trkpt lat="43.50417" lon="3.08911">
        <ele>376</ele>
        <time>2015-11-29T09:33:55Z</time>
      </trkpt>
      <trkpt lat="43.50415" lon="3.0891">
        <ele>376</ele>
        <time>2015-11-29T09:33:56Z</time>
      </trkpt>
      <trkpt lat="43.50414" lon="3.08909">
        <ele>374.5</ele>
        <time>2015-11-29T09:33:57Z</time>
      </trkpt>
      <trkpt lat="43.50413" lon="3.08908">
        <ele>374</ele>
        <time>2015-11-29T09:33:58Z</time>
      </trkpt>
      <trkpt lat="43.50411" lon="3.08907">
        <ele>373.5</ele>
        <time>2015-11-29T09:33:59Z</time>
      </trkpt>
      <trkpt lat="43.5041" lon="3.08906">
        <ele>374</ele>
        <time>2015-11-29T09:34:00Z</time>
      </trkpt>
      <trkpt lat="43.50409" lon="3.08905">
        <ele>374</ele>
        <time>2015-11-29T09:34:01Z</time>
      </trkpt>
      <trkpt lat="43.50407" lon="3.08904">
        <ele>373.5</ele>
        <time>2015-11-29T09:34:02Z</time>
      </trkpt>
      <trkpt lat="43.50406" lon="3.08903">
        <ele>374.5</ele>
        <time>2015-11-29T09:34:03Z</time>
      </trkpt>
      <trkpt lat="43.50405" lon="3.08902">
        <ele>374</ele>
        <time>2015-11-29T09:34:04Z</time>
      </trkpt>
      <trkpt lat="43.50404" lon="3.08901">
        <ele>374.5</ele>
        <time>2015-11-29T09:34:05Z</time>
      </trkpt>
      <trkpt lat="43.50402" lon="3.08901">
        <ele>375</ele>
        <time>2015-11-29T09:34:06Z</time>
      </trkpt>
      <trkpt lat="43.50401" lon="3.08899">
        <ele>374</ele>
        <time>2015-11-29T09:34:07Z</time>
      </trkpt>
      <trkpt lat="43.504" lon="3.08897">
        <ele>374</ele>
        <time>2015-11-29T09:34:08Z</time>
      </trkpt>
      <trkpt lat="43.50399" lon="3.08895">
        <ele>374</ele>
        <time>2015-11-29T09:34:09Z</time>
      </trkpt>
      <trkpt lat="43.50398" lon="3.08892">
        <ele>373.5</ele>
        <time>2015-11-29T09:34:10Z</time>
      </trkpt>
      <trkpt lat="43.50398" lon="3.0889">
        <ele>373</ele>
        <time>2015-11-29T09:34:11Z</time>
      </trkpt>
      <trkpt lat="43.50398" lon="3.08887">
        <ele>373</ele>
        <time>2015-11-29T09:34:12Z</time>
      </trkpt>
      <trkpt lat="43.50398" lon="3.08883">
        <ele>371.5</ele>
        <time>2015-11-29T09:34:13Z</time>
      </trkpt>
      <trkpt lat="43.50398" lon="3.08881">
        <ele>371.5</ele>
        <time>2015-11-29T09:34:14Z</time>
      </trkpt>
      <trkpt lat="43.50399" lon="3.08879">
        <ele>372</ele>
        <time>2015-11-29T09:34:15Z</time>
      </trkpt>
      <trkpt lat="43.50399" lon="3.08878">
        <ele>374</ele>
        <time>2015-11-29T09:34:16Z</time>
      </trkpt>
      <trkpt lat="43.50399" lon="3.08876">
        <ele>375</ele>
        <time>2015-11-29T09:34:17Z</time>
      </trkpt>
      <trkpt lat="43.50399" lon="3.08875">
        <ele>376</ele>
        <time>2015-11-29T09:34:18Z</time>
      </trkpt>
      <trkpt lat="43.50399" lon="3.08873">
        <ele>376.5</ele>
        <time>2015-11-29T09:34:18Z</time>
      </trkpt>
      <trkpt lat="43.50399" lon="3.08871">
        <ele>377.5</ele>
        <time>2015-11-29T09:34:20Z</time>
      </trkpt>
      <trkpt lat="43.504" lon="3.08869">
        <ele>377.5</ele>
        <time>2015-11-29T09:34:21Z</time>
      </trkpt>
      <trkpt lat="43.504" lon="3.08868">
        <ele>377.5</ele>
        <time>2015-11-29T09:34:21Z</time>
      </trkpt>
      <trkpt lat="43.504" lon="3.08866">
        <ele>378</ele>
        <time>2015-11-29T09:34:22Z</time>
      </trkpt>
      <trkpt lat="43.504" lon="3.08864">
        <ele>378.5</ele>
        <time>2015-11-29T09:34:23Z</time>
      </trkpt>
      <trkpt lat="43.504" lon="3.08862">
        <ele>379</ele>
        <time>2015-11-29T09:34:25Z</time>
      </trkpt>
      <trkpt lat="43.504" lon="3.0886">
        <ele>379</ele>
        <time>2015-11-29T09:34:25Z</time>
      </trkpt>
      <trkpt lat="43.504" lon="3.08858">
        <ele>379.5</ele>
        <time>2015-11-29T09:34:26Z</time>
      </trkpt>
      <trkpt lat="43.504" lon="3.08855">
        <ele>380</ele>
        <time>2015-11-29T09:34:27Z</time>
      </trkpt>
      <trkpt lat="43.50399" lon="3.08853">
        <ele>379.5</ele>
        <time>2015-11-29T09:34:28Z</time>
      </trkpt>
      <trkpt lat="43.50399" lon="3.0885">
        <ele>379.5</ele>
        <time>2015-11-29T09:34:29Z</time>
      </trkpt>
      <trkpt lat="43.50398" lon="3.08848">
        <ele>380</ele>
        <time>2015-11-29T09:34:30Z</time>
      </trkpt>
      <trkpt lat="43.50398" lon="3.08846">
        <ele>380.5</ele>
        <time>2015-11-29T09:34:31Z</time>
      </trkpt>
      <trkpt lat="43.50398" lon="3.08843">
        <ele>381</ele>
        <time>2015-11-29T09:34:32Z</time>
      </trkpt>
      <trkpt lat="43.50398" lon="3.0884">
        <ele>380.5</ele>
        <time>2015-11-29T09:34:33Z</time>
      </trkpt>
      <trkpt lat="43.50397" lon="3.08839">
        <ele>381</ele>
        <time>2015-11-29T09:34:34Z</time>
      </trkpt>
      <trkpt lat="43.50397" lon="3.08836">
        <ele>381.5</ele>
        <time>2015-11-29T09:34:35Z</time>
      </trkpt>
      <trkpt lat="43.50397" lon="3.08834">
        <ele>382</ele>
        <time>2015-11-29T09:34:36Z</time>
      </trkpt>
      <trkpt lat="43.50396" lon="3.08832">
        <ele>382</ele>
        <time>2015-11-29T09:34:37Z</time>
      </trkpt>
      <trkpt lat="43.50396" lon="3.0883">
        <ele>382</ele>
        <time>2015-11-29T09:34:38Z</time>
      </trkpt>
      <trkpt lat="43.50395" lon="3.08828">
        <ele>382</ele>
        <time>2015-11-29T09:34:39Z</time>
      </trkpt>
      <trkpt lat="43.50395" lon="3.08826">
        <ele>381</ele>
        <time>2015-11-29T09:34:40Z</time>
      </trkpt>
      <trkpt lat="43.50395" lon="3.08824">
        <ele>381</ele>
        <time>2015-11-29T09:34:41Z</time>
      </trkpt>
      <trkpt lat="43.50395" lon="3.08821">
        <ele>379.5</ele>
        <time>2015-11-29T09:34:42Z</time>
      </trkpt>
      <trkpt lat="43.50394" lon="3.08819">
        <ele>379.5</ele>
        <time>2015-11-29T09:34:43Z</time>
      </trkpt>
      <trkpt lat="43.50393" lon="3.08817">
        <ele>380.5</ele>
        <time>2015-11-29T09:34:45Z</time>
      </trkpt>
      <trkpt lat="43.50392" lon="3.08816">
        <ele>381</ele>
        <time>2015-11-29T09:34:45Z</time>
      </trkpt>
      <trkpt lat="43.50391" lon="3.08814">
        <ele>382</ele>
        <time>2015-11-29T09:34:46Z</time>
      </trkpt>
      <trkpt lat="43.5039" lon="3.08813">
        <ele>382.5</ele>
        <time>2015-11-29T09:34:47Z</time>
      </trkpt>
      <trkpt lat="43.5039" lon="3.08811">
        <ele>382.5</ele>
        <time>2015-11-29T09:34:49Z</time>
      </trkpt>
      <trkpt lat="43.50389" lon="3.08808">
        <ele>381.5</ele>
        <time>2015-11-29T09:34:49Z</time>
      </trkpt>
      <trkpt lat="43.50388" lon="3.08807">
        <ele>381.5</ele>
        <time>2015-11-29T09:34:50Z</time>
      </trkpt>
      <trkpt lat="43.50386" lon="3.08806">
        <ele>382.5</ele>
        <time>2015-11-29T09:34:51Z</time>
      </trkpt>
      <trkpt lat="43.50385" lon="3.08804">
        <ele>383</ele>
        <time>2015-11-29T09:34:52Z</time>
      </trkpt>
      <trkpt lat="43.50384" lon="3.08803">
        <ele>383.5</ele>
        <time>2015-11-29T09:34:53Z</time>
      </trkpt>
      <trkpt lat="43.50383" lon="3.08801">
        <ele>384</ele>
        <time>2015-11-29T09:34:54Z</time>
      </trkpt>
      <trkpt lat="43.50381" lon="3.08799">
        <ele>384.5</ele>
        <time>2015-11-29T09:34:55Z</time>
      </trkpt>
      <trkpt lat="43.5038" lon="3.08797">
        <ele>384</ele>
        <time>2015-11-29T09:34:57Z</time>
      </trkpt>
      <trkpt lat="43.50379" lon="3.08795">
        <ele>384.5</ele>
        <time>2015-11-29T09:34:57Z</time>
      </trkpt>
      <trkpt lat="43.50378" lon="3.08794">
        <ele>384.5</ele>
        <time>2015-11-29T09:34:58Z</time>
      </trkpt>
      <trkpt lat="43.50377" lon="3.08792">
        <ele>385</ele>
        <time>2015-11-29T09:34:59Z</time>
      </trkpt>
      <trkpt lat="43.50375" lon="3.0879">
        <ele>385</ele>
        <time>2015-11-29T09:35:00Z</time>
      </trkpt>
      <trkpt lat="43.50374" lon="3.08788">
        <ele>385</ele>
        <time>2015-11-29T09:35:01Z</time>
      </trkpt>
      <trkpt lat="43.50373" lon="3.08786">
        <ele>385</ele>
        <time>2015-11-29T09:35:02Z</time>
      </trkpt>
      <trkpt lat="43.50371" lon="3.08786">
        <ele>386.5</ele>
        <time>2015-11-29T09:35:03Z</time>
      </trkpt>
      <trkpt lat="43.50369" lon="3.08785">
        <ele>386.5</ele>
        <time>2015-11-29T09:35:04Z</time>
      </trkpt>
      <trkpt lat="43.50368" lon="3.08783">
        <ele>386.5</ele>
        <time>2015-11-29T09:35:05Z</time>
      </trkpt>
      <trkpt lat="43.50366" lon="3.08783">
        <ele>388</ele>
        <time>2015-11-29T09:35:06Z</time>
      </trkpt>
      <trkpt lat="43.50364" lon="3.08784">
        <ele>388.5</ele>
        <time>2015-11-29T09:35:07Z</time>
      </trkpt>
      <trkpt lat="43.50363" lon="3.08784">
        <ele>389</ele>
        <time>2015-11-29T09:35:08Z</time>
      </trkpt>
      <trkpt lat="43.50361" lon="3.08786">
        <ele>389.5</ele>
        <time>2015-11-29T09:35:09Z</time>
      </trkpt>
      <trkpt lat="43.5036" lon="3.08787">
        <ele>389</ele>
        <time>2015-11-29T09:35:10Z</time>
      </trkpt>
      <trkpt lat="43.50359" lon="3.08788">
        <ele>388.5</ele>
        <time>2015-11-29T09:35:11Z</time>
      </trkpt>
      <trkpt lat="43.50358" lon="3.08789">
        <ele>387.5</ele>
        <time>2015-11-29T09:35:13Z</time>
      </trkpt>
      <trkpt lat="43.50357" lon="3.0879">
        <ele>387</ele>
        <time>2015-11-29T09:35:13Z</time>
      </trkpt>
      <trkpt lat="43.50357" lon="3.08792">
        <ele>386</ele>
        <time>2015-11-29T09:35:14Z</time>
      </trkpt>
      <trkpt lat="43.50355" lon="3.08793">
        <ele>385.5</ele>
        <time>2015-11-29T09:35:15Z</time>
      </trkpt>
      <trkpt lat="43.50354" lon="3.08794">
        <ele>385</ele>
        <time>2015-11-29T09:35:16Z</time>
      </trkpt>
      <trkpt lat="43.50354" lon="3.08795">
        <ele>384.5</ele>
        <time>2015-11-29T09:35:17Z</time>
      </trkpt>
      <trkpt lat="43.50353" lon="3.08796">
        <ele>384.5</ele>
        <time>2015-11-29T09:35:18Z</time>
      </trkpt>
      <trkpt lat="43.50354" lon="3.08798">
        <ele>386</ele>
        <time>2015-11-29T09:35:19Z</time>
      </trkpt>
      <trkpt lat="43.50353" lon="3.08799">
        <ele>386.5</ele>
        <time>2015-11-29T09:35:20Z</time>
      </trkpt>
      <trkpt lat="43.50352" lon="3.088">
        <ele>386.5</ele>
        <time>2015-11-29T09:35:21Z</time>
      </trkpt>
      <trkpt lat="43.50352" lon="3.08801">
        <ele>387</ele>
        <time>2015-11-29T09:35:22Z</time>
      </trkpt>
      <trkpt lat="43.50352" lon="3.08802">
        <ele>387.5</ele>
        <time>2015-11-29T09:35:23Z</time>
      </trkpt>
      <trkpt lat="43.50351" lon="3.08804">
        <ele>388</ele>
        <time>2015-11-29T09:35:24Z</time>
      </trkpt>
      <trkpt lat="43.50351" lon="3.08804">
        <ele>388</ele>
        <time>2015-11-29T09:35:25Z</time>
      </trkpt>
      <trkpt lat="43.5035" lon="3.08805">
        <ele>388</ele>
        <time>2015-11-29T09:35:26Z</time>
      </trkpt>
      <trkpt lat="43.5035" lon="3.08805">
        <ele>388</ele>
        <time>2015-11-29T09:35:27Z</time>
      </trkpt>
      <trkpt lat="43.50349" lon="3.08806">
        <ele>387</ele>
        <time>2015-11-29T09:35:09Z</time>
      </trkpt>
      <trkpt lat="43.50348" lon="3.08807">
        <ele>387</ele>
        <time>2015-11-29T09:35:11Z</time>
      </trkpt>
      <trkpt lat="43.50346" lon="3.08809">
        <ele>387.5</ele>
        <time>2015-11-29T09:35:12Z</time>
      </trkpt>
      <trkpt lat="43.50345" lon="3.0881">
        <ele>387.5</ele>
        <time>2015-11-29T09:35:13Z</time>
      </trkpt>
      <trkpt lat="43.50344" lon="3.08812">
        <ele>388</ele>
        <time>2015-11-29T09:35:14Z</time>
      </trkpt>
      <trkpt lat="43.50343" lon="3.08814">
        <ele>388</ele>
        <time>2015-11-29T09:35:15Z</time>
      </trkpt>
      <trkpt lat="43.50341" lon="3.08816">
        <ele>388.5</ele>
        <time>2015-11-29T09:35:16Z</time>
      </trkpt>
      <trkpt lat="43.5034" lon="3.08818">
        <ele>389</ele>
        <time>2015-11-29T09:35:17Z</time>
      </trkpt>
      <trkpt lat="43.50338" lon="3.08821">
        <ele>389</ele>
        <time>2015-11-29T09:35:18Z</time>
      </trkpt>
      <trkpt lat="43.50335" lon="3.08824">
        <ele>388.5</ele>
        <time>2015-11-29T09:35:19Z</time>
      </trkpt>
      <trkpt lat="43.50332" lon="3.08828">
        <ele>388</ele>
        <time>2015-11-29T09:35:20Z</time>
      </trkpt>
      <trkpt lat="43.50328" lon="3.08832">
        <ele>388</ele>
        <time>2015-11-29T09:35:21Z</time>
      </trkpt>
      <trkpt lat="43.50324" lon="3.08836">
        <ele>388.5</ele>
        <time>2015-11-29T09:35:22Z</time>
      </trkpt>
      <trkpt lat="43.50317" lon="3.08838">
        <ele>388.5</ele>
        <time>2015-11-29T09:35:23Z</time>
      </trkpt>
      <trkpt lat="43.50311" lon="3.08838">
        <ele>389</ele>
        <time>2015-11-29T09:35:24Z</time>
      </trkpt>
      <trkpt lat="43.50305" lon="3.08836">
        <ele>388.5</ele>
        <time>2015-11-29T09:35:25Z</time>
      </trkpt>
      <trkpt lat="43.50299" lon="3.08833">
        <ele>388</ele>
        <time>2015-11-29T09:35:26Z</time>
      </trkpt>
      <trkpt lat="43.50294" lon="3.08831">
        <ele>388</ele>
        <time>2015-11-29T09:35:27Z</time>
      </trkpt>
      <trkpt lat="43.50288" lon="3.0883">
        <ele>386</ele>
        <time>2015-11-29T09:35:28Z</time>
      </trkpt>
      <trkpt lat="43.50282" lon="3.08829">
        <ele>385.5</ele>
        <time>2015-11-29T09:35:29Z</time>
      </trkpt>
      <trkpt lat="43.50276" lon="3.08831">
        <ele>386</ele>
        <time>2015-11-29T09:35:30Z</time>
      </trkpt>
      <trkpt lat="43.5027" lon="3.08833">
        <ele>385.5</ele>
        <time>2015-11-29T09:35:31Z</time>
      </trkpt>
      <trkpt lat="43.50264" lon="3.08834">
        <ele>386</ele>
        <time>2015-11-29T09:35:32Z</time>
      </trkpt>
      <trkpt lat="43.50259" lon="3.08834">
        <ele>385.5</ele>
        <time>2015-11-29T09:35:33Z</time>
      </trkpt>
      <trkpt lat="43.50253" lon="3.08836">
        <ele>385.5</ele>
        <time>2015-11-29T09:35:34Z</time>
      </trkpt>
      <trkpt lat="43.50248" lon="3.08837">
        <ele>386.5</ele>
        <time>2015-11-29T09:35:35Z</time>
      </trkpt>
      <trkpt lat="43.50242" lon="3.08838">
        <ele>386</ele>
        <time>2015-11-29T09:35:36Z</time>
      </trkpt>
      <trkpt lat="43.50238" lon="3.0884">
        <ele>386.5</ele>
        <time>2015-11-29T09:35:36Z</time>
      </trkpt>
      <trkpt lat="43.50233" lon="3.08841">
        <ele>386</ele>
        <time>2015-11-29T09:35:37Z</time>
      </trkpt>
      <trkpt lat="43.5023" lon="3.08844">
        <ele>386</ele>
        <time>2015-11-29T09:35:38Z</time>
      </trkpt>
      <trkpt lat="43.50227" lon="3.08846">
        <ele>386.5</ele>
        <time>2015-11-29T09:35:39Z</time>
      </trkpt>
      <trkpt lat="43.50225" lon="3.08847">
        <ele>386.5</ele>
        <time>2015-11-29T09:35:40Z</time>
      </trkpt>
      <trkpt lat="43.50223" lon="3.08849">
        <ele>386.5</ele>
        <time>2015-11-29T09:35:41Z</time>
      </trkpt>
      <trkpt lat="43.50221" lon="3.0885">
        <ele>386.5</ele>
        <time>2015-11-29T09:35:42Z</time>
      </trkpt>
      <trkpt lat="43.50219" lon="3.08852">
        <ele>385.5</ele>
        <time>2015-11-29T09:35:43Z</time>
      </trkpt>
      <trkpt lat="43.50217" lon="3.08854">
        <ele>384.5</ele>
        <time>2015-11-29T09:35:44Z</time>
      </trkpt>
      <trkpt lat="43.50215" lon="3.08855">
        <ele>383.5</ele>
        <time>2015-11-29T09:35:45Z</time>
      </trkpt>
      <trkpt lat="43.50213" lon="3.08857">
        <ele>383.5</ele>
        <time>2015-11-29T09:35:46Z</time>
      </trkpt>
      <trkpt lat="43.50212" lon="3.08858">
        <ele>383</ele>
        <time>2015-11-29T09:35:47Z</time>
      </trkpt>
      <trkpt lat="43.5021" lon="3.0886">
        <ele>383</ele>
        <time>2015-11-29T09:35:49Z</time>
      </trkpt>
      <trkpt lat="43.50209" lon="3.08862">
        <ele>383</ele>
        <time>2015-11-29T09:35:49Z</time>
      </trkpt>
      <trkpt lat="43.50207" lon="3.08863">
        <ele>383</ele>
        <time>2015-11-29T09:35:50Z</time>
      </trkpt>
      <trkpt lat="43.50205" lon="3.08865">
        <ele>382.5</ele>
        <time>2015-11-29T09:35:51Z</time>
      </trkpt>
      <trkpt lat="43.50204" lon="3.08867">
        <ele>383</ele>
        <time>2015-11-29T09:35:52Z</time>
      </trkpt>
      <trkpt lat="43.50203" lon="3.08869">
        <ele>383.5</ele>
        <time>2015-11-29T09:35:53Z</time>
      </trkpt>
      <trkpt lat="43.50201" lon="3.08871">
        <ele>383.5</ele>
        <time>2015-11-29T09:35:55Z</time>
      </trkpt>
      <trkpt lat="43.502" lon="3.08872">
        <ele>384.5</ele>
        <time>2015-11-29T09:35:55Z</time>
      </trkpt>
      <trkpt lat="43.50199" lon="3.08874">
        <ele>385.5</ele>
        <time>2015-11-29T09:35:56Z</time>
      </trkpt>
      <trkpt lat="43.50198" lon="3.08875">
        <ele>386</ele>
        <time>2015-11-29T09:35:57Z</time>
      </trkpt>
      <trkpt lat="43.50197" lon="3.08876">
        <ele>385.5</ele>
        <time>2015-11-29T09:35:58Z</time>
      </trkpt>
      <trkpt lat="43.50196" lon="3.08877">
        <ele>386</ele>
        <time>2015-11-29T09:35:59Z</time>
      </trkpt>
      <trkpt lat="43.50196" lon="3.08877">
        <ele>385</ele>
        <time>2015-11-29T09:36:01Z</time>
      </trkpt>
      <trkpt lat="43.50196" lon="3.08878">
        <ele>388</ele>
        <time>2015-11-29T09:35:42Z</time>
      </trkpt>
      <trkpt lat="43.50195" lon="3.08878">
        <ele>386.5</ele>
        <time>2015-11-29T09:35:44Z</time>
      </trkpt>
      <trkpt lat="43.50195" lon="3.08878">
        <ele>385</ele>
        <time>2015-11-29T09:35:48Z</time>
      </trkpt>
      <trkpt lat="43.50195" lon="3.08879">
        <ele>386.5</ele>
        <time>2015-11-29T09:35:53Z</time>
      </trkpt>
      <trkpt lat="43.50194" lon="3.0888">
        <ele>387</ele>
        <time>2015-11-29T09:35:56Z</time>
      </trkpt>
      <trkpt lat="43.50194" lon="3.0888">
        <ele>387</ele>
        <time>2015-11-29T09:35:58Z</time>
      </trkpt>
      <trkpt lat="43.50194" lon="3.0888">
        <ele>387</ele>
        <time>2015-11-29T09:35:59Z</time>
      </trkpt>
      <trkpt lat="43.50194" lon="3.08879">
        <ele>384.5</ele>
        <time>2015-11-29T09:36:14Z</time>
      </trkpt>
      <trkpt lat="43.50195" lon="3.08878">
        <ele>384</ele>
        <time>2015-11-29T09:36:16Z</time>
      </trkpt>
      <trkpt lat="43.50196" lon="3.08877">
        <ele>383.5</ele>
        <time>2015-11-29T09:36:17Z</time>
      </trkpt>
      <trkpt lat="43.50197" lon="3.08876">
        <ele>383.5</ele>
        <time>2015-11-29T09:36:18Z</time>
      </trkpt>
      <trkpt lat="43.50197" lon="3.08875">
        <ele>383.5</ele>
        <time>2015-11-29T09:36:19Z</time>
      </trkpt>
      <trkpt lat="43.50198" lon="3.08873">
        <ele>383</ele>
        <time>2015-11-29T09:36:20Z</time>
      </trkpt>
      <trkpt lat="43.50198" lon="3.08872">
        <ele>383</ele>
        <time>2015-11-29T09:36:21Z</time>
      </trkpt>
      <trkpt lat="43.50199" lon="3.08871">
        <ele>383</ele>
        <time>2015-11-29T09:36:22Z</time>
      </trkpt>
      <trkpt lat="43.502" lon="3.08869">
        <ele>382.5</ele>
        <time>2015-11-29T09:36:23Z</time>
      </trkpt>
      <trkpt lat="43.50201" lon="3.08867">
        <ele>382.5</ele>
        <time>2015-11-29T09:36:24Z</time>
      </trkpt>
      <trkpt lat="43.50203" lon="3.08866">
        <ele>381.5</ele>
        <time>2015-11-29T09:36:25Z</time>
      </trkpt>
      <trkpt lat="43.50204" lon="3.08864">
        <ele>381</ele>
        <time>2015-11-29T09:36:26Z</time>
      </trkpt>
      <trkpt lat="43.50205" lon="3.08862">
        <ele>381</ele>
        <time>2015-11-29T09:36:27Z</time>
      </trkpt>
      <trkpt lat="43.50207" lon="3.0886">
        <ele>380.5</ele>
        <time>2015-11-29T09:36:28Z</time>
      </trkpt>
      <trkpt lat="43.50209" lon="3.08857">
        <ele>380</ele>
        <time>2015-11-29T09:36:29Z</time>
      </trkpt>
      <trkpt lat="43.50212" lon="3.08854">
        <ele>379.5</ele>
        <time>2015-11-29T09:36:30Z</time>
      </trkpt>
      <trkpt lat="43.50216" lon="3.08851">
        <ele>378.5</ele>
        <time>2015-11-29T09:36:31Z</time>
      </trkpt>
      <trkpt lat="43.5022" lon="3.08848">
        <ele>378.5</ele>
        <time>2015-11-29T09:36:32Z</time>
      </trkpt>
      <trkpt lat="43.50224" lon="3.08845">
        <ele>378</ele>
        <time>2015-11-29T09:36:33Z</time>
      </trkpt>
      <trkpt lat="43.50229" lon="3.08841">
        <ele>378</ele>
        <time>2015-11-29T09:36:34Z</time>
      </trkpt>
      <trkpt lat="43.50234" lon="3.08839">
        <ele>377.5</ele>
        <time>2015-11-29T09:36:35Z</time>
      </trkpt>
      <trkpt lat="43.50239" lon="3.08837">
        <ele>377.5</ele>
        <time>2015-11-29T09:36:36Z</time>
      </trkpt>
      <trkpt lat="43.50244" lon="3.08836">
        <ele>377</ele>
        <time>2015-11-29T09:36:37Z</time>
      </trkpt>
      <trkpt lat="43.50249" lon="3.08836">
        <ele>377.5</ele>
        <time>2015-11-29T09:36:38Z</time>
      </trkpt>
      <trkpt lat="43.50253" lon="3.08835">
        <ele>377.5</ele>
        <time>2015-11-29T09:36:39Z</time>
      </trkpt>
      <trkpt lat="43.50257" lon="3.08834">
        <ele>378</ele>
        <time>2015-11-29T09:36:40Z</time>
      </trkpt>
      <trkpt lat="43.50261" lon="3.08834">
        <ele>378</ele>
        <time>2015-11-29T09:36:41Z</time>
      </trkpt>
      <trkpt lat="43.50265" lon="3.08834">
        <ele>378.5</ele>
        <time>2015-11-29T09:36:42Z</time>
      </trkpt>
      <trkpt lat="43.50269" lon="3.08833">
        <ele>379</ele>
        <time>2015-11-29T09:36:43Z</time>
      </trkpt>
      <trkpt lat="43.50272" lon="3.08832">
        <ele>379</ele>
        <time>2015-11-29T09:36:44Z</time>
      </trkpt>
      <trkpt lat="43.50276" lon="3.08831">
        <ele>379.5</ele>
        <time>2015-11-29T09:36:45Z</time>
      </trkpt>
      <trkpt lat="43.50279" lon="3.0883">
        <ele>380</ele>
        <time>2015-11-29T09:36:46Z</time>
      </trkpt>
      <trkpt lat="43.50283" lon="3.08829">
        <ele>380.5</ele>
        <time>2015-11-29T09:36:47Z</time>
      </trkpt>
      <trkpt lat="43.50287" lon="3.0883">
        <ele>381</ele>
        <time>2015-11-29T09:36:48Z</time>
      </trkpt>
      <trkpt lat="43.50291" lon="3.0883">
        <ele>381</ele>
        <time>2015-11-29T09:36:49Z</time>
      </trkpt>
      <trkpt lat="43.50294" lon="3.08832">
        <ele>381.5</ele>
        <time>2015-11-29T09:36:50Z</time>
      </trkpt>
      <trkpt lat="43.50297" lon="3.08833">
        <ele>381.5</ele>
        <time>2015-11-29T09:36:51Z</time>
      </trkpt>
      <trkpt lat="43.503" lon="3.08834">
        <ele>382</ele>
        <time>2015-11-29T09:36:52Z</time>
      </trkpt>
      <trkpt lat="43.50302" lon="3.08836">
        <ele>382</ele>
        <time>2015-11-29T09:36:53Z</time>
      </trkpt>
      <trkpt lat="43.50305" lon="3.08838">
        <ele>382</ele>
        <time>2015-11-29T09:36:54Z</time>
      </trkpt>
      <trkpt lat="43.50308" lon="3.08838">
        <ele>382</ele>
        <time>2015-11-29T09:36:55Z</time>
      </trkpt>
      <trkpt lat="43.50311" lon="3.08839">
        <ele>382</ele>
        <time>2015-11-29T09:36:56Z</time>
      </trkpt>
      <trkpt lat="43.50314" lon="3.08839">
        <ele>382</ele>
        <time>2015-11-29T09:36:57Z</time>
      </trkpt>
      <trkpt lat="43.50317" lon="3.08838">
        <ele>382.5</ele>
        <time>2015-11-29T09:36:58Z</time>
      </trkpt>
      <trkpt lat="43.50319" lon="3.08837">
        <ele>382.5</ele>
        <time>2015-11-29T09:36:59Z</time>
      </trkpt>
      <trkpt lat="43.50322" lon="3.08834">
        <ele>382.5</ele>
        <time>2015-11-29T09:37:00Z</time>
      </trkpt>
      <trkpt lat="43.50324" lon="3.08832">
        <ele>383</ele>
        <time>2015-11-29T09:37:01Z</time>
      </trkpt>
      <trkpt lat="43.50325" lon="3.0883">
        <ele>383.5</ele>
        <time>2015-11-29T09:37:02Z</time>
      </trkpt>
      <trkpt lat="43.50326" lon="3.08828">
        <ele>384</ele>
        <time>2015-11-29T09:37:03Z</time>
      </trkpt>
      <trkpt lat="43.50327" lon="3.08826">
        <ele>384</ele>
        <time>2015-11-29T09:37:04Z</time>
      </trkpt>
      <trkpt lat="43.50328" lon="3.08824">
        <ele>384.5</ele>
        <time>2015-11-29T09:37:05Z</time>
      </trkpt>
      <trkpt lat="43.50329" lon="3.08822">
        <ele>385</ele>
        <time>2015-11-29T09:37:06Z</time>
      </trkpt>
      <trkpt lat="43.5033" lon="3.0882">
        <ele>385.5</ele>
        <time>2015-11-29T09:37:07Z</time>
      </trkpt>
      <trkpt lat="43.50331" lon="3.08819">
        <ele>386</ele>
        <time>2015-11-29T09:37:08Z</time>
      </trkpt>
      <trkpt lat="43.50332" lon="3.08817">
        <ele>386.5</ele>
        <time>2015-11-29T09:37:09Z</time>
      </trkpt>
      <trkpt lat="43.50333" lon="3.08815">
        <ele>386.5</ele>
        <time>2015-11-29T09:37:10Z</time>
      </trkpt>
      <trkpt lat="43.50334" lon="3.08813">
        <ele>387</ele>
        <time>2015-11-29T09:37:10Z</time>
      </trkpt>
      <trkpt lat="43.50335" lon="3.08812">
        <ele>387</ele>
        <time>2015-11-29T09:37:11Z</time>
      </trkpt>
      <trkpt lat="43.50336" lon="3.0881">
        <ele>387.5</ele>
        <time>2015-11-29T09:37:13Z</time>
      </trkpt>
      <trkpt lat="43.50337" lon="3.08808">
        <ele>387.5</ele>
        <time>2015-11-29T09:37:14Z</time>
      </trkpt>
      <trkpt lat="43.50339" lon="3.08806">
        <ele>387.5</ele>
        <time>2015-11-29T09:37:14Z</time>
      </trkpt>
      <trkpt lat="43.5034" lon="3.08804">
        <ele>388</ele>
        <time>2015-11-29T09:37:15Z</time>
      </trkpt>
      <trkpt lat="43.50342" lon="3.08802">
        <ele>388</ele>
        <time>2015-11-29T09:37:17Z</time>
      </trkpt>
      <trkpt lat="43.50343" lon="3.088">
        <ele>388</ele>
        <time>2015-11-29T09:37:17Z</time>
      </trkpt>
      <trkpt lat="43.50344" lon="3.08798">
        <ele>388</ele>
        <time>2015-11-29T09:37:18Z</time>
      </trkpt>
      <trkpt lat="43.50345" lon="3.08796">
        <ele>388</ele>
        <time>2015-11-29T09:37:19Z</time>
      </trkpt>
      <trkpt lat="43.50346" lon="3.08793">
        <ele>388</ele>
        <time>2015-11-29T09:37:20Z</time>
      </trkpt>
      <trkpt lat="43.50347" lon="3.0879">
        <ele>387.5</ele>
        <time>2015-11-29T09:37:21Z</time>
      </trkpt>
      <trkpt lat="43.50348" lon="3.08788">
        <ele>387.5</ele>
        <time>2015-11-29T09:37:22Z</time>
      </trkpt>
      <trkpt lat="43.50348" lon="3.08786">
        <ele>387.5</ele>
        <time>2015-11-29T09:37:23Z</time>
      </trkpt>
      <trkpt lat="43.50349" lon="3.08784">
        <ele>387</ele>
        <time>2015-11-29T09:37:24Z</time>
      </trkpt>
      <trkpt lat="43.50348" lon="3.08783">
        <ele>387.5</ele>
        <time>2015-11-29T09:37:26Z</time>
      </trkpt>
      <trkpt lat="43.50348" lon="3.08782">
        <ele>387.5</ele>
        <time>2015-11-29T09:37:26Z</time>
      </trkpt>
      <trkpt lat="43.50347" lon="3.08781">
        <ele>387.5</ele>
        <time>2015-11-29T09:37:27Z</time>
      </trkpt>
      <trkpt lat="43.50347" lon="3.08781">
        <ele>387.5</ele>
        <time>2015-11-29T09:37:28Z</time>
      </trkpt>
      <trkpt lat="43.50347" lon="3.0878">
        <ele>388</ele>
        <time>2015-11-29T09:37:30Z</time>
      </trkpt>
      <trkpt lat="43.50347" lon="3.08779">
        <ele>388</ele>
        <time>2015-11-29T09:37:31Z</time>
      </trkpt>
      <trkpt lat="43.50347" lon="3.08779">
        <ele>387.5</ele>
        <time>2015-11-29T09:37:35Z</time>
      </trkpt>
      <trkpt lat="43.50347" lon="3.08777">
        <ele>388.5</ele>
        <time>2015-11-29T09:37:37Z</time>
      </trkpt>
      <trkpt lat="43.50346" lon="3.08776">
        <ele>388.5</ele>
        <time>2015-11-29T09:37:38Z</time>
      </trkpt>
      <trkpt lat="43.50346" lon="3.08776">
        <ele>389</ele>
        <time>2015-11-29T09:37:39Z</time>
      </trkpt>
      <trkpt lat="43.50346" lon="3.08774">
        <ele>388.5</ele>
        <time>2015-11-29T09:37:40Z</time>
      </trkpt>
      <trkpt lat="43.50346" lon="3.08773">
        <ele>388.5</ele>
        <time>2015-11-29T09:37:41Z</time>
      </trkpt>
      <trkpt lat="43.50345" lon="3.08772">
        <ele>388.5</ele>
        <time>2015-11-29T09:37:42Z</time>
      </trkpt>
      <trkpt lat="43.50345" lon="3.08771">
        <ele>388.5</ele>
        <time>2015-11-29T09:37:44Z</time>
      </trkpt>
      <trkpt lat="43.50345" lon="3.08771">
        <ele>388.5</ele>
        <time>2015-11-29T09:37:45Z</time>
      </trkpt>
      <trkpt lat="43.50345" lon="3.0877">
        <ele>389</ele>
        <time>2015-11-29T09:37:47Z</time>
      </trkpt>
      <trkpt lat="43.50345" lon="3.08769">
        <ele>389</ele>
        <time>2015-11-29T09:37:47Z</time>
      </trkpt>
      <trkpt lat="43.50345" lon="3.08768">
        <ele>389</ele>
        <time>2015-11-29T09:37:48Z</time>
      </trkpt>
      <trkpt lat="43.50345" lon="3.08768">
        <ele>388.5</ele>
        <time>2015-11-29T09:37:49Z</time>
      </trkpt>
      <trkpt lat="43.50346" lon="3.08766">
        <ele>388</ele>
        <time>2015-11-29T09:37:50Z</time>
      </trkpt>
      <trkpt lat="43.50346" lon="3.08766">
        <ele>389</ele>
        <time>2015-11-29T09:37:51Z</time>
      </trkpt>
      <trkpt lat="43.50346" lon="3.08765">
        <ele>389</ele>
        <time>2015-11-29T09:37:53Z</time>
      </trkpt>
      <trkpt lat="43.50346" lon="3.08763">
        <ele>389</ele>
        <time>2015-11-29T09:37:53Z</time>
      </trkpt>
      <trkpt lat="43.50346" lon="3.08762">
        <ele>389</ele>
        <time>2015-11-29T09:37:54Z</time>
      </trkpt>
      <trkpt lat="43.50346" lon="3.08761">
        <ele>389.5</ele>
        <time>2015-11-29T09:37:55Z</time>
      </trkpt>
      <trkpt lat="43.50346" lon="3.0876">
        <ele>389.5</ele>
        <time>2015-11-29T09:37:56Z</time>
      </trkpt>
      <trkpt lat="43.50346" lon="3.0876">
        <ele>390</ele>
        <time>2015-11-29T09:37:57Z</time>
      </trkpt>
      <trkpt lat="43.50346" lon="3.08759">
        <ele>390</ele>
        <time>2015-11-29T09:37:58Z</time>
      </trkpt>
      <trkpt lat="43.50346" lon="3.08757">
        <ele>390</ele>
        <time>2015-11-29T09:37:59Z</time>
      </trkpt>
      <trkpt lat="43.50346" lon="3.08756">
        <ele>390.5</ele>
        <time>2015-11-29T09:38:00Z</time>
      </trkpt>
      <trkpt lat="43.50345" lon="3.08755">
        <ele>390.5</ele>
        <time>2015-11-29T09:38:01Z</time>
      </trkpt>
      <trkpt lat="43.50345" lon="3.08754">
        <ele>390.5</ele>
        <time>2015-11-29T09:38:02Z</time>
      </trkpt>
      <trkpt lat="43.50345" lon="3.08754">
        <ele>390.5</ele>
        <time>2015-11-29T09:38:03Z</time>
      </trkpt>
      <trkpt lat="43.50345" lon="3.08753">
        <ele>390</ele>
        <time>2015-11-29T09:38:04Z</time>
      </trkpt>
      <trkpt lat="43.50345" lon="3.08752">
        <ele>390</ele>
        <time>2015-11-29T09:38:05Z</time>
      </trkpt>
      <trkpt lat="43.50344" lon="3.08751">
        <ele>390</ele>
        <time>2015-11-29T09:38:06Z</time>
      </trkpt>
      <trkpt lat="43.50344" lon="3.0875">
        <ele>390</ele>
        <time>2015-11-29T09:38:07Z</time>
      </trkpt>
      <trkpt lat="43.50344" lon="3.08748">
        <ele>390</ele>
        <time>2015-11-29T09:38:08Z</time>
      </trkpt>
      <trkpt lat="43.50344" lon="3.08747">
        <ele>389.5</ele>
        <time>2015-11-29T09:38:09Z</time>
      </trkpt>
      <trkpt lat="43.50344" lon="3.08746">
        <ele>389.5</ele>
        <time>2015-11-29T09:38:10Z</time>
      </trkpt>
      <trkpt lat="43.50344" lon="3.08746">
        <ele>389.5</ele>
        <time>2015-11-29T09:38:11Z</time>
      </trkpt>
      <trkpt lat="43.50344" lon="3.08745">
        <ele>389.5</ele>
        <time>2015-11-29T09:38:12Z</time>
      </trkpt>
      <trkpt lat="43.50344" lon="3.08744">
        <ele>389</ele>
        <time>2015-11-29T09:38:13Z</time>
      </trkpt>
      <trkpt lat="43.50344" lon="3.08744">
        <ele>389</ele>
        <time>2015-11-29T09:38:14Z</time>
      </trkpt>
      <trkpt lat="43.50344" lon="3.08742">
        <ele>389</ele>
        <time>2015-11-29T09:38:15Z</time>
      </trkpt>
      <trkpt lat="43.50344" lon="3.0874">
        <ele>389.5</ele>
        <time>2015-11-29T09:38:16Z</time>
      </trkpt>
      <trkpt lat="43.50343" lon="3.08738">
        <ele>390.5</ele>
        <time>2015-11-29T09:38:17Z</time>
      </trkpt>
      <trkpt lat="43.50343" lon="3.08735">
        <ele>390.5</ele>
        <time>2015-11-29T09:38:18Z</time>
      </trkpt>
      <trkpt lat="43.50344" lon="3.08732">
        <ele>391</ele>
        <time>2015-11-29T09:38:19Z</time>
      </trkpt>
      <trkpt lat="43.50345" lon="3.0873">
        <ele>391</ele>
        <time>2015-11-29T09:38:20Z</time>
      </trkpt>
      <trkpt lat="43.50345" lon="3.08727">
        <ele>391</ele>
        <time>2015-11-29T09:38:21Z</time>
      </trkpt>
      <trkpt lat="43.50346" lon="3.08725">
        <ele>391</ele>
        <time>2015-11-29T09:38:22Z</time>
      </trkpt>
      <trkpt lat="43.50346" lon="3.08723">
        <ele>391.5</ele>
        <time>2015-11-29T09:38:23Z</time>
      </trkpt>
      <trkpt lat="43.50346" lon="3.08721">
        <ele>392</ele>
        <time>2015-11-29T09:38:24Z</time>
      </trkpt>
      <trkpt lat="43.50345" lon="3.08719">
        <ele>392.5</ele>
        <time>2015-11-29T09:38:25Z</time>
      </trkpt>
      <trkpt lat="43.50344" lon="3.08718">
        <ele>393</ele>
        <time>2015-11-29T09:38:26Z</time>
      </trkpt>
      <trkpt lat="43.50343" lon="3.08716">
        <ele>393.5</ele>
        <time>2015-11-29T09:38:27Z</time>
      </trkpt>
      <trkpt lat="43.50342" lon="3.08715">
        <ele>394</ele>
        <time>2015-11-29T09:38:28Z</time>
      </trkpt>
      <trkpt lat="43.5034" lon="3.08714">
        <ele>394.5</ele>
        <time>2015-11-29T09:38:29Z</time>
      </trkpt>
      <trkpt lat="43.50339" lon="3.08712">
        <ele>394.5</ele>
        <time>2015-11-29T09:38:30Z</time>
      </trkpt>
      <trkpt lat="43.50338" lon="3.0871">
        <ele>394.5</ele>
        <time>2015-11-29T09:38:31Z</time>
      </trkpt>
      <trkpt lat="43.50337" lon="3.08709">
        <ele>394.5</ele>
        <time>2015-11-29T09:38:32Z</time>
      </trkpt>
      <trkpt lat="43.50336" lon="3.08708">
        <ele>395.5</ele>
        <time>2015-11-29T09:38:33Z</time>
      </trkpt>
      <trkpt lat="43.50335" lon="3.08707">
        <ele>396</ele>
        <time>2015-11-29T09:38:34Z</time>
      </trkpt>
      <trkpt lat="43.50334" lon="3.08706">
        <ele>396.5</ele>
        <time>2015-11-29T09:38:35Z</time>
      </trkpt>
      <trkpt lat="43.50334" lon="3.08704">
        <ele>397</ele>
        <time>2015-11-29T09:38:36Z</time>
      </trkpt>
      <trkpt lat="43.50333" lon="3.08703">
        <ele>397</ele>
        <time>2015-11-29T09:38:37Z</time>
      </trkpt>
      <trkpt lat="43.50333" lon="3.08701">
        <ele>397.5</ele>
        <time>2015-11-29T09:38:38Z</time>
      </trkpt>
      <trkpt lat="43.50332" lon="3.087">
        <ele>398.5</ele>
        <time>2015-11-29T09:38:39Z</time>
      </trkpt>
      <trkpt lat="43.50332" lon="3.08698">
        <ele>400</ele>
        <time>2015-11-29T09:38:40Z</time>
      </trkpt>
      <trkpt lat="43.50331" lon="3.08697">
        <ele>400.5</ele>
        <time>2015-11-29T09:38:41Z</time>
      </trkpt>
      <trkpt lat="43.50331" lon="3.08696">
        <ele>401.5</ele>
        <time>2015-11-29T09:38:42Z</time>
      </trkpt>
      <trkpt lat="43.50331" lon="3.08695">
        <ele>402.5</ele>
        <time>2015-11-29T09:38:43Z</time>
      </trkpt>
      <trkpt lat="43.50331" lon="3.08693">
        <ele>403</ele>
        <time>2015-11-29T09:38:44Z</time>
      </trkpt>
      <trkpt lat="43.5033" lon="3.08692">
        <ele>403</ele>
        <time>2015-11-29T09:38:45Z</time>
      </trkpt>
      <trkpt lat="43.50329" lon="3.08691">
        <ele>405</ele>
        <time>2015-11-29T09:38:46Z</time>
      </trkpt>
      <trkpt lat="43.50327" lon="3.08691">
        <ele>405.5</ele>
        <time>2015-11-29T09:38:47Z</time>
      </trkpt>
      <trkpt lat="43.50326" lon="3.0869">
        <ele>406.5</ele>
        <time>2015-11-29T09:38:48Z</time>
      </trkpt>
      <trkpt lat="43.50325" lon="3.08689">
        <ele>406.5</ele>
        <time>2015-11-29T09:38:49Z</time>
      </trkpt>
      <trkpt lat="43.50324" lon="3.08689">
        <ele>406.5</ele>
        <time>2015-11-29T09:38:50Z</time>
      </trkpt>
      <trkpt lat="43.50323" lon="3.08688">
        <ele>407.5</ele>
        <time>2015-11-29T09:38:51Z</time>
      </trkpt>
      <trkpt lat="43.50321" lon="3.08688">
        <ele>408</ele>
        <time>2015-11-29T09:38:52Z</time>
      </trkpt>
      <trkpt lat="43.50321" lon="3.08687">
        <ele>408</ele>
        <time>2015-11-29T09:38:53Z</time>
      </trkpt>
      <trkpt lat="43.50321" lon="3.08686">
        <ele>408.5</ele>
        <time>2015-11-29T09:38:57Z</time>
      </trkpt>
      <trkpt lat="43.5032" lon="3.08686">
        <ele>408.5</ele>
        <time>2015-11-29T09:38:58Z</time>
      </trkpt>
      <trkpt lat="43.5032" lon="3.08685">
        <ele>408.5</ele>
        <time>2015-11-29T09:38:59Z</time>
      </trkpt>
      <trkpt lat="43.50319" lon="3.08684">
        <ele>408.5</ele>
        <time>2015-11-29T09:39:00Z</time>
      </trkpt>
      <trkpt lat="43.50319" lon="3.08683">
        <ele>408</ele>
        <time>2015-11-29T09:39:01Z</time>
      </trkpt>
      <trkpt lat="43.50318" lon="3.08683">
        <ele>408</ele>
        <time>2015-11-29T09:39:02Z</time>
      </trkpt>
      <trkpt lat="43.50318" lon="3.08682">
        <ele>408.5</ele>
        <time>2015-11-29T09:39:03Z</time>
      </trkpt>
      <trkpt lat="43.50317" lon="3.08681">
        <ele>409</ele>
        <time>2015-11-29T09:39:04Z</time>
      </trkpt>
      <trkpt lat="43.50317" lon="3.08681">
        <ele>409.5</ele>
        <time>2015-11-29T09:39:05Z</time>
      </trkpt>
      <trkpt lat="43.50317" lon="3.08679">
        <ele>409.5</ele>
        <time>2015-11-29T09:39:11Z</time>
      </trkpt>
      <trkpt lat="43.50317" lon="3.08678">
        <ele>409.5</ele>
        <time>2015-11-29T09:39:12Z</time>
      </trkpt>
      <trkpt lat="43.50317" lon="3.08677">
        <ele>410</ele>
        <time>2015-11-29T09:39:13Z</time>
      </trkpt>
      <trkpt lat="43.50317" lon="3.08676">
        <ele>410.5</ele>
        <time>2015-11-29T09:39:14Z</time>
      </trkpt>
      <trkpt lat="43.50317" lon="3.08676">
        <ele>411</ele>
        <time>2015-11-29T09:39:15Z</time>
      </trkpt>
      <trkpt lat="43.50316" lon="3.08674">
        <ele>410</ele>
        <time>2015-11-29T09:39:16Z</time>
      </trkpt>
      <trkpt lat="43.50316" lon="3.08673">
        <ele>410</ele>
        <time>2015-11-29T09:39:17Z</time>
      </trkpt>
      <trkpt lat="43.50316" lon="3.08672">
        <ele>411</ele>
        <time>2015-11-29T09:39:18Z</time>
      </trkpt>
      <trkpt lat="43.50316" lon="3.08671">
        <ele>411</ele>
        <time>2015-11-29T09:39:19Z</time>
      </trkpt>
      <trkpt lat="43.50316" lon="3.0867">
        <ele>411.5</ele>
        <time>2015-11-29T09:39:20Z</time>
      </trkpt>
      <trkpt lat="43.50315" lon="3.08669">
        <ele>412.5</ele>
        <time>2015-11-29T09:39:21Z</time>
      </trkpt>
      <trkpt lat="43.50315" lon="3.08667">
        <ele>413</ele>
        <time>2015-11-29T09:39:22Z</time>
      </trkpt>
      <trkpt lat="43.50315" lon="3.08666">
        <ele>413</ele>
        <time>2015-11-29T09:39:23Z</time>
      </trkpt>
      <trkpt lat="43.50316" lon="3.08664">
        <ele>412.5</ele>
        <time>2015-11-29T09:39:24Z</time>
      </trkpt>
      <trkpt lat="43.50316" lon="3.08663">
        <ele>412.5</ele>
        <time>2015-11-29T09:39:25Z</time>
      </trkpt>
      <trkpt lat="43.50316" lon="3.08661">
        <ele>413</ele>
        <time>2015-11-29T09:39:26Z</time>
      </trkpt>
      <trkpt lat="43.50316" lon="3.0866">
        <ele>413</ele>
        <time>2015-11-29T09:39:27Z</time>
      </trkpt>
      <trkpt lat="43.50315" lon="3.08659">
        <ele>413.5</ele>
        <time>2015-11-29T09:39:28Z</time>
      </trkpt>
      <trkpt lat="43.50315" lon="3.08658">
        <ele>413.5</ele>
        <time>2015-11-29T09:39:29Z</time>
      </trkpt>
      <trkpt lat="43.50314" lon="3.08657">
        <ele>414</ele>
        <time>2015-11-29T09:39:30Z</time>
      </trkpt>
      <trkpt lat="43.50314" lon="3.08655">
        <ele>414.5</ele>
        <time>2015-11-29T09:39:31Z</time>
      </trkpt>
      <trkpt lat="43.50314" lon="3.08654">
        <ele>415</ele>
        <time>2015-11-29T09:39:32Z</time>
      </trkpt>
      <trkpt lat="43.50313" lon="3.08653">
        <ele>415.5</ele>
        <time>2015-11-29T09:39:33Z</time>
      </trkpt>
      <trkpt lat="43.50312" lon="3.08651">
        <ele>415</ele>
        <time>2015-11-29T09:39:34Z</time>
      </trkpt>
      <trkpt lat="43.50312" lon="3.0865">
        <ele>415</ele>
        <time>2015-11-29T09:39:35Z</time>
      </trkpt>
      <trkpt lat="43.50311" lon="3.08644">
        <ele>409.5</ele>
        <time>2015-11-29T09:39:42Z</time>
      </trkpt>
      <trkpt lat="43.5031" lon="3.08642">
        <ele>408.5</ele>
        <time>2015-11-29T09:39:43Z</time>
      </trkpt>
      <trkpt lat="43.50309" lon="3.0864">
        <ele>407.5</ele>
        <time>2015-11-29T09:39:44Z</time>
      </trkpt>
      <trkpt lat="43.50308" lon="3.08639">
        <ele>407.5</ele>
        <time>2015-11-29T09:39:45Z</time>
      </trkpt>
      <trkpt lat="43.50307" lon="3.08637">
        <ele>407.5</ele>
        <time>2015-11-29T09:39:46Z</time>
      </trkpt>
      <trkpt lat="43.50306" lon="3.08635">
        <ele>406.5</ele>
        <time>2015-11-29T09:39:47Z</time>
      </trkpt>
      <trkpt lat="43.50305" lon="3.08635">
        <ele>406</ele>
        <time>2015-11-29T09:39:48Z</time>
      </trkpt>
      <trkpt lat="43.50305" lon="3.08634">
        <ele>405</ele>
        <time>2015-11-29T09:39:50Z</time>
      </trkpt>
      <trkpt lat="43.50306" lon="3.08633">
        <ele>403</ele>
        <time>2015-11-29T09:39:52Z</time>
      </trkpt>
      <trkpt lat="43.50307" lon="3.08633">
        <ele>402</ele>
        <time>2015-11-29T09:39:53Z</time>
      </trkpt>
      <trkpt lat="43.50307" lon="3.08633">
        <ele>401</ele>
        <time>2015-11-29T09:39:54Z</time>
      </trkpt>
      <trkpt lat="43.50308" lon="3.08633">
        <ele>400.5</ele>
        <time>2015-11-29T09:39:55Z</time>
      </trkpt>
      <trkpt lat="43.50309" lon="3.08633">
        <ele>400</ele>
        <time>2015-11-29T09:39:56Z</time>
      </trkpt>
      <trkpt lat="43.50309" lon="3.08633">
        <ele>399.5</ele>
        <time>2015-11-29T09:39:57Z</time>
      </trkpt>
      <trkpt lat="43.5031" lon="3.08633">
        <ele>399</ele>
        <time>2015-11-29T09:39:58Z</time>
      </trkpt>
      <trkpt lat="43.50311" lon="3.08632">
        <ele>398.5</ele>
        <time>2015-11-29T09:39:59Z</time>
      </trkpt>
      <trkpt lat="43.50312" lon="3.08631">
        <ele>398.5</ele>
        <time>2015-11-29T09:40:00Z</time>
      </trkpt>
      <trkpt lat="43.50313" lon="3.08631">
        <ele>398.5</ele>
        <time>2015-11-29T09:40:01Z</time>
      </trkpt>
      <trkpt lat="43.50314" lon="3.0863">
        <ele>398.5</ele>
        <time>2015-11-29T09:40:02Z</time>
      </trkpt>
      <trkpt lat="43.50314" lon="3.08629">
        <ele>398.5</ele>
        <time>2015-11-29T09:40:03Z</time>
      </trkpt>
      <trkpt lat="43.50315" lon="3.08628">
        <ele>399</ele>
        <time>2015-11-29T09:40:04Z</time>
      </trkpt>
      <trkpt lat="43.50316" lon="3.08627">
        <ele>399</ele>
        <time>2015-11-29T09:40:05Z</time>
      </trkpt>
      <trkpt lat="43.50317" lon="3.08626">
        <ele>399.5</ele>
        <time>2015-11-29T09:40:06Z</time>
      </trkpt>
      <trkpt lat="43.50318" lon="3.08625">
        <ele>400</ele>
        <time>2015-11-29T09:40:07Z</time>
      </trkpt>
      <trkpt lat="43.50318" lon="3.08624">
        <ele>400.5</ele>
        <time>2015-11-29T09:40:08Z</time>
      </trkpt>
      <trkpt lat="43.50319" lon="3.08623">
        <ele>400.5</ele>
        <time>2015-11-29T09:40:09Z</time>
      </trkpt>
      <trkpt lat="43.5032" lon="3.08622">
        <ele>401</ele>
        <time>2015-11-29T09:40:10Z</time>
      </trkpt>
      <trkpt lat="43.50321" lon="3.08621">
        <ele>401</ele>
        <time>2015-11-29T09:40:11Z</time>
      </trkpt>
      <trkpt lat="43.50322" lon="3.0862">
        <ele>401.5</ele>
        <time>2015-11-29T09:40:12Z</time>
      </trkpt>
      <trkpt lat="43.50322" lon="3.08619">
        <ele>401.5</ele>
        <time>2015-11-29T09:40:13Z</time>
      </trkpt>
      <trkpt lat="43.50323" lon="3.08619">
        <ele>401.5</ele>
        <time>2015-11-29T09:40:14Z</time>
      </trkpt>
      <trkpt lat="43.50323" lon="3.08618">
        <ele>401.5</ele>
        <time>2015-11-29T09:40:15Z</time>
      </trkpt>
      <trkpt lat="43.50323" lon="3.08618">
        <ele>402</ele>
        <time>2015-11-29T09:40:16Z</time>
      </trkpt>
      <trkpt lat="43.50324" lon="3.08616">
        <ele>404</ele>
        <time>2015-11-29T09:40:29Z</time>
      </trkpt>
      <trkpt lat="43.50325" lon="3.08615">
        <ele>404</ele>
        <time>2015-11-29T09:40:30Z</time>
      </trkpt>
      <trkpt lat="43.50327" lon="3.08615">
        <ele>404.5</ele>
        <time>2015-11-29T09:40:31Z</time>
      </trkpt>
      <trkpt lat="43.50328" lon="3.08615">
        <ele>404.5</ele>
        <time>2015-11-29T09:40:32Z</time>
      </trkpt>
      <trkpt lat="43.5033" lon="3.08615">
        <ele>404</ele>
        <time>2015-11-29T09:40:33Z</time>
      </trkpt>
      <trkpt lat="43.50333" lon="3.08614">
        <ele>404.5</ele>
        <time>2015-11-29T09:40:34Z</time>
      </trkpt>
      <trkpt lat="43.50336" lon="3.08614">
        <ele>404.5</ele>
        <time>2015-11-29T09:40:35Z</time>
      </trkpt>
      <trkpt lat="43.50339" lon="3.08614">
        <ele>404</ele>
        <time>2015-11-29T09:40:36Z</time>
      </trkpt>
      <trkpt lat="43.50342" lon="3.08613">
        <ele>403</ele>
        <time>2015-11-29T09:40:37Z</time>
      </trkpt>
      <trkpt lat="43.50344" lon="3.08609">
        <ele>403</ele>
        <time>2015-11-29T09:40:38Z</time>
      </trkpt>
      <trkpt lat="43.50347" lon="3.08606">
        <ele>403</ele>
        <time>2015-11-29T09:40:39Z</time>
      </trkpt>
      <trkpt lat="43.50349" lon="3.08603">
        <ele>402.5</ele>
        <time>2015-11-29T09:40:40Z</time>
      </trkpt>
      <trkpt lat="43.50352" lon="3.086">
        <ele>402</ele>
        <time>2015-11-29T09:40:41Z</time>
      </trkpt>
      <trkpt lat="43.50355" lon="3.08597">
        <ele>401.5</ele>
        <time>2015-11-29T09:40:42Z</time>
      </trkpt>
      <trkpt lat="43.50357" lon="3.08594">
        <ele>401</ele>
        <time>2015-11-29T09:40:43Z</time>
      </trkpt>
      <trkpt lat="43.50359" lon="3.08591">
        <ele>400.5</ele>
        <time>2015-11-29T09:40:44Z</time>
      </trkpt>
      <trkpt lat="43.5036" lon="3.08588">
        <ele>400.5</ele>
        <time>2015-11-29T09:40:45Z</time>
      </trkpt>
      <trkpt lat="43.50362" lon="3.08586">
        <ele>399.5</ele>
        <time>2015-11-29T09:40:46Z</time>
      </trkpt>
      <trkpt lat="43.50364" lon="3.08583">
        <ele>398</ele>
        <time>2015-11-29T09:40:47Z</time>
      </trkpt>
      <trkpt lat="43.50366" lon="3.0858">
        <ele>397.5</ele>
        <time>2015-11-29T09:40:48Z</time>
      </trkpt>
      <trkpt lat="43.50368" lon="3.08579">
        <ele>396.5</ele>
        <time>2015-11-29T09:40:49Z</time>
      </trkpt>
      <trkpt lat="43.50371" lon="3.08579">
        <ele>395</ele>
        <time>2015-11-29T09:40:50Z</time>
      </trkpt>
      <trkpt lat="43.50374" lon="3.0858">
        <ele>394.5</ele>
        <time>2015-11-29T09:40:51Z</time>
      </trkpt>
      <trkpt lat="43.50377" lon="3.0858">
        <ele>393.5</ele>
        <time>2015-11-29T09:40:52Z</time>
      </trkpt>
      <trkpt lat="43.50379" lon="3.08577">
        <ele>393</ele>
        <time>2015-11-29T09:40:53Z</time>
      </trkpt>
      <trkpt lat="43.50381" lon="3.08574">
        <ele>392</ele>
        <time>2015-11-29T09:40:54Z</time>
      </trkpt>
      <trkpt lat="43.50383" lon="3.08571">
        <ele>391</ele>
        <time>2015-11-29T09:40:55Z</time>
      </trkpt>
      <trkpt lat="43.50385" lon="3.08568">
        <ele>389.5</ele>
        <time>2015-11-29T09:40:56Z</time>
      </trkpt>
      <trkpt lat="43.50385" lon="3.08564">
        <ele>389.5</ele>
        <time>2015-11-29T09:40:56Z</time>
      </trkpt>
      <trkpt lat="43.50386" lon="3.08561">
        <ele>388.5</ele>
        <time>2015-11-29T09:40:58Z</time>
      </trkpt>
      <trkpt lat="43.50386" lon="3.08558">
        <ele>388.5</ele>
        <time>2015-11-29T09:40:58Z</time>
      </trkpt>
      <trkpt lat="43.50386" lon="3.08556">
        <ele>388.5</ele>
        <time>2015-11-29T09:41:00Z</time>
      </trkpt>
      <trkpt lat="43.50387" lon="3.08554">
        <ele>388</ele>
        <time>2015-11-29T09:41:01Z</time>
      </trkpt>
      <trkpt lat="43.50389" lon="3.08555">
        <ele>388.5</ele>
        <time>2015-11-29T09:41:01Z</time>
      </trkpt>
      <trkpt lat="43.5039" lon="3.08556">
        <ele>387</ele>
        <time>2015-11-29T09:41:03Z</time>
      </trkpt>
      <trkpt lat="43.50392" lon="3.08557">
        <ele>386</ele>
        <time>2015-11-29T09:41:03Z</time>
      </trkpt>
      <trkpt lat="43.50393" lon="3.08557">
        <ele>385.5</ele>
        <time>2015-11-29T09:41:04Z</time>
      </trkpt>
      <trkpt lat="43.50394" lon="3.08558">
        <ele>384.5</ele>
        <time>2015-11-29T09:41:05Z</time>
      </trkpt>
      <trkpt lat="43.50395" lon="3.08558">
        <ele>383</ele>
        <time>2015-11-29T09:41:06Z</time>
      </trkpt>
      <trkpt lat="43.50397" lon="3.08558">
        <ele>382</ele>
        <time>2015-11-29T09:41:07Z</time>
      </trkpt>
      <trkpt lat="43.50399" lon="3.08558">
        <ele>381.5</ele>
        <time>2015-11-29T09:41:08Z</time>
      </trkpt>
      <trkpt lat="43.50401" lon="3.0856">
        <ele>380.5</ele>
        <time>2015-11-29T09:41:09Z</time>
      </trkpt>
      <trkpt lat="43.50401" lon="3.08553">
        <ele>381</ele>
        <time>2015-11-29T09:41:11Z</time>
      </trkpt>
      <trkpt lat="43.50402" lon="3.08551">
        <ele>382.5</ele>
        <time>2015-11-29T09:41:12Z</time>
      </trkpt>
      <trkpt lat="43.50401" lon="3.08549">
        <ele>382.5</ele>
        <time>2015-11-29T09:41:13Z</time>
      </trkpt>
      <trkpt lat="43.50399" lon="3.08548">
        <ele>381.5</ele>
        <time>2015-11-29T09:41:14Z</time>
      </trkpt>
      <trkpt lat="43.50398" lon="3.08546">
        <ele>381</ele>
        <time>2015-11-29T09:41:15Z</time>
      </trkpt>
      <trkpt lat="43.50397" lon="3.08542">
        <ele>383</ele>
        <time>2015-11-29T09:41:16Z</time>
      </trkpt>
      <trkpt lat="43.50396" lon="3.0854">
        <ele>383</ele>
        <time>2015-11-29T09:41:17Z</time>
      </trkpt>
      <trkpt lat="43.50398" lon="3.08532">
        <ele>380.5</ele>
        <time>2015-11-29T09:41:19Z</time>
      </trkpt>
      <trkpt lat="43.50396" lon="3.08524">
        <ele>379.5</ele>
        <time>2015-11-29T09:41:21Z</time>
      </trkpt>
      <trkpt lat="43.50396" lon="3.08522">
        <ele>378.5</ele>
        <time>2015-11-29T09:41:22Z</time>
      </trkpt>
      <trkpt lat="43.50398" lon="3.08521">
        <ele>379.5</ele>
        <time>2015-11-29T09:41:23Z</time>
      </trkpt>
      <trkpt lat="43.50398" lon="3.08519">
        <ele>380</ele>
        <time>2015-11-29T09:41:24Z</time>
      </trkpt>
      <trkpt lat="43.50398" lon="3.08517">
        <ele>380.5</ele>
        <time>2015-11-29T09:41:25Z</time>
      </trkpt>
      <trkpt lat="43.50399" lon="3.08515">
        <ele>381.5</ele>
        <time>2015-11-29T09:41:26Z</time>
      </trkpt>
      <trkpt lat="43.50401" lon="3.08515">
        <ele>379</ele>
        <time>2015-11-29T09:41:27Z</time>
      </trkpt>
      <trkpt lat="43.50402" lon="3.08512">
        <ele>380</ele>
        <time>2015-11-29T09:41:28Z</time>
      </trkpt>
      <trkpt lat="43.50404" lon="3.08511">
        <ele>381</ele>
        <time>2015-11-29T09:41:29Z</time>
      </trkpt>
      <trkpt lat="43.50405" lon="3.08509">
        <ele>381.5</ele>
        <time>2015-11-29T09:41:30Z</time>
      </trkpt>
      <trkpt lat="43.50407" lon="3.08507">
        <ele>380.5</ele>
        <time>2015-11-29T09:41:31Z</time>
      </trkpt>
      <trkpt lat="43.5041" lon="3.08506">
        <ele>379</ele>
        <time>2015-11-29T09:41:32Z</time>
      </trkpt>
      <trkpt lat="43.50412" lon="3.08506">
        <ele>378</ele>
        <time>2015-11-29T09:41:33Z</time>
      </trkpt>
      <trkpt lat="43.50413" lon="3.08504">
        <ele>379</ele>
        <time>2015-11-29T09:41:34Z</time>
      </trkpt>
      <trkpt lat="43.50414" lon="3.08502">
        <ele>379</ele>
        <time>2015-11-29T09:41:35Z</time>
      </trkpt>
      <trkpt lat="43.50415" lon="3.085">
        <ele>379.5</ele>
        <time>2015-11-29T09:41:36Z</time>
      </trkpt>
      <trkpt lat="43.50417" lon="3.08499">
        <ele>378.5</ele>
        <time>2015-11-29T09:41:37Z</time>
      </trkpt>
      <trkpt lat="43.50418" lon="3.08498">
        <ele>376</ele>
        <time>2015-11-29T09:41:38Z</time>
      </trkpt>
      <trkpt lat="43.5042" lon="3.08497">
        <ele>372</ele>
        <time>2015-11-29T09:41:39Z</time>
      </trkpt>
      <trkpt lat="43.50421" lon="3.08496">
        <ele>372</ele>
        <time>2015-11-29T09:41:40Z</time>
      </trkpt>
      <trkpt lat="43.50421" lon="3.08493">
        <ele>373</ele>
        <time>2015-11-29T09:41:41Z</time>
      </trkpt>
      <trkpt lat="43.50422" lon="3.0849">
        <ele>374</ele>
        <time>2015-11-29T09:41:42Z</time>
      </trkpt>
      <trkpt lat="43.50424" lon="3.08489">
        <ele>373.5</ele>
        <time>2015-11-29T09:41:43Z</time>
      </trkpt>
      <trkpt lat="43.50426" lon="3.0849">
        <ele>372</ele>
        <time>2015-11-29T09:41:44Z</time>
      </trkpt>
      <trkpt lat="43.50428" lon="3.08488">
        <ele>371.5</ele>
        <time>2015-11-29T09:41:45Z</time>
      </trkpt>
      <trkpt lat="43.5043" lon="3.08487">
        <ele>371.5</ele>
        <time>2015-11-29T09:41:46Z</time>
      </trkpt>
      <trkpt lat="43.50429" lon="3.08486">
        <ele>371</ele>
        <time>2015-11-29T09:41:47Z</time>
      </trkpt>
      <trkpt lat="43.50429" lon="3.08485">
        <ele>371</ele>
        <time>2015-11-29T09:41:48Z</time>
      </trkpt>
      <trkpt lat="43.50429" lon="3.08483">
        <ele>370.5</ele>
        <time>2015-11-29T09:41:49Z</time>
      </trkpt>
      <trkpt lat="43.50427" lon="3.0848">
        <ele>370.5</ele>
        <time>2015-11-29T09:41:50Z</time>
      </trkpt>
      <trkpt lat="43.50428" lon="3.08477">
        <ele>370.5</ele>
        <time>2015-11-29T09:41:51Z</time>
      </trkpt>
      <trkpt lat="43.50427" lon="3.08473">
        <ele>372</ele>
        <time>2015-11-29T09:41:52Z</time>
      </trkpt>
      <trkpt lat="43.50429" lon="3.08468">
        <ele>371.5</ele>
        <time>2015-11-29T09:41:53Z</time>
      </trkpt>
      <trkpt lat="43.50429" lon="3.08464">
        <ele>369.5</ele>
        <time>2015-11-29T09:41:54Z</time>
      </trkpt>
      <trkpt lat="43.50428" lon="3.08459">
        <ele>370.5</ele>
        <time>2015-11-29T09:41:55Z</time>
      </trkpt>
      <trkpt lat="43.50428" lon="3.08454">
        <ele>369.5</ele>
        <time>2015-11-29T09:41:56Z</time>
      </trkpt>
      <trkpt lat="43.5043" lon="3.08454">
        <ele>369.5</ele>
        <time>2015-11-29T09:41:57Z</time>
      </trkpt>
      <trkpt lat="43.50433" lon="3.08453">
        <ele>369</ele>
        <time>2015-11-29T09:41:58Z</time>
      </trkpt>
      <trkpt lat="43.5044" lon="3.08452">
        <ele>368</ele>
        <time>2015-11-29T09:42:00Z</time>
      </trkpt>
      <trkpt lat="43.50444" lon="3.08449">
        <ele>367.5</ele>
        <time>2015-11-29T09:42:01Z</time>
      </trkpt>
      <trkpt lat="43.50448" lon="3.08447">
        <ele>367</ele>
        <time>2015-11-29T09:42:02Z</time>
      </trkpt>
      <trkpt lat="43.50452" lon="3.08446">
        <ele>367</ele>
        <time>2015-11-29T09:42:03Z</time>
      </trkpt>
      <trkpt lat="43.50455" lon="3.08444">
        <ele>366</ele>
        <time>2015-11-29T09:42:04Z</time>
      </trkpt>
      <trkpt lat="43.50456" lon="3.08439">
        <ele>365</ele>
        <time>2015-11-29T09:42:05Z</time>
      </trkpt>
      <trkpt lat="43.50454" lon="3.08435">
        <ele>366</ele>
        <time>2015-11-29T09:42:06Z</time>
      </trkpt>
      <trkpt lat="43.50455" lon="3.08431">
        <ele>365</ele>
        <time>2015-11-29T09:42:08Z</time>
      </trkpt>
      <trkpt lat="43.50456" lon="3.0843">
        <ele>364.5</ele>
        <time>2015-11-29T09:42:09Z</time>
      </trkpt>
      <trkpt lat="43.50457" lon="3.08429">
        <ele>364</ele>
        <time>2015-11-29T09:42:10Z</time>
      </trkpt>
      <trkpt lat="43.50457" lon="3.08426">
        <ele>363</ele>
        <time>2015-11-29T09:42:11Z</time>
      </trkpt>
      <trkpt lat="43.50457" lon="3.08422">
        <ele>362</ele>
        <time>2015-11-29T09:42:12Z</time>
      </trkpt>
      <trkpt lat="43.50458" lon="3.08419">
        <ele>362</ele>
        <time>2015-11-29T09:42:13Z</time>
      </trkpt>
      <trkpt lat="43.50459" lon="3.08417">
        <ele>363</ele>
        <time>2015-11-29T09:42:14Z</time>
      </trkpt>
      <trkpt lat="43.5046" lon="3.08415">
        <ele>362</ele>
        <time>2015-11-29T09:42:15Z</time>
      </trkpt>
      <trkpt lat="43.5046" lon="3.08414">
        <ele>361.5</ele>
        <time>2015-11-29T09:42:16Z</time>
      </trkpt>
      <trkpt lat="43.50459" lon="3.08412">
        <ele>360.5</ele>
        <time>2015-11-29T09:42:17Z</time>
      </trkpt>
      <trkpt lat="43.50459" lon="3.0841">
        <ele>360</ele>
        <time>2015-11-29T09:42:18Z</time>
      </trkpt>
      <trkpt lat="43.5046" lon="3.08408">
        <ele>359</ele>
        <time>2015-11-29T09:42:19Z</time>
      </trkpt>
      <trkpt lat="43.50462" lon="3.08406">
        <ele>358.5</ele>
        <time>2015-11-29T09:42:20Z</time>
      </trkpt>
      <trkpt lat="43.50461" lon="3.08404">
        <ele>357.5</ele>
        <time>2015-11-29T09:42:21Z</time>
      </trkpt>
      <trkpt lat="43.5046" lon="3.08402">
        <ele>357.5</ele>
        <time>2015-11-29T09:42:22Z</time>
      </trkpt>
      <trkpt lat="43.50459" lon="3.084">
        <ele>358</ele>
        <time>2015-11-29T09:42:23Z</time>
      </trkpt>
      <trkpt lat="43.50458" lon="3.08395">
        <ele>358</ele>
        <time>2015-11-29T09:42:24Z</time>
      </trkpt>
      <trkpt lat="43.50458" lon="3.08391">
        <ele>357</ele>
        <time>2015-11-29T09:42:25Z</time>
      </trkpt>
      <trkpt lat="43.50459" lon="3.08386">
        <ele>357</ele>
        <time>2015-11-29T09:42:26Z</time>
      </trkpt>
      <trkpt lat="43.50462" lon="3.08383">
        <ele>354</ele>
        <time>2015-11-29T09:42:27Z</time>
      </trkpt>
      <trkpt lat="43.50465" lon="3.0838">
        <ele>353.5</ele>
        <time>2015-11-29T09:42:28Z</time>
      </trkpt>
      <trkpt lat="43.50468" lon="3.08377">
        <ele>353.5</ele>
        <time>2015-11-29T09:42:29Z</time>
      </trkpt>
      <trkpt lat="43.50469" lon="3.08375">
        <ele>352.5</ele>
        <time>2015-11-29T09:42:30Z</time>
      </trkpt>
      <trkpt lat="43.50471" lon="3.08373">
        <ele>349.5</ele>
        <time>2015-11-29T09:42:31Z</time>
      </trkpt>
      <trkpt lat="43.50473" lon="3.08371">
        <ele>346.5</ele>
        <time>2015-11-29T09:42:32Z</time>
      </trkpt>
      <trkpt lat="43.50474" lon="3.0837">
        <ele>345.5</ele>
        <time>2015-11-29T09:42:33Z</time>
      </trkpt>
      <trkpt lat="43.50475" lon="3.08369">
        <ele>344.5</ele>
        <time>2015-11-29T09:42:34Z</time>
      </trkpt>
      <trkpt lat="43.50474" lon="3.08368">
        <ele>344.5</ele>
        <time>2015-11-29T09:42:35Z</time>
      </trkpt>
      <trkpt lat="43.50474" lon="3.08367">
        <ele>344.5</ele>
        <time>2015-11-29T09:42:36Z</time>
      </trkpt>
      <trkpt lat="43.50473" lon="3.08364">
        <ele>343.5</ele>
        <time>2015-11-29T09:42:37Z</time>
      </trkpt>
      <trkpt lat="43.50473" lon="3.08362">
        <ele>342.5</ele>
        <time>2015-11-29T09:42:38Z</time>
      </trkpt>
      <trkpt lat="43.50474" lon="3.08361">
        <ele>340</ele>
        <time>2015-11-29T09:42:39Z</time>
      </trkpt>
      <trkpt lat="43.50473" lon="3.08359">
        <ele>340</ele>
        <time>2015-11-29T09:42:40Z</time>
      </trkpt>
      <trkpt lat="43.50472" lon="3.08358">
        <ele>341</ele>
        <time>2015-11-29T09:42:41Z</time>
      </trkpt>
      <trkpt lat="43.50471" lon="3.08351">
        <ele>342.5</ele>
        <time>2015-11-29T09:42:43Z</time>
      </trkpt>
      <trkpt lat="43.50472" lon="3.0835">
        <ele>340.5</ele>
        <time>2015-11-29T09:42:44Z</time>
      </trkpt>
      <trkpt lat="43.50473" lon="3.08349">
        <ele>340.5</ele>
        <time>2015-11-29T09:42:45Z</time>
      </trkpt>
      <trkpt lat="43.50473" lon="3.08348">
        <ele>338.5</ele>
        <time>2015-11-29T09:42:46Z</time>
      </trkpt>
      <trkpt lat="43.50474" lon="3.08346">
        <ele>337.5</ele>
        <time>2015-11-29T09:42:47Z</time>
      </trkpt>
      <trkpt lat="43.50474" lon="3.08344">
        <ele>337</ele>
        <time>2015-11-29T09:42:48Z</time>
      </trkpt>
      <trkpt lat="43.50474" lon="3.08342">
        <ele>333.5</ele>
        <time>2015-11-29T09:42:49Z</time>
      </trkpt>
      <trkpt lat="43.50474" lon="3.0834">
        <ele>330.5</ele>
        <time>2015-11-29T09:42:53Z</time>
      </trkpt>
      <trkpt lat="43.50473" lon="3.0834">
        <ele>330</ele>
        <time>2015-11-29T09:42:54Z</time>
      </trkpt>
      <trkpt lat="43.50473" lon="3.08339">
        <ele>330</ele>
        <time>2015-11-29T09:42:55Z</time>
      </trkpt>
      <trkpt lat="43.50473" lon="3.08338">
        <ele>329</ele>
        <time>2015-11-29T09:42:59Z</time>
      </trkpt>
      <trkpt lat="43.50473" lon="3.08336">
        <ele>328</ele>
        <time>2015-11-29T09:43:06Z</time>
      </trkpt>
      <trkpt lat="43.50473" lon="3.08336">
        <ele>326.5</ele>
        <time>2015-11-29T09:43:18Z</time>
      </trkpt>
      <trkpt lat="43.50476" lon="3.08336">
        <ele>321</ele>
        <time>2015-11-29T09:43:35Z</time>
      </trkpt>
      <trkpt lat="43.50477" lon="3.08336">
        <ele>321</ele>
        <time>2015-11-29T09:43:40Z</time>
      </trkpt>
      <trkpt lat="43.50476" lon="3.08334">
        <ele>320</ele>
        <time>2015-11-29T09:43:41Z</time>
      </trkpt>
      <trkpt lat="43.50477" lon="3.08335">
        <ele>321</ele>
        <time>2015-11-29T09:43:43Z</time>
      </trkpt>
      <trkpt lat="43.50478" lon="3.08335">
        <ele>321</ele>
        <time>2015-11-29T09:43:46Z</time>
      </trkpt>
      <trkpt lat="43.50477" lon="3.08332">
        <ele>318.5</ele>
        <time>2015-11-29T09:43:52Z</time>
      </trkpt>
      <trkpt lat="43.50477" lon="3.08332">
        <ele>318.5</ele>
        <time>2015-11-29T09:43:53Z</time>
      </trkpt>
      <trkpt lat="43.50478" lon="3.08333">
        <ele>318.5</ele>
        <time>2015-11-29T09:43:57Z</time>
      </trkpt>
      <trkpt lat="43.50477" lon="3.08332">
        <ele>318.5</ele>
        <time>2015-11-29T09:43:58Z</time>
      </trkpt>
      <trkpt lat="43.50478" lon="3.08333">
        <ele>318</ele>
        <time>2015-11-29T09:43:59Z</time>
      </trkpt>
      <trkpt lat="43.50481" lon="3.08333">
        <ele>310.5</ele>
        <time>2015-11-29T09:44:28Z</time>
      </trkpt>
      <trkpt lat="43.50481" lon="3.08332">
        <ele>310.5</ele>
        <time>2015-11-29T09:44:29Z</time>
      </trkpt>
      <trkpt lat="43.5048" lon="3.08331">
        <ele>311</ele>
        <time>2015-11-29T09:44:30Z</time>
      </trkpt>
      <trkpt lat="43.5048" lon="3.0833">
        <ele>311</ele>
        <time>2015-11-29T09:44:31Z</time>
      </trkpt>
      <trkpt lat="43.50479" lon="3.08328">
        <ele>311.5</ele>
        <time>2015-11-29T09:44:32Z</time>
      </trkpt>
      <trkpt lat="43.50476" lon="3.08325">
        <ele>311.5</ele>
        <time>2015-11-29T09:44:34Z</time>
      </trkpt>
      <trkpt lat="43.50475" lon="3.08323">
        <ele>311</ele>
        <time>2015-11-29T09:44:35Z</time>
      </trkpt>
      <trkpt lat="43.50473" lon="3.08322">
        <ele>311.5</ele>
        <time>2015-11-29T09:44:36Z</time>
      </trkpt>
      <trkpt lat="43.50472" lon="3.0832">
        <ele>311.5</ele>
        <time>2015-11-29T09:44:37Z</time>
      </trkpt>
      <trkpt lat="43.5047" lon="3.08318">
        <ele>311.5</ele>
        <time>2015-11-29T09:44:38Z</time>
      </trkpt>
      <trkpt lat="43.50468" lon="3.08317">
        <ele>312</ele>
        <time>2015-11-29T09:44:39Z</time>
      </trkpt>
      <trkpt lat="43.50466" lon="3.08316">
        <ele>312</ele>
        <time>2015-11-29T09:44:40Z</time>
      </trkpt>
      <trkpt lat="43.50465" lon="3.08314">
        <ele>312.5</ele>
        <time>2015-11-29T09:44:41Z</time>
      </trkpt>
      <trkpt lat="43.50463" lon="3.08313">
        <ele>313</ele>
        <time>2015-11-29T09:44:42Z</time>
      </trkpt>
      <trkpt lat="43.50462" lon="3.08311">
        <ele>313</ele>
        <time>2015-11-29T09:44:43Z</time>
      </trkpt>
      <trkpt lat="43.5046" lon="3.0831">
        <ele>313.5</ele>
        <time>2015-11-29T09:44:44Z</time>
      </trkpt>
      <trkpt lat="43.50458" lon="3.08309">
        <ele>314</ele>
        <time>2015-11-29T09:44:45Z</time>
      </trkpt>
      <trkpt lat="43.50456" lon="3.08308">
        <ele>314.5</ele>
        <time>2015-11-29T09:44:46Z</time>
      </trkpt>
      <trkpt lat="43.50454" lon="3.08306">
        <ele>315</ele>
        <time>2015-11-29T09:44:47Z</time>
      </trkpt>
      <trkpt lat="43.50453" lon="3.08305">
        <ele>315</ele>
        <time>2015-11-29T09:44:48Z</time>
      </trkpt>
      <trkpt lat="43.50451" lon="3.08303">
        <ele>315</ele>
        <time>2015-11-29T09:44:49Z</time>
      </trkpt>
      <trkpt lat="43.50449" lon="3.08301">
        <ele>315.5</ele>
        <time>2015-11-29T09:44:50Z</time>
      </trkpt>
      <trkpt lat="43.50447" lon="3.083">
        <ele>315</ele>
        <time>2015-11-29T09:44:51Z</time>
      </trkpt>
      <trkpt lat="43.50446" lon="3.08299">
        <ele>316.5</ele>
        <time>2015-11-29T09:44:52Z</time>
      </trkpt>
      <trkpt lat="43.50445" lon="3.08298">
        <ele>316</ele>
        <time>2015-11-29T09:44:53Z</time>
      </trkpt>
      <trkpt lat="43.50444" lon="3.08297">
        <ele>317</ele>
        <time>2015-11-29T09:44:54Z</time>
      </trkpt>
      <trkpt lat="43.50443" lon="3.08296">
        <ele>317.5</ele>
        <time>2015-11-29T09:44:55Z</time>
      </trkpt>
      <trkpt lat="43.50441" lon="3.08296">
        <ele>317.5</ele>
        <time>2015-11-29T09:44:56Z</time>
      </trkpt>
      <trkpt lat="43.5044" lon="3.08295">
        <ele>317.5</ele>
        <time>2015-11-29T09:44:57Z</time>
      </trkpt>
      <trkpt lat="43.50439" lon="3.08294">
        <ele>318</ele>
        <time>2015-11-29T09:44:58Z</time>
      </trkpt>
      <trkpt lat="43.50437" lon="3.08294">
        <ele>318.5</ele>
        <time>2015-11-29T09:44:59Z</time>
      </trkpt>
      <trkpt lat="43.50436" lon="3.08294">
        <ele>318.5</ele>
        <time>2015-11-29T09:45:00Z</time>
      </trkpt>
      <trkpt lat="43.50434" lon="3.08293">
        <ele>318.5</ele>
        <time>2015-11-29T09:45:01Z</time>
      </trkpt>
      <trkpt lat="43.50433" lon="3.08294">
        <ele>318.5</ele>
        <time>2015-11-29T09:45:02Z</time>
      </trkpt>
      <trkpt lat="43.50431" lon="3.08294">
        <ele>318.5</ele>
        <time>2015-11-29T09:45:03Z</time>
      </trkpt>
      <trkpt lat="43.50429" lon="3.08295">
        <ele>318.5</ele>
        <time>2015-11-29T09:45:04Z</time>
      </trkpt>
      <trkpt lat="43.50428" lon="3.08295">
        <ele>319</ele>
        <time>2015-11-29T09:45:05Z</time>
      </trkpt>
      <trkpt lat="43.50426" lon="3.08296">
        <ele>318.5</ele>
        <time>2015-11-29T09:45:06Z</time>
      </trkpt>
      <trkpt lat="43.50424" lon="3.08296">
        <ele>317.5</ele>
        <time>2015-11-29T09:45:07Z</time>
      </trkpt>
      <trkpt lat="43.50422" lon="3.08296">
        <ele>317.5</ele>
        <time>2015-11-29T09:45:08Z</time>
      </trkpt>
      <trkpt lat="43.50421" lon="3.08298">
        <ele>318</ele>
        <time>2015-11-29T09:45:09Z</time>
      </trkpt>
      <trkpt lat="43.5042" lon="3.08299">
        <ele>318</ele>
        <time>2015-11-29T09:45:10Z</time>
      </trkpt>
      <trkpt lat="43.50418" lon="3.083">
        <ele>318.5</ele>
        <time>2015-11-29T09:45:11Z</time>
      </trkpt>
      <trkpt lat="43.50417" lon="3.08302">
        <ele>319</ele>
        <time>2015-11-29T09:45:12Z</time>
      </trkpt>
      <trkpt lat="43.50416" lon="3.08303">
        <ele>318</ele>
        <time>2015-11-29T09:45:13Z</time>
      </trkpt>
      <trkpt lat="43.50414" lon="3.08305">
        <ele>318</ele>
        <time>2015-11-29T09:45:14Z</time>
      </trkpt>
      <trkpt lat="43.50413" lon="3.08306">
        <ele>318</ele>
        <time>2015-11-29T09:45:15Z</time>
      </trkpt>
      <trkpt lat="43.50411" lon="3.08308">
        <ele>317.5</ele>
        <time>2015-11-29T09:45:16Z</time>
      </trkpt>
      <trkpt lat="43.50409" lon="3.08309">
        <ele>317</ele>
        <time>2015-11-29T09:45:17Z</time>
      </trkpt>
      <trkpt lat="43.50407" lon="3.08311">
        <ele>316.5</ele>
        <time>2015-11-29T09:45:18Z</time>
      </trkpt>
      <trkpt lat="43.50405" lon="3.08312">
        <ele>316</ele>
        <time>2015-11-29T09:45:19Z</time>
      </trkpt>
      <trkpt lat="43.50403" lon="3.08314">
        <ele>316</ele>
        <time>2015-11-29T09:45:20Z</time>
      </trkpt>
      <trkpt lat="43.50401" lon="3.08315">
        <ele>315.5</ele>
        <time>2015-11-29T09:45:21Z</time>
      </trkpt>
      <trkpt lat="43.50399" lon="3.08315">
        <ele>315.5</ele>
        <time>2015-11-29T09:45:22Z</time>
      </trkpt>
      <trkpt lat="43.50397" lon="3.08316">
        <ele>315</ele>
        <time>2015-11-29T09:45:23Z</time>
      </trkpt>
      <trkpt lat="43.50395" lon="3.08316">
        <ele>316</ele>
        <time>2015-11-29T09:45:24Z</time>
      </trkpt>
      <trkpt lat="43.50393" lon="3.08315">
        <ele>315.5</ele>
        <time>2015-11-29T09:45:25Z</time>
      </trkpt>
      <trkpt lat="43.50392" lon="3.08314">
        <ele>315</ele>
        <time>2015-11-29T09:45:26Z</time>
      </trkpt>
      <trkpt lat="43.50391" lon="3.08314">
        <ele>316</ele>
        <time>2015-11-29T09:45:27Z</time>
      </trkpt>
      <trkpt lat="43.5039" lon="3.08313">
        <ele>316.5</ele>
        <time>2015-11-29T09:45:28Z</time>
      </trkpt>
      <trkpt lat="43.50389" lon="3.08311">
        <ele>316.5</ele>
        <time>2015-11-29T09:45:29Z</time>
      </trkpt>
      <trkpt lat="43.50388" lon="3.08308">
        <ele>317</ele>
        <time>2015-11-29T09:45:30Z</time>
      </trkpt>
      <trkpt lat="43.50387" lon="3.08305">
        <ele>318</ele>
        <time>2015-11-29T09:45:31Z</time>
      </trkpt>
      <trkpt lat="43.50387" lon="3.08302">
        <ele>318</ele>
        <time>2015-11-29T09:45:32Z</time>
      </trkpt>
      <trkpt lat="43.50387" lon="3.08298">
        <ele>319</ele>
        <time>2015-11-29T09:45:33Z</time>
      </trkpt>
      <trkpt lat="43.50386" lon="3.08296">
        <ele>319.5</ele>
        <time>2015-11-29T09:45:34Z</time>
      </trkpt>
      <trkpt lat="43.50385" lon="3.08293">
        <ele>319.5</ele>
        <time>2015-11-29T09:45:35Z</time>
      </trkpt>
      <trkpt lat="43.50384" lon="3.08291">
        <ele>319.5</ele>
        <time>2015-11-29T09:45:36Z</time>
      </trkpt>
      <trkpt lat="43.50383" lon="3.08288">
        <ele>319</ele>
        <time>2015-11-29T09:45:37Z</time>
      </trkpt>
      <trkpt lat="43.50381" lon="3.08287">
        <ele>320</ele>
        <time>2015-11-29T09:45:38Z</time>
      </trkpt>
      <trkpt lat="43.50379" lon="3.08285">
        <ele>320</ele>
        <time>2015-11-29T09:45:39Z</time>
      </trkpt>
      <trkpt lat="43.50377" lon="3.08283">
        <ele>320.5</ele>
        <time>2015-11-29T09:45:40Z</time>
      </trkpt>
      <trkpt lat="43.50376" lon="3.08282">
        <ele>321</ele>
        <time>2015-11-29T09:45:41Z</time>
      </trkpt>
      <trkpt lat="43.50374" lon="3.08281">
        <ele>321.5</ele>
        <time>2015-11-29T09:45:42Z</time>
      </trkpt>
      <trkpt lat="43.50372" lon="3.0828">
        <ele>322.5</ele>
        <time>2015-11-29T09:45:43Z</time>
      </trkpt>
      <trkpt lat="43.5037" lon="3.08279">
        <ele>323</ele>
        <time>2015-11-29T09:45:44Z</time>
      </trkpt>
      <trkpt lat="43.50368" lon="3.08278">
        <ele>323</ele>
        <time>2015-11-29T09:45:45Z</time>
      </trkpt>
      <trkpt lat="43.50366" lon="3.08278">
        <ele>323.5</ele>
        <time>2015-11-29T09:45:46Z</time>
      </trkpt>
      <trkpt lat="43.50364" lon="3.08277">
        <ele>324</ele>
        <time>2015-11-29T09:45:47Z</time>
      </trkpt>
      <trkpt lat="43.50362" lon="3.08276">
        <ele>324.5</ele>
        <time>2015-11-29T09:45:48Z</time>
      </trkpt>
      <trkpt lat="43.5036" lon="3.08275">
        <ele>324.5</ele>
        <time>2015-11-29T09:45:49Z</time>
      </trkpt>
      <trkpt lat="43.50359" lon="3.08274">
        <ele>324.5</ele>
        <time>2015-11-29T09:45:50Z</time>
      </trkpt>
      <trkpt lat="43.50357" lon="3.08274">
        <ele>325</ele>
        <time>2015-11-29T09:45:51Z</time>
      </trkpt>
      <trkpt lat="43.50355" lon="3.08273">
        <ele>325</ele>
        <time>2015-11-29T09:45:52Z</time>
      </trkpt>
      <trkpt lat="43.50353" lon="3.08272">
        <ele>325.5</ele>
        <time>2015-11-29T09:45:53Z</time>
      </trkpt>
      <trkpt lat="43.50351" lon="3.08271">
        <ele>325.5</ele>
        <time>2015-11-29T09:45:54Z</time>
      </trkpt>
      <trkpt lat="43.5035" lon="3.0827">
        <ele>326</ele>
        <time>2015-11-29T09:45:54Z</time>
      </trkpt>
      <trkpt lat="43.50348" lon="3.0827">
        <ele>327</ele>
        <time>2015-11-29T09:45:55Z</time>
      </trkpt>
      <trkpt lat="43.50346" lon="3.08269">
        <ele>327</ele>
        <time>2015-11-29T09:45:57Z</time>
      </trkpt>
      <trkpt lat="43.50345" lon="3.08268">
        <ele>327</ele>
        <time>2015-11-29T09:45:57Z</time>
      </trkpt>
      <trkpt lat="43.50343" lon="3.08267">
        <ele>327.5</ele>
        <time>2015-11-29T09:45:59Z</time>
      </trkpt>
      <trkpt lat="43.50341" lon="3.08266">
        <ele>327.5</ele>
        <time>2015-11-29T09:46:00Z</time>
      </trkpt>
      <trkpt lat="43.50339" lon="3.08265">
        <ele>327</ele>
        <time>2015-11-29T09:46:00Z</time>
      </trkpt>
      <trkpt lat="43.50337" lon="3.08264">
        <ele>326.5</ele>
        <time>2015-11-29T09:46:01Z</time>
      </trkpt>
      <trkpt lat="43.50336" lon="3.08263">
        <ele>326.5</ele>
        <time>2015-11-29T09:46:02Z</time>
      </trkpt>
      <trkpt lat="43.50334" lon="3.08263">
        <ele>326.5</ele>
        <time>2015-11-29T09:46:03Z</time>
      </trkpt>
      <trkpt lat="43.50332" lon="3.08261">
        <ele>325.5</ele>
        <time>2015-11-29T09:46:05Z</time>
      </trkpt>
      <trkpt lat="43.5033" lon="3.0826">
        <ele>325</ele>
        <time>2015-11-29T09:46:05Z</time>
      </trkpt>
      <trkpt lat="43.50328" lon="3.08259">
        <ele>324.5</ele>
        <time>2015-11-29T09:46:07Z</time>
      </trkpt>
      <trkpt lat="43.50327" lon="3.08258">
        <ele>325.5</ele>
        <time>2015-11-29T09:46:07Z</time>
      </trkpt>
      <trkpt lat="43.50325" lon="3.08256">
        <ele>324</ele>
        <time>2015-11-29T09:46:08Z</time>
      </trkpt>
      <trkpt lat="43.50323" lon="3.08255">
        <ele>324</ele>
        <time>2015-11-29T09:46:09Z</time>
      </trkpt>
      <trkpt lat="43.50322" lon="3.08253">
        <ele>324.5</ele>
        <time>2015-11-29T09:46:10Z</time>
      </trkpt>
      <trkpt lat="43.5032" lon="3.08252">
        <ele>326</ele>
        <time>2015-11-29T09:46:11Z</time>
      </trkpt>
      <trkpt lat="43.50318" lon="3.08251">
        <ele>327</ele>
        <time>2015-11-29T09:46:12Z</time>
      </trkpt>
      <trkpt lat="43.50317" lon="3.0825">
        <ele>326.5</ele>
        <time>2015-11-29T09:46:13Z</time>
      </trkpt>
      <trkpt lat="43.50315" lon="3.08248">
        <ele>326.5</ele>
        <time>2015-11-29T09:46:14Z</time>
      </trkpt>
      <trkpt lat="43.50314" lon="3.08247">
        <ele>326</ele>
        <time>2015-11-29T09:46:15Z</time>
      </trkpt>
      <trkpt lat="43.50313" lon="3.08245">
        <ele>326</ele>
        <time>2015-11-29T09:46:16Z</time>
      </trkpt>
      <trkpt lat="43.50311" lon="3.08243">
        <ele>326</ele>
        <time>2015-11-29T09:46:17Z</time>
      </trkpt>
      <trkpt lat="43.5031" lon="3.08242">
        <ele>326.5</ele>
        <time>2015-11-29T09:46:18Z</time>
      </trkpt>
      <trkpt lat="43.50309" lon="3.0824">
        <ele>327</ele>
        <time>2015-11-29T09:46:19Z</time>
      </trkpt>
      <trkpt lat="43.50309" lon="3.08239">
        <ele>329</ele>
        <time>2015-11-29T09:46:20Z</time>
      </trkpt>
      <trkpt lat="43.50308" lon="3.08237">
        <ele>329.5</ele>
        <time>2015-11-29T09:46:21Z</time>
      </trkpt>
      <trkpt lat="43.50308" lon="3.08235">
        <ele>330.5</ele>
        <time>2015-11-29T09:46:22Z</time>
      </trkpt>
      <trkpt lat="43.50309" lon="3.08232">
        <ele>331</ele>
        <time>2015-11-29T09:46:23Z</time>
      </trkpt>
      <trkpt lat="43.50309" lon="3.0823">
        <ele>331.5</ele>
        <time>2015-11-29T09:46:25Z</time>
      </trkpt>
      <trkpt lat="43.50312" lon="3.0823">
        <ele>332.5</ele>
        <time>2015-11-29T09:46:25Z</time>
      </trkpt>
      <trkpt lat="43.50313" lon="3.08228">
        <ele>333</ele>
        <time>2015-11-29T09:46:26Z</time>
      </trkpt>
      <trkpt lat="43.50315" lon="3.08227">
        <ele>334</ele>
        <time>2015-11-29T09:46:27Z</time>
      </trkpt>
      <trkpt lat="43.50317" lon="3.08226">
        <ele>334.5</ele>
        <time>2015-11-29T09:46:28Z</time>
      </trkpt>
      <trkpt lat="43.5032" lon="3.08225">
        <ele>334.5</ele>
        <time>2015-11-29T09:46:29Z</time>
      </trkpt>
      <trkpt lat="43.50322" lon="3.08225">
        <ele>334</ele>
        <time>2015-11-29T09:46:30Z</time>
      </trkpt>
      <trkpt lat="43.50324" lon="3.08223">
        <ele>334.5</ele>
        <time>2015-11-29T09:46:31Z</time>
      </trkpt>
      <trkpt lat="43.50326" lon="3.0822">
        <ele>333.5</ele>
        <time>2015-11-29T09:46:32Z</time>
      </trkpt>
      <trkpt lat="43.50328" lon="3.08219">
        <ele>334</ele>
        <time>2015-11-29T09:46:33Z</time>
      </trkpt>
      <trkpt lat="43.5033" lon="3.08215">
        <ele>334</ele>
        <time>2015-11-29T09:46:34Z</time>
      </trkpt>
      <trkpt lat="43.50333" lon="3.08212">
        <ele>334</ele>
        <time>2015-11-29T09:46:35Z</time>
      </trkpt>
      <trkpt lat="43.50336" lon="3.08209">
        <ele>333</ele>
        <time>2015-11-29T09:46:37Z</time>
      </trkpt>
      <trkpt lat="43.50338" lon="3.08205">
        <ele>332.5</ele>
        <time>2015-11-29T09:46:37Z</time>
      </trkpt>
      <trkpt lat="43.50341" lon="3.08202">
        <ele>332.5</ele>
        <time>2015-11-29T09:46:38Z</time>
      </trkpt>
      <trkpt lat="43.50343" lon="3.08198">
        <ele>332</ele>
        <time>2015-11-29T09:46:39Z</time>
      </trkpt>
      <trkpt lat="43.50344" lon="3.08194">
        <ele>332</ele>
        <time>2015-11-29T09:46:40Z</time>
      </trkpt>
      <trkpt lat="43.50344" lon="3.0819">
        <ele>332.5</ele>
        <time>2015-11-29T09:46:41Z</time>
      </trkpt>
      <trkpt lat="43.50345" lon="3.08186">
        <ele>333</ele>
        <time>2015-11-29T09:46:42Z</time>
      </trkpt>
      <trkpt lat="43.50346" lon="3.08183">
        <ele>333</ele>
        <time>2015-11-29T09:46:43Z</time>
      </trkpt>
      <trkpt lat="43.50346" lon="3.0818">
        <ele>334</ele>
        <time>2015-11-29T09:46:44Z</time>
      </trkpt>
      <trkpt lat="43.50347" lon="3.08177">
        <ele>333.5</ele>
        <time>2015-11-29T09:46:45Z</time>
      </trkpt>
      <trkpt lat="43.50349" lon="3.08173">
        <ele>333</ele>
        <time>2015-11-29T09:46:46Z</time>
      </trkpt>
      <trkpt lat="43.50351" lon="3.08169">
        <ele>333</ele>
        <time>2015-11-29T09:46:47Z</time>
      </trkpt>
      <trkpt lat="43.50354" lon="3.08167">
        <ele>333.5</ele>
        <time>2015-11-29T09:46:48Z</time>
      </trkpt>
      <trkpt lat="43.50356" lon="3.08164">
        <ele>333.5</ele>
        <time>2015-11-29T09:46:49Z</time>
      </trkpt>
      <trkpt lat="43.50358" lon="3.08161">
        <ele>334</ele>
        <time>2015-11-29T09:46:50Z</time>
      </trkpt>
      <trkpt lat="43.5036" lon="3.08157">
        <ele>334</ele>
        <time>2015-11-29T09:46:51Z</time>
      </trkpt>
      <trkpt lat="43.50362" lon="3.08154">
        <ele>335.5</ele>
        <time>2015-11-29T09:46:52Z</time>
      </trkpt>
      <trkpt lat="43.50363" lon="3.0815">
        <ele>336</ele>
        <time>2015-11-29T09:46:53Z</time>
      </trkpt>
      <trkpt lat="43.50364" lon="3.08146">
        <ele>336.5</ele>
        <time>2015-11-29T09:46:54Z</time>
      </trkpt>
      <trkpt lat="43.50365" lon="3.08141">
        <ele>336.5</ele>
        <time>2015-11-29T09:46:55Z</time>
      </trkpt>
      <trkpt lat="43.50364" lon="3.08136">
        <ele>338.5</ele>
        <time>2015-11-29T09:46:56Z</time>
      </trkpt>
      <trkpt lat="43.50365" lon="3.08131">
        <ele>337</ele>
        <time>2015-11-29T09:46:57Z</time>
      </trkpt>
      <trkpt lat="43.50364" lon="3.08125">
        <ele>336.5</ele>
        <time>2015-11-29T09:46:58Z</time>
      </trkpt>
      <trkpt lat="43.50363" lon="3.0812">
        <ele>336.5</ele>
        <time>2015-11-29T09:46:59Z</time>
      </trkpt>
      <trkpt lat="43.50362" lon="3.08116">
        <ele>337</ele>
        <time>2015-11-29T09:47:00Z</time>
      </trkpt>
      <trkpt lat="43.50362" lon="3.08111">
        <ele>337</ele>
        <time>2015-11-29T09:47:01Z</time>
      </trkpt>
      <trkpt lat="43.50363" lon="3.08106">
        <ele>336</ele>
        <time>2015-11-29T09:47:02Z</time>
      </trkpt>
      <trkpt lat="43.50365" lon="3.08101">
        <ele>336</ele>
        <time>2015-11-29T09:47:03Z</time>
      </trkpt>
      <trkpt lat="43.50367" lon="3.08097">
        <ele>335.5</ele>
        <time>2015-11-29T09:47:04Z</time>
      </trkpt>
      <trkpt lat="43.5037" lon="3.08094">
        <ele>335</ele>
        <time>2015-11-29T09:47:06Z</time>
      </trkpt>
      <trkpt lat="43.50373" lon="3.08094">
        <ele>333.5</ele>
        <time>2015-11-29T09:47:06Z</time>
      </trkpt>
      <trkpt lat="43.50377" lon="3.08094">
        <ele>332</ele>
        <time>2015-11-29T09:47:07Z</time>
      </trkpt>
      <trkpt lat="43.5038" lon="3.08094">
        <ele>331</ele>
        <time>2015-11-29T09:47:08Z</time>
      </trkpt>
      <trkpt lat="43.50384" lon="3.08093">
        <ele>332</ele>
        <time>2015-11-29T09:47:09Z</time>
      </trkpt>
      <trkpt lat="43.50387" lon="3.08093">
        <ele>331.5</ele>
        <time>2015-11-29T09:47:10Z</time>
      </trkpt>
      <trkpt lat="43.5039" lon="3.08093">
        <ele>331</ele>
        <time>2015-11-29T09:47:11Z</time>
      </trkpt>
      <trkpt lat="43.50394" lon="3.08094">
        <ele>331.5</ele>
        <time>2015-11-29T09:47:12Z</time>
      </trkpt>
      <trkpt lat="43.50397" lon="3.08092">
        <ele>331.5</ele>
        <time>2015-11-29T09:47:13Z</time>
      </trkpt>
      <trkpt lat="43.50398" lon="3.0809">
        <ele>331</ele>
        <time>2015-11-29T09:47:14Z</time>
      </trkpt>
      <trkpt lat="43.504" lon="3.08089">
        <ele>330.5</ele>
        <time>2015-11-29T09:47:15Z</time>
      </trkpt>
      <trkpt lat="43.50401" lon="3.08088">
        <ele>331</ele>
        <time>2015-11-29T09:47:16Z</time>
      </trkpt>
      <trkpt lat="43.50402" lon="3.08087">
        <ele>331</ele>
        <time>2015-11-29T09:47:17Z</time>
      </trkpt>
      <trkpt lat="43.50404" lon="3.08087">
        <ele>331</ele>
        <time>2015-11-29T09:47:18Z</time>
      </trkpt>
      <trkpt lat="43.50406" lon="3.08085">
        <ele>331</ele>
        <time>2015-11-29T09:47:19Z</time>
      </trkpt>
      <trkpt lat="43.50409" lon="3.08083">
        <ele>330.5</ele>
        <time>2015-11-29T09:47:20Z</time>
      </trkpt>
      <trkpt lat="43.50411" lon="3.08081">
        <ele>329.5</ele>
        <time>2015-11-29T09:47:21Z</time>
      </trkpt>
      <trkpt lat="43.50414" lon="3.08078">
        <ele>329</ele>
        <time>2015-11-29T09:47:22Z</time>
      </trkpt>
      <trkpt lat="43.50418" lon="3.08075">
        <ele>328</ele>
        <time>2015-11-29T09:47:23Z</time>
      </trkpt>
      <trkpt lat="43.50423" lon="3.08072">
        <ele>327.5</ele>
        <time>2015-11-29T09:47:24Z</time>
      </trkpt>
      <trkpt lat="43.50429" lon="3.0807">
        <ele>327</ele>
        <time>2015-11-29T09:47:25Z</time>
      </trkpt>
      <trkpt lat="43.50436" lon="3.0807">
        <ele>325.5</ele>
        <time>2015-11-29T09:47:26Z</time>
      </trkpt>
      <trkpt lat="43.50443" lon="3.0807">
        <ele>324.5</ele>
        <time>2015-11-29T09:47:27Z</time>
      </trkpt>
      <trkpt lat="43.5045" lon="3.08069">
        <ele>323.5</ele>
        <time>2015-11-29T09:47:28Z</time>
      </trkpt>
      <trkpt lat="43.50457" lon="3.08065">
        <ele>322.5</ele>
        <time>2015-11-29T09:47:29Z</time>
      </trkpt>
      <trkpt lat="43.50464" lon="3.0806">
        <ele>322</ele>
        <time>2015-11-29T09:47:30Z</time>
      </trkpt>
      <trkpt lat="43.5047" lon="3.08055">
        <ele>322</ele>
        <time>2015-11-29T09:47:31Z</time>
      </trkpt>
      <trkpt lat="43.50476" lon="3.0805">
        <ele>321</ele>
        <time>2015-11-29T09:47:32Z</time>
      </trkpt>
      <trkpt lat="43.50482" lon="3.08046">
        <ele>321</ele>
        <time>2015-11-29T09:47:33Z</time>
      </trkpt>
      <trkpt lat="43.5049" lon="3.08047">
        <ele>320.5</ele>
        <time>2015-11-29T09:47:34Z</time>
      </trkpt>
      <trkpt lat="43.50497" lon="3.08048">
        <ele>319</ele>
        <time>2015-11-29T09:47:35Z</time>
      </trkpt>
      <trkpt lat="43.50505" lon="3.08053">
        <ele>318.5</ele>
        <time>2015-11-29T09:47:36Z</time>
      </trkpt>
      <trkpt lat="43.50513" lon="3.08054">
        <ele>318.5</ele>
        <time>2015-11-29T09:47:37Z</time>
      </trkpt>
      <trkpt lat="43.50523" lon="3.08047">
        <ele>320</ele>
        <time>2015-11-29T09:47:39Z</time>
      </trkpt>
      <trkpt lat="43.50526" lon="3.0804">
        <ele>318</ele>
        <time>2015-11-29T09:47:40Z</time>
      </trkpt>
      <trkpt lat="43.5053" lon="3.08034">
        <ele>317.5</ele>
        <time>2015-11-29T09:47:41Z</time>
      </trkpt>
      <trkpt lat="43.50534" lon="3.08028">
        <ele>317</ele>
        <time>2015-11-29T09:47:42Z</time>
      </trkpt>
      <trkpt lat="43.50538" lon="3.08022">
        <ele>316.5</ele>
        <time>2015-11-29T09:47:43Z</time>
      </trkpt>
      <trkpt lat="43.50543" lon="3.08016">
        <ele>316</ele>
        <time>2015-11-29T09:47:44Z</time>
      </trkpt>
      <trkpt lat="43.50548" lon="3.0801">
        <ele>315</ele>
        <time>2015-11-29T09:47:45Z</time>
      </trkpt>
      <trkpt lat="43.50553" lon="3.08005">
        <ele>315</ele>
        <time>2015-11-29T09:47:46Z</time>
      </trkpt>
      <trkpt lat="43.50558" lon="3.07999">
        <ele>314</ele>
        <time>2015-11-29T09:47:47Z</time>
      </trkpt>
      <trkpt lat="43.50564" lon="3.07993">
        <ele>314</ele>
        <time>2015-11-29T09:47:48Z</time>
      </trkpt>
      <trkpt lat="43.5057" lon="3.07988">
        <ele>313.5</ele>
        <time>2015-11-29T09:47:49Z</time>
      </trkpt>
      <trkpt lat="43.50576" lon="3.07982">
        <ele>313</ele>
        <time>2015-11-29T09:47:50Z</time>
      </trkpt>
      <trkpt lat="43.50583" lon="3.07978">
        <ele>312.5</ele>
        <time>2015-11-29T09:47:51Z</time>
      </trkpt>
      <trkpt lat="43.5059" lon="3.07974">
        <ele>312.5</ele>
        <time>2015-11-29T09:47:52Z</time>
      </trkpt>
      <trkpt lat="43.50597" lon="3.07967">
        <ele>314</ele>
        <time>2015-11-29T09:50:14Z</time>
      </trkpt>
      <trkpt lat="43.50598" lon="3.07965">
        <ele>314.5</ele>
        <time>2015-11-29T09:50:19Z</time>
      </trkpt>
      <trkpt lat="43.506" lon="3.07958">
        <ele>315.5</ele>
        <time>2015-11-29T09:50:21Z</time>
      </trkpt>
      <trkpt lat="43.50603" lon="3.07955">
        <ele>315.5</ele>
        <time>2015-11-29T09:50:22Z</time>
      </trkpt>
      <trkpt lat="43.50607" lon="3.07952">
        <ele>314.5</ele>
        <time>2015-11-29T09:50:23Z</time>
      </trkpt>
      <trkpt lat="43.50611" lon="3.07948">
        <ele>314</ele>
        <time>2015-11-29T09:50:24Z</time>
      </trkpt>
      <trkpt lat="43.50614" lon="3.07944">
        <ele>315</ele>
        <time>2015-11-29T09:50:25Z</time>
      </trkpt>
      <trkpt lat="43.50619" lon="3.0794">
        <ele>314</ele>
        <time>2015-11-29T09:50:26Z</time>
      </trkpt>
      <trkpt lat="43.50623" lon="3.07935">
        <ele>313.5</ele>
        <time>2015-11-29T09:50:27Z</time>
      </trkpt>
      <trkpt lat="43.50627" lon="3.0793">
        <ele>313.5</ele>
        <time>2015-11-29T09:50:28Z</time>
      </trkpt>
      <trkpt lat="43.50632" lon="3.07925">
        <ele>313.5</ele>
        <time>2015-11-29T09:50:29Z</time>
      </trkpt>
      <trkpt lat="43.50636" lon="3.07919">
        <ele>313.5</ele>
        <time>2015-11-29T09:50:30Z</time>
      </trkpt>
      <trkpt lat="43.5064" lon="3.07912">
        <ele>314</ele>
        <time>2015-11-29T09:50:31Z</time>
      </trkpt>
      <trkpt lat="43.50644" lon="3.07905">
        <ele>314</ele>
        <time>2015-11-29T09:50:32Z</time>
      </trkpt>
      <trkpt lat="43.50648" lon="3.07898">
        <ele>314</ele>
        <time>2015-11-29T09:50:33Z</time>
      </trkpt>
      <trkpt lat="43.50651" lon="3.07892">
        <ele>314</ele>
        <time>2015-11-29T09:50:34Z</time>
      </trkpt>
      <trkpt lat="43.5065" lon="3.07884">
        <ele>316</ele>
        <time>2015-11-29T09:50:35Z</time>
      </trkpt>
      <trkpt lat="43.5065" lon="3.07877">
        <ele>316</ele>
        <time>2015-11-29T09:50:36Z</time>
      </trkpt>
      <trkpt lat="43.5065" lon="3.07869">
        <ele>316</ele>
        <time>2015-11-29T09:50:37Z</time>
      </trkpt>
      <trkpt lat="43.50649" lon="3.07861">
        <ele>316</ele>
        <time>2015-11-29T09:50:38Z</time>
      </trkpt>
      <trkpt lat="43.5065" lon="3.07854">
        <ele>315</ele>
        <time>2015-11-29T09:50:39Z</time>
      </trkpt>
      <trkpt lat="43.50647" lon="3.07847">
        <ele>315.5</ele>
        <time>2015-11-29T09:50:40Z</time>
      </trkpt>
      <trkpt lat="43.50646" lon="3.07841">
        <ele>316</ele>
        <time>2015-11-29T09:50:41Z</time>
      </trkpt>
      <trkpt lat="43.50646" lon="3.07835">
        <ele>315</ele>
        <time>2015-11-29T09:50:42Z</time>
      </trkpt>
      <trkpt lat="43.50647" lon="3.0783">
        <ele>314.5</ele>
        <time>2015-11-29T09:50:43Z</time>
      </trkpt>
      <trkpt lat="43.50648" lon="3.07827">
        <ele>315.5</ele>
        <time>2015-11-29T09:50:44Z</time>
      </trkpt>
      <trkpt lat="43.50649" lon="3.07823">
        <ele>315.5</ele>
        <time>2015-11-29T09:50:45Z</time>
      </trkpt>
      <trkpt lat="43.50649" lon="3.07818">
        <ele>315</ele>
        <time>2015-11-29T09:50:46Z</time>
      </trkpt>
      <trkpt lat="43.50649" lon="3.07813">
        <ele>315</ele>
        <time>2015-11-29T09:50:47Z</time>
      </trkpt>
      <trkpt lat="43.50651" lon="3.07808">
        <ele>313.5</ele>
        <time>2015-11-29T09:50:48Z</time>
      </trkpt>
      <trkpt lat="43.50653" lon="3.07801">
        <ele>313</ele>
        <time>2015-11-29T09:50:49Z</time>
      </trkpt>
      <trkpt lat="43.50654" lon="3.07794">
        <ele>312.5</ele>
        <time>2015-11-29T09:50:50Z</time>
      </trkpt>
      <trkpt lat="43.50657" lon="3.07787">
        <ele>312</ele>
        <time>2015-11-29T09:50:51Z</time>
      </trkpt>
      <trkpt lat="43.5066" lon="3.07781">
        <ele>310.5</ele>
        <time>2015-11-29T09:50:52Z</time>
      </trkpt>
      <trkpt lat="43.50662" lon="3.07775">
        <ele>311</ele>
        <time>2015-11-29T09:50:53Z</time>
      </trkpt>
      <trkpt lat="43.50664" lon="3.07769">
        <ele>310</ele>
        <time>2015-11-29T09:50:54Z</time>
      </trkpt>
      <trkpt lat="43.50666" lon="3.07762">
        <ele>309.5</ele>
        <time>2015-11-29T09:50:55Z</time>
      </trkpt>
      <trkpt lat="43.50667" lon="3.07757">
        <ele>309</ele>
        <time>2015-11-29T09:50:56Z</time>
      </trkpt>
      <trkpt lat="43.5067" lon="3.07754">
        <ele>309.5</ele>
        <time>2015-11-29T09:50:57Z</time>
      </trkpt>
      <trkpt lat="43.50673" lon="3.0775">
        <ele>308.5</ele>
        <time>2015-11-29T09:50:58Z</time>
      </trkpt>
      <trkpt lat="43.50675" lon="3.07745">
        <ele>307.5</ele>
        <time>2015-11-29T09:50:59Z</time>
      </trkpt>
      <trkpt lat="43.50673" lon="3.07742">
        <ele>306.5</ele>
        <time>2015-11-29T09:51:00Z</time>
      </trkpt>
      <trkpt lat="43.50673" lon="3.07739">
        <ele>306.5</ele>
        <time>2015-11-29T09:51:01Z</time>
      </trkpt>
      <trkpt lat="43.50674" lon="3.07736">
        <ele>305.5</ele>
        <time>2015-11-29T09:51:02Z</time>
      </trkpt>
      <trkpt lat="43.50676" lon="3.07735">
        <ele>307</ele>
        <time>2015-11-29T09:51:03Z</time>
      </trkpt>
      <trkpt lat="43.50678" lon="3.07735">
        <ele>306</ele>
        <time>2015-11-29T09:51:04Z</time>
      </trkpt>
      <trkpt lat="43.50681" lon="3.07738">
        <ele>305</ele>
        <time>2015-11-29T09:51:05Z</time>
      </trkpt>
      <trkpt lat="43.50686" lon="3.07743">
        <ele>300.5</ele>
        <time>2015-11-29T09:51:07Z</time>
      </trkpt>
      <trkpt lat="43.50687" lon="3.07745">
        <ele>299</ele>
        <time>2015-11-29T09:51:08Z</time>
      </trkpt>
      <trkpt lat="43.50689" lon="3.07745">
        <ele>297.5</ele>
        <time>2015-11-29T09:51:09Z</time>
      </trkpt>
      <trkpt lat="43.5069" lon="3.07744">
        <ele>296.5</ele>
        <time>2015-11-29T09:51:10Z</time>
      </trkpt>
      <trkpt lat="43.50692" lon="3.07743">
        <ele>295.5</ele>
        <time>2015-11-29T09:51:11Z</time>
      </trkpt>
      <trkpt lat="43.50696" lon="3.07744">
        <ele>296.5</ele>
        <time>2015-11-29T09:51:12Z</time>
      </trkpt>
      <trkpt lat="43.50699" lon="3.07745">
        <ele>296</ele>
        <time>2015-11-29T09:51:13Z</time>
      </trkpt>
      <trkpt lat="43.50703" lon="3.07747">
        <ele>292.5</ele>
        <time>2015-11-29T09:51:14Z</time>
      </trkpt>
      <trkpt lat="43.50708" lon="3.07748">
        <ele>289</ele>
        <time>2015-11-29T09:51:15Z</time>
      </trkpt>
      <trkpt lat="43.50711" lon="3.07747">
        <ele>289.5</ele>
        <time>2015-11-29T09:51:16Z</time>
      </trkpt>
      <trkpt lat="43.50715" lon="3.07748">
        <ele>288.5</ele>
        <time>2015-11-29T09:51:17Z</time>
      </trkpt>
      <trkpt lat="43.50719" lon="3.07749">
        <ele>288</ele>
        <time>2015-11-29T09:51:18Z</time>
      </trkpt>
      <trkpt lat="43.50723" lon="3.07749">
        <ele>286.5</ele>
        <time>2015-11-29T09:51:19Z</time>
      </trkpt>
      <trkpt lat="43.50728" lon="3.07748">
        <ele>287</ele>
        <time>2015-11-29T09:51:20Z</time>
      </trkpt>
      <trkpt lat="43.50732" lon="3.07747">
        <ele>286.5</ele>
        <time>2015-11-29T09:51:21Z</time>
      </trkpt>
      <trkpt lat="43.50738" lon="3.07746">
        <ele>285.5</ele>
        <time>2015-11-29T09:51:22Z</time>
      </trkpt>
      <trkpt lat="43.50742" lon="3.07745">
        <ele>285</ele>
        <time>2015-11-29T09:51:23Z</time>
      </trkpt>
      <trkpt lat="43.50746" lon="3.07745">
        <ele>284</ele>
        <time>2015-11-29T09:51:24Z</time>
      </trkpt>
      <trkpt lat="43.50751" lon="3.07744">
        <ele>284</ele>
        <time>2015-11-29T09:51:25Z</time>
      </trkpt>
      <trkpt lat="43.50755" lon="3.07742">
        <ele>284</ele>
        <time>2015-11-29T09:51:26Z</time>
      </trkpt>
      <trkpt lat="43.5076" lon="3.0774">
        <ele>283</ele>
        <time>2015-11-29T09:51:27Z</time>
      </trkpt>
      <trkpt lat="43.50766" lon="3.0774">
        <ele>281.5</ele>
        <time>2015-11-29T09:51:28Z</time>
      </trkpt>
      <trkpt lat="43.50771" lon="3.07738">
        <ele>282</ele>
        <time>2015-11-29T09:51:29Z</time>
      </trkpt>
      <trkpt lat="43.50776" lon="3.07737">
        <ele>281.5</ele>
        <time>2015-11-29T09:51:30Z</time>
      </trkpt>
      <trkpt lat="43.50789" lon="3.07742">
        <ele>280</ele>
        <time>2015-11-29T09:51:32Z</time>
      </trkpt>
      <trkpt lat="43.50794" lon="3.07742">
        <ele>279</ele>
        <time>2015-11-29T09:51:33Z</time>
      </trkpt>
      <trkpt lat="43.50798" lon="3.07744">
        <ele>277</ele>
        <time>2015-11-29T09:51:34Z</time>
      </trkpt>
      <trkpt lat="43.50802" lon="3.07744">
        <ele>275.5</ele>
        <time>2015-11-29T09:51:35Z</time>
      </trkpt>
      <trkpt lat="43.50805" lon="3.07743">
        <ele>275</ele>
        <time>2015-11-29T09:51:36Z</time>
      </trkpt>
      <trkpt lat="43.50809" lon="3.07743">
        <ele>274</ele>
        <time>2015-11-29T09:51:37Z</time>
      </trkpt>
      <trkpt lat="43.50812" lon="3.07744">
        <ele>273.5</ele>
        <time>2015-11-29T09:51:38Z</time>
      </trkpt>
      <trkpt lat="43.50815" lon="3.07745">
        <ele>273</ele>
        <time>2015-11-29T09:51:39Z</time>
      </trkpt>
      <trkpt lat="43.50819" lon="3.07746">
        <ele>271</ele>
        <time>2015-11-29T09:51:40Z</time>
      </trkpt>
      <trkpt lat="43.50829" lon="3.07742">
        <ele>269</ele>
        <time>2015-11-29T09:51:41Z</time>
      </trkpt>
      <trkpt lat="43.50833" lon="3.07743">
        <ele>267.5</ele>
        <time>2015-11-29T09:51:43Z</time>
      </trkpt>
      <trkpt lat="43.50837" lon="3.07745">
        <ele>266.5</ele>
        <time>2015-11-29T09:51:43Z</time>
      </trkpt>
      <trkpt lat="43.50841" lon="3.07747">
        <ele>265.5</ele>
        <time>2015-11-29T09:51:44Z</time>
      </trkpt>
      <trkpt lat="43.50844" lon="3.07749">
        <ele>265</ele>
        <time>2015-11-29T09:51:45Z</time>
      </trkpt>
      <trkpt lat="43.50848" lon="3.07752">
        <ele>264</ele>
        <time>2015-11-29T09:51:46Z</time>
      </trkpt>
      <trkpt lat="43.50852" lon="3.07755">
        <ele>263</ele>
        <time>2015-11-29T09:51:48Z</time>
      </trkpt>
      <trkpt lat="43.50855" lon="3.07758">
        <ele>264.5</ele>
        <time>2015-11-29T09:51:48Z</time>
      </trkpt>
      <trkpt lat="43.50856" lon="3.07762">
        <ele>264</ele>
        <time>2015-11-29T09:51:49Z</time>
      </trkpt>
      <trkpt lat="43.50857" lon="3.07765">
        <ele>263</ele>
        <time>2015-11-29T09:51:50Z</time>
      </trkpt>
      <trkpt lat="43.50858" lon="3.07767">
        <ele>262</ele>
        <time>2015-11-29T09:51:51Z</time>
      </trkpt>
      <trkpt lat="43.5086" lon="3.0777">
        <ele>258.5</ele>
        <time>2015-11-29T09:52:05Z</time>
      </trkpt>
      <trkpt lat="43.50862" lon="3.07777">
        <ele>254.5</ele>
        <time>2015-11-29T09:52:10Z</time>
      </trkpt>
      <trkpt lat="43.50862" lon="3.07779">
        <ele>254.5</ele>
        <time>2015-11-29T09:52:12Z</time>
      </trkpt>
      <trkpt lat="43.50862" lon="3.07781">
        <ele>254</ele>
        <time>2015-11-29T09:52:13Z</time>
      </trkpt>
      <trkpt lat="43.50863" lon="3.07782">
        <ele>253</ele>
        <time>2015-11-29T09:52:16Z</time>
      </trkpt>
      <trkpt lat="43.50863" lon="3.07785">
        <ele>251.5</ele>
        <time>2015-11-29T09:52:19Z</time>
      </trkpt>
      <trkpt lat="43.50863" lon="3.07786">
        <ele>250.5</ele>
        <time>2015-11-29T09:52:22Z</time>
      </trkpt>
      <trkpt lat="43.50863" lon="3.07786">
        <ele>250</ele>
        <time>2015-11-29T09:52:22Z</time>
      </trkpt>
      <trkpt lat="43.50863" lon="3.07786">
        <ele>250</ele>
        <time>2015-11-29T09:52:24Z</time>
      </trkpt>
      <trkpt lat="43.50863" lon="3.07786">
        <ele>250.5</ele>
        <time>2015-11-29T09:52:25Z</time>
      </trkpt>
      <trkpt lat="43.50867" lon="3.07787">
        <ele>253</ele>
        <time>2015-11-29T09:52:31Z</time>
      </trkpt>
      <trkpt lat="43.5087" lon="3.07787">
        <ele>253</ele>
        <time>2015-11-29T09:52:33Z</time>
      </trkpt>
      <trkpt lat="43.50871" lon="3.07786">
        <ele>253</ele>
        <time>2015-11-29T09:52:34Z</time>
      </trkpt>
      <trkpt lat="43.50873" lon="3.07786">
        <ele>252.5</ele>
        <time>2015-11-29T09:52:35Z</time>
      </trkpt>
      <trkpt lat="43.50874" lon="3.07785">
        <ele>252</ele>
        <time>2015-11-29T09:52:36Z</time>
      </trkpt>
      <trkpt lat="43.50874" lon="3.07782">
        <ele>252.5</ele>
        <time>2015-11-29T09:52:37Z</time>
      </trkpt>
      <trkpt lat="43.50874" lon="3.0778">
        <ele>252.5</ele>
        <time>2015-11-29T09:52:38Z</time>
      </trkpt>
      <trkpt lat="43.50874" lon="3.0778">
        <ele>252</ele>
        <time>2015-11-29T09:52:39Z</time>
      </trkpt>
      <trkpt lat="43.50875" lon="3.07779">
        <ele>252</ele>
        <time>2015-11-29T09:52:40Z</time>
      </trkpt>
      <trkpt lat="43.50875" lon="3.07779">
        <ele>252</ele>
        <time>2015-11-29T09:52:41Z</time>
      </trkpt>
      <trkpt lat="43.50876" lon="3.07778">
        <ele>251.5</ele>
        <time>2015-11-29T09:52:42Z</time>
      </trkpt>
      <trkpt lat="43.50876" lon="3.07778">
        <ele>251.5</ele>
        <time>2015-11-29T09:52:43Z</time>
      </trkpt>
      <trkpt lat="43.50876" lon="3.07776">
        <ele>251.5</ele>
        <time>2015-11-29T09:52:47Z</time>
      </trkpt>
      <trkpt lat="43.50878" lon="3.07775">
        <ele>252</ele>
        <time>2015-11-29T09:52:49Z</time>
      </trkpt>
      <trkpt lat="43.50881" lon="3.07772">
        <ele>252</ele>
        <time>2015-11-29T09:52:50Z</time>
      </trkpt>
      <trkpt lat="43.50885" lon="3.0776">
        <ele>250.5</ele>
        <time>2015-11-29T09:52:52Z</time>
      </trkpt>
      <trkpt lat="43.50886" lon="3.07752">
        <ele>249.5</ele>
        <time>2015-11-29T09:52:53Z</time>
      </trkpt>
      <trkpt lat="43.50889" lon="3.07749">
        <ele>250.5</ele>
        <time>2015-11-29T09:52:57Z</time>
      </trkpt>
      <trkpt lat="43.50889" lon="3.0775">
        <ele>250.5</ele>
        <time>2015-11-29T09:52:58Z</time>
      </trkpt>
      <trkpt lat="43.50889" lon="3.07749">
        <ele>250.5</ele>
        <time>2015-11-29T09:52:59Z</time>
      </trkpt>
      <trkpt lat="43.50888" lon="3.07747">
        <ele>250.5</ele>
        <time>2015-11-29T09:53:00Z</time>
      </trkpt>
      <trkpt lat="43.50889" lon="3.07748">
        <ele>252.5</ele>
        <time>2015-11-29T09:53:02Z</time>
      </trkpt>
      <trkpt lat="43.5089" lon="3.07747">
        <ele>253</ele>
        <time>2015-11-29T09:53:09Z</time>
      </trkpt>
      <trkpt lat="43.50891" lon="3.07748">
        <ele>253</ele>
        <time>2015-11-29T09:53:11Z</time>
      </trkpt>
      <trkpt lat="43.50891" lon="3.07748">
        <ele>253</ele>
        <time>2015-11-29T09:53:12Z</time>
      </trkpt>
      <trkpt lat="43.50893" lon="3.07752">
        <ele>254.5</ele>
        <time>2015-11-29T09:53:16Z</time>
      </trkpt>
      <trkpt lat="43.50893" lon="3.07747">
        <ele>254</ele>
        <time>2015-11-29T09:53:30Z</time>
      </trkpt>
      <trkpt lat="43.50893" lon="3.07745">
        <ele>253</ele>
        <time>2015-11-29T09:53:33Z</time>
      </trkpt>
      <trkpt lat="43.50895" lon="3.07747">
        <ele>251.5</ele>
        <time>2015-11-29T09:53:50Z</time>
      </trkpt>
      <trkpt lat="43.50893" lon="3.07744">
        <ele>249.5</ele>
        <time>2015-11-29T09:53:53Z</time>
      </trkpt>
      <trkpt lat="43.50892" lon="3.07742">
        <ele>250</ele>
        <time>2015-11-29T09:53:55Z</time>
      </trkpt>
      <trkpt lat="43.50891" lon="3.07743">
        <ele>251</ele>
        <time>2015-11-29T09:53:56Z</time>
      </trkpt>
      <trkpt lat="43.5089" lon="3.07743">
        <ele>252</ele>
        <time>2015-11-29T09:53:57Z</time>
      </trkpt>
      <trkpt lat="43.5089" lon="3.07744">
        <ele>252</ele>
        <time>2015-11-29T09:53:58Z</time>
      </trkpt>
      <trkpt lat="43.50889" lon="3.07745">
        <ele>252.5</ele>
        <time>2015-11-29T09:53:59Z</time>
      </trkpt>
      <trkpt lat="43.50887" lon="3.07745">
        <ele>253.5</ele>
        <time>2015-11-29T09:54:00Z</time>
      </trkpt>
      <trkpt lat="43.50886" lon="3.07746">
        <ele>253.5</ele>
        <time>2015-11-29T09:54:01Z</time>
      </trkpt>
      <trkpt lat="43.50885" lon="3.07748">
        <ele>253.5</ele>
        <time>2015-11-29T09:54:02Z</time>
      </trkpt>
      <trkpt lat="43.50884" lon="3.0775">
        <ele>253.5</ele>
        <time>2015-11-29T09:54:03Z</time>
      </trkpt>
      <trkpt lat="43.50884" lon="3.07751">
        <ele>253.5</ele>
        <time>2015-11-29T09:54:04Z</time>
      </trkpt>
      <trkpt lat="43.50882" lon="3.07751">
        <ele>254</ele>
        <time>2015-11-29T09:54:05Z</time>
      </trkpt>
      <trkpt lat="43.50881" lon="3.0775">
        <ele>254.5</ele>
        <time>2015-11-29T09:54:06Z</time>
      </trkpt>
      <trkpt lat="43.50881" lon="3.07751">
        <ele>255</ele>
        <time>2015-11-29T09:54:07Z</time>
      </trkpt>
      <trkpt lat="43.50881" lon="3.07752">
        <ele>254.5</ele>
        <time>2015-11-29T09:54:08Z</time>
      </trkpt>
      <trkpt lat="43.50881" lon="3.07752">
        <ele>254.5</ele>
        <time>2015-11-29T09:54:10Z</time>
      </trkpt>
      <trkpt lat="43.50881" lon="3.07752">
        <ele>254.5</ele>
        <time>2015-11-29T09:54:12Z</time>
      </trkpt>
      <trkpt lat="43.50881" lon="3.07751">
        <ele>255</ele>
        <time>2015-11-29T09:54:15Z</time>
      </trkpt>
      <trkpt lat="43.5088" lon="3.0775">
        <ele>254</ele>
        <time>2015-11-29T09:54:17Z</time>
      </trkpt>
      <trkpt lat="43.5088" lon="3.07751">
        <ele>252</ele>
        <time>2015-11-29T09:54:21Z</time>
      </trkpt>
      <trkpt lat="43.5088" lon="3.07748">
        <ele>251.5</ele>
        <time>2015-11-29T09:54:23Z</time>
      </trkpt>
      <trkpt lat="43.5088" lon="3.07745">
        <ele>250</ele>
        <time>2015-11-29T09:54:24Z</time>
      </trkpt>
      <trkpt lat="43.5089" lon="3.07751">
        <ele>248</ele>
        <time>2015-11-29T09:54:26Z</time>
      </trkpt>
      <trkpt lat="43.50891" lon="3.07749">
        <ele>248</ele>
        <time>2015-11-29T09:54:27Z</time>
      </trkpt>
      <trkpt lat="43.50892" lon="3.07751">
        <ele>248</ele>
        <time>2015-11-29T09:54:28Z</time>
      </trkpt>
      <trkpt lat="43.50893" lon="3.07751">
        <ele>248.5</ele>
        <time>2015-11-29T09:54:29Z</time>
      </trkpt>
      <trkpt lat="43.50894" lon="3.0775">
        <ele>249</ele>
        <time>2015-11-29T09:54:30Z</time>
      </trkpt>
      <trkpt lat="43.50894" lon="3.07752">
        <ele>249</ele>
        <time>2015-11-29T09:54:31Z</time>
      </trkpt>
      <trkpt lat="43.50894" lon="3.07753">
        <ele>249</ele>
        <time>2015-11-29T09:54:33Z</time>
      </trkpt>
      <trkpt lat="43.50894" lon="3.07753">
        <ele>248.5</ele>
        <time>2015-11-29T09:54:36Z</time>
      </trkpt>
      <trkpt lat="43.50897" lon="3.07756">
        <ele>247</ele>
        <time>2015-11-29T09:54:50Z</time>
      </trkpt>
      <trkpt lat="43.50897" lon="3.07756">
        <ele>247.5</ele>
        <time>2015-11-29T09:54:52Z</time>
      </trkpt>
      <trkpt lat="43.50899" lon="3.07756">
        <ele>246.5</ele>
        <time>2015-11-29T09:54:53Z</time>
      </trkpt>
      <trkpt lat="43.509" lon="3.07755">
        <ele>246.5</ele>
        <time>2015-11-29T09:54:54Z</time>
      </trkpt>
      <trkpt lat="43.509" lon="3.07753">
        <ele>246.5</ele>
        <time>2015-11-29T09:54:55Z</time>
      </trkpt>
      <trkpt lat="43.50899" lon="3.07751">
        <ele>247.5</ele>
        <time>2015-11-29T09:54:56Z</time>
      </trkpt>
      <trkpt lat="43.509" lon="3.07751">
        <ele>248</ele>
        <time>2015-11-29T09:54:58Z</time>
      </trkpt>
      <trkpt lat="43.50902" lon="3.07752">
        <ele>246.5</ele>
        <time>2015-11-29T09:55:00Z</time>
      </trkpt>
      <trkpt lat="43.50902" lon="3.07753">
        <ele>246.5</ele>
        <time>2015-11-29T09:55:01Z</time>
      </trkpt>
      <trkpt lat="43.50902" lon="3.07753">
        <ele>246.5</ele>
        <time>2015-11-29T09:55:02Z</time>
      </trkpt>
      <trkpt lat="43.50909" lon="3.07759">
        <ele>246.5</ele>
        <time>2015-11-29T09:55:04Z</time>
      </trkpt>
      <trkpt lat="43.50911" lon="3.07756">
        <ele>246.5</ele>
        <time>2015-11-29T09:55:06Z</time>
      </trkpt>
      <trkpt lat="43.50911" lon="3.07756">
        <ele>246.5</ele>
        <time>2015-11-29T09:55:10Z</time>
      </trkpt>
      <trkpt lat="43.50913" lon="3.07755">
        <ele>247</ele>
        <time>2015-11-29T09:55:14Z</time>
      </trkpt>
      <trkpt lat="43.50913" lon="3.0775">
        <ele>248.5</ele>
        <time>2015-11-29T09:55:16Z</time>
      </trkpt>
      <trkpt lat="43.50913" lon="3.07748">
        <ele>248</ele>
        <time>2015-11-29T09:55:17Z</time>
      </trkpt>
      <trkpt lat="43.50911" lon="3.07737">
        <ele>249</ele>
        <time>2015-11-29T09:55:19Z</time>
      </trkpt>
      <trkpt lat="43.5091" lon="3.07731">
        <ele>248.5</ele>
        <time>2015-11-29T09:55:20Z</time>
      </trkpt>
      <trkpt lat="43.50909" lon="3.07724">
        <ele>247</ele>
        <time>2015-11-29T09:55:21Z</time>
      </trkpt>
      <trkpt lat="43.5091" lon="3.07717">
        <ele>246.5</ele>
        <time>2015-11-29T09:55:22Z</time>
      </trkpt>
      <trkpt lat="43.50908" lon="3.07699">
        <ele>246</ele>
        <time>2015-11-29T09:55:24Z</time>
      </trkpt>
      <trkpt lat="43.50908" lon="3.07692">
        <ele>248</ele>
        <time>2015-11-29T09:55:25Z</time>
      </trkpt>
      <trkpt lat="43.50908" lon="3.07683">
        <ele>249</ele>
        <time>2015-11-29T09:55:26Z</time>
      </trkpt>
      <trkpt lat="43.50909" lon="3.07675">
        <ele>248</ele>
        <time>2015-11-29T09:55:27Z</time>
      </trkpt>
      <trkpt lat="43.50908" lon="3.07666">
        <ele>248</ele>
        <time>2015-11-29T09:55:28Z</time>
      </trkpt>
      <trkpt lat="43.50905" lon="3.07656">
        <ele>246</ele>
        <time>2015-11-29T09:55:29Z</time>
      </trkpt>
      <trkpt lat="43.50903" lon="3.07647">
        <ele>245.5</ele>
        <time>2015-11-29T09:55:30Z</time>
      </trkpt>
      <trkpt lat="43.50897" lon="3.07637">
        <ele>244.5</ele>
        <time>2015-11-29T09:55:32Z</time>
      </trkpt>
      <trkpt lat="43.50893" lon="3.07635">
        <ele>245.5</ele>
        <time>2015-11-29T09:55:33Z</time>
      </trkpt>
      <trkpt lat="43.50889" lon="3.07632">
        <ele>244.5</ele>
        <time>2015-11-29T09:55:34Z</time>
      </trkpt>
      <trkpt lat="43.50885" lon="3.07631">
        <ele>245</ele>
        <time>2015-11-29T09:55:35Z</time>
      </trkpt>
      <trkpt lat="43.50882" lon="3.07628">
        <ele>244</ele>
        <time>2015-11-29T09:55:36Z</time>
      </trkpt>
      <trkpt lat="43.50879" lon="3.07627">
        <ele>245.5</ele>
        <time>2015-11-29T09:55:37Z</time>
      </trkpt>
      <trkpt lat="43.50875" lon="3.07625">
        <ele>245.5</ele>
        <time>2015-11-29T09:55:38Z</time>
      </trkpt>
      <trkpt lat="43.50871" lon="3.07623">
        <ele>245.5</ele>
        <time>2015-11-29T09:55:39Z</time>
      </trkpt>
      <trkpt lat="43.50868" lon="3.0762">
        <ele>244.5</ele>
        <time>2015-11-29T09:55:40Z</time>
      </trkpt>
      <trkpt lat="43.5087" lon="3.07614">
        <ele>244.5</ele>
        <time>2015-11-29T09:55:41Z</time>
      </trkpt>
      <trkpt lat="43.50867" lon="3.07612">
        <ele>244.5</ele>
        <time>2015-11-29T09:55:42Z</time>
      </trkpt>
      <trkpt lat="43.50864" lon="3.0761">
        <ele>244</ele>
        <time>2015-11-29T09:55:43Z</time>
      </trkpt>
      <trkpt lat="43.50861" lon="3.07606">
        <ele>243.5</ele>
        <time>2015-11-29T09:55:44Z</time>
      </trkpt>
      <trkpt lat="43.50858" lon="3.07602">
        <ele>242.5</ele>
        <time>2015-11-29T09:55:45Z</time>
      </trkpt>
      <trkpt lat="43.50855" lon="3.07597">
        <ele>242</ele>
        <time>2015-11-29T09:55:46Z</time>
      </trkpt>
      <trkpt lat="43.50853" lon="3.07592">
        <ele>241.5</ele>
        <time>2015-11-29T09:55:47Z</time>
      </trkpt>
      <trkpt lat="43.50851" lon="3.07585">
        <ele>241</ele>
        <time>2015-11-29T09:55:48Z</time>
      </trkpt>
      <trkpt lat="43.5085" lon="3.07578">
        <ele>240.5</ele>
        <time>2015-11-29T09:55:49Z</time>
      </trkpt>
      <trkpt lat="43.50848" lon="3.07571">
        <ele>240</ele>
        <time>2015-11-29T09:55:50Z</time>
      </trkpt>
      <trkpt lat="43.50847" lon="3.07564">
        <ele>238</ele>
        <time>2015-11-29T09:55:51Z</time>
      </trkpt>
      <trkpt lat="43.50846" lon="3.07559">
        <ele>238</ele>
        <time>2015-11-29T09:55:52Z</time>
      </trkpt>
      <trkpt lat="43.50845" lon="3.07552">
        <ele>236.5</ele>
        <time>2015-11-29T09:55:52Z</time>
      </trkpt>
      <trkpt lat="43.50844" lon="3.07545">
        <ele>233.5</ele>
        <time>2015-11-29T09:55:53Z</time>
      </trkpt>
      <trkpt lat="43.50845" lon="3.07539">
        <ele>232</ele>
        <time>2015-11-29T09:55:55Z</time>
      </trkpt>
      <trkpt lat="43.50844" lon="3.07534">
        <ele>232</ele>
        <time>2015-11-29T09:55:55Z</time>
      </trkpt>
      <trkpt lat="43.50844" lon="3.07529">
        <ele>231.5</ele>
        <time>2015-11-29T09:55:56Z</time>
      </trkpt>
      <trkpt lat="43.50844" lon="3.07525">
        <ele>232.5</ele>
        <time>2015-11-29T09:55:57Z</time>
      </trkpt>
      <trkpt lat="43.50844" lon="3.0752">
        <ele>232</ele>
        <time>2015-11-29T09:55:58Z</time>
      </trkpt>
      <trkpt lat="43.50844" lon="3.07517">
        <ele>231.5</ele>
        <time>2015-11-29T09:55:59Z</time>
      </trkpt>
      <trkpt lat="43.50844" lon="3.07514">
        <ele>231</ele>
        <time>2015-11-29T09:56:00Z</time>
      </trkpt>
      <trkpt lat="43.50843" lon="3.07512">
        <ele>232.5</ele>
        <time>2015-11-29T09:56:01Z</time>
      </trkpt>
      <trkpt lat="43.50841" lon="3.07512">
        <ele>232.5</ele>
        <time>2015-11-29T09:56:02Z</time>
      </trkpt>
      <trkpt lat="43.5084" lon="3.07513">
        <ele>232.5</ele>
        <time>2015-11-29T09:56:03Z</time>
      </trkpt>
      <trkpt lat="43.50839" lon="3.07514">
        <ele>232</ele>
        <time>2015-11-29T09:56:04Z</time>
      </trkpt>
      <trkpt lat="43.5084" lon="3.07515">
        <ele>233</ele>
        <time>2015-11-29T09:56:05Z</time>
      </trkpt>
      <trkpt lat="43.50839" lon="3.07517">
        <ele>234.5</ele>
        <time>2015-11-29T09:56:06Z</time>
      </trkpt>
      <trkpt lat="43.5084" lon="3.0752">
        <ele>234.5</ele>
        <time>2015-11-29T09:56:07Z</time>
      </trkpt>
      <trkpt lat="43.5084" lon="3.07523">
        <ele>234</ele>
        <time>2015-11-29T09:56:08Z</time>
      </trkpt>
      <trkpt lat="43.5084" lon="3.07527">
        <ele>234</ele>
        <time>2015-11-29T09:56:09Z</time>
      </trkpt>
      <trkpt lat="43.5084" lon="3.0753">
        <ele>234</ele>
        <time>2015-11-29T09:56:10Z</time>
      </trkpt>
      <trkpt lat="43.5084" lon="3.07532">
        <ele>234</ele>
        <time>2015-11-29T09:56:11Z</time>
      </trkpt>
      <trkpt lat="43.50841" lon="3.07535">
        <ele>233.5</ele>
        <time>2015-11-29T09:56:12Z</time>
      </trkpt>
      <trkpt lat="43.50841" lon="3.07537">
        <ele>233.5</ele>
        <time>2015-11-29T09:56:13Z</time>
      </trkpt>
      <trkpt lat="43.50842" lon="3.07539">
        <ele>233.5</ele>
        <time>2015-11-29T09:56:14Z</time>
      </trkpt>
      <trkpt lat="43.50842" lon="3.0754">
        <ele>233</ele>
        <time>2015-11-29T09:56:15Z</time>
      </trkpt>
      <trkpt lat="43.50843" lon="3.0754">
        <ele>232</ele>
        <time>2015-11-29T09:56:16Z</time>
      </trkpt>
      <trkpt lat="43.50844" lon="3.07541">
        <ele>232</ele>
        <time>2015-11-29T09:56:17Z</time>
      </trkpt>
      <trkpt lat="43.50844" lon="3.0754">
        <ele>233</ele>
        <time>2015-11-29T09:56:18Z</time>
      </trkpt>
      <trkpt lat="43.50845" lon="3.07539">
        <ele>233</ele>
        <time>2015-11-29T09:56:19Z</time>
      </trkpt>
      <trkpt lat="43.50846" lon="3.0754">
        <ele>232.5</ele>
        <time>2015-11-29T09:56:20Z</time>
      </trkpt>
      <trkpt lat="43.50846" lon="3.07541">
        <ele>232.5</ele>
        <time>2015-11-29T09:56:21Z</time>
      </trkpt>
      <trkpt lat="43.50846" lon="3.07542">
        <ele>232</ele>
        <time>2015-11-29T09:56:22Z</time>
      </trkpt>
      <trkpt lat="43.50846" lon="3.07543">
        <ele>231.5</ele>
        <time>2015-11-29T09:56:23Z</time>
      </trkpt>
      <trkpt lat="43.50846" lon="3.07544">
        <ele>231</ele>
        <time>2015-11-29T09:56:24Z</time>
      </trkpt>
      <trkpt lat="43.50846" lon="3.07545">
        <ele>231</ele>
        <time>2015-11-29T09:56:26Z</time>
      </trkpt>
      <trkpt lat="43.50846" lon="3.07546">
        <ele>230.5</ele>
        <time>2015-11-29T09:56:28Z</time>
      </trkpt>
      <trkpt lat="43.50847" lon="3.07546">
        <ele>230</ele>
        <time>2015-11-29T09:56:37Z</time>
      </trkpt>
      <trkpt lat="43.50847" lon="3.07548">
        <ele>235</ele>
        <time>2015-11-29T09:57:03Z</time>
      </trkpt>
      <trkpt lat="43.50845" lon="3.07548">
        <ele>238</ele>
        <time>2015-11-29T09:57:05Z</time>
      </trkpt>
      <trkpt lat="43.50845" lon="3.07547">
        <ele>238.5</ele>
        <time>2015-11-29T09:57:06Z</time>
      </trkpt>
      <trkpt lat="43.50844" lon="3.07546">
        <ele>239</ele>
        <time>2015-11-29T09:57:07Z</time>
      </trkpt>
      <trkpt lat="43.50844" lon="3.07545">
        <ele>239.5</ele>
        <time>2015-11-29T09:57:08Z</time>
      </trkpt>
      <trkpt lat="43.50844" lon="3.07544">
        <ele>240</ele>
        <time>2015-11-29T09:57:09Z</time>
      </trkpt>
      <trkpt lat="43.50844" lon="3.07541">
        <ele>240</ele>
        <time>2015-11-29T09:57:10Z</time>
      </trkpt>
      <trkpt lat="43.50844" lon="3.07538">
        <ele>239.5</ele>
        <time>2015-11-29T09:57:11Z</time>
      </trkpt>
      <trkpt lat="43.50844" lon="3.07535">
        <ele>239</ele>
        <time>2015-11-29T09:57:12Z</time>
      </trkpt>
      <trkpt lat="43.50844" lon="3.07532">
        <ele>238</ele>
        <time>2015-11-29T09:57:13Z</time>
      </trkpt>
      <trkpt lat="43.50843" lon="3.07529">
        <ele>236</ele>
        <time>2015-11-29T09:57:14Z</time>
      </trkpt>
      <trkpt lat="43.50843" lon="3.07525">
        <ele>235</ele>
        <time>2015-11-29T09:57:15Z</time>
      </trkpt>
      <trkpt lat="43.50843" lon="3.07522">
        <ele>233.5</ele>
        <time>2015-11-29T09:57:16Z</time>
      </trkpt>
      <trkpt lat="43.50843" lon="3.07519">
        <ele>234</ele>
        <time>2015-11-29T09:57:17Z</time>
      </trkpt>
      <trkpt lat="43.50843" lon="3.07516">
        <ele>233.5</ele>
        <time>2015-11-29T09:57:19Z</time>
      </trkpt>
      <trkpt lat="43.5084" lon="3.07514">
        <ele>234</ele>
        <time>2015-11-29T09:57:19Z</time>
      </trkpt>
      <trkpt lat="43.50838" lon="3.07512">
        <ele>233</ele>
        <time>2015-11-29T09:57:20Z</time>
      </trkpt>
      <trkpt lat="43.5084" lon="3.07512">
        <ele>233</ele>
        <time>2015-11-29T09:57:21Z</time>
      </trkpt>
      <trkpt lat="43.50842" lon="3.07513">
        <ele>233.5</ele>
        <time>2015-11-29T09:57:22Z</time>
      </trkpt>
      <trkpt lat="43.50839" lon="3.07514">
        <ele>233.5</ele>
        <time>2015-11-29T09:57:23Z</time>
      </trkpt>
      <trkpt lat="43.50834" lon="3.07504">
        <ele>233.5</ele>
        <time>2015-11-29T09:57:25Z</time>
      </trkpt>
      <trkpt lat="43.5083" lon="3.07503">
        <ele>233.5</ele>
        <time>2015-11-29T09:57:26Z</time>
      </trkpt>
      <trkpt lat="43.50828" lon="3.07504">
        <ele>233</ele>
        <time>2015-11-29T09:57:27Z</time>
      </trkpt>
      <trkpt lat="43.50825" lon="3.07503">
        <ele>233</ele>
        <time>2015-11-29T09:57:28Z</time>
      </trkpt>
      <trkpt lat="43.50821" lon="3.07501">
        <ele>233</ele>
        <time>2015-11-29T09:57:29Z</time>
      </trkpt>
      <trkpt lat="43.50818" lon="3.07498">
        <ele>233</ele>
        <time>2015-11-29T09:57:30Z</time>
      </trkpt>
      <trkpt lat="43.50814" lon="3.07493">
        <ele>233</ele>
        <time>2015-11-29T09:57:31Z</time>
      </trkpt>
      <trkpt lat="43.5081" lon="3.07491">
        <ele>233</ele>
        <time>2015-11-29T09:57:32Z</time>
      </trkpt>
      <trkpt lat="43.50806" lon="3.0749">
        <ele>233</ele>
        <time>2015-11-29T09:57:33Z</time>
      </trkpt>
      <trkpt lat="43.50802" lon="3.07487">
        <ele>231.5</ele>
        <time>2015-11-29T09:57:34Z</time>
      </trkpt>
      <trkpt lat="43.50799" lon="3.07485">
        <ele>233</ele>
        <time>2015-11-29T09:57:35Z</time>
      </trkpt>
      <trkpt lat="43.50795" lon="3.07484">
        <ele>235.5</ele>
        <time>2015-11-29T09:57:36Z</time>
      </trkpt>
      <trkpt lat="43.50793" lon="3.07483">
        <ele>236</ele>
        <time>2015-11-29T09:57:37Z</time>
      </trkpt>
      <trkpt lat="43.5079" lon="3.07482">
        <ele>235.5</ele>
        <time>2015-11-29T09:57:38Z</time>
      </trkpt>
      <trkpt lat="43.50787" lon="3.07484">
        <ele>237</ele>
        <time>2015-11-29T09:57:39Z</time>
      </trkpt>
      <trkpt lat="43.5078" lon="3.07476">
        <ele>231.5</ele>
        <time>2015-11-29T09:57:41Z</time>
      </trkpt>
      <trkpt lat="43.50778" lon="3.07474">
        <ele>230</ele>
        <time>2015-11-29T09:57:42Z</time>
      </trkpt>
      <trkpt lat="43.50775" lon="3.07472">
        <ele>231</ele>
        <time>2015-11-29T09:57:43Z</time>
      </trkpt>
      <trkpt lat="43.50771" lon="3.0747">
        <ele>229.5</ele>
        <time>2015-11-29T09:57:44Z</time>
      </trkpt>
      <trkpt lat="43.50768" lon="3.07468">
        <ele>228</ele>
        <time>2015-11-29T09:57:45Z</time>
      </trkpt>
      <trkpt lat="43.50766" lon="3.07465">
        <ele>226</ele>
        <time>2015-11-29T09:57:46Z</time>
      </trkpt>
      <trkpt lat="43.50764" lon="3.07464">
        <ele>227</ele>
        <time>2015-11-29T09:57:47Z</time>
      </trkpt>
      <trkpt lat="43.50762" lon="3.07463">
        <ele>226.5</ele>
        <time>2015-11-29T09:57:48Z</time>
      </trkpt>
      <trkpt lat="43.5076" lon="3.07463">
        <ele>227</ele>
        <time>2015-11-29T09:57:49Z</time>
      </trkpt>
      <trkpt lat="43.50759" lon="3.07461">
        <ele>225.5</ele>
        <time>2015-11-29T09:57:50Z</time>
      </trkpt>
      <trkpt lat="43.50757" lon="3.07463">
        <ele>225.5</ele>
        <time>2015-11-29T09:58:11Z</time>
      </trkpt>
      <trkpt lat="43.50756" lon="3.07462">
        <ele>226</ele>
        <time>2015-11-29T09:58:24Z</time>
      </trkpt>
      <trkpt lat="43.50754" lon="3.07466">
        <ele>229</ele>
        <time>2015-11-29T09:58:49Z</time>
      </trkpt>
      <trkpt lat="43.50754" lon="3.07465">
        <ele>230</ele>
        <time>2015-11-29T09:58:51Z</time>
      </trkpt>
      <trkpt lat="43.50754" lon="3.07466">
        <ele>232.5</ele>
        <time>2015-11-29T09:59:05Z</time>
      </trkpt>
      <trkpt lat="43.50753" lon="3.07467">
        <ele>233</ele>
        <time>2015-11-29T09:59:08Z</time>
      </trkpt>
      <trkpt lat="43.50752" lon="3.07466">
        <ele>233</ele>
        <time>2015-11-29T09:59:10Z</time>
      </trkpt>
      <trkpt lat="43.50752" lon="3.07467">
        <ele>234</ele>
        <time>2015-11-29T09:59:11Z</time>
      </trkpt>
      <trkpt lat="43.50751" lon="3.07467">
        <ele>234.5</ele>
        <time>2015-11-29T09:59:16Z</time>
      </trkpt>
      <trkpt lat="43.50751" lon="3.07467">
        <ele>234.5</ele>
        <time>2015-11-29T09:59:18Z</time>
      </trkpt>
      <trkpt lat="43.50751" lon="3.07467">
        <ele>234</ele>
        <time>2015-11-29T09:59:21Z</time>
      </trkpt>
      <trkpt lat="43.50751" lon="3.07466">
        <ele>233.5</ele>
        <time>2015-11-29T09:59:23Z</time>
      </trkpt>
      <trkpt lat="43.5075" lon="3.07469">
        <ele>233.5</ele>
        <time>2015-11-29T09:59:26Z</time>
      </trkpt>
      <trkpt lat="43.50752" lon="3.07468">
        <ele>235</ele>
        <time>2015-11-29T09:59:47Z</time>
      </trkpt>
      <trkpt lat="43.50751" lon="3.07469">
        <ele>235.5</ele>
        <time>2015-11-29T09:59:50Z</time>
      </trkpt>
      <trkpt lat="43.50752" lon="3.07471">
        <ele>236</ele>
        <time>2015-11-29T09:59:24Z</time>
      </trkpt>
      <trkpt lat="43.50752" lon="3.07473">
        <ele>236</ele>
        <time>2015-11-29T09:59:32Z</time>
      </trkpt>
      <trkpt lat="43.50751" lon="3.07476">
        <ele>236</ele>
        <time>2015-11-29T09:59:36Z</time>
      </trkpt>
      <trkpt lat="43.5075" lon="3.07476">
        <ele>234.5</ele>
        <time>2015-11-29T09:59:38Z</time>
      </trkpt>
      <trkpt lat="43.5075" lon="3.07476">
        <ele>235</ele>
        <time>2015-11-29T09:59:39Z</time>
      </trkpt>
      <trkpt lat="43.5075" lon="3.07476">
        <ele>234.5</ele>
        <time>2015-11-29T09:59:44Z</time>
      </trkpt>
      <trkpt lat="43.50749" lon="3.07477">
        <ele>234.5</ele>
        <time>2015-11-29T09:59:49Z</time>
      </trkpt>
      <trkpt lat="43.50749" lon="3.07482">
        <ele>234</ele>
        <time>2015-11-29T09:59:58Z</time>
      </trkpt>
      <trkpt lat="43.5075" lon="3.07481">
        <ele>234.5</ele>
        <time>2015-11-29T10:00:00Z</time>
      </trkpt>
      <trkpt lat="43.50751" lon="3.0748">
        <ele>235</ele>
        <time>2015-11-29T10:00:02Z</time>
      </trkpt>
      <trkpt lat="43.50751" lon="3.0748">
        <ele>235</ele>
        <time>2015-11-29T10:00:03Z</time>
      </trkpt>
      <trkpt lat="43.50751" lon="3.07481">
        <ele>235</ele>
        <time>2015-11-29T10:00:09Z</time>
      </trkpt>
      <trkpt lat="43.50751" lon="3.07481">
        <ele>235.5</ele>
        <time>2015-11-29T10:00:21Z</time>
      </trkpt>
      <trkpt lat="43.50751" lon="3.0748">
        <ele>236</ele>
        <time>2015-11-29T10:00:24Z</time>
      </trkpt>
      <trkpt lat="43.50751" lon="3.07478">
        <ele>235.5</ele>
        <time>2015-11-29T10:00:29Z</time>
      </trkpt>
      <trkpt lat="43.5075" lon="3.07485">
        <ele>235.5</ele>
        <time>2015-11-29T10:00:34Z</time>
      </trkpt>
      <trkpt lat="43.5075" lon="3.07482">
        <ele>234.5</ele>
        <time>2015-11-29T10:00:42Z</time>
      </trkpt>
      <trkpt lat="43.5075" lon="3.07483">
        <ele>235</ele>
        <time>2015-11-29T10:00:44Z</time>
      </trkpt>
      <trkpt lat="43.50751" lon="3.07475">
        <ele>235.5</ele>
        <time>2015-11-29T10:00:57Z</time>
      </trkpt>
      <trkpt lat="43.50751" lon="3.07474">
        <ele>235.5</ele>
        <time>2015-11-29T10:00:59Z</time>
      </trkpt>
      <trkpt lat="43.50751" lon="3.07474">
        <ele>236</ele>
        <time>2015-11-29T10:01:01Z</time>
      </trkpt>
      <trkpt lat="43.50751" lon="3.0747">
        <ele>235</ele>
        <time>2015-11-29T10:01:24Z</time>
      </trkpt>
      <trkpt lat="43.5075" lon="3.07471">
        <ele>235</ele>
        <time>2015-11-29T10:01:26Z</time>
      </trkpt>
      <trkpt lat="43.50749" lon="3.07473">
        <ele>236.5</ele>
        <time>2015-11-29T10:01:30Z</time>
      </trkpt>
      <trkpt lat="43.50747" lon="3.07472">
        <ele>235.5</ele>
        <time>2015-11-29T10:01:32Z</time>
      </trkpt>
      <trkpt lat="43.50745" lon="3.0747">
        <ele>235</ele>
        <time>2015-11-29T10:01:33Z</time>
      </trkpt>
      <trkpt lat="43.50744" lon="3.07469">
        <ele>234.5</ele>
        <time>2015-11-29T10:01:34Z</time>
      </trkpt>
      <trkpt lat="43.50742" lon="3.07466">
        <ele>234</ele>
        <time>2015-11-29T10:01:35Z</time>
      </trkpt>
      <trkpt lat="43.5074" lon="3.07466">
        <ele>233.5</ele>
        <time>2015-11-29T10:01:36Z</time>
      </trkpt>
      <trkpt lat="43.50737" lon="3.07464">
        <ele>233</ele>
        <time>2015-11-29T10:01:37Z</time>
      </trkpt>
      <trkpt lat="43.50735" lon="3.07463">
        <ele>232.5</ele>
        <time>2015-11-29T10:01:38Z</time>
      </trkpt>
      <trkpt lat="43.50733" lon="3.07462">
        <ele>232.5</ele>
        <time>2015-11-29T10:01:39Z</time>
      </trkpt>
      <trkpt lat="43.50731" lon="3.07461">
        <ele>232</ele>
        <time>2015-11-29T10:01:40Z</time>
      </trkpt>
      <trkpt lat="43.50729" lon="3.0746">
        <ele>231.5</ele>
        <time>2015-11-29T10:01:41Z</time>
      </trkpt>
      <trkpt lat="43.50727" lon="3.07458">
        <ele>231.5</ele>
        <time>2015-11-29T10:01:42Z</time>
      </trkpt>
      <trkpt lat="43.50725" lon="3.07455">
        <ele>231</ele>
        <time>2015-11-29T10:01:43Z</time>
      </trkpt>
      <trkpt lat="43.50722" lon="3.07455">
        <ele>231</ele>
        <time>2015-11-29T10:01:44Z</time>
      </trkpt>
      <trkpt lat="43.50719" lon="3.07453">
        <ele>230.5</ele>
        <time>2015-11-29T10:01:45Z</time>
      </trkpt>
      <trkpt lat="43.50716" lon="3.07451">
        <ele>230</ele>
        <time>2015-11-29T10:01:46Z</time>
      </trkpt>
      <trkpt lat="43.50713" lon="3.0745">
        <ele>230.5</ele>
        <time>2015-11-29T10:01:47Z</time>
      </trkpt>
      <trkpt lat="43.50711" lon="3.07445">
        <ele>230.5</ele>
        <time>2015-11-29T10:01:48Z</time>
      </trkpt>
      <trkpt lat="43.50708" lon="3.07444">
        <ele>230</ele>
        <time>2015-11-29T10:01:49Z</time>
      </trkpt>
      <trkpt lat="43.50706" lon="3.07441">
        <ele>229</ele>
        <time>2015-11-29T10:01:50Z</time>
      </trkpt>
      <trkpt lat="43.50704" lon="3.0744">
        <ele>229.5</ele>
        <time>2015-11-29T10:01:51Z</time>
      </trkpt>
      <trkpt lat="43.50702" lon="3.07439">
        <ele>229.5</ele>
        <time>2015-11-29T10:01:52Z</time>
      </trkpt>
      <trkpt lat="43.507" lon="3.07438">
        <ele>230.5</ele>
        <time>2015-11-29T10:01:53Z</time>
      </trkpt>
      <trkpt lat="43.50698" lon="3.07436">
        <ele>230.5</ele>
        <time>2015-11-29T10:01:54Z</time>
      </trkpt>
      <trkpt lat="43.50696" lon="3.07435">
        <ele>231</ele>
        <time>2015-11-29T10:01:55Z</time>
      </trkpt>
      <trkpt lat="43.50694" lon="3.07433">
        <ele>231</ele>
        <time>2015-11-29T10:01:56Z</time>
      </trkpt>
      <trkpt lat="43.50692" lon="3.07432">
        <ele>231.5</ele>
        <time>2015-11-29T10:01:57Z</time>
      </trkpt>
      <trkpt lat="43.50691" lon="3.07429">
        <ele>232</ele>
        <time>2015-11-29T10:01:58Z</time>
      </trkpt>
      <trkpt lat="43.50689" lon="3.07428">
        <ele>232.5</ele>
        <time>2015-11-29T10:01:59Z</time>
      </trkpt>
      <trkpt lat="43.50687" lon="3.07427">
        <ele>234</ele>
        <time>2015-11-29T10:02:00Z</time>
      </trkpt>
      <trkpt lat="43.50686" lon="3.07425">
        <ele>234</ele>
        <time>2015-11-29T10:02:01Z</time>
      </trkpt>
      <trkpt lat="43.50685" lon="3.07423">
        <ele>234</ele>
        <time>2015-11-29T10:02:02Z</time>
      </trkpt>
      <trkpt lat="43.50684" lon="3.0742">
        <ele>234.5</ele>
        <time>2015-11-29T10:02:03Z</time>
      </trkpt>
      <trkpt lat="43.50683" lon="3.07418">
        <ele>235</ele>
        <time>2015-11-29T10:02:04Z</time>
      </trkpt>
      <trkpt lat="43.50682" lon="3.07416">
        <ele>235.5</ele>
        <time>2015-11-29T10:02:05Z</time>
      </trkpt>
      <trkpt lat="43.50681" lon="3.07413">
        <ele>235.5</ele>
        <time>2015-11-29T10:02:06Z</time>
      </trkpt>
      <trkpt lat="43.5068" lon="3.0741">
        <ele>235.5</ele>
        <time>2015-11-29T10:02:07Z</time>
      </trkpt>
      <trkpt lat="43.5068" lon="3.07407">
        <ele>235</ele>
        <time>2015-11-29T10:02:08Z</time>
      </trkpt>
      <trkpt lat="43.50679" lon="3.07405">
        <ele>235.5</ele>
        <time>2015-11-29T10:02:09Z</time>
      </trkpt>
      <trkpt lat="43.50679" lon="3.07403">
        <ele>236.5</ele>
        <time>2015-11-29T10:02:10Z</time>
      </trkpt>
      <trkpt lat="43.50678" lon="3.07401">
        <ele>237</ele>
        <time>2015-11-29T10:02:11Z</time>
      </trkpt>
      <trkpt lat="43.50678" lon="3.074">
        <ele>238</ele>
        <time>2015-11-29T10:02:12Z</time>
      </trkpt>
      <trkpt lat="43.50678" lon="3.07398">
        <ele>239</ele>
        <time>2015-11-29T10:02:13Z</time>
      </trkpt>
      <trkpt lat="43.50678" lon="3.07396">
        <ele>239.5</ele>
        <time>2015-11-29T10:02:14Z</time>
      </trkpt>
      <trkpt lat="43.50678" lon="3.07394">
        <ele>239.5</ele>
        <time>2015-11-29T10:02:15Z</time>
      </trkpt>
      <trkpt lat="43.50678" lon="3.07392">
        <ele>239</ele>
        <time>2015-11-29T10:02:16Z</time>
      </trkpt>
      <trkpt lat="43.50679" lon="3.0739">
        <ele>239</ele>
        <time>2015-11-29T10:02:17Z</time>
      </trkpt>
      <trkpt lat="43.50679" lon="3.07389">
        <ele>239</ele>
        <time>2015-11-29T10:02:18Z</time>
      </trkpt>
      <trkpt lat="43.50679" lon="3.07388">
        <ele>239.5</ele>
        <time>2015-11-29T10:02:19Z</time>
      </trkpt>
      <trkpt lat="43.50679" lon="3.07387">
        <ele>240.5</ele>
        <time>2015-11-29T10:02:20Z</time>
      </trkpt>
      <trkpt lat="43.5068" lon="3.07386">
        <ele>240</ele>
        <time>2015-11-29T10:02:21Z</time>
      </trkpt>
      <trkpt lat="43.5068" lon="3.07385">
        <ele>240.5</ele>
        <time>2015-11-29T10:02:22Z</time>
      </trkpt>
      <trkpt lat="43.50679" lon="3.07383">
        <ele>242</ele>
        <time>2015-11-29T10:02:23Z</time>
      </trkpt>
      <trkpt lat="43.50679" lon="3.07381">
        <ele>241.5</ele>
        <time>2015-11-29T10:02:24Z</time>
      </trkpt>
      <trkpt lat="43.5068" lon="3.07379">
        <ele>242</ele>
        <time>2015-11-29T10:02:25Z</time>
      </trkpt>
      <trkpt lat="43.5068" lon="3.07377">
        <ele>242.5</ele>
        <time>2015-11-29T10:02:26Z</time>
      </trkpt>
      <trkpt lat="43.5068" lon="3.07375">
        <ele>243</ele>
        <time>2015-11-29T10:02:27Z</time>
      </trkpt>
      <trkpt lat="43.5068" lon="3.07372">
        <ele>243.5</ele>
        <time>2015-11-29T10:02:28Z</time>
      </trkpt>
      <trkpt lat="43.5068" lon="3.07368">
        <ele>244</ele>
        <time>2015-11-29T10:02:29Z</time>
      </trkpt>
      <trkpt lat="43.50681" lon="3.07366">
        <ele>244</ele>
        <time>2015-11-29T10:02:30Z</time>
      </trkpt>
      <trkpt lat="43.50682" lon="3.07363">
        <ele>244.5</ele>
        <time>2015-11-29T10:02:31Z</time>
      </trkpt>
      <trkpt lat="43.50682" lon="3.0736">
        <ele>244.5</ele>
        <time>2015-11-29T10:02:32Z</time>
      </trkpt>
      <trkpt lat="43.50682" lon="3.07357">
        <ele>244.5</ele>
        <time>2015-11-29T10:02:33Z</time>
      </trkpt>
      <trkpt lat="43.50684" lon="3.07354">
        <ele>243.5</ele>
        <time>2015-11-29T10:02:34Z</time>
      </trkpt>
      <trkpt lat="43.50686" lon="3.07351">
        <ele>242.5</ele>
        <time>2015-11-29T10:02:35Z</time>
      </trkpt>
      <trkpt lat="43.50686" lon="3.07348">
        <ele>242.5</ele>
        <time>2015-11-29T10:02:36Z</time>
      </trkpt>
      <trkpt lat="43.50686" lon="3.07346">
        <ele>244</ele>
        <time>2015-11-29T10:02:37Z</time>
      </trkpt>
      <trkpt lat="43.50687" lon="3.07344">
        <ele>244</ele>
        <time>2015-11-29T10:02:38Z</time>
      </trkpt>
      <trkpt lat="43.50687" lon="3.07342">
        <ele>245</ele>
        <time>2015-11-29T10:02:39Z</time>
      </trkpt>
      <trkpt lat="43.50686" lon="3.07338">
        <ele>245</ele>
        <time>2015-11-29T10:02:40Z</time>
      </trkpt>
      <trkpt lat="43.50687" lon="3.07336">
        <ele>244</ele>
        <time>2015-11-29T10:02:41Z</time>
      </trkpt>
      <trkpt lat="43.50687" lon="3.07334">
        <ele>244</ele>
        <time>2015-11-29T10:02:42Z</time>
      </trkpt>
      <trkpt lat="43.50687" lon="3.0733">
        <ele>244.5</ele>
        <time>2015-11-29T10:02:43Z</time>
      </trkpt>
      <trkpt lat="43.50687" lon="3.07326">
        <ele>244</ele>
        <time>2015-11-29T10:02:44Z</time>
      </trkpt>
      <trkpt lat="43.50687" lon="3.07323">
        <ele>245</ele>
        <time>2015-11-29T10:02:45Z</time>
      </trkpt>
      <trkpt lat="43.50686" lon="3.0732">
        <ele>246.5</ele>
        <time>2015-11-29T10:02:46Z</time>
      </trkpt>
      <trkpt lat="43.50687" lon="3.07318">
        <ele>247</ele>
        <time>2015-11-29T10:02:47Z</time>
      </trkpt>
      <trkpt lat="43.50688" lon="3.0731">
        <ele>244.5</ele>
        <time>2015-11-29T10:02:49Z</time>
      </trkpt>
      <trkpt lat="43.5069" lon="3.07308">
        <ele>244.5</ele>
        <time>2015-11-29T10:02:50Z</time>
      </trkpt>
      <trkpt lat="43.50688" lon="3.07305">
        <ele>246</ele>
        <time>2015-11-29T10:02:51Z</time>
      </trkpt>
      <trkpt lat="43.50688" lon="3.07302">
        <ele>247</ele>
        <time>2015-11-29T10:02:52Z</time>
      </trkpt>
      <trkpt lat="43.50688" lon="3.07299">
        <ele>247</ele>
        <time>2015-11-29T10:02:53Z</time>
      </trkpt>
      <trkpt lat="43.50688" lon="3.07297">
        <ele>247.5</ele>
        <time>2015-11-29T10:02:54Z</time>
      </trkpt>
      <trkpt lat="43.50688" lon="3.07293">
        <ele>247</ele>
        <time>2015-11-29T10:02:55Z</time>
      </trkpt>
      <trkpt lat="43.50688" lon="3.07291">
        <ele>247.5</ele>
        <time>2015-11-29T10:02:56Z</time>
      </trkpt>
      <trkpt lat="43.50688" lon="3.07288">
        <ele>248.5</ele>
        <time>2015-11-29T10:02:57Z</time>
      </trkpt>
      <trkpt lat="43.50688" lon="3.07286">
        <ele>249.5</ele>
        <time>2015-11-29T10:02:58Z</time>
      </trkpt>
      <trkpt lat="43.50688" lon="3.07283">
        <ele>250.5</ele>
        <time>2015-11-29T10:02:59Z</time>
      </trkpt>
      <trkpt lat="43.50688" lon="3.0728">
        <ele>250.5</ele>
        <time>2015-11-29T10:03:00Z</time>
      </trkpt>
      <trkpt lat="43.50688" lon="3.07278">
        <ele>250</ele>
        <time>2015-11-29T10:03:01Z</time>
      </trkpt>
      <trkpt lat="43.50688" lon="3.07275">
        <ele>250</ele>
        <time>2015-11-29T10:03:02Z</time>
      </trkpt>
      <trkpt lat="43.50688" lon="3.07272">
        <ele>249.5</ele>
        <time>2015-11-29T10:03:03Z</time>
      </trkpt>
      <trkpt lat="43.50688" lon="3.07271">
        <ele>250</ele>
        <time>2015-11-29T10:03:04Z</time>
      </trkpt>
      <trkpt lat="43.50688" lon="3.07269">
        <ele>250.5</ele>
        <time>2015-11-29T10:03:05Z</time>
      </trkpt>
      <trkpt lat="43.50689" lon="3.07268">
        <ele>250.5</ele>
        <time>2015-11-29T10:03:06Z</time>
      </trkpt>
      <trkpt lat="43.50689" lon="3.07265">
        <ele>251</ele>
        <time>2015-11-29T10:03:07Z</time>
      </trkpt>
      <trkpt lat="43.50688" lon="3.07263">
        <ele>251.5</ele>
        <time>2015-11-29T10:03:08Z</time>
      </trkpt>
      <trkpt lat="43.50688" lon="3.07261">
        <ele>251.5</ele>
        <time>2015-11-29T10:03:09Z</time>
      </trkpt>
      <trkpt lat="43.50688" lon="3.07258">
        <ele>251</ele>
        <time>2015-11-29T10:03:10Z</time>
      </trkpt>
      <trkpt lat="43.50688" lon="3.07255">
        <ele>251</ele>
        <time>2015-11-29T10:03:11Z</time>
      </trkpt>
      <trkpt lat="43.50688" lon="3.07253">
        <ele>251.5</ele>
        <time>2015-11-29T10:03:12Z</time>
      </trkpt>
      <trkpt lat="43.50688" lon="3.07251">
        <ele>251.5</ele>
        <time>2015-11-29T10:03:13Z</time>
      </trkpt>
      <trkpt lat="43.50689" lon="3.0725">
        <ele>251.5</ele>
        <time>2015-11-29T10:03:14Z</time>
      </trkpt>
      <trkpt lat="43.50689" lon="3.07248">
        <ele>251.5</ele>
        <time>2015-11-29T10:03:15Z</time>
      </trkpt>
      <trkpt lat="43.50689" lon="3.07246">
        <ele>251.5</ele>
        <time>2015-11-29T10:03:16Z</time>
      </trkpt>
      <trkpt lat="43.50689" lon="3.07244">
        <ele>252</ele>
        <time>2015-11-29T10:03:17Z</time>
      </trkpt>
      <trkpt lat="43.5069" lon="3.07242">
        <ele>251</ele>
        <time>2015-11-29T10:03:18Z</time>
      </trkpt>
      <trkpt lat="43.50691" lon="3.07241">
        <ele>249.5</ele>
        <time>2015-11-29T10:03:19Z</time>
      </trkpt>
      <trkpt lat="43.50692" lon="3.07238">
        <ele>249.5</ele>
        <time>2015-11-29T10:03:20Z</time>
      </trkpt>
      <trkpt lat="43.50693" lon="3.07236">
        <ele>249</ele>
        <time>2015-11-29T10:03:21Z</time>
      </trkpt>
      <trkpt lat="43.50693" lon="3.07234">
        <ele>248.5</ele>
        <time>2015-11-29T10:03:22Z</time>
      </trkpt>
      <trkpt lat="43.50693" lon="3.07231">
        <ele>249</ele>
        <time>2015-11-29T10:03:23Z</time>
      </trkpt>
      <trkpt lat="43.50693" lon="3.07228">
        <ele>249</ele>
        <time>2015-11-29T10:03:24Z</time>
      </trkpt>
      <trkpt lat="43.50693" lon="3.07226">
        <ele>250</ele>
        <time>2015-11-29T10:03:25Z</time>
      </trkpt>
      <trkpt lat="43.50692" lon="3.07224">
        <ele>250.5</ele>
        <time>2015-11-29T10:03:26Z</time>
      </trkpt>
      <trkpt lat="43.50693" lon="3.07222">
        <ele>251</ele>
        <time>2015-11-29T10:03:27Z</time>
      </trkpt>
      <trkpt lat="43.50693" lon="3.0722">
        <ele>251.5</ele>
        <time>2015-11-29T10:03:28Z</time>
      </trkpt>
      <trkpt lat="43.50692" lon="3.07217">
        <ele>252.5</ele>
        <time>2015-11-29T10:03:29Z</time>
      </trkpt>
      <trkpt lat="43.50692" lon="3.07214">
        <ele>252</ele>
        <time>2015-11-29T10:03:30Z</time>
      </trkpt>
      <trkpt lat="43.50693" lon="3.07212">
        <ele>252.5</ele>
        <time>2015-11-29T10:03:31Z</time>
      </trkpt>
      <trkpt lat="43.50693" lon="3.07209">
        <ele>253</ele>
        <time>2015-11-29T10:03:32Z</time>
      </trkpt>
      <trkpt lat="43.50694" lon="3.07206">
        <ele>252.5</ele>
        <time>2015-11-29T10:03:33Z</time>
      </trkpt>
      <trkpt lat="43.50694" lon="3.07204">
        <ele>253</ele>
        <time>2015-11-29T10:03:34Z</time>
      </trkpt>
      <trkpt lat="43.50695" lon="3.07202">
        <ele>253</ele>
        <time>2015-11-29T10:03:35Z</time>
      </trkpt>
      <trkpt lat="43.50696" lon="3.07199">
        <ele>253</ele>
        <time>2015-11-29T10:03:36Z</time>
      </trkpt>
      <trkpt lat="43.50696" lon="3.07196">
        <ele>252.5</ele>
        <time>2015-11-29T10:03:37Z</time>
      </trkpt>
      <trkpt lat="43.50697" lon="3.07193">
        <ele>252</ele>
        <time>2015-11-29T10:03:38Z</time>
      </trkpt>
      <trkpt lat="43.50698" lon="3.07189">
        <ele>251.5</ele>
        <time>2015-11-29T10:03:39Z</time>
      </trkpt>
      <trkpt lat="43.50698" lon="3.07186">
        <ele>251.5</ele>
        <time>2015-11-29T10:03:40Z</time>
      </trkpt>
      <trkpt lat="43.50699" lon="3.07184">
        <ele>251.5</ele>
        <time>2015-11-29T10:03:41Z</time>
      </trkpt>
      <trkpt lat="43.507" lon="3.07181">
        <ele>251.5</ele>
        <time>2015-11-29T10:03:42Z</time>
      </trkpt>
      <trkpt lat="43.507" lon="3.07178">
        <ele>251.5</ele>
        <time>2015-11-29T10:03:43Z</time>
      </trkpt>
      <trkpt lat="43.507" lon="3.07175">
        <ele>252</ele>
        <time>2015-11-29T10:03:44Z</time>
      </trkpt>
      <trkpt lat="43.507" lon="3.07172">
        <ele>252</ele>
        <time>2015-11-29T10:03:45Z</time>
      </trkpt>
      <trkpt lat="43.50701" lon="3.0717">
        <ele>252</ele>
        <time>2015-11-29T10:03:46Z</time>
      </trkpt>
      <trkpt lat="43.50701" lon="3.07167">
        <ele>252</ele>
        <time>2015-11-29T10:03:47Z</time>
      </trkpt>
      <trkpt lat="43.50702" lon="3.07164">
        <ele>252</ele>
        <time>2015-11-29T10:03:48Z</time>
      </trkpt>
      <trkpt lat="43.50702" lon="3.07161">
        <ele>252.5</ele>
        <time>2015-11-29T10:03:49Z</time>
      </trkpt>
      <trkpt lat="43.50702" lon="3.07158">
        <ele>253.5</ele>
        <time>2015-11-29T10:03:50Z</time>
      </trkpt>
      <trkpt lat="43.50702" lon="3.07156">
        <ele>254</ele>
        <time>2015-11-29T10:03:51Z</time>
      </trkpt>
      <trkpt lat="43.50703" lon="3.07153">
        <ele>254</ele>
        <time>2015-11-29T10:03:52Z</time>
      </trkpt>
      <trkpt lat="43.50703" lon="3.07151">
        <ele>254.5</ele>
        <time>2015-11-29T10:03:53Z</time>
      </trkpt>
      <trkpt lat="43.50703" lon="3.07148">
        <ele>254.5</ele>
        <time>2015-11-29T10:03:54Z</time>
      </trkpt>
      <trkpt lat="43.50703" lon="3.07146">
        <ele>254.5</ele>
        <time>2015-11-29T10:03:55Z</time>
      </trkpt>
      <trkpt lat="43.50704" lon="3.07143">
        <ele>254.5</ele>
        <time>2015-11-29T10:03:56Z</time>
      </trkpt>
      <trkpt lat="43.50704" lon="3.07141">
        <ele>254.5</ele>
        <time>2015-11-29T10:03:57Z</time>
      </trkpt>
      <trkpt lat="43.50704" lon="3.07139">
        <ele>254.5</ele>
        <time>2015-11-29T10:03:58Z</time>
      </trkpt>
      <trkpt lat="43.50705" lon="3.07136">
        <ele>254.5</ele>
        <time>2015-11-29T10:03:59Z</time>
      </trkpt>
      <trkpt lat="43.50705" lon="3.07134">
        <ele>254.5</ele>
        <time>2015-11-29T10:04:00Z</time>
      </trkpt>
      <trkpt lat="43.50706" lon="3.07132">
        <ele>254</ele>
        <time>2015-11-29T10:04:01Z</time>
      </trkpt>
      <trkpt lat="43.50706" lon="3.07129">
        <ele>254</ele>
        <time>2015-11-29T10:04:02Z</time>
      </trkpt>
      <trkpt lat="43.50706" lon="3.07126">
        <ele>254.5</ele>
        <time>2015-11-29T10:04:03Z</time>
      </trkpt>
      <trkpt lat="43.50705" lon="3.07123">
        <ele>254</ele>
        <time>2015-11-29T10:04:04Z</time>
      </trkpt>
      <trkpt lat="43.50706" lon="3.07121">
        <ele>254.5</ele>
        <time>2015-11-29T10:04:05Z</time>
      </trkpt>
      <trkpt lat="43.50707" lon="3.0712">
        <ele>255</ele>
        <time>2015-11-29T10:04:06Z</time>
      </trkpt>
      <trkpt lat="43.50707" lon="3.07117">
        <ele>254.5</ele>
        <time>2015-11-29T10:04:07Z</time>
      </trkpt>
      <trkpt lat="43.50708" lon="3.07114">
        <ele>254</ele>
        <time>2015-11-29T10:04:08Z</time>
      </trkpt>
      <trkpt lat="43.50708" lon="3.07112">
        <ele>253.5</ele>
        <time>2015-11-29T10:04:09Z</time>
      </trkpt>
      <trkpt lat="43.50709" lon="3.0711">
        <ele>253</ele>
        <time>2015-11-29T10:04:10Z</time>
      </trkpt>
      <trkpt lat="43.50709" lon="3.07108">
        <ele>253</ele>
        <time>2015-11-29T10:04:11Z</time>
      </trkpt>
      <trkpt lat="43.50709" lon="3.07105">
        <ele>253</ele>
        <time>2015-11-29T10:04:12Z</time>
      </trkpt>
      <trkpt lat="43.5071" lon="3.07103">
        <ele>253.5</ele>
        <time>2015-11-29T10:04:13Z</time>
      </trkpt>
      <trkpt lat="43.5071" lon="3.07101">
        <ele>253.5</ele>
        <time>2015-11-29T10:04:14Z</time>
      </trkpt>
      <trkpt lat="43.5071" lon="3.07098">
        <ele>253.5</ele>
        <time>2015-11-29T10:04:15Z</time>
      </trkpt>
      <trkpt lat="43.5071" lon="3.07096">
        <ele>254</ele>
        <time>2015-11-29T10:04:16Z</time>
      </trkpt>
      <trkpt lat="43.50709" lon="3.07093">
        <ele>255</ele>
        <time>2015-11-29T10:04:17Z</time>
      </trkpt>
      <trkpt lat="43.50709" lon="3.07091">
        <ele>255.5</ele>
        <time>2015-11-29T10:04:18Z</time>
      </trkpt>
      <trkpt lat="43.50708" lon="3.07088">
        <ele>256</ele>
        <time>2015-11-29T10:04:19Z</time>
      </trkpt>
      <trkpt lat="43.50707" lon="3.07086">
        <ele>257</ele>
        <time>2015-11-29T10:04:20Z</time>
      </trkpt>
      <trkpt lat="43.50706" lon="3.07084">
        <ele>257</ele>
        <time>2015-11-29T10:04:21Z</time>
      </trkpt>
      <trkpt lat="43.50706" lon="3.07082">
        <ele>257.5</ele>
        <time>2015-11-29T10:04:22Z</time>
      </trkpt>
      <trkpt lat="43.50705" lon="3.07079">
        <ele>258</ele>
        <time>2015-11-29T10:04:23Z</time>
      </trkpt>
      <trkpt lat="43.50704" lon="3.07078">
        <ele>258</ele>
        <time>2015-11-29T10:04:24Z</time>
      </trkpt>
      <trkpt lat="43.50702" lon="3.07075">
        <ele>258</ele>
        <time>2015-11-29T10:04:25Z</time>
      </trkpt>
      <trkpt lat="43.50701" lon="3.07074">
        <ele>259</ele>
        <time>2015-11-29T10:04:26Z</time>
      </trkpt>
      <trkpt lat="43.50702" lon="3.07074">
        <ele>258.5</ele>
        <time>2015-11-29T10:04:27Z</time>
      </trkpt>
      <trkpt lat="43.50703" lon="3.07073">
        <ele>258.5</ele>
        <time>2015-11-29T10:04:28Z</time>
      </trkpt>
      <trkpt lat="43.50702" lon="3.07072">
        <ele>259</ele>
        <time>2015-11-29T10:04:29Z</time>
      </trkpt>
      <trkpt lat="43.50702" lon="3.07071">
        <ele>258.5</ele>
        <time>2015-11-29T10:04:30Z</time>
      </trkpt>
      <trkpt lat="43.50701" lon="3.0707">
        <ele>259</ele>
        <time>2015-11-29T10:04:31Z</time>
      </trkpt>
      <trkpt lat="43.50701" lon="3.07068">
        <ele>259</ele>
        <time>2015-11-29T10:04:32Z</time>
      </trkpt>
      <trkpt lat="43.50702" lon="3.07068">
        <ele>259</ele>
        <time>2015-11-29T10:04:33Z</time>
      </trkpt>
      <trkpt lat="43.50702" lon="3.07067">
        <ele>259</ele>
        <time>2015-11-29T10:04:34Z</time>
      </trkpt>
      <trkpt lat="43.50702" lon="3.07067">
        <ele>259</ele>
        <time>2015-11-29T10:04:35Z</time>
      </trkpt>
      <trkpt lat="43.50702" lon="3.07067">
        <ele>259.5</ele>
        <time>2015-11-29T10:04:36Z</time>
      </trkpt>
      <trkpt lat="43.50703" lon="3.07068">
        <ele>259</ele>
        <time>2015-11-29T10:04:37Z</time>
      </trkpt>
      <trkpt lat="43.50703" lon="3.07068">
        <ele>259.5</ele>
        <time>2015-11-29T10:04:38Z</time>
      </trkpt>
      <trkpt lat="43.50702" lon="3.07067">
        <ele>259</ele>
        <time>2015-11-29T10:04:39Z</time>
      </trkpt>
      <trkpt lat="43.50702" lon="3.07068">
        <ele>259</ele>
        <time>2015-11-29T10:04:40Z</time>
      </trkpt>
      <trkpt lat="43.50702" lon="3.07069">
        <ele>259</ele>
        <time>2015-11-29T10:04:41Z</time>
      </trkpt>
      <trkpt lat="43.50701" lon="3.0707">
        <ele>258.5</ele>
        <time>2015-11-29T10:04:42Z</time>
      </trkpt>
      <trkpt lat="43.507" lon="3.07069">
        <ele>257</ele>
        <time>2015-11-29T10:04:43Z</time>
      </trkpt>
      <trkpt lat="43.50699" lon="3.07069">
        <ele>256.5</ele>
        <time>2015-11-29T10:04:44Z</time>
      </trkpt>
      <trkpt lat="43.50697" lon="3.07069">
        <ele>256</ele>
        <time>2015-11-29T10:04:45Z</time>
      </trkpt>
      <trkpt lat="43.50695" lon="3.07069">
        <ele>256</ele>
        <time>2015-11-29T10:04:46Z</time>
      </trkpt>
      <trkpt lat="43.50694" lon="3.0707">
        <ele>257</ele>
        <time>2015-11-29T10:04:47Z</time>
      </trkpt>
      <trkpt lat="43.50693" lon="3.07071">
        <ele>257.5</ele>
        <time>2015-11-29T10:04:47Z</time>
      </trkpt>
      <trkpt lat="43.50691" lon="3.07071">
        <ele>258</ele>
        <time>2015-11-29T10:04:48Z</time>
      </trkpt>
      <trkpt lat="43.50691" lon="3.07072">
        <ele>257.5</ele>
        <time>2015-11-29T10:04:49Z</time>
      </trkpt>
      <trkpt lat="43.50692" lon="3.07071">
        <ele>257.5</ele>
        <time>2015-11-29T10:04:53Z</time>
      </trkpt>
      <trkpt lat="43.50693" lon="3.07071">
        <ele>257</ele>
        <time>2015-11-29T10:04:55Z</time>
      </trkpt>
      <trkpt lat="43.50694" lon="3.07071">
        <ele>257</ele>
        <time>2015-11-29T10:04:56Z</time>
      </trkpt>
      <trkpt lat="43.50694" lon="3.07071">
        <ele>256.5</ele>
        <time>2015-11-29T10:04:57Z</time>
      </trkpt>
      <trkpt lat="43.50695" lon="3.07071">
        <ele>258.5</ele>
        <time>2015-11-29T10:05:10Z</time>
      </trkpt>
      <trkpt lat="43.50694" lon="3.07072">
        <ele>257.5</ele>
        <time>2015-11-29T10:05:13Z</time>
      </trkpt>
      <trkpt lat="43.50693" lon="3.07072">
        <ele>257.5</ele>
        <time>2015-11-29T10:05:13Z</time>
      </trkpt>
      <trkpt lat="43.50693" lon="3.07072">
        <ele>258.5</ele>
        <time>2015-11-29T10:05:21Z</time>
      </trkpt>
      <trkpt lat="43.50691" lon="3.07074">
        <ele>259</ele>
        <time>2015-11-29T10:05:23Z</time>
      </trkpt>
      <trkpt lat="43.50689" lon="3.07075">
        <ele>258.5</ele>
        <time>2015-11-29T10:05:24Z</time>
      </trkpt>
      <trkpt lat="43.50687" lon="3.07075">
        <ele>258.5</ele>
        <time>2015-11-29T10:05:26Z</time>
      </trkpt>
      <trkpt lat="43.50685" lon="3.07075">
        <ele>258</ele>
        <time>2015-11-29T10:05:26Z</time>
      </trkpt>
      <trkpt lat="43.50683" lon="3.07074">
        <ele>257.5</ele>
        <time>2015-11-29T10:05:27Z</time>
      </trkpt>
      <trkpt lat="43.50682" lon="3.07074">
        <ele>257</ele>
        <time>2015-11-29T10:05:28Z</time>
      </trkpt>
      <trkpt lat="43.50679" lon="3.07074">
        <ele>256.5</ele>
        <time>2015-11-29T10:05:29Z</time>
      </trkpt>
      <trkpt lat="43.50677" lon="3.07074">
        <ele>256</ele>
        <time>2015-11-29T10:05:31Z</time>
      </trkpt>
      <trkpt lat="43.50675" lon="3.07074">
        <ele>255.5</ele>
        <time>2015-11-29T10:05:31Z</time>
      </trkpt>
      <trkpt lat="43.50673" lon="3.07075">
        <ele>255</ele>
        <time>2015-11-29T10:05:32Z</time>
      </trkpt>
      <trkpt lat="43.5067" lon="3.07076">
        <ele>256</ele>
        <time>2015-11-29T10:05:33Z</time>
      </trkpt>
      <trkpt lat="43.50669" lon="3.07077">
        <ele>255.5</ele>
        <time>2015-11-29T10:05:34Z</time>
      </trkpt>
      <trkpt lat="43.50667" lon="3.07078">
        <ele>256</ele>
        <time>2015-11-29T10:05:35Z</time>
      </trkpt>
      <trkpt lat="43.50667" lon="3.0708">
        <ele>256.5</ele>
        <time>2015-11-29T10:05:36Z</time>
      </trkpt>
      <trkpt lat="43.50667" lon="3.07082">
        <ele>257.5</ele>
        <time>2015-11-29T10:05:37Z</time>
      </trkpt>
      <trkpt lat="43.50666" lon="3.07083">
        <ele>257.5</ele>
        <time>2015-11-29T10:05:38Z</time>
      </trkpt>
      <trkpt lat="43.50666" lon="3.07085">
        <ele>257.5</ele>
        <time>2015-11-29T10:05:39Z</time>
      </trkpt>
      <trkpt lat="43.50666" lon="3.07087">
        <ele>257.5</ele>
        <time>2015-11-29T10:05:40Z</time>
      </trkpt>
      <trkpt lat="43.50666" lon="3.07089">
        <ele>257.5</ele>
        <time>2015-11-29T10:05:41Z</time>
      </trkpt>
      <trkpt lat="43.50666" lon="3.07091">
        <ele>257.5</ele>
        <time>2015-11-29T10:05:42Z</time>
      </trkpt>
      <trkpt lat="43.50666" lon="3.07093">
        <ele>257.5</ele>
        <time>2015-11-29T10:05:43Z</time>
      </trkpt>
      <trkpt lat="43.50666" lon="3.07095">
        <ele>257.5</ele>
        <time>2015-11-29T10:05:44Z</time>
      </trkpt>
      <trkpt lat="43.50665" lon="3.07097">
        <ele>258</ele>
        <time>2015-11-29T10:05:45Z</time>
      </trkpt>
      <trkpt lat="43.50665" lon="3.07099">
        <ele>258</ele>
        <time>2015-11-29T10:05:46Z</time>
      </trkpt>
      <trkpt lat="43.50664" lon="3.071">
        <ele>258.5</ele>
        <time>2015-11-29T10:05:47Z</time>
      </trkpt>
      <trkpt lat="43.50664" lon="3.07102">
        <ele>259.5</ele>
        <time>2015-11-29T10:05:48Z</time>
      </trkpt>
      <trkpt lat="43.50663" lon="3.07105">
        <ele>259.5</ele>
        <time>2015-11-29T10:05:49Z</time>
      </trkpt>
      <trkpt lat="43.50663" lon="3.07107">
        <ele>260</ele>
        <time>2015-11-29T10:05:50Z</time>
      </trkpt>
      <trkpt lat="43.50662" lon="3.07109">
        <ele>260</ele>
        <time>2015-11-29T10:05:51Z</time>
      </trkpt>
      <trkpt lat="43.50662" lon="3.07111">
        <ele>260.5</ele>
        <time>2015-11-29T10:05:52Z</time>
      </trkpt>
      <trkpt lat="43.50661" lon="3.07113">
        <ele>261</ele>
        <time>2015-11-29T10:05:53Z</time>
      </trkpt>
      <trkpt lat="43.5066" lon="3.07115">
        <ele>260.5</ele>
        <time>2015-11-29T10:05:54Z</time>
      </trkpt>
      <trkpt lat="43.50659" lon="3.07118">
        <ele>261</ele>
        <time>2015-11-29T10:05:55Z</time>
      </trkpt>
      <trkpt lat="43.50659" lon="3.0712">
        <ele>261.5</ele>
        <time>2015-11-29T10:05:56Z</time>
      </trkpt>
      <trkpt lat="43.50658" lon="3.07122">
        <ele>261.5</ele>
        <time>2015-11-29T10:05:57Z</time>
      </trkpt>
      <trkpt lat="43.50657" lon="3.07124">
        <ele>262</ele>
        <time>2015-11-29T10:05:58Z</time>
      </trkpt>
      <trkpt lat="43.50656" lon="3.07126">
        <ele>262</ele>
        <time>2015-11-29T10:05:59Z</time>
      </trkpt>
      <trkpt lat="43.50655" lon="3.07128">
        <ele>262</ele>
        <time>2015-11-29T10:06:00Z</time>
      </trkpt>
      <trkpt lat="43.50654" lon="3.0713">
        <ele>263</ele>
        <time>2015-11-29T10:06:01Z</time>
      </trkpt>
      <trkpt lat="43.50654" lon="3.07132">
        <ele>263.5</ele>
        <time>2015-11-29T10:06:02Z</time>
      </trkpt>
      <trkpt lat="43.50654" lon="3.07134">
        <ele>264.5</ele>
        <time>2015-11-29T10:06:03Z</time>
      </trkpt>
      <trkpt lat="43.50653" lon="3.07136">
        <ele>264.5</ele>
        <time>2015-11-29T10:06:04Z</time>
      </trkpt>
      <trkpt lat="43.50652" lon="3.07138">
        <ele>265</ele>
        <time>2015-11-29T10:06:05Z</time>
      </trkpt>
      <trkpt lat="43.50651" lon="3.07141">
        <ele>265</ele>
        <time>2015-11-29T10:06:06Z</time>
      </trkpt>
      <trkpt lat="43.5065" lon="3.07143">
        <ele>264.5</ele>
        <time>2015-11-29T10:06:07Z</time>
      </trkpt>
      <trkpt lat="43.50648" lon="3.07146">
        <ele>264.5</ele>
        <time>2015-11-29T10:06:08Z</time>
      </trkpt>
      <trkpt lat="43.50648" lon="3.07148">
        <ele>265</ele>
        <time>2015-11-29T10:06:09Z</time>
      </trkpt>
      <trkpt lat="43.50647" lon="3.0715">
        <ele>265.5</ele>
        <time>2015-11-29T10:06:10Z</time>
      </trkpt>
      <trkpt lat="43.50646" lon="3.07152">
        <ele>265.5</ele>
        <time>2015-11-29T10:06:11Z</time>
      </trkpt>
      <trkpt lat="43.50645" lon="3.07155">
        <ele>265.5</ele>
        <time>2015-11-29T10:06:12Z</time>
      </trkpt>
      <trkpt lat="43.50645" lon="3.07157">
        <ele>266</ele>
        <time>2015-11-29T10:06:13Z</time>
      </trkpt>
      <trkpt lat="43.50644" lon="3.07159">
        <ele>266</ele>
        <time>2015-11-29T10:06:14Z</time>
      </trkpt>
      <trkpt lat="43.50643" lon="3.07161">
        <ele>266</ele>
        <time>2015-11-29T10:06:15Z</time>
      </trkpt>
      <trkpt lat="43.50643" lon="3.07164">
        <ele>266.5</ele>
        <time>2015-11-29T10:06:16Z</time>
      </trkpt>
      <trkpt lat="43.50643" lon="3.07166">
        <ele>267</ele>
        <time>2015-11-29T10:06:17Z</time>
      </trkpt>
      <trkpt lat="43.50641" lon="3.07169">
        <ele>267</ele>
        <time>2015-11-29T10:06:18Z</time>
      </trkpt>
      <trkpt lat="43.50642" lon="3.07171">
        <ele>267.5</ele>
        <time>2015-11-29T10:06:19Z</time>
      </trkpt>
      <trkpt lat="43.50642" lon="3.07173">
        <ele>268</ele>
        <time>2015-11-29T10:06:20Z</time>
      </trkpt>
      <trkpt lat="43.5064" lon="3.07175">
        <ele>267.5</ele>
        <time>2015-11-29T10:06:21Z</time>
      </trkpt>
      <trkpt lat="43.50639" lon="3.07177">
        <ele>267</ele>
        <time>2015-11-29T10:06:22Z</time>
      </trkpt>
      <trkpt lat="43.50637" lon="3.0718">
        <ele>267</ele>
        <time>2015-11-29T10:06:23Z</time>
      </trkpt>
      <trkpt lat="43.50637" lon="3.07182">
        <ele>267.5</ele>
        <time>2015-11-29T10:06:24Z</time>
      </trkpt>
      <trkpt lat="43.50637" lon="3.07184">
        <ele>267.5</ele>
        <time>2015-11-29T10:06:25Z</time>
      </trkpt>
      <trkpt lat="43.50637" lon="3.07186">
        <ele>269</ele>
        <time>2015-11-29T10:06:26Z</time>
      </trkpt>
      <trkpt lat="43.50637" lon="3.07188">
        <ele>269</ele>
        <time>2015-11-29T10:06:27Z</time>
      </trkpt>
      <trkpt lat="43.50636" lon="3.0719">
        <ele>269.5</ele>
        <time>2015-11-29T10:06:28Z</time>
      </trkpt>
      <trkpt lat="43.50635" lon="3.07192">
        <ele>270</ele>
        <time>2015-11-29T10:06:29Z</time>
      </trkpt>
      <trkpt lat="43.50634" lon="3.07194">
        <ele>270</ele>
        <time>2015-11-29T10:06:30Z</time>
      </trkpt>
      <trkpt lat="43.50633" lon="3.07197">
        <ele>270.5</ele>
        <time>2015-11-29T10:06:31Z</time>
      </trkpt>
      <trkpt lat="43.50632" lon="3.07199">
        <ele>271</ele>
        <time>2015-11-29T10:06:32Z</time>
      </trkpt>
      <trkpt lat="43.50631" lon="3.07202">
        <ele>271.5</ele>
        <time>2015-11-29T10:06:33Z</time>
      </trkpt>
      <trkpt lat="43.50631" lon="3.07204">
        <ele>272</ele>
        <time>2015-11-29T10:06:34Z</time>
      </trkpt>
      <trkpt lat="43.50629" lon="3.07206">
        <ele>271.5</ele>
        <time>2015-11-29T10:06:35Z</time>
      </trkpt>
      <trkpt lat="43.50628" lon="3.07209">
        <ele>271.5</ele>
        <time>2015-11-29T10:06:36Z</time>
      </trkpt>
      <trkpt lat="43.50627" lon="3.07211">
        <ele>271.5</ele>
        <time>2015-11-29T10:06:37Z</time>
      </trkpt>
      <trkpt lat="43.50626" lon="3.07213">
        <ele>271.5</ele>
        <time>2015-11-29T10:06:38Z</time>
      </trkpt>
      <trkpt lat="43.50625" lon="3.07215">
        <ele>272</ele>
        <time>2015-11-29T10:06:39Z</time>
      </trkpt>
      <trkpt lat="43.50624" lon="3.07218">
        <ele>272</ele>
        <time>2015-11-29T10:06:40Z</time>
      </trkpt>
      <trkpt lat="43.50623" lon="3.0722">
        <ele>272.5</ele>
        <time>2015-11-29T10:06:41Z</time>
      </trkpt>
      <trkpt lat="43.50622" lon="3.07222">
        <ele>272.5</ele>
        <time>2015-11-29T10:06:42Z</time>
      </trkpt>
      <trkpt lat="43.50621" lon="3.07224">
        <ele>273.5</ele>
        <time>2015-11-29T10:06:43Z</time>
      </trkpt>
      <trkpt lat="43.5062" lon="3.07226">
        <ele>273</ele>
        <time>2015-11-29T10:06:44Z</time>
      </trkpt>
      <trkpt lat="43.50618" lon="3.07228">
        <ele>273</ele>
        <time>2015-11-29T10:06:45Z</time>
      </trkpt>
      <trkpt lat="43.50617" lon="3.0723">
        <ele>273</ele>
        <time>2015-11-29T10:06:46Z</time>
      </trkpt>
      <trkpt lat="43.50616" lon="3.07232">
        <ele>272.5</ele>
        <time>2015-11-29T10:06:47Z</time>
      </trkpt>
      <trkpt lat="43.50615" lon="3.07235">
        <ele>273</ele>
        <time>2015-11-29T10:06:48Z</time>
      </trkpt>
      <trkpt lat="43.50613" lon="3.07237">
        <ele>272.5</ele>
        <time>2015-11-29T10:06:49Z</time>
      </trkpt>
      <trkpt lat="43.50612" lon="3.07239">
        <ele>273</ele>
        <time>2015-11-29T10:06:50Z</time>
      </trkpt>
      <trkpt lat="43.5061" lon="3.0724">
        <ele>272.5</ele>
        <time>2015-11-29T10:06:51Z</time>
      </trkpt>
      <trkpt lat="43.50608" lon="3.07242">
        <ele>273</ele>
        <time>2015-11-29T10:06:52Z</time>
      </trkpt>
      <trkpt lat="43.50607" lon="3.07243">
        <ele>273</ele>
        <time>2015-11-29T10:06:53Z</time>
      </trkpt>
      <trkpt lat="43.50605" lon="3.07245">
        <ele>273.5</ele>
        <time>2015-11-29T10:06:54Z</time>
      </trkpt>
      <trkpt lat="43.50603" lon="3.07246">
        <ele>274</ele>
        <time>2015-11-29T10:06:55Z</time>
      </trkpt>
      <trkpt lat="43.50602" lon="3.07247">
        <ele>274.5</ele>
        <time>2015-11-29T10:06:56Z</time>
      </trkpt>
      <trkpt lat="43.506" lon="3.07248">
        <ele>275</ele>
        <time>2015-11-29T10:06:57Z</time>
      </trkpt>
      <trkpt lat="43.50598" lon="3.07248">
        <ele>275</ele>
        <time>2015-11-29T10:06:58Z</time>
      </trkpt>
      <trkpt lat="43.50596" lon="3.07247">
        <ele>275</ele>
        <time>2015-11-29T10:06:59Z</time>
      </trkpt>
      <trkpt lat="43.50594" lon="3.07247">
        <ele>275</ele>
        <time>2015-11-29T10:07:00Z</time>
      </trkpt>
      <trkpt lat="43.50592" lon="3.07245">
        <ele>275</ele>
        <time>2015-11-29T10:07:01Z</time>
      </trkpt>
      <trkpt lat="43.5059" lon="3.07243">
        <ele>274.5</ele>
        <time>2015-11-29T10:07:02Z</time>
      </trkpt>
      <trkpt lat="43.50589" lon="3.07242">
        <ele>275</ele>
        <time>2015-11-29T10:07:03Z</time>
      </trkpt>
      <trkpt lat="43.50587" lon="3.07239">
        <ele>274.5</ele>
        <time>2015-11-29T10:07:04Z</time>
      </trkpt>
      <trkpt lat="43.50586" lon="3.07237">
        <ele>274.5</ele>
        <time>2015-11-29T10:07:05Z</time>
      </trkpt>
      <trkpt lat="43.50585" lon="3.07235">
        <ele>274</ele>
        <time>2015-11-29T10:07:06Z</time>
      </trkpt>
      <trkpt lat="43.50584" lon="3.07232">
        <ele>274.5</ele>
        <time>2015-11-29T10:07:07Z</time>
      </trkpt>
      <trkpt lat="43.50584" lon="3.0723">
        <ele>274.5</ele>
        <time>2015-11-29T10:07:08Z</time>
      </trkpt>
      <trkpt lat="43.50583" lon="3.07227">
        <ele>274.5</ele>
        <time>2015-11-29T10:07:09Z</time>
      </trkpt>
      <trkpt lat="43.50582" lon="3.07225">
        <ele>274.5</ele>
        <time>2015-11-29T10:07:10Z</time>
      </trkpt>
      <trkpt lat="43.50581" lon="3.07222">
        <ele>274.5</ele>
        <time>2015-11-29T10:07:11Z</time>
      </trkpt>
      <trkpt lat="43.5058" lon="3.0722">
        <ele>274.5</ele>
        <time>2015-11-29T10:07:12Z</time>
      </trkpt>
      <trkpt lat="43.5058" lon="3.07217">
        <ele>274.5</ele>
        <time>2015-11-29T10:07:13Z</time>
      </trkpt>
      <trkpt lat="43.5058" lon="3.07215">
        <ele>274.5</ele>
        <time>2015-11-29T10:07:14Z</time>
      </trkpt>
      <trkpt lat="43.50579" lon="3.07212">
        <ele>274.5</ele>
        <time>2015-11-29T10:07:15Z</time>
      </trkpt>
      <trkpt lat="43.50579" lon="3.0721">
        <ele>274.5</ele>
        <time>2015-11-29T10:07:16Z</time>
      </trkpt>
      <trkpt lat="43.50578" lon="3.07207">
        <ele>275</ele>
        <time>2015-11-29T10:07:17Z</time>
      </trkpt>
      <trkpt lat="43.50578" lon="3.07205">
        <ele>275</ele>
        <time>2015-11-29T10:07:18Z</time>
      </trkpt>
      <trkpt lat="43.50578" lon="3.07202">
        <ele>275</ele>
        <time>2015-11-29T10:07:19Z</time>
      </trkpt>
      <trkpt lat="43.50577" lon="3.072">
        <ele>275</ele>
        <time>2015-11-29T10:07:20Z</time>
      </trkpt>
      <trkpt lat="43.50576" lon="3.07198">
        <ele>275.5</ele>
        <time>2015-11-29T10:07:21Z</time>
      </trkpt>
      <trkpt lat="43.50576" lon="3.07195">
        <ele>275.5</ele>
        <time>2015-11-29T10:07:22Z</time>
      </trkpt>
      <trkpt lat="43.50577" lon="3.07193">
        <ele>274.5</ele>
        <time>2015-11-29T10:07:23Z</time>
      </trkpt>
      <trkpt lat="43.50577" lon="3.07191">
        <ele>274.5</ele>
        <time>2015-11-29T10:07:24Z</time>
      </trkpt>
      <trkpt lat="43.50577" lon="3.07188">
        <ele>274.5</ele>
        <time>2015-11-29T10:07:25Z</time>
      </trkpt>
      <trkpt lat="43.50577" lon="3.07186">
        <ele>275</ele>
        <time>2015-11-29T10:07:26Z</time>
      </trkpt>
      <trkpt lat="43.50576" lon="3.07183">
        <ele>275.5</ele>
        <time>2015-11-29T10:07:27Z</time>
      </trkpt>
      <trkpt lat="43.50576" lon="3.07181">
        <ele>275.5</ele>
        <time>2015-11-29T10:07:28Z</time>
      </trkpt>
      <trkpt lat="43.50574" lon="3.07179">
        <ele>277.5</ele>
        <time>2015-11-29T10:07:29Z</time>
      </trkpt>
      <trkpt lat="43.50575" lon="3.07177">
        <ele>277</ele>
        <time>2015-11-29T10:07:30Z</time>
      </trkpt>
      <trkpt lat="43.50575" lon="3.07175">
        <ele>277.5</ele>
        <time>2015-11-29T10:07:31Z</time>
      </trkpt>
      <trkpt lat="43.50575" lon="3.07172">
        <ele>278</ele>
        <time>2015-11-29T10:07:32Z</time>
      </trkpt>
      <trkpt lat="43.50575" lon="3.0717">
        <ele>277.5</ele>
        <time>2015-11-29T10:07:33Z</time>
      </trkpt>
      <trkpt lat="43.50574" lon="3.07167">
        <ele>278</ele>
        <time>2015-11-29T10:07:34Z</time>
      </trkpt>
      <trkpt lat="43.50574" lon="3.07165">
        <ele>278.5</ele>
        <time>2015-11-29T10:07:35Z</time>
      </trkpt>
      <trkpt lat="43.50573" lon="3.07162">
        <ele>278.5</ele>
        <time>2015-11-29T10:07:36Z</time>
      </trkpt>
      <trkpt lat="43.50572" lon="3.0716">
        <ele>279</ele>
        <time>2015-11-29T10:07:37Z</time>
      </trkpt>
      <trkpt lat="43.50572" lon="3.07157">
        <ele>279.5</ele>
        <time>2015-11-29T10:07:38Z</time>
      </trkpt>
      <trkpt lat="43.50571" lon="3.07155">
        <ele>279.5</ele>
        <time>2015-11-29T10:07:39Z</time>
      </trkpt>
      <trkpt lat="43.5057" lon="3.07152">
        <ele>279.5</ele>
        <time>2015-11-29T10:07:40Z</time>
      </trkpt>
      <trkpt lat="43.5057" lon="3.07149">
        <ele>279.5</ele>
        <time>2015-11-29T10:07:41Z</time>
      </trkpt>
      <trkpt lat="43.50569" lon="3.07146">
        <ele>280.5</ele>
        <time>2015-11-29T10:07:42Z</time>
      </trkpt>
      <trkpt lat="43.50568" lon="3.07144">
        <ele>281</ele>
        <time>2015-11-29T10:07:43Z</time>
      </trkpt>
      <trkpt lat="43.50568" lon="3.07141">
        <ele>281</ele>
        <time>2015-11-29T10:07:44Z</time>
      </trkpt>
      <trkpt lat="43.50567" lon="3.07139">
        <ele>281.5</ele>
        <time>2015-11-29T10:07:45Z</time>
      </trkpt>
      <trkpt lat="43.50566" lon="3.07137">
        <ele>282</ele>
        <time>2015-11-29T10:07:46Z</time>
      </trkpt>
      <trkpt lat="43.50566" lon="3.07134">
        <ele>282</ele>
        <time>2015-11-29T10:07:47Z</time>
      </trkpt>
      <trkpt lat="43.50565" lon="3.07132">
        <ele>282.5</ele>
        <time>2015-11-29T10:07:48Z</time>
      </trkpt>
      <trkpt lat="43.50564" lon="3.07129">
        <ele>282.5</ele>
        <time>2015-11-29T10:07:49Z</time>
      </trkpt>
      <trkpt lat="43.50563" lon="3.07127">
        <ele>283.5</ele>
        <time>2015-11-29T10:07:50Z</time>
      </trkpt>
      <trkpt lat="43.50563" lon="3.07125">
        <ele>283.5</ele>
        <time>2015-11-29T10:07:51Z</time>
      </trkpt>
      <trkpt lat="43.50562" lon="3.07123">
        <ele>283.5</ele>
        <time>2015-11-29T10:07:52Z</time>
      </trkpt>
      <trkpt lat="43.50561" lon="3.0712">
        <ele>283.5</ele>
        <time>2015-11-29T10:07:53Z</time>
      </trkpt>
      <trkpt lat="43.5056" lon="3.07119">
        <ele>284</ele>
        <time>2015-11-29T10:07:54Z</time>
      </trkpt>
      <trkpt lat="43.5056" lon="3.07117">
        <ele>284</ele>
        <time>2015-11-29T10:07:55Z</time>
      </trkpt>
      <trkpt lat="43.50559" lon="3.07115">
        <ele>284.5</ele>
        <time>2015-11-29T10:07:56Z</time>
      </trkpt>
      <trkpt lat="43.50556" lon="3.07113">
        <ele>286</ele>
        <time>2015-11-29T10:07:58Z</time>
      </trkpt>
      <trkpt lat="43.50555" lon="3.07111">
        <ele>286.5</ele>
        <time>2015-11-29T10:07:59Z</time>
      </trkpt>
      <trkpt lat="43.50552" lon="3.07112">
        <ele>286.5</ele>
        <time>2015-11-29T10:08:00Z</time>
      </trkpt>
      <trkpt lat="43.50551" lon="3.07111">
        <ele>287</ele>
        <time>2015-11-29T10:08:01Z</time>
      </trkpt>
      <trkpt lat="43.50549" lon="3.07111">
        <ele>287.5</ele>
        <time>2015-11-29T10:08:02Z</time>
      </trkpt>
      <trkpt lat="43.50548" lon="3.0711">
        <ele>287.5</ele>
        <time>2015-11-29T10:08:03Z</time>
      </trkpt>
      <trkpt lat="43.50546" lon="3.0711">
        <ele>287.5</ele>
        <time>2015-11-29T10:08:04Z</time>
      </trkpt>
      <trkpt lat="43.50544" lon="3.0711">
        <ele>288</ele>
        <time>2015-11-29T10:08:05Z</time>
      </trkpt>
      <trkpt lat="43.50542" lon="3.0711">
        <ele>288</ele>
        <time>2015-11-29T10:08:06Z</time>
      </trkpt>
      <trkpt lat="43.50541" lon="3.0711">
        <ele>288</ele>
        <time>2015-11-29T10:08:07Z</time>
      </trkpt>
      <trkpt lat="43.50539" lon="3.0711">
        <ele>288</ele>
        <time>2015-11-29T10:08:08Z</time>
      </trkpt>
      <trkpt lat="43.50537" lon="3.0711">
        <ele>287.5</ele>
        <time>2015-11-29T10:08:09Z</time>
      </trkpt>
      <trkpt lat="43.50536" lon="3.0711">
        <ele>287</ele>
        <time>2015-11-29T10:08:10Z</time>
      </trkpt>
      <trkpt lat="43.50535" lon="3.0711">
        <ele>287.5</ele>
        <time>2015-11-29T10:08:11Z</time>
      </trkpt>
      <trkpt lat="43.50533" lon="3.07109">
        <ele>287.5</ele>
        <time>2015-11-29T10:08:12Z</time>
      </trkpt>
      <trkpt lat="43.50531" lon="3.07109">
        <ele>287</ele>
        <time>2015-11-29T10:08:13Z</time>
      </trkpt>
      <trkpt lat="43.50529" lon="3.07108">
        <ele>287.5</ele>
        <time>2015-11-29T10:08:14Z</time>
      </trkpt>
      <trkpt lat="43.50529" lon="3.07105">
        <ele>287</ele>
        <time>2015-11-29T10:08:15Z</time>
      </trkpt>
      <trkpt lat="43.50528" lon="3.07103">
        <ele>287</ele>
        <time>2015-11-29T10:08:16Z</time>
      </trkpt>
      <trkpt lat="43.50529" lon="3.07101">
        <ele>287</ele>
        <time>2015-11-29T10:08:17Z</time>
      </trkpt>
      <trkpt lat="43.5053" lon="3.071">
        <ele>287</ele>
        <time>2015-11-29T10:08:18Z</time>
      </trkpt>
      <trkpt lat="43.50532" lon="3.07099">
        <ele>287</ele>
        <time>2015-11-29T10:08:19Z</time>
      </trkpt>
      <trkpt lat="43.50533" lon="3.07099">
        <ele>287</ele>
        <time>2015-11-29T10:08:20Z</time>
      </trkpt>
      <trkpt lat="43.50535" lon="3.07098">
        <ele>286.5</ele>
        <time>2015-11-29T10:08:21Z</time>
      </trkpt>
      <trkpt lat="43.50537" lon="3.07098">
        <ele>286</ele>
        <time>2015-11-29T10:08:22Z</time>
      </trkpt>
      <trkpt lat="43.50539" lon="3.07098">
        <ele>285.5</ele>
        <time>2015-11-29T10:08:23Z</time>
      </trkpt>
      <trkpt lat="43.5054" lon="3.07097">
        <ele>285.5</ele>
        <time>2015-11-29T10:08:24Z</time>
      </trkpt>
      <trkpt lat="43.50542" lon="3.07097">
        <ele>285.5</ele>
        <time>2015-11-29T10:08:25Z</time>
      </trkpt>
      <trkpt lat="43.50544" lon="3.07096">
        <ele>285.5</ele>
        <time>2015-11-29T10:08:26Z</time>
      </trkpt>
      <trkpt lat="43.50546" lon="3.07095">
        <ele>285.5</ele>
        <time>2015-11-29T10:08:27Z</time>
      </trkpt>
      <trkpt lat="43.50547" lon="3.07095">
        <ele>285.5</ele>
        <time>2015-11-29T10:08:28Z</time>
      </trkpt>
      <trkpt lat="43.50549" lon="3.07094">
        <ele>285</ele>
        <time>2015-11-29T10:08:29Z</time>
      </trkpt>
      <trkpt lat="43.50551" lon="3.07093">
        <ele>285</ele>
        <time>2015-11-29T10:08:30Z</time>
      </trkpt>
      <trkpt lat="43.50553" lon="3.07092">
        <ele>285</ele>
        <time>2015-11-29T10:08:31Z</time>
      </trkpt>
      <trkpt lat="43.50554" lon="3.07091">
        <ele>285.5</ele>
        <time>2015-11-29T10:08:32Z</time>
      </trkpt>
      <trkpt lat="43.50556" lon="3.0709">
        <ele>285.5</ele>
        <time>2015-11-29T10:08:33Z</time>
      </trkpt>
      <trkpt lat="43.50558" lon="3.07089">
        <ele>286</ele>
        <time>2015-11-29T10:08:34Z</time>
      </trkpt>
      <trkpt lat="43.50559" lon="3.07088">
        <ele>286.5</ele>
        <time>2015-11-29T10:08:35Z</time>
      </trkpt>
      <trkpt lat="43.50561" lon="3.07087">
        <ele>286.5</ele>
        <time>2015-11-29T10:08:36Z</time>
      </trkpt>
      <trkpt lat="43.50563" lon="3.07086">
        <ele>287</ele>
        <time>2015-11-29T10:08:37Z</time>
      </trkpt>
      <trkpt lat="43.50565" lon="3.07085">
        <ele>287.5</ele>
        <time>2015-11-29T10:08:38Z</time>
      </trkpt>
      <trkpt lat="43.50566" lon="3.07083">
        <ele>287.5</ele>
        <time>2015-11-29T10:08:39Z</time>
      </trkpt>
      <trkpt lat="43.50568" lon="3.07082">
        <ele>288</ele>
        <time>2015-11-29T10:08:40Z</time>
      </trkpt>
      <trkpt lat="43.50569" lon="3.0708">
        <ele>288.5</ele>
        <time>2015-11-29T10:08:41Z</time>
      </trkpt>
      <trkpt lat="43.50571" lon="3.07078">
        <ele>289.5</ele>
        <time>2015-11-29T10:08:42Z</time>
      </trkpt>
      <trkpt lat="43.50572" lon="3.07076">
        <ele>290</ele>
        <time>2015-11-29T10:08:43Z</time>
      </trkpt>
      <trkpt lat="43.50573" lon="3.07075">
        <ele>291</ele>
        <time>2015-11-29T10:08:44Z</time>
      </trkpt>
      <trkpt lat="43.50574" lon="3.07073">
        <ele>291</ele>
        <time>2015-11-29T10:08:45Z</time>
      </trkpt>
      <trkpt lat="43.50575" lon="3.07071">
        <ele>291.5</ele>
        <time>2015-11-29T10:08:46Z</time>
      </trkpt>
      <trkpt lat="43.50575" lon="3.07068">
        <ele>292</ele>
        <time>2015-11-29T10:08:46Z</time>
      </trkpt>
      <trkpt lat="43.50576" lon="3.07066">
        <ele>292</ele>
        <time>2015-11-29T10:08:48Z</time>
      </trkpt>
      <trkpt lat="43.50576" lon="3.07064">
        <ele>292</ele>
        <time>2015-11-29T10:08:48Z</time>
      </trkpt>
      <trkpt lat="43.50576" lon="3.07062">
        <ele>292.5</ele>
        <time>2015-11-29T10:08:50Z</time>
      </trkpt>
      <trkpt lat="43.50576" lon="3.07059">
        <ele>292.5</ele>
        <time>2015-11-29T10:08:50Z</time>
      </trkpt>
      <trkpt lat="43.50576" lon="3.07057">
        <ele>292.5</ele>
        <time>2015-11-29T10:08:51Z</time>
      </trkpt>
      <trkpt lat="43.50575" lon="3.07055">
        <ele>292.5</ele>
        <time>2015-11-29T10:08:52Z</time>
      </trkpt>
      <trkpt lat="43.50576" lon="3.07053">
        <ele>291.5</ele>
        <time>2015-11-29T10:08:53Z</time>
      </trkpt>
      <trkpt lat="43.50575" lon="3.0705">
        <ele>291.5</ele>
        <time>2015-11-29T10:08:54Z</time>
      </trkpt>
      <trkpt lat="43.50575" lon="3.07048">
        <ele>291.5</ele>
        <time>2015-11-29T10:08:55Z</time>
      </trkpt>
      <trkpt lat="43.50574" lon="3.07046">
        <ele>292</ele>
        <time>2015-11-29T10:08:56Z</time>
      </trkpt>
      <trkpt lat="43.50573" lon="3.07044">
        <ele>292</ele>
        <time>2015-11-29T10:08:57Z</time>
      </trkpt>
      <trkpt lat="43.50572" lon="3.07041">
        <ele>292.5</ele>
        <time>2015-11-29T10:08:58Z</time>
      </trkpt>
      <trkpt lat="43.50572" lon="3.07039">
        <ele>292.5</ele>
        <time>2015-11-29T10:08:59Z</time>
      </trkpt>
      <trkpt lat="43.50571" lon="3.07037">
        <ele>293</ele>
        <time>2015-11-29T10:09:00Z</time>
      </trkpt>
      <trkpt lat="43.5057" lon="3.07035">
        <ele>293</ele>
        <time>2015-11-29T10:09:01Z</time>
      </trkpt>
      <trkpt lat="43.50569" lon="3.07033">
        <ele>293.5</ele>
        <time>2015-11-29T10:09:02Z</time>
      </trkpt>
      <trkpt lat="43.50569" lon="3.0703">
        <ele>293.5</ele>
        <time>2015-11-29T10:09:03Z</time>
      </trkpt>
      <trkpt lat="43.50568" lon="3.07029">
        <ele>294.5</ele>
        <time>2015-11-29T10:09:04Z</time>
      </trkpt>
      <trkpt lat="43.50567" lon="3.07027">
        <ele>295</ele>
        <time>2015-11-29T10:09:05Z</time>
      </trkpt>
      <trkpt lat="43.50566" lon="3.07025">
        <ele>294.5</ele>
        <time>2015-11-29T10:09:06Z</time>
      </trkpt>
      <trkpt lat="43.50566" lon="3.07022">
        <ele>293.5</ele>
        <time>2015-11-29T10:09:07Z</time>
      </trkpt>
      <trkpt lat="43.50566" lon="3.0702">
        <ele>294</ele>
        <time>2015-11-29T10:09:08Z</time>
      </trkpt>
      <trkpt lat="43.50566" lon="3.07018">
        <ele>293.5</ele>
        <time>2015-11-29T10:09:09Z</time>
      </trkpt>
      <trkpt lat="43.50564" lon="3.07018">
        <ele>293</ele>
        <time>2015-11-29T10:09:10Z</time>
      </trkpt>
      <trkpt lat="43.50565" lon="3.07014">
        <ele>292</ele>
        <time>2015-11-29T10:09:11Z</time>
      </trkpt>
      <trkpt lat="43.50565" lon="3.07012">
        <ele>292.5</ele>
        <time>2015-11-29T10:09:12Z</time>
      </trkpt>
      <trkpt lat="43.50566" lon="3.0701">
        <ele>292</ele>
        <time>2015-11-29T10:09:13Z</time>
      </trkpt>
      <trkpt lat="43.50566" lon="3.07008">
        <ele>291.5</ele>
        <time>2015-11-29T10:09:14Z</time>
      </trkpt>
      <trkpt lat="43.50567" lon="3.07006">
        <ele>291.5</ele>
        <time>2015-11-29T10:09:15Z</time>
      </trkpt>
      <trkpt lat="43.50568" lon="3.07004">
        <ele>292.5</ele>
        <time>2015-11-29T10:09:16Z</time>
      </trkpt>
      <trkpt lat="43.50569" lon="3.07002">
        <ele>292.5</ele>
        <time>2015-11-29T10:09:17Z</time>
      </trkpt>
      <trkpt lat="43.5057" lon="3.07">
        <ele>293</ele>
        <time>2015-11-29T10:09:18Z</time>
      </trkpt>
      <trkpt lat="43.50572" lon="3.06998">
        <ele>293.5</ele>
        <time>2015-11-29T10:09:19Z</time>
      </trkpt>
      <trkpt lat="43.50574" lon="3.06996">
        <ele>293</ele>
        <time>2015-11-29T10:09:20Z</time>
      </trkpt>
      <trkpt lat="43.50575" lon="3.06994">
        <ele>292</ele>
        <time>2015-11-29T10:09:21Z</time>
      </trkpt>
      <trkpt lat="43.50577" lon="3.06993">
        <ele>292</ele>
        <time>2015-11-29T10:09:22Z</time>
      </trkpt>
      <trkpt lat="43.50578" lon="3.06992">
        <ele>292.5</ele>
        <time>2015-11-29T10:09:23Z</time>
      </trkpt>
      <trkpt lat="43.5058" lon="3.06991">
        <ele>292.5</ele>
        <time>2015-11-29T10:09:24Z</time>
      </trkpt>
      <trkpt lat="43.50582" lon="3.0699">
        <ele>293</ele>
        <time>2015-11-29T10:09:25Z</time>
      </trkpt>
      <trkpt lat="43.50583" lon="3.06989">
        <ele>293</ele>
        <time>2015-11-29T10:09:26Z</time>
      </trkpt>
      <trkpt lat="43.50585" lon="3.06988">
        <ele>293.5</ele>
        <time>2015-11-29T10:09:27Z</time>
      </trkpt>
      <trkpt lat="43.50587" lon="3.06987">
        <ele>294.5</ele>
        <time>2015-11-29T10:09:28Z</time>
      </trkpt>
      <trkpt lat="43.50588" lon="3.06986">
        <ele>295</ele>
        <time>2015-11-29T10:09:29Z</time>
      </trkpt>
      <trkpt lat="43.5059" lon="3.06985">
        <ele>295.5</ele>
        <time>2015-11-29T10:09:30Z</time>
      </trkpt>
      <trkpt lat="43.50591" lon="3.06984">
        <ele>296</ele>
        <time>2015-11-29T10:09:31Z</time>
      </trkpt>
      <trkpt lat="43.50593" lon="3.06983">
        <ele>296</ele>
        <time>2015-11-29T10:09:32Z</time>
      </trkpt>
      <trkpt lat="43.50595" lon="3.06982">
        <ele>297</ele>
        <time>2015-11-29T10:09:33Z</time>
      </trkpt>
      <trkpt lat="43.50596" lon="3.06981">
        <ele>298</ele>
        <time>2015-11-29T10:09:35Z</time>
      </trkpt>
      <trkpt lat="43.50598" lon="3.0698">
        <ele>298.5</ele>
        <time>2015-11-29T10:09:35Z</time>
      </trkpt>
      <trkpt lat="43.506" lon="3.06979">
        <ele>299</ele>
        <time>2015-11-29T10:09:36Z</time>
      </trkpt>
      <trkpt lat="43.50602" lon="3.06978">
        <ele>300</ele>
        <time>2015-11-29T10:09:37Z</time>
      </trkpt>
      <trkpt lat="43.50604" lon="3.06977">
        <ele>300.5</ele>
        <time>2015-11-29T10:09:38Z</time>
      </trkpt>
      <trkpt lat="43.50605" lon="3.06975">
        <ele>301.5</ele>
        <time>2015-11-29T10:09:40Z</time>
      </trkpt>
      <trkpt lat="43.50607" lon="3.06974">
        <ele>301</ele>
        <time>2015-11-29T10:09:40Z</time>
      </trkpt>
      <trkpt lat="43.50609" lon="3.06973">
        <ele>301.5</ele>
        <time>2015-11-29T10:09:41Z</time>
      </trkpt>
      <trkpt lat="43.5061" lon="3.06971">
        <ele>301.5</ele>
        <time>2015-11-29T10:09:42Z</time>
      </trkpt>
      <trkpt lat="43.50612" lon="3.06969">
        <ele>302</ele>
        <time>2015-11-29T10:09:43Z</time>
      </trkpt>
      <trkpt lat="43.50614" lon="3.06968">
        <ele>302</ele>
        <time>2015-11-29T10:09:44Z</time>
      </trkpt>
      <trkpt lat="43.50615" lon="3.06966">
        <ele>302</ele>
        <time>2015-11-29T10:09:45Z</time>
      </trkpt>
      <trkpt lat="43.50617" lon="3.06964">
        <ele>302</ele>
        <time>2015-11-29T10:09:46Z</time>
      </trkpt>
      <trkpt lat="43.50618" lon="3.06963">
        <ele>302.5</ele>
        <time>2015-11-29T10:09:47Z</time>
      </trkpt>
      <trkpt lat="43.5062" lon="3.06961">
        <ele>303</ele>
        <time>2015-11-29T10:09:48Z</time>
      </trkpt>
      <trkpt lat="43.50621" lon="3.06959">
        <ele>303.5</ele>
        <time>2015-11-29T10:09:49Z</time>
      </trkpt>
      <trkpt lat="43.50623" lon="3.06958">
        <ele>304</ele>
        <time>2015-11-29T10:09:50Z</time>
      </trkpt>
      <trkpt lat="43.50625" lon="3.06957">
        <ele>304.5</ele>
        <time>2015-11-29T10:09:51Z</time>
      </trkpt>
      <trkpt lat="43.50626" lon="3.06956">
        <ele>304.5</ele>
        <time>2015-11-29T10:09:52Z</time>
      </trkpt>
      <trkpt lat="43.50628" lon="3.06955">
        <ele>304.5</ele>
        <time>2015-11-29T10:09:53Z</time>
      </trkpt>
      <trkpt lat="43.5063" lon="3.06954">
        <ele>304.5</ele>
        <time>2015-11-29T10:09:54Z</time>
      </trkpt>
      <trkpt lat="43.50632" lon="3.06953">
        <ele>304.5</ele>
        <time>2015-11-29T10:09:55Z</time>
      </trkpt>
      <trkpt lat="43.50634" lon="3.06951">
        <ele>304.5</ele>
        <time>2015-11-29T10:09:56Z</time>
      </trkpt>
      <trkpt lat="43.50635" lon="3.0695">
        <ele>304.5</ele>
        <time>2015-11-29T10:09:57Z</time>
      </trkpt>
      <trkpt lat="43.50637" lon="3.06949">
        <ele>304.5</ele>
        <time>2015-11-29T10:09:58Z</time>
      </trkpt>
      <trkpt lat="43.50639" lon="3.06948">
        <ele>304.5</ele>
        <time>2015-11-29T10:09:59Z</time>
      </trkpt>
      <trkpt lat="43.50641" lon="3.06947">
        <ele>305</ele>
        <time>2015-11-29T10:10:00Z</time>
      </trkpt>
      <trkpt lat="43.50642" lon="3.06946">
        <ele>305.5</ele>
        <time>2015-11-29T10:10:01Z</time>
      </trkpt>
      <trkpt lat="43.50644" lon="3.06945">
        <ele>305.5</ele>
        <time>2015-11-29T10:10:02Z</time>
      </trkpt>
      <trkpt lat="43.50645" lon="3.06944">
        <ele>306</ele>
        <time>2015-11-29T10:10:03Z</time>
      </trkpt>
      <trkpt lat="43.50647" lon="3.06942">
        <ele>306.5</ele>
        <time>2015-11-29T10:10:04Z</time>
      </trkpt>
      <trkpt lat="43.50648" lon="3.0694">
        <ele>307</ele>
        <time>2015-11-29T10:10:05Z</time>
      </trkpt>
      <trkpt lat="43.5065" lon="3.06938">
        <ele>307</ele>
        <time>2015-11-29T10:10:06Z</time>
      </trkpt>
      <trkpt lat="43.50651" lon="3.06937">
        <ele>307.5</ele>
        <time>2015-11-29T10:10:07Z</time>
      </trkpt>
      <trkpt lat="43.50653" lon="3.06935">
        <ele>308</ele>
        <time>2015-11-29T10:10:08Z</time>
      </trkpt>
      <trkpt lat="43.50655" lon="3.06934">
        <ele>308</ele>
        <time>2015-11-29T10:10:09Z</time>
      </trkpt>
      <trkpt lat="43.50656" lon="3.06932">
        <ele>308</ele>
        <time>2015-11-29T10:10:10Z</time>
      </trkpt>
      <trkpt lat="43.50658" lon="3.0693">
        <ele>307.5</ele>
        <time>2015-11-29T10:10:11Z</time>
      </trkpt>
      <trkpt lat="43.50659" lon="3.06928">
        <ele>308</ele>
        <time>2015-11-29T10:10:12Z</time>
      </trkpt>
      <trkpt lat="43.5066" lon="3.06926">
        <ele>308.5</ele>
        <time>2015-11-29T10:10:13Z</time>
      </trkpt>
      <trkpt lat="43.50661" lon="3.06924">
        <ele>309</ele>
        <time>2015-11-29T10:10:14Z</time>
      </trkpt>
      <trkpt lat="43.50663" lon="3.06922">
        <ele>309</ele>
        <time>2015-11-29T10:10:15Z</time>
      </trkpt>
      <trkpt lat="43.50664" lon="3.06921">
        <ele>309</ele>
        <time>2015-11-29T10:10:16Z</time>
      </trkpt>
      <trkpt lat="43.50665" lon="3.06919">
        <ele>310</ele>
        <time>2015-11-29T10:10:17Z</time>
      </trkpt>
      <trkpt lat="43.50666" lon="3.06917">
        <ele>310.5</ele>
        <time>2015-11-29T10:10:18Z</time>
      </trkpt>
      <trkpt lat="43.50667" lon="3.06916">
        <ele>310.5</ele>
        <time>2015-11-29T10:10:19Z</time>
      </trkpt>
      <trkpt lat="43.50668" lon="3.06913">
        <ele>312</ele>
        <time>2015-11-29T10:10:20Z</time>
      </trkpt>
      <trkpt lat="43.50668" lon="3.06912">
        <ele>312</ele>
        <time>2015-11-29T10:10:21Z</time>
      </trkpt>
      <trkpt lat="43.50668" lon="3.0691">
        <ele>314</ele>
        <time>2015-11-29T10:10:22Z</time>
      </trkpt>
      <trkpt lat="43.50668" lon="3.06902">
        <ele>316.5</ele>
        <time>2015-11-29T10:10:24Z</time>
      </trkpt>
      <trkpt lat="43.50669" lon="3.06901">
        <ele>317</ele>
        <time>2015-11-29T10:10:25Z</time>
      </trkpt>
      <trkpt lat="43.5067" lon="3.06899">
        <ele>316.5</ele>
        <time>2015-11-29T10:10:26Z</time>
      </trkpt>
      <trkpt lat="43.50672" lon="3.06898">
        <ele>315</ele>
        <time>2015-11-29T10:10:27Z</time>
      </trkpt>
      <trkpt lat="43.50673" lon="3.06897">
        <ele>315</ele>
        <time>2015-11-29T10:10:28Z</time>
      </trkpt>
      <trkpt lat="43.50675" lon="3.06895">
        <ele>315.5</ele>
        <time>2015-11-29T10:10:29Z</time>
      </trkpt>
      <trkpt lat="43.50676" lon="3.06894">
        <ele>316.5</ele>
        <time>2015-11-29T10:10:30Z</time>
      </trkpt>
      <trkpt lat="43.50677" lon="3.0689">
        <ele>317.5</ele>
        <time>2015-11-29T10:10:31Z</time>
      </trkpt>
      <trkpt lat="43.50677" lon="3.06886">
        <ele>318</ele>
        <time>2015-11-29T10:10:32Z</time>
      </trkpt>
      <trkpt lat="43.50679" lon="3.06886">
        <ele>317</ele>
        <time>2015-11-29T10:10:33Z</time>
      </trkpt>
      <trkpt lat="43.50681" lon="3.06886">
        <ele>316</ele>
        <time>2015-11-29T10:10:34Z</time>
      </trkpt>
      <trkpt lat="43.50682" lon="3.06884">
        <ele>315.5</ele>
        <time>2015-11-29T10:10:35Z</time>
      </trkpt>
      <trkpt lat="43.50683" lon="3.06883">
        <ele>315</ele>
        <time>2015-11-29T10:10:36Z</time>
      </trkpt>
      <trkpt lat="43.50683" lon="3.06879">
        <ele>315.5</ele>
        <time>2015-11-29T10:10:37Z</time>
      </trkpt>
      <trkpt lat="43.50685" lon="3.06879">
        <ele>316</ele>
        <time>2015-11-29T10:10:38Z</time>
      </trkpt>
      <trkpt lat="43.50686" lon="3.06878">
        <ele>317</ele>
        <time>2015-11-29T10:10:39Z</time>
      </trkpt>
      <trkpt lat="43.50687" lon="3.06876">
        <ele>317.5</ele>
        <time>2015-11-29T10:10:40Z</time>
      </trkpt>
      <trkpt lat="43.50688" lon="3.06874">
        <ele>318.5</ele>
        <time>2015-11-29T10:10:41Z</time>
      </trkpt>
      <trkpt lat="43.50689" lon="3.06871">
        <ele>319.5</ele>
        <time>2015-11-29T10:10:42Z</time>
      </trkpt>
      <trkpt lat="43.50689" lon="3.06869">
        <ele>321</ele>
        <time>2015-11-29T10:10:43Z</time>
      </trkpt>
      <trkpt lat="43.5069" lon="3.06866">
        <ele>322.5</ele>
        <time>2015-11-29T10:10:44Z</time>
      </trkpt>
      <trkpt lat="43.5069" lon="3.06863">
        <ele>323.5</ele>
        <time>2015-11-29T10:10:45Z</time>
      </trkpt>
      <trkpt lat="43.50691" lon="3.06861">
        <ele>324.5</ele>
        <time>2015-11-29T10:10:46Z</time>
      </trkpt>
      <trkpt lat="43.50691" lon="3.06858">
        <ele>326</ele>
        <time>2015-11-29T10:10:47Z</time>
      </trkpt>
      <trkpt lat="43.50691" lon="3.06856">
        <ele>326.5</ele>
        <time>2015-11-29T10:10:48Z</time>
      </trkpt>
      <trkpt lat="43.50691" lon="3.06853">
        <ele>328.5</ele>
        <time>2015-11-29T10:10:49Z</time>
      </trkpt>
      <trkpt lat="43.50692" lon="3.06852">
        <ele>328</ele>
        <time>2015-11-29T10:10:50Z</time>
      </trkpt>
      <trkpt lat="43.50692" lon="3.0685">
        <ele>329</ele>
        <time>2015-11-29T10:10:51Z</time>
      </trkpt>
      <trkpt lat="43.50692" lon="3.06847">
        <ele>330</ele>
        <time>2015-11-29T10:10:52Z</time>
      </trkpt>
      <trkpt lat="43.50692" lon="3.06845">
        <ele>330</ele>
        <time>2015-11-29T10:10:53Z</time>
      </trkpt>
      <trkpt lat="43.50691" lon="3.06837">
        <ele>333</ele>
        <time>2015-11-29T10:10:55Z</time>
      </trkpt>
      <trkpt lat="43.50691" lon="3.06835">
        <ele>333</ele>
        <time>2015-11-29T10:10:56Z</time>
      </trkpt>
      <trkpt lat="43.50693" lon="3.06833">
        <ele>330.5</ele>
        <time>2015-11-29T10:10:57Z</time>
      </trkpt>
      <trkpt lat="43.50694" lon="3.06831">
        <ele>330</ele>
        <time>2015-11-29T10:10:58Z</time>
      </trkpt>
      <trkpt lat="43.50695" lon="3.06829">
        <ele>329</ele>
        <time>2015-11-29T10:10:59Z</time>
      </trkpt>
      <trkpt lat="43.50696" lon="3.06827">
        <ele>329</ele>
        <time>2015-11-29T10:11:00Z</time>
      </trkpt>
      <trkpt lat="43.50697" lon="3.06825">
        <ele>328.5</ele>
        <time>2015-11-29T10:11:01Z</time>
      </trkpt>
      <trkpt lat="43.50699" lon="3.06823">
        <ele>328</ele>
        <time>2015-11-29T10:11:02Z</time>
      </trkpt>
      <trkpt lat="43.507" lon="3.06821">
        <ele>327.5</ele>
        <time>2015-11-29T10:11:03Z</time>
      </trkpt>
      <trkpt lat="43.50701" lon="3.06818">
        <ele>327.5</ele>
        <time>2015-11-29T10:11:04Z</time>
      </trkpt>
      <trkpt lat="43.50704" lon="3.06811">
        <ele>324</ele>
        <time>2015-11-29T10:11:06Z</time>
      </trkpt>
      <trkpt lat="43.50705" lon="3.06809">
        <ele>324</ele>
        <time>2015-11-29T10:11:07Z</time>
      </trkpt>
      <trkpt lat="43.50706" lon="3.06806">
        <ele>324</ele>
        <time>2015-11-29T10:11:08Z</time>
      </trkpt>
      <trkpt lat="43.50707" lon="3.06803">
        <ele>324</ele>
        <time>2015-11-29T10:11:09Z</time>
      </trkpt>
      <trkpt lat="43.50707" lon="3.068">
        <ele>324.5</ele>
        <time>2015-11-29T10:11:10Z</time>
      </trkpt>
      <trkpt lat="43.50708" lon="3.06797">
        <ele>324.5</ele>
        <time>2015-11-29T10:11:11Z</time>
      </trkpt>
      <trkpt lat="43.50709" lon="3.06794">
        <ele>324.5</ele>
        <time>2015-11-29T10:11:12Z</time>
      </trkpt>
      <trkpt lat="43.5071" lon="3.06793">
        <ele>324.5</ele>
        <time>2015-11-29T10:11:13Z</time>
      </trkpt>
      <trkpt lat="43.5071" lon="3.0679">
        <ele>324.5</ele>
        <time>2015-11-29T10:11:14Z</time>
      </trkpt>
      <trkpt lat="43.50711" lon="3.06787">
        <ele>324.5</ele>
        <time>2015-11-29T10:11:15Z</time>
      </trkpt>
      <trkpt lat="43.50712" lon="3.06784">
        <ele>323.5</ele>
        <time>2015-11-29T10:11:16Z</time>
      </trkpt>
      <trkpt lat="43.50713" lon="3.06781">
        <ele>323.5</ele>
        <time>2015-11-29T10:11:17Z</time>
      </trkpt>
      <trkpt lat="43.50713" lon="3.06779">
        <ele>324</ele>
        <time>2015-11-29T10:11:18Z</time>
      </trkpt>
      <trkpt lat="43.50714" lon="3.06776">
        <ele>324</ele>
        <time>2015-11-29T10:11:19Z</time>
      </trkpt>
      <trkpt lat="43.50715" lon="3.06773">
        <ele>324</ele>
        <time>2015-11-29T10:11:20Z</time>
      </trkpt>
      <trkpt lat="43.50717" lon="3.06771">
        <ele>323.5</ele>
        <time>2015-11-29T10:11:21Z</time>
      </trkpt>
      <trkpt lat="43.50719" lon="3.06769">
        <ele>323.5</ele>
        <time>2015-11-29T10:11:22Z</time>
      </trkpt>
      <trkpt lat="43.50722" lon="3.06768">
        <ele>324</ele>
        <time>2015-11-29T10:11:23Z</time>
      </trkpt>
      <trkpt lat="43.50724" lon="3.06768">
        <ele>324</ele>
        <time>2015-11-29T10:11:24Z</time>
      </trkpt>
      <trkpt lat="43.50725" lon="3.06768">
        <ele>324.5</ele>
        <time>2015-11-29T10:11:25Z</time>
      </trkpt>
      <trkpt lat="43.50727" lon="3.06769">
        <ele>324.5</ele>
        <time>2015-11-29T10:11:26Z</time>
      </trkpt>
      <trkpt lat="43.50729" lon="3.0677">
        <ele>324</ele>
        <time>2015-11-29T10:11:27Z</time>
      </trkpt>
      <trkpt lat="43.5073" lon="3.06772">
        <ele>323.5</ele>
        <time>2015-11-29T10:11:28Z</time>
      </trkpt>
      <trkpt lat="43.50732" lon="3.06774">
        <ele>322</ele>
        <time>2015-11-29T10:11:29Z</time>
      </trkpt>
      <trkpt lat="43.50734" lon="3.06775">
        <ele>321</ele>
        <time>2015-11-29T10:11:30Z</time>
      </trkpt>
      <trkpt lat="43.50736" lon="3.06776">
        <ele>322.5</ele>
        <time>2015-11-29T10:11:31Z</time>
      </trkpt>
      <trkpt lat="43.50738" lon="3.06777">
        <ele>322</ele>
        <time>2015-11-29T10:11:32Z</time>
      </trkpt>
      <trkpt lat="43.50739" lon="3.06777">
        <ele>323</ele>
        <time>2015-11-29T10:11:33Z</time>
      </trkpt>
      <trkpt lat="43.50741" lon="3.06778">
        <ele>323</ele>
        <time>2015-11-29T10:11:34Z</time>
      </trkpt>
      <trkpt lat="43.50743" lon="3.06777">
        <ele>324</ele>
        <time>2015-11-29T10:11:35Z</time>
      </trkpt>
      <trkpt lat="43.50745" lon="3.06776">
        <ele>324</ele>
        <time>2015-11-29T10:11:36Z</time>
      </trkpt>
      <trkpt lat="43.50746" lon="3.06775">
        <ele>326</ele>
        <time>2015-11-29T10:11:37Z</time>
      </trkpt>
      <trkpt lat="43.50748" lon="3.06773">
        <ele>327</ele>
        <time>2015-11-29T10:11:38Z</time>
      </trkpt>
      <trkpt lat="43.50748" lon="3.06771">
        <ele>328.5</ele>
        <time>2015-11-29T10:11:39Z</time>
      </trkpt>
      <trkpt lat="43.50749" lon="3.06769">
        <ele>329.5</ele>
        <time>2015-11-29T10:11:40Z</time>
      </trkpt>
      <trkpt lat="43.50751" lon="3.06768">
        <ele>329.5</ele>
        <time>2015-11-29T10:11:41Z</time>
      </trkpt>
      <trkpt lat="43.50752" lon="3.06766">
        <ele>330</ele>
        <time>2015-11-29T10:11:42Z</time>
      </trkpt>
      <trkpt lat="43.50754" lon="3.06764">
        <ele>329.5</ele>
        <time>2015-11-29T10:11:43Z</time>
      </trkpt>
      <trkpt lat="43.50755" lon="3.06763">
        <ele>330.5</ele>
        <time>2015-11-29T10:11:44Z</time>
      </trkpt>
      <trkpt lat="43.50757" lon="3.06761">
        <ele>330.5</ele>
        <time>2015-11-29T10:11:45Z</time>
      </trkpt>
      <trkpt lat="43.50758" lon="3.06759">
        <ele>330.5</ele>
        <time>2015-11-29T10:11:46Z</time>
      </trkpt>
      <trkpt lat="43.5076" lon="3.06758">
        <ele>331</ele>
        <time>2015-11-29T10:11:47Z</time>
      </trkpt>
      <trkpt lat="43.50761" lon="3.06756">
        <ele>331</ele>
        <time>2015-11-29T10:11:48Z</time>
      </trkpt>
      <trkpt lat="43.50762" lon="3.06754">
        <ele>330.5</ele>
        <time>2015-11-29T10:11:49Z</time>
      </trkpt>
      <trkpt lat="43.50764" lon="3.06753">
        <ele>330.5</ele>
        <time>2015-11-29T10:11:50Z</time>
      </trkpt>
      <trkpt lat="43.50765" lon="3.06751">
        <ele>331</ele>
        <time>2015-11-29T10:11:51Z</time>
      </trkpt>
      <trkpt lat="43.50766" lon="3.0675">
        <ele>331</ele>
        <time>2015-11-29T10:11:52Z</time>
      </trkpt>
      <trkpt lat="43.50768" lon="3.06749">
        <ele>331.5</ele>
        <time>2015-11-29T10:11:53Z</time>
      </trkpt>
      <trkpt lat="43.5077" lon="3.06747">
        <ele>331.5</ele>
        <time>2015-11-29T10:11:54Z</time>
      </trkpt>
      <trkpt lat="43.50771" lon="3.06745">
        <ele>331.5</ele>
        <time>2015-11-29T10:11:55Z</time>
      </trkpt>
      <trkpt lat="43.50773" lon="3.06743">
        <ele>331.5</ele>
        <time>2015-11-29T10:11:56Z</time>
      </trkpt>
      <trkpt lat="43.50774" lon="3.06741">
        <ele>332</ele>
        <time>2015-11-29T10:11:57Z</time>
      </trkpt>
      <trkpt lat="43.50776" lon="3.0674">
        <ele>332</ele>
        <time>2015-11-29T10:11:58Z</time>
      </trkpt>
      <trkpt lat="43.50777" lon="3.06737">
        <ele>332.5</ele>
        <time>2015-11-29T10:11:59Z</time>
      </trkpt>
      <trkpt lat="43.50777" lon="3.06736">
        <ele>334</ele>
        <time>2015-11-29T10:12:00Z</time>
      </trkpt>
      <trkpt lat="43.50778" lon="3.06734">
        <ele>334.5</ele>
        <time>2015-11-29T10:12:01Z</time>
      </trkpt>
      <trkpt lat="43.50779" lon="3.06732">
        <ele>334.5</ele>
        <time>2015-11-29T10:12:02Z</time>
      </trkpt>
      <trkpt lat="43.5078" lon="3.06729">
        <ele>336.5</ele>
        <time>2015-11-29T10:12:03Z</time>
      </trkpt>
      <trkpt lat="43.50782" lon="3.06728">
        <ele>337</ele>
        <time>2015-11-29T10:12:04Z</time>
      </trkpt>
      <trkpt lat="43.50784" lon="3.06727">
        <ele>337.5</ele>
        <time>2015-11-29T10:12:05Z</time>
      </trkpt>
      <trkpt lat="43.50786" lon="3.06725">
        <ele>338.5</ele>
        <time>2015-11-29T10:12:06Z</time>
      </trkpt>
      <trkpt lat="43.50788" lon="3.06724">
        <ele>339</ele>
        <time>2015-11-29T10:12:07Z</time>
      </trkpt>
      <trkpt lat="43.5079" lon="3.06724">
        <ele>339</ele>
        <time>2015-11-29T10:12:08Z</time>
      </trkpt>
      <trkpt lat="43.50792" lon="3.06724">
        <ele>339</ele>
        <time>2015-11-29T10:12:09Z</time>
      </trkpt>
      <trkpt lat="43.50794" lon="3.06724">
        <ele>339.5</ele>
        <time>2015-11-29T10:12:10Z</time>
      </trkpt>
      <trkpt lat="43.50796" lon="3.06726">
        <ele>340</ele>
        <time>2015-11-29T10:12:11Z</time>
      </trkpt>
      <trkpt lat="43.50797" lon="3.06727">
        <ele>341</ele>
        <time>2015-11-29T10:12:12Z</time>
      </trkpt>
      <trkpt lat="43.50798" lon="3.0673">
        <ele>340</ele>
        <time>2015-11-29T10:12:13Z</time>
      </trkpt>
      <trkpt lat="43.50799" lon="3.06732">
        <ele>340</ele>
        <time>2015-11-29T10:12:14Z</time>
      </trkpt>
      <trkpt lat="43.508" lon="3.06734">
        <ele>339.5</ele>
        <time>2015-11-29T10:12:15Z</time>
      </trkpt>
      <trkpt lat="43.508" lon="3.06737">
        <ele>339.5</ele>
        <time>2015-11-29T10:12:16Z</time>
      </trkpt>
      <trkpt lat="43.50801" lon="3.06738">
        <ele>339.5</ele>
        <time>2015-11-29T10:12:17Z</time>
      </trkpt>
      <trkpt lat="43.50802" lon="3.06741">
        <ele>339</ele>
        <time>2015-11-29T10:12:18Z</time>
      </trkpt>
      <trkpt lat="43.50802" lon="3.06743">
        <ele>339.5</ele>
        <time>2015-11-29T10:12:19Z</time>
      </trkpt>
      <trkpt lat="43.50802" lon="3.06745">
        <ele>340</ele>
        <time>2015-11-29T10:12:20Z</time>
      </trkpt>
      <trkpt lat="43.50803" lon="3.06748">
        <ele>340</ele>
        <time>2015-11-29T10:12:21Z</time>
      </trkpt>
      <trkpt lat="43.50804" lon="3.0675">
        <ele>340.5</ele>
        <time>2015-11-29T10:12:22Z</time>
      </trkpt>
      <trkpt lat="43.50805" lon="3.06753">
        <ele>339</ele>
        <time>2015-11-29T10:12:23Z</time>
      </trkpt>
      <trkpt lat="43.50805" lon="3.06755">
        <ele>337.5</ele>
        <time>2015-11-29T10:12:24Z</time>
      </trkpt>
      <trkpt lat="43.50806" lon="3.06758">
        <ele>337</ele>
        <time>2015-11-29T10:12:25Z</time>
      </trkpt>
      <trkpt lat="43.50807" lon="3.0676">
        <ele>337</ele>
        <time>2015-11-29T10:12:26Z</time>
      </trkpt>
      <trkpt lat="43.50808" lon="3.06763">
        <ele>337.5</ele>
        <time>2015-11-29T10:12:27Z</time>
      </trkpt>
      <trkpt lat="43.50809" lon="3.06765">
        <ele>337.5</ele>
        <time>2015-11-29T10:12:28Z</time>
      </trkpt>
      <trkpt lat="43.5081" lon="3.06767">
        <ele>337</ele>
        <time>2015-11-29T10:12:29Z</time>
      </trkpt>
      <trkpt lat="43.50812" lon="3.06769">
        <ele>336.5</ele>
        <time>2015-11-29T10:12:30Z</time>
      </trkpt>
      <trkpt lat="43.50813" lon="3.06771">
        <ele>336</ele>
        <time>2015-11-29T10:12:31Z</time>
      </trkpt>
      <trkpt lat="43.50815" lon="3.06773">
        <ele>335.5</ele>
        <time>2015-11-29T10:12:32Z</time>
      </trkpt>
      <trkpt lat="43.50816" lon="3.06774">
        <ele>335</ele>
        <time>2015-11-29T10:12:33Z</time>
      </trkpt>
      <trkpt lat="43.50817" lon="3.06775">
        <ele>334.5</ele>
        <time>2015-11-29T10:12:34Z</time>
      </trkpt>
      <trkpt lat="43.50818" lon="3.06777">
        <ele>333.5</ele>
        <time>2015-11-29T10:12:35Z</time>
      </trkpt>
      <trkpt lat="43.50819" lon="3.06779">
        <ele>333</ele>
        <time>2015-11-29T10:12:36Z</time>
      </trkpt>
      <trkpt lat="43.50821" lon="3.0678">
        <ele>332</ele>
        <time>2015-11-29T10:12:37Z</time>
      </trkpt>
      <trkpt lat="43.50822" lon="3.06782">
        <ele>332</ele>
        <time>2015-11-29T10:12:38Z</time>
      </trkpt>
      <trkpt lat="43.50823" lon="3.06784">
        <ele>331</ele>
        <time>2015-11-29T10:12:39Z</time>
      </trkpt>
      <trkpt lat="43.50824" lon="3.06786">
        <ele>330.5</ele>
        <time>2015-11-29T10:12:40Z</time>
      </trkpt>
      <trkpt lat="43.50825" lon="3.06788">
        <ele>330.5</ele>
        <time>2015-11-29T10:12:41Z</time>
      </trkpt>
      <trkpt lat="43.50826" lon="3.0679">
        <ele>330</ele>
        <time>2015-11-29T10:12:42Z</time>
      </trkpt>
      <trkpt lat="43.50828" lon="3.06792">
        <ele>330</ele>
        <time>2015-11-29T10:12:43Z</time>
      </trkpt>
      <trkpt lat="43.50829" lon="3.06794">
        <ele>330.5</ele>
        <time>2015-11-29T10:12:44Z</time>
      </trkpt>
      <trkpt lat="43.5083" lon="3.06796">
        <ele>330.5</ele>
        <time>2015-11-29T10:12:45Z</time>
      </trkpt>
      <trkpt lat="43.50832" lon="3.06799">
        <ele>329.5</ele>
        <time>2015-11-29T10:12:46Z</time>
      </trkpt>
      <trkpt lat="43.50833" lon="3.06802">
        <ele>329</ele>
        <time>2015-11-29T10:12:46Z</time>
      </trkpt>
      <trkpt lat="43.50834" lon="3.06804">
        <ele>329.5</ele>
        <time>2015-11-29T10:12:47Z</time>
      </trkpt>
      <trkpt lat="43.50836" lon="3.06806">
        <ele>329.5</ele>
        <time>2015-11-29T10:12:48Z</time>
      </trkpt>
      <trkpt lat="43.50837" lon="3.06808">
        <ele>330</ele>
        <time>2015-11-29T10:12:49Z</time>
      </trkpt>
      <trkpt lat="43.50838" lon="3.0681">
        <ele>330</ele>
        <time>2015-11-29T10:12:50Z</time>
      </trkpt>
      <trkpt lat="43.5084" lon="3.06811">
        <ele>331</ele>
        <time>2015-11-29T10:12:51Z</time>
      </trkpt>
      <trkpt lat="43.50842" lon="3.06812">
        <ele>331.5</ele>
        <time>2015-11-29T10:12:52Z</time>
      </trkpt>
      <trkpt lat="43.50844" lon="3.06812">
        <ele>332.5</ele>
        <time>2015-11-29T10:12:53Z</time>
      </trkpt>
      <trkpt lat="43.50846" lon="3.0681">
        <ele>333.5</ele>
        <time>2015-11-29T10:12:55Z</time>
      </trkpt>
      <trkpt lat="43.50848" lon="3.06808">
        <ele>334</ele>
        <time>2015-11-29T10:12:55Z</time>
      </trkpt>
      <trkpt lat="43.50849" lon="3.06806">
        <ele>334.5</ele>
        <time>2015-11-29T10:12:56Z</time>
      </trkpt>
      <trkpt lat="43.5085" lon="3.06804">
        <ele>334.5</ele>
        <time>2015-11-29T10:12:57Z</time>
      </trkpt>
      <trkpt lat="43.50851" lon="3.06803">
        <ele>334.5</ele>
        <time>2015-11-29T10:12:58Z</time>
      </trkpt>
      <trkpt lat="43.5085" lon="3.06801">
        <ele>334.5</ele>
        <time>2015-11-29T10:12:59Z</time>
      </trkpt>
      <trkpt lat="43.5085" lon="3.06799">
        <ele>334.5</ele>
        <time>2015-11-29T10:13:00Z</time>
      </trkpt>
      <trkpt lat="43.50849" lon="3.06798">
        <ele>335.5</ele>
        <time>2015-11-29T10:13:01Z</time>
      </trkpt>
      <trkpt lat="43.50849" lon="3.06797">
        <ele>335.5</ele>
        <time>2015-11-29T10:13:02Z</time>
      </trkpt>
      <trkpt lat="43.50848" lon="3.06795">
        <ele>336</ele>
        <time>2015-11-29T10:13:03Z</time>
      </trkpt>
      <trkpt lat="43.50847" lon="3.06794">
        <ele>336</ele>
        <time>2015-11-29T10:13:04Z</time>
      </trkpt>
      <trkpt lat="43.50847" lon="3.06793">
        <ele>335.5</ele>
        <time>2015-11-29T10:13:05Z</time>
      </trkpt>
      <trkpt lat="43.50846" lon="3.06793">
        <ele>335.5</ele>
        <time>2015-11-29T10:13:06Z</time>
      </trkpt>
      <trkpt lat="43.50845" lon="3.06792">
        <ele>335</ele>
        <time>2015-11-29T10:13:07Z</time>
      </trkpt>
      <trkpt lat="43.50845" lon="3.06791">
        <ele>335.5</ele>
        <time>2015-11-29T10:13:09Z</time>
      </trkpt>
      <trkpt lat="43.50844" lon="3.0679">
        <ele>335.5</ele>
        <time>2015-11-29T10:13:09Z</time>
      </trkpt>
      <trkpt lat="43.50844" lon="3.0679">
        <ele>335</ele>
        <time>2015-11-29T10:13:10Z</time>
      </trkpt>
      <trkpt lat="43.50846" lon="3.06786">
        <ele>332</ele>
        <time>2015-11-29T10:13:32Z</time>
      </trkpt>
      <trkpt lat="43.50846" lon="3.06783">
        <ele>331.5</ele>
        <time>2015-11-29T10:13:34Z</time>
      </trkpt>
      <trkpt lat="43.50845" lon="3.06781">
        <ele>331.5</ele>
        <time>2015-11-29T10:13:35Z</time>
      </trkpt>
      <trkpt lat="43.50844" lon="3.06779">
        <ele>332.5</ele>
        <time>2015-11-29T10:13:36Z</time>
      </trkpt>
      <trkpt lat="43.50844" lon="3.06776">
        <ele>332.5</ele>
        <time>2015-11-29T10:13:37Z</time>
      </trkpt>
      <trkpt lat="43.50843" lon="3.06774">
        <ele>333</ele>
        <time>2015-11-29T10:13:38Z</time>
      </trkpt>
      <trkpt lat="43.50843" lon="3.06772">
        <ele>332</ele>
        <time>2015-11-29T10:13:39Z</time>
      </trkpt>
      <trkpt lat="43.50843" lon="3.06769">
        <ele>332.5</ele>
        <time>2015-11-29T10:13:40Z</time>
      </trkpt>
      <trkpt lat="43.50842" lon="3.06768">
        <ele>332.5</ele>
        <time>2015-11-29T10:13:41Z</time>
      </trkpt>
      <trkpt lat="43.50842" lon="3.06765">
        <ele>332</ele>
        <time>2015-11-29T10:13:42Z</time>
      </trkpt>
      <trkpt lat="43.50841" lon="3.06763">
        <ele>333</ele>
        <time>2015-11-29T10:13:43Z</time>
      </trkpt>
      <trkpt lat="43.50841" lon="3.0676">
        <ele>332.5</ele>
        <time>2015-11-29T10:13:44Z</time>
      </trkpt>
      <trkpt lat="43.5084" lon="3.06757">
        <ele>332.5</ele>
        <time>2015-11-29T10:13:46Z</time>
      </trkpt>
      <trkpt lat="43.5084" lon="3.06754">
        <ele>332.5</ele>
        <time>2015-11-29T10:13:46Z</time>
      </trkpt>
      <trkpt lat="43.50839" lon="3.0675">
        <ele>333</ele>
        <time>2015-11-29T10:13:47Z</time>
      </trkpt>
      <trkpt lat="43.50839" lon="3.06747">
        <ele>333.5</ele>
        <time>2015-11-29T10:13:49Z</time>
      </trkpt>
      <trkpt lat="43.50839" lon="3.06744">
        <ele>333</ele>
        <time>2015-11-29T10:13:49Z</time>
      </trkpt>
      <trkpt lat="43.50838" lon="3.06742">
        <ele>333.5</ele>
        <time>2015-11-29T10:13:50Z</time>
      </trkpt>
      <trkpt lat="43.50838" lon="3.06739">
        <ele>334</ele>
        <time>2015-11-29T10:13:51Z</time>
      </trkpt>
      <trkpt lat="43.50838" lon="3.06736">
        <ele>334</ele>
        <time>2015-11-29T10:13:52Z</time>
      </trkpt>
      <trkpt lat="43.50837" lon="3.06733">
        <ele>335</ele>
        <time>2015-11-29T10:13:54Z</time>
      </trkpt>
      <trkpt lat="43.50837" lon="3.0673">
        <ele>335</ele>
        <time>2015-11-29T10:13:54Z</time>
      </trkpt>
      <trkpt lat="43.50836" lon="3.06727">
        <ele>336</ele>
        <time>2015-11-29T10:13:55Z</time>
      </trkpt>
      <trkpt lat="43.50836" lon="3.06724">
        <ele>336</ele>
        <time>2015-11-29T10:13:56Z</time>
      </trkpt>
      <trkpt lat="43.50835" lon="3.06721">
        <ele>336.5</ele>
        <time>2015-11-29T10:13:57Z</time>
      </trkpt>
      <trkpt lat="43.50837" lon="3.06721">
        <ele>336.5</ele>
        <time>2015-11-29T10:13:58Z</time>
      </trkpt>
      <trkpt lat="43.50837" lon="3.06719">
        <ele>337</ele>
        <time>2015-11-29T10:13:59Z</time>
      </trkpt>
      <trkpt lat="43.50837" lon="3.06716">
        <ele>338</ele>
        <time>2015-11-29T10:14:00Z</time>
      </trkpt>
      <trkpt lat="43.50837" lon="3.06713">
        <ele>339</ele>
        <time>2015-11-29T10:14:01Z</time>
      </trkpt>
      <trkpt lat="43.50837" lon="3.06711">
        <ele>340</ele>
        <time>2015-11-29T10:14:02Z</time>
      </trkpt>
      <trkpt lat="43.50836" lon="3.06708">
        <ele>340.5</ele>
        <time>2015-11-29T10:14:03Z</time>
      </trkpt>
      <trkpt lat="43.50836" lon="3.06706">
        <ele>341.5</ele>
        <time>2015-11-29T10:14:04Z</time>
      </trkpt>
      <trkpt lat="43.50836" lon="3.06703">
        <ele>342</ele>
        <time>2015-11-29T10:14:05Z</time>
      </trkpt>
      <trkpt lat="43.50836" lon="3.06701">
        <ele>343</ele>
        <time>2015-11-29T10:14:06Z</time>
      </trkpt>
      <trkpt lat="43.50834" lon="3.06699">
        <ele>345</ele>
        <time>2015-11-29T10:14:07Z</time>
      </trkpt>
      <trkpt lat="43.50834" lon="3.06696">
        <ele>345</ele>
        <time>2015-11-29T10:14:08Z</time>
      </trkpt>
      <trkpt lat="43.50834" lon="3.06693">
        <ele>346</ele>
        <time>2015-11-29T10:14:09Z</time>
      </trkpt>
      <trkpt lat="43.50834" lon="3.0669">
        <ele>346.5</ele>
        <time>2015-11-29T10:14:10Z</time>
      </trkpt>
      <trkpt lat="43.50833" lon="3.06689">
        <ele>348</ele>
        <time>2015-11-29T10:14:11Z</time>
      </trkpt>
      <trkpt lat="43.50833" lon="3.06686">
        <ele>348.5</ele>
        <time>2015-11-29T10:14:12Z</time>
      </trkpt>
      <trkpt lat="43.50833" lon="3.06684">
        <ele>349</ele>
        <time>2015-11-29T10:14:13Z</time>
      </trkpt>
      <trkpt lat="43.50832" lon="3.06682">
        <ele>350.5</ele>
        <time>2015-11-29T10:14:14Z</time>
      </trkpt>
      <trkpt lat="43.50832" lon="3.0668">
        <ele>351.5</ele>
        <time>2015-11-29T10:14:15Z</time>
      </trkpt>
      <trkpt lat="43.50831" lon="3.06677">
        <ele>352.5</ele>
        <time>2015-11-29T10:14:16Z</time>
      </trkpt>
      <trkpt lat="43.50831" lon="3.06675">
        <ele>353.5</ele>
        <time>2015-11-29T10:14:17Z</time>
      </trkpt>
      <trkpt lat="43.5083" lon="3.06672">
        <ele>354</ele>
        <time>2015-11-29T10:14:18Z</time>
      </trkpt>
      <trkpt lat="43.5083" lon="3.0667">
        <ele>354.5</ele>
        <time>2015-11-29T10:14:19Z</time>
      </trkpt>
      <trkpt lat="43.5083" lon="3.06667">
        <ele>355</ele>
        <time>2015-11-29T10:14:20Z</time>
      </trkpt>
      <trkpt lat="43.5083" lon="3.06665">
        <ele>355.5</ele>
        <time>2015-11-29T10:14:21Z</time>
      </trkpt>
      <trkpt lat="43.50829" lon="3.06662">
        <ele>356</ele>
        <time>2015-11-29T10:14:22Z</time>
      </trkpt>
      <trkpt lat="43.50829" lon="3.06659">
        <ele>356.5</ele>
        <time>2015-11-29T10:14:23Z</time>
      </trkpt>
      <trkpt lat="43.50829" lon="3.06657">
        <ele>356.5</ele>
        <time>2015-11-29T10:14:24Z</time>
      </trkpt>
      <trkpt lat="43.50829" lon="3.06654">
        <ele>357</ele>
        <time>2015-11-29T10:14:25Z</time>
      </trkpt>
      <trkpt lat="43.50829" lon="3.06651">
        <ele>356.5</ele>
        <time>2015-11-29T10:14:26Z</time>
      </trkpt>
      <trkpt lat="43.50829" lon="3.06649">
        <ele>357</ele>
        <time>2015-11-29T10:14:27Z</time>
      </trkpt>
      <trkpt lat="43.5083" lon="3.06648">
        <ele>358</ele>
        <time>2015-11-29T10:14:28Z</time>
      </trkpt>
      <trkpt lat="43.5083" lon="3.06646">
        <ele>358</ele>
        <time>2015-11-29T10:14:29Z</time>
      </trkpt>
      <trkpt lat="43.50829" lon="3.06644">
        <ele>359.5</ele>
        <time>2015-11-29T10:14:30Z</time>
      </trkpt>
      <trkpt lat="43.50829" lon="3.06642">
        <ele>360</ele>
        <time>2015-11-29T10:14:31Z</time>
      </trkpt>
      <trkpt lat="43.50828" lon="3.0664">
        <ele>360</ele>
        <time>2015-11-29T10:14:32Z</time>
      </trkpt>
      <trkpt lat="43.50827" lon="3.06632">
        <ele>358</ele>
        <time>2015-11-29T10:14:34Z</time>
      </trkpt>
      <trkpt lat="43.50826" lon="3.06631">
        <ele>359</ele>
        <time>2015-11-29T10:14:35Z</time>
      </trkpt>
      <trkpt lat="43.50825" lon="3.06629">
        <ele>358.5</ele>
        <time>2015-11-29T10:14:36Z</time>
      </trkpt>
      <trkpt lat="43.50823" lon="3.06628">
        <ele>359</ele>
        <time>2015-11-29T10:14:37Z</time>
      </trkpt>
      <trkpt lat="43.50822" lon="3.06626">
        <ele>359</ele>
        <time>2015-11-29T10:14:38Z</time>
      </trkpt>
      <trkpt lat="43.50821" lon="3.06624">
        <ele>358.5</ele>
        <time>2015-11-29T10:14:39Z</time>
      </trkpt>
      <trkpt lat="43.50819" lon="3.06622">
        <ele>357.5</ele>
        <time>2015-11-29T10:14:40Z</time>
      </trkpt>
      <trkpt lat="43.50818" lon="3.06621">
        <ele>357</ele>
        <time>2015-11-29T10:14:41Z</time>
      </trkpt>
      <trkpt lat="43.50817" lon="3.0662">
        <ele>356</ele>
        <time>2015-11-29T10:14:42Z</time>
      </trkpt>
      <trkpt lat="43.50815" lon="3.06619">
        <ele>355</ele>
        <time>2015-11-29T10:14:43Z</time>
      </trkpt>
      <trkpt lat="43.50814" lon="3.06618">
        <ele>354</ele>
        <time>2015-11-29T10:14:44Z</time>
      </trkpt>
      <trkpt lat="43.50813" lon="3.06618">
        <ele>353.5</ele>
        <time>2015-11-29T10:14:45Z</time>
      </trkpt>
      <trkpt lat="43.50812" lon="3.06618">
        <ele>352.5</ele>
        <time>2015-11-29T10:14:46Z</time>
      </trkpt>
      <trkpt lat="43.50811" lon="3.06618">
        <ele>352.5</ele>
        <time>2015-11-29T10:14:47Z</time>
      </trkpt>
      <trkpt lat="43.5081" lon="3.06618">
        <ele>352</ele>
        <time>2015-11-29T10:14:48Z</time>
      </trkpt>
      <trkpt lat="43.50809" lon="3.06619">
        <ele>351.5</ele>
        <time>2015-11-29T10:14:49Z</time>
      </trkpt>
      <trkpt lat="43.50812" lon="3.0662">
        <ele>352.5</ele>
        <time>2015-11-29T10:14:51Z</time>
      </trkpt>
      <trkpt lat="43.50811" lon="3.0662">
        <ele>352.5</ele>
        <time>2015-11-29T10:14:52Z</time>
      </trkpt>
      <trkpt lat="43.5081" lon="3.06621">
        <ele>353</ele>
        <time>2015-11-29T10:14:53Z</time>
      </trkpt>
      <trkpt lat="43.50808" lon="3.06622">
        <ele>352.5</ele>
        <time>2015-11-29T10:14:54Z</time>
      </trkpt>
      <trkpt lat="43.50807" lon="3.06623">
        <ele>353</ele>
        <time>2015-11-29T10:14:55Z</time>
      </trkpt>
      <trkpt lat="43.50806" lon="3.06624">
        <ele>354</ele>
        <time>2015-11-29T10:14:56Z</time>
      </trkpt>
      <trkpt lat="43.50805" lon="3.06625">
        <ele>354</ele>
        <time>2015-11-29T10:14:57Z</time>
      </trkpt>
      <trkpt lat="43.50803" lon="3.06626">
        <ele>354</ele>
        <time>2015-11-29T10:14:58Z</time>
      </trkpt>
      <trkpt lat="43.50802" lon="3.06627">
        <ele>354.5</ele>
        <time>2015-11-29T10:14:59Z</time>
      </trkpt>
      <trkpt lat="43.508" lon="3.06628">
        <ele>354.5</ele>
        <time>2015-11-29T10:15:00Z</time>
      </trkpt>
      <trkpt lat="43.50799" lon="3.06628">
        <ele>353.5</ele>
        <time>2015-11-29T10:15:01Z</time>
      </trkpt>
      <trkpt lat="43.50797" lon="3.06627">
        <ele>352.5</ele>
        <time>2015-11-29T10:15:02Z</time>
      </trkpt>
      <trkpt lat="43.50795" lon="3.06627">
        <ele>351.5</ele>
        <time>2015-11-29T10:15:03Z</time>
      </trkpt>
      <trkpt lat="43.50793" lon="3.06627">
        <ele>351.5</ele>
        <time>2015-11-29T10:15:04Z</time>
      </trkpt>
      <trkpt lat="43.50791" lon="3.06628">
        <ele>351.5</ele>
        <time>2015-11-29T10:15:05Z</time>
      </trkpt>
      <trkpt lat="43.50789" lon="3.06628">
        <ele>351.5</ele>
        <time>2015-11-29T10:15:06Z</time>
      </trkpt>
      <trkpt lat="43.50787" lon="3.06629">
        <ele>351.5</ele>
        <time>2015-11-29T10:15:07Z</time>
      </trkpt>
      <trkpt lat="43.50785" lon="3.06629">
        <ele>351</ele>
        <time>2015-11-29T10:15:08Z</time>
      </trkpt>
      <trkpt lat="43.50783" lon="3.06629">
        <ele>351</ele>
        <time>2015-11-29T10:15:09Z</time>
      </trkpt>
      <trkpt lat="43.50781" lon="3.06629">
        <ele>351</ele>
        <time>2015-11-29T10:15:10Z</time>
      </trkpt>
      <trkpt lat="43.5078" lon="3.06629">
        <ele>350.5</ele>
        <time>2015-11-29T10:15:11Z</time>
      </trkpt>
      <trkpt lat="43.50778" lon="3.0663">
        <ele>350.5</ele>
        <time>2015-11-29T10:15:12Z</time>
      </trkpt>
      <trkpt lat="43.50776" lon="3.0663">
        <ele>350.5</ele>
        <time>2015-11-29T10:15:13Z</time>
      </trkpt>
      <trkpt lat="43.50775" lon="3.0663">
        <ele>350.5</ele>
        <time>2015-11-29T10:15:14Z</time>
      </trkpt>
      <trkpt lat="43.50773" lon="3.0663">
        <ele>350.5</ele>
        <time>2015-11-29T10:15:15Z</time>
      </trkpt>
      <trkpt lat="43.50771" lon="3.0663">
        <ele>350</ele>
        <time>2015-11-29T10:15:16Z</time>
      </trkpt>
      <trkpt lat="43.5077" lon="3.0663">
        <ele>350</ele>
        <time>2015-11-29T10:15:17Z</time>
      </trkpt>
      <trkpt lat="43.50768" lon="3.0663">
        <ele>350</ele>
        <time>2015-11-29T10:15:18Z</time>
      </trkpt>
      <trkpt lat="43.50766" lon="3.06631">
        <ele>350</ele>
        <time>2015-11-29T10:15:19Z</time>
      </trkpt>
      <trkpt lat="43.50765" lon="3.06631">
        <ele>350</ele>
        <time>2015-11-29T10:15:20Z</time>
      </trkpt>
      <trkpt lat="43.50763" lon="3.06631">
        <ele>350</ele>
        <time>2015-11-29T10:15:21Z</time>
      </trkpt>
      <trkpt lat="43.50762" lon="3.06631">
        <ele>349.5</ele>
        <time>2015-11-29T10:15:22Z</time>
      </trkpt>
      <trkpt lat="43.5076" lon="3.06631">
        <ele>349.5</ele>
        <time>2015-11-29T10:15:23Z</time>
      </trkpt>
      <trkpt lat="43.50758" lon="3.06632">
        <ele>349.5</ele>
        <time>2015-11-29T10:15:24Z</time>
      </trkpt>
      <trkpt lat="43.50757" lon="3.06632">
        <ele>350</ele>
        <time>2015-11-29T10:15:25Z</time>
      </trkpt>
      <trkpt lat="43.50755" lon="3.06632">
        <ele>349.5</ele>
        <time>2015-11-29T10:15:26Z</time>
      </trkpt>
      <trkpt lat="43.50754" lon="3.06633">
        <ele>350</ele>
        <time>2015-11-29T10:15:27Z</time>
      </trkpt>
      <trkpt lat="43.50752" lon="3.06633">
        <ele>350</ele>
        <time>2015-11-29T10:15:28Z</time>
      </trkpt>
      <trkpt lat="43.50751" lon="3.06633">
        <ele>350.5</ele>
        <time>2015-11-29T10:15:29Z</time>
      </trkpt>
      <trkpt lat="43.50749" lon="3.06633">
        <ele>350.5</ele>
        <time>2015-11-29T10:15:30Z</time>
      </trkpt>
      <trkpt lat="43.50748" lon="3.06634">
        <ele>351</ele>
        <time>2015-11-29T10:15:31Z</time>
      </trkpt>
      <trkpt lat="43.50746" lon="3.06634">
        <ele>351</ele>
        <time>2015-11-29T10:15:32Z</time>
      </trkpt>
      <trkpt lat="43.50744" lon="3.06634">
        <ele>351.5</ele>
        <time>2015-11-29T10:15:33Z</time>
      </trkpt>
      <trkpt lat="43.50743" lon="3.06633">
        <ele>351.5</ele>
        <time>2015-11-29T10:15:34Z</time>
      </trkpt>
      <trkpt lat="43.50741" lon="3.06633">
        <ele>351.5</ele>
        <time>2015-11-29T10:15:35Z</time>
      </trkpt>
      <trkpt lat="43.5074" lon="3.06633">
        <ele>351.5</ele>
        <time>2015-11-29T10:15:36Z</time>
      </trkpt>
      <trkpt lat="43.50738" lon="3.06633">
        <ele>352</ele>
        <time>2015-11-29T10:15:37Z</time>
      </trkpt>
      <trkpt lat="43.50736" lon="3.06633">
        <ele>352</ele>
        <time>2015-11-29T10:15:38Z</time>
      </trkpt>
      <trkpt lat="43.50735" lon="3.06632">
        <ele>352</ele>
        <time>2015-11-29T10:15:39Z</time>
      </trkpt>
      <trkpt lat="43.50733" lon="3.06633">
        <ele>352.5</ele>
        <time>2015-11-29T10:15:40Z</time>
      </trkpt>
      <trkpt lat="43.50732" lon="3.06633">
        <ele>352.5</ele>
        <time>2015-11-29T10:15:41Z</time>
      </trkpt>
      <trkpt lat="43.5073" lon="3.06632">
        <ele>353</ele>
        <time>2015-11-29T10:15:42Z</time>
      </trkpt>
      <trkpt lat="43.50728" lon="3.06632">
        <ele>354</ele>
        <time>2015-11-29T10:15:43Z</time>
      </trkpt>
      <trkpt lat="43.50727" lon="3.06632">
        <ele>354.5</ele>
        <time>2015-11-29T10:15:44Z</time>
      </trkpt>
      <trkpt lat="43.50725" lon="3.06632">
        <ele>355</ele>
        <time>2015-11-29T10:15:45Z</time>
      </trkpt>
      <trkpt lat="43.50723" lon="3.06632">
        <ele>355</ele>
        <time>2015-11-29T10:15:46Z</time>
      </trkpt>
      <trkpt lat="43.50722" lon="3.06631">
        <ele>355.5</ele>
        <time>2015-11-29T10:15:47Z</time>
      </trkpt>
      <trkpt lat="43.5072" lon="3.06631">
        <ele>356</ele>
        <time>2015-11-29T10:15:48Z</time>
      </trkpt>
      <trkpt lat="43.50718" lon="3.06631">
        <ele>356.5</ele>
        <time>2015-11-29T10:15:49Z</time>
      </trkpt>
      <trkpt lat="43.50717" lon="3.06631">
        <ele>357.5</ele>
        <time>2015-11-29T10:15:50Z</time>
      </trkpt>
      <trkpt lat="43.50716" lon="3.0663">
        <ele>358</ele>
        <time>2015-11-29T10:15:51Z</time>
      </trkpt>
      <trkpt lat="43.50714" lon="3.06629">
        <ele>357.5</ele>
        <time>2015-11-29T10:15:52Z</time>
      </trkpt>
      <trkpt lat="43.50712" lon="3.06628">
        <ele>357.5</ele>
        <time>2015-11-29T10:15:53Z</time>
      </trkpt>
      <trkpt lat="43.50711" lon="3.06628">
        <ele>357.5</ele>
        <time>2015-11-29T10:15:54Z</time>
      </trkpt>
      <trkpt lat="43.50709" lon="3.06627">
        <ele>357.5</ele>
        <time>2015-11-29T10:15:55Z</time>
      </trkpt>
      <trkpt lat="43.50707" lon="3.06627">
        <ele>357.5</ele>
        <time>2015-11-29T10:15:56Z</time>
      </trkpt>
      <trkpt lat="43.50706" lon="3.06626">
        <ele>358</ele>
        <time>2015-11-29T10:15:57Z</time>
      </trkpt>
      <trkpt lat="43.50705" lon="3.06626">
        <ele>358.5</ele>
        <time>2015-11-29T10:15:58Z</time>
      </trkpt>
      <trkpt lat="43.50703" lon="3.06625">
        <ele>358.5</ele>
        <time>2015-11-29T10:15:59Z</time>
      </trkpt>
      <trkpt lat="43.50701" lon="3.06624">
        <ele>357.5</ele>
        <time>2015-11-29T10:16:00Z</time>
      </trkpt>
      <trkpt lat="43.507" lon="3.06623">
        <ele>358</ele>
        <time>2015-11-29T10:16:01Z</time>
      </trkpt>
      <trkpt lat="43.50698" lon="3.06623">
        <ele>358.5</ele>
        <time>2015-11-29T10:16:02Z</time>
      </trkpt>
      <trkpt lat="43.50696" lon="3.06623">
        <ele>358</ele>
        <time>2015-11-29T10:16:03Z</time>
      </trkpt>
      <trkpt lat="43.50695" lon="3.06622">
        <ele>357.5</ele>
        <time>2015-11-29T10:16:04Z</time>
      </trkpt>
      <trkpt lat="43.50693" lon="3.06622">
        <ele>357.5</ele>
        <time>2015-11-29T10:16:05Z</time>
      </trkpt>
      <trkpt lat="43.50692" lon="3.06621">
        <ele>357.5</ele>
        <time>2015-11-29T10:16:06Z</time>
      </trkpt>
      <trkpt lat="43.5069" lon="3.06622">
        <ele>358</ele>
        <time>2015-11-29T10:16:07Z</time>
      </trkpt>
      <trkpt lat="43.50688" lon="3.06622">
        <ele>357.5</ele>
        <time>2015-11-29T10:16:08Z</time>
      </trkpt>
      <trkpt lat="43.50687" lon="3.06621">
        <ele>357.5</ele>
        <time>2015-11-29T10:16:09Z</time>
      </trkpt>
      <trkpt lat="43.50685" lon="3.06621">
        <ele>357</ele>
        <time>2015-11-29T10:16:10Z</time>
      </trkpt>
      <trkpt lat="43.50683" lon="3.06621">
        <ele>357</ele>
        <time>2015-11-29T10:16:11Z</time>
      </trkpt>
      <trkpt lat="43.50682" lon="3.06621">
        <ele>356.5</ele>
        <time>2015-11-29T10:16:12Z</time>
      </trkpt>
      <trkpt lat="43.5068" lon="3.06621">
        <ele>357</ele>
        <time>2015-11-29T10:16:13Z</time>
      </trkpt>
      <trkpt lat="43.50678" lon="3.06621">
        <ele>356.5</ele>
        <time>2015-11-29T10:16:14Z</time>
      </trkpt>
      <trkpt lat="43.50677" lon="3.06622">
        <ele>356.5</ele>
        <time>2015-11-29T10:16:15Z</time>
      </trkpt>
      <trkpt lat="43.50675" lon="3.06622">
        <ele>356.5</ele>
        <time>2015-11-29T10:16:16Z</time>
      </trkpt>
      <trkpt lat="43.50674" lon="3.06623">
        <ele>357.5</ele>
        <time>2015-11-29T10:16:17Z</time>
      </trkpt>
      <trkpt lat="43.50673" lon="3.06624">
        <ele>357.5</ele>
        <time>2015-11-29T10:16:18Z</time>
      </trkpt>
      <trkpt lat="43.50672" lon="3.06625">
        <ele>359</ele>
        <time>2015-11-29T10:16:19Z</time>
      </trkpt>
      <trkpt lat="43.50671" lon="3.06626">
        <ele>359.5</ele>
        <time>2015-11-29T10:16:20Z</time>
      </trkpt>
      <trkpt lat="43.5067" lon="3.06627">
        <ele>359.5</ele>
        <time>2015-11-29T10:16:21Z</time>
      </trkpt>
      <trkpt lat="43.50668" lon="3.06628">
        <ele>359.5</ele>
        <time>2015-11-29T10:16:22Z</time>
      </trkpt>
      <trkpt lat="43.50667" lon="3.06628">
        <ele>359.5</ele>
        <time>2015-11-29T10:16:23Z</time>
      </trkpt>
      <trkpt lat="43.50666" lon="3.0663">
        <ele>360</ele>
        <time>2015-11-29T10:16:24Z</time>
      </trkpt>
      <trkpt lat="43.50665" lon="3.06631">
        <ele>360</ele>
        <time>2015-11-29T10:16:25Z</time>
      </trkpt>
      <trkpt lat="43.50664" lon="3.06632">
        <ele>360</ele>
        <time>2015-11-29T10:16:26Z</time>
      </trkpt>
      <trkpt lat="43.50663" lon="3.06633">
        <ele>360</ele>
        <time>2015-11-29T10:16:26Z</time>
      </trkpt>
      <trkpt lat="43.50663" lon="3.06635">
        <ele>360</ele>
        <time>2015-11-29T10:16:28Z</time>
      </trkpt>
      <trkpt lat="43.50662" lon="3.06637">
        <ele>360.5</ele>
        <time>2015-11-29T10:16:28Z</time>
      </trkpt>
      <trkpt lat="43.50661" lon="3.06639">
        <ele>361</ele>
        <time>2015-11-29T10:16:29Z</time>
      </trkpt>
      <trkpt lat="43.5066" lon="3.06641">
        <ele>361</ele>
        <time>2015-11-29T10:16:30Z</time>
      </trkpt>
      <trkpt lat="43.50659" lon="3.06643">
        <ele>361</ele>
        <time>2015-11-29T10:16:31Z</time>
      </trkpt>
      <trkpt lat="43.50658" lon="3.06645">
        <ele>361.5</ele>
        <time>2015-11-29T10:16:32Z</time>
      </trkpt>
      <trkpt lat="43.50658" lon="3.06647">
        <ele>362</ele>
        <time>2015-11-29T10:16:33Z</time>
      </trkpt>
      <trkpt lat="43.50657" lon="3.06649">
        <ele>362.5</ele>
        <time>2015-11-29T10:16:34Z</time>
      </trkpt>
      <trkpt lat="43.50657" lon="3.06651">
        <ele>362.5</ele>
        <time>2015-11-29T10:16:35Z</time>
      </trkpt>
      <trkpt lat="43.50656" lon="3.06654">
        <ele>362</ele>
        <time>2015-11-29T10:16:36Z</time>
      </trkpt>
      <trkpt lat="43.50655" lon="3.06656">
        <ele>361.5</ele>
        <time>2015-11-29T10:16:37Z</time>
      </trkpt>
      <trkpt lat="43.50654" lon="3.06658">
        <ele>361.5</ele>
        <time>2015-11-29T10:16:38Z</time>
      </trkpt>
      <trkpt lat="43.50654" lon="3.06659">
        <ele>362</ele>
        <time>2015-11-29T10:16:39Z</time>
      </trkpt>
      <trkpt lat="43.50654" lon="3.06661">
        <ele>362.5</ele>
        <time>2015-11-29T10:16:40Z</time>
      </trkpt>
      <trkpt lat="43.50653" lon="3.06663">
        <ele>363</ele>
        <time>2015-11-29T10:16:41Z</time>
      </trkpt>
      <trkpt lat="43.50652" lon="3.06664">
        <ele>363.5</ele>
        <time>2015-11-29T10:16:42Z</time>
      </trkpt>
      <trkpt lat="43.50651" lon="3.06665">
        <ele>364</ele>
        <time>2015-11-29T10:16:43Z</time>
      </trkpt>
      <trkpt lat="43.5065" lon="3.06664">
        <ele>364.5</ele>
        <time>2015-11-29T10:16:44Z</time>
      </trkpt>
      <trkpt lat="43.5065" lon="3.06663">
        <ele>365</ele>
        <time>2015-11-29T10:16:45Z</time>
      </trkpt>
      <trkpt lat="43.5065" lon="3.06662">
        <ele>365</ele>
        <time>2015-11-29T10:16:47Z</time>
      </trkpt>
      <trkpt lat="43.5065" lon="3.06658">
        <ele>364.5</ele>
        <time>2015-11-29T10:16:47Z</time>
      </trkpt>
      <trkpt lat="43.5065" lon="3.06656">
        <ele>365</ele>
        <time>2015-11-29T10:16:48Z</time>
      </trkpt>
      <trkpt lat="43.5065" lon="3.06655">
        <ele>365</ele>
        <time>2015-11-29T10:16:49Z</time>
      </trkpt>
      <trkpt lat="43.5065" lon="3.06652">
        <ele>365.5</ele>
        <time>2015-11-29T10:16:50Z</time>
      </trkpt>
      <trkpt lat="43.50651" lon="3.0665">
        <ele>365.5</ele>
        <time>2015-11-29T10:16:51Z</time>
      </trkpt>
      <trkpt lat="43.50651" lon="3.06648">
        <ele>365.5</ele>
        <time>2015-11-29T10:16:52Z</time>
      </trkpt>
      <trkpt lat="43.50651" lon="3.06646">
        <ele>365.5</ele>
        <time>2015-11-29T10:16:53Z</time>
      </trkpt>
      <trkpt lat="43.50651" lon="3.06645">
        <ele>365.5</ele>
        <time>2015-11-29T10:16:54Z</time>
      </trkpt>
      <trkpt lat="43.50652" lon="3.06642">
        <ele>366.5</ele>
        <time>2015-11-29T10:16:55Z</time>
      </trkpt>
      <trkpt lat="43.50652" lon="3.0664">
        <ele>366.5</ele>
        <time>2015-11-29T10:16:56Z</time>
      </trkpt>
      <trkpt lat="43.50652" lon="3.06636">
        <ele>366.5</ele>
        <time>2015-11-29T10:16:57Z</time>
      </trkpt>
      <trkpt lat="43.50652" lon="3.06631">
        <ele>368</ele>
        <time>2015-11-29T10:16:58Z</time>
      </trkpt>
      <trkpt lat="43.50653" lon="3.06627">
        <ele>367.5</ele>
        <time>2015-11-29T10:16:59Z</time>
      </trkpt>
      <trkpt lat="43.50653" lon="3.06624">
        <ele>368</ele>
        <time>2015-11-29T10:17:01Z</time>
      </trkpt>
      <trkpt lat="43.50653" lon="3.06621">
        <ele>368</ele>
        <time>2015-11-29T10:17:01Z</time>
      </trkpt>
      <trkpt lat="43.50653" lon="3.06618">
        <ele>369</ele>
        <time>2015-11-29T10:17:02Z</time>
      </trkpt>
      <trkpt lat="43.50654" lon="3.06615">
        <ele>369.5</ele>
        <time>2015-11-29T10:17:03Z</time>
      </trkpt>
      <trkpt lat="43.50655" lon="3.06612">
        <ele>368.5</ele>
        <time>2015-11-29T10:17:04Z</time>
      </trkpt>
      <trkpt lat="43.50655" lon="3.06609">
        <ele>369.5</ele>
        <time>2015-11-29T10:17:05Z</time>
      </trkpt>
      <trkpt lat="43.50656" lon="3.06605">
        <ele>370</ele>
        <time>2015-11-29T10:17:06Z</time>
      </trkpt>
      <trkpt lat="43.50657" lon="3.06601">
        <ele>371.5</ele>
        <time>2015-11-29T10:17:07Z</time>
      </trkpt>
      <trkpt lat="43.50658" lon="3.06597">
        <ele>371.5</ele>
        <time>2015-11-29T10:17:08Z</time>
      </trkpt>
      <trkpt lat="43.5066" lon="3.06594">
        <ele>372.5</ele>
        <time>2015-11-29T10:17:09Z</time>
      </trkpt>
      <trkpt lat="43.50662" lon="3.0659">
        <ele>372</ele>
        <time>2015-11-29T10:17:11Z</time>
      </trkpt>
      <trkpt lat="43.50664" lon="3.06587">
        <ele>372.5</ele>
        <time>2015-11-29T10:17:11Z</time>
      </trkpt>
      <trkpt lat="43.50666" lon="3.06585">
        <ele>373</ele>
        <time>2015-11-29T10:17:12Z</time>
      </trkpt>
      <trkpt lat="43.50669" lon="3.06583">
        <ele>373.5</ele>
        <time>2015-11-29T10:17:13Z</time>
      </trkpt>
      <trkpt lat="43.50672" lon="3.06582">
        <ele>374</ele>
        <time>2015-11-29T10:17:15Z</time>
      </trkpt>
      <trkpt lat="43.50675" lon="3.06581">
        <ele>374.5</ele>
        <time>2015-11-29T10:17:15Z</time>
      </trkpt>
      <trkpt lat="43.50678" lon="3.06581">
        <ele>374.5</ele>
        <time>2015-11-29T10:17:16Z</time>
      </trkpt>
      <trkpt lat="43.50682" lon="3.0658">
        <ele>375.5</ele>
        <time>2015-11-29T10:17:17Z</time>
      </trkpt>
      <trkpt lat="43.50685" lon="3.0658">
        <ele>376</ele>
        <time>2015-11-29T10:17:18Z</time>
      </trkpt>
      <trkpt lat="43.50688" lon="3.06579">
        <ele>376.5</ele>
        <time>2015-11-29T10:17:19Z</time>
      </trkpt>
      <trkpt lat="43.50691" lon="3.06578">
        <ele>377</ele>
        <time>2015-11-29T10:17:20Z</time>
      </trkpt>
      <trkpt lat="43.50694" lon="3.06577">
        <ele>377</ele>
        <time>2015-11-29T10:17:21Z</time>
      </trkpt>
      <trkpt lat="43.50697" lon="3.06575">
        <ele>377</ele>
        <time>2015-11-29T10:17:22Z</time>
      </trkpt>
      <trkpt lat="43.507" lon="3.06573">
        <ele>376.5</ele>
        <time>2015-11-29T10:17:23Z</time>
      </trkpt>
      <trkpt lat="43.50703" lon="3.06572">
        <ele>375.5</ele>
        <time>2015-11-29T10:17:24Z</time>
      </trkpt>
      <trkpt lat="43.50706" lon="3.06569">
        <ele>375</ele>
        <time>2015-11-29T10:17:25Z</time>
      </trkpt>
      <trkpt lat="43.50708" lon="3.06567">
        <ele>374.5</ele>
        <time>2015-11-29T10:17:26Z</time>
      </trkpt>
      <trkpt lat="43.5071" lon="3.06565">
        <ele>374.5</ele>
        <time>2015-11-29T10:17:27Z</time>
      </trkpt>
      <trkpt lat="43.50712" lon="3.06564">
        <ele>374</ele>
        <time>2015-11-29T10:17:28Z</time>
      </trkpt>
      <trkpt lat="43.50714" lon="3.06562">
        <ele>373.5</ele>
        <time>2015-11-29T10:17:29Z</time>
      </trkpt>
      <trkpt lat="43.50715" lon="3.0656">
        <ele>373</ele>
        <time>2015-11-29T10:17:30Z</time>
      </trkpt>
      <trkpt lat="43.50717" lon="3.06558">
        <ele>373</ele>
        <time>2015-11-29T10:17:31Z</time>
      </trkpt>
      <trkpt lat="43.50718" lon="3.06556">
        <ele>372.5</ele>
        <time>2015-11-29T10:17:32Z</time>
      </trkpt>
      <trkpt lat="43.5072" lon="3.06554">
        <ele>372.5</ele>
        <time>2015-11-29T10:17:33Z</time>
      </trkpt>
      <trkpt lat="43.50721" lon="3.06552">
        <ele>372.5</ele>
        <time>2015-11-29T10:17:34Z</time>
      </trkpt>
      <trkpt lat="43.50723" lon="3.06551">
        <ele>372.5</ele>
        <time>2015-11-29T10:17:35Z</time>
      </trkpt>
      <trkpt lat="43.50724" lon="3.06549">
        <ele>372.5</ele>
        <time>2015-11-29T10:17:36Z</time>
      </trkpt>
      <trkpt lat="43.50725" lon="3.06547">
        <ele>373</ele>
        <time>2015-11-29T10:17:37Z</time>
      </trkpt>
      <trkpt lat="43.50727" lon="3.06545">
        <ele>373</ele>
        <time>2015-11-29T10:17:38Z</time>
      </trkpt>
      <trkpt lat="43.50728" lon="3.06543">
        <ele>373</ele>
        <time>2015-11-29T10:17:39Z</time>
      </trkpt>
      <trkpt lat="43.5073" lon="3.06542">
        <ele>373</ele>
        <time>2015-11-29T10:17:40Z</time>
      </trkpt>
      <trkpt lat="43.50731" lon="3.0654">
        <ele>373.5</ele>
        <time>2015-11-29T10:17:41Z</time>
      </trkpt>
      <trkpt lat="43.50732" lon="3.06538">
        <ele>373.5</ele>
        <time>2015-11-29T10:17:42Z</time>
      </trkpt>
      <trkpt lat="43.50733" lon="3.06536">
        <ele>373.5</ele>
        <time>2015-11-29T10:17:43Z</time>
      </trkpt>
      <trkpt lat="43.50735" lon="3.06534">
        <ele>373</ele>
        <time>2015-11-29T10:17:44Z</time>
      </trkpt>
      <trkpt lat="43.50736" lon="3.06532">
        <ele>373</ele>
        <time>2015-11-29T10:17:45Z</time>
      </trkpt>
      <trkpt lat="43.50737" lon="3.0653">
        <ele>373</ele>
        <time>2015-11-29T10:17:46Z</time>
      </trkpt>
      <trkpt lat="43.50738" lon="3.06528">
        <ele>373</ele>
        <time>2015-11-29T10:17:47Z</time>
      </trkpt>
      <trkpt lat="43.5074" lon="3.06526">
        <ele>373.5</ele>
        <time>2015-11-29T10:17:48Z</time>
      </trkpt>
      <trkpt lat="43.5074" lon="3.06523">
        <ele>373.5</ele>
        <time>2015-11-29T10:17:49Z</time>
      </trkpt>
      <trkpt lat="43.50742" lon="3.06521">
        <ele>374</ele>
        <time>2015-11-29T10:17:50Z</time>
      </trkpt>
      <trkpt lat="43.50743" lon="3.06518">
        <ele>374</ele>
        <time>2015-11-29T10:17:51Z</time>
      </trkpt>
      <trkpt lat="43.50744" lon="3.06517">
        <ele>373.5</ele>
        <time>2015-11-29T10:17:52Z</time>
      </trkpt>
      <trkpt lat="43.50745" lon="3.06514">
        <ele>374</ele>
        <time>2015-11-29T10:17:53Z</time>
      </trkpt>
      <trkpt lat="43.50746" lon="3.06512">
        <ele>374</ele>
        <time>2015-11-29T10:17:54Z</time>
      </trkpt>
      <trkpt lat="43.50746" lon="3.06509">
        <ele>374.5</ele>
        <time>2015-11-29T10:17:55Z</time>
      </trkpt>
      <trkpt lat="43.50747" lon="3.06507">
        <ele>375</ele>
        <time>2015-11-29T10:17:56Z</time>
      </trkpt>
      <trkpt lat="43.50748" lon="3.06504">
        <ele>375.5</ele>
        <time>2015-11-29T10:17:57Z</time>
      </trkpt>
      <trkpt lat="43.50749" lon="3.06502">
        <ele>375.5</ele>
        <time>2015-11-29T10:17:58Z</time>
      </trkpt>
      <trkpt lat="43.50749" lon="3.065">
        <ele>375.5</ele>
        <time>2015-11-29T10:17:59Z</time>
      </trkpt>
      <trkpt lat="43.5075" lon="3.06498">
        <ele>376</ele>
        <time>2015-11-29T10:18:00Z</time>
      </trkpt>
      <trkpt lat="43.5075" lon="3.06495">
        <ele>376.5</ele>
        <time>2015-11-29T10:18:01Z</time>
      </trkpt>
      <trkpt lat="43.50751" lon="3.06493">
        <ele>377</ele>
        <time>2015-11-29T10:18:02Z</time>
      </trkpt>
      <trkpt lat="43.50751" lon="3.0649">
        <ele>377.5</ele>
        <time>2015-11-29T10:18:03Z</time>
      </trkpt>
      <trkpt lat="43.50751" lon="3.06488">
        <ele>378</ele>
        <time>2015-11-29T10:18:04Z</time>
      </trkpt>
      <trkpt lat="43.50752" lon="3.06485">
        <ele>378.5</ele>
        <time>2015-11-29T10:18:05Z</time>
      </trkpt>
      <trkpt lat="43.50752" lon="3.06483">
        <ele>379</ele>
        <time>2015-11-29T10:18:06Z</time>
      </trkpt>
      <trkpt lat="43.50751" lon="3.06481">
        <ele>379</ele>
        <time>2015-11-29T10:18:07Z</time>
      </trkpt>
      <trkpt lat="43.50751" lon="3.06478">
        <ele>379.5</ele>
        <time>2015-11-29T10:18:08Z</time>
      </trkpt>
      <trkpt lat="43.50751" lon="3.06475">
        <ele>379</ele>
        <time>2015-11-29T10:18:09Z</time>
      </trkpt>
      <trkpt lat="43.50751" lon="3.06473">
        <ele>379.5</ele>
        <time>2015-11-29T10:18:10Z</time>
      </trkpt>
      <trkpt lat="43.50751" lon="3.06471">
        <ele>379.5</ele>
        <time>2015-11-29T10:18:11Z</time>
      </trkpt>
      <trkpt lat="43.5075" lon="3.06469">
        <ele>380</ele>
        <time>2015-11-29T10:18:12Z</time>
      </trkpt>
      <trkpt lat="43.5075" lon="3.06467">
        <ele>380</ele>
        <time>2015-11-29T10:18:13Z</time>
      </trkpt>
      <trkpt lat="43.50749" lon="3.06464">
        <ele>380</ele>
        <time>2015-11-29T10:18:14Z</time>
      </trkpt>
      <trkpt lat="43.50749" lon="3.06462">
        <ele>380</ele>
        <time>2015-11-29T10:18:15Z</time>
      </trkpt>
      <trkpt lat="43.50748" lon="3.06459">
        <ele>381</ele>
        <time>2015-11-29T10:18:16Z</time>
      </trkpt>
      <trkpt lat="43.50747" lon="3.06457">
        <ele>380.5</ele>
        <time>2015-11-29T10:18:17Z</time>
      </trkpt>
      <trkpt lat="43.50746" lon="3.06454">
        <ele>381</ele>
        <time>2015-11-29T10:18:18Z</time>
      </trkpt>
      <trkpt lat="43.50746" lon="3.06452">
        <ele>382</ele>
        <time>2015-11-29T10:18:19Z</time>
      </trkpt>
      <trkpt lat="43.50745" lon="3.0645">
        <ele>382</ele>
        <time>2015-11-29T10:18:20Z</time>
      </trkpt>
      <trkpt lat="43.50744" lon="3.06447">
        <ele>382</ele>
        <time>2015-11-29T10:18:21Z</time>
      </trkpt>
      <trkpt lat="43.50744" lon="3.06445">
        <ele>382</ele>
        <time>2015-11-29T10:18:22Z</time>
      </trkpt>
      <trkpt lat="43.50743" lon="3.06443">
        <ele>382.5</ele>
        <time>2015-11-29T10:18:23Z</time>
      </trkpt>
      <trkpt lat="43.50743" lon="3.06441">
        <ele>382</ele>
        <time>2015-11-29T10:18:24Z</time>
      </trkpt>
      <trkpt lat="43.50742" lon="3.06438">
        <ele>382.5</ele>
        <time>2015-11-29T10:18:25Z</time>
      </trkpt>
      <trkpt lat="43.50741" lon="3.06436">
        <ele>382</ele>
        <time>2015-11-29T10:18:26Z</time>
      </trkpt>
      <trkpt lat="43.5074" lon="3.06434">
        <ele>382</ele>
        <time>2015-11-29T10:18:27Z</time>
      </trkpt>
      <trkpt lat="43.50739" lon="3.06432">
        <ele>382</ele>
        <time>2015-11-29T10:18:28Z</time>
      </trkpt>
      <trkpt lat="43.50738" lon="3.0643">
        <ele>382</ele>
        <time>2015-11-29T10:18:29Z</time>
      </trkpt>
      <trkpt lat="43.50737" lon="3.06428">
        <ele>382</ele>
        <time>2015-11-29T10:18:30Z</time>
      </trkpt>
      <trkpt lat="43.50736" lon="3.06426">
        <ele>382.5</ele>
        <time>2015-11-29T10:18:31Z</time>
      </trkpt>
      <trkpt lat="43.50735" lon="3.06424">
        <ele>383</ele>
        <time>2015-11-29T10:18:32Z</time>
      </trkpt>
      <trkpt lat="43.50735" lon="3.06422">
        <ele>383</ele>
        <time>2015-11-29T10:18:33Z</time>
      </trkpt>
      <trkpt lat="43.50734" lon="3.06419">
        <ele>383</ele>
        <time>2015-11-29T10:18:34Z</time>
      </trkpt>
      <trkpt lat="43.50733" lon="3.06416">
        <ele>383</ele>
        <time>2015-11-29T10:18:35Z</time>
      </trkpt>
      <trkpt lat="43.50733" lon="3.06414">
        <ele>383.5</ele>
        <time>2015-11-29T10:18:36Z</time>
      </trkpt>
      <trkpt lat="43.50733" lon="3.06412">
        <ele>383.5</ele>
        <time>2015-11-29T10:18:37Z</time>
      </trkpt>
      <trkpt lat="43.50732" lon="3.0641">
        <ele>385</ele>
        <time>2015-11-29T10:18:38Z</time>
      </trkpt>
      <trkpt lat="43.50733" lon="3.06407">
        <ele>385.5</ele>
        <time>2015-11-29T10:18:39Z</time>
      </trkpt>
      <trkpt lat="43.50733" lon="3.06407">
        <ele>386</ele>
        <time>2015-11-29T10:18:40Z</time>
      </trkpt>
      <trkpt lat="43.50734" lon="3.06406">
        <ele>386.5</ele>
        <time>2015-11-29T10:18:41Z</time>
      </trkpt>
      <trkpt lat="43.50734" lon="3.06405">
        <ele>386.5</ele>
        <time>2015-11-29T10:18:42Z</time>
      </trkpt>
      <trkpt lat="43.50735" lon="3.06404">
        <ele>387</ele>
        <time>2015-11-29T10:18:43Z</time>
      </trkpt>
      <trkpt lat="43.50736" lon="3.06402">
        <ele>387.5</ele>
        <time>2015-11-29T10:18:58Z</time>
      </trkpt>
      <trkpt lat="43.50736" lon="3.064">
        <ele>388.5</ele>
        <time>2015-11-29T10:19:00Z</time>
      </trkpt>
      <trkpt lat="43.50737" lon="3.06399">
        <ele>389</ele>
        <time>2015-11-29T10:19:01Z</time>
      </trkpt>
      <trkpt lat="43.50737" lon="3.06397">
        <ele>390</ele>
        <time>2015-11-29T10:19:02Z</time>
      </trkpt>
      <trkpt lat="43.50738" lon="3.06395">
        <ele>390.5</ele>
        <time>2015-11-29T10:19:03Z</time>
      </trkpt>
      <trkpt lat="43.50739" lon="3.06394">
        <ele>391.5</ele>
        <time>2015-11-29T10:19:04Z</time>
      </trkpt>
      <trkpt lat="43.50739" lon="3.06393">
        <ele>392.5</ele>
        <time>2015-11-29T10:19:05Z</time>
      </trkpt>
      <trkpt lat="43.5074" lon="3.06392">
        <ele>393</ele>
        <time>2015-11-29T10:19:06Z</time>
      </trkpt>
      <trkpt lat="43.5074" lon="3.06391">
        <ele>392</ele>
        <time>2015-11-29T10:19:07Z</time>
      </trkpt>
      <trkpt lat="43.5074" lon="3.06391">
        <ele>391</ele>
        <time>2015-11-29T10:19:09Z</time>
      </trkpt>
      <trkpt lat="43.5074" lon="3.06391">
        <ele>390</ele>
        <time>2015-11-29T10:19:11Z</time>
      </trkpt>
      <trkpt lat="43.5074" lon="3.06393">
        <ele>386.5</ele>
        <time>2015-11-29T10:19:20Z</time>
      </trkpt>
      <trkpt lat="43.5074" lon="3.06397">
        <ele>386.5</ele>
        <time>2015-11-29T10:19:24Z</time>
      </trkpt>
      <trkpt lat="43.5074" lon="3.06397">
        <ele>386</ele>
        <time>2015-11-29T10:19:27Z</time>
      </trkpt>
      <trkpt lat="43.5074" lon="3.06399">
        <ele>387</ele>
        <time>2015-11-29T10:19:30Z</time>
      </trkpt>
      <trkpt lat="43.50742" lon="3.06403">
        <ele>390.5</ele>
        <time>2015-11-29T10:19:37Z</time>
      </trkpt>
      <trkpt lat="43.50742" lon="3.06405">
        <ele>394</ele>
        <time>2015-11-29T10:19:43Z</time>
      </trkpt>
      <trkpt lat="43.50742" lon="3.06404">
        <ele>393</ele>
        <time>2015-11-29T10:19:50Z</time>
      </trkpt>
      <trkpt lat="43.50745" lon="3.06401">
        <ele>392</ele>
        <time>2015-11-29T10:19:54Z</time>
      </trkpt>
      <trkpt lat="43.50747" lon="3.06399">
        <ele>392.5</ele>
        <time>2015-11-29T10:19:56Z</time>
      </trkpt>
      <trkpt lat="43.50748" lon="3.06398">
        <ele>392</ele>
        <time>2015-11-29T10:19:57Z</time>
      </trkpt>
      <trkpt lat="43.5075" lon="3.06397">
        <ele>392</ele>
        <time>2015-11-29T10:19:58Z</time>
      </trkpt>
      <trkpt lat="43.50751" lon="3.06396">
        <ele>392</ele>
        <time>2015-11-29T10:19:59Z</time>
      </trkpt>
      <trkpt lat="43.50753" lon="3.06393">
        <ele>394</ele>
        <time>2015-11-29T10:20:00Z</time>
      </trkpt>
      <trkpt lat="43.50754" lon="3.06391">
        <ele>395</ele>
        <time>2015-11-29T10:20:01Z</time>
      </trkpt>
      <trkpt lat="43.50756" lon="3.06389">
        <ele>395</ele>
        <time>2015-11-29T10:20:02Z</time>
      </trkpt>
      <trkpt lat="43.50758" lon="3.06387">
        <ele>395.5</ele>
        <time>2015-11-29T10:20:03Z</time>
      </trkpt>
      <trkpt lat="43.50759" lon="3.06385">
        <ele>395.5</ele>
        <time>2015-11-29T10:20:04Z</time>
      </trkpt>
      <trkpt lat="43.50761" lon="3.06384">
        <ele>396</ele>
        <time>2015-11-29T10:20:05Z</time>
      </trkpt>
      <trkpt lat="43.50763" lon="3.06383">
        <ele>397</ele>
        <time>2015-11-29T10:20:06Z</time>
      </trkpt>
      <trkpt lat="43.50764" lon="3.06381">
        <ele>397.5</ele>
        <time>2015-11-29T10:20:07Z</time>
      </trkpt>
      <trkpt lat="43.50766" lon="3.06379">
        <ele>399</ele>
        <time>2015-11-29T10:20:08Z</time>
      </trkpt>
      <trkpt lat="43.50768" lon="3.06378">
        <ele>399.5</ele>
        <time>2015-11-29T10:20:09Z</time>
      </trkpt>
      <trkpt lat="43.50769" lon="3.06376">
        <ele>399.5</ele>
        <time>2015-11-29T10:20:10Z</time>
      </trkpt>
      <trkpt lat="43.50771" lon="3.06374">
        <ele>400</ele>
        <time>2015-11-29T10:20:11Z</time>
      </trkpt>
      <trkpt lat="43.50773" lon="3.06372">
        <ele>400</ele>
        <time>2015-11-29T10:20:12Z</time>
      </trkpt>
      <trkpt lat="43.50774" lon="3.06371">
        <ele>400.5</ele>
        <time>2015-11-29T10:20:13Z</time>
      </trkpt>
      <trkpt lat="43.50776" lon="3.06369">
        <ele>400</ele>
        <time>2015-11-29T10:20:14Z</time>
      </trkpt>
      <trkpt lat="43.50777" lon="3.06366">
        <ele>400.5</ele>
        <time>2015-11-29T10:20:15Z</time>
      </trkpt>
      <trkpt lat="43.50778" lon="3.06364">
        <ele>400.5</ele>
        <time>2015-11-29T10:20:16Z</time>
      </trkpt>
      <trkpt lat="43.50779" lon="3.06362">
        <ele>400</ele>
        <time>2015-11-29T10:20:17Z</time>
      </trkpt>
      <trkpt lat="43.5078" lon="3.0636">
        <ele>400</ele>
        <time>2015-11-29T10:20:18Z</time>
      </trkpt>
      <trkpt lat="43.50781" lon="3.06359">
        <ele>399.5</ele>
        <time>2015-11-29T10:20:19Z</time>
      </trkpt>
      <trkpt lat="43.50783" lon="3.06356">
        <ele>399</ele>
        <time>2015-11-29T10:20:20Z</time>
      </trkpt>
      <trkpt lat="43.50784" lon="3.06354">
        <ele>399</ele>
        <time>2015-11-29T10:20:21Z</time>
      </trkpt>
      <trkpt lat="43.50785" lon="3.06352">
        <ele>399.5</ele>
        <time>2015-11-29T10:20:22Z</time>
      </trkpt>
      <trkpt lat="43.50786" lon="3.0635">
        <ele>399.5</ele>
        <time>2015-11-29T10:20:23Z</time>
      </trkpt>
      <trkpt lat="43.50787" lon="3.06347">
        <ele>400</ele>
        <time>2015-11-29T10:20:24Z</time>
      </trkpt>
      <trkpt lat="43.50788" lon="3.06345">
        <ele>400</ele>
        <time>2015-11-29T10:20:25Z</time>
      </trkpt>
      <trkpt lat="43.50789" lon="3.06343">
        <ele>400</ele>
        <time>2015-11-29T10:20:26Z</time>
      </trkpt>
      <trkpt lat="43.50791" lon="3.06341">
        <ele>400.5</ele>
        <time>2015-11-29T10:20:27Z</time>
      </trkpt>
      <trkpt lat="43.50792" lon="3.06339">
        <ele>401</ele>
        <time>2015-11-29T10:20:28Z</time>
      </trkpt>
      <trkpt lat="43.50793" lon="3.06337">
        <ele>401</ele>
        <time>2015-11-29T10:20:29Z</time>
      </trkpt>
      <trkpt lat="43.50794" lon="3.06335">
        <ele>401.5</ele>
        <time>2015-11-29T10:20:30Z</time>
      </trkpt>
      <trkpt lat="43.50796" lon="3.06333">
        <ele>402</ele>
        <time>2015-11-29T10:20:31Z</time>
      </trkpt>
      <trkpt lat="43.50797" lon="3.06331">
        <ele>402.5</ele>
        <time>2015-11-29T10:20:32Z</time>
      </trkpt>
      <trkpt lat="43.50799" lon="3.06331">
        <ele>401.5</ele>
        <time>2015-11-29T10:20:33Z</time>
      </trkpt>
      <trkpt lat="43.50802" lon="3.06333">
        <ele>399</ele>
        <time>2015-11-29T10:20:34Z</time>
      </trkpt>
      <trkpt lat="43.50803" lon="3.06331">
        <ele>398.5</ele>
        <time>2015-11-29T10:20:35Z</time>
      </trkpt>
      <trkpt lat="43.50805" lon="3.06329">
        <ele>398</ele>
        <time>2015-11-29T10:20:36Z</time>
      </trkpt>
      <trkpt lat="43.50806" lon="3.06327">
        <ele>397</ele>
        <time>2015-11-29T10:20:37Z</time>
      </trkpt>
      <trkpt lat="43.50807" lon="3.06326">
        <ele>396.5</ele>
        <time>2015-11-29T10:20:38Z</time>
      </trkpt>
      <trkpt lat="43.50809" lon="3.06324">
        <ele>396.5</ele>
        <time>2015-11-29T10:20:39Z</time>
      </trkpt>
      <trkpt lat="43.5081" lon="3.06322">
        <ele>396.5</ele>
        <time>2015-11-29T10:20:40Z</time>
      </trkpt>
      <trkpt lat="43.50811" lon="3.0632">
        <ele>397.5</ele>
        <time>2015-11-29T10:20:41Z</time>
      </trkpt>
      <trkpt lat="43.50811" lon="3.06317">
        <ele>399</ele>
        <time>2015-11-29T10:20:42Z</time>
      </trkpt>
      <trkpt lat="43.50813" lon="3.06315">
        <ele>399</ele>
        <time>2015-11-29T10:20:43Z</time>
      </trkpt>
      <trkpt lat="43.50814" lon="3.06312">
        <ele>399</ele>
        <time>2015-11-29T10:20:44Z</time>
      </trkpt>
      <trkpt lat="43.50815" lon="3.0631">
        <ele>399</ele>
        <time>2015-11-29T10:20:45Z</time>
      </trkpt>
      <trkpt lat="43.50816" lon="3.06307">
        <ele>400</ele>
        <time>2015-11-29T10:20:46Z</time>
      </trkpt>
      <trkpt lat="43.50817" lon="3.06305">
        <ele>400</ele>
        <time>2015-11-29T10:20:47Z</time>
      </trkpt>
      <trkpt lat="43.50817" lon="3.06303">
        <ele>400.5</ele>
        <time>2015-11-29T10:20:48Z</time>
      </trkpt>
      <trkpt lat="43.50817" lon="3.06301">
        <ele>400</ele>
        <time>2015-11-29T10:20:49Z</time>
      </trkpt>
      <trkpt lat="43.50818" lon="3.06298">
        <ele>400</ele>
        <time>2015-11-29T10:20:50Z</time>
      </trkpt>
      <trkpt lat="43.5082" lon="3.06296">
        <ele>399.5</ele>
        <time>2015-11-29T10:20:51Z</time>
      </trkpt>
      <trkpt lat="43.50819" lon="3.06289">
        <ele>399.5</ele>
        <time>2015-11-29T10:20:53Z</time>
      </trkpt>
      <trkpt lat="43.50819" lon="3.06286">
        <ele>400</ele>
        <time>2015-11-29T10:20:54Z</time>
      </trkpt>
      <trkpt lat="43.5082" lon="3.06284">
        <ele>399.5</ele>
        <time>2015-11-29T10:20:55Z</time>
      </trkpt>
      <trkpt lat="43.50821" lon="3.06281">
        <ele>399.5</ele>
        <time>2015-11-29T10:20:56Z</time>
      </trkpt>
      <trkpt lat="43.50821" lon="3.06279">
        <ele>399.5</ele>
        <time>2015-11-29T10:20:57Z</time>
      </trkpt>
      <trkpt lat="43.50822" lon="3.06277">
        <ele>399</ele>
        <time>2015-11-29T10:20:58Z</time>
      </trkpt>
      <trkpt lat="43.50822" lon="3.06273">
        <ele>399.5</ele>
        <time>2015-11-29T10:20:59Z</time>
      </trkpt>
      <trkpt lat="43.50823" lon="3.0627">
        <ele>400</ele>
        <time>2015-11-29T10:21:00Z</time>
      </trkpt>
      <trkpt lat="43.50823" lon="3.06269">
        <ele>400</ele>
        <time>2015-11-29T10:21:01Z</time>
      </trkpt>
      <trkpt lat="43.50823" lon="3.06266">
        <ele>400</ele>
        <time>2015-11-29T10:21:01Z</time>
      </trkpt>
      <trkpt lat="43.50823" lon="3.06264">
        <ele>400</ele>
        <time>2015-11-29T10:21:02Z</time>
      </trkpt>
      <trkpt lat="43.50824" lon="3.06262">
        <ele>400</ele>
        <time>2015-11-29T10:21:03Z</time>
      </trkpt>
      <trkpt lat="43.50824" lon="3.0626">
        <ele>400.5</ele>
        <time>2015-11-29T10:21:04Z</time>
      </trkpt>
      <trkpt lat="43.50825" lon="3.06258">
        <ele>401</ele>
        <time>2015-11-29T10:21:06Z</time>
      </trkpt>
      <trkpt lat="43.50825" lon="3.06256">
        <ele>401.5</ele>
        <time>2015-11-29T10:21:06Z</time>
      </trkpt>
      <trkpt lat="43.50826" lon="3.06254">
        <ele>402</ele>
        <time>2015-11-29T10:21:08Z</time>
      </trkpt>
      <trkpt lat="43.50827" lon="3.06252">
        <ele>402.5</ele>
        <time>2015-11-29T10:21:08Z</time>
      </trkpt>
      <trkpt lat="43.50828" lon="3.06249">
        <ele>403</ele>
        <time>2015-11-29T10:21:09Z</time>
      </trkpt>
      <trkpt lat="43.50828" lon="3.06246">
        <ele>402.5</ele>
        <time>2015-11-29T10:21:10Z</time>
      </trkpt>
      <trkpt lat="43.50829" lon="3.06244">
        <ele>402.5</ele>
        <time>2015-11-29T10:21:11Z</time>
      </trkpt>
      <trkpt lat="43.5083" lon="3.06242">
        <ele>402</ele>
        <time>2015-11-29T10:21:12Z</time>
      </trkpt>
      <trkpt lat="43.5083" lon="3.06241">
        <ele>402.5</ele>
        <time>2015-11-29T10:21:13Z</time>
      </trkpt>
      <trkpt lat="43.50831" lon="3.06239">
        <ele>403.5</ele>
        <time>2015-11-29T10:21:14Z</time>
      </trkpt>
      <trkpt lat="43.50832" lon="3.06237">
        <ele>403</ele>
        <time>2015-11-29T10:21:15Z</time>
      </trkpt>
      <trkpt lat="43.50832" lon="3.06235">
        <ele>402.5</ele>
        <time>2015-11-29T10:21:16Z</time>
      </trkpt>
      <trkpt lat="43.50833" lon="3.06233">
        <ele>402.5</ele>
        <time>2015-11-29T10:21:17Z</time>
      </trkpt>
      <trkpt lat="43.50833" lon="3.0623">
        <ele>402.5</ele>
        <time>2015-11-29T10:21:18Z</time>
      </trkpt>
      <trkpt lat="43.50834" lon="3.06229">
        <ele>403.5</ele>
        <time>2015-11-29T10:21:19Z</time>
      </trkpt>
      <trkpt lat="43.50834" lon="3.06227">
        <ele>404.5</ele>
        <time>2015-11-29T10:21:20Z</time>
      </trkpt>
      <trkpt lat="43.50835" lon="3.06224">
        <ele>405.5</ele>
        <time>2015-11-29T10:21:21Z</time>
      </trkpt>
      <trkpt lat="43.50835" lon="3.06222">
        <ele>406.5</ele>
        <time>2015-11-29T10:21:23Z</time>
      </trkpt>
      <trkpt lat="43.50836" lon="3.0622">
        <ele>408</ele>
        <time>2015-11-29T10:21:23Z</time>
      </trkpt>
      <trkpt lat="43.50837" lon="3.06218">
        <ele>409.5</ele>
        <time>2015-11-29T10:21:24Z</time>
      </trkpt>
      <trkpt lat="43.50837" lon="3.06216">
        <ele>412</ele>
        <time>2015-11-29T10:21:25Z</time>
      </trkpt>
      <trkpt lat="43.50838" lon="3.06213">
        <ele>413</ele>
        <time>2015-11-29T10:21:26Z</time>
      </trkpt>
      <trkpt lat="43.50839" lon="3.0621">
        <ele>414</ele>
        <time>2015-11-29T10:21:27Z</time>
      </trkpt>
      <trkpt lat="43.50841" lon="3.06207">
        <ele>416</ele>
        <time>2015-11-29T10:21:28Z</time>
      </trkpt>
      <trkpt lat="43.50842" lon="3.06204">
        <ele>416.5</ele>
        <time>2015-11-29T10:21:29Z</time>
      </trkpt>
      <trkpt lat="43.50844" lon="3.06202">
        <ele>417</ele>
        <time>2015-11-29T10:21:30Z</time>
      </trkpt>
      <trkpt lat="43.50845" lon="3.062">
        <ele>417.5</ele>
        <time>2015-11-29T10:21:31Z</time>
      </trkpt>
      <trkpt lat="43.50847" lon="3.06199">
        <ele>418</ele>
        <time>2015-11-29T10:21:32Z</time>
      </trkpt>
      <trkpt lat="43.50849" lon="3.06197">
        <ele>418</ele>
        <time>2015-11-29T10:21:33Z</time>
      </trkpt>
      <trkpt lat="43.5085" lon="3.06196">
        <ele>417.5</ele>
        <time>2015-11-29T10:21:34Z</time>
      </trkpt>
      <trkpt lat="43.50852" lon="3.06194">
        <ele>417.5</ele>
        <time>2015-11-29T10:21:35Z</time>
      </trkpt>
      <trkpt lat="43.50853" lon="3.06191">
        <ele>418.5</ele>
        <time>2015-11-29T10:21:37Z</time>
      </trkpt>
      <trkpt lat="43.50856" lon="3.06186">
        <ele>419.5</ele>
        <time>2015-11-29T10:21:38Z</time>
      </trkpt>
      <trkpt lat="43.50857" lon="3.06185">
        <ele>420</ele>
        <time>2015-11-29T10:21:39Z</time>
      </trkpt>
      <trkpt lat="43.50859" lon="3.06183">
        <ele>420</ele>
        <time>2015-11-29T10:21:40Z</time>
      </trkpt>
      <trkpt lat="43.50862" lon="3.06181">
        <ele>421.5</ele>
        <time>2015-11-29T10:21:42Z</time>
      </trkpt>
      <trkpt lat="43.50863" lon="3.06178">
        <ele>422</ele>
        <time>2015-11-29T10:21:43Z</time>
      </trkpt>
      <trkpt lat="43.50865" lon="3.06177">
        <ele>421.5</ele>
        <time>2015-11-29T10:21:44Z</time>
      </trkpt>
      <trkpt lat="43.50867" lon="3.06177">
        <ele>421.5</ele>
        <time>2015-11-29T10:21:45Z</time>
      </trkpt>
      <trkpt lat="43.50867" lon="3.06174">
        <ele>421.5</ele>
        <time>2015-11-29T10:21:46Z</time>
      </trkpt>
      <trkpt lat="43.50868" lon="3.06172">
        <ele>421.5</ele>
        <time>2015-11-29T10:21:47Z</time>
      </trkpt>
      <trkpt lat="43.50868" lon="3.0617">
        <ele>421</ele>
        <time>2015-11-29T10:21:48Z</time>
      </trkpt>
      <trkpt lat="43.5087" lon="3.06169">
        <ele>421</ele>
        <time>2015-11-29T10:21:49Z</time>
      </trkpt>
      <trkpt lat="43.50871" lon="3.06168">
        <ele>421</ele>
        <time>2015-11-29T10:21:50Z</time>
      </trkpt>
      <trkpt lat="43.50872" lon="3.06167">
        <ele>421.5</ele>
        <time>2015-11-29T10:21:51Z</time>
      </trkpt>
      <trkpt lat="43.50874" lon="3.06166">
        <ele>421.5</ele>
        <time>2015-11-29T10:21:52Z</time>
      </trkpt>
      <trkpt lat="43.50875" lon="3.06164">
        <ele>422.5</ele>
        <time>2015-11-29T10:21:53Z</time>
      </trkpt>
      <trkpt lat="43.50876" lon="3.06163">
        <ele>425</ele>
        <time>2015-11-29T10:21:54Z</time>
      </trkpt>
      <trkpt lat="43.50877" lon="3.0616">
        <ele>425</ele>
        <time>2015-11-29T10:21:55Z</time>
      </trkpt>
      <trkpt lat="43.50878" lon="3.06159">
        <ele>426</ele>
        <time>2015-11-29T10:21:56Z</time>
      </trkpt>
      <trkpt lat="43.5088" lon="3.06158">
        <ele>427</ele>
        <time>2015-11-29T10:21:57Z</time>
      </trkpt>
      <trkpt lat="43.50881" lon="3.06157">
        <ele>427.5</ele>
        <time>2015-11-29T10:21:58Z</time>
      </trkpt>
      <trkpt lat="43.50883" lon="3.06156">
        <ele>428</ele>
        <time>2015-11-29T10:21:59Z</time>
      </trkpt>
      <trkpt lat="43.50885" lon="3.06156">
        <ele>427.5</ele>
        <time>2015-11-29T10:22:00Z</time>
      </trkpt>
      <trkpt lat="43.50886" lon="3.06155">
        <ele>428</ele>
        <time>2015-11-29T10:22:01Z</time>
      </trkpt>
      <trkpt lat="43.50888" lon="3.06153">
        <ele>428</ele>
        <time>2015-11-29T10:22:02Z</time>
      </trkpt>
      <trkpt lat="43.50889" lon="3.06151">
        <ele>428.5</ele>
        <time>2015-11-29T10:22:03Z</time>
      </trkpt>
      <trkpt lat="43.5089" lon="3.06151">
        <ele>428.5</ele>
        <time>2015-11-29T10:22:04Z</time>
      </trkpt>
      <trkpt lat="43.50891" lon="3.0615">
        <ele>428.5</ele>
        <time>2015-11-29T10:22:05Z</time>
      </trkpt>
      <trkpt lat="43.50893" lon="3.0615">
        <ele>428.5</ele>
        <time>2015-11-29T10:22:06Z</time>
      </trkpt>
      <trkpt lat="43.50895" lon="3.0615">
        <ele>429.5</ele>
        <time>2015-11-29T10:22:07Z</time>
      </trkpt>
      <trkpt lat="43.50897" lon="3.06149">
        <ele>429</ele>
        <time>2015-11-29T10:22:08Z</time>
      </trkpt>
      <trkpt lat="43.50898" lon="3.06147">
        <ele>429</ele>
        <time>2015-11-29T10:22:09Z</time>
      </trkpt>
      <trkpt lat="43.50901" lon="3.06148">
        <ele>428</ele>
        <time>2015-11-29T10:22:10Z</time>
      </trkpt>
      <trkpt lat="43.50903" lon="3.06147">
        <ele>428</ele>
        <time>2015-11-29T10:22:11Z</time>
      </trkpt>
      <trkpt lat="43.50905" lon="3.06147">
        <ele>427</ele>
        <time>2015-11-29T10:22:12Z</time>
      </trkpt>
      <trkpt lat="43.50907" lon="3.06146">
        <ele>426</ele>
        <time>2015-11-29T10:22:13Z</time>
      </trkpt>
      <trkpt lat="43.5091" lon="3.06146">
        <ele>425</ele>
        <time>2015-11-29T10:22:14Z</time>
      </trkpt>
      <trkpt lat="43.50912" lon="3.06145">
        <ele>425</ele>
        <time>2015-11-29T10:22:15Z</time>
      </trkpt>
      <trkpt lat="43.50914" lon="3.06143">
        <ele>424.5</ele>
        <time>2015-11-29T10:22:16Z</time>
      </trkpt>
      <trkpt lat="43.50916" lon="3.06142">
        <ele>424</ele>
        <time>2015-11-29T10:22:17Z</time>
      </trkpt>
      <trkpt lat="43.50918" lon="3.06141">
        <ele>423.5</ele>
        <time>2015-11-29T10:22:18Z</time>
      </trkpt>
      <trkpt lat="43.50919" lon="3.0614">
        <ele>423.5</ele>
        <time>2015-11-29T10:22:19Z</time>
      </trkpt>
      <trkpt lat="43.50921" lon="3.06138">
        <ele>424</ele>
        <time>2015-11-29T10:22:20Z</time>
      </trkpt>
      <trkpt lat="43.50923" lon="3.06137">
        <ele>424</ele>
        <time>2015-11-29T10:22:21Z</time>
      </trkpt>
      <trkpt lat="43.50924" lon="3.06136">
        <ele>423.5</ele>
        <time>2015-11-29T10:22:22Z</time>
      </trkpt>
      <trkpt lat="43.50926" lon="3.06135">
        <ele>424</ele>
        <time>2015-11-29T10:22:23Z</time>
      </trkpt>
      <trkpt lat="43.50927" lon="3.06133">
        <ele>424.5</ele>
        <time>2015-11-29T10:22:24Z</time>
      </trkpt>
      <trkpt lat="43.50928" lon="3.0613">
        <ele>423</ele>
        <time>2015-11-29T10:22:25Z</time>
      </trkpt>
      <trkpt lat="43.5093" lon="3.06128">
        <ele>423.5</ele>
        <time>2015-11-29T10:22:26Z</time>
      </trkpt>
      <trkpt lat="43.50931" lon="3.06126">
        <ele>423.5</ele>
        <time>2015-11-29T10:22:27Z</time>
      </trkpt>
      <trkpt lat="43.50933" lon="3.06124">
        <ele>423.5</ele>
        <time>2015-11-29T10:22:28Z</time>
      </trkpt>
      <trkpt lat="43.50935" lon="3.06122">
        <ele>423.5</ele>
        <time>2015-11-29T10:22:29Z</time>
      </trkpt>
      <trkpt lat="43.50936" lon="3.0612">
        <ele>424</ele>
        <time>2015-11-29T10:22:30Z</time>
      </trkpt>
      <trkpt lat="43.50938" lon="3.06118">
        <ele>424.5</ele>
        <time>2015-11-29T10:22:31Z</time>
      </trkpt>
      <trkpt lat="43.50939" lon="3.06115">
        <ele>424.5</ele>
        <time>2015-11-29T10:22:32Z</time>
      </trkpt>
      <trkpt lat="43.5094" lon="3.06113">
        <ele>425</ele>
        <time>2015-11-29T10:22:33Z</time>
      </trkpt>
      <trkpt lat="43.50941" lon="3.06111">
        <ele>425</ele>
        <time>2015-11-29T10:22:34Z</time>
      </trkpt>
      <trkpt lat="43.50943" lon="3.06109">
        <ele>424</ele>
        <time>2015-11-29T10:22:35Z</time>
      </trkpt>
      <trkpt lat="43.50944" lon="3.06108">
        <ele>423.5</ele>
        <time>2015-11-29T10:22:36Z</time>
      </trkpt>
      <trkpt lat="43.50946" lon="3.06106">
        <ele>423.5</ele>
        <time>2015-11-29T10:22:37Z</time>
      </trkpt>
      <trkpt lat="43.50947" lon="3.06104">
        <ele>424</ele>
        <time>2015-11-29T10:22:38Z</time>
      </trkpt>
      <trkpt lat="43.50948" lon="3.06102">
        <ele>425</ele>
        <time>2015-11-29T10:22:39Z</time>
      </trkpt>
      <trkpt lat="43.5095" lon="3.06101">
        <ele>424</ele>
        <time>2015-11-29T10:22:40Z</time>
      </trkpt>
      <trkpt lat="43.50951" lon="3.06099">
        <ele>424.5</ele>
        <time>2015-11-29T10:22:41Z</time>
      </trkpt>
      <trkpt lat="43.50952" lon="3.06098">
        <ele>425</ele>
        <time>2015-11-29T10:22:42Z</time>
      </trkpt>
      <trkpt lat="43.50953" lon="3.06097">
        <ele>426</ele>
        <time>2015-11-29T10:22:43Z</time>
      </trkpt>
      <trkpt lat="43.50955" lon="3.06096">
        <ele>425.5</ele>
        <time>2015-11-29T10:22:44Z</time>
      </trkpt>
      <trkpt lat="43.50956" lon="3.06093">
        <ele>426</ele>
        <time>2015-11-29T10:22:45Z</time>
      </trkpt>
      <trkpt lat="43.50957" lon="3.06092">
        <ele>425.5</ele>
        <time>2015-11-29T10:22:46Z</time>
      </trkpt>
      <trkpt lat="43.50958" lon="3.0609">
        <ele>424</ele>
        <time>2015-11-29T10:22:47Z</time>
      </trkpt>
      <trkpt lat="43.50959" lon="3.06087">
        <ele>424.5</ele>
        <time>2015-11-29T10:22:48Z</time>
      </trkpt>
      <trkpt lat="43.50961" lon="3.06085">
        <ele>424</ele>
        <time>2015-11-29T10:22:49Z</time>
      </trkpt>
      <trkpt lat="43.50962" lon="3.06083">
        <ele>424.5</ele>
        <time>2015-11-29T10:22:50Z</time>
      </trkpt>
      <trkpt lat="43.50964" lon="3.06083">
        <ele>424</ele>
        <time>2015-11-29T10:22:51Z</time>
      </trkpt>
      <trkpt lat="43.50965" lon="3.06082">
        <ele>424</ele>
        <time>2015-11-29T10:22:52Z</time>
      </trkpt>
      <trkpt lat="43.50966" lon="3.0608">
        <ele>424</ele>
        <time>2015-11-29T10:22:53Z</time>
      </trkpt>
      <trkpt lat="43.50967" lon="3.06078">
        <ele>425</ele>
        <time>2015-11-29T10:22:54Z</time>
      </trkpt>
      <trkpt lat="43.50968" lon="3.06074">
        <ele>425</ele>
        <time>2015-11-29T10:22:55Z</time>
      </trkpt>
      <trkpt lat="43.5097" lon="3.06071">
        <ele>424</ele>
        <time>2015-11-29T10:22:56Z</time>
      </trkpt>
      <trkpt lat="43.50972" lon="3.06066">
        <ele>421.5</ele>
        <time>2015-11-29T10:22:58Z</time>
      </trkpt>
      <trkpt lat="43.50973" lon="3.06065">
        <ele>419</ele>
        <time>2015-11-29T10:22:59Z</time>
      </trkpt>
      <trkpt lat="43.50975" lon="3.06062">
        <ele>417.5</ele>
        <time>2015-11-29T10:23:00Z</time>
      </trkpt>
      <trkpt lat="43.50976" lon="3.06059">
        <ele>418</ele>
        <time>2015-11-29T10:23:01Z</time>
      </trkpt>
      <trkpt lat="43.50977" lon="3.06056">
        <ele>419</ele>
        <time>2015-11-29T10:23:02Z</time>
      </trkpt>
      <trkpt lat="43.50978" lon="3.06054">
        <ele>419.5</ele>
        <time>2015-11-29T10:23:03Z</time>
      </trkpt>
      <trkpt lat="43.5098" lon="3.06051">
        <ele>420</ele>
        <time>2015-11-29T10:23:04Z</time>
      </trkpt>
      <trkpt lat="43.50982" lon="3.06047">
        <ele>421</ele>
        <time>2015-11-29T10:23:05Z</time>
      </trkpt>
      <trkpt lat="43.50983" lon="3.06045">
        <ele>420.5</ele>
        <time>2015-11-29T10:23:06Z</time>
      </trkpt>
      <trkpt lat="43.50984" lon="3.06042">
        <ele>421</ele>
        <time>2015-11-29T10:23:07Z</time>
      </trkpt>
      <trkpt lat="43.50986" lon="3.0604">
        <ele>421.5</ele>
        <time>2015-11-29T10:23:08Z</time>
      </trkpt>
      <trkpt lat="43.50987" lon="3.06038">
        <ele>421.5</ele>
        <time>2015-11-29T10:23:09Z</time>
      </trkpt>
      <trkpt lat="43.50988" lon="3.06036">
        <ele>422</ele>
        <time>2015-11-29T10:23:10Z</time>
      </trkpt>
      <trkpt lat="43.50989" lon="3.06034">
        <ele>423.5</ele>
        <time>2015-11-29T10:23:11Z</time>
      </trkpt>
      <trkpt lat="43.5099" lon="3.06031">
        <ele>424</ele>
        <time>2015-11-29T10:23:12Z</time>
      </trkpt>
      <trkpt lat="43.50991" lon="3.06029">
        <ele>425</ele>
        <time>2015-11-29T10:23:13Z</time>
      </trkpt>
      <trkpt lat="43.50992" lon="3.06026">
        <ele>426</ele>
        <time>2015-11-29T10:23:14Z</time>
      </trkpt>
      <trkpt lat="43.50993" lon="3.06023">
        <ele>427</ele>
        <time>2015-11-29T10:23:15Z</time>
      </trkpt>
      <trkpt lat="43.50994" lon="3.06021">
        <ele>427</ele>
        <time>2015-11-29T10:23:16Z</time>
      </trkpt>
      <trkpt lat="43.50995" lon="3.06018">
        <ele>427</ele>
        <time>2015-11-29T10:23:17Z</time>
      </trkpt>
      <trkpt lat="43.50997" lon="3.06016">
        <ele>427</ele>
        <time>2015-11-29T10:23:18Z</time>
      </trkpt>
      <trkpt lat="43.50998" lon="3.06013">
        <ele>426.5</ele>
        <time>2015-11-29T10:23:19Z</time>
      </trkpt>
      <trkpt lat="43.51" lon="3.06011">
        <ele>426.5</ele>
        <time>2015-11-29T10:23:20Z</time>
      </trkpt>
      <trkpt lat="43.51001" lon="3.06009">
        <ele>425.5</ele>
        <time>2015-11-29T10:23:21Z</time>
      </trkpt>
      <trkpt lat="43.51002" lon="3.06006">
        <ele>425</ele>
        <time>2015-11-29T10:23:22Z</time>
      </trkpt>
      <trkpt lat="43.51003" lon="3.06004">
        <ele>425.5</ele>
        <time>2015-11-29T10:23:23Z</time>
      </trkpt>
      <trkpt lat="43.51004" lon="3.06002">
        <ele>426</ele>
        <time>2015-11-29T10:23:24Z</time>
      </trkpt>
      <trkpt lat="43.51005" lon="3.05998">
        <ele>425.5</ele>
        <time>2015-11-29T10:23:25Z</time>
      </trkpt>
      <trkpt lat="43.51007" lon="3.05996">
        <ele>425</ele>
        <time>2015-11-29T10:23:26Z</time>
      </trkpt>
      <trkpt lat="43.51007" lon="3.05993">
        <ele>425</ele>
        <time>2015-11-29T10:23:27Z</time>
      </trkpt>
      <trkpt lat="43.51007" lon="3.05992">
        <ele>426</ele>
        <time>2015-11-29T10:23:28Z</time>
      </trkpt>
      <trkpt lat="43.51008" lon="3.05989">
        <ele>425.5</ele>
        <time>2015-11-29T10:23:29Z</time>
      </trkpt>
      <trkpt lat="43.51008" lon="3.05986">
        <ele>426.5</ele>
        <time>2015-11-29T10:23:30Z</time>
      </trkpt>
      <trkpt lat="43.51009" lon="3.05984">
        <ele>427</ele>
        <time>2015-11-29T10:23:31Z</time>
      </trkpt>
      <trkpt lat="43.51008" lon="3.05982">
        <ele>428.5</ele>
        <time>2015-11-29T10:23:32Z</time>
      </trkpt>
      <trkpt lat="43.51009" lon="3.0598">
        <ele>429</ele>
        <time>2015-11-29T10:23:33Z</time>
      </trkpt>
      <trkpt lat="43.51009" lon="3.05978">
        <ele>429.5</ele>
        <time>2015-11-29T10:23:34Z</time>
      </trkpt>
      <trkpt lat="43.51009" lon="3.05976">
        <ele>430.5</ele>
        <time>2015-11-29T10:23:35Z</time>
      </trkpt>
      <trkpt lat="43.51008" lon="3.05973">
        <ele>431</ele>
        <time>2015-11-29T10:23:36Z</time>
      </trkpt>
      <trkpt lat="43.51009" lon="3.05972">
        <ele>431.5</ele>
        <time>2015-11-29T10:23:37Z</time>
      </trkpt>
      <trkpt lat="43.51008" lon="3.05969">
        <ele>433.5</ele>
        <time>2015-11-29T10:23:38Z</time>
      </trkpt>
      <trkpt lat="43.51009" lon="3.05967">
        <ele>434</ele>
        <time>2015-11-29T10:23:39Z</time>
      </trkpt>
      <trkpt lat="43.51008" lon="3.05966">
        <ele>434.5</ele>
        <time>2015-11-29T10:23:40Z</time>
      </trkpt>
      <trkpt lat="43.51008" lon="3.05964">
        <ele>434</ele>
        <time>2015-11-29T10:23:41Z</time>
      </trkpt>
      <trkpt lat="43.51007" lon="3.05962">
        <ele>435.5</ele>
        <time>2015-11-29T10:23:42Z</time>
      </trkpt>
      <trkpt lat="43.51006" lon="3.0596">
        <ele>437</ele>
        <time>2015-11-29T10:23:43Z</time>
      </trkpt>
      <trkpt lat="43.51006" lon="3.05958">
        <ele>436.5</ele>
        <time>2015-11-29T10:23:44Z</time>
      </trkpt>
      <trkpt lat="43.51006" lon="3.05956">
        <ele>436.5</ele>
        <time>2015-11-29T10:23:45Z</time>
      </trkpt>
      <trkpt lat="43.51006" lon="3.05954">
        <ele>436</ele>
        <time>2015-11-29T10:23:46Z</time>
      </trkpt>
      <trkpt lat="43.51006" lon="3.05952">
        <ele>435.5</ele>
        <time>2015-11-29T10:23:47Z</time>
      </trkpt>
      <trkpt lat="43.51006" lon="3.0595">
        <ele>435</ele>
        <time>2015-11-29T10:23:48Z</time>
      </trkpt>
      <trkpt lat="43.51006" lon="3.05949">
        <ele>434.5</ele>
        <time>2015-11-29T10:23:49Z</time>
      </trkpt>
      <trkpt lat="43.51006" lon="3.05947">
        <ele>434.5</ele>
        <time>2015-11-29T10:23:50Z</time>
      </trkpt>
      <trkpt lat="43.51005" lon="3.05945">
        <ele>434</ele>
        <time>2015-11-29T10:23:51Z</time>
      </trkpt>
      <trkpt lat="43.51005" lon="3.05943">
        <ele>434.5</ele>
        <time>2015-11-29T10:23:52Z</time>
      </trkpt>
      <trkpt lat="43.51005" lon="3.05941">
        <ele>434.5</ele>
        <time>2015-11-29T10:23:53Z</time>
      </trkpt>
      <trkpt lat="43.51004" lon="3.05938">
        <ele>434</ele>
        <time>2015-11-29T10:23:54Z</time>
      </trkpt>
      <trkpt lat="43.51004" lon="3.05936">
        <ele>433.5</ele>
        <time>2015-11-29T10:23:55Z</time>
      </trkpt>
      <trkpt lat="43.51004" lon="3.05933">
        <ele>433</ele>
        <time>2015-11-29T10:23:56Z</time>
      </trkpt>
      <trkpt lat="43.51004" lon="3.05929">
        <ele>431.5</ele>
        <time>2015-11-29T10:23:57Z</time>
      </trkpt>
      <trkpt lat="43.51004" lon="3.05926">
        <ele>431</ele>
        <time>2015-11-29T10:23:58Z</time>
      </trkpt>
      <trkpt lat="43.51004" lon="3.05923">
        <ele>429.5</ele>
        <time>2015-11-29T10:23:59Z</time>
      </trkpt>
      <trkpt lat="43.51004" lon="3.05921">
        <ele>430</ele>
        <time>2015-11-29T10:24:00Z</time>
      </trkpt>
      <trkpt lat="43.51004" lon="3.05919">
        <ele>429.5</ele>
        <time>2015-11-29T10:24:01Z</time>
      </trkpt>
      <trkpt lat="43.51004" lon="3.05916">
        <ele>429</ele>
        <time>2015-11-29T10:24:02Z</time>
      </trkpt>
      <trkpt lat="43.51005" lon="3.05915">
        <ele>429</ele>
        <time>2015-11-29T10:24:03Z</time>
      </trkpt>
      <trkpt lat="43.51005" lon="3.05911">
        <ele>428.5</ele>
        <time>2015-11-29T10:24:04Z</time>
      </trkpt>
      <trkpt lat="43.51006" lon="3.05908">
        <ele>428</ele>
        <time>2015-11-29T10:24:05Z</time>
      </trkpt>
      <trkpt lat="43.51006" lon="3.05905">
        <ele>428</ele>
        <time>2015-11-29T10:24:06Z</time>
      </trkpt>
      <trkpt lat="43.51007" lon="3.05902">
        <ele>428</ele>
        <time>2015-11-29T10:24:07Z</time>
      </trkpt>
      <trkpt lat="43.51008" lon="3.059">
        <ele>427.5</ele>
        <time>2015-11-29T10:24:08Z</time>
      </trkpt>
      <trkpt lat="43.51008" lon="3.05897">
        <ele>427.5</ele>
        <time>2015-11-29T10:24:09Z</time>
      </trkpt>
      <trkpt lat="43.51009" lon="3.05895">
        <ele>427.5</ele>
        <time>2015-11-29T10:24:10Z</time>
      </trkpt>
      <trkpt lat="43.5101" lon="3.05892">
        <ele>427.5</ele>
        <time>2015-11-29T10:24:11Z</time>
      </trkpt>
      <trkpt lat="43.51011" lon="3.0589">
        <ele>427.5</ele>
        <time>2015-11-29T10:24:12Z</time>
      </trkpt>
      <trkpt lat="43.51012" lon="3.05888">
        <ele>428</ele>
        <time>2015-11-29T10:24:13Z</time>
      </trkpt>
      <trkpt lat="43.51013" lon="3.05886">
        <ele>428</ele>
        <time>2015-11-29T10:24:14Z</time>
      </trkpt>
      <trkpt lat="43.51014" lon="3.05884">
        <ele>428</ele>
        <time>2015-11-29T10:24:15Z</time>
      </trkpt>
      <trkpt lat="43.51015" lon="3.05882">
        <ele>427.5</ele>
        <time>2015-11-29T10:24:16Z</time>
      </trkpt>
      <trkpt lat="43.51016" lon="3.0588">
        <ele>427.5</ele>
        <time>2015-11-29T10:24:17Z</time>
      </trkpt>
      <trkpt lat="43.51017" lon="3.05879">
        <ele>427.5</ele>
        <time>2015-11-29T10:24:18Z</time>
      </trkpt>
      <trkpt lat="43.51018" lon="3.05877">
        <ele>427.5</ele>
        <time>2015-11-29T10:24:19Z</time>
      </trkpt>
      <trkpt lat="43.51019" lon="3.05876">
        <ele>428</ele>
        <time>2015-11-29T10:24:20Z</time>
      </trkpt>
      <trkpt lat="43.5102" lon="3.05874">
        <ele>428.5</ele>
        <time>2015-11-29T10:24:21Z</time>
      </trkpt>
      <trkpt lat="43.51021" lon="3.05874">
        <ele>429</ele>
        <time>2015-11-29T10:24:22Z</time>
      </trkpt>
      <trkpt lat="43.51023" lon="3.05872">
        <ele>428.5</ele>
        <time>2015-11-29T10:24:23Z</time>
      </trkpt>
      <trkpt lat="43.51024" lon="3.05871">
        <ele>428.5</ele>
        <time>2015-11-29T10:24:24Z</time>
      </trkpt>
      <trkpt lat="43.51026" lon="3.05869">
        <ele>428.5</ele>
        <time>2015-11-29T10:24:25Z</time>
      </trkpt>
      <trkpt lat="43.51028" lon="3.05867">
        <ele>428</ele>
        <time>2015-11-29T10:24:26Z</time>
      </trkpt>
      <trkpt lat="43.51029" lon="3.05866">
        <ele>428.5</ele>
        <time>2015-11-29T10:24:27Z</time>
      </trkpt>
      <trkpt lat="43.51031" lon="3.05866">
        <ele>429</ele>
        <time>2015-11-29T10:24:28Z</time>
      </trkpt>
      <trkpt lat="43.51032" lon="3.05865">
        <ele>429</ele>
        <time>2015-11-29T10:24:29Z</time>
      </trkpt>
      <trkpt lat="43.51034" lon="3.05865">
        <ele>429</ele>
        <time>2015-11-29T10:24:30Z</time>
      </trkpt>
      <trkpt lat="43.51035" lon="3.05863">
        <ele>431.5</ele>
        <time>2015-11-29T10:24:31Z</time>
      </trkpt>
      <trkpt lat="43.51037" lon="3.05862">
        <ele>432</ele>
        <time>2015-11-29T10:24:32Z</time>
      </trkpt>
      <trkpt lat="43.51038" lon="3.05861">
        <ele>432.5</ele>
        <time>2015-11-29T10:24:33Z</time>
      </trkpt>
      <trkpt lat="43.5104" lon="3.05859">
        <ele>433</ele>
        <time>2015-11-29T10:24:34Z</time>
      </trkpt>
      <trkpt lat="43.51042" lon="3.05859">
        <ele>435</ele>
        <time>2015-11-29T10:24:35Z</time>
      </trkpt>
      <trkpt lat="43.51043" lon="3.05857">
        <ele>436</ele>
        <time>2015-11-29T10:24:36Z</time>
      </trkpt>
      <trkpt lat="43.51044" lon="3.05854">
        <ele>438</ele>
        <time>2015-11-29T10:24:36Z</time>
      </trkpt>
      <trkpt lat="43.51045" lon="3.05853">
        <ele>439.5</ele>
        <time>2015-11-29T10:24:38Z</time>
      </trkpt>
      <trkpt lat="43.51046" lon="3.05852">
        <ele>440.5</ele>
        <time>2015-11-29T10:24:39Z</time>
      </trkpt>
      <trkpt lat="43.51048" lon="3.05852">
        <ele>442</ele>
        <time>2015-11-29T10:24:40Z</time>
      </trkpt>
      <trkpt lat="43.51049" lon="3.05851">
        <ele>441.5</ele>
        <time>2015-11-29T10:24:40Z</time>
      </trkpt>
      <trkpt lat="43.51051" lon="3.0585">
        <ele>442</ele>
        <time>2015-11-29T10:24:41Z</time>
      </trkpt>
      <trkpt lat="43.51053" lon="3.05849">
        <ele>441</ele>
        <time>2015-11-29T10:24:42Z</time>
      </trkpt>
      <trkpt lat="43.51055" lon="3.05851">
        <ele>442</ele>
        <time>2015-11-29T10:24:43Z</time>
      </trkpt>
      <trkpt lat="43.51056" lon="3.05848">
        <ele>442</ele>
        <time>2015-11-29T10:24:44Z</time>
      </trkpt>
      <trkpt lat="43.51057" lon="3.05847">
        <ele>443</ele>
        <time>2015-11-29T10:24:45Z</time>
      </trkpt>
      <trkpt lat="43.51058" lon="3.05844">
        <ele>443</ele>
        <time>2015-11-29T10:24:46Z</time>
      </trkpt>
      <trkpt lat="43.51059" lon="3.0584">
        <ele>443</ele>
        <time>2015-11-29T10:24:47Z</time>
      </trkpt>
      <trkpt lat="43.5106" lon="3.05837">
        <ele>443</ele>
        <time>2015-11-29T10:24:48Z</time>
      </trkpt>
      <trkpt lat="43.51061" lon="3.05835">
        <ele>443.5</ele>
        <time>2015-11-29T10:24:50Z</time>
      </trkpt>
      <trkpt lat="43.51063" lon="3.05833">
        <ele>443.5</ele>
        <time>2015-11-29T10:24:50Z</time>
      </trkpt>
      <trkpt lat="43.51064" lon="3.05831">
        <ele>444.5</ele>
        <time>2015-11-29T10:24:51Z</time>
      </trkpt>
      <trkpt lat="43.51066" lon="3.05829">
        <ele>444</ele>
        <time>2015-11-29T10:24:52Z</time>
      </trkpt>
      <trkpt lat="43.51067" lon="3.05827">
        <ele>444</ele>
        <time>2015-11-29T10:24:53Z</time>
      </trkpt>
      <trkpt lat="43.51068" lon="3.05824">
        <ele>444.5</ele>
        <time>2015-11-29T10:24:54Z</time>
      </trkpt>
      <trkpt lat="43.5107" lon="3.05823">
        <ele>442.5</ele>
        <time>2015-11-29T10:24:55Z</time>
      </trkpt>
      <trkpt lat="43.51072" lon="3.05822">
        <ele>443</ele>
        <time>2015-11-29T10:24:56Z</time>
      </trkpt>
      <trkpt lat="43.51072" lon="3.0582">
        <ele>443</ele>
        <time>2015-11-29T10:24:57Z</time>
      </trkpt>
      <trkpt lat="43.51074" lon="3.05819">
        <ele>442.5</ele>
        <time>2015-11-29T10:24:59Z</time>
      </trkpt>
      <trkpt lat="43.51076" lon="3.05817">
        <ele>442</ele>
        <time>2015-11-29T10:24:59Z</time>
      </trkpt>
      <trkpt lat="43.51077" lon="3.05816">
        <ele>442.5</ele>
        <time>2015-11-29T10:25:00Z</time>
      </trkpt>
      <trkpt lat="43.51078" lon="3.05813">
        <ele>442.5</ele>
        <time>2015-11-29T10:25:01Z</time>
      </trkpt>
      <trkpt lat="43.51079" lon="3.0581">
        <ele>442</ele>
        <time>2015-11-29T10:25:02Z</time>
      </trkpt>
      <trkpt lat="43.51081" lon="3.05808">
        <ele>441.5</ele>
        <time>2015-11-29T10:25:03Z</time>
      </trkpt>
      <trkpt lat="43.51082" lon="3.05807">
        <ele>441</ele>
        <time>2015-11-29T10:25:04Z</time>
      </trkpt>
      <trkpt lat="43.51084" lon="3.05805">
        <ele>441.5</ele>
        <time>2015-11-29T10:25:05Z</time>
      </trkpt>
      <trkpt lat="43.51085" lon="3.05804">
        <ele>442.5</ele>
        <time>2015-11-29T10:25:06Z</time>
      </trkpt>
      <trkpt lat="43.51088" lon="3.05804">
        <ele>442</ele>
        <time>2015-11-29T10:25:07Z</time>
      </trkpt>
      <trkpt lat="43.5109" lon="3.05804">
        <ele>441.5</ele>
        <time>2015-11-29T10:25:08Z</time>
      </trkpt>
      <trkpt lat="43.51092" lon="3.05803">
        <ele>441.5</ele>
        <time>2015-11-29T10:25:10Z</time>
      </trkpt>
      <trkpt lat="43.51093" lon="3.05801">
        <ele>442.5</ele>
        <time>2015-11-29T10:25:10Z</time>
      </trkpt>
      <trkpt lat="43.51094" lon="3.05799">
        <ele>442.5</ele>
        <time>2015-11-29T10:25:11Z</time>
      </trkpt>
      <trkpt lat="43.51095" lon="3.05796">
        <ele>442</ele>
        <time>2015-11-29T10:25:12Z</time>
      </trkpt>
      <trkpt lat="43.51097" lon="3.05794">
        <ele>441</ele>
        <time>2015-11-29T10:25:13Z</time>
      </trkpt>
      <trkpt lat="43.51098" lon="3.05794">
        <ele>441.5</ele>
        <time>2015-11-29T10:25:14Z</time>
      </trkpt>
      <trkpt lat="43.51099" lon="3.05791">
        <ele>441</ele>
        <time>2015-11-29T10:25:15Z</time>
      </trkpt>
      <trkpt lat="43.51102" lon="3.0579">
        <ele>441</ele>
        <time>2015-11-29T10:25:16Z</time>
      </trkpt>
      <trkpt lat="43.51104" lon="3.05788">
        <ele>441.5</ele>
        <time>2015-11-29T10:25:17Z</time>
      </trkpt>
      <trkpt lat="43.51105" lon="3.05786">
        <ele>442</ele>
        <time>2015-11-29T10:25:18Z</time>
      </trkpt>
      <trkpt lat="43.51105" lon="3.05783">
        <ele>441.5</ele>
        <time>2015-11-29T10:25:19Z</time>
      </trkpt>
      <trkpt lat="43.51103" lon="3.05779">
        <ele>441.5</ele>
        <time>2015-11-29T10:25:20Z</time>
      </trkpt>
      <trkpt lat="43.51104" lon="3.05776">
        <ele>441</ele>
        <time>2015-11-29T10:25:21Z</time>
      </trkpt>
      <trkpt lat="43.51105" lon="3.05775">
        <ele>441.5</ele>
        <time>2015-11-29T10:25:22Z</time>
      </trkpt>
      <trkpt lat="43.51107" lon="3.05772">
        <ele>442</ele>
        <time>2015-11-29T10:25:23Z</time>
      </trkpt>
      <trkpt lat="43.51109" lon="3.05771">
        <ele>444</ele>
        <time>2015-11-29T10:25:24Z</time>
      </trkpt>
      <trkpt lat="43.5111" lon="3.05769">
        <ele>445</ele>
        <time>2015-11-29T10:25:25Z</time>
      </trkpt>
      <trkpt lat="43.51112" lon="3.05767">
        <ele>445</ele>
        <time>2015-11-29T10:25:26Z</time>
      </trkpt>
      <trkpt lat="43.51114" lon="3.05765">
        <ele>445.5</ele>
        <time>2015-11-29T10:25:27Z</time>
      </trkpt>
      <trkpt lat="43.51116" lon="3.05764">
        <ele>446.5</ele>
        <time>2015-11-29T10:25:28Z</time>
      </trkpt>
      <trkpt lat="43.51118" lon="3.05764">
        <ele>446</ele>
        <time>2015-11-29T10:25:30Z</time>
      </trkpt>
      <trkpt lat="43.51118" lon="3.05752">
        <ele>446.5</ele>
        <time>2015-11-29T10:25:31Z</time>
      </trkpt>
      <trkpt lat="43.51122" lon="3.0575">
        <ele>447</ele>
        <time>2015-11-29T10:25:33Z</time>
      </trkpt>
      <trkpt lat="43.51124" lon="3.05748">
        <ele>446.5</ele>
        <time>2015-11-29T10:25:35Z</time>
      </trkpt>
      <trkpt lat="43.51126" lon="3.05747">
        <ele>447</ele>
        <time>2015-11-29T10:25:35Z</time>
      </trkpt>
      <trkpt lat="43.51129" lon="3.05745">
        <ele>447.5</ele>
        <time>2015-11-29T10:25:36Z</time>
      </trkpt>
      <trkpt lat="43.51131" lon="3.05743">
        <ele>447</ele>
        <time>2015-11-29T10:25:38Z</time>
      </trkpt>
      <trkpt lat="43.51133" lon="3.05742">
        <ele>447.5</ele>
        <time>2015-11-29T10:25:38Z</time>
      </trkpt>
      <trkpt lat="43.51136" lon="3.0574">
        <ele>448</ele>
        <time>2015-11-29T10:25:39Z</time>
      </trkpt>
      <trkpt lat="43.51138" lon="3.05738">
        <ele>448</ele>
        <time>2015-11-29T10:25:40Z</time>
      </trkpt>
      <trkpt lat="43.5114" lon="3.05736">
        <ele>448.5</ele>
        <time>2015-11-29T10:25:41Z</time>
      </trkpt>
      <trkpt lat="43.51142" lon="3.05735">
        <ele>448</ele>
        <time>2015-11-29T10:25:42Z</time>
      </trkpt>
      <trkpt lat="43.51144" lon="3.05733">
        <ele>448</ele>
        <time>2015-11-29T10:25:43Z</time>
      </trkpt>
      <trkpt lat="43.51146" lon="3.05732">
        <ele>448</ele>
        <time>2015-11-29T10:25:44Z</time>
      </trkpt>
      <trkpt lat="43.51148" lon="3.0573">
        <ele>448.5</ele>
        <time>2015-11-29T10:25:45Z</time>
      </trkpt>
      <trkpt lat="43.5115" lon="3.05729">
        <ele>448.5</ele>
        <time>2015-11-29T10:25:46Z</time>
      </trkpt>
      <trkpt lat="43.51151" lon="3.05727">
        <ele>448.5</ele>
        <time>2015-11-29T10:25:47Z</time>
      </trkpt>
      <trkpt lat="43.51152" lon="3.05726">
        <ele>449.5</ele>
        <time>2015-11-29T10:25:48Z</time>
      </trkpt>
      <trkpt lat="43.51154" lon="3.05725">
        <ele>449.5</ele>
        <time>2015-11-29T10:25:49Z</time>
      </trkpt>
      <trkpt lat="43.51156" lon="3.05723">
        <ele>449.5</ele>
        <time>2015-11-29T10:25:50Z</time>
      </trkpt>
      <trkpt lat="43.51157" lon="3.05722">
        <ele>449</ele>
        <time>2015-11-29T10:25:51Z</time>
      </trkpt>
      <trkpt lat="43.51159" lon="3.05722">
        <ele>449</ele>
        <time>2015-11-29T10:25:52Z</time>
      </trkpt>
      <trkpt lat="43.5116" lon="3.05721">
        <ele>448.5</ele>
        <time>2015-11-29T10:25:53Z</time>
      </trkpt>
      <trkpt lat="43.51161" lon="3.0572">
        <ele>449</ele>
        <time>2015-11-29T10:25:54Z</time>
      </trkpt>
      <trkpt lat="43.51163" lon="3.05719">
        <ele>449</ele>
        <time>2015-11-29T10:25:55Z</time>
      </trkpt>
      <trkpt lat="43.51164" lon="3.05718">
        <ele>449.5</ele>
        <time>2015-11-29T10:25:56Z</time>
      </trkpt>
      <trkpt lat="43.51165" lon="3.05717">
        <ele>449</ele>
        <time>2015-11-29T10:25:57Z</time>
      </trkpt>
      <trkpt lat="43.51167" lon="3.05716">
        <ele>449</ele>
        <time>2015-11-29T10:25:58Z</time>
      </trkpt>
      <trkpt lat="43.51168" lon="3.05715">
        <ele>448.5</ele>
        <time>2015-11-29T10:25:59Z</time>
      </trkpt>
      <trkpt lat="43.51169" lon="3.05713">
        <ele>448</ele>
        <time>2015-11-29T10:26:00Z</time>
      </trkpt>
      <trkpt lat="43.5117" lon="3.05712">
        <ele>448</ele>
        <time>2015-11-29T10:26:01Z</time>
      </trkpt>
      <trkpt lat="43.51171" lon="3.0571">
        <ele>448.5</ele>
        <time>2015-11-29T10:26:02Z</time>
      </trkpt>
      <trkpt lat="43.51172" lon="3.05709">
        <ele>448</ele>
        <time>2015-11-29T10:26:03Z</time>
      </trkpt>
      <trkpt lat="43.51173" lon="3.05707">
        <ele>448</ele>
        <time>2015-11-29T10:26:04Z</time>
      </trkpt>
      <trkpt lat="43.51174" lon="3.05706">
        <ele>449</ele>
        <time>2015-11-29T10:26:05Z</time>
      </trkpt>
      <trkpt lat="43.51175" lon="3.05705">
        <ele>449.5</ele>
        <time>2015-11-29T10:26:06Z</time>
      </trkpt>
      <trkpt lat="43.51176" lon="3.05704">
        <ele>449.5</ele>
        <time>2015-11-29T10:26:07Z</time>
      </trkpt>
      <trkpt lat="43.51177" lon="3.05703">
        <ele>449.5</ele>
        <time>2015-11-29T10:26:08Z</time>
      </trkpt>
      <trkpt lat="43.51178" lon="3.05702">
        <ele>449.5</ele>
        <time>2015-11-29T10:26:09Z</time>
      </trkpt>
      <trkpt lat="43.51179" lon="3.05701">
        <ele>450</ele>
        <time>2015-11-29T10:26:10Z</time>
      </trkpt>
      <trkpt lat="43.51179" lon="3.057">
        <ele>450</ele>
        <time>2015-11-29T10:26:11Z</time>
      </trkpt>
      <trkpt lat="43.5118" lon="3.05698">
        <ele>450</ele>
        <time>2015-11-29T10:26:12Z</time>
      </trkpt>
      <trkpt lat="43.51181" lon="3.05697">
        <ele>450</ele>
        <time>2015-11-29T10:26:13Z</time>
      </trkpt>
      <trkpt lat="43.51182" lon="3.05697">
        <ele>450</ele>
        <time>2015-11-29T10:26:14Z</time>
      </trkpt>
      <trkpt lat="43.51183" lon="3.05696">
        <ele>449.5</ele>
        <time>2015-11-29T10:26:15Z</time>
      </trkpt>
      <trkpt lat="43.51184" lon="3.05695">
        <ele>449</ele>
        <time>2015-11-29T10:26:16Z</time>
      </trkpt>
      <trkpt lat="43.51185" lon="3.05694">
        <ele>449</ele>
        <time>2015-11-29T10:26:17Z</time>
      </trkpt>
      <trkpt lat="43.51186" lon="3.05694">
        <ele>450.5</ele>
        <time>2015-11-29T10:26:18Z</time>
      </trkpt>
      <trkpt lat="43.51187" lon="3.05693">
        <ele>450.5</ele>
        <time>2015-11-29T10:26:19Z</time>
      </trkpt>
      <trkpt lat="43.51187" lon="3.05691">
        <ele>450</ele>
        <time>2015-11-29T10:26:20Z</time>
      </trkpt>
      <trkpt lat="43.51188" lon="3.05689">
        <ele>450</ele>
        <time>2015-11-29T10:26:21Z</time>
      </trkpt>
      <trkpt lat="43.51189" lon="3.05687">
        <ele>450</ele>
        <time>2015-11-29T10:26:22Z</time>
      </trkpt>
      <trkpt lat="43.51191" lon="3.05685">
        <ele>450.5</ele>
        <time>2015-11-29T10:26:23Z</time>
      </trkpt>
      <trkpt lat="43.51192" lon="3.05683">
        <ele>450</ele>
        <time>2015-11-29T10:26:24Z</time>
      </trkpt>
      <trkpt lat="43.51193" lon="3.05681">
        <ele>449.5</ele>
        <time>2015-11-29T10:26:25Z</time>
      </trkpt>
      <trkpt lat="43.51194" lon="3.05678">
        <ele>449.5</ele>
        <time>2015-11-29T10:26:26Z</time>
      </trkpt>
      <trkpt lat="43.51195" lon="3.05677">
        <ele>449</ele>
        <time>2015-11-29T10:26:27Z</time>
      </trkpt>
      <trkpt lat="43.51196" lon="3.05675">
        <ele>449.5</ele>
        <time>2015-11-29T10:26:28Z</time>
      </trkpt>
      <trkpt lat="43.51196" lon="3.05673">
        <ele>450</ele>
        <time>2015-11-29T10:26:29Z</time>
      </trkpt>
      <trkpt lat="43.51197" lon="3.05671">
        <ele>450</ele>
        <time>2015-11-29T10:26:30Z</time>
      </trkpt>
      <trkpt lat="43.51198" lon="3.05669">
        <ele>450.5</ele>
        <time>2015-11-29T10:26:31Z</time>
      </trkpt>
      <trkpt lat="43.51198" lon="3.05667">
        <ele>451.5</ele>
        <time>2015-11-29T10:26:32Z</time>
      </trkpt>
      <trkpt lat="43.51199" lon="3.05665">
        <ele>452</ele>
        <time>2015-11-29T10:26:33Z</time>
      </trkpt>
      <trkpt lat="43.512" lon="3.05663">
        <ele>452</ele>
        <time>2015-11-29T10:26:34Z</time>
      </trkpt>
      <trkpt lat="43.512" lon="3.0566">
        <ele>452</ele>
        <time>2015-11-29T10:26:35Z</time>
      </trkpt>
      <trkpt lat="43.51201" lon="3.05658">
        <ele>452</ele>
        <time>2015-11-29T10:26:36Z</time>
      </trkpt>
      <trkpt lat="43.51202" lon="3.05656">
        <ele>452</ele>
        <time>2015-11-29T10:26:37Z</time>
      </trkpt>
      <trkpt lat="43.51202" lon="3.05654">
        <ele>452.5</ele>
        <time>2015-11-29T10:26:38Z</time>
      </trkpt>
      <trkpt lat="43.51203" lon="3.05651">
        <ele>452.5</ele>
        <time>2015-11-29T10:26:39Z</time>
      </trkpt>
      <trkpt lat="43.51205" lon="3.05649">
        <ele>452.5</ele>
        <time>2015-11-29T10:26:40Z</time>
      </trkpt>
      <trkpt lat="43.51206" lon="3.05647">
        <ele>453</ele>
        <time>2015-11-29T10:26:41Z</time>
      </trkpt>
      <trkpt lat="43.51206" lon="3.05644">
        <ele>453.5</ele>
        <time>2015-11-29T10:26:42Z</time>
      </trkpt>
      <trkpt lat="43.51207" lon="3.05641">
        <ele>453.5</ele>
        <time>2015-11-29T10:26:43Z</time>
      </trkpt>
      <trkpt lat="43.51208" lon="3.05639">
        <ele>453</ele>
        <time>2015-11-29T10:26:44Z</time>
      </trkpt>
      <trkpt lat="43.51209" lon="3.05637">
        <ele>452</ele>
        <time>2015-11-29T10:26:45Z</time>
      </trkpt>
      <trkpt lat="43.51211" lon="3.05635">
        <ele>451.5</ele>
        <time>2015-11-29T10:26:46Z</time>
      </trkpt>
      <trkpt lat="43.51211" lon="3.05632">
        <ele>451.5</ele>
        <time>2015-11-29T10:26:47Z</time>
      </trkpt>
      <trkpt lat="43.51213" lon="3.05628">
        <ele>452</ele>
        <time>2015-11-29T10:26:48Z</time>
      </trkpt>
      <trkpt lat="43.51214" lon="3.05624">
        <ele>452.5</ele>
        <time>2015-11-29T10:26:49Z</time>
      </trkpt>
      <trkpt lat="43.51215" lon="3.05619">
        <ele>453</ele>
        <time>2015-11-29T10:26:50Z</time>
      </trkpt>
      <trkpt lat="43.51216" lon="3.05616">
        <ele>453.5</ele>
        <time>2015-11-29T10:26:51Z</time>
      </trkpt>
      <trkpt lat="43.51217" lon="3.05613">
        <ele>453.5</ele>
        <time>2015-11-29T10:26:52Z</time>
      </trkpt>
      <trkpt lat="43.51218" lon="3.05612">
        <ele>454.5</ele>
        <time>2015-11-29T10:26:53Z</time>
      </trkpt>
      <trkpt lat="43.51218" lon="3.0561">
        <ele>455</ele>
        <time>2015-11-29T10:26:54Z</time>
      </trkpt>
      <trkpt lat="43.51219" lon="3.05608">
        <ele>456</ele>
        <time>2015-11-29T10:26:55Z</time>
      </trkpt>
      <trkpt lat="43.51219" lon="3.05605">
        <ele>457</ele>
        <time>2015-11-29T10:26:56Z</time>
      </trkpt>
      <trkpt lat="43.51219" lon="3.05603">
        <ele>457.5</ele>
        <time>2015-11-29T10:26:57Z</time>
      </trkpt>
      <trkpt lat="43.5122" lon="3.05602">
        <ele>457.5</ele>
        <time>2015-11-29T10:26:58Z</time>
      </trkpt>
      <trkpt lat="43.5122" lon="3.056">
        <ele>457</ele>
        <time>2015-11-29T10:26:59Z</time>
      </trkpt>
      <trkpt lat="43.51221" lon="3.05598">
        <ele>457.5</ele>
        <time>2015-11-29T10:27:00Z</time>
      </trkpt>
      <trkpt lat="43.51221" lon="3.05596">
        <ele>458</ele>
        <time>2015-11-29T10:27:01Z</time>
      </trkpt>
      <trkpt lat="43.51221" lon="3.05595">
        <ele>458</ele>
        <time>2015-11-29T10:27:02Z</time>
      </trkpt>
      <trkpt lat="43.51221" lon="3.05593">
        <ele>458.5</ele>
        <time>2015-11-29T10:27:03Z</time>
      </trkpt>
      <trkpt lat="43.51221" lon="3.05592">
        <ele>459.5</ele>
        <time>2015-11-29T10:27:04Z</time>
      </trkpt>
      <trkpt lat="43.51222" lon="3.0559">
        <ele>460.5</ele>
        <time>2015-11-29T10:27:05Z</time>
      </trkpt>
      <trkpt lat="43.51222" lon="3.05588">
        <ele>460.5</ele>
        <time>2015-11-29T10:27:06Z</time>
      </trkpt>
      <trkpt lat="43.51222" lon="3.05586">
        <ele>460.5</ele>
        <time>2015-11-29T10:27:07Z</time>
      </trkpt>
      <trkpt lat="43.51223" lon="3.05584">
        <ele>460.5</ele>
        <time>2015-11-29T10:27:08Z</time>
      </trkpt>
      <trkpt lat="43.51223" lon="3.05582">
        <ele>461.5</ele>
        <time>2015-11-29T10:27:09Z</time>
      </trkpt>
      <trkpt lat="43.51224" lon="3.0558">
        <ele>461.5</ele>
        <time>2015-11-29T10:27:10Z</time>
      </trkpt>
      <trkpt lat="43.51224" lon="3.05577">
        <ele>462.5</ele>
        <time>2015-11-29T10:27:11Z</time>
      </trkpt>
      <trkpt lat="43.51225" lon="3.05574">
        <ele>463.5</ele>
        <time>2015-11-29T10:27:12Z</time>
      </trkpt>
      <trkpt lat="43.51226" lon="3.05572">
        <ele>463.5</ele>
        <time>2015-11-29T10:27:13Z</time>
      </trkpt>
      <trkpt lat="43.51227" lon="3.05571">
        <ele>463</ele>
        <time>2015-11-29T10:27:14Z</time>
      </trkpt>
      <trkpt lat="43.51228" lon="3.05569">
        <ele>464.5</ele>
        <time>2015-11-29T10:27:15Z</time>
      </trkpt>
      <trkpt lat="43.51228" lon="3.05563">
        <ele>464.5</ele>
        <time>2015-11-29T10:27:17Z</time>
      </trkpt>
      <trkpt lat="43.51229" lon="3.05562">
        <ele>465</ele>
        <time>2015-11-29T10:27:18Z</time>
      </trkpt>
      <trkpt lat="43.5123" lon="3.0556">
        <ele>465</ele>
        <time>2015-11-29T10:27:19Z</time>
      </trkpt>
      <trkpt lat="43.5123" lon="3.05558">
        <ele>465.5</ele>
        <time>2015-11-29T10:27:20Z</time>
      </trkpt>
      <trkpt lat="43.51231" lon="3.05557">
        <ele>465</ele>
        <time>2015-11-29T10:27:21Z</time>
      </trkpt>
      <trkpt lat="43.51231" lon="3.05555">
        <ele>466</ele>
        <time>2015-11-29T10:27:22Z</time>
      </trkpt>
      <trkpt lat="43.51233" lon="3.05553">
        <ele>464.5</ele>
        <time>2015-11-29T10:27:23Z</time>
      </trkpt>
      <trkpt lat="43.51234" lon="3.05551">
        <ele>463.5</ele>
        <time>2015-11-29T10:27:24Z</time>
      </trkpt>
      <trkpt lat="43.51235" lon="3.0555">
        <ele>461</ele>
        <time>2015-11-29T10:27:25Z</time>
      </trkpt>
      <trkpt lat="43.51235" lon="3.05549">
        <ele>461</ele>
        <time>2015-11-29T10:27:26Z</time>
      </trkpt>
      <trkpt lat="43.51236" lon="3.05548">
        <ele>462</ele>
        <time>2015-11-29T10:27:27Z</time>
      </trkpt>
      <trkpt lat="43.51238" lon="3.05549">
        <ele>462</ele>
        <time>2015-11-29T10:27:28Z</time>
      </trkpt>
      <trkpt lat="43.51239" lon="3.05549">
        <ele>462.5</ele>
        <time>2015-11-29T10:27:29Z</time>
      </trkpt>
      <trkpt lat="43.51241" lon="3.0555">
        <ele>462.5</ele>
        <time>2015-11-29T10:27:30Z</time>
      </trkpt>
      <trkpt lat="43.51242" lon="3.05551">
        <ele>462.5</ele>
        <time>2015-11-29T10:27:31Z</time>
      </trkpt>
      <trkpt lat="43.51243" lon="3.05552">
        <ele>463</ele>
        <time>2015-11-29T10:27:32Z</time>
      </trkpt>
      <trkpt lat="43.51244" lon="3.05553">
        <ele>463.5</ele>
        <time>2015-11-29T10:27:33Z</time>
      </trkpt>
      <trkpt lat="43.51245" lon="3.05557">
        <ele>464</ele>
        <time>2015-11-29T10:27:35Z</time>
      </trkpt>
      <trkpt lat="43.51246" lon="3.05559">
        <ele>464</ele>
        <time>2015-11-29T10:27:36Z</time>
      </trkpt>
      <trkpt lat="43.51247" lon="3.05561">
        <ele>463.5</ele>
        <time>2015-11-29T10:27:37Z</time>
      </trkpt>
      <trkpt lat="43.51247" lon="3.05563">
        <ele>463</ele>
        <time>2015-11-29T10:27:38Z</time>
      </trkpt>
      <trkpt lat="43.51248" lon="3.05565">
        <ele>463</ele>
        <time>2015-11-29T10:27:39Z</time>
      </trkpt>
      <trkpt lat="43.51249" lon="3.05567">
        <ele>462.5</ele>
        <time>2015-11-29T10:27:40Z</time>
      </trkpt>
      <trkpt lat="43.5125" lon="3.05569">
        <ele>463</ele>
        <time>2015-11-29T10:27:41Z</time>
      </trkpt>
      <trkpt lat="43.51251" lon="3.0557">
        <ele>463.5</ele>
        <time>2015-11-29T10:27:42Z</time>
      </trkpt>
      <trkpt lat="43.51252" lon="3.05572">
        <ele>463.5</ele>
        <time>2015-11-29T10:27:43Z</time>
      </trkpt>
      <trkpt lat="43.51254" lon="3.05573">
        <ele>464</ele>
        <time>2015-11-29T10:27:44Z</time>
      </trkpt>
      <trkpt lat="43.51255" lon="3.05575">
        <ele>463.5</ele>
        <time>2015-11-29T10:27:45Z</time>
      </trkpt>
      <trkpt lat="43.51256" lon="3.05577">
        <ele>464</ele>
        <time>2015-11-29T10:27:46Z</time>
      </trkpt>
      <trkpt lat="43.51258" lon="3.05579">
        <ele>464</ele>
        <time>2015-11-29T10:27:47Z</time>
      </trkpt>
      <trkpt lat="43.51259" lon="3.05581">
        <ele>464</ele>
        <time>2015-11-29T10:27:48Z</time>
      </trkpt>
      <trkpt lat="43.5126" lon="3.05582">
        <ele>464</ele>
        <time>2015-11-29T10:27:49Z</time>
      </trkpt>
      <trkpt lat="43.51262" lon="3.05583">
        <ele>464</ele>
        <time>2015-11-29T10:27:50Z</time>
      </trkpt>
      <trkpt lat="43.51263" lon="3.05584">
        <ele>464</ele>
        <time>2015-11-29T10:27:51Z</time>
      </trkpt>
      <trkpt lat="43.51265" lon="3.05585">
        <ele>464.5</ele>
        <time>2015-11-29T10:27:52Z</time>
      </trkpt>
      <trkpt lat="43.51266" lon="3.05585">
        <ele>465</ele>
        <time>2015-11-29T10:27:53Z</time>
      </trkpt>
      <trkpt lat="43.51268" lon="3.05586">
        <ele>466</ele>
        <time>2015-11-29T10:27:54Z</time>
      </trkpt>
      <trkpt lat="43.51269" lon="3.05587">
        <ele>466</ele>
        <time>2015-11-29T10:27:55Z</time>
      </trkpt>
      <trkpt lat="43.51271" lon="3.05587">
        <ele>466</ele>
        <time>2015-11-29T10:27:56Z</time>
      </trkpt>
      <trkpt lat="43.51273" lon="3.05588">
        <ele>466</ele>
        <time>2015-11-29T10:27:57Z</time>
      </trkpt>
      <trkpt lat="43.51274" lon="3.05589">
        <ele>465.5</ele>
        <time>2015-11-29T10:27:58Z</time>
      </trkpt>
      <trkpt lat="43.51276" lon="3.05588">
        <ele>465</ele>
        <time>2015-11-29T10:27:59Z</time>
      </trkpt>
      <trkpt lat="43.51277" lon="3.05588">
        <ele>465</ele>
        <time>2015-11-29T10:28:00Z</time>
      </trkpt>
      <trkpt lat="43.51279" lon="3.05588">
        <ele>464.5</ele>
        <time>2015-11-29T10:28:01Z</time>
      </trkpt>
      <trkpt lat="43.5128" lon="3.05587">
        <ele>465.5</ele>
        <time>2015-11-29T10:28:02Z</time>
      </trkpt>
      <trkpt lat="43.51281" lon="3.05586">
        <ele>466</ele>
        <time>2015-11-29T10:28:03Z</time>
      </trkpt>
      <trkpt lat="43.51282" lon="3.05585">
        <ele>465.5</ele>
        <time>2015-11-29T10:28:04Z</time>
      </trkpt>
      <trkpt lat="43.51283" lon="3.05584">
        <ele>466</ele>
        <time>2015-11-29T10:28:05Z</time>
      </trkpt>
      <trkpt lat="43.51284" lon="3.05582">
        <ele>466</ele>
        <time>2015-11-29T10:28:06Z</time>
      </trkpt>
      <trkpt lat="43.51285" lon="3.05581">
        <ele>465.5</ele>
        <time>2015-11-29T10:28:07Z</time>
      </trkpt>
      <trkpt lat="43.51286" lon="3.0558">
        <ele>465.5</ele>
        <time>2015-11-29T10:28:08Z</time>
      </trkpt>
      <trkpt lat="43.51287" lon="3.05579">
        <ele>466.5</ele>
        <time>2015-11-29T10:28:09Z</time>
      </trkpt>
      <trkpt lat="43.51288" lon="3.05578">
        <ele>466.5</ele>
        <time>2015-11-29T10:28:10Z</time>
      </trkpt>
      <trkpt lat="43.51289" lon="3.05577">
        <ele>467</ele>
        <time>2015-11-29T10:28:11Z</time>
      </trkpt>
      <trkpt lat="43.51291" lon="3.05575">
        <ele>467</ele>
        <time>2015-11-29T10:28:12Z</time>
      </trkpt>
      <trkpt lat="43.51291" lon="3.05574">
        <ele>467.5</ele>
        <time>2015-11-29T10:28:13Z</time>
      </trkpt>
      <trkpt lat="43.51293" lon="3.05573">
        <ele>468</ele>
        <time>2015-11-29T10:28:14Z</time>
      </trkpt>
      <trkpt lat="43.51294" lon="3.05571">
        <ele>468</ele>
        <time>2015-11-29T10:28:15Z</time>
      </trkpt>
      <trkpt lat="43.51295" lon="3.0557">
        <ele>468.5</ele>
        <time>2015-11-29T10:28:16Z</time>
      </trkpt>
      <trkpt lat="43.51296" lon="3.05569">
        <ele>468.5</ele>
        <time>2015-11-29T10:28:16Z</time>
      </trkpt>
      <trkpt lat="43.51297" lon="3.05567">
        <ele>469</ele>
        <time>2015-11-29T10:28:17Z</time>
      </trkpt>
      <trkpt lat="43.51298" lon="3.05566">
        <ele>469.5</ele>
        <time>2015-11-29T10:28:18Z</time>
      </trkpt>
      <trkpt lat="43.51299" lon="3.05564">
        <ele>469.5</ele>
        <time>2015-11-29T10:28:19Z</time>
      </trkpt>
      <trkpt lat="43.513" lon="3.05563">
        <ele>470</ele>
        <time>2015-11-29T10:28:20Z</time>
      </trkpt>
      <trkpt lat="43.51302" lon="3.05561">
        <ele>470</ele>
        <time>2015-11-29T10:28:21Z</time>
      </trkpt>
      <trkpt lat="43.51303" lon="3.0556">
        <ele>470</ele>
        <time>2015-11-29T10:28:22Z</time>
      </trkpt>
      <trkpt lat="43.51304" lon="3.05558">
        <ele>470.5</ele>
        <time>2015-11-29T10:28:23Z</time>
      </trkpt>
      <trkpt lat="43.51306" lon="3.05557">
        <ele>471</ele>
        <time>2015-11-29T10:28:24Z</time>
      </trkpt>
      <trkpt lat="43.51307" lon="3.05556">
        <ele>471</ele>
        <time>2015-11-29T10:28:25Z</time>
      </trkpt>
      <trkpt lat="43.51309" lon="3.05554">
        <ele>471.5</ele>
        <time>2015-11-29T10:28:26Z</time>
      </trkpt>
      <trkpt lat="43.5131" lon="3.05553">
        <ele>471.5</ele>
        <time>2015-11-29T10:28:27Z</time>
      </trkpt>
      <trkpt lat="43.51311" lon="3.05551">
        <ele>471.5</ele>
        <time>2015-11-29T10:28:28Z</time>
      </trkpt>
      <trkpt lat="43.51313" lon="3.0555">
        <ele>471.5</ele>
        <time>2015-11-29T10:28:29Z</time>
      </trkpt>
      <trkpt lat="43.51314" lon="3.05548">
        <ele>471.5</ele>
        <time>2015-11-29T10:28:30Z</time>
      </trkpt>
      <trkpt lat="43.51316" lon="3.05547">
        <ele>472</ele>
        <time>2015-11-29T10:28:31Z</time>
      </trkpt>
      <trkpt lat="43.51317" lon="3.05545">
        <ele>472</ele>
        <time>2015-11-29T10:28:32Z</time>
      </trkpt>
      <trkpt lat="43.51318" lon="3.05544">
        <ele>472.5</ele>
        <time>2015-11-29T10:28:33Z</time>
      </trkpt>
      <trkpt lat="43.5132" lon="3.05542">
        <ele>472</ele>
        <time>2015-11-29T10:28:34Z</time>
      </trkpt>
      <trkpt lat="43.51322" lon="3.05541">
        <ele>471.5</ele>
        <time>2015-11-29T10:28:35Z</time>
      </trkpt>
      <trkpt lat="43.51323" lon="3.05539">
        <ele>472</ele>
        <time>2015-11-29T10:28:36Z</time>
      </trkpt>
      <trkpt lat="43.51324" lon="3.05538">
        <ele>472</ele>
        <time>2015-11-29T10:28:37Z</time>
      </trkpt>
      <trkpt lat="43.51326" lon="3.05537">
        <ele>472</ele>
        <time>2015-11-29T10:28:39Z</time>
      </trkpt>
      <trkpt lat="43.51327" lon="3.05535">
        <ele>472</ele>
        <time>2015-11-29T10:28:39Z</time>
      </trkpt>
      <trkpt lat="43.51328" lon="3.05533">
        <ele>472.5</ele>
        <time>2015-11-29T10:28:41Z</time>
      </trkpt>
      <trkpt lat="43.51329" lon="3.05532">
        <ele>473.5</ele>
        <time>2015-11-29T10:28:41Z</time>
      </trkpt>
      <trkpt lat="43.5133" lon="3.05531">
        <ele>474</ele>
        <time>2015-11-29T10:28:43Z</time>
      </trkpt>
      <trkpt lat="43.51331" lon="3.0553">
        <ele>474.5</ele>
        <time>2015-11-29T10:28:43Z</time>
      </trkpt>
      <trkpt lat="43.51333" lon="3.05528">
        <ele>474</ele>
        <time>2015-11-29T10:28:44Z</time>
      </trkpt>
      <trkpt lat="43.51334" lon="3.05527">
        <ele>474</ele>
        <time>2015-11-29T10:28:46Z</time>
      </trkpt>
      <trkpt lat="43.51335" lon="3.05525">
        <ele>474.5</ele>
        <time>2015-11-29T10:28:46Z</time>
      </trkpt>
      <trkpt lat="43.51337" lon="3.05524">
        <ele>474.5</ele>
        <time>2015-11-29T10:28:47Z</time>
      </trkpt>
      <trkpt lat="43.51338" lon="3.05522">
        <ele>474.5</ele>
        <time>2015-11-29T10:28:48Z</time>
      </trkpt>
      <trkpt lat="43.51339" lon="3.0552">
        <ele>475</ele>
        <time>2015-11-29T10:28:49Z</time>
      </trkpt>
      <trkpt lat="43.51339" lon="3.05518">
        <ele>475</ele>
        <time>2015-11-29T10:28:50Z</time>
      </trkpt>
      <trkpt lat="43.5134" lon="3.05516">
        <ele>475.5</ele>
        <time>2015-11-29T10:28:51Z</time>
      </trkpt>
      <trkpt lat="43.51342" lon="3.05514">
        <ele>475.5</ele>
        <time>2015-11-29T10:28:52Z</time>
      </trkpt>
      <trkpt lat="43.51342" lon="3.05512">
        <ele>476</ele>
        <time>2015-11-29T10:28:53Z</time>
      </trkpt>
      <trkpt lat="43.51343" lon="3.05509">
        <ele>476.5</ele>
        <time>2015-11-29T10:28:54Z</time>
      </trkpt>
      <trkpt lat="43.51344" lon="3.05507">
        <ele>476.5</ele>
        <time>2015-11-29T10:28:55Z</time>
      </trkpt>
      <trkpt lat="43.51346" lon="3.05505">
        <ele>476.5</ele>
        <time>2015-11-29T10:28:56Z</time>
      </trkpt>
      <trkpt lat="43.51347" lon="3.05503">
        <ele>476</ele>
        <time>2015-11-29T10:28:57Z</time>
      </trkpt>
      <trkpt lat="43.51348" lon="3.05501">
        <ele>476</ele>
        <time>2015-11-29T10:28:58Z</time>
      </trkpt>
      <trkpt lat="43.51349" lon="3.05499">
        <ele>476</ele>
        <time>2015-11-29T10:28:59Z</time>
      </trkpt>
      <trkpt lat="43.5135" lon="3.05497">
        <ele>476.5</ele>
        <time>2015-11-29T10:29:00Z</time>
      </trkpt>
      <trkpt lat="43.51351" lon="3.05495">
        <ele>477</ele>
        <time>2015-11-29T10:29:01Z</time>
      </trkpt>
      <trkpt lat="43.51353" lon="3.05493">
        <ele>477.5</ele>
        <time>2015-11-29T10:29:02Z</time>
      </trkpt>
      <trkpt lat="43.51354" lon="3.05491">
        <ele>477</ele>
        <time>2015-11-29T10:29:03Z</time>
      </trkpt>
      <trkpt lat="43.51356" lon="3.05489">
        <ele>476.5</ele>
        <time>2015-11-29T10:29:04Z</time>
      </trkpt>
      <trkpt lat="43.51357" lon="3.05488">
        <ele>476</ele>
        <time>2015-11-29T10:29:05Z</time>
      </trkpt>
      <trkpt lat="43.51359" lon="3.05487">
        <ele>475.5</ele>
        <time>2015-11-29T10:29:06Z</time>
      </trkpt>
      <trkpt lat="43.5136" lon="3.05485">
        <ele>475</ele>
        <time>2015-11-29T10:29:07Z</time>
      </trkpt>
      <trkpt lat="43.51361" lon="3.05483">
        <ele>476</ele>
        <time>2015-11-29T10:29:08Z</time>
      </trkpt>
      <trkpt lat="43.51363" lon="3.05482">
        <ele>476</ele>
        <time>2015-11-29T10:29:09Z</time>
      </trkpt>
      <trkpt lat="43.51364" lon="3.05481">
        <ele>476</ele>
        <time>2015-11-29T10:29:10Z</time>
      </trkpt>
      <trkpt lat="43.51366" lon="3.0548">
        <ele>475.5</ele>
        <time>2015-11-29T10:29:11Z</time>
      </trkpt>
      <trkpt lat="43.51367" lon="3.05479">
        <ele>475</ele>
        <time>2015-11-29T10:29:12Z</time>
      </trkpt>
      <trkpt lat="43.51369" lon="3.05477">
        <ele>475.5</ele>
        <time>2015-11-29T10:29:13Z</time>
      </trkpt>
      <trkpt lat="43.5137" lon="3.05475">
        <ele>474.5</ele>
        <time>2015-11-29T10:29:14Z</time>
      </trkpt>
      <trkpt lat="43.51372" lon="3.05474">
        <ele>473.5</ele>
        <time>2015-11-29T10:29:15Z</time>
      </trkpt>
      <trkpt lat="43.51373" lon="3.05472">
        <ele>473</ele>
        <time>2015-11-29T10:29:16Z</time>
      </trkpt>
      <trkpt lat="43.51374" lon="3.05469">
        <ele>471.5</ele>
        <time>2015-11-29T10:29:17Z</time>
      </trkpt>
      <trkpt lat="43.51376" lon="3.05467">
        <ele>470.5</ele>
        <time>2015-11-29T10:29:18Z</time>
      </trkpt>
      <trkpt lat="43.51377" lon="3.05465">
        <ele>471</ele>
        <time>2015-11-29T10:29:19Z</time>
      </trkpt>
      <trkpt lat="43.51378" lon="3.05462">
        <ele>472</ele>
        <time>2015-11-29T10:29:20Z</time>
      </trkpt>
      <trkpt lat="43.51379" lon="3.0546">
        <ele>472.5</ele>
        <time>2015-11-29T10:29:21Z</time>
      </trkpt>
      <trkpt lat="43.5138" lon="3.05459">
        <ele>472</ele>
        <time>2015-11-29T10:29:22Z</time>
      </trkpt>
      <trkpt lat="43.51381" lon="3.05456">
        <ele>473</ele>
        <time>2015-11-29T10:29:23Z</time>
      </trkpt>
      <trkpt lat="43.51382" lon="3.05454">
        <ele>472.5</ele>
        <time>2015-11-29T10:29:24Z</time>
      </trkpt>
      <trkpt lat="43.51383" lon="3.05451">
        <ele>473</ele>
        <time>2015-11-29T10:29:25Z</time>
      </trkpt>
      <trkpt lat="43.51384" lon="3.05449">
        <ele>473</ele>
        <time>2015-11-29T10:29:26Z</time>
      </trkpt>
      <trkpt lat="43.51385" lon="3.05446">
        <ele>472</ele>
        <time>2015-11-29T10:29:27Z</time>
      </trkpt>
      <trkpt lat="43.51386" lon="3.05445">
        <ele>470.5</ele>
        <time>2015-11-29T10:29:28Z</time>
      </trkpt>
      <trkpt lat="43.51386" lon="3.05443">
        <ele>470.5</ele>
        <time>2015-11-29T10:29:29Z</time>
      </trkpt>
      <trkpt lat="43.51387" lon="3.05441">
        <ele>470.5</ele>
        <time>2015-11-29T10:29:30Z</time>
      </trkpt>
      <trkpt lat="43.51388" lon="3.05439">
        <ele>470</ele>
        <time>2015-11-29T10:29:31Z</time>
      </trkpt>
      <trkpt lat="43.51389" lon="3.05438">
        <ele>470</ele>
        <time>2015-11-29T10:29:32Z</time>
      </trkpt>
      <trkpt lat="43.5139" lon="3.05436">
        <ele>469.5</ele>
        <time>2015-11-29T10:29:33Z</time>
      </trkpt>
      <trkpt lat="43.51391" lon="3.05435">
        <ele>469</ele>
        <time>2015-11-29T10:29:34Z</time>
      </trkpt>
      <trkpt lat="43.51392" lon="3.05434">
        <ele>468.5</ele>
        <time>2015-11-29T10:29:35Z</time>
      </trkpt>
      <trkpt lat="43.51393" lon="3.05432">
        <ele>468.5</ele>
        <time>2015-11-29T10:29:36Z</time>
      </trkpt>
      <trkpt lat="43.51393" lon="3.0543">
        <ele>468.5</ele>
        <time>2015-11-29T10:29:37Z</time>
      </trkpt>
      <trkpt lat="43.51394" lon="3.05429">
        <ele>468</ele>
        <time>2015-11-29T10:29:38Z</time>
      </trkpt>
      <trkpt lat="43.51395" lon="3.05427">
        <ele>467.5</ele>
        <time>2015-11-29T10:29:39Z</time>
      </trkpt>
      <trkpt lat="43.51395" lon="3.05425">
        <ele>468</ele>
        <time>2015-11-29T10:29:40Z</time>
      </trkpt>
      <trkpt lat="43.51395" lon="3.05425">
        <ele>467.5</ele>
        <time>2015-11-29T10:29:41Z</time>
      </trkpt>
      <trkpt lat="43.51395" lon="3.05423">
        <ele>468.5</ele>
        <time>2015-11-29T10:29:42Z</time>
      </trkpt>
      <trkpt lat="43.51394" lon="3.05422">
        <ele>469.5</ele>
        <time>2015-11-29T10:29:43Z</time>
      </trkpt>
      <trkpt lat="43.51393" lon="3.05422">
        <ele>469</ele>
        <time>2015-11-29T10:29:44Z</time>
      </trkpt>
      <trkpt lat="43.51392" lon="3.05421">
        <ele>469</ele>
        <time>2015-11-29T10:29:45Z</time>
      </trkpt>
      <trkpt lat="43.51391" lon="3.05422">
        <ele>470</ele>
        <time>2015-11-29T10:29:46Z</time>
      </trkpt>
      <trkpt lat="43.51389" lon="3.05423">
        <ele>471</ele>
        <time>2015-11-29T10:29:47Z</time>
      </trkpt>
      <trkpt lat="43.51388" lon="3.05425">
        <ele>471.5</ele>
        <time>2015-11-29T10:29:48Z</time>
      </trkpt>
      <trkpt lat="43.51386" lon="3.05426">
        <ele>473</ele>
        <time>2015-11-29T10:29:49Z</time>
      </trkpt>
      <trkpt lat="43.51385" lon="3.05428">
        <ele>472.5</ele>
        <time>2015-11-29T10:29:50Z</time>
      </trkpt>
      <trkpt lat="43.51384" lon="3.0543">
        <ele>473</ele>
        <time>2015-11-29T10:29:51Z</time>
      </trkpt>
      <trkpt lat="43.51383" lon="3.05432">
        <ele>473.5</ele>
        <time>2015-11-29T10:29:52Z</time>
      </trkpt>
      <trkpt lat="43.51382" lon="3.05434">
        <ele>474</ele>
        <time>2015-11-29T10:29:53Z</time>
      </trkpt>
      <trkpt lat="43.51381" lon="3.05436">
        <ele>474.5</ele>
        <time>2015-11-29T10:29:54Z</time>
      </trkpt>
      <trkpt lat="43.5138" lon="3.05438">
        <ele>475.5</ele>
        <time>2015-11-29T10:29:55Z</time>
      </trkpt>
      <trkpt lat="43.51379" lon="3.05439">
        <ele>476.5</ele>
        <time>2015-11-29T10:29:56Z</time>
      </trkpt>
      <trkpt lat="43.51378" lon="3.0544">
        <ele>477</ele>
        <time>2015-11-29T10:29:57Z</time>
      </trkpt>
      <trkpt lat="43.51377" lon="3.0544">
        <ele>477.5</ele>
        <time>2015-11-29T10:29:58Z</time>
      </trkpt>
      <trkpt lat="43.51376" lon="3.05441">
        <ele>478</ele>
        <time>2015-11-29T10:29:59Z</time>
      </trkpt>
      <trkpt lat="43.51375" lon="3.05442">
        <ele>478.5</ele>
        <time>2015-11-29T10:30:00Z</time>
      </trkpt>
      <trkpt lat="43.51374" lon="3.05443">
        <ele>479</ele>
        <time>2015-11-29T10:30:01Z</time>
      </trkpt>
      <trkpt lat="43.51373" lon="3.05444">
        <ele>479</ele>
        <time>2015-11-29T10:30:02Z</time>
      </trkpt>
      <trkpt lat="43.51371" lon="3.05445">
        <ele>479.5</ele>
        <time>2015-11-29T10:30:03Z</time>
      </trkpt>
      <trkpt lat="43.5137" lon="3.05446">
        <ele>480</ele>
        <time>2015-11-29T10:30:04Z</time>
      </trkpt>
      <trkpt lat="43.51369" lon="3.05447">
        <ele>480.5</ele>
        <time>2015-11-29T10:30:05Z</time>
      </trkpt>
      <trkpt lat="43.51368" lon="3.05448">
        <ele>480.5</ele>
        <time>2015-11-29T10:30:06Z</time>
      </trkpt>
      <trkpt lat="43.51368" lon="3.05448">
        <ele>481.5</ele>
        <time>2015-11-29T10:30:07Z</time>
      </trkpt>
      <trkpt lat="43.51368" lon="3.05449">
        <ele>482.5</ele>
        <time>2015-11-29T10:30:08Z</time>
      </trkpt>
      <trkpt lat="43.51367" lon="3.05449">
        <ele>482.5</ele>
        <time>2015-11-29T10:30:09Z</time>
      </trkpt>
      <trkpt lat="43.51366" lon="3.0545">
        <ele>483</ele>
        <time>2015-11-29T10:30:10Z</time>
      </trkpt>
      <trkpt lat="43.51365" lon="3.05451">
        <ele>483.5</ele>
        <time>2015-11-29T10:30:11Z</time>
      </trkpt>
      <trkpt lat="43.51364" lon="3.05452">
        <ele>483.5</ele>
        <time>2015-11-29T10:30:12Z</time>
      </trkpt>
      <trkpt lat="43.51364" lon="3.05453">
        <ele>484</ele>
        <time>2015-11-29T10:30:13Z</time>
      </trkpt>
      <trkpt lat="43.51363" lon="3.05453">
        <ele>483.5</ele>
        <time>2015-11-29T10:30:14Z</time>
      </trkpt>
      <trkpt lat="43.51362" lon="3.05453">
        <ele>484</ele>
        <time>2015-11-29T10:30:15Z</time>
      </trkpt>
      <trkpt lat="43.51361" lon="3.05453">
        <ele>484</ele>
        <time>2015-11-29T10:30:16Z</time>
      </trkpt>
      <trkpt lat="43.5136" lon="3.05454">
        <ele>484</ele>
        <time>2015-11-29T10:30:17Z</time>
      </trkpt>
      <trkpt lat="43.51358" lon="3.05455">
        <ele>484.5</ele>
        <time>2015-11-29T10:30:18Z</time>
      </trkpt>
      <trkpt lat="43.51357" lon="3.05457">
        <ele>485</ele>
        <time>2015-11-29T10:30:19Z</time>
      </trkpt>
      <trkpt lat="43.51355" lon="3.05457">
        <ele>484.5</ele>
        <time>2015-11-29T10:30:20Z</time>
      </trkpt>
      <trkpt lat="43.51353" lon="3.05458">
        <ele>484.5</ele>
        <time>2015-11-29T10:30:21Z</time>
      </trkpt>
      <trkpt lat="43.51352" lon="3.05459">
        <ele>484.5</ele>
        <time>2015-11-29T10:30:22Z</time>
      </trkpt>
      <trkpt lat="43.5135" lon="3.0546">
        <ele>485</ele>
        <time>2015-11-29T10:30:23Z</time>
      </trkpt>
      <trkpt lat="43.51348" lon="3.0546">
        <ele>484.5</ele>
        <time>2015-11-29T10:30:24Z</time>
      </trkpt>
      <trkpt lat="43.51346" lon="3.05461">
        <ele>484.5</ele>
        <time>2015-11-29T10:30:25Z</time>
      </trkpt>
      <trkpt lat="43.51344" lon="3.05462">
        <ele>484.5</ele>
        <time>2015-11-29T10:30:26Z</time>
      </trkpt>
      <trkpt lat="43.51342" lon="3.05462">
        <ele>484</ele>
        <time>2015-11-29T10:30:27Z</time>
      </trkpt>
      <trkpt lat="43.5134" lon="3.05463">
        <ele>483.5</ele>
        <time>2015-11-29T10:30:28Z</time>
      </trkpt>
      <trkpt lat="43.51338" lon="3.05463">
        <ele>483.5</ele>
        <time>2015-11-29T10:30:29Z</time>
      </trkpt>
      <trkpt lat="43.51336" lon="3.05463">
        <ele>483.5</ele>
        <time>2015-11-29T10:30:30Z</time>
      </trkpt>
      <trkpt lat="43.51334" lon="3.05463">
        <ele>483.5</ele>
        <time>2015-11-29T10:30:31Z</time>
      </trkpt>
      <trkpt lat="43.51331" lon="3.05463">
        <ele>484</ele>
        <time>2015-11-29T10:30:32Z</time>
      </trkpt>
      <trkpt lat="43.51329" lon="3.05463">
        <ele>484.5</ele>
        <time>2015-11-29T10:30:33Z</time>
      </trkpt>
      <trkpt lat="43.51327" lon="3.05463">
        <ele>484.5</ele>
        <time>2015-11-29T10:30:34Z</time>
      </trkpt>
      <trkpt lat="43.51326" lon="3.05461">
        <ele>484</ele>
        <time>2015-11-29T10:30:35Z</time>
      </trkpt>
      <trkpt lat="43.51324" lon="3.05459">
        <ele>484.5</ele>
        <time>2015-11-29T10:30:36Z</time>
      </trkpt>
      <trkpt lat="43.51323" lon="3.05458">
        <ele>484.5</ele>
        <time>2015-11-29T10:30:37Z</time>
      </trkpt>
      <trkpt lat="43.51322" lon="3.05456">
        <ele>484.5</ele>
        <time>2015-11-29T10:30:38Z</time>
      </trkpt>
      <trkpt lat="43.5132" lon="3.05458">
        <ele>486.5</ele>
        <time>2015-11-29T10:30:39Z</time>
      </trkpt>
      <trkpt lat="43.51319" lon="3.05456">
        <ele>486.5</ele>
        <time>2015-11-29T10:30:40Z</time>
      </trkpt>
      <trkpt lat="43.51318" lon="3.05455">
        <ele>487</ele>
        <time>2015-11-29T10:30:41Z</time>
      </trkpt>
      <trkpt lat="43.51317" lon="3.05454">
        <ele>487.5</ele>
        <time>2015-11-29T10:30:42Z</time>
      </trkpt>
      <trkpt lat="43.51316" lon="3.05451">
        <ele>488.5</ele>
        <time>2015-11-29T10:30:43Z</time>
      </trkpt>
      <trkpt lat="43.51316" lon="3.05449">
        <ele>488.5</ele>
        <time>2015-11-29T10:30:44Z</time>
      </trkpt>
      <trkpt lat="43.51316" lon="3.05447">
        <ele>488.5</ele>
        <time>2015-11-29T10:30:45Z</time>
      </trkpt>
      <trkpt lat="43.51315" lon="3.05446">
        <ele>489</ele>
        <time>2015-11-29T10:30:46Z</time>
      </trkpt>
      <trkpt lat="43.51315" lon="3.05445">
        <ele>490</ele>
        <time>2015-11-29T10:30:47Z</time>
      </trkpt>
      <trkpt lat="43.51314" lon="3.05443">
        <ele>491</ele>
        <time>2015-11-29T10:30:48Z</time>
      </trkpt>
      <trkpt lat="43.51314" lon="3.05441">
        <ele>491</ele>
        <time>2015-11-29T10:30:49Z</time>
      </trkpt>
      <trkpt lat="43.51314" lon="3.05439">
        <ele>491</ele>
        <time>2015-11-29T10:30:50Z</time>
      </trkpt>
      <trkpt lat="43.51313" lon="3.05437">
        <ele>491</ele>
        <time>2015-11-29T10:30:51Z</time>
      </trkpt>
      <trkpt lat="43.51313" lon="3.05434">
        <ele>491.5</ele>
        <time>2015-11-29T10:30:52Z</time>
      </trkpt>
      <trkpt lat="43.51312" lon="3.05433">
        <ele>491.5</ele>
        <time>2015-11-29T10:30:53Z</time>
      </trkpt>
      <trkpt lat="43.51312" lon="3.05431">
        <ele>491.5</ele>
        <time>2015-11-29T10:30:54Z</time>
      </trkpt>
      <trkpt lat="43.51312" lon="3.05429">
        <ele>492</ele>
        <time>2015-11-29T10:30:55Z</time>
      </trkpt>
      <trkpt lat="43.51311" lon="3.05426">
        <ele>492</ele>
        <time>2015-11-29T10:30:56Z</time>
      </trkpt>
      <trkpt lat="43.51311" lon="3.05424">
        <ele>493</ele>
        <time>2015-11-29T10:30:57Z</time>
      </trkpt>
      <trkpt lat="43.51311" lon="3.05422">
        <ele>493</ele>
        <time>2015-11-29T10:30:58Z</time>
      </trkpt>
      <trkpt lat="43.51311" lon="3.0542">
        <ele>493.5</ele>
        <time>2015-11-29T10:30:59Z</time>
      </trkpt>
      <trkpt lat="43.5131" lon="3.05419">
        <ele>494</ele>
        <time>2015-11-29T10:31:00Z</time>
      </trkpt>
      <trkpt lat="43.5131" lon="3.05416">
        <ele>494</ele>
        <time>2015-11-29T10:31:01Z</time>
      </trkpt>
      <trkpt lat="43.5131" lon="3.05412">
        <ele>494.5</ele>
        <time>2015-11-29T10:31:03Z</time>
      </trkpt>
      <trkpt lat="43.51309" lon="3.0541">
        <ele>496.5</ele>
        <time>2015-11-29T10:31:04Z</time>
      </trkpt>
      <trkpt lat="43.51308" lon="3.05408">
        <ele>497.5</ele>
        <time>2015-11-29T10:31:05Z</time>
      </trkpt>
      <trkpt lat="43.51308" lon="3.05405">
        <ele>498</ele>
        <time>2015-11-29T10:31:06Z</time>
      </trkpt>
      <trkpt lat="43.51308" lon="3.05403">
        <ele>498.5</ele>
        <time>2015-11-29T10:31:07Z</time>
      </trkpt>
      <trkpt lat="43.51308" lon="3.05401">
        <ele>498.5</ele>
        <time>2015-11-29T10:31:08Z</time>
      </trkpt>
      <trkpt lat="43.51307" lon="3.05398">
        <ele>498.5</ele>
        <time>2015-11-29T10:31:09Z</time>
      </trkpt>
      <trkpt lat="43.51306" lon="3.05395">
        <ele>499.5</ele>
        <time>2015-11-29T10:31:10Z</time>
      </trkpt>
      <trkpt lat="43.51306" lon="3.05393">
        <ele>499.5</ele>
        <time>2015-11-29T10:31:11Z</time>
      </trkpt>
      <trkpt lat="43.51306" lon="3.05391">
        <ele>499.5</ele>
        <time>2015-11-29T10:31:12Z</time>
      </trkpt>
      <trkpt lat="43.51305" lon="3.0539">
        <ele>500</ele>
        <time>2015-11-29T10:31:13Z</time>
      </trkpt>
      <trkpt lat="43.51304" lon="3.05388">
        <ele>500.5</ele>
        <time>2015-11-29T10:31:14Z</time>
      </trkpt>
      <trkpt lat="43.51304" lon="3.05386">
        <ele>500.5</ele>
        <time>2015-11-29T10:31:15Z</time>
      </trkpt>
      <trkpt lat="43.51303" lon="3.05384">
        <ele>501.5</ele>
        <time>2015-11-29T10:31:16Z</time>
      </trkpt>
      <trkpt lat="43.51302" lon="3.05382">
        <ele>501.5</ele>
        <time>2015-11-29T10:31:17Z</time>
      </trkpt>
      <trkpt lat="43.51302" lon="3.0538">
        <ele>500.5</ele>
        <time>2015-11-29T10:31:18Z</time>
      </trkpt>
      <trkpt lat="43.51301" lon="3.05378">
        <ele>501</ele>
        <time>2015-11-29T10:31:19Z</time>
      </trkpt>
      <trkpt lat="43.513" lon="3.05377">
        <ele>502</ele>
        <time>2015-11-29T10:31:20Z</time>
      </trkpt>
      <trkpt lat="43.513" lon="3.05376">
        <ele>502.5</ele>
        <time>2015-11-29T10:31:21Z</time>
      </trkpt>
      <trkpt lat="43.51299" lon="3.05376">
        <ele>503</ele>
        <time>2015-11-29T10:31:22Z</time>
      </trkpt>
      <trkpt lat="43.51298" lon="3.05374">
        <ele>502</ele>
        <time>2015-11-29T10:31:23Z</time>
      </trkpt>
      <trkpt lat="43.51297" lon="3.05372">
        <ele>502.5</ele>
        <time>2015-11-29T10:31:24Z</time>
      </trkpt>
      <trkpt lat="43.51295" lon="3.05371">
        <ele>502.5</ele>
        <time>2015-11-29T10:31:25Z</time>
      </trkpt>
      <trkpt lat="43.51294" lon="3.0537">
        <ele>502.5</ele>
        <time>2015-11-29T10:31:26Z</time>
      </trkpt>
      <trkpt lat="43.51293" lon="3.05369">
        <ele>503</ele>
        <time>2015-11-29T10:31:27Z</time>
      </trkpt>
      <trkpt lat="43.51292" lon="3.05367">
        <ele>502.5</ele>
        <time>2015-11-29T10:31:28Z</time>
      </trkpt>
      <trkpt lat="43.51291" lon="3.05366">
        <ele>502</ele>
        <time>2015-11-29T10:31:29Z</time>
      </trkpt>
      <trkpt lat="43.5129" lon="3.05365">
        <ele>502</ele>
        <time>2015-11-29T10:31:30Z</time>
      </trkpt>
      <trkpt lat="43.51289" lon="3.05364">
        <ele>502</ele>
        <time>2015-11-29T10:31:31Z</time>
      </trkpt>
      <trkpt lat="43.51288" lon="3.05363">
        <ele>502.5</ele>
        <time>2015-11-29T10:31:32Z</time>
      </trkpt>
      <trkpt lat="43.51286" lon="3.05361">
        <ele>502</ele>
        <time>2015-11-29T10:31:33Z</time>
      </trkpt>
      <trkpt lat="43.51285" lon="3.05361">
        <ele>502.5</ele>
        <time>2015-11-29T10:31:34Z</time>
      </trkpt>
      <trkpt lat="43.51283" lon="3.0536">
        <ele>503</ele>
        <time>2015-11-29T10:31:35Z</time>
      </trkpt>
      <trkpt lat="43.51282" lon="3.0536">
        <ele>503.5</ele>
        <time>2015-11-29T10:31:36Z</time>
      </trkpt>
      <trkpt lat="43.51281" lon="3.0536">
        <ele>503.5</ele>
        <time>2015-11-29T10:31:37Z</time>
      </trkpt>
      <trkpt lat="43.51279" lon="3.0536">
        <ele>503</ele>
        <time>2015-11-29T10:31:38Z</time>
      </trkpt>
      <trkpt lat="43.51278" lon="3.0536">
        <ele>503.5</ele>
        <time>2015-11-29T10:31:39Z</time>
      </trkpt>
      <trkpt lat="43.51277" lon="3.0536">
        <ele>503.5</ele>
        <time>2015-11-29T10:31:40Z</time>
      </trkpt>
      <trkpt lat="43.51275" lon="3.05361">
        <ele>504</ele>
        <time>2015-11-29T10:31:41Z</time>
      </trkpt>
      <trkpt lat="43.51274" lon="3.05361">
        <ele>504</ele>
        <time>2015-11-29T10:31:42Z</time>
      </trkpt>
      <trkpt lat="43.51272" lon="3.05362">
        <ele>503.5</ele>
        <time>2015-11-29T10:31:43Z</time>
      </trkpt>
      <trkpt lat="43.51271" lon="3.05362">
        <ele>503.5</ele>
        <time>2015-11-29T10:31:44Z</time>
      </trkpt>
      <trkpt lat="43.51269" lon="3.05362">
        <ele>503.5</ele>
        <time>2015-11-29T10:31:45Z</time>
      </trkpt>
      <trkpt lat="43.51268" lon="3.05363">
        <ele>504</ele>
        <time>2015-11-29T10:31:45Z</time>
      </trkpt>
      <trkpt lat="43.51267" lon="3.05363">
        <ele>503.5</ele>
        <time>2015-11-29T10:31:47Z</time>
      </trkpt>
      <trkpt lat="43.51266" lon="3.05364">
        <ele>504</ele>
        <time>2015-11-29T10:31:48Z</time>
      </trkpt>
      <trkpt lat="43.51264" lon="3.05364">
        <ele>504.5</ele>
        <time>2015-11-29T10:31:49Z</time>
      </trkpt>
      <trkpt lat="43.51263" lon="3.05365">
        <ele>505</ele>
        <time>2015-11-29T10:31:50Z</time>
      </trkpt>
      <trkpt lat="43.51262" lon="3.05365">
        <ele>505</ele>
        <time>2015-11-29T10:31:50Z</time>
      </trkpt>
      <trkpt lat="43.5126" lon="3.05366">
        <ele>505.5</ele>
        <time>2015-11-29T10:31:51Z</time>
      </trkpt>
      <trkpt lat="43.51259" lon="3.05367">
        <ele>506</ele>
        <time>2015-11-29T10:31:52Z</time>
      </trkpt>
      <trkpt lat="43.51257" lon="3.05367">
        <ele>505.5</ele>
        <time>2015-11-29T10:31:53Z</time>
      </trkpt>
      <trkpt lat="43.51256" lon="3.05367">
        <ele>505.5</ele>
        <time>2015-11-29T10:31:54Z</time>
      </trkpt>
      <trkpt lat="43.51254" lon="3.05367">
        <ele>505.5</ele>
        <time>2015-11-29T10:31:55Z</time>
      </trkpt>
      <trkpt lat="43.51253" lon="3.05368">
        <ele>506</ele>
        <time>2015-11-29T10:31:56Z</time>
      </trkpt>
      <trkpt lat="43.51251" lon="3.05368">
        <ele>505.5</ele>
        <time>2015-11-29T10:31:57Z</time>
      </trkpt>
      <trkpt lat="43.5125" lon="3.05368">
        <ele>505.5</ele>
        <time>2015-11-29T10:31:58Z</time>
      </trkpt>
      <trkpt lat="43.51248" lon="3.05369">
        <ele>505.5</ele>
        <time>2015-11-29T10:31:59Z</time>
      </trkpt>
      <trkpt lat="43.51247" lon="3.05369">
        <ele>505</ele>
        <time>2015-11-29T10:32:00Z</time>
      </trkpt>
      <trkpt lat="43.51245" lon="3.05368">
        <ele>504.5</ele>
        <time>2015-11-29T10:32:01Z</time>
      </trkpt>
      <trkpt lat="43.51243" lon="3.05369">
        <ele>504.5</ele>
        <time>2015-11-29T10:32:02Z</time>
      </trkpt>
      <trkpt lat="43.51242" lon="3.0537">
        <ele>505</ele>
        <time>2015-11-29T10:32:03Z</time>
      </trkpt>
      <trkpt lat="43.5124" lon="3.0537">
        <ele>504.5</ele>
        <time>2015-11-29T10:32:04Z</time>
      </trkpt>
      <trkpt lat="43.51238" lon="3.0537">
        <ele>504</ele>
        <time>2015-11-29T10:32:05Z</time>
      </trkpt>
      <trkpt lat="43.51237" lon="3.0537">
        <ele>504</ele>
        <time>2015-11-29T10:32:06Z</time>
      </trkpt>
      <trkpt lat="43.51235" lon="3.0537">
        <ele>504</ele>
        <time>2015-11-29T10:32:07Z</time>
      </trkpt>
      <trkpt lat="43.51233" lon="3.0537">
        <ele>503.5</ele>
        <time>2015-11-29T10:32:08Z</time>
      </trkpt>
      <trkpt lat="43.51231" lon="3.0537">
        <ele>503.5</ele>
        <time>2015-11-29T10:32:09Z</time>
      </trkpt>
      <trkpt lat="43.51229" lon="3.0537">
        <ele>503.5</ele>
        <time>2015-11-29T10:32:10Z</time>
      </trkpt>
      <trkpt lat="43.51227" lon="3.0537">
        <ele>503</ele>
        <time>2015-11-29T10:32:11Z</time>
      </trkpt>
      <trkpt lat="43.51226" lon="3.05369">
        <ele>502</ele>
        <time>2015-11-29T10:32:12Z</time>
      </trkpt>
      <trkpt lat="43.51224" lon="3.05369">
        <ele>502.5</ele>
        <time>2015-11-29T10:32:13Z</time>
      </trkpt>
      <trkpt lat="43.51222" lon="3.0537">
        <ele>502.5</ele>
        <time>2015-11-29T10:32:14Z</time>
      </trkpt>
      <trkpt lat="43.51221" lon="3.0537">
        <ele>502.5</ele>
        <time>2015-11-29T10:32:15Z</time>
      </trkpt>
      <trkpt lat="43.51219" lon="3.0537">
        <ele>503</ele>
        <time>2015-11-29T10:32:16Z</time>
      </trkpt>
      <trkpt lat="43.51218" lon="3.0537">
        <ele>503</ele>
        <time>2015-11-29T10:32:17Z</time>
      </trkpt>
      <trkpt lat="43.51216" lon="3.05371">
        <ele>503.5</ele>
        <time>2015-11-29T10:32:18Z</time>
      </trkpt>
      <trkpt lat="43.51214" lon="3.05373">
        <ele>504</ele>
        <time>2015-11-29T10:32:19Z</time>
      </trkpt>
      <trkpt lat="43.51213" lon="3.05374">
        <ele>504</ele>
        <time>2015-11-29T10:32:20Z</time>
      </trkpt>
      <trkpt lat="43.51211" lon="3.05376">
        <ele>504</ele>
        <time>2015-11-29T10:32:21Z</time>
      </trkpt>
      <trkpt lat="43.5121" lon="3.05378">
        <ele>504.5</ele>
        <time>2015-11-29T10:32:22Z</time>
      </trkpt>
      <trkpt lat="43.51208" lon="3.0538">
        <ele>505</ele>
        <time>2015-11-29T10:32:23Z</time>
      </trkpt>
      <trkpt lat="43.51207" lon="3.05381">
        <ele>505</ele>
        <time>2015-11-29T10:32:24Z</time>
      </trkpt>
      <trkpt lat="43.51205" lon="3.05383">
        <ele>505.5</ele>
        <time>2015-11-29T10:32:25Z</time>
      </trkpt>
      <trkpt lat="43.51204" lon="3.05385">
        <ele>506</ele>
        <time>2015-11-29T10:32:26Z</time>
      </trkpt>
      <trkpt lat="43.51203" lon="3.05387">
        <ele>506</ele>
        <time>2015-11-29T10:32:27Z</time>
      </trkpt>
      <trkpt lat="43.51202" lon="3.05388">
        <ele>506</ele>
        <time>2015-11-29T10:32:28Z</time>
      </trkpt>
      <trkpt lat="43.512" lon="3.0539">
        <ele>506</ele>
        <time>2015-11-29T10:32:29Z</time>
      </trkpt>
      <trkpt lat="43.51199" lon="3.05392">
        <ele>506.5</ele>
        <time>2015-11-29T10:32:30Z</time>
      </trkpt>
      <trkpt lat="43.51197" lon="3.05393">
        <ele>507</ele>
        <time>2015-11-29T10:32:31Z</time>
      </trkpt>
      <trkpt lat="43.51196" lon="3.05394">
        <ele>507.5</ele>
        <time>2015-11-29T10:32:32Z</time>
      </trkpt>
      <trkpt lat="43.51195" lon="3.05396">
        <ele>507.5</ele>
        <time>2015-11-29T10:32:33Z</time>
      </trkpt>
      <trkpt lat="43.51193" lon="3.05397">
        <ele>507.5</ele>
        <time>2015-11-29T10:32:34Z</time>
      </trkpt>
      <trkpt lat="43.51192" lon="3.05399">
        <ele>507.5</ele>
        <time>2015-11-29T10:32:35Z</time>
      </trkpt>
      <trkpt lat="43.5119" lon="3.05401">
        <ele>508</ele>
        <time>2015-11-29T10:32:36Z</time>
      </trkpt>
      <trkpt lat="43.51189" lon="3.05402">
        <ele>508</ele>
        <time>2015-11-29T10:32:37Z</time>
      </trkpt>
      <trkpt lat="43.51188" lon="3.05403">
        <ele>508</ele>
        <time>2015-11-29T10:32:38Z</time>
      </trkpt>
      <trkpt lat="43.51186" lon="3.05405">
        <ele>508</ele>
        <time>2015-11-29T10:32:39Z</time>
      </trkpt>
      <trkpt lat="43.51185" lon="3.05406">
        <ele>508</ele>
        <time>2015-11-29T10:32:40Z</time>
      </trkpt>
      <trkpt lat="43.51183" lon="3.05407">
        <ele>508.5</ele>
        <time>2015-11-29T10:32:41Z</time>
      </trkpt>
      <trkpt lat="43.51182" lon="3.05409">
        <ele>509</ele>
        <time>2015-11-29T10:32:42Z</time>
      </trkpt>
      <trkpt lat="43.5118" lon="3.0541">
        <ele>509</ele>
        <time>2015-11-29T10:32:43Z</time>
      </trkpt>
      <trkpt lat="43.51179" lon="3.05412">
        <ele>509.5</ele>
        <time>2015-11-29T10:32:44Z</time>
      </trkpt>
      <trkpt lat="43.51177" lon="3.05413">
        <ele>509.5</ele>
        <time>2015-11-29T10:32:45Z</time>
      </trkpt>
      <trkpt lat="43.51175" lon="3.05414">
        <ele>510</ele>
        <time>2015-11-29T10:32:46Z</time>
      </trkpt>
      <trkpt lat="43.51174" lon="3.05415">
        <ele>510</ele>
        <time>2015-11-29T10:32:47Z</time>
      </trkpt>
      <trkpt lat="43.51172" lon="3.05417">
        <ele>510</ele>
        <time>2015-11-29T10:32:48Z</time>
      </trkpt>
      <trkpt lat="43.51171" lon="3.05418">
        <ele>510</ele>
        <time>2015-11-29T10:32:49Z</time>
      </trkpt>
      <trkpt lat="43.51169" lon="3.05419">
        <ele>510.5</ele>
        <time>2015-11-29T10:32:50Z</time>
      </trkpt>
      <trkpt lat="43.51168" lon="3.0542">
        <ele>510.5</ele>
        <time>2015-11-29T10:32:51Z</time>
      </trkpt>
      <trkpt lat="43.51166" lon="3.05421">
        <ele>510.5</ele>
        <time>2015-11-29T10:32:52Z</time>
      </trkpt>
      <trkpt lat="43.51164" lon="3.05422">
        <ele>510</ele>
        <time>2015-11-29T10:32:53Z</time>
      </trkpt>
      <trkpt lat="43.51163" lon="3.05424">
        <ele>510</ele>
        <time>2015-11-29T10:32:54Z</time>
      </trkpt>
      <trkpt lat="43.51161" lon="3.05425">
        <ele>510</ele>
        <time>2015-11-29T10:32:55Z</time>
      </trkpt>
      <trkpt lat="43.5116" lon="3.05426">
        <ele>510</ele>
        <time>2015-11-29T10:32:56Z</time>
      </trkpt>
      <trkpt lat="43.51158" lon="3.05427">
        <ele>510</ele>
        <time>2015-11-29T10:32:57Z</time>
      </trkpt>
      <trkpt lat="43.51156" lon="3.05428">
        <ele>510</ele>
        <time>2015-11-29T10:32:58Z</time>
      </trkpt>
      <trkpt lat="43.51154" lon="3.0543">
        <ele>510</ele>
        <time>2015-11-29T10:32:59Z</time>
      </trkpt>
      <trkpt lat="43.51153" lon="3.05431">
        <ele>510</ele>
        <time>2015-11-29T10:33:00Z</time>
      </trkpt>
      <trkpt lat="43.51151" lon="3.05432">
        <ele>510</ele>
        <time>2015-11-29T10:33:01Z</time>
      </trkpt>
      <trkpt lat="43.51149" lon="3.05433">
        <ele>509.5</ele>
        <time>2015-11-29T10:33:02Z</time>
      </trkpt>
      <trkpt lat="43.51148" lon="3.05434">
        <ele>509.5</ele>
        <time>2015-11-29T10:33:03Z</time>
      </trkpt>
      <trkpt lat="43.51146" lon="3.05435">
        <ele>510</ele>
        <time>2015-11-29T10:33:04Z</time>
      </trkpt>
      <trkpt lat="43.51144" lon="3.05436">
        <ele>510.5</ele>
        <time>2015-11-29T10:33:05Z</time>
      </trkpt>
      <trkpt lat="43.51143" lon="3.05437">
        <ele>510.5</ele>
        <time>2015-11-29T10:33:06Z</time>
      </trkpt>
      <trkpt lat="43.51141" lon="3.05438">
        <ele>511</ele>
        <time>2015-11-29T10:33:07Z</time>
      </trkpt>
      <trkpt lat="43.5114" lon="3.05439">
        <ele>511</ele>
        <time>2015-11-29T10:33:08Z</time>
      </trkpt>
      <trkpt lat="43.51138" lon="3.0544">
        <ele>511.5</ele>
        <time>2015-11-29T10:33:09Z</time>
      </trkpt>
      <trkpt lat="43.51137" lon="3.05441">
        <ele>511.5</ele>
        <time>2015-11-29T10:33:10Z</time>
      </trkpt>
      <trkpt lat="43.51135" lon="3.05442">
        <ele>511.5</ele>
        <time>2015-11-29T10:33:11Z</time>
      </trkpt>
      <trkpt lat="43.51133" lon="3.05443">
        <ele>512</ele>
        <time>2015-11-29T10:33:12Z</time>
      </trkpt>
      <trkpt lat="43.51132" lon="3.05444">
        <ele>512</ele>
        <time>2015-11-29T10:33:13Z</time>
      </trkpt>
      <trkpt lat="43.5113" lon="3.05445">
        <ele>512.5</ele>
        <time>2015-11-29T10:33:14Z</time>
      </trkpt>
      <trkpt lat="43.51128" lon="3.05446">
        <ele>513</ele>
        <time>2015-11-29T10:33:15Z</time>
      </trkpt>
      <trkpt lat="43.51127" lon="3.05447">
        <ele>513.5</ele>
        <time>2015-11-29T10:33:16Z</time>
      </trkpt>
      <trkpt lat="43.51125" lon="3.05448">
        <ele>513.5</ele>
        <time>2015-11-29T10:33:17Z</time>
      </trkpt>
      <trkpt lat="43.51123" lon="3.05449">
        <ele>514.5</ele>
        <time>2015-11-29T10:33:18Z</time>
      </trkpt>
      <trkpt lat="43.51122" lon="3.0545">
        <ele>514.5</ele>
        <time>2015-11-29T10:33:19Z</time>
      </trkpt>
      <trkpt lat="43.5112" lon="3.0545">
        <ele>514.5</ele>
        <time>2015-11-29T10:33:20Z</time>
      </trkpt>
      <trkpt lat="43.51118" lon="3.05451">
        <ele>515</ele>
        <time>2015-11-29T10:33:21Z</time>
      </trkpt>
      <trkpt lat="43.51117" lon="3.05451">
        <ele>515</ele>
        <time>2015-11-29T10:33:22Z</time>
      </trkpt>
      <trkpt lat="43.51115" lon="3.05452">
        <ele>515.5</ele>
        <time>2015-11-29T10:33:23Z</time>
      </trkpt>
      <trkpt lat="43.51114" lon="3.05452">
        <ele>515</ele>
        <time>2015-11-29T10:33:24Z</time>
      </trkpt>
      <trkpt lat="43.51112" lon="3.05453">
        <ele>515.5</ele>
        <time>2015-11-29T10:33:25Z</time>
      </trkpt>
      <trkpt lat="43.5111" lon="3.05454">
        <ele>516</ele>
        <time>2015-11-29T10:33:26Z</time>
      </trkpt>
      <trkpt lat="43.51109" lon="3.05454">
        <ele>516</ele>
        <time>2015-11-29T10:33:27Z</time>
      </trkpt>
      <trkpt lat="43.51107" lon="3.05455">
        <ele>516</ele>
        <time>2015-11-29T10:33:28Z</time>
      </trkpt>
      <trkpt lat="43.51105" lon="3.05455">
        <ele>516</ele>
        <time>2015-11-29T10:33:29Z</time>
      </trkpt>
      <trkpt lat="43.51104" lon="3.05455">
        <ele>516</ele>
        <time>2015-11-29T10:33:30Z</time>
      </trkpt>
      <trkpt lat="43.51102" lon="3.05455">
        <ele>515.5</ele>
        <time>2015-11-29T10:33:31Z</time>
      </trkpt>
      <trkpt lat="43.511" lon="3.05455">
        <ele>515.5</ele>
        <time>2015-11-29T10:33:32Z</time>
      </trkpt>
      <trkpt lat="43.51098" lon="3.05455">
        <ele>515</ele>
        <time>2015-11-29T10:33:33Z</time>
      </trkpt>
      <trkpt lat="43.51097" lon="3.05455">
        <ele>515</ele>
        <time>2015-11-29T10:33:34Z</time>
      </trkpt>
      <trkpt lat="43.51095" lon="3.05455">
        <ele>515</ele>
        <time>2015-11-29T10:33:35Z</time>
      </trkpt>
      <trkpt lat="43.51093" lon="3.05455">
        <ele>515</ele>
        <time>2015-11-29T10:33:36Z</time>
      </trkpt>
      <trkpt lat="43.51092" lon="3.05455">
        <ele>515.5</ele>
        <time>2015-11-29T10:33:37Z</time>
      </trkpt>
      <trkpt lat="43.5109" lon="3.05454">
        <ele>515.5</ele>
        <time>2015-11-29T10:33:38Z</time>
      </trkpt>
      <trkpt lat="43.51088" lon="3.05453">
        <ele>516</ele>
        <time>2015-11-29T10:33:39Z</time>
      </trkpt>
      <trkpt lat="43.51087" lon="3.05454">
        <ele>517</ele>
        <time>2015-11-29T10:33:40Z</time>
      </trkpt>
      <trkpt lat="43.51085" lon="3.05453">
        <ele>517</ele>
        <time>2015-11-29T10:33:41Z</time>
      </trkpt>
      <trkpt lat="43.51084" lon="3.05452">
        <ele>517</ele>
        <time>2015-11-29T10:33:42Z</time>
      </trkpt>
      <trkpt lat="43.51082" lon="3.05451">
        <ele>517</ele>
        <time>2015-11-29T10:33:43Z</time>
      </trkpt>
      <trkpt lat="43.51081" lon="3.05449">
        <ele>517.5</ele>
        <time>2015-11-29T10:33:44Z</time>
      </trkpt>
      <trkpt lat="43.5108" lon="3.05448">
        <ele>517.5</ele>
        <time>2015-11-29T10:33:45Z</time>
      </trkpt>
      <trkpt lat="43.51078" lon="3.05446">
        <ele>517.5</ele>
        <time>2015-11-29T10:33:46Z</time>
      </trkpt>
      <trkpt lat="43.51077" lon="3.05444">
        <ele>517.5</ele>
        <time>2015-11-29T10:33:47Z</time>
      </trkpt>
      <trkpt lat="43.51076" lon="3.05443">
        <ele>517.5</ele>
        <time>2015-11-29T10:33:48Z</time>
      </trkpt>
      <trkpt lat="43.51075" lon="3.05441">
        <ele>518</ele>
        <time>2015-11-29T10:33:49Z</time>
      </trkpt>
      <trkpt lat="43.51074" lon="3.0544">
        <ele>518</ele>
        <time>2015-11-29T10:33:50Z</time>
      </trkpt>
      <trkpt lat="43.51073" lon="3.05438">
        <ele>518</ele>
        <time>2015-11-29T10:33:51Z</time>
      </trkpt>
      <trkpt lat="43.51072" lon="3.05436">
        <ele>518.5</ele>
        <time>2015-11-29T10:33:52Z</time>
      </trkpt>
      <trkpt lat="43.51072" lon="3.05434">
        <ele>518.5</ele>
        <time>2015-11-29T10:33:53Z</time>
      </trkpt>
      <trkpt lat="43.51071" lon="3.05432">
        <ele>518.5</ele>
        <time>2015-11-29T10:33:54Z</time>
      </trkpt>
      <trkpt lat="43.5107" lon="3.05431">
        <ele>519</ele>
        <time>2015-11-29T10:33:55Z</time>
      </trkpt>
      <trkpt lat="43.51069" lon="3.05429">
        <ele>519</ele>
        <time>2015-11-29T10:33:56Z</time>
      </trkpt>
      <trkpt lat="43.51068" lon="3.05427">
        <ele>519.5</ele>
        <time>2015-11-29T10:33:57Z</time>
      </trkpt>
      <trkpt lat="43.51067" lon="3.05426">
        <ele>520</ele>
        <time>2015-11-29T10:33:58Z</time>
      </trkpt>
      <trkpt lat="43.51067" lon="3.05425">
        <ele>520.5</ele>
        <time>2015-11-29T10:33:59Z</time>
      </trkpt>
      <trkpt lat="43.51066" lon="3.05423">
        <ele>521.5</ele>
        <time>2015-11-29T10:34:00Z</time>
      </trkpt>
      <trkpt lat="43.51065" lon="3.05422">
        <ele>522</ele>
        <time>2015-11-29T10:34:01Z</time>
      </trkpt>
      <trkpt lat="43.51065" lon="3.05421">
        <ele>523</ele>
        <time>2015-11-29T10:34:02Z</time>
      </trkpt>
      <trkpt lat="43.51064" lon="3.05419">
        <ele>523.5</ele>
        <time>2015-11-29T10:34:03Z</time>
      </trkpt>
      <trkpt lat="43.51064" lon="3.05417">
        <ele>523.5</ele>
        <time>2015-11-29T10:34:04Z</time>
      </trkpt>
      <trkpt lat="43.51063" lon="3.05415">
        <ele>524.5</ele>
        <time>2015-11-29T10:34:05Z</time>
      </trkpt>
      <trkpt lat="43.51062" lon="3.05414">
        <ele>525</ele>
        <time>2015-11-29T10:34:06Z</time>
      </trkpt>
      <trkpt lat="43.51062" lon="3.05412">
        <ele>525.5</ele>
        <time>2015-11-29T10:34:07Z</time>
      </trkpt>
      <trkpt lat="43.51061" lon="3.0541">
        <ele>525</ele>
        <time>2015-11-29T10:34:08Z</time>
      </trkpt>
      <trkpt lat="43.5106" lon="3.05409">
        <ele>526</ele>
        <time>2015-11-29T10:34:09Z</time>
      </trkpt>
      <trkpt lat="43.51059" lon="3.05408">
        <ele>527</ele>
        <time>2015-11-29T10:34:10Z</time>
      </trkpt>
      <trkpt lat="43.51059" lon="3.05406">
        <ele>527.5</ele>
        <time>2015-11-29T10:34:11Z</time>
      </trkpt>
      <trkpt lat="43.51058" lon="3.05404">
        <ele>528</ele>
        <time>2015-11-29T10:34:12Z</time>
      </trkpt>
      <trkpt lat="43.51057" lon="3.05402">
        <ele>528.5</ele>
        <time>2015-11-29T10:34:13Z</time>
      </trkpt>
      <trkpt lat="43.51056" lon="3.054">
        <ele>528.5</ele>
        <time>2015-11-29T10:34:14Z</time>
      </trkpt>
      <trkpt lat="43.51055" lon="3.05397">
        <ele>528.5</ele>
        <time>2015-11-29T10:34:15Z</time>
      </trkpt>
      <trkpt lat="43.51054" lon="3.05396">
        <ele>528.5</ele>
        <time>2015-11-29T10:34:16Z</time>
      </trkpt>
      <trkpt lat="43.51054" lon="3.05393">
        <ele>528.5</ele>
        <time>2015-11-29T10:34:17Z</time>
      </trkpt>
      <trkpt lat="43.51053" lon="3.05391">
        <ele>528</ele>
        <time>2015-11-29T10:34:18Z</time>
      </trkpt>
      <trkpt lat="43.51052" lon="3.05388">
        <ele>527.5</ele>
        <time>2015-11-29T10:34:19Z</time>
      </trkpt>
      <trkpt lat="43.51051" lon="3.05386">
        <ele>527.5</ele>
        <time>2015-11-29T10:34:20Z</time>
      </trkpt>
      <trkpt lat="43.5105" lon="3.05385">
        <ele>528.5</ele>
        <time>2015-11-29T10:34:21Z</time>
      </trkpt>
      <trkpt lat="43.51048" lon="3.05384">
        <ele>529.5</ele>
        <time>2015-11-29T10:34:22Z</time>
      </trkpt>
      <trkpt lat="43.51047" lon="3.05382">
        <ele>529</ele>
        <time>2015-11-29T10:34:23Z</time>
      </trkpt>
      <trkpt lat="43.51046" lon="3.05381">
        <ele>529.5</ele>
        <time>2015-11-29T10:34:24Z</time>
      </trkpt>
      <trkpt lat="43.51044" lon="3.05379">
        <ele>529</ele>
        <time>2015-11-29T10:34:25Z</time>
      </trkpt>
      <trkpt lat="43.51043" lon="3.05378">
        <ele>529.5</ele>
        <time>2015-11-29T10:34:26Z</time>
      </trkpt>
      <trkpt lat="43.51041" lon="3.05377">
        <ele>529</ele>
        <time>2015-11-29T10:34:27Z</time>
      </trkpt>
      <trkpt lat="43.51039" lon="3.05376">
        <ele>529</ele>
        <time>2015-11-29T10:34:28Z</time>
      </trkpt>
      <trkpt lat="43.51038" lon="3.05375">
        <ele>529</ele>
        <time>2015-11-29T10:34:29Z</time>
      </trkpt>
      <trkpt lat="43.51037" lon="3.05374">
        <ele>529</ele>
        <time>2015-11-29T10:34:30Z</time>
      </trkpt>
      <trkpt lat="43.51035" lon="3.05374">
        <ele>529.5</ele>
        <time>2015-11-29T10:34:31Z</time>
      </trkpt>
      <trkpt lat="43.51034" lon="3.05374">
        <ele>529.5</ele>
        <time>2015-11-29T10:34:32Z</time>
      </trkpt>
      <trkpt lat="43.51032" lon="3.05374">
        <ele>530</ele>
        <time>2015-11-29T10:34:33Z</time>
      </trkpt>
      <trkpt lat="43.51031" lon="3.05374">
        <ele>530.5</ele>
        <time>2015-11-29T10:34:34Z</time>
      </trkpt>
      <trkpt lat="43.51029" lon="3.05375">
        <ele>531</ele>
        <time>2015-11-29T10:34:35Z</time>
      </trkpt>
      <trkpt lat="43.51028" lon="3.05375">
        <ele>531.5</ele>
        <time>2015-11-29T10:34:36Z</time>
      </trkpt>
      <trkpt lat="43.51027" lon="3.05374">
        <ele>531.5</ele>
        <time>2015-11-29T10:34:37Z</time>
      </trkpt>
      <trkpt lat="43.51025" lon="3.05375">
        <ele>532.5</ele>
        <time>2015-11-29T10:34:38Z</time>
      </trkpt>
      <trkpt lat="43.51023" lon="3.05375">
        <ele>532.5</ele>
        <time>2015-11-29T10:34:39Z</time>
      </trkpt>
      <trkpt lat="43.51022" lon="3.05374">
        <ele>532.5</ele>
        <time>2015-11-29T10:34:40Z</time>
      </trkpt>
      <trkpt lat="43.5102" lon="3.05374">
        <ele>532.5</ele>
        <time>2015-11-29T10:34:41Z</time>
      </trkpt>
      <trkpt lat="43.51019" lon="3.05373">
        <ele>532</ele>
        <time>2015-11-29T10:34:42Z</time>
      </trkpt>
      <trkpt lat="43.51017" lon="3.05373">
        <ele>532</ele>
        <time>2015-11-29T10:34:43Z</time>
      </trkpt>
      <trkpt lat="43.51015" lon="3.05373">
        <ele>532.5</ele>
        <time>2015-11-29T10:34:44Z</time>
      </trkpt>
      <trkpt lat="43.51013" lon="3.05373">
        <ele>533</ele>
        <time>2015-11-29T10:34:45Z</time>
      </trkpt>
      <trkpt lat="43.51012" lon="3.05372">
        <ele>533.5</ele>
        <time>2015-11-29T10:34:46Z</time>
      </trkpt>
      <trkpt lat="43.5101" lon="3.05371">
        <ele>533</ele>
        <time>2015-11-29T10:34:47Z</time>
      </trkpt>
      <trkpt lat="43.51009" lon="3.05372">
        <ele>532.5</ele>
        <time>2015-11-29T10:34:48Z</time>
      </trkpt>
      <trkpt lat="43.51007" lon="3.0537">
        <ele>532.5</ele>
        <time>2015-11-29T10:34:49Z</time>
      </trkpt>
      <trkpt lat="43.51005" lon="3.0537">
        <ele>533</ele>
        <time>2015-11-29T10:34:50Z</time>
      </trkpt>
      <trkpt lat="43.51004" lon="3.0537">
        <ele>533.5</ele>
        <time>2015-11-29T10:34:51Z</time>
      </trkpt>
      <trkpt lat="43.51002" lon="3.05369">
        <ele>534.5</ele>
        <time>2015-11-29T10:34:52Z</time>
      </trkpt>
      <trkpt lat="43.51001" lon="3.05369">
        <ele>535</ele>
        <time>2015-11-29T10:34:53Z</time>
      </trkpt>
      <trkpt lat="43.50999" lon="3.05367">
        <ele>535</ele>
        <time>2015-11-29T10:34:54Z</time>
      </trkpt>
      <trkpt lat="43.50997" lon="3.05366">
        <ele>535.5</ele>
        <time>2015-11-29T10:34:55Z</time>
      </trkpt>
      <trkpt lat="43.50997" lon="3.05366">
        <ele>537</ele>
        <time>2015-11-29T10:34:56Z</time>
      </trkpt>
      <trkpt lat="43.50995" lon="3.05365">
        <ele>538</ele>
        <time>2015-11-29T10:34:57Z</time>
      </trkpt>
      <trkpt lat="43.50994" lon="3.05364">
        <ele>538.5</ele>
        <time>2015-11-29T10:34:58Z</time>
      </trkpt>
      <trkpt lat="43.50992" lon="3.05363">
        <ele>538.5</ele>
        <time>2015-11-29T10:34:59Z</time>
      </trkpt>
      <trkpt lat="43.5099" lon="3.05362">
        <ele>539</ele>
        <time>2015-11-29T10:35:00Z</time>
      </trkpt>
      <trkpt lat="43.50988" lon="3.05361">
        <ele>539.5</ele>
        <time>2015-11-29T10:35:01Z</time>
      </trkpt>
      <trkpt lat="43.50987" lon="3.0536">
        <ele>539.5</ele>
        <time>2015-11-29T10:35:02Z</time>
      </trkpt>
      <trkpt lat="43.50985" lon="3.05359">
        <ele>539.5</ele>
        <time>2015-11-29T10:35:03Z</time>
      </trkpt>
      <trkpt lat="43.50984" lon="3.05357">
        <ele>538.5</ele>
        <time>2015-11-29T10:35:04Z</time>
      </trkpt>
      <trkpt lat="43.50982" lon="3.05355">
        <ele>538</ele>
        <time>2015-11-29T10:35:05Z</time>
      </trkpt>
      <trkpt lat="43.50981" lon="3.05354">
        <ele>538.5</ele>
        <time>2015-11-29T10:35:06Z</time>
      </trkpt>
      <trkpt lat="43.50979" lon="3.05354">
        <ele>540</ele>
        <time>2015-11-29T10:35:07Z</time>
      </trkpt>
      <trkpt lat="43.50978" lon="3.05352">
        <ele>541</ele>
        <time>2015-11-29T10:35:08Z</time>
      </trkpt>
      <trkpt lat="43.50976" lon="3.05351">
        <ele>542</ele>
        <time>2015-11-29T10:35:09Z</time>
      </trkpt>
      <trkpt lat="43.50975" lon="3.05349">
        <ele>542</ele>
        <time>2015-11-29T10:35:10Z</time>
      </trkpt>
      <trkpt lat="43.50973" lon="3.05347">
        <ele>541.5</ele>
        <time>2015-11-29T10:35:11Z</time>
      </trkpt>
      <trkpt lat="43.50972" lon="3.05345">
        <ele>541</ele>
        <time>2015-11-29T10:35:12Z</time>
      </trkpt>
      <trkpt lat="43.5097" lon="3.05343">
        <ele>540.5</ele>
        <time>2015-11-29T10:35:13Z</time>
      </trkpt>
      <trkpt lat="43.50969" lon="3.05341">
        <ele>540.5</ele>
        <time>2015-11-29T10:35:14Z</time>
      </trkpt>
      <trkpt lat="43.50968" lon="3.05339">
        <ele>539.5</ele>
        <time>2015-11-29T10:35:14Z</time>
      </trkpt>
      <trkpt lat="43.50967" lon="3.05337">
        <ele>539.5</ele>
        <time>2015-11-29T10:35:16Z</time>
      </trkpt>
      <trkpt lat="43.50966" lon="3.05335">
        <ele>539.5</ele>
        <time>2015-11-29T10:35:17Z</time>
      </trkpt>
      <trkpt lat="43.50965" lon="3.05334">
        <ele>540</ele>
        <time>2015-11-29T10:35:17Z</time>
      </trkpt>
      <trkpt lat="43.50963" lon="3.05333">
        <ele>539.5</ele>
        <time>2015-11-29T10:35:18Z</time>
      </trkpt>
      <trkpt lat="43.50962" lon="3.0533">
        <ele>538.5</ele>
        <time>2015-11-29T10:35:19Z</time>
      </trkpt>
      <trkpt lat="43.50961" lon="3.05328">
        <ele>538.5</ele>
        <time>2015-11-29T10:35:20Z</time>
      </trkpt>
      <trkpt lat="43.5096" lon="3.05327">
        <ele>539</ele>
        <time>2015-11-29T10:35:21Z</time>
      </trkpt>
      <trkpt lat="43.50959" lon="3.05325">
        <ele>539</ele>
        <time>2015-11-29T10:35:22Z</time>
      </trkpt>
      <trkpt lat="43.50958" lon="3.05324">
        <ele>540</ele>
        <time>2015-11-29T10:35:23Z</time>
      </trkpt>
      <trkpt lat="43.50956" lon="3.05322">
        <ele>540</ele>
        <time>2015-11-29T10:35:24Z</time>
      </trkpt>
      <trkpt lat="43.50955" lon="3.0532">
        <ele>541</ele>
        <time>2015-11-29T10:35:25Z</time>
      </trkpt>
      <trkpt lat="43.50955" lon="3.05318">
        <ele>541.5</ele>
        <time>2015-11-29T10:35:26Z</time>
      </trkpt>
      <trkpt lat="43.50953" lon="3.05316">
        <ele>541.5</ele>
        <time>2015-11-29T10:35:27Z</time>
      </trkpt>
      <trkpt lat="43.50952" lon="3.05313">
        <ele>543.5</ele>
        <time>2015-11-29T10:35:28Z</time>
      </trkpt>
      <trkpt lat="43.50952" lon="3.05311">
        <ele>543</ele>
        <time>2015-11-29T10:35:29Z</time>
      </trkpt>
      <trkpt lat="43.50952" lon="3.05309">
        <ele>541.5</ele>
        <time>2015-11-29T10:35:30Z</time>
      </trkpt>
      <trkpt lat="43.50953" lon="3.05306">
        <ele>540.5</ele>
        <time>2015-11-29T10:35:31Z</time>
      </trkpt>
      <trkpt lat="43.50952" lon="3.05304">
        <ele>539</ele>
        <time>2015-11-29T10:35:32Z</time>
      </trkpt>
      <trkpt lat="43.50953" lon="3.05303">
        <ele>539</ele>
        <time>2015-11-29T10:35:33Z</time>
      </trkpt>
      <trkpt lat="43.50953" lon="3.05302">
        <ele>538</ele>
        <time>2015-11-29T10:35:34Z</time>
      </trkpt>
      <trkpt lat="43.50952" lon="3.053">
        <ele>539.5</ele>
        <time>2015-11-29T10:35:35Z</time>
      </trkpt>
      <trkpt lat="43.50951" lon="3.05298">
        <ele>541</ele>
        <time>2015-11-29T10:35:36Z</time>
      </trkpt>
      <trkpt lat="43.50951" lon="3.05296">
        <ele>540.5</ele>
        <time>2015-11-29T10:35:37Z</time>
      </trkpt>
      <trkpt lat="43.5095" lon="3.05293">
        <ele>541.5</ele>
        <time>2015-11-29T10:35:39Z</time>
      </trkpt>
      <trkpt lat="43.5095" lon="3.05294">
        <ele>542</ele>
        <time>2015-11-29T10:35:43Z</time>
      </trkpt>
      <trkpt lat="43.50949" lon="3.05293">
        <ele>542.5</ele>
        <time>2015-11-29T10:35:44Z</time>
      </trkpt>
      <trkpt lat="43.50949" lon="3.05293">
        <ele>542.5</ele>
        <time>2015-11-29T10:35:45Z</time>
      </trkpt>
      <trkpt lat="43.50948" lon="3.05292">
        <ele>543</ele>
        <time>2015-11-29T10:35:46Z</time>
      </trkpt>
      <trkpt lat="43.50948" lon="3.05289">
        <ele>538</ele>
        <time>2015-11-29T10:35:53Z</time>
      </trkpt>
      <trkpt lat="43.50948" lon="3.05289">
        <ele>537.5</ele>
        <time>2015-11-29T10:35:54Z</time>
      </trkpt>
      <trkpt lat="43.50948" lon="3.05288">
        <ele>534</ele>
        <time>2015-11-29T10:36:00Z</time>
      </trkpt>
      <trkpt lat="43.50948" lon="3.05288">
        <ele>533.5</ele>
        <time>2015-11-29T10:36:01Z</time>
      </trkpt>
      <trkpt lat="43.50947" lon="3.05287">
        <ele>533</ele>
        <time>2015-11-29T10:36:02Z</time>
      </trkpt>
      <trkpt lat="43.50947" lon="3.05286">
        <ele>533.5</ele>
        <time>2015-11-29T10:36:03Z</time>
      </trkpt>
      <trkpt lat="43.50947" lon="3.05284">
        <ele>532</ele>
        <time>2015-11-29T10:36:04Z</time>
      </trkpt>
      <trkpt lat="43.50948" lon="3.05283">
        <ele>531.5</ele>
        <time>2015-11-29T10:36:05Z</time>
      </trkpt>
      <trkpt lat="43.50948" lon="3.05282">
        <ele>531.5</ele>
        <time>2015-11-29T10:36:08Z</time>
      </trkpt>
      <trkpt lat="43.50948" lon="3.05282">
        <ele>531.5</ele>
        <time>2015-11-29T10:36:09Z</time>
      </trkpt>
      <trkpt lat="43.50949" lon="3.05282">
        <ele>531.5</ele>
        <time>2015-11-29T10:36:10Z</time>
      </trkpt>
      <trkpt lat="43.50949" lon="3.05283">
        <ele>531.5</ele>
        <time>2015-11-29T10:36:13Z</time>
      </trkpt>
      <trkpt lat="43.5095" lon="3.05283">
        <ele>530.5</ele>
        <time>2015-11-29T10:36:14Z</time>
      </trkpt>
      <trkpt lat="43.5095" lon="3.05282">
        <ele>531.5</ele>
        <time>2015-11-29T10:36:18Z</time>
      </trkpt>
      <trkpt lat="43.5095" lon="3.05281">
        <ele>531.5</ele>
        <time>2015-11-29T10:36:29Z</time>
      </trkpt>
      <trkpt lat="43.5095" lon="3.05281">
        <ele>530.5</ele>
        <time>2015-11-29T10:36:38Z</time>
      </trkpt>
      <trkpt lat="43.5095" lon="3.05281">
        <ele>530.5</ele>
        <time>2015-11-29T10:36:39Z</time>
      </trkpt>
      <trkpt lat="43.50951" lon="3.05282">
        <ele>530.5</ele>
        <time>2015-11-29T10:36:42Z</time>
      </trkpt>
      <trkpt lat="43.5095" lon="3.05282">
        <ele>530.5</ele>
        <time>2015-11-29T10:36:44Z</time>
      </trkpt>
      <trkpt lat="43.50949" lon="3.05283">
        <ele>531</ele>
        <time>2015-11-29T10:36:47Z</time>
      </trkpt>
      <trkpt lat="43.50949" lon="3.05284">
        <ele>533</ele>
        <time>2015-11-29T10:36:48Z</time>
      </trkpt>
      <trkpt lat="43.50951" lon="3.05282">
        <ele>535</ele>
        <time>2015-11-29T10:36:52Z</time>
      </trkpt>
      <trkpt lat="43.50952" lon="3.05282">
        <ele>536</ele>
        <time>2015-11-29T10:36:53Z</time>
      </trkpt>
      <trkpt lat="43.50951" lon="3.05283">
        <ele>535</ele>
        <time>2015-11-29T10:36:57Z</time>
      </trkpt>
      <trkpt lat="43.5095" lon="3.05282">
        <ele>534</ele>
        <time>2015-11-29T10:37:20Z</time>
      </trkpt>
      <trkpt lat="43.5095" lon="3.05282">
        <ele>533.5</ele>
        <time>2015-11-29T10:37:24Z</time>
      </trkpt>
      <trkpt lat="43.50951" lon="3.05279">
        <ele>534.5</ele>
        <time>2015-11-29T10:37:41Z</time>
      </trkpt>
      <trkpt lat="43.5095" lon="3.05279">
        <ele>534.5</ele>
        <time>2015-11-29T10:37:54Z</time>
      </trkpt>
      <trkpt lat="43.50949" lon="3.05279">
        <ele>532.5</ele>
        <time>2015-11-29T10:38:06Z</time>
      </trkpt>
      <trkpt lat="43.50948" lon="3.0528">
        <ele>531.5</ele>
        <time>2015-11-29T10:38:07Z</time>
      </trkpt>
      <trkpt lat="43.50948" lon="3.05278">
        <ele>531.5</ele>
        <time>2015-11-29T10:38:08Z</time>
      </trkpt>
      <trkpt lat="43.50947" lon="3.05279">
        <ele>530</ele>
        <time>2015-11-29T10:38:28Z</time>
      </trkpt>
      <trkpt lat="43.50947" lon="3.05279">
        <ele>530</ele>
        <time>2015-11-29T10:38:29Z</time>
      </trkpt>
      <trkpt lat="43.50947" lon="3.0528">
        <ele>530.5</ele>
        <time>2015-11-29T10:38:31Z</time>
      </trkpt>
      <trkpt lat="43.50948" lon="3.0528">
        <ele>531.5</ele>
        <time>2015-11-29T10:38:33Z</time>
      </trkpt>
      <trkpt lat="43.50949" lon="3.05283">
        <ele>531.5</ele>
        <time>2015-11-29T10:38:43Z</time>
      </trkpt>
      <trkpt lat="43.50948" lon="3.05284">
        <ele>531</ele>
        <time>2015-11-29T10:38:45Z</time>
      </trkpt>
      <trkpt lat="43.50948" lon="3.05284">
        <ele>531</ele>
        <time>2015-11-29T10:38:47Z</time>
      </trkpt>
      <trkpt lat="43.50948" lon="3.05284">
        <ele>531</ele>
        <time>2015-11-29T10:38:50Z</time>
      </trkpt>
      <trkpt lat="43.50947" lon="3.05284">
        <ele>531.5</ele>
        <time>2015-11-29T10:38:51Z</time>
      </trkpt>
      <trkpt lat="43.50946" lon="3.05283">
        <ele>531.5</ele>
        <time>2015-11-29T10:38:52Z</time>
      </trkpt>
      <trkpt lat="43.50944" lon="3.05283">
        <ele>532</ele>
        <time>2015-11-29T10:38:53Z</time>
      </trkpt>
      <trkpt lat="43.50942" lon="3.05282">
        <ele>532</ele>
        <time>2015-11-29T10:38:54Z</time>
      </trkpt>
      <trkpt lat="43.5094" lon="3.05282">
        <ele>532</ele>
        <time>2015-11-29T10:38:55Z</time>
      </trkpt>
      <trkpt lat="43.50938" lon="3.05281">
        <ele>532</ele>
        <time>2015-11-29T10:38:56Z</time>
      </trkpt>
      <trkpt lat="43.50937" lon="3.05281">
        <ele>532.5</ele>
        <time>2015-11-29T10:38:57Z</time>
      </trkpt>
      <trkpt lat="43.50935" lon="3.05282">
        <ele>534</ele>
        <time>2015-11-29T10:38:58Z</time>
      </trkpt>
      <trkpt lat="43.50934" lon="3.05281">
        <ele>535</ele>
        <time>2015-11-29T10:38:59Z</time>
      </trkpt>
      <trkpt lat="43.50933" lon="3.05281">
        <ele>536</ele>
        <time>2015-11-29T10:39:00Z</time>
      </trkpt>
      <trkpt lat="43.50932" lon="3.05279">
        <ele>537</ele>
        <time>2015-11-29T10:39:01Z</time>
      </trkpt>
      <trkpt lat="43.5093" lon="3.0528">
        <ele>537</ele>
        <time>2015-11-29T10:39:02Z</time>
      </trkpt>
      <trkpt lat="43.50929" lon="3.05278">
        <ele>538</ele>
        <time>2015-11-29T10:39:03Z</time>
      </trkpt>
      <trkpt lat="43.5093" lon="3.05275">
        <ele>538.5</ele>
        <time>2015-11-29T10:39:04Z</time>
      </trkpt>
      <trkpt lat="43.5092" lon="3.05281">
        <ele>538.5</ele>
        <time>2015-11-29T10:39:06Z</time>
      </trkpt>
      <trkpt lat="43.50918" lon="3.05277">
        <ele>538.5</ele>
        <time>2015-11-29T10:39:08Z</time>
      </trkpt>
      <trkpt lat="43.50917" lon="3.05276">
        <ele>539</ele>
        <time>2015-11-29T10:39:09Z</time>
      </trkpt>
      <trkpt lat="43.50916" lon="3.05276">
        <ele>540</ele>
        <time>2015-11-29T10:39:10Z</time>
      </trkpt>
      <trkpt lat="43.50915" lon="3.05275">
        <ele>539</ele>
        <time>2015-11-29T10:39:11Z</time>
      </trkpt>
      <trkpt lat="43.50917" lon="3.05276">
        <ele>540.5</ele>
        <time>2015-11-29T10:39:12Z</time>
      </trkpt>
      <trkpt lat="43.50916" lon="3.05276">
        <ele>539.5</ele>
        <time>2015-11-29T10:39:13Z</time>
      </trkpt>
      <trkpt lat="43.50916" lon="3.05276">
        <ele>539.5</ele>
        <time>2015-11-29T10:39:14Z</time>
      </trkpt>
      <trkpt lat="43.50912" lon="3.05278">
        <ele>540</ele>
        <time>2015-11-29T10:39:16Z</time>
      </trkpt>
      <trkpt lat="43.50911" lon="3.05278">
        <ele>540.5</ele>
        <time>2015-11-29T10:39:17Z</time>
      </trkpt>
      <trkpt lat="43.5091" lon="3.05279">
        <ele>541.5</ele>
        <time>2015-11-29T10:39:18Z</time>
      </trkpt>
      <trkpt lat="43.50909" lon="3.05279">
        <ele>542</ele>
        <time>2015-11-29T10:39:19Z</time>
      </trkpt>
      <trkpt lat="43.5091" lon="3.0528">
        <ele>543.5</ele>
        <time>2015-11-29T10:39:20Z</time>
      </trkpt>
      <trkpt lat="43.50908" lon="3.0528">
        <ele>543</ele>
        <time>2015-11-29T10:39:21Z</time>
      </trkpt>
      <trkpt lat="43.50907" lon="3.05281">
        <ele>542.5</ele>
        <time>2015-11-29T10:39:22Z</time>
      </trkpt>
      <trkpt lat="43.50906" lon="3.05283">
        <ele>542.5</ele>
        <time>2015-11-29T10:39:23Z</time>
      </trkpt>
      <trkpt lat="43.50904" lon="3.05284">
        <ele>542.5</ele>
        <time>2015-11-29T10:39:24Z</time>
      </trkpt>
      <trkpt lat="43.50904" lon="3.05285">
        <ele>543.5</ele>
        <time>2015-11-29T10:39:25Z</time>
      </trkpt>
      <trkpt lat="43.50903" lon="3.05286">
        <ele>544</ele>
        <time>2015-11-29T10:39:26Z</time>
      </trkpt>
      <trkpt lat="43.50904" lon="3.05288">
        <ele>546</ele>
        <time>2015-11-29T10:39:27Z</time>
      </trkpt>
      <trkpt lat="43.50904" lon="3.05289">
        <ele>547</ele>
        <time>2015-11-29T10:39:28Z</time>
      </trkpt>
      <trkpt lat="43.50902" lon="3.05288">
        <ele>547</ele>
        <time>2015-11-29T10:39:29Z</time>
      </trkpt>
      <trkpt lat="43.50903" lon="3.05291">
        <ele>546.5</ele>
        <time>2015-11-29T10:39:30Z</time>
      </trkpt>
      <trkpt lat="43.50904" lon="3.05293">
        <ele>546.5</ele>
        <time>2015-11-29T10:39:31Z</time>
      </trkpt>
      <trkpt lat="43.50905" lon="3.05295">
        <ele>546.5</ele>
        <time>2015-11-29T10:39:32Z</time>
      </trkpt>
      <trkpt lat="43.50908" lon="3.05295">
        <ele>548</ele>
        <time>2015-11-29T10:39:33Z</time>
      </trkpt>
      <trkpt lat="43.50907" lon="3.05294">
        <ele>548.5</ele>
        <time>2015-11-29T10:39:34Z</time>
      </trkpt>
      <trkpt lat="43.50905" lon="3.05293">
        <ele>548</ele>
        <time>2015-11-29T10:39:35Z</time>
      </trkpt>
      <trkpt lat="43.509" lon="3.05288">
        <ele>547.5</ele>
        <time>2015-11-29T10:39:37Z</time>
      </trkpt>
      <trkpt lat="43.50895" lon="3.05285">
        <ele>547</ele>
        <time>2015-11-29T10:39:39Z</time>
      </trkpt>
      <trkpt lat="43.50895" lon="3.05284">
        <ele>548</ele>
        <time>2015-11-29T10:39:40Z</time>
      </trkpt>
      <trkpt lat="43.50893" lon="3.05284">
        <ele>548</ele>
        <time>2015-11-29T10:39:41Z</time>
      </trkpt>
      <trkpt lat="43.50894" lon="3.05285">
        <ele>548</ele>
        <time>2015-11-29T10:39:42Z</time>
      </trkpt>
      <trkpt lat="43.50892" lon="3.05286">
        <ele>550</ele>
        <time>2015-11-29T10:39:43Z</time>
      </trkpt>
      <trkpt lat="43.50892" lon="3.05286">
        <ele>550</ele>
        <time>2015-11-29T10:39:44Z</time>
      </trkpt>
      <trkpt lat="43.50892" lon="3.05284">
        <ele>550</ele>
        <time>2015-11-29T10:39:45Z</time>
      </trkpt>
      <trkpt lat="43.50892" lon="3.05284">
        <ele>550</ele>
        <time>2015-11-29T10:39:46Z</time>
      </trkpt>
      <trkpt lat="43.50893" lon="3.05282">
        <ele>552</ele>
        <time>2015-11-29T10:39:47Z</time>
      </trkpt>
      <trkpt lat="43.50893" lon="3.0528">
        <ele>553.5</ele>
        <time>2015-11-29T10:39:48Z</time>
      </trkpt>
      <trkpt lat="43.50893" lon="3.05279">
        <ele>555.5</ele>
        <time>2015-11-29T10:39:49Z</time>
      </trkpt>
      <trkpt lat="43.50891" lon="3.05278">
        <ele>555.5</ele>
        <time>2015-11-29T10:39:50Z</time>
      </trkpt>
      <trkpt lat="43.5089" lon="3.05276">
        <ele>555</ele>
        <time>2015-11-29T10:39:51Z</time>
      </trkpt>
      <trkpt lat="43.50884" lon="3.05271">
        <ele>555.5</ele>
        <time>2015-11-29T10:39:53Z</time>
      </trkpt>
      <trkpt lat="43.50881" lon="3.05274">
        <ele>555</ele>
        <time>2015-11-29T10:39:55Z</time>
      </trkpt>
      <trkpt lat="43.50879" lon="3.05273">
        <ele>553.5</ele>
        <time>2015-11-29T10:39:57Z</time>
      </trkpt>
      <trkpt lat="43.50878" lon="3.05273">
        <ele>552</ele>
        <time>2015-11-29T10:39:59Z</time>
      </trkpt>
      <trkpt lat="43.50874" lon="3.05274">
        <ele>544.5</ele>
        <time>2015-11-29T10:40:01Z</time>
      </trkpt>
      <trkpt lat="43.50873" lon="3.05273">
        <ele>545.5</ele>
        <time>2015-11-29T10:40:02Z</time>
      </trkpt>
      <trkpt lat="43.50872" lon="3.05274">
        <ele>546</ele>
        <time>2015-11-29T10:40:03Z</time>
      </trkpt>
      <trkpt lat="43.50872" lon="3.05275">
        <ele>545</ele>
        <time>2015-11-29T10:40:04Z</time>
      </trkpt>
      <trkpt lat="43.50873" lon="3.05275">
        <ele>544</ele>
        <time>2015-11-29T10:40:05Z</time>
      </trkpt>
      <trkpt lat="43.50873" lon="3.05276">
        <ele>544</ele>
        <time>2015-11-29T10:40:06Z</time>
      </trkpt>
      <trkpt lat="43.50873" lon="3.05276">
        <ele>544</ele>
        <time>2015-11-29T10:40:07Z</time>
      </trkpt>
      <trkpt lat="43.50873" lon="3.05276">
        <ele>543.5</ele>
        <time>2015-11-29T10:40:08Z</time>
      </trkpt>
      <trkpt lat="43.50872" lon="3.05275">
        <ele>542.5</ele>
        <time>2015-11-29T10:40:09Z</time>
      </trkpt>
      <trkpt lat="43.50873" lon="3.05273">
        <ele>541.5</ele>
        <time>2015-11-29T10:40:12Z</time>
      </trkpt>
      <trkpt lat="43.50874" lon="3.05275">
        <ele>538.5</ele>
        <time>2015-11-29T10:40:14Z</time>
      </trkpt>
      <trkpt lat="43.50875" lon="3.05275">
        <ele>539</ele>
        <time>2015-11-29T10:40:15Z</time>
      </trkpt>
      <trkpt lat="43.50875" lon="3.05275">
        <ele>540</ele>
        <time>2015-11-29T10:40:16Z</time>
      </trkpt>
      <trkpt lat="43.50875" lon="3.05276">
        <ele>540</ele>
        <time>2015-11-29T10:40:17Z</time>
      </trkpt>
      <trkpt lat="43.50875" lon="3.05276">
        <ele>539.5</ele>
        <time>2015-11-29T10:40:18Z</time>
      </trkpt>
      <trkpt lat="43.50875" lon="3.05277">
        <ele>539</ele>
        <time>2015-11-29T10:40:19Z</time>
      </trkpt>
      <trkpt lat="43.50876" lon="3.05276">
        <ele>540</ele>
        <time>2015-11-29T10:40:21Z</time>
      </trkpt>
      <trkpt lat="43.50876" lon="3.05276">
        <ele>540</ele>
        <time>2015-11-29T10:40:22Z</time>
      </trkpt>
      <trkpt lat="43.50876" lon="3.05275">
        <ele>539.5</ele>
        <time>2015-11-29T10:40:25Z</time>
      </trkpt>
      <trkpt lat="43.50875" lon="3.05274">
        <ele>539.5</ele>
        <time>2015-11-29T10:40:26Z</time>
      </trkpt>
      <trkpt lat="43.50875" lon="3.05274">
        <ele>540</ele>
        <time>2015-11-29T10:40:27Z</time>
      </trkpt>
      <trkpt lat="43.50875" lon="3.05274">
        <ele>541</ele>
        <time>2015-11-29T10:40:28Z</time>
      </trkpt>
      <trkpt lat="43.50874" lon="3.05274">
        <ele>541.5</ele>
        <time>2015-11-29T10:40:29Z</time>
      </trkpt>
      <trkpt lat="43.50874" lon="3.05274">
        <ele>542</ele>
        <time>2015-11-29T10:40:30Z</time>
      </trkpt>
      <trkpt lat="43.50874" lon="3.05275">
        <ele>542</ele>
        <time>2015-11-29T10:40:31Z</time>
      </trkpt>
      <trkpt lat="43.50873" lon="3.05275">
        <ele>542.5</ele>
        <time>2015-11-29T10:40:32Z</time>
      </trkpt>
      <trkpt lat="43.50873" lon="3.05275">
        <ele>543</ele>
        <time>2015-11-29T10:40:33Z</time>
      </trkpt>
      <trkpt lat="43.50873" lon="3.05275">
        <ele>544</ele>
        <time>2015-11-29T10:40:34Z</time>
      </trkpt>
      <trkpt lat="43.50872" lon="3.05276">
        <ele>543.5</ele>
        <time>2015-11-29T10:40:35Z</time>
      </trkpt>
      <trkpt lat="43.50872" lon="3.05277">
        <ele>543.5</ele>
        <time>2015-11-29T10:40:36Z</time>
      </trkpt>
      <trkpt lat="43.50872" lon="3.05277">
        <ele>543.5</ele>
        <time>2015-11-29T10:40:37Z</time>
      </trkpt>
      <trkpt lat="43.50871" lon="3.05278">
        <ele>544</ele>
        <time>2015-11-29T10:40:38Z</time>
      </trkpt>
      <trkpt lat="43.50872" lon="3.05276">
        <ele>544.5</ele>
        <time>2015-11-29T10:40:39Z</time>
      </trkpt>
      <trkpt lat="43.50872" lon="3.05275">
        <ele>545</ele>
        <time>2015-11-29T10:40:40Z</time>
      </trkpt>
      <trkpt lat="43.50872" lon="3.05274">
        <ele>545.5</ele>
        <time>2015-11-29T10:40:41Z</time>
      </trkpt>
      <trkpt lat="43.50872" lon="3.05273">
        <ele>546</ele>
        <time>2015-11-29T10:40:42Z</time>
      </trkpt>
      <trkpt lat="43.50873" lon="3.05273">
        <ele>547.5</ele>
        <time>2015-11-29T10:40:44Z</time>
      </trkpt>
      <trkpt lat="43.50874" lon="3.05275">
        <ele>548</ele>
        <time>2015-11-29T10:40:47Z</time>
      </trkpt>
      <trkpt lat="43.50874" lon="3.05276">
        <ele>548</ele>
        <time>2015-11-29T10:40:48Z</time>
      </trkpt>
      <trkpt lat="43.50873" lon="3.05277">
        <ele>549</ele>
        <time>2015-11-29T10:40:49Z</time>
      </trkpt>
      <trkpt lat="43.50874" lon="3.05278">
        <ele>550</ele>
        <time>2015-11-29T10:40:50Z</time>
      </trkpt>
      <trkpt lat="43.50874" lon="3.0528">
        <ele>551</ele>
        <time>2015-11-29T10:40:51Z</time>
      </trkpt>
      <trkpt lat="43.50873" lon="3.05281">
        <ele>550.5</ele>
        <time>2015-11-29T10:40:52Z</time>
      </trkpt>
      <trkpt lat="43.50872" lon="3.05283">
        <ele>551</ele>
        <time>2015-11-29T10:40:53Z</time>
      </trkpt>
      <trkpt lat="43.50871" lon="3.05285">
        <ele>551</ele>
        <time>2015-11-29T10:40:54Z</time>
      </trkpt>
      <trkpt lat="43.5087" lon="3.05288">
        <ele>551.5</ele>
        <time>2015-11-29T10:40:55Z</time>
      </trkpt>
      <trkpt lat="43.5087" lon="3.0529">
        <ele>551.5</ele>
        <time>2015-11-29T10:40:56Z</time>
      </trkpt>
      <trkpt lat="43.5087" lon="3.05291">
        <ele>551.5</ele>
        <time>2015-11-29T10:40:57Z</time>
      </trkpt>
      <trkpt lat="43.5087" lon="3.05292">
        <ele>551.5</ele>
        <time>2015-11-29T10:40:58Z</time>
      </trkpt>
      <trkpt lat="43.50871" lon="3.05293">
        <ele>552.5</ele>
        <time>2015-11-29T10:41:05Z</time>
      </trkpt>
      <trkpt lat="43.50869" lon="3.05295">
        <ele>551.5</ele>
        <time>2015-11-29T10:41:07Z</time>
      </trkpt>
      <trkpt lat="43.50868" lon="3.05295">
        <ele>551.5</ele>
        <time>2015-11-29T10:41:08Z</time>
      </trkpt>
      <trkpt lat="43.50868" lon="3.05296">
        <ele>551</ele>
        <time>2015-11-29T10:41:10Z</time>
      </trkpt>
      <trkpt lat="43.50867" lon="3.05296">
        <ele>551.5</ele>
        <time>2015-11-29T10:41:14Z</time>
      </trkpt>
      <trkpt lat="43.50868" lon="3.05295">
        <ele>554</ele>
        <time>2015-11-29T10:41:16Z</time>
      </trkpt>
      <trkpt lat="43.50868" lon="3.05296">
        <ele>557</ele>
        <time>2015-11-29T10:41:23Z</time>
      </trkpt>
      <trkpt lat="43.50866" lon="3.05298">
        <ele>557</ele>
        <time>2015-11-29T10:41:25Z</time>
      </trkpt>
      <trkpt lat="43.50865" lon="3.053">
        <ele>556.5</ele>
        <time>2015-11-29T10:41:26Z</time>
      </trkpt>
      <trkpt lat="43.50864" lon="3.05301">
        <ele>556.5</ele>
        <time>2015-11-29T10:41:27Z</time>
      </trkpt>
      <trkpt lat="43.50865" lon="3.05303">
        <ele>558</ele>
        <time>2015-11-29T10:41:28Z</time>
      </trkpt>
      <trkpt lat="43.50864" lon="3.05305">
        <ele>559.5</ele>
        <time>2015-11-29T10:41:29Z</time>
      </trkpt>
      <trkpt lat="43.50862" lon="3.05307">
        <ele>559</ele>
        <time>2015-11-29T10:41:30Z</time>
      </trkpt>
      <trkpt lat="43.50864" lon="3.05308">
        <ele>559.5</ele>
        <time>2015-11-29T10:41:31Z</time>
      </trkpt>
      <trkpt lat="43.50862" lon="3.0531">
        <ele>560.5</ele>
        <time>2015-11-29T10:41:32Z</time>
      </trkpt>
      <trkpt lat="43.50862" lon="3.05311">
        <ele>562.5</ele>
        <time>2015-11-29T10:41:33Z</time>
      </trkpt>
      <trkpt lat="43.50861" lon="3.05312">
        <ele>564</ele>
        <time>2015-11-29T10:41:34Z</time>
      </trkpt>
      <trkpt lat="43.50861" lon="3.05313">
        <ele>564.5</ele>
        <time>2015-11-29T10:41:35Z</time>
      </trkpt>
      <trkpt lat="43.5086" lon="3.05315">
        <ele>565.5</ele>
        <time>2015-11-29T10:41:36Z</time>
      </trkpt>
      <trkpt lat="43.5086" lon="3.05315">
        <ele>565</ele>
        <time>2015-11-29T10:41:37Z</time>
      </trkpt>
      <trkpt lat="43.5086" lon="3.05315">
        <ele>565.5</ele>
        <time>2015-11-29T10:41:39Z</time>
      </trkpt>
      <trkpt lat="43.50858" lon="3.05316">
        <ele>565.5</ele>
        <time>2015-11-29T10:41:41Z</time>
      </trkpt>
      <trkpt lat="43.50857" lon="3.05317">
        <ele>564.5</ele>
        <time>2015-11-29T10:41:43Z</time>
      </trkpt>
      <trkpt lat="43.50856" lon="3.05317">
        <ele>563</ele>
        <time>2015-11-29T10:41:44Z</time>
      </trkpt>
      <trkpt lat="43.50855" lon="3.05317">
        <ele>561</ele>
        <time>2015-11-29T10:41:45Z</time>
      </trkpt>
      <trkpt lat="43.50855" lon="3.05317">
        <ele>558.5</ele>
        <time>2015-11-29T10:41:47Z</time>
      </trkpt>
      <trkpt lat="43.50856" lon="3.05317">
        <ele>559</ele>
        <time>2015-11-29T10:41:50Z</time>
      </trkpt>
      <trkpt lat="43.50856" lon="3.05315">
        <ele>560</ele>
        <time>2015-11-29T10:41:52Z</time>
      </trkpt>
      <trkpt lat="43.50856" lon="3.05314">
        <ele>561</ele>
        <time>2015-11-29T10:41:53Z</time>
      </trkpt>
      <trkpt lat="43.50856" lon="3.05312">
        <ele>562.5</ele>
        <time>2015-11-29T10:41:54Z</time>
      </trkpt>
      <trkpt lat="43.50852" lon="3.05312">
        <ele>568.5</ele>
        <time>2015-11-29T10:42:01Z</time>
      </trkpt>
      <trkpt lat="43.5085" lon="3.05311">
        <ele>572</ele>
        <time>2015-11-29T10:42:03Z</time>
      </trkpt>
      <trkpt lat="43.50849" lon="3.05311">
        <ele>573</ele>
        <time>2015-11-29T10:42:04Z</time>
      </trkpt>
      <trkpt lat="43.50849" lon="3.05311">
        <ele>573</ele>
        <time>2015-11-29T10:42:06Z</time>
      </trkpt>
      <trkpt lat="43.50849" lon="3.05312">
        <ele>572</ele>
        <time>2015-11-29T10:42:07Z</time>
      </trkpt>
      <trkpt lat="43.50849" lon="3.05313">
        <ele>571.5</ele>
        <time>2015-11-29T10:42:08Z</time>
      </trkpt>
      <trkpt lat="43.50849" lon="3.05314">
        <ele>571.5</ele>
        <time>2015-11-29T10:42:09Z</time>
      </trkpt>
      <trkpt lat="43.50848" lon="3.05315">
        <ele>571</ele>
        <time>2015-11-29T10:42:10Z</time>
      </trkpt>
      <trkpt lat="43.50848" lon="3.05316">
        <ele>571</ele>
        <time>2015-11-29T10:42:11Z</time>
      </trkpt>
      <trkpt lat="43.50847" lon="3.05317">
        <ele>570</ele>
        <time>2015-11-29T10:42:11Z</time>
      </trkpt>
      <trkpt lat="43.50847" lon="3.05318">
        <ele>570</ele>
        <time>2015-11-29T10:42:13Z</time>
      </trkpt>
      <trkpt lat="43.50847" lon="3.05319">
        <ele>570</ele>
        <time>2015-11-29T10:42:13Z</time>
      </trkpt>
      <trkpt lat="43.50847" lon="3.05319">
        <ele>570</ele>
        <time>2015-11-29T10:42:14Z</time>
      </trkpt>
      <trkpt lat="43.50847" lon="3.05319">
        <ele>570</ele>
        <time>2015-11-29T10:42:15Z</time>
      </trkpt>
      <trkpt lat="43.50846" lon="3.0532">
        <ele>570</ele>
        <time>2015-11-29T10:42:16Z</time>
      </trkpt>
      <trkpt lat="43.50846" lon="3.0532">
        <ele>569.5</ele>
        <time>2015-11-29T10:42:21Z</time>
      </trkpt>
      <trkpt lat="43.50847" lon="3.05323">
        <ele>570</ele>
        <time>2015-11-29T10:42:23Z</time>
      </trkpt>
      <trkpt lat="43.50846" lon="3.05324">
        <ele>569.5</ele>
        <time>2015-11-29T10:42:24Z</time>
      </trkpt>
      <trkpt lat="43.50846" lon="3.05324">
        <ele>569</ele>
        <time>2015-11-29T10:42:25Z</time>
      </trkpt>
      <trkpt lat="43.50846" lon="3.05324">
        <ele>568</ele>
        <time>2015-11-29T10:42:28Z</time>
      </trkpt>
      <trkpt lat="43.50847" lon="3.05324">
        <ele>568.5</ele>
        <time>2015-11-29T10:42:29Z</time>
      </trkpt>
      <trkpt lat="43.50846" lon="3.05325">
        <ele>568.5</ele>
        <time>2015-11-29T10:42:30Z</time>
      </trkpt>
      <trkpt lat="43.50846" lon="3.05326">
        <ele>569.5</ele>
        <time>2015-11-29T10:42:31Z</time>
      </trkpt>
      <trkpt lat="43.50844" lon="3.05328">
        <ele>570</ele>
        <time>2015-11-29T10:42:33Z</time>
      </trkpt>
      <trkpt lat="43.50842" lon="3.05329">
        <ele>570</ele>
        <time>2015-11-29T10:42:34Z</time>
      </trkpt>
      <trkpt lat="43.5084" lon="3.0533">
        <ele>569</ele>
        <time>2015-11-29T10:42:34Z</time>
      </trkpt>
      <trkpt lat="43.50839" lon="3.05332">
        <ele>570.5</ele>
        <time>2015-11-29T10:42:36Z</time>
      </trkpt>
      <trkpt lat="43.50837" lon="3.05334">
        <ele>569</ele>
        <time>2015-11-29T10:42:37Z</time>
      </trkpt>
      <trkpt lat="43.50835" lon="3.05335">
        <ele>568</ele>
        <time>2015-11-29T10:42:38Z</time>
      </trkpt>
      <trkpt lat="43.50834" lon="3.05337">
        <ele>567</ele>
        <time>2015-11-29T10:42:40Z</time>
      </trkpt>
      <trkpt lat="43.50832" lon="3.05339">
        <ele>566</ele>
        <time>2015-11-29T10:42:40Z</time>
      </trkpt>
      <trkpt lat="43.50831" lon="3.0534">
        <ele>566.5</ele>
        <time>2015-11-29T10:42:41Z</time>
      </trkpt>
      <trkpt lat="43.50831" lon="3.05342">
        <ele>567</ele>
        <time>2015-11-29T10:42:42Z</time>
      </trkpt>
      <trkpt lat="43.50831" lon="3.05343">
        <ele>567</ele>
        <time>2015-11-29T10:42:43Z</time>
      </trkpt>
      <trkpt lat="43.5083" lon="3.05345">
        <ele>567</ele>
        <time>2015-11-29T10:42:44Z</time>
      </trkpt>
      <trkpt lat="43.5083" lon="3.05346">
        <ele>567.5</ele>
        <time>2015-11-29T10:42:45Z</time>
      </trkpt>
      <trkpt lat="43.50829" lon="3.05348">
        <ele>568.5</ele>
        <time>2015-11-29T10:42:46Z</time>
      </trkpt>
      <trkpt lat="43.5083" lon="3.05349">
        <ele>569.5</ele>
        <time>2015-11-29T10:42:47Z</time>
      </trkpt>
      <trkpt lat="43.5083" lon="3.05351">
        <ele>570.5</ele>
        <time>2015-11-29T10:42:48Z</time>
      </trkpt>
      <trkpt lat="43.50828" lon="3.05352">
        <ele>570</ele>
        <time>2015-11-29T10:42:49Z</time>
      </trkpt>
      <trkpt lat="43.50826" lon="3.05352">
        <ele>569.5</ele>
        <time>2015-11-29T10:42:50Z</time>
      </trkpt>
      <trkpt lat="43.50826" lon="3.05353">
        <ele>569</ele>
        <time>2015-11-29T10:42:51Z</time>
      </trkpt>
      <trkpt lat="43.50825" lon="3.05355">
        <ele>569</ele>
        <time>2015-11-29T10:42:52Z</time>
      </trkpt>
      <trkpt lat="43.50825" lon="3.05357">
        <ele>568.5</ele>
        <time>2015-11-29T10:42:53Z</time>
      </trkpt>
      <trkpt lat="43.50824" lon="3.05358">
        <ele>567.5</ele>
        <time>2015-11-29T10:42:54Z</time>
      </trkpt>
      <trkpt lat="43.50823" lon="3.05359">
        <ele>567.5</ele>
        <time>2015-11-29T10:42:55Z</time>
      </trkpt>
      <trkpt lat="43.50823" lon="3.05361">
        <ele>568</ele>
        <time>2015-11-29T10:42:56Z</time>
      </trkpt>
      <trkpt lat="43.50823" lon="3.05363">
        <ele>568.5</ele>
        <time>2015-11-29T10:42:57Z</time>
      </trkpt>
      <trkpt lat="43.50823" lon="3.05365">
        <ele>570</ele>
        <time>2015-11-29T10:42:59Z</time>
      </trkpt>
      <trkpt lat="43.50821" lon="3.05367">
        <ele>568</ele>
        <time>2015-11-29T10:43:00Z</time>
      </trkpt>
      <trkpt lat="43.50819" lon="3.0537">
        <ele>567.5</ele>
        <time>2015-11-29T10:43:02Z</time>
      </trkpt>
      <trkpt lat="43.50818" lon="3.05372">
        <ele>568</ele>
        <time>2015-11-29T10:43:02Z</time>
      </trkpt>
      <trkpt lat="43.50816" lon="3.05374">
        <ele>567.5</ele>
        <time>2015-11-29T10:43:03Z</time>
      </trkpt>
      <trkpt lat="43.50815" lon="3.05376">
        <ele>568</ele>
        <time>2015-11-29T10:43:04Z</time>
      </trkpt>
      <trkpt lat="43.50815" lon="3.05378">
        <ele>568.5</ele>
        <time>2015-11-29T10:43:05Z</time>
      </trkpt>
      <trkpt lat="43.50814" lon="3.0538">
        <ele>569</ele>
        <time>2015-11-29T10:43:06Z</time>
      </trkpt>
      <trkpt lat="43.50813" lon="3.05382">
        <ele>569</ele>
        <time>2015-11-29T10:43:07Z</time>
      </trkpt>
      <trkpt lat="43.50811" lon="3.05383">
        <ele>568</ele>
        <time>2015-11-29T10:43:08Z</time>
      </trkpt>
      <trkpt lat="43.50811" lon="3.05385">
        <ele>568.5</ele>
        <time>2015-11-29T10:43:09Z</time>
      </trkpt>
      <trkpt lat="43.5081" lon="3.05386">
        <ele>569.5</ele>
        <time>2015-11-29T10:43:10Z</time>
      </trkpt>
      <trkpt lat="43.5081" lon="3.05388">
        <ele>570.5</ele>
        <time>2015-11-29T10:43:11Z</time>
      </trkpt>
      <trkpt lat="43.50809" lon="3.05389">
        <ele>571</ele>
        <time>2015-11-29T10:43:12Z</time>
      </trkpt>
      <trkpt lat="43.50808" lon="3.05391">
        <ele>570.5</ele>
        <time>2015-11-29T10:43:13Z</time>
      </trkpt>
      <trkpt lat="43.50807" lon="3.05392">
        <ele>571</ele>
        <time>2015-11-29T10:43:15Z</time>
      </trkpt>
      <trkpt lat="43.50805" lon="3.05393">
        <ele>571.5</ele>
        <time>2015-11-29T10:43:15Z</time>
      </trkpt>
      <trkpt lat="43.50805" lon="3.05395">
        <ele>572.5</ele>
        <time>2015-11-29T10:43:16Z</time>
      </trkpt>
      <trkpt lat="43.50804" lon="3.05397">
        <ele>573.5</ele>
        <time>2015-11-29T10:43:17Z</time>
      </trkpt>
      <trkpt lat="43.50803" lon="3.05399">
        <ele>574.5</ele>
        <time>2015-11-29T10:43:18Z</time>
      </trkpt>
      <trkpt lat="43.50802" lon="3.05401">
        <ele>575.5</ele>
        <time>2015-11-29T10:43:19Z</time>
      </trkpt>
      <trkpt lat="43.50802" lon="3.05403">
        <ele>576.5</ele>
        <time>2015-11-29T10:43:20Z</time>
      </trkpt>
      <trkpt lat="43.50801" lon="3.05404">
        <ele>576.5</ele>
        <time>2015-11-29T10:43:21Z</time>
      </trkpt>
      <trkpt lat="43.50802" lon="3.05406">
        <ele>579</ele>
        <time>2015-11-29T10:43:26Z</time>
      </trkpt>
      <trkpt lat="43.50802" lon="3.05407">
        <ele>579</ele>
        <time>2015-11-29T10:43:27Z</time>
      </trkpt>
      <trkpt lat="43.50801" lon="3.05407">
        <ele>579</ele>
        <time>2015-11-29T10:43:29Z</time>
      </trkpt>
      <trkpt lat="43.50801" lon="3.05407">
        <ele>579.5</ele>
        <time>2015-11-29T10:43:30Z</time>
      </trkpt>
      <trkpt lat="43.50799" lon="3.05409">
        <ele>580</ele>
        <time>2015-11-29T10:43:33Z</time>
      </trkpt>
      <trkpt lat="43.50797" lon="3.05411">
        <ele>580.5</ele>
        <time>2015-11-29T10:43:37Z</time>
      </trkpt>
      <trkpt lat="43.50795" lon="3.05412">
        <ele>580.5</ele>
        <time>2015-11-29T10:43:39Z</time>
      </trkpt>
      <trkpt lat="43.50795" lon="3.05413">
        <ele>581</ele>
        <time>2015-11-29T10:43:40Z</time>
      </trkpt>
      <trkpt lat="43.50794" lon="3.05414">
        <ele>581</ele>
        <time>2015-11-29T10:43:41Z</time>
      </trkpt>
      <trkpt lat="43.50793" lon="3.05414">
        <ele>581</ele>
        <time>2015-11-29T10:43:43Z</time>
      </trkpt>
      <trkpt lat="43.50793" lon="3.05415">
        <ele>581.5</ele>
        <time>2015-11-29T10:43:45Z</time>
      </trkpt>
      <trkpt lat="43.50792" lon="3.05416">
        <ele>582</ele>
        <time>2015-11-29T10:43:47Z</time>
      </trkpt>
      <trkpt lat="43.50792" lon="3.05416">
        <ele>582</ele>
        <time>2015-11-29T10:43:50Z</time>
      </trkpt>
      <trkpt lat="43.50791" lon="3.05417">
        <ele>582</ele>
        <time>2015-11-29T10:43:52Z</time>
      </trkpt>
      <trkpt lat="43.50789" lon="3.05419">
        <ele>581.5</ele>
        <time>2015-11-29T10:44:00Z</time>
      </trkpt>
      <trkpt lat="43.50788" lon="3.05421">
        <ele>582.5</ele>
        <time>2015-11-29T10:44:02Z</time>
      </trkpt>
      <trkpt lat="43.50787" lon="3.05422">
        <ele>582.5</ele>
        <time>2015-11-29T10:44:03Z</time>
      </trkpt>
      <trkpt lat="43.50787" lon="3.05422">
        <ele>582.5</ele>
        <time>2015-11-29T10:44:04Z</time>
      </trkpt>
      <trkpt lat="43.50786" lon="3.05423">
        <ele>582.5</ele>
        <time>2015-11-29T10:44:05Z</time>
      </trkpt>
      <trkpt lat="43.50785" lon="3.05423">
        <ele>582.5</ele>
        <time>2015-11-29T10:44:06Z</time>
      </trkpt>
      <trkpt lat="43.50784" lon="3.05424">
        <ele>582.5</ele>
        <time>2015-11-29T10:44:07Z</time>
      </trkpt>
      <trkpt lat="43.50783" lon="3.05425">
        <ele>582.5</ele>
        <time>2015-11-29T10:44:08Z</time>
      </trkpt>
      <trkpt lat="43.50783" lon="3.05425">
        <ele>583</ele>
        <time>2015-11-29T10:44:09Z</time>
      </trkpt>
      <trkpt lat="43.50782" lon="3.05425">
        <ele>583</ele>
        <time>2015-11-29T10:44:10Z</time>
      </trkpt>
      <trkpt lat="43.50781" lon="3.05426">
        <ele>583.5</ele>
        <time>2015-11-29T10:44:11Z</time>
      </trkpt>
      <trkpt lat="43.50781" lon="3.05426">
        <ele>584</ele>
        <time>2015-11-29T10:44:12Z</time>
      </trkpt>
      <trkpt lat="43.5078" lon="3.05427">
        <ele>584.5</ele>
        <time>2015-11-29T10:44:13Z</time>
      </trkpt>
      <trkpt lat="43.5078" lon="3.05427">
        <ele>584.5</ele>
        <time>2015-11-29T10:44:14Z</time>
      </trkpt>
      <trkpt lat="43.50777" lon="3.05428">
        <ele>583.5</ele>
        <time>2015-11-29T10:44:18Z</time>
      </trkpt>
      <trkpt lat="43.50775" lon="3.05429">
        <ele>583.5</ele>
        <time>2015-11-29T10:44:20Z</time>
      </trkpt>
      <trkpt lat="43.50774" lon="3.0543">
        <ele>583.5</ele>
        <time>2015-11-29T10:44:21Z</time>
      </trkpt>
      <trkpt lat="43.50773" lon="3.0543">
        <ele>583.5</ele>
        <time>2015-11-29T10:44:22Z</time>
      </trkpt>
      <trkpt lat="43.50773" lon="3.05431">
        <ele>584</ele>
        <time>2015-11-29T10:44:23Z</time>
      </trkpt>
      <trkpt lat="43.50772" lon="3.05433">
        <ele>584.5</ele>
        <time>2015-11-29T10:44:24Z</time>
      </trkpt>
      <trkpt lat="43.50771" lon="3.05434">
        <ele>585.5</ele>
        <time>2015-11-29T10:44:25Z</time>
      </trkpt>
      <trkpt lat="43.50771" lon="3.05436">
        <ele>587</ele>
        <time>2015-11-29T10:44:26Z</time>
      </trkpt>
      <trkpt lat="43.50771" lon="3.05437">
        <ele>588</ele>
        <time>2015-11-29T10:44:27Z</time>
      </trkpt>
      <trkpt lat="43.5077" lon="3.05438">
        <ele>589</ele>
        <time>2015-11-29T10:44:28Z</time>
      </trkpt>
      <trkpt lat="43.50769" lon="3.05438">
        <ele>589.5</ele>
        <time>2015-11-29T10:44:29Z</time>
      </trkpt>
      <trkpt lat="43.50768" lon="3.05438">
        <ele>590</ele>
        <time>2015-11-29T10:44:30Z</time>
      </trkpt>
      <trkpt lat="43.50767" lon="3.05438">
        <ele>590</ele>
        <time>2015-11-29T10:44:31Z</time>
      </trkpt>
      <trkpt lat="43.50766" lon="3.05437">
        <ele>590</ele>
        <time>2015-11-29T10:44:32Z</time>
      </trkpt>
      <trkpt lat="43.50766" lon="3.05437">
        <ele>589.5</ele>
        <time>2015-11-29T10:44:33Z</time>
      </trkpt>
      <trkpt lat="43.50764" lon="3.05436">
        <ele>590.5</ele>
        <time>2015-11-29T10:44:34Z</time>
      </trkpt>
      <trkpt lat="43.50763" lon="3.05436">
        <ele>590.5</ele>
        <time>2015-11-29T10:44:35Z</time>
      </trkpt>
      <trkpt lat="43.50762" lon="3.05435">
        <ele>591</ele>
        <time>2015-11-29T10:44:36Z</time>
      </trkpt>
      <trkpt lat="43.50762" lon="3.05434">
        <ele>591</ele>
        <time>2015-11-29T10:44:37Z</time>
      </trkpt>
      <trkpt lat="43.50762" lon="3.05434">
        <ele>592</ele>
        <time>2015-11-29T10:44:38Z</time>
      </trkpt>
      <trkpt lat="43.50762" lon="3.05434">
        <ele>592.5</ele>
        <time>2015-11-29T10:44:39Z</time>
      </trkpt>
      <trkpt lat="43.50761" lon="3.05435">
        <ele>593</ele>
        <time>2015-11-29T10:44:43Z</time>
      </trkpt>
      <trkpt lat="43.50761" lon="3.05434">
        <ele>594</ele>
        <time>2015-11-29T10:44:45Z</time>
      </trkpt>
      <trkpt lat="43.5076" lon="3.05433">
        <ele>594</ele>
        <time>2015-11-29T10:44:46Z</time>
      </trkpt>
      <trkpt lat="43.5076" lon="3.05433">
        <ele>595</ele>
        <time>2015-11-29T10:44:47Z</time>
      </trkpt>
      <trkpt lat="43.50759" lon="3.05432">
        <ele>596</ele>
        <time>2015-11-29T10:44:48Z</time>
      </trkpt>
      <trkpt lat="43.50759" lon="3.05433">
        <ele>596.5</ele>
        <time>2015-11-29T10:44:49Z</time>
      </trkpt>
      <trkpt lat="43.50758" lon="3.05434">
        <ele>596</ele>
        <time>2015-11-29T10:44:50Z</time>
      </trkpt>
      <trkpt lat="43.50758" lon="3.05433">
        <ele>596</ele>
        <time>2015-11-29T10:44:51Z</time>
      </trkpt>
      <trkpt lat="43.50759" lon="3.05435">
        <ele>597.5</ele>
        <time>2015-11-29T10:44:54Z</time>
      </trkpt>
      <trkpt lat="43.50759" lon="3.05428">
        <ele>591.5</ele>
        <time>2015-11-29T10:45:11Z</time>
      </trkpt>
      <trkpt lat="43.5076" lon="3.0543">
        <ele>590.5</ele>
        <time>2015-11-29T10:45:13Z</time>
      </trkpt>
      <trkpt lat="43.5076" lon="3.0543">
        <ele>590.5</ele>
        <time>2015-11-29T10:45:14Z</time>
      </trkpt>
      <trkpt lat="43.5076" lon="3.05431">
        <ele>590</ele>
        <time>2015-11-29T10:45:17Z</time>
      </trkpt>
      <trkpt lat="43.50761" lon="3.05433">
        <ele>590</ele>
        <time>2015-11-29T10:45:19Z</time>
      </trkpt>
      <trkpt lat="43.50761" lon="3.05434">
        <ele>589.5</ele>
        <time>2015-11-29T10:45:20Z</time>
      </trkpt>
      <trkpt lat="43.5076" lon="3.05435">
        <ele>589.5</ele>
        <time>2015-11-29T10:45:21Z</time>
      </trkpt>
      <trkpt lat="43.5076" lon="3.05435">
        <ele>589.5</ele>
        <time>2015-11-29T10:45:23Z</time>
      </trkpt>
      <trkpt lat="43.5076" lon="3.05436">
        <ele>589.5</ele>
        <time>2015-11-29T10:45:24Z</time>
      </trkpt>
      <trkpt lat="43.50761" lon="3.05435">
        <ele>589.5</ele>
        <time>2015-11-29T10:45:25Z</time>
      </trkpt>
      <trkpt lat="43.50761" lon="3.05435">
        <ele>589.5</ele>
        <time>2015-11-29T10:45:28Z</time>
      </trkpt>
      <trkpt lat="43.50761" lon="3.05435">
        <ele>589</ele>
        <time>2015-11-29T10:45:46Z</time>
      </trkpt>
      <trkpt lat="43.50761" lon="3.05438">
        <ele>588.5</ele>
        <time>2015-11-29T10:45:48Z</time>
      </trkpt>
      <trkpt lat="43.50761" lon="3.05439">
        <ele>589.5</ele>
        <time>2015-11-29T10:45:49Z</time>
      </trkpt>
      <trkpt lat="43.50761" lon="3.0544">
        <ele>589.5</ele>
        <time>2015-11-29T10:45:50Z</time>
      </trkpt>
      <trkpt lat="43.50761" lon="3.05441">
        <ele>589.5</ele>
        <time>2015-11-29T10:45:51Z</time>
      </trkpt>
      <trkpt lat="43.5076" lon="3.05441">
        <ele>589.5</ele>
        <time>2015-11-29T10:45:52Z</time>
      </trkpt>
      <trkpt lat="43.50762" lon="3.05439">
        <ele>590</ele>
        <time>2015-11-29T10:46:12Z</time>
      </trkpt>
      <trkpt lat="43.50761" lon="3.0544">
        <ele>590</ele>
        <time>2015-11-29T10:46:16Z</time>
      </trkpt>
      <trkpt lat="43.5076" lon="3.05439">
        <ele>590</ele>
        <time>2015-11-29T10:46:23Z</time>
      </trkpt>
      <trkpt lat="43.50759" lon="3.05438">
        <ele>589.5</ele>
        <time>2015-11-29T10:46:25Z</time>
      </trkpt>
      <trkpt lat="43.50759" lon="3.05438">
        <ele>589.5</ele>
        <time>2015-11-29T10:46:26Z</time>
      </trkpt>
      <trkpt lat="43.50758" lon="3.05435">
        <ele>590</ele>
        <time>2015-11-29T10:46:29Z</time>
      </trkpt>
      <trkpt lat="43.50758" lon="3.05433">
        <ele>589.5</ele>
        <time>2015-11-29T10:46:34Z</time>
      </trkpt>
      <trkpt lat="43.50758" lon="3.05433">
        <ele>589</ele>
        <time>2015-11-29T10:46:36Z</time>
      </trkpt>
      <trkpt lat="43.50758" lon="3.05433">
        <ele>589</ele>
        <time>2015-11-29T10:46:39Z</time>
      </trkpt>
      <trkpt lat="43.50758" lon="3.05433">
        <ele>589.5</ele>
        <time>2015-11-29T10:46:41Z</time>
      </trkpt>
      <trkpt lat="43.50759" lon="3.05434">
        <ele>588.5</ele>
        <time>2015-11-29T10:46:50Z</time>
      </trkpt>
      <trkpt lat="43.50759" lon="3.05436">
        <ele>590.5</ele>
        <time>2015-11-29T10:46:52Z</time>
      </trkpt>
      <trkpt lat="43.5076" lon="3.05437">
        <ele>591.5</ele>
        <time>2015-11-29T10:46:57Z</time>
      </trkpt>
      <trkpt lat="43.50759" lon="3.05437">
        <ele>591</ele>
        <time>2015-11-29T10:46:58Z</time>
      </trkpt>
      <trkpt lat="43.5076" lon="3.05437">
        <ele>590</ele>
        <time>2015-11-29T10:47:03Z</time>
      </trkpt>
      <trkpt lat="43.5076" lon="3.05436">
        <ele>591</ele>
        <time>2015-11-29T10:47:10Z</time>
      </trkpt>
      <trkpt lat="43.50759" lon="3.05437">
        <ele>591</ele>
        <time>2015-11-29T10:47:12Z</time>
      </trkpt>
      <trkpt lat="43.50759" lon="3.05436">
        <ele>591.5</ele>
        <time>2015-11-29T10:47:13Z</time>
      </trkpt>
      <trkpt lat="43.50759" lon="3.05435">
        <ele>592.5</ele>
        <time>2015-11-29T10:47:14Z</time>
      </trkpt>
      <trkpt lat="43.5076" lon="3.05435">
        <ele>593</ele>
        <time>2015-11-29T10:47:15Z</time>
      </trkpt>
      <trkpt lat="43.5076" lon="3.05435">
        <ele>593</ele>
        <time>2015-11-29T10:47:16Z</time>
      </trkpt>
      <trkpt lat="43.5076" lon="3.05434">
        <ele>593.5</ele>
        <time>2015-11-29T10:47:17Z</time>
      </trkpt>
      <trkpt lat="43.5076" lon="3.05434">
        <ele>593.5</ele>
        <time>2015-11-29T10:47:18Z</time>
      </trkpt>
      <trkpt lat="43.5076" lon="3.05433">
        <ele>594</ele>
        <time>2015-11-29T10:47:23Z</time>
      </trkpt>
      <trkpt lat="43.50759" lon="3.05433">
        <ele>594.5</ele>
        <time>2015-11-29T10:47:25Z</time>
      </trkpt>
      <trkpt lat="43.50758" lon="3.05433">
        <ele>595</ele>
        <time>2015-11-29T10:47:27Z</time>
      </trkpt>
      <trkpt lat="43.50758" lon="3.05433">
        <ele>595</ele>
        <time>2015-11-29T10:47:29Z</time>
      </trkpt>
      <trkpt lat="43.50758" lon="3.05433">
        <ele>595</ele>
        <time>2015-11-29T10:47:30Z</time>
      </trkpt>
      <trkpt lat="43.50757" lon="3.05433">
        <ele>594.5</ele>
        <time>2015-11-29T10:47:31Z</time>
      </trkpt>
      <trkpt lat="43.50757" lon="3.05433">
        <ele>594.5</ele>
        <time>2015-11-29T10:47:32Z</time>
      </trkpt>
      <trkpt lat="43.50758" lon="3.05433">
        <ele>594</ele>
        <time>2015-11-29T10:47:33Z</time>
      </trkpt>
      <trkpt lat="43.50758" lon="3.05434">
        <ele>594</ele>
        <time>2015-11-29T10:47:34Z</time>
      </trkpt>
      <trkpt lat="43.50758" lon="3.05433">
        <ele>593.5</ele>
        <time>2015-11-29T10:47:37Z</time>
      </trkpt>
      <trkpt lat="43.50758" lon="3.05431">
        <ele>594</ele>
        <time>2015-11-29T10:47:39Z</time>
      </trkpt>
      <trkpt lat="43.50758" lon="3.0543">
        <ele>594</ele>
        <time>2015-11-29T10:47:40Z</time>
      </trkpt>
      <trkpt lat="43.50758" lon="3.05429">
        <ele>594</ele>
        <time>2015-11-29T10:47:41Z</time>
      </trkpt>
      <trkpt lat="43.50759" lon="3.05427">
        <ele>594</ele>
        <time>2015-11-29T10:47:42Z</time>
      </trkpt>
      <trkpt lat="43.50759" lon="3.05426">
        <ele>594</ele>
        <time>2015-11-29T10:47:43Z</time>
      </trkpt>
      <trkpt lat="43.50759" lon="3.05425">
        <ele>594.5</ele>
        <time>2015-11-29T10:47:44Z</time>
      </trkpt>
      <trkpt lat="43.50759" lon="3.05423">
        <ele>594.5</ele>
        <time>2015-11-29T10:47:45Z</time>
      </trkpt>
      <trkpt lat="43.5076" lon="3.05422">
        <ele>594.5</ele>
        <time>2015-11-29T10:47:46Z</time>
      </trkpt>
      <trkpt lat="43.5076" lon="3.05421">
        <ele>594.5</ele>
        <time>2015-11-29T10:47:47Z</time>
      </trkpt>
      <trkpt lat="43.5076" lon="3.05419">
        <ele>595</ele>
        <time>2015-11-29T10:47:48Z</time>
      </trkpt>
      <trkpt lat="43.5076" lon="3.05419">
        <ele>595</ele>
        <time>2015-11-29T10:47:49Z</time>
      </trkpt>
      <trkpt lat="43.5076" lon="3.05418">
        <ele>595</ele>
        <time>2015-11-29T10:47:50Z</time>
      </trkpt>
      <trkpt lat="43.5076" lon="3.05417">
        <ele>595</ele>
        <time>2015-11-29T10:47:51Z</time>
      </trkpt>
      <trkpt lat="43.5076" lon="3.05417">
        <ele>594</ele>
        <time>2015-11-29T10:48:03Z</time>
      </trkpt>
      <trkpt lat="43.50759" lon="3.05418">
        <ele>594</ele>
        <time>2015-11-29T10:48:05Z</time>
      </trkpt>
      <trkpt lat="43.50759" lon="3.05418">
        <ele>595</ele>
        <time>2015-11-29T10:48:07Z</time>
      </trkpt>
      <trkpt lat="43.50758" lon="3.0542">
        <ele>596</ele>
        <time>2015-11-29T10:48:09Z</time>
      </trkpt>
      <trkpt lat="43.50758" lon="3.05421">
        <ele>596</ele>
        <time>2015-11-29T10:48:10Z</time>
      </trkpt>
      <trkpt lat="43.50758" lon="3.05423">
        <ele>596</ele>
        <time>2015-11-29T10:48:11Z</time>
      </trkpt>
      <trkpt lat="43.50758" lon="3.05424">
        <ele>596</ele>
        <time>2015-11-29T10:48:12Z</time>
      </trkpt>
      <trkpt lat="43.50758" lon="3.05425">
        <ele>596</ele>
        <time>2015-11-29T10:48:13Z</time>
      </trkpt>
      <trkpt lat="43.50758" lon="3.05426">
        <ele>596</ele>
        <time>2015-11-29T10:48:14Z</time>
      </trkpt>
      <trkpt lat="43.50758" lon="3.05427">
        <ele>595.5</ele>
        <time>2015-11-29T10:48:15Z</time>
      </trkpt>
      <trkpt lat="43.50758" lon="3.05427">
        <ele>595.5</ele>
        <time>2015-11-29T10:48:16Z</time>
      </trkpt>
      <trkpt lat="43.50757" lon="3.05427">
        <ele>595.5</ele>
        <time>2015-11-29T10:48:17Z</time>
      </trkpt>
      <trkpt lat="43.50757" lon="3.05427">
        <ele>595.5</ele>
        <time>2015-11-29T10:48:18Z</time>
      </trkpt>
      <trkpt lat="43.50757" lon="3.05428">
        <ele>595.5</ele>
        <time>2015-11-29T10:48:19Z</time>
      </trkpt>
      <trkpt lat="43.50761" lon="3.05429">
        <ele>591</ele>
        <time>2015-11-29T10:48:34Z</time>
      </trkpt>
      <trkpt lat="43.50761" lon="3.05428">
        <ele>591</ele>
        <time>2015-11-29T10:48:42Z</time>
      </trkpt>
      <trkpt lat="43.50761" lon="3.05428">
        <ele>591</ele>
        <time>2015-11-29T10:48:44Z</time>
      </trkpt>
      <trkpt lat="43.50761" lon="3.05428">
        <ele>591.5</ele>
        <time>2015-11-29T10:48:45Z</time>
      </trkpt>
      <trkpt lat="43.50761" lon="3.05428">
        <ele>591.5</ele>
        <time>2015-11-29T10:48:46Z</time>
      </trkpt>
      <trkpt lat="43.5076" lon="3.05427">
        <ele>592</ele>
        <time>2015-11-29T10:48:49Z</time>
      </trkpt>
      <trkpt lat="43.5076" lon="3.05426">
        <ele>593</ele>
        <time>2015-11-29T10:48:51Z</time>
      </trkpt>
      <trkpt lat="43.50753" lon="3.05427">
        <ele>591.5</ele>
        <time>2015-11-29T10:48:53Z</time>
      </trkpt>
      <trkpt lat="43.50753" lon="3.05428">
        <ele>591</ele>
        <time>2015-11-29T10:48:55Z</time>
      </trkpt>
      <trkpt lat="43.50754" lon="3.05429">
        <ele>591.5</ele>
        <time>2015-11-29T10:48:55Z</time>
      </trkpt>
      <trkpt lat="43.50754" lon="3.0543">
        <ele>590.5</ele>
        <time>2015-11-29T10:48:56Z</time>
      </trkpt>
      <trkpt lat="43.50755" lon="3.05432">
        <ele>590</ele>
        <time>2015-11-29T10:48:57Z</time>
      </trkpt>
      <trkpt lat="43.50756" lon="3.05433">
        <ele>590</ele>
        <time>2015-11-29T10:48:58Z</time>
      </trkpt>
      <trkpt lat="43.50756" lon="3.05433">
        <ele>590</ele>
        <time>2015-11-29T10:48:59Z</time>
      </trkpt>
      <trkpt lat="43.50757" lon="3.05433">
        <ele>591</ele>
        <time>2015-11-29T10:49:00Z</time>
      </trkpt>
      <trkpt lat="43.50757" lon="3.05436">
        <ele>593.5</ele>
        <time>2015-11-29T10:49:04Z</time>
      </trkpt>
      <trkpt lat="43.50759" lon="3.05436">
        <ele>593.5</ele>
        <time>2015-11-29T10:49:08Z</time>
      </trkpt>
      <trkpt lat="43.50758" lon="3.05438">
        <ele>593</ele>
        <time>2015-11-29T10:49:11Z</time>
      </trkpt>
      <trkpt lat="43.50759" lon="3.05439">
        <ele>594</ele>
        <time>2015-11-29T10:49:11Z</time>
      </trkpt>
      <trkpt lat="43.50758" lon="3.05439">
        <ele>593</ele>
        <time>2015-11-29T10:49:14Z</time>
      </trkpt>
      <trkpt lat="43.50758" lon="3.0544">
        <ele>593</ele>
        <time>2015-11-29T10:49:16Z</time>
      </trkpt>
      <trkpt lat="43.50758" lon="3.05441">
        <ele>593</ele>
        <time>2015-11-29T10:49:21Z</time>
      </trkpt>
      <trkpt lat="43.50758" lon="3.05439">
        <ele>592.5</ele>
        <time>2015-11-29T10:49:28Z</time>
      </trkpt>
      <trkpt lat="43.50759" lon="3.05439">
        <ele>594</ele>
        <time>2015-11-29T10:49:31Z</time>
      </trkpt>
      <trkpt lat="43.50758" lon="3.05442">
        <ele>594.5</ele>
        <time>2015-11-29T10:49:33Z</time>
      </trkpt>
      <trkpt lat="43.50759" lon="3.05442">
        <ele>594.5</ele>
        <time>2015-11-29T10:49:34Z</time>
      </trkpt>
      <trkpt lat="43.5076" lon="3.05442">
        <ele>595</ele>
        <time>2015-11-29T10:49:38Z</time>
      </trkpt>
      <trkpt lat="43.50758" lon="3.05443">
        <ele>596</ele>
        <time>2015-11-29T10:49:43Z</time>
      </trkpt>
      <trkpt lat="43.50757" lon="3.05441">
        <ele>597.5</ele>
        <time>2015-11-29T10:49:46Z</time>
      </trkpt>
      <trkpt lat="43.50757" lon="3.05441">
        <ele>598</ele>
        <time>2015-11-29T10:49:46Z</time>
      </trkpt>
      <trkpt lat="43.50756" lon="3.05439">
        <ele>598</ele>
        <time>2015-11-29T10:49:47Z</time>
      </trkpt>
      <trkpt lat="43.50755" lon="3.05438">
        <ele>598.5</ele>
        <time>2015-11-29T10:49:48Z</time>
      </trkpt>
      <trkpt lat="43.50756" lon="3.05437">
        <ele>598.5</ele>
        <time>2015-11-29T10:49:49Z</time>
      </trkpt>
      <trkpt lat="43.50756" lon="3.05437">
        <ele>598.5</ele>
        <time>2015-11-29T10:49:50Z</time>
      </trkpt>
      <trkpt lat="43.50757" lon="3.05436">
        <ele>597.5</ele>
        <time>2015-11-29T10:49:51Z</time>
      </trkpt>
      <trkpt lat="43.50758" lon="3.05437">
        <ele>597.5</ele>
        <time>2015-11-29T10:49:53Z</time>
      </trkpt>
      <trkpt lat="43.50759" lon="3.05438">
        <ele>596.5</ele>
        <time>2015-11-29T10:49:53Z</time>
      </trkpt>
      <trkpt lat="43.5076" lon="3.05439">
        <ele>596.5</ele>
        <time>2015-11-29T10:49:54Z</time>
      </trkpt>
      <trkpt lat="43.50761" lon="3.0544">
        <ele>597</ele>
        <time>2015-11-29T10:49:55Z</time>
      </trkpt>
      <trkpt lat="43.50761" lon="3.0544">
        <ele>597.5</ele>
        <time>2015-11-29T10:49:57Z</time>
      </trkpt>
      <trkpt lat="43.50762" lon="3.0544">
        <ele>597.5</ele>
        <time>2015-11-29T10:49:57Z</time>
      </trkpt>
      <trkpt lat="43.50762" lon="3.0544">
        <ele>598</ele>
        <time>2015-11-29T10:49:58Z</time>
      </trkpt>
      <trkpt lat="43.50763" lon="3.0544">
        <ele>595.5</ele>
        <time>2015-11-29T10:50:01Z</time>
      </trkpt>
      <trkpt lat="43.50761" lon="3.05439">
        <ele>595.5</ele>
        <time>2015-11-29T10:50:03Z</time>
      </trkpt>
      <trkpt lat="43.50761" lon="3.05438">
        <ele>595.5</ele>
        <time>2015-11-29T10:50:04Z</time>
      </trkpt>
      <trkpt lat="43.5076" lon="3.05437">
        <ele>595.5</ele>
        <time>2015-11-29T10:50:05Z</time>
      </trkpt>
      <trkpt lat="43.5076" lon="3.05436">
        <ele>595.5</ele>
        <time>2015-11-29T10:50:06Z</time>
      </trkpt>
      <trkpt lat="43.5076" lon="3.05435">
        <ele>595.5</ele>
        <time>2015-11-29T10:50:07Z</time>
      </trkpt>
      <trkpt lat="43.5076" lon="3.05434">
        <ele>596</ele>
        <time>2015-11-29T10:50:08Z</time>
      </trkpt>
      <trkpt lat="43.5076" lon="3.05432">
        <ele>595</ele>
        <time>2015-11-29T10:50:16Z</time>
      </trkpt>
      <trkpt lat="43.50758" lon="3.0543">
        <ele>595.5</ele>
        <time>2015-11-29T10:50:18Z</time>
      </trkpt>
      <trkpt lat="43.50758" lon="3.0543">
        <ele>595.5</ele>
        <time>2015-11-29T10:50:19Z</time>
      </trkpt>
      <trkpt lat="43.50758" lon="3.0543">
        <ele>595.5</ele>
        <time>2015-11-29T10:50:20Z</time>
      </trkpt>
      <trkpt lat="43.50757" lon="3.05431">
        <ele>595.5</ele>
        <time>2015-11-29T10:50:21Z</time>
      </trkpt>
      <trkpt lat="43.50757" lon="3.05432">
        <ele>596</ele>
        <time>2015-11-29T10:50:22Z</time>
      </trkpt>
      <trkpt lat="43.50758" lon="3.05433">
        <ele>595</ele>
        <time>2015-11-29T10:50:24Z</time>
      </trkpt>
      <trkpt lat="43.50758" lon="3.05433">
        <ele>593.5</ele>
        <time>2015-11-29T10:50:31Z</time>
      </trkpt>
      <trkpt lat="43.50759" lon="3.05432">
        <ele>592.5</ele>
        <time>2015-11-29T10:50:33Z</time>
      </trkpt>
      <trkpt lat="43.5076" lon="3.05432">
        <ele>592.5</ele>
        <time>2015-11-29T10:50:34Z</time>
      </trkpt>
      <trkpt lat="43.50759" lon="3.05432">
        <ele>592</ele>
        <time>2015-11-29T10:50:35Z</time>
      </trkpt>
      <trkpt lat="43.5076" lon="3.0543">
        <ele>591.5</ele>
        <time>2015-11-29T10:50:39Z</time>
      </trkpt>
      <trkpt lat="43.50758" lon="3.0543">
        <ele>592</ele>
        <time>2015-11-29T10:50:42Z</time>
      </trkpt>
      <trkpt lat="43.5076" lon="3.05435">
        <ele>592.5</ele>
        <time>2015-11-29T10:51:00Z</time>
      </trkpt>
      <trkpt lat="43.5076" lon="3.05433">
        <ele>592.5</ele>
        <time>2015-11-29T10:51:10Z</time>
      </trkpt>
      <trkpt lat="43.5076" lon="3.05432">
        <ele>592.5</ele>
        <time>2015-11-29T10:51:17Z</time>
      </trkpt>
      <trkpt lat="43.50759" lon="3.05431">
        <ele>594</ele>
        <time>2015-11-29T10:51:20Z</time>
      </trkpt>
      <trkpt lat="43.50759" lon="3.05429">
        <ele>595</ele>
        <time>2015-11-29T10:51:24Z</time>
      </trkpt>
      <trkpt lat="43.50759" lon="3.05431">
        <ele>595.5</ele>
        <time>2015-11-29T10:51:34Z</time>
      </trkpt>
      <trkpt lat="43.50758" lon="3.05431">
        <ele>595.5</ele>
        <time>2015-11-29T10:51:45Z</time>
      </trkpt>
      <trkpt lat="43.50757" lon="3.05434">
        <ele>596</ele>
        <time>2015-11-29T10:51:47Z</time>
      </trkpt>
      <trkpt lat="43.50757" lon="3.05434">
        <ele>596</ele>
        <time>2015-11-29T10:51:48Z</time>
      </trkpt>
      <trkpt lat="43.50758" lon="3.05435">
        <ele>596</ele>
        <time>2015-11-29T10:51:49Z</time>
      </trkpt>
      <trkpt lat="43.50757" lon="3.05436">
        <ele>595.5</ele>
        <time>2015-11-29T10:51:50Z</time>
      </trkpt>
      <trkpt lat="43.50758" lon="3.05438">
        <ele>595.5</ele>
        <time>2015-11-29T10:51:51Z</time>
      </trkpt>
      <trkpt lat="43.50758" lon="3.0544">
        <ele>595</ele>
        <time>2015-11-29T10:51:52Z</time>
      </trkpt>
      <trkpt lat="43.50758" lon="3.05441">
        <ele>595</ele>
        <time>2015-11-29T10:51:53Z</time>
      </trkpt>
      <trkpt lat="43.50757" lon="3.05442">
        <ele>594.5</ele>
        <time>2015-11-29T10:51:54Z</time>
      </trkpt>
      <trkpt lat="43.50757" lon="3.05443">
        <ele>594.5</ele>
        <time>2015-11-29T10:51:55Z</time>
      </trkpt>
      <trkpt lat="43.50757" lon="3.05444">
        <ele>594</ele>
        <time>2015-11-29T10:51:56Z</time>
      </trkpt>
      <trkpt lat="43.50758" lon="3.05445">
        <ele>594</ele>
        <time>2015-11-29T10:51:57Z</time>
      </trkpt>
      <trkpt lat="43.50758" lon="3.05446">
        <ele>592.5</ele>
        <time>2015-11-29T10:51:58Z</time>
      </trkpt>
      <trkpt lat="43.50758" lon="3.05445">
        <ele>591.5</ele>
        <time>2015-11-29T10:52:02Z</time>
      </trkpt>
      <trkpt lat="43.50759" lon="3.05448">
        <ele>589.5</ele>
        <time>2015-11-29T10:52:07Z</time>
      </trkpt>
      <trkpt lat="43.50759" lon="3.05448">
        <ele>589.5</ele>
        <time>2015-11-29T10:52:09Z</time>
      </trkpt>
      <trkpt lat="43.5076" lon="3.05447">
        <ele>589</ele>
        <time>2015-11-29T10:52:10Z</time>
      </trkpt>
      <trkpt lat="43.5076" lon="3.05445">
        <ele>589.5</ele>
        <time>2015-11-29T10:52:11Z</time>
      </trkpt>
      <trkpt lat="43.5076" lon="3.05444">
        <ele>589.5</ele>
        <time>2015-11-29T10:52:12Z</time>
      </trkpt>
      <trkpt lat="43.50759" lon="3.05443">
        <ele>589.5</ele>
        <time>2015-11-29T10:52:13Z</time>
      </trkpt>
      <trkpt lat="43.5076" lon="3.05443">
        <ele>590.5</ele>
        <time>2015-11-29T10:52:14Z</time>
      </trkpt>
      <trkpt lat="43.5076" lon="3.05442">
        <ele>591</ele>
        <time>2015-11-29T10:52:15Z</time>
      </trkpt>
      <trkpt lat="43.5076" lon="3.05441">
        <ele>591</ele>
        <time>2015-11-29T10:52:17Z</time>
      </trkpt>
      <trkpt lat="43.5076" lon="3.0544">
        <ele>591</ele>
        <time>2015-11-29T10:52:18Z</time>
      </trkpt>
      <trkpt lat="43.5076" lon="3.05439">
        <ele>591.5</ele>
        <time>2015-11-29T10:52:19Z</time>
      </trkpt>
      <trkpt lat="43.5076" lon="3.05438">
        <ele>591.5</ele>
        <time>2015-11-29T10:52:20Z</time>
      </trkpt>
      <trkpt lat="43.5076" lon="3.05437">
        <ele>591.5</ele>
        <time>2015-11-29T10:52:21Z</time>
      </trkpt>
      <trkpt lat="43.50759" lon="3.05436">
        <ele>591.5</ele>
        <time>2015-11-29T10:52:22Z</time>
      </trkpt>
      <trkpt lat="43.5076" lon="3.05437">
        <ele>590.5</ele>
        <time>2015-11-29T10:52:25Z</time>
      </trkpt>
      <trkpt lat="43.5076" lon="3.05435">
        <ele>591</ele>
        <time>2015-11-29T10:52:28Z</time>
      </trkpt>
      <trkpt lat="43.50761" lon="3.05435">
        <ele>590.5</ele>
        <time>2015-11-29T10:52:30Z</time>
      </trkpt>
      <trkpt lat="43.50761" lon="3.05434">
        <ele>590.5</ele>
        <time>2015-11-29T10:52:31Z</time>
      </trkpt>
      <trkpt lat="43.50762" lon="3.05434">
        <ele>590.5</ele>
        <time>2015-11-29T10:52:32Z</time>
      </trkpt>
      <trkpt lat="43.50761" lon="3.05432">
        <ele>591</ele>
        <time>2015-11-29T10:52:33Z</time>
      </trkpt>
      <trkpt lat="43.50761" lon="3.05432">
        <ele>591</ele>
        <time>2015-11-29T10:52:34Z</time>
      </trkpt>
      <trkpt lat="43.50761" lon="3.0543">
        <ele>590.5</ele>
        <time>2015-11-29T10:52:35Z</time>
      </trkpt>
      <trkpt lat="43.50761" lon="3.05429">
        <ele>592</ele>
        <time>2015-11-29T10:52:37Z</time>
      </trkpt>
      <trkpt lat="43.5076" lon="3.05428">
        <ele>592.5</ele>
        <time>2015-11-29T10:52:50Z</time>
      </trkpt>
      <trkpt lat="43.5076" lon="3.05427">
        <ele>592.5</ele>
        <time>2015-11-29T10:52:52Z</time>
      </trkpt>
      <trkpt lat="43.5076" lon="3.05428">
        <ele>591.5</ele>
        <time>2015-11-29T10:52:54Z</time>
      </trkpt>
      <trkpt lat="43.5076" lon="3.05431">
        <ele>590</ele>
        <time>2015-11-29T10:53:00Z</time>
      </trkpt>
      <trkpt lat="43.5076" lon="3.05431">
        <ele>590</ele>
        <time>2015-11-29T10:53:01Z</time>
      </trkpt>
      <trkpt lat="43.50761" lon="3.05432">
        <ele>589</ele>
        <time>2015-11-29T10:53:12Z</time>
      </trkpt>
      <trkpt lat="43.50761" lon="3.05432">
        <ele>588.5</ele>
        <time>2015-11-29T10:53:16Z</time>
      </trkpt>
      <trkpt lat="43.50761" lon="3.05435">
        <ele>589.5</ele>
        <time>2015-11-29T10:53:24Z</time>
      </trkpt>
      <trkpt lat="43.50762" lon="3.05433">
        <ele>590.5</ele>
        <time>2015-11-29T10:53:56Z</time>
      </trkpt>
      <trkpt lat="43.50761" lon="3.05434">
        <ele>591</ele>
        <time>2015-11-29T10:54:00Z</time>
      </trkpt>
      <trkpt lat="43.5076" lon="3.05435">
        <ele>592</ele>
        <time>2015-11-29T10:54:04Z</time>
      </trkpt>
      <trkpt lat="43.5076" lon="3.05435">
        <ele>592</ele>
        <time>2015-11-29T10:54:15Z</time>
      </trkpt>
      <trkpt lat="43.50759" lon="3.05436">
        <ele>592.5</ele>
        <time>2015-11-29T10:54:16Z</time>
      </trkpt>
      <trkpt lat="43.50762" lon="3.05435">
        <ele>592</ele>
        <time>2015-11-29T10:53:46Z</time>
      </trkpt>
      <trkpt lat="43.50763" lon="3.05437">
        <ele>591.5</ele>
        <time>2015-11-29T10:53:48Z</time>
      </trkpt>
      <trkpt lat="43.50763" lon="3.05438">
        <ele>591.5</ele>
        <time>2015-11-29T10:53:49Z</time>
      </trkpt>
      <trkpt lat="43.50764" lon="3.0544">
        <ele>590</ele>
        <time>2015-11-29T10:53:50Z</time>
      </trkpt>
      <trkpt lat="43.50766" lon="3.05441">
        <ele>589</ele>
        <time>2015-11-29T10:53:51Z</time>
      </trkpt>
      <trkpt lat="43.50767" lon="3.0544">
        <ele>588.5</ele>
        <time>2015-11-29T10:53:52Z</time>
      </trkpt>
      <trkpt lat="43.50769" lon="3.05438">
        <ele>588</ele>
        <time>2015-11-29T10:53:54Z</time>
      </trkpt>
      <trkpt lat="43.50772" lon="3.05436">
        <ele>588</ele>
        <time>2015-11-29T10:53:54Z</time>
      </trkpt>
      <trkpt lat="43.50775" lon="3.05434">
        <ele>588</ele>
        <time>2015-11-29T10:53:55Z</time>
      </trkpt>
      <trkpt lat="43.50778" lon="3.05432">
        <ele>587</ele>
        <time>2015-11-29T10:53:57Z</time>
      </trkpt>
      <trkpt lat="43.5078" lon="3.0543">
        <ele>586.5</ele>
        <time>2015-11-29T10:53:57Z</time>
      </trkpt>
      <trkpt lat="43.50782" lon="3.05428">
        <ele>587</ele>
        <time>2015-11-29T10:53:59Z</time>
      </trkpt>
      <trkpt lat="43.50783" lon="3.05426">
        <ele>586</ele>
        <time>2015-11-29T10:53:59Z</time>
      </trkpt>
      <trkpt lat="43.50784" lon="3.05425">
        <ele>586.5</ele>
        <time>2015-11-29T10:54:00Z</time>
      </trkpt>
      <trkpt lat="43.50786" lon="3.05423">
        <ele>585</ele>
        <time>2015-11-29T10:54:01Z</time>
      </trkpt>
      <trkpt lat="43.50788" lon="3.0542">
        <ele>584</ele>
        <time>2015-11-29T10:54:02Z</time>
      </trkpt>
      <trkpt lat="43.50791" lon="3.05418">
        <ele>582.5</ele>
        <time>2015-11-29T10:54:03Z</time>
      </trkpt>
      <trkpt lat="43.50794" lon="3.05415">
        <ele>581.5</ele>
        <time>2015-11-29T10:54:04Z</time>
      </trkpt>
      <trkpt lat="43.50811" lon="3.05396">
        <ele>579</ele>
        <time>2015-11-29T10:56:31Z</time>
      </trkpt>
      <trkpt lat="43.50817" lon="3.05386">
        <ele>578.5</ele>
        <time>2015-11-29T10:56:33Z</time>
      </trkpt>
      <trkpt lat="43.50818" lon="3.05377">
        <ele>578</ele>
        <time>2015-11-29T10:56:35Z</time>
      </trkpt>
      <trkpt lat="43.5082" lon="3.05371">
        <ele>579.5</ele>
        <time>2015-11-29T10:56:36Z</time>
      </trkpt>
      <trkpt lat="43.50818" lon="3.05351">
        <ele>579.5</ele>
        <time>2015-11-29T10:56:38Z</time>
      </trkpt>
      <trkpt lat="43.50822" lon="3.05342">
        <ele>579.5</ele>
        <time>2015-11-29T10:56:39Z</time>
      </trkpt>
      <trkpt lat="43.50827" lon="3.05331">
        <ele>576</ele>
        <time>2015-11-29T10:56:42Z</time>
      </trkpt>
      <trkpt lat="43.50832" lon="3.05327">
        <ele>574.5</ele>
        <time>2015-11-29T10:56:43Z</time>
      </trkpt>
      <trkpt lat="43.50833" lon="3.05322">
        <ele>572</ele>
        <time>2015-11-29T10:56:45Z</time>
      </trkpt>
      <trkpt lat="43.50835" lon="3.0532">
        <ele>571.5</ele>
        <time>2015-11-29T10:56:46Z</time>
      </trkpt>
      <trkpt lat="43.50836" lon="3.0532">
        <ele>571.5</ele>
        <time>2015-11-29T10:56:47Z</time>
      </trkpt>
      <trkpt lat="43.50838" lon="3.05322">
        <ele>570.5</ele>
        <time>2015-11-29T10:56:48Z</time>
      </trkpt>
      <trkpt lat="43.50838" lon="3.05326">
        <ele>570.5</ele>
        <time>2015-11-29T10:56:49Z</time>
      </trkpt>
      <trkpt lat="43.50838" lon="3.05329">
        <ele>568</ele>
        <time>2015-11-29T10:56:50Z</time>
      </trkpt>
      <trkpt lat="43.5084" lon="3.0533">
        <ele>567.5</ele>
        <time>2015-11-29T10:56:51Z</time>
      </trkpt>
      <trkpt lat="43.50841" lon="3.05331">
        <ele>566</ele>
        <time>2015-11-29T10:56:52Z</time>
      </trkpt>
      <trkpt lat="43.50843" lon="3.05329">
        <ele>564.5</ele>
        <time>2015-11-29T10:56:53Z</time>
      </trkpt>
      <trkpt lat="43.50845" lon="3.05327">
        <ele>562.5</ele>
        <time>2015-11-29T10:56:55Z</time>
      </trkpt>
      <trkpt lat="43.50854" lon="3.05312">
        <ele>562.5</ele>
        <time>2015-11-29T10:56:58Z</time>
      </trkpt>
      <trkpt lat="43.5086" lon="3.05291">
        <ele>560.5</ele>
        <time>2015-11-29T10:57:01Z</time>
      </trkpt>
      <trkpt lat="43.5086" lon="3.05278">
        <ele>560</ele>
        <time>2015-11-29T10:57:03Z</time>
      </trkpt>
      <trkpt lat="43.50865" lon="3.05274">
        <ele>559.5</ele>
        <time>2015-11-29T10:57:04Z</time>
      </trkpt>
      <trkpt lat="43.50866" lon="3.05269">
        <ele>560.5</ele>
        <time>2015-11-29T10:57:05Z</time>
      </trkpt>
      <trkpt lat="43.50869" lon="3.05268">
        <ele>560.5</ele>
        <time>2015-11-29T10:57:06Z</time>
      </trkpt>
      <trkpt lat="43.5087" lon="3.0527">
        <ele>560.5</ele>
        <time>2015-11-29T10:57:07Z</time>
      </trkpt>
      <trkpt lat="43.50873" lon="3.05273">
        <ele>559</ele>
        <time>2015-11-29T10:57:08Z</time>
      </trkpt>
      <trkpt lat="43.50875" lon="3.05274">
        <ele>557</ele>
        <time>2015-11-29T10:57:09Z</time>
      </trkpt>
      <trkpt lat="43.50881" lon="3.05283">
        <ele>553.5</ele>
        <time>2015-11-29T10:57:11Z</time>
      </trkpt>
      <trkpt lat="43.50884" lon="3.05287">
        <ele>552.5</ele>
        <time>2015-11-29T10:57:12Z</time>
      </trkpt>
      <trkpt lat="43.50887" lon="3.0529">
        <ele>552.5</ele>
        <time>2015-11-29T10:57:13Z</time>
      </trkpt>
      <trkpt lat="43.50885" lon="3.0529">
        <ele>551.5</ele>
        <time>2015-11-29T10:57:14Z</time>
      </trkpt>
      <trkpt lat="43.50886" lon="3.05289">
        <ele>552.5</ele>
        <time>2015-11-29T10:57:15Z</time>
      </trkpt>
      <trkpt lat="43.50887" lon="3.05288">
        <ele>552.5</ele>
        <time>2015-11-29T10:57:16Z</time>
      </trkpt>
      <trkpt lat="43.50884" lon="3.05279">
        <ele>552</ele>
        <time>2015-11-29T10:57:18Z</time>
      </trkpt>
      <trkpt lat="43.50885" lon="3.05276">
        <ele>550.5</ele>
        <time>2015-11-29T10:57:19Z</time>
      </trkpt>
      <trkpt lat="43.50887" lon="3.05274">
        <ele>548</ele>
        <time>2015-11-29T10:57:20Z</time>
      </trkpt>
      <trkpt lat="43.50887" lon="3.05272">
        <ele>547.5</ele>
        <time>2015-11-29T10:57:21Z</time>
      </trkpt>
      <trkpt lat="43.50889" lon="3.05269">
        <ele>548</ele>
        <time>2015-11-29T10:57:22Z</time>
      </trkpt>
      <trkpt lat="43.50892" lon="3.05268">
        <ele>547</ele>
        <time>2015-11-29T10:57:23Z</time>
      </trkpt>
      <trkpt lat="43.50894" lon="3.0527">
        <ele>545</ele>
        <time>2015-11-29T10:57:24Z</time>
      </trkpt>
      <trkpt lat="43.50903" lon="3.05276">
        <ele>546</ele>
        <time>2015-11-29T10:57:26Z</time>
      </trkpt>
      <trkpt lat="43.50906" lon="3.05279">
        <ele>543.5</ele>
        <time>2015-11-29T10:57:27Z</time>
      </trkpt>
      <trkpt lat="43.50918" lon="3.05282">
        <ele>538.5</ele>
        <time>2015-11-29T10:57:29Z</time>
      </trkpt>
      <trkpt lat="43.50923" lon="3.05283">
        <ele>537</ele>
        <time>2015-11-29T10:57:30Z</time>
      </trkpt>
      <trkpt lat="43.50928" lon="3.05285">
        <ele>536.5</ele>
        <time>2015-11-29T10:57:31Z</time>
      </trkpt>
      <trkpt lat="43.50932" lon="3.05286">
        <ele>536.5</ele>
        <time>2015-11-29T10:57:32Z</time>
      </trkpt>
      <trkpt lat="43.50933" lon="3.05289">
        <ele>537.5</ele>
        <time>2015-11-29T10:57:33Z</time>
      </trkpt>
      <trkpt lat="43.50934" lon="3.0529">
        <ele>536.5</ele>
        <time>2015-11-29T10:57:34Z</time>
      </trkpt>
      <trkpt lat="43.50956" lon="3.05289">
        <ele>533</ele>
        <time>2015-11-29T10:58:05Z</time>
      </trkpt>
      <trkpt lat="43.50958" lon="3.05292">
        <ele>533.5</ele>
        <time>2015-11-29T10:58:07Z</time>
      </trkpt>
      <trkpt lat="43.50958" lon="3.05294">
        <ele>533.5</ele>
        <time>2015-11-29T10:58:08Z</time>
      </trkpt>
      <trkpt lat="43.50958" lon="3.05296">
        <ele>532.5</ele>
        <time>2015-11-29T10:58:09Z</time>
      </trkpt>
      <trkpt lat="43.50957" lon="3.05299">
        <ele>534.5</ele>
        <time>2015-11-29T10:58:10Z</time>
      </trkpt>
      <trkpt lat="43.50958" lon="3.05304">
        <ele>533.5</ele>
        <time>2015-11-29T10:58:11Z</time>
      </trkpt>
      <trkpt lat="43.50959" lon="3.05309">
        <ele>533.5</ele>
        <time>2015-11-29T10:58:12Z</time>
      </trkpt>
      <trkpt lat="43.5096" lon="3.05313">
        <ele>532.5</ele>
        <time>2015-11-29T10:58:13Z</time>
      </trkpt>
      <trkpt lat="43.50955" lon="3.05325">
        <ele>531.5</ele>
        <time>2015-11-29T10:58:15Z</time>
      </trkpt>
      <trkpt lat="43.50952" lon="3.05331">
        <ele>529.5</ele>
        <time>2015-11-29T10:58:16Z</time>
      </trkpt>
      <trkpt lat="43.50948" lon="3.05338">
        <ele>528</ele>
        <time>2015-11-29T10:58:17Z</time>
      </trkpt>
      <trkpt lat="43.50944" lon="3.05346">
        <ele>526</ele>
        <time>2015-11-29T10:58:18Z</time>
      </trkpt>
      <trkpt lat="43.50938" lon="3.05354">
        <ele>524.5</ele>
        <time>2015-11-29T10:58:19Z</time>
      </trkpt>
      <trkpt lat="43.50935" lon="3.05362">
        <ele>525</ele>
        <time>2015-11-29T10:58:20Z</time>
      </trkpt>
      <trkpt lat="43.50931" lon="3.05371">
        <ele>524</ele>
        <time>2015-11-29T10:58:21Z</time>
      </trkpt>
      <trkpt lat="43.50927" lon="3.05379">
        <ele>522.5</ele>
        <time>2015-11-29T10:58:22Z</time>
      </trkpt>
      <trkpt lat="43.50927" lon="3.05388">
        <ele>522</ele>
        <time>2015-11-29T10:58:23Z</time>
      </trkpt>
      <trkpt lat="43.50926" lon="3.05399">
        <ele>522</ele>
        <time>2015-11-29T10:58:24Z</time>
      </trkpt>
      <trkpt lat="43.50924" lon="3.0541">
        <ele>520</ele>
        <time>2015-11-29T10:58:25Z</time>
      </trkpt>
      <trkpt lat="43.50922" lon="3.05421">
        <ele>518</ele>
        <time>2015-11-29T10:58:26Z</time>
      </trkpt>
      <trkpt lat="43.50921" lon="3.05432">
        <ele>517.5</ele>
        <time>2015-11-29T10:58:27Z</time>
      </trkpt>
      <trkpt lat="43.5092" lon="3.05444">
        <ele>516</ele>
        <time>2015-11-29T10:58:28Z</time>
      </trkpt>
      <trkpt lat="43.50918" lon="3.05453">
        <ele>515</ele>
        <time>2015-11-29T10:58:29Z</time>
      </trkpt>
      <trkpt lat="43.50917" lon="3.05463">
        <ele>514</ele>
        <time>2015-11-29T10:58:30Z</time>
      </trkpt>
      <trkpt lat="43.50916" lon="3.05472">
        <ele>513.5</ele>
        <time>2015-11-29T10:58:31Z</time>
      </trkpt>
      <trkpt lat="43.50915" lon="3.0548">
        <ele>512</ele>
        <time>2015-11-29T10:58:32Z</time>
      </trkpt>
      <trkpt lat="43.50913" lon="3.0549">
        <ele>509.5</ele>
        <time>2015-11-29T10:58:33Z</time>
      </trkpt>
      <trkpt lat="43.50911" lon="3.055">
        <ele>507.5</ele>
        <time>2015-11-29T10:58:34Z</time>
      </trkpt>
      <trkpt lat="43.5091" lon="3.0551">
        <ele>507.5</ele>
        <time>2015-11-29T10:58:35Z</time>
      </trkpt>
      <trkpt lat="43.50909" lon="3.05521">
        <ele>506.5</ele>
        <time>2015-11-29T10:58:36Z</time>
      </trkpt>
      <trkpt lat="43.50906" lon="3.05532">
        <ele>505</ele>
        <time>2015-11-29T10:58:37Z</time>
      </trkpt>
      <trkpt lat="43.50903" lon="3.05544">
        <ele>503</ele>
        <time>2015-11-29T10:58:38Z</time>
      </trkpt>
      <trkpt lat="43.50901" lon="3.05556">
        <ele>501</ele>
        <time>2015-11-29T10:58:39Z</time>
      </trkpt>
      <trkpt lat="43.50899" lon="3.05569">
        <ele>500.5</ele>
        <time>2015-11-29T10:58:40Z</time>
      </trkpt>
      <trkpt lat="43.50897" lon="3.0558">
        <ele>498</ele>
        <time>2015-11-29T10:58:41Z</time>
      </trkpt>
      <trkpt lat="43.50894" lon="3.0559">
        <ele>496</ele>
        <time>2015-11-29T10:58:42Z</time>
      </trkpt>
      <trkpt lat="43.50892" lon="3.05601">
        <ele>495</ele>
        <time>2015-11-29T10:58:43Z</time>
      </trkpt>
      <trkpt lat="43.5089" lon="3.05612">
        <ele>493.5</ele>
        <time>2015-11-29T10:58:44Z</time>
      </trkpt>
      <trkpt lat="43.50888" lon="3.05623">
        <ele>492.5</ele>
        <time>2015-11-29T10:58:45Z</time>
      </trkpt>
      <trkpt lat="43.50886" lon="3.05638">
        <ele>492</ele>
        <time>2015-11-29T10:58:47Z</time>
      </trkpt>
      <trkpt lat="43.50884" lon="3.05644">
        <ele>491</ele>
        <time>2015-11-29T10:58:48Z</time>
      </trkpt>
      <trkpt lat="43.50882" lon="3.05648">
        <ele>490</ele>
        <time>2015-11-29T10:58:49Z</time>
      </trkpt>
      <trkpt lat="43.50882" lon="3.05651">
        <ele>489</ele>
        <time>2015-11-29T10:58:50Z</time>
      </trkpt>
      <trkpt lat="43.50881" lon="3.05653">
        <ele>487.5</ele>
        <time>2015-11-29T10:58:58Z</time>
      </trkpt>
      <trkpt lat="43.50879" lon="3.05659">
        <ele>484.5</ele>
        <time>2015-11-29T10:59:00Z</time>
      </trkpt>
      <trkpt lat="43.50875" lon="3.0567">
        <ele>482</ele>
        <time>2015-11-29T10:59:02Z</time>
      </trkpt>
      <trkpt lat="43.50877" lon="3.0567">
        <ele>482.5</ele>
        <time>2015-11-29T10:59:04Z</time>
      </trkpt>
      <trkpt lat="43.50879" lon="3.05669">
        <ele>483.5</ele>
        <time>2015-11-29T10:59:05Z</time>
      </trkpt>
      <trkpt lat="43.50883" lon="3.05666">
        <ele>483</ele>
        <time>2015-11-29T10:59:06Z</time>
      </trkpt>
      <trkpt lat="43.50885" lon="3.05663">
        <ele>481.5</ele>
        <time>2015-11-29T10:59:07Z</time>
      </trkpt>
      <trkpt lat="43.50889" lon="3.05661">
        <ele>481</ele>
        <time>2015-11-29T10:59:08Z</time>
      </trkpt>
      <trkpt lat="43.50891" lon="3.0566">
        <ele>481</ele>
        <time>2015-11-29T10:59:09Z</time>
      </trkpt>
      <trkpt lat="43.50889" lon="3.05665">
        <ele>481</ele>
        <time>2015-11-29T10:59:10Z</time>
      </trkpt>
      <trkpt lat="43.5089" lon="3.05669">
        <ele>480.5</ele>
        <time>2015-11-29T10:59:11Z</time>
      </trkpt>
      <trkpt lat="43.50886" lon="3.05685">
        <ele>480</ele>
        <time>2015-11-29T10:59:13Z</time>
      </trkpt>
      <trkpt lat="43.50887" lon="3.05693">
        <ele>480</ele>
        <time>2015-11-29T10:59:14Z</time>
      </trkpt>
      <trkpt lat="43.50889" lon="3.05702">
        <ele>479</ele>
        <time>2015-11-29T10:59:15Z</time>
      </trkpt>
      <trkpt lat="43.5089" lon="3.05711">
        <ele>479</ele>
        <time>2015-11-29T10:59:16Z</time>
      </trkpt>
      <trkpt lat="43.50893" lon="3.05719">
        <ele>479</ele>
        <time>2015-11-29T10:59:17Z</time>
      </trkpt>
      <trkpt lat="43.50896" lon="3.05727">
        <ele>479</ele>
        <time>2015-11-29T10:59:18Z</time>
      </trkpt>
      <trkpt lat="43.50897" lon="3.05736">
        <ele>479</ele>
        <time>2015-11-29T10:59:19Z</time>
      </trkpt>
      <trkpt lat="43.50898" lon="3.05746">
        <ele>477</ele>
        <time>2015-11-29T10:59:20Z</time>
      </trkpt>
      <trkpt lat="43.509" lon="3.05754">
        <ele>475.5</ele>
        <time>2015-11-29T10:59:21Z</time>
      </trkpt>
      <trkpt lat="43.50899" lon="3.05764">
        <ele>475</ele>
        <time>2015-11-29T10:59:23Z</time>
      </trkpt>
      <trkpt lat="43.50898" lon="3.0577">
        <ele>473.5</ele>
        <time>2015-11-29T10:59:24Z</time>
      </trkpt>
      <trkpt lat="43.50903" lon="3.05779">
        <ele>471</ele>
        <time>2015-11-29T10:59:26Z</time>
      </trkpt>
      <trkpt lat="43.50905" lon="3.05785">
        <ele>471</ele>
        <time>2015-11-29T10:59:27Z</time>
      </trkpt>
      <trkpt lat="43.50905" lon="3.05791">
        <ele>470.5</ele>
        <time>2015-11-29T10:59:28Z</time>
      </trkpt>
      <trkpt lat="43.50904" lon="3.05796">
        <ele>470.5</ele>
        <time>2015-11-29T10:59:29Z</time>
      </trkpt>
      <trkpt lat="43.50903" lon="3.05801">
        <ele>470</ele>
        <time>2015-11-29T10:59:30Z</time>
      </trkpt>
      <trkpt lat="43.50901" lon="3.05806">
        <ele>469.5</ele>
        <time>2015-11-29T10:59:31Z</time>
      </trkpt>
      <trkpt lat="43.509" lon="3.05812">
        <ele>468.5</ele>
        <time>2015-11-29T10:59:32Z</time>
      </trkpt>
      <trkpt lat="43.50903" lon="3.05828">
        <ele>461</ele>
        <time>2015-11-29T10:59:34Z</time>
      </trkpt>
      <trkpt lat="43.50907" lon="3.05835">
        <ele>460</ele>
        <time>2015-11-29T10:59:35Z</time>
      </trkpt>
      <trkpt lat="43.50909" lon="3.05843">
        <ele>459.5</ele>
        <time>2015-11-29T10:59:36Z</time>
      </trkpt>
      <trkpt lat="43.50909" lon="3.05851">
        <ele>458</ele>
        <time>2015-11-29T10:59:36Z</time>
      </trkpt>
      <trkpt lat="43.50908" lon="3.05871">
        <ele>450.5</ele>
        <time>2015-11-29T10:59:39Z</time>
      </trkpt>
      <trkpt lat="43.50909" lon="3.05883">
        <ele>449.5</ele>
        <time>2015-11-29T10:59:40Z</time>
      </trkpt>
      <trkpt lat="43.50908" lon="3.05891">
        <ele>445.5</ele>
        <time>2015-11-29T10:59:41Z</time>
      </trkpt>
      <trkpt lat="43.50907" lon="3.05899">
        <ele>443.5</ele>
        <time>2015-11-29T10:59:42Z</time>
      </trkpt>
      <trkpt lat="43.50906" lon="3.05907">
        <ele>441</ele>
        <time>2015-11-29T10:59:43Z</time>
      </trkpt>
      <trkpt lat="43.50907" lon="3.05917">
        <ele>440.5</ele>
        <time>2015-11-29T10:59:44Z</time>
      </trkpt>
      <trkpt lat="43.50909" lon="3.05926">
        <ele>439.5</ele>
        <time>2015-11-29T10:59:45Z</time>
      </trkpt>
      <trkpt lat="43.50909" lon="3.05938">
        <ele>436.5</ele>
        <time>2015-11-29T10:59:46Z</time>
      </trkpt>
      <trkpt lat="43.50908" lon="3.05948">
        <ele>435</ele>
        <time>2015-11-29T10:59:48Z</time>
      </trkpt>
      <trkpt lat="43.50904" lon="3.05959">
        <ele>434.5</ele>
        <time>2015-11-29T10:59:48Z</time>
      </trkpt>
      <trkpt lat="43.50899" lon="3.05966">
        <ele>434</ele>
        <time>2015-11-29T10:59:49Z</time>
      </trkpt>
      <trkpt lat="43.50893" lon="3.05973">
        <ele>434</ele>
        <time>2015-11-29T10:59:50Z</time>
      </trkpt>
      <trkpt lat="43.50887" lon="3.0598">
        <ele>430.5</ele>
        <time>2015-11-29T10:59:56Z</time>
      </trkpt>
      <trkpt lat="43.50886" lon="3.0598">
        <ele>430</ele>
        <time>2015-11-29T10:59:58Z</time>
      </trkpt>
      <trkpt lat="43.50887" lon="3.0598">
        <ele>430.5</ele>
        <time>2015-11-29T10:59:59Z</time>
      </trkpt>
      <trkpt lat="43.50887" lon="3.0598">
        <ele>429</ele>
        <time>2015-11-29T11:00:00Z</time>
      </trkpt>
      <trkpt lat="43.50885" lon="3.05981">
        <ele>428</ele>
        <time>2015-11-29T11:00:01Z</time>
      </trkpt>
      <trkpt lat="43.50884" lon="3.05981">
        <ele>426.5</ele>
        <time>2015-11-29T11:00:02Z</time>
      </trkpt>
      <trkpt lat="43.50883" lon="3.05982">
        <ele>427</ele>
        <time>2015-11-29T11:00:03Z</time>
      </trkpt>
      <trkpt lat="43.50882" lon="3.05983">
        <ele>426.5</ele>
        <time>2015-11-29T11:00:04Z</time>
      </trkpt>
      <trkpt lat="43.50882" lon="3.05984">
        <ele>428</ele>
        <time>2015-11-29T11:00:05Z</time>
      </trkpt>
      <trkpt lat="43.50882" lon="3.05986">
        <ele>428</ele>
        <time>2015-11-29T11:00:06Z</time>
      </trkpt>
      <trkpt lat="43.50882" lon="3.05987">
        <ele>428.5</ele>
        <time>2015-11-29T11:00:07Z</time>
      </trkpt>
      <trkpt lat="43.50883" lon="3.05987">
        <ele>429</ele>
        <time>2015-11-29T11:00:08Z</time>
      </trkpt>
      <trkpt lat="43.50884" lon="3.05988">
        <ele>429.5</ele>
        <time>2015-11-29T11:00:09Z</time>
      </trkpt>
      <trkpt lat="43.50885" lon="3.05988">
        <ele>431</ele>
        <time>2015-11-29T11:00:10Z</time>
      </trkpt>
      <trkpt lat="43.50886" lon="3.05989">
        <ele>430.5</ele>
        <time>2015-11-29T11:00:11Z</time>
      </trkpt>
      <trkpt lat="43.50886" lon="3.05991">
        <ele>430</ele>
        <time>2015-11-29T11:00:12Z</time>
      </trkpt>
      <trkpt lat="43.50886" lon="3.05992">
        <ele>429.5</ele>
        <time>2015-11-29T11:00:13Z</time>
      </trkpt>
      <trkpt lat="43.5089" lon="3.05993">
        <ele>430</ele>
        <time>2015-11-29T11:00:19Z</time>
      </trkpt>
      <trkpt lat="43.5089" lon="3.05994">
        <ele>430.5</ele>
        <time>2015-11-29T11:00:21Z</time>
      </trkpt>
      <trkpt lat="43.5089" lon="3.05994">
        <ele>431.5</ele>
        <time>2015-11-29T11:00:22Z</time>
      </trkpt>
      <trkpt lat="43.50891" lon="3.05995">
        <ele>432</ele>
        <time>2015-11-29T11:00:24Z</time>
      </trkpt>
      <trkpt lat="43.50891" lon="3.05997">
        <ele>431.5</ele>
        <time>2015-11-29T11:00:25Z</time>
      </trkpt>
      <trkpt lat="43.50891" lon="3.05997">
        <ele>432</ele>
        <time>2015-11-29T11:00:26Z</time>
      </trkpt>
      <trkpt lat="43.50891" lon="3.05999">
        <ele>432</ele>
        <time>2015-11-29T11:00:27Z</time>
      </trkpt>
      <trkpt lat="43.50891" lon="3.06">
        <ele>433</ele>
        <time>2015-11-29T11:00:28Z</time>
      </trkpt>
      <trkpt lat="43.50891" lon="3.06002">
        <ele>432</ele>
        <time>2015-11-29T11:00:29Z</time>
      </trkpt>
      <trkpt lat="43.50891" lon="3.06004">
        <ele>432</ele>
        <time>2015-11-29T11:00:30Z</time>
      </trkpt>
      <trkpt lat="43.50891" lon="3.06006">
        <ele>431.5</ele>
        <time>2015-11-29T11:00:31Z</time>
      </trkpt>
      <trkpt lat="43.50891" lon="3.06007">
        <ele>431.5</ele>
        <time>2015-11-29T11:00:32Z</time>
      </trkpt>
      <trkpt lat="43.50892" lon="3.06009">
        <ele>431.5</ele>
        <time>2015-11-29T11:00:33Z</time>
      </trkpt>
      <trkpt lat="43.50892" lon="3.0601">
        <ele>431</ele>
        <time>2015-11-29T11:00:34Z</time>
      </trkpt>
      <trkpt lat="43.50892" lon="3.06012">
        <ele>431</ele>
        <time>2015-11-29T11:00:35Z</time>
      </trkpt>
      <trkpt lat="43.50893" lon="3.06013">
        <ele>431.5</ele>
        <time>2015-11-29T11:00:36Z</time>
      </trkpt>
      <trkpt lat="43.50893" lon="3.06015">
        <ele>431</ele>
        <time>2015-11-29T11:00:37Z</time>
      </trkpt>
      <trkpt lat="43.50894" lon="3.06017">
        <ele>430.5</ele>
        <time>2015-11-29T11:00:38Z</time>
      </trkpt>
      <trkpt lat="43.50894" lon="3.06018">
        <ele>430.5</ele>
        <time>2015-11-29T11:00:39Z</time>
      </trkpt>
      <trkpt lat="43.50893" lon="3.06018">
        <ele>430.5</ele>
        <time>2015-11-29T11:00:40Z</time>
      </trkpt>
      <trkpt lat="43.50893" lon="3.06018">
        <ele>430.5</ele>
        <time>2015-11-29T11:00:45Z</time>
      </trkpt>
      <trkpt lat="43.50893" lon="3.0602">
        <ele>430.5</ele>
        <time>2015-11-29T11:00:49Z</time>
      </trkpt>
      <trkpt lat="43.50893" lon="3.06022">
        <ele>430</ele>
        <time>2015-11-29T11:00:52Z</time>
      </trkpt>
      <trkpt lat="43.5089" lon="3.06028">
        <ele>429.5</ele>
        <time>2015-11-29T11:00:54Z</time>
      </trkpt>
      <trkpt lat="43.50892" lon="3.06029">
        <ele>429.5</ele>
        <time>2015-11-29T11:00:55Z</time>
      </trkpt>
      <trkpt lat="43.50892" lon="3.06032">
        <ele>429.5</ele>
        <time>2015-11-29T11:00:56Z</time>
      </trkpt>
      <trkpt lat="43.50891" lon="3.06036">
        <ele>428</ele>
        <time>2015-11-29T11:00:57Z</time>
      </trkpt>
      <trkpt lat="43.50893" lon="3.0604">
        <ele>428.5</ele>
        <time>2015-11-29T11:00:58Z</time>
      </trkpt>
      <trkpt lat="43.50892" lon="3.06045">
        <ele>428</ele>
        <time>2015-11-29T11:00:59Z</time>
      </trkpt>
      <trkpt lat="43.50891" lon="3.06049">
        <ele>428</ele>
        <time>2015-11-29T11:01:00Z</time>
      </trkpt>
      <trkpt lat="43.50892" lon="3.06053">
        <ele>429.5</ele>
        <time>2015-11-29T11:01:01Z</time>
      </trkpt>
      <trkpt lat="43.50891" lon="3.0606">
        <ele>428</ele>
        <time>2015-11-29T11:01:02Z</time>
      </trkpt>
      <trkpt lat="43.50889" lon="3.06077">
        <ele>426</ele>
        <time>2015-11-29T11:01:04Z</time>
      </trkpt>
      <trkpt lat="43.50889" lon="3.06085">
        <ele>425</ele>
        <time>2015-11-29T11:01:05Z</time>
      </trkpt>
      <trkpt lat="43.5089" lon="3.06094">
        <ele>425</ele>
        <time>2015-11-29T11:01:06Z</time>
      </trkpt>
      <trkpt lat="43.5089" lon="3.06102">
        <ele>425</ele>
        <time>2015-11-29T11:01:07Z</time>
      </trkpt>
      <trkpt lat="43.5089" lon="3.06108">
        <ele>425.5</ele>
        <time>2015-11-29T11:01:08Z</time>
      </trkpt>
      <trkpt lat="43.50891" lon="3.06112">
        <ele>425</ele>
        <time>2015-11-29T11:01:09Z</time>
      </trkpt>
      <trkpt lat="43.50892" lon="3.06115">
        <ele>423.5</ele>
        <time>2015-11-29T11:01:10Z</time>
      </trkpt>
      <trkpt lat="43.50894" lon="3.06117">
        <ele>423</ele>
        <time>2015-11-29T11:01:11Z</time>
      </trkpt>
      <trkpt lat="43.50896" lon="3.06119">
        <ele>422.5</ele>
        <time>2015-11-29T11:01:12Z</time>
      </trkpt>
      <trkpt lat="43.50898" lon="3.06121">
        <ele>421</ele>
        <time>2015-11-29T11:01:13Z</time>
      </trkpt>
      <trkpt lat="43.50898" lon="3.06124">
        <ele>421</ele>
        <time>2015-11-29T11:01:14Z</time>
      </trkpt>
      <trkpt lat="43.50885" lon="3.0614">
        <ele>420</ele>
        <time>2015-11-29T11:01:17Z</time>
      </trkpt>
      <trkpt lat="43.50882" lon="3.06144">
        <ele>420</ele>
        <time>2015-11-29T11:01:18Z</time>
      </trkpt>
      <trkpt lat="43.50881" lon="3.06153">
        <ele>420</ele>
        <time>2015-11-29T11:01:20Z</time>
      </trkpt>
      <trkpt lat="43.50878" lon="3.06155">
        <ele>418.5</ele>
        <time>2015-11-29T11:01:21Z</time>
      </trkpt>
      <trkpt lat="43.50876" lon="3.06158">
        <ele>416.5</ele>
        <time>2015-11-29T11:01:22Z</time>
      </trkpt>
      <trkpt lat="43.50871" lon="3.06166">
        <ele>415.5</ele>
        <time>2015-11-29T11:01:24Z</time>
      </trkpt>
      <trkpt lat="43.50869" lon="3.06169">
        <ele>414.5</ele>
        <time>2015-11-29T11:01:25Z</time>
      </trkpt>
      <trkpt lat="43.50867" lon="3.06172">
        <ele>413</ele>
        <time>2015-11-29T11:01:26Z</time>
      </trkpt>
      <trkpt lat="43.50868" lon="3.06177">
        <ele>413</ele>
        <time>2015-11-29T11:01:27Z</time>
      </trkpt>
      <trkpt lat="43.50866" lon="3.06183">
        <ele>413.5</ele>
        <time>2015-11-29T11:01:28Z</time>
      </trkpt>
      <trkpt lat="43.50865" lon="3.06189">
        <ele>413.5</ele>
        <time>2015-11-29T11:01:29Z</time>
      </trkpt>
      <trkpt lat="43.50865" lon="3.06195">
        <ele>412</ele>
        <time>2015-11-29T11:01:30Z</time>
      </trkpt>
      <trkpt lat="43.50864" lon="3.06201">
        <ele>411</ele>
        <time>2015-11-29T11:01:31Z</time>
      </trkpt>
      <trkpt lat="43.50864" lon="3.06207">
        <ele>411.5</ele>
        <time>2015-11-29T11:01:32Z</time>
      </trkpt>
      <trkpt lat="43.50865" lon="3.06214">
        <ele>411</ele>
        <time>2015-11-29T11:01:33Z</time>
      </trkpt>
      <trkpt lat="43.50864" lon="3.06219">
        <ele>411</ele>
        <time>2015-11-29T11:01:34Z</time>
      </trkpt>
      <trkpt lat="43.50866" lon="3.0622">
        <ele>411.5</ele>
        <time>2015-11-29T11:01:35Z</time>
      </trkpt>
      <trkpt lat="43.50866" lon="3.06221">
        <ele>411.5</ele>
        <time>2015-11-29T11:01:36Z</time>
      </trkpt>
      <trkpt lat="43.50868" lon="3.06221">
        <ele>412.5</ele>
        <time>2015-11-29T11:01:37Z</time>
      </trkpt>
      <trkpt lat="43.50871" lon="3.06217">
        <ele>411</ele>
        <time>2015-11-29T11:01:39Z</time>
      </trkpt>
      <trkpt lat="43.50872" lon="3.06214">
        <ele>411</ele>
        <time>2015-11-29T11:01:40Z</time>
      </trkpt>
      <trkpt lat="43.50873" lon="3.06222">
        <ele>407.5</ele>
        <time>2015-11-29T11:01:42Z</time>
      </trkpt>
      <trkpt lat="43.50874" lon="3.06226">
        <ele>407.5</ele>
        <time>2015-11-29T11:01:43Z</time>
      </trkpt>
      <trkpt lat="43.50874" lon="3.06232">
        <ele>407.5</ele>
        <time>2015-11-29T11:01:44Z</time>
      </trkpt>
      <trkpt lat="43.50874" lon="3.06249">
        <ele>402.5</ele>
        <time>2015-11-29T11:01:46Z</time>
      </trkpt>
      <trkpt lat="43.50873" lon="3.06257">
        <ele>400</ele>
        <time>2015-11-29T11:01:47Z</time>
      </trkpt>
      <trkpt lat="43.50871" lon="3.06265">
        <ele>400</ele>
        <time>2015-11-29T11:01:48Z</time>
      </trkpt>
      <trkpt lat="43.50871" lon="3.06274">
        <ele>398</ele>
        <time>2015-11-29T11:01:49Z</time>
      </trkpt>
      <trkpt lat="43.50869" lon="3.06283">
        <ele>396</ele>
        <time>2015-11-29T11:01:50Z</time>
      </trkpt>
      <trkpt lat="43.50868" lon="3.06291">
        <ele>396.5</ele>
        <time>2015-11-29T11:01:51Z</time>
      </trkpt>
      <trkpt lat="43.50866" lon="3.06301">
        <ele>394.5</ele>
        <time>2015-11-29T11:01:52Z</time>
      </trkpt>
      <trkpt lat="43.50864" lon="3.0631">
        <ele>393.5</ele>
        <time>2015-11-29T11:01:53Z</time>
      </trkpt>
      <trkpt lat="43.50862" lon="3.06316">
        <ele>393.5</ele>
        <time>2015-11-29T11:01:54Z</time>
      </trkpt>
      <trkpt lat="43.50861" lon="3.06326">
        <ele>393</ele>
        <time>2015-11-29T11:01:55Z</time>
      </trkpt>
      <trkpt lat="43.50859" lon="3.06337">
        <ele>391.5</ele>
        <time>2015-11-29T11:01:56Z</time>
      </trkpt>
      <trkpt lat="43.50856" lon="3.06345">
        <ele>391</ele>
        <time>2015-11-29T11:01:57Z</time>
      </trkpt>
      <trkpt lat="43.50852" lon="3.06353">
        <ele>390.5</ele>
        <time>2015-11-29T11:01:58Z</time>
      </trkpt>
      <trkpt lat="43.5085" lon="3.06361">
        <ele>391</ele>
        <time>2015-11-29T11:01:59Z</time>
      </trkpt>
      <trkpt lat="43.5085" lon="3.06369">
        <ele>390.5</ele>
        <time>2015-11-29T11:02:00Z</time>
      </trkpt>
      <trkpt lat="43.50846" lon="3.06377">
        <ele>389</ele>
        <time>2015-11-29T11:02:01Z</time>
      </trkpt>
      <trkpt lat="43.50842" lon="3.06382">
        <ele>388.5</ele>
        <time>2015-11-29T11:02:02Z</time>
      </trkpt>
      <trkpt lat="43.50835" lon="3.06387">
        <ele>387.5</ele>
        <time>2015-11-29T11:02:03Z</time>
      </trkpt>
      <trkpt lat="43.50829" lon="3.06392">
        <ele>385</ele>
        <time>2015-11-29T11:02:04Z</time>
      </trkpt>
      <trkpt lat="43.50822" lon="3.06398">
        <ele>383.5</ele>
        <time>2015-11-29T11:02:05Z</time>
      </trkpt>
      <trkpt lat="43.50818" lon="3.06406">
        <ele>382.5</ele>
        <time>2015-11-29T11:02:06Z</time>
      </trkpt>
      <trkpt lat="43.50811" lon="3.06426">
        <ele>384</ele>
        <time>2015-11-29T11:02:08Z</time>
      </trkpt>
      <trkpt lat="43.50812" lon="3.06439">
        <ele>382.5</ele>
        <time>2015-11-29T11:02:10Z</time>
      </trkpt>
      <trkpt lat="43.50815" lon="3.06445">
        <ele>382</ele>
        <time>2015-11-29T11:02:11Z</time>
      </trkpt>
      <trkpt lat="43.50818" lon="3.06451">
        <ele>381.5</ele>
        <time>2015-11-29T11:02:12Z</time>
      </trkpt>
      <trkpt lat="43.50821" lon="3.06458">
        <ele>380.5</ele>
        <time>2015-11-29T11:02:13Z</time>
      </trkpt>
      <trkpt lat="43.50826" lon="3.06466">
        <ele>379</ele>
        <time>2015-11-29T11:02:14Z</time>
      </trkpt>
      <trkpt lat="43.5083" lon="3.06475">
        <ele>376</ele>
        <time>2015-11-29T11:02:15Z</time>
      </trkpt>
      <trkpt lat="43.50833" lon="3.06483">
        <ele>374.5</ele>
        <time>2015-11-29T11:02:16Z</time>
      </trkpt>
      <trkpt lat="43.50835" lon="3.06493">
        <ele>373</ele>
        <time>2015-11-29T11:02:17Z</time>
      </trkpt>
      <trkpt lat="43.50835" lon="3.06503">
        <ele>373</ele>
        <time>2015-11-29T11:02:18Z</time>
      </trkpt>
      <trkpt lat="43.50833" lon="3.06513">
        <ele>371</ele>
        <time>2015-11-29T11:02:19Z</time>
      </trkpt>
      <trkpt lat="43.50832" lon="3.06523">
        <ele>369.5</ele>
        <time>2015-11-29T11:02:20Z</time>
      </trkpt>
      <trkpt lat="43.50831" lon="3.06534">
        <ele>367</ele>
        <time>2015-11-29T11:02:21Z</time>
      </trkpt>
      <trkpt lat="43.50829" lon="3.06545">
        <ele>366</ele>
        <time>2015-11-29T11:02:22Z</time>
      </trkpt>
      <trkpt lat="43.50827" lon="3.06556">
        <ele>364</ele>
        <time>2015-11-29T11:02:23Z</time>
      </trkpt>
      <trkpt lat="43.50825" lon="3.06566">
        <ele>361.5</ele>
        <time>2015-11-29T11:02:24Z</time>
      </trkpt>
      <trkpt lat="43.50822" lon="3.06577">
        <ele>358</ele>
        <time>2015-11-29T11:02:25Z</time>
      </trkpt>
      <trkpt lat="43.50821" lon="3.06586">
        <ele>356</ele>
        <time>2015-11-29T11:02:26Z</time>
      </trkpt>
      <trkpt lat="43.50818" lon="3.06597">
        <ele>349.5</ele>
        <time>2015-11-29T11:02:38Z</time>
      </trkpt>
      <trkpt lat="43.50816" lon="3.06601">
        <ele>346</ele>
        <time>2015-11-29T11:03:06Z</time>
      </trkpt>
      <trkpt lat="43.50815" lon="3.06601">
        <ele>345.5</ele>
        <time>2015-11-29T11:03:08Z</time>
      </trkpt>
      <trkpt lat="43.50816" lon="3.06602">
        <ele>345.5</ele>
        <time>2015-11-29T11:03:12Z</time>
      </trkpt>
      <trkpt lat="43.50816" lon="3.06605">
        <ele>346</ele>
        <time>2015-11-29T11:03:37Z</time>
      </trkpt>
      <trkpt lat="43.50815" lon="3.06606">
        <ele>346.5</ele>
        <time>2015-11-29T11:03:40Z</time>
      </trkpt>
      <trkpt lat="43.50814" lon="3.06609">
        <ele>347</ele>
        <time>2015-11-29T11:03:42Z</time>
      </trkpt>
      <trkpt lat="43.50814" lon="3.06611">
        <ele>347.5</ele>
        <time>2015-11-29T11:03:43Z</time>
      </trkpt>
      <trkpt lat="43.50815" lon="3.06624">
        <ele>349</ele>
        <time>2015-11-29T11:03:45Z</time>
      </trkpt>
      <trkpt lat="43.50815" lon="3.06632">
        <ele>348</ele>
        <time>2015-11-29T11:03:46Z</time>
      </trkpt>
      <trkpt lat="43.50816" lon="3.0664">
        <ele>346.5</ele>
        <time>2015-11-29T11:03:47Z</time>
      </trkpt>
      <trkpt lat="43.50821" lon="3.06648">
        <ele>348</ele>
        <time>2015-11-29T11:03:49Z</time>
      </trkpt>
      <trkpt lat="43.50826" lon="3.06652">
        <ele>346.5</ele>
        <time>2015-11-29T11:03:50Z</time>
      </trkpt>
      <trkpt lat="43.50829" lon="3.06659">
        <ele>346.5</ele>
        <time>2015-11-29T11:03:51Z</time>
      </trkpt>
      <trkpt lat="43.5083" lon="3.06668">
        <ele>346</ele>
        <time>2015-11-29T11:03:52Z</time>
      </trkpt>
      <trkpt lat="43.50831" lon="3.06677">
        <ele>346</ele>
        <time>2015-11-29T11:03:53Z</time>
      </trkpt>
      <trkpt lat="43.50832" lon="3.06687">
        <ele>345</ele>
        <time>2015-11-29T11:03:54Z</time>
      </trkpt>
      <trkpt lat="43.50829" lon="3.0671">
        <ele>346</ele>
        <time>2015-11-29T11:03:56Z</time>
      </trkpt>
      <trkpt lat="43.50829" lon="3.0672">
        <ele>346.5</ele>
        <time>2015-11-29T11:03:57Z</time>
      </trkpt>
      <trkpt lat="43.5083" lon="3.06731">
        <ele>346.5</ele>
        <time>2015-11-29T11:03:58Z</time>
      </trkpt>
      <trkpt lat="43.50831" lon="3.06741">
        <ele>344.5</ele>
        <time>2015-11-29T11:03:59Z</time>
      </trkpt>
      <trkpt lat="43.50833" lon="3.06751">
        <ele>343</ele>
        <time>2015-11-29T11:04:00Z</time>
      </trkpt>
      <trkpt lat="43.50835" lon="3.06761">
        <ele>341.5</ele>
        <time>2015-11-29T11:04:01Z</time>
      </trkpt>
      <trkpt lat="43.50837" lon="3.06771">
        <ele>341.5</ele>
        <time>2015-11-29T11:04:02Z</time>
      </trkpt>
      <trkpt lat="43.5084" lon="3.0678">
        <ele>339.5</ele>
        <time>2015-11-29T11:04:03Z</time>
      </trkpt>
      <trkpt lat="43.50841" lon="3.0679">
        <ele>337</ele>
        <time>2015-11-29T11:04:04Z</time>
      </trkpt>
      <trkpt lat="43.50841" lon="3.06796">
        <ele>334</ele>
        <time>2015-11-29T11:04:08Z</time>
      </trkpt>
      <trkpt lat="43.50841" lon="3.06797">
        <ele>333.5</ele>
        <time>2015-11-29T11:04:09Z</time>
      </trkpt>
      <trkpt lat="43.5084" lon="3.06797">
        <ele>332.5</ele>
        <time>2015-11-29T11:04:12Z</time>
      </trkpt>
      <trkpt lat="43.5084" lon="3.06798">
        <ele>329</ele>
        <time>2015-11-29T11:04:20Z</time>
      </trkpt>
      <trkpt lat="43.50841" lon="3.068">
        <ele>327.5</ele>
        <time>2015-11-29T11:04:36Z</time>
      </trkpt>
      <trkpt lat="43.50841" lon="3.06803">
        <ele>327</ele>
        <time>2015-11-29T11:04:38Z</time>
      </trkpt>
      <trkpt lat="43.50842" lon="3.06805">
        <ele>326</ele>
        <time>2015-11-29T11:04:39Z</time>
      </trkpt>
      <trkpt lat="43.50843" lon="3.06807">
        <ele>326</ele>
        <time>2015-11-29T11:04:40Z</time>
      </trkpt>
      <trkpt lat="43.50844" lon="3.06809">
        <ele>326</ele>
        <time>2015-11-29T11:04:41Z</time>
      </trkpt>
      <trkpt lat="43.50845" lon="3.06811">
        <ele>325.5</ele>
        <time>2015-11-29T11:04:42Z</time>
      </trkpt>
      <trkpt lat="43.50847" lon="3.06812">
        <ele>325.5</ele>
        <time>2015-11-29T11:04:43Z</time>
      </trkpt>
      <trkpt lat="43.50849" lon="3.06811">
        <ele>326</ele>
        <time>2015-11-29T11:04:44Z</time>
      </trkpt>
      <trkpt lat="43.50851" lon="3.06809">
        <ele>326.5</ele>
        <time>2015-11-29T11:04:45Z</time>
      </trkpt>
      <trkpt lat="43.50852" lon="3.06808">
        <ele>327</ele>
        <time>2015-11-29T11:04:46Z</time>
      </trkpt>
      <trkpt lat="43.50853" lon="3.06806">
        <ele>327</ele>
        <time>2015-11-29T11:04:47Z</time>
      </trkpt>
      <trkpt lat="43.50853" lon="3.06803">
        <ele>326.5</ele>
        <time>2015-11-29T11:04:48Z</time>
      </trkpt>
      <trkpt lat="43.50852" lon="3.06801">
        <ele>327.5</ele>
        <time>2015-11-29T11:04:49Z</time>
      </trkpt>
      <trkpt lat="43.50851" lon="3.06799">
        <ele>327.5</ele>
        <time>2015-11-29T11:04:50Z</time>
      </trkpt>
      <trkpt lat="43.50851" lon="3.06794">
        <ele>326.5</ele>
        <time>2015-11-29T11:04:51Z</time>
      </trkpt>
      <trkpt lat="43.5085" lon="3.06793">
        <ele>327</ele>
        <time>2015-11-29T11:04:52Z</time>
      </trkpt>
      <trkpt lat="43.50849" lon="3.0679">
        <ele>327.5</ele>
        <time>2015-11-29T11:04:53Z</time>
      </trkpt>
      <trkpt lat="43.50848" lon="3.06787">
        <ele>328</ele>
        <time>2015-11-29T11:04:54Z</time>
      </trkpt>
      <trkpt lat="43.50847" lon="3.06785">
        <ele>327.5</ele>
        <time>2015-11-29T11:04:55Z</time>
      </trkpt>
      <trkpt lat="43.50847" lon="3.06783">
        <ele>327.5</ele>
        <time>2015-11-29T11:04:56Z</time>
      </trkpt>
      <trkpt lat="43.50846" lon="3.0678">
        <ele>327</ele>
        <time>2015-11-29T11:04:57Z</time>
      </trkpt>
      <trkpt lat="43.50846" lon="3.06778">
        <ele>326.5</ele>
        <time>2015-11-29T11:04:58Z</time>
      </trkpt>
      <trkpt lat="43.50845" lon="3.06775">
        <ele>327</ele>
        <time>2015-11-29T11:04:59Z</time>
      </trkpt>
      <trkpt lat="43.50845" lon="3.06771">
        <ele>326</ele>
        <time>2015-11-29T11:05:00Z</time>
      </trkpt>
      <trkpt lat="43.50844" lon="3.06769">
        <ele>327.5</ele>
        <time>2015-11-29T11:05:01Z</time>
      </trkpt>
      <trkpt lat="43.50843" lon="3.06766">
        <ele>328</ele>
        <time>2015-11-29T11:05:02Z</time>
      </trkpt>
      <trkpt lat="43.50843" lon="3.06764">
        <ele>328.5</ele>
        <time>2015-11-29T11:05:03Z</time>
      </trkpt>
      <trkpt lat="43.50842" lon="3.06762">
        <ele>328</ele>
        <time>2015-11-29T11:05:04Z</time>
      </trkpt>
      <trkpt lat="43.50842" lon="3.06759">
        <ele>328</ele>
        <time>2015-11-29T11:05:05Z</time>
      </trkpt>
      <trkpt lat="43.50841" lon="3.06757">
        <ele>328</ele>
        <time>2015-11-29T11:05:06Z</time>
      </trkpt>
      <trkpt lat="43.50841" lon="3.06754">
        <ele>328.5</ele>
        <time>2015-11-29T11:05:07Z</time>
      </trkpt>
      <trkpt lat="43.5084" lon="3.06752">
        <ele>328.5</ele>
        <time>2015-11-29T11:05:08Z</time>
      </trkpt>
      <trkpt lat="43.5084" lon="3.0675">
        <ele>327.5</ele>
        <time>2015-11-29T11:05:09Z</time>
      </trkpt>
      <trkpt lat="43.50839" lon="3.06742">
        <ele>328.5</ele>
        <time>2015-11-29T11:05:11Z</time>
      </trkpt>
      <trkpt lat="43.50839" lon="3.0674">
        <ele>328</ele>
        <time>2015-11-29T11:05:12Z</time>
      </trkpt>
      <trkpt lat="43.50838" lon="3.06738">
        <ele>328.5</ele>
        <time>2015-11-29T11:05:13Z</time>
      </trkpt>
      <trkpt lat="43.50838" lon="3.06735">
        <ele>328.5</ele>
        <time>2015-11-29T11:05:14Z</time>
      </trkpt>
      <trkpt lat="43.50838" lon="3.06733">
        <ele>329</ele>
        <time>2015-11-29T11:05:15Z</time>
      </trkpt>
      <trkpt lat="43.50837" lon="3.06731">
        <ele>329</ele>
        <time>2015-11-29T11:05:16Z</time>
      </trkpt>
      <trkpt lat="43.50837" lon="3.06729">
        <ele>329.5</ele>
        <time>2015-11-29T11:05:17Z</time>
      </trkpt>
      <trkpt lat="43.50836" lon="3.06726">
        <ele>331</ele>
        <time>2015-11-29T11:05:18Z</time>
      </trkpt>
      <trkpt lat="43.50835" lon="3.06723">
        <ele>332.5</ele>
        <time>2015-11-29T11:05:19Z</time>
      </trkpt>
      <trkpt lat="43.50835" lon="3.0672">
        <ele>333.5</ele>
        <time>2015-11-29T11:05:20Z</time>
      </trkpt>
      <trkpt lat="43.50835" lon="3.06718">
        <ele>334</ele>
        <time>2015-11-29T11:05:21Z</time>
      </trkpt>
      <trkpt lat="43.50834" lon="3.06715">
        <ele>335</ele>
        <time>2015-11-29T11:05:22Z</time>
      </trkpt>
      <trkpt lat="43.50834" lon="3.06713">
        <ele>336</ele>
        <time>2015-11-29T11:05:23Z</time>
      </trkpt>
      <trkpt lat="43.50833" lon="3.0671">
        <ele>337</ele>
        <time>2015-11-29T11:05:24Z</time>
      </trkpt>
      <trkpt lat="43.50833" lon="3.06707">
        <ele>337.5</ele>
        <time>2015-11-29T11:05:25Z</time>
      </trkpt>
      <trkpt lat="43.50833" lon="3.06703">
        <ele>338</ele>
        <time>2015-11-29T11:05:26Z</time>
      </trkpt>
      <trkpt lat="43.50833" lon="3.06701">
        <ele>337.5</ele>
        <time>2015-11-29T11:05:27Z</time>
      </trkpt>
      <trkpt lat="43.50833" lon="3.06697">
        <ele>337</ele>
        <time>2015-11-29T11:05:28Z</time>
      </trkpt>
      <trkpt lat="43.50833" lon="3.06694">
        <ele>337.5</ele>
        <time>2015-11-29T11:05:29Z</time>
      </trkpt>
      <trkpt lat="43.50834" lon="3.06692">
        <ele>336</ele>
        <time>2015-11-29T11:05:30Z</time>
      </trkpt>
      <trkpt lat="43.50833" lon="3.06689">
        <ele>336.5</ele>
        <time>2015-11-29T11:05:31Z</time>
      </trkpt>
      <trkpt lat="43.50833" lon="3.06687">
        <ele>336.5</ele>
        <time>2015-11-29T11:05:32Z</time>
      </trkpt>
      <trkpt lat="43.50833" lon="3.06685">
        <ele>337</ele>
        <time>2015-11-29T11:05:33Z</time>
      </trkpt>
      <trkpt lat="43.50833" lon="3.06683">
        <ele>337</ele>
        <time>2015-11-29T11:05:34Z</time>
      </trkpt>
      <trkpt lat="43.50833" lon="3.0668">
        <ele>337</ele>
        <time>2015-11-29T11:05:35Z</time>
      </trkpt>
      <trkpt lat="43.50834" lon="3.06678">
        <ele>335.5</ele>
        <time>2015-11-29T11:05:36Z</time>
      </trkpt>
      <trkpt lat="43.50834" lon="3.06676">
        <ele>335.5</ele>
        <time>2015-11-29T11:05:37Z</time>
      </trkpt>
      <trkpt lat="43.50833" lon="3.06673">
        <ele>336</ele>
        <time>2015-11-29T11:05:38Z</time>
      </trkpt>
      <trkpt lat="43.50833" lon="3.06671">
        <ele>337</ele>
        <time>2015-11-29T11:05:39Z</time>
      </trkpt>
      <trkpt lat="43.50834" lon="3.06668">
        <ele>336.5</ele>
        <time>2015-11-29T11:05:40Z</time>
      </trkpt>
      <trkpt lat="43.50834" lon="3.06666">
        <ele>336.5</ele>
        <time>2015-11-29T11:05:41Z</time>
      </trkpt>
      <trkpt lat="43.50834" lon="3.06663">
        <ele>336</ele>
        <time>2015-11-29T11:05:42Z</time>
      </trkpt>
      <trkpt lat="43.50834" lon="3.0666">
        <ele>336</ele>
        <time>2015-11-29T11:05:43Z</time>
      </trkpt>
      <trkpt lat="43.50834" lon="3.06658">
        <ele>336</ele>
        <time>2015-11-29T11:05:44Z</time>
      </trkpt>
      <trkpt lat="43.50834" lon="3.06655">
        <ele>335.5</ele>
        <time>2015-11-29T11:05:45Z</time>
      </trkpt>
      <trkpt lat="43.50834" lon="3.06653">
        <ele>336</ele>
        <time>2015-11-29T11:05:46Z</time>
      </trkpt>
      <trkpt lat="43.50834" lon="3.06651">
        <ele>335.5</ele>
        <time>2015-11-29T11:05:47Z</time>
      </trkpt>
      <trkpt lat="43.50834" lon="3.06648">
        <ele>335.5</ele>
        <time>2015-11-29T11:05:48Z</time>
      </trkpt>
      <trkpt lat="43.50834" lon="3.06646">
        <ele>336</ele>
        <time>2015-11-29T11:05:49Z</time>
      </trkpt>
      <trkpt lat="43.50834" lon="3.06644">
        <ele>336</ele>
        <time>2015-11-29T11:05:50Z</time>
      </trkpt>
      <trkpt lat="43.50834" lon="3.06641">
        <ele>336</ele>
        <time>2015-11-29T11:05:51Z</time>
      </trkpt>
      <trkpt lat="43.50834" lon="3.06639">
        <ele>337</ele>
        <time>2015-11-29T11:05:52Z</time>
      </trkpt>
      <trkpt lat="43.50834" lon="3.06636">
        <ele>337</ele>
        <time>2015-11-29T11:05:53Z</time>
      </trkpt>
      <trkpt lat="43.50834" lon="3.06633">
        <ele>337</ele>
        <time>2015-11-29T11:05:54Z</time>
      </trkpt>
      <trkpt lat="43.50834" lon="3.06631">
        <ele>336.5</ele>
        <time>2015-11-29T11:05:55Z</time>
      </trkpt>
      <trkpt lat="43.50833" lon="3.06629">
        <ele>337</ele>
        <time>2015-11-29T11:05:56Z</time>
      </trkpt>
      <trkpt lat="43.50833" lon="3.06626">
        <ele>337.5</ele>
        <time>2015-11-29T11:05:57Z</time>
      </trkpt>
      <trkpt lat="43.50831" lon="3.06624">
        <ele>338.5</ele>
        <time>2015-11-29T11:05:58Z</time>
      </trkpt>
      <trkpt lat="43.5083" lon="3.06622">
        <ele>338.5</ele>
        <time>2015-11-29T11:05:59Z</time>
      </trkpt>
      <trkpt lat="43.50829" lon="3.0662">
        <ele>338.5</ele>
        <time>2015-11-29T11:06:00Z</time>
      </trkpt>
      <trkpt lat="43.50828" lon="3.0662">
        <ele>337</ele>
        <time>2015-11-29T11:06:01Z</time>
      </trkpt>
      <trkpt lat="43.50826" lon="3.06618">
        <ele>337.5</ele>
        <time>2015-11-29T11:06:01Z</time>
      </trkpt>
      <trkpt lat="43.50825" lon="3.06618">
        <ele>337.5</ele>
        <time>2015-11-29T11:06:02Z</time>
      </trkpt>
      <trkpt lat="43.5082" lon="3.06616">
        <ele>341.5</ele>
        <time>2015-11-29T11:06:05Z</time>
      </trkpt>
      <trkpt lat="43.50819" lon="3.06615">
        <ele>342</ele>
        <time>2015-11-29T11:06:05Z</time>
      </trkpt>
      <trkpt lat="43.50817" lon="3.06615">
        <ele>342.5</ele>
        <time>2015-11-29T11:06:07Z</time>
      </trkpt>
      <trkpt lat="43.50816" lon="3.06615">
        <ele>343.5</ele>
        <time>2015-11-29T11:06:07Z</time>
      </trkpt>
      <trkpt lat="43.50814" lon="3.06615">
        <ele>344.5</ele>
        <time>2015-11-29T11:06:08Z</time>
      </trkpt>
      <trkpt lat="43.50813" lon="3.06615">
        <ele>344</ele>
        <time>2015-11-29T11:06:09Z</time>
      </trkpt>
      <trkpt lat="43.50812" lon="3.06616">
        <ele>344.5</ele>
        <time>2015-11-29T11:06:10Z</time>
      </trkpt>
      <trkpt lat="43.50811" lon="3.06616">
        <ele>345</ele>
        <time>2015-11-29T11:06:11Z</time>
      </trkpt>
      <trkpt lat="43.50811" lon="3.06616">
        <ele>345.5</ele>
        <time>2015-11-29T11:06:12Z</time>
      </trkpt>
      <trkpt lat="43.50812" lon="3.06617">
        <ele>346.5</ele>
        <time>2015-11-29T11:06:13Z</time>
      </trkpt>
      <trkpt lat="43.50812" lon="3.06614">
        <ele>346.5</ele>
        <time>2015-11-29T11:06:19Z</time>
      </trkpt>
      <trkpt lat="43.50812" lon="3.06609">
        <ele>346.5</ele>
        <time>2015-11-29T11:06:43Z</time>
      </trkpt>
      <trkpt lat="43.50811" lon="3.06609">
        <ele>344.5</ele>
        <time>2015-11-29T11:06:52Z</time>
      </trkpt>
      <trkpt lat="43.50812" lon="3.06609">
        <ele>346</ele>
        <time>2015-11-29T11:07:04Z</time>
      </trkpt>
      <trkpt lat="43.50813" lon="3.06605">
        <ele>344</ele>
        <time>2015-11-29T11:07:06Z</time>
      </trkpt>
      <trkpt lat="43.50815" lon="3.06606">
        <ele>346</ele>
        <time>2015-11-29T11:07:24Z</time>
      </trkpt>
      <trkpt lat="43.50814" lon="3.06606">
        <ele>345</ele>
        <time>2015-11-29T11:07:27Z</time>
      </trkpt>
      <trkpt lat="43.50814" lon="3.06606">
        <ele>345</ele>
        <time>2015-11-29T11:07:29Z</time>
      </trkpt>
      <trkpt lat="43.50816" lon="3.06607">
        <ele>346.5</ele>
        <time>2015-11-29T11:07:50Z</time>
      </trkpt>
      <trkpt lat="43.50816" lon="3.0661">
        <ele>346</ele>
        <time>2015-11-29T11:07:52Z</time>
      </trkpt>
      <trkpt lat="43.50817" lon="3.06621">
        <ele>348</ele>
        <time>2015-11-29T11:07:54Z</time>
      </trkpt>
      <trkpt lat="43.50817" lon="3.06629">
        <ele>348.5</ele>
        <time>2015-11-29T11:07:55Z</time>
      </trkpt>
      <trkpt lat="43.50818" lon="3.06637">
        <ele>346.5</ele>
        <time>2015-11-29T11:07:57Z</time>
      </trkpt>
      <trkpt lat="43.50819" lon="3.06644">
        <ele>345.5</ele>
        <time>2015-11-29T11:07:57Z</time>
      </trkpt>
      <trkpt lat="43.50824" lon="3.0665">
        <ele>344.5</ele>
        <time>2015-11-29T11:07:59Z</time>
      </trkpt>
      <trkpt lat="43.50828" lon="3.06654">
        <ele>343</ele>
        <time>2015-11-29T11:08:00Z</time>
      </trkpt>
      <trkpt lat="43.50833" lon="3.06671">
        <ele>343</ele>
        <time>2015-11-29T11:08:03Z</time>
      </trkpt>
      <trkpt lat="43.50835" lon="3.06681">
        <ele>344</ele>
        <time>2015-11-29T11:08:03Z</time>
      </trkpt>
      <trkpt lat="43.50833" lon="3.06697">
        <ele>344.5</ele>
        <time>2015-11-29T11:08:06Z</time>
      </trkpt>
      <trkpt lat="43.50831" lon="3.06709">
        <ele>342</ele>
        <time>2015-11-29T11:08:06Z</time>
      </trkpt>
      <trkpt lat="43.50832" lon="3.0673">
        <ele>340.5</ele>
        <time>2015-11-29T11:08:08Z</time>
      </trkpt>
      <trkpt lat="43.50834" lon="3.06741">
        <ele>339.5</ele>
        <time>2015-11-29T11:08:09Z</time>
      </trkpt>
      <trkpt lat="43.50835" lon="3.06751">
        <ele>339.5</ele>
        <time>2015-11-29T11:08:11Z</time>
      </trkpt>
      <trkpt lat="43.50839" lon="3.06773">
        <ele>338.5</ele>
        <time>2015-11-29T11:08:12Z</time>
      </trkpt>
      <trkpt lat="43.50841" lon="3.06783">
        <ele>338</ele>
        <time>2015-11-29T11:08:13Z</time>
      </trkpt>
      <trkpt lat="43.50838" lon="3.06796">
        <ele>328.5</ele>
        <time>2015-11-29T11:08:29Z</time>
      </trkpt>
      <trkpt lat="43.50837" lon="3.06794">
        <ele>328</ele>
        <time>2015-11-29T11:08:31Z</time>
      </trkpt>
      <trkpt lat="43.50838" lon="3.06794">
        <ele>327.5</ele>
        <time>2015-11-29T11:08:32Z</time>
      </trkpt>
      <trkpt lat="43.50839" lon="3.06795">
        <ele>327</ele>
        <time>2015-11-29T11:08:53Z</time>
      </trkpt>
      <trkpt lat="43.50839" lon="3.06796">
        <ele>327.5</ele>
        <time>2015-11-29T11:08:55Z</time>
      </trkpt>
      <trkpt lat="43.50839" lon="3.06797">
        <ele>327.5</ele>
        <time>2015-11-29T11:08:56Z</time>
      </trkpt>
      <trkpt lat="43.50839" lon="3.06797">
        <ele>327</ele>
        <time>2015-11-29T11:09:08Z</time>
      </trkpt>
      <trkpt lat="43.50839" lon="3.06797">
        <ele>327.5</ele>
        <time>2015-11-29T11:09:10Z</time>
      </trkpt>
      <trkpt lat="43.5084" lon="3.06797">
        <ele>327</ele>
        <time>2015-11-29T11:09:11Z</time>
      </trkpt>
      <trkpt lat="43.50838" lon="3.06798">
        <ele>327</ele>
        <time>2015-11-29T11:09:12Z</time>
      </trkpt>
      <trkpt lat="43.50839" lon="3.06797">
        <ele>327</ele>
        <time>2015-11-29T11:09:13Z</time>
      </trkpt>
      <trkpt lat="43.50839" lon="3.06797">
        <ele>326</ele>
        <time>2015-11-29T11:09:29Z</time>
      </trkpt>
      <trkpt lat="43.50838" lon="3.06802">
        <ele>328.5</ele>
        <time>2015-11-29T11:09:37Z</time>
      </trkpt>
      <trkpt lat="43.50837" lon="3.06802">
        <ele>329</ele>
        <time>2015-11-29T11:09:41Z</time>
      </trkpt>
      <trkpt lat="43.50837" lon="3.06802">
        <ele>329</ele>
        <time>2015-11-29T11:09:43Z</time>
      </trkpt>
      <trkpt lat="43.50837" lon="3.06802">
        <ele>330.5</ele>
        <time>2015-11-29T11:09:14Z</time>
      </trkpt>
      <trkpt lat="43.50837" lon="3.06802">
        <ele>330</ele>
        <time>2015-11-29T11:09:18Z</time>
      </trkpt>
      <trkpt lat="43.50836" lon="3.06804">
        <ele>330</ele>
        <time>2015-11-29T11:09:20Z</time>
      </trkpt>
      <trkpt lat="43.50835" lon="3.06807">
        <ele>329</ele>
        <time>2015-11-29T11:09:21Z</time>
      </trkpt>
      <trkpt lat="43.50836" lon="3.0681">
        <ele>329.5</ele>
        <time>2015-11-29T11:09:22Z</time>
      </trkpt>
      <trkpt lat="43.50836" lon="3.06814">
        <ele>329.5</ele>
        <time>2015-11-29T11:09:23Z</time>
      </trkpt>
      <trkpt lat="43.50838" lon="3.06819">
        <ele>329</ele>
        <time>2015-11-29T11:09:24Z</time>
      </trkpt>
      <trkpt lat="43.50838" lon="3.06824">
        <ele>327.5</ele>
        <time>2015-11-29T11:09:25Z</time>
      </trkpt>
      <trkpt lat="43.50839" lon="3.0683">
        <ele>326</ele>
        <time>2015-11-29T11:09:26Z</time>
      </trkpt>
      <trkpt lat="43.5084" lon="3.06837">
        <ele>325.5</ele>
        <time>2015-11-29T11:09:27Z</time>
      </trkpt>
      <trkpt lat="43.50843" lon="3.06842">
        <ele>326</ele>
        <time>2015-11-29T11:09:29Z</time>
      </trkpt>
      <trkpt lat="43.50843" lon="3.06849">
        <ele>326</ele>
        <time>2015-11-29T11:09:29Z</time>
      </trkpt>
      <trkpt lat="43.50843" lon="3.06856">
        <ele>327.5</ele>
        <time>2015-11-29T11:09:30Z</time>
      </trkpt>
      <trkpt lat="43.50843" lon="3.06865">
        <ele>325.5</ele>
        <time>2015-11-29T11:09:31Z</time>
      </trkpt>
      <trkpt lat="43.50845" lon="3.06871">
        <ele>326</ele>
        <time>2015-11-29T11:09:32Z</time>
      </trkpt>
      <trkpt lat="43.50849" lon="3.06875">
        <ele>325.5</ele>
        <time>2015-11-29T11:09:33Z</time>
      </trkpt>
      <trkpt lat="43.50852" lon="3.06879">
        <ele>323</ele>
        <time>2015-11-29T11:09:34Z</time>
      </trkpt>
      <trkpt lat="43.50857" lon="3.06884">
        <ele>323</ele>
        <time>2015-11-29T11:09:35Z</time>
      </trkpt>
      <trkpt lat="43.50859" lon="3.0689">
        <ele>324</ele>
        <time>2015-11-29T11:09:36Z</time>
      </trkpt>
      <trkpt lat="43.50862" lon="3.06898">
        <ele>324</ele>
        <time>2015-11-29T11:09:37Z</time>
      </trkpt>
      <trkpt lat="43.50863" lon="3.06908">
        <ele>321.5</ele>
        <time>2015-11-29T11:09:38Z</time>
      </trkpt>
      <trkpt lat="43.50863" lon="3.06915">
        <ele>321.5</ele>
        <time>2015-11-29T11:09:39Z</time>
      </trkpt>
      <trkpt lat="43.50863" lon="3.06922">
        <ele>321.5</ele>
        <time>2015-11-29T11:09:40Z</time>
      </trkpt>
      <trkpt lat="43.50862" lon="3.06931">
        <ele>321.5</ele>
        <time>2015-11-29T11:09:41Z</time>
      </trkpt>
      <trkpt lat="43.50862" lon="3.06941">
        <ele>320.5</ele>
        <time>2015-11-29T11:09:42Z</time>
      </trkpt>
      <trkpt lat="43.50861" lon="3.06951">
        <ele>319</ele>
        <time>2015-11-29T11:09:43Z</time>
      </trkpt>
      <trkpt lat="43.50861" lon="3.06962">
        <ele>318</ele>
        <time>2015-11-29T11:09:44Z</time>
      </trkpt>
      <trkpt lat="43.50859" lon="3.06972">
        <ele>316.5</ele>
        <time>2015-11-29T11:09:45Z</time>
      </trkpt>
      <trkpt lat="43.50858" lon="3.06984">
        <ele>314.5</ele>
        <time>2015-11-29T11:09:46Z</time>
      </trkpt>
      <trkpt lat="43.50856" lon="3.06994">
        <ele>313</ele>
        <time>2015-11-29T11:09:47Z</time>
      </trkpt>
      <trkpt lat="43.50855" lon="3.07003">
        <ele>312.5</ele>
        <time>2015-11-29T11:09:48Z</time>
      </trkpt>
      <trkpt lat="43.50856" lon="3.07016">
        <ele>308</ele>
        <time>2015-11-29T11:10:57Z</time>
      </trkpt>
      <trkpt lat="43.50857" lon="3.07017">
        <ele>307.5</ele>
        <time>2015-11-29T11:10:58Z</time>
      </trkpt>
      <trkpt lat="43.50859" lon="3.07015">
        <ele>307.5</ele>
        <time>2015-11-29T11:10:59Z</time>
      </trkpt>
      <trkpt lat="43.50866" lon="3.07008">
        <ele>306</ele>
        <time>2015-11-29T11:11:01Z</time>
      </trkpt>
      <trkpt lat="43.50869" lon="3.07004">
        <ele>305.5</ele>
        <time>2015-11-29T11:11:02Z</time>
      </trkpt>
      <trkpt lat="43.50871" lon="3.07001">
        <ele>304</ele>
        <time>2015-11-29T11:11:03Z</time>
      </trkpt>
      <trkpt lat="43.50874" lon="3.07001">
        <ele>302.5</ele>
        <time>2015-11-29T11:11:04Z</time>
      </trkpt>
      <trkpt lat="43.50876" lon="3.07004">
        <ele>302.5</ele>
        <time>2015-11-29T11:11:05Z</time>
      </trkpt>
      <trkpt lat="43.50875" lon="3.07017">
        <ele>302</ele>
        <time>2015-11-29T11:11:07Z</time>
      </trkpt>
      <trkpt lat="43.50874" lon="3.07024">
        <ele>302.5</ele>
        <time>2015-11-29T11:11:08Z</time>
      </trkpt>
      <trkpt lat="43.50872" lon="3.07031">
        <ele>303</ele>
        <time>2015-11-29T11:11:09Z</time>
      </trkpt>
      <trkpt lat="43.50868" lon="3.07037">
        <ele>303</ele>
        <time>2015-11-29T11:11:10Z</time>
      </trkpt>
      <trkpt lat="43.50869" lon="3.07043">
        <ele>303</ele>
        <time>2015-11-29T11:11:11Z</time>
      </trkpt>
      <trkpt lat="43.50863" lon="3.07061">
        <ele>302</ele>
        <time>2015-11-29T11:11:13Z</time>
      </trkpt>
      <trkpt lat="43.50863" lon="3.07071">
        <ele>301.5</ele>
        <time>2015-11-29T11:11:14Z</time>
      </trkpt>
      <trkpt lat="43.50863" lon="3.07081">
        <ele>301.5</ele>
        <time>2015-11-29T11:11:15Z</time>
      </trkpt>
      <trkpt lat="43.50861" lon="3.07091">
        <ele>300.5</ele>
        <time>2015-11-29T11:11:16Z</time>
      </trkpt>
      <trkpt lat="43.5086" lon="3.07101">
        <ele>300.5</ele>
        <time>2015-11-29T11:11:17Z</time>
      </trkpt>
      <trkpt lat="43.50858" lon="3.07113">
        <ele>298</ele>
        <time>2015-11-29T11:11:18Z</time>
      </trkpt>
      <trkpt lat="43.50857" lon="3.07124">
        <ele>296.5</ele>
        <time>2015-11-29T11:11:19Z</time>
      </trkpt>
      <trkpt lat="43.50856" lon="3.07135">
        <ele>296.5</ele>
        <time>2015-11-29T11:11:20Z</time>
      </trkpt>
      <trkpt lat="43.50855" lon="3.07146">
        <ele>296.5</ele>
        <time>2015-11-29T11:11:21Z</time>
      </trkpt>
      <trkpt lat="43.50856" lon="3.07154">
        <ele>296</ele>
        <time>2015-11-29T11:11:22Z</time>
      </trkpt>
      <trkpt lat="43.50855" lon="3.07161">
        <ele>296.5</ele>
        <time>2015-11-29T11:11:23Z</time>
      </trkpt>
      <trkpt lat="43.50854" lon="3.07168">
        <ele>295</ele>
        <time>2015-11-29T11:11:24Z</time>
      </trkpt>
      <trkpt lat="43.50854" lon="3.07176">
        <ele>295</ele>
        <time>2015-11-29T11:11:26Z</time>
      </trkpt>
      <trkpt lat="43.50854" lon="3.07181">
        <ele>294</ele>
        <time>2015-11-29T11:11:27Z</time>
      </trkpt>
      <trkpt lat="43.50853" lon="3.07196">
        <ele>292</ele>
        <time>2015-11-29T11:11:29Z</time>
      </trkpt>
      <trkpt lat="43.5085" lon="3.072">
        <ele>291</ele>
        <time>2015-11-29T11:11:30Z</time>
      </trkpt>
      <trkpt lat="43.50848" lon="3.07202">
        <ele>287.5</ele>
        <time>2015-11-29T11:11:32Z</time>
      </trkpt>
      <trkpt lat="43.50846" lon="3.07204">
        <ele>286</ele>
        <time>2015-11-29T11:11:37Z</time>
      </trkpt>
      <trkpt lat="43.50844" lon="3.07205">
        <ele>285</ele>
        <time>2015-11-29T11:11:43Z</time>
      </trkpt>
      <trkpt lat="43.50843" lon="3.07207">
        <ele>284</ele>
        <time>2015-11-29T11:11:47Z</time>
      </trkpt>
      <trkpt lat="43.50843" lon="3.07208">
        <ele>283</ele>
        <time>2015-11-29T11:11:51Z</time>
      </trkpt>
      <trkpt lat="43.50842" lon="3.0721">
        <ele>281.5</ele>
        <time>2015-11-29T11:11:58Z</time>
      </trkpt>
      <trkpt lat="43.50841" lon="3.07211">
        <ele>280.5</ele>
        <time>2015-11-29T11:12:01Z</time>
      </trkpt>
      <trkpt lat="43.5084" lon="3.07213">
        <ele>279</ele>
        <time>2015-11-29T11:12:06Z</time>
      </trkpt>
      <trkpt lat="43.50839" lon="3.07215">
        <ele>277.5</ele>
        <time>2015-11-29T11:12:08Z</time>
      </trkpt>
      <trkpt lat="43.50838" lon="3.07215">
        <ele>277</ele>
        <time>2015-11-29T11:12:09Z</time>
      </trkpt>
      <trkpt lat="43.50837" lon="3.07216">
        <ele>276.5</ele>
        <time>2015-11-29T11:12:10Z</time>
      </trkpt>
      <trkpt lat="43.50836" lon="3.07216">
        <ele>276.5</ele>
        <time>2015-11-29T11:12:11Z</time>
      </trkpt>
      <trkpt lat="43.50835" lon="3.07216">
        <ele>276</ele>
        <time>2015-11-29T11:12:12Z</time>
      </trkpt>
      <trkpt lat="43.50833" lon="3.07217">
        <ele>274</ele>
        <time>2015-11-29T11:12:21Z</time>
      </trkpt>
      <trkpt lat="43.50832" lon="3.07217">
        <ele>273.5</ele>
        <time>2015-11-29T11:12:24Z</time>
      </trkpt>
      <trkpt lat="43.50831" lon="3.07216">
        <ele>272.5</ele>
        <time>2015-11-29T11:12:28Z</time>
      </trkpt>
      <trkpt lat="43.5083" lon="3.07215">
        <ele>272.5</ele>
        <time>2015-11-29T11:12:32Z</time>
      </trkpt>
      <trkpt lat="43.5083" lon="3.07214">
        <ele>273</ele>
        <time>2015-11-29T11:12:45Z</time>
      </trkpt>
      <trkpt lat="43.50829" lon="3.07215">
        <ele>271.5</ele>
        <time>2015-11-29T11:12:50Z</time>
      </trkpt>
      <trkpt lat="43.50827" lon="3.07215">
        <ele>271</ele>
        <time>2015-11-29T11:13:07Z</time>
      </trkpt>
      <trkpt lat="43.50827" lon="3.07215">
        <ele>272.5</ele>
        <time>2015-11-29T11:13:11Z</time>
      </trkpt>
      <trkpt lat="43.50828" lon="3.07216">
        <ele>273.5</ele>
        <time>2015-11-29T11:13:26Z</time>
      </trkpt>
      <trkpt lat="43.50828" lon="3.07213">
        <ele>275.5</ele>
        <time>2015-11-29T11:13:51Z</time>
      </trkpt>
      <trkpt lat="43.50827" lon="3.07212">
        <ele>274</ele>
        <time>2015-11-29T11:13:59Z</time>
      </trkpt>
      <trkpt lat="43.50827" lon="3.07211">
        <ele>275</ele>
        <time>2015-11-29T11:14:07Z</time>
      </trkpt>
      <trkpt lat="43.50827" lon="3.07211">
        <ele>275.5</ele>
        <time>2015-11-29T11:14:12Z</time>
      </trkpt>
      <trkpt lat="43.50824" lon="3.07211">
        <ele>271.5</ele>
        <time>2015-11-29T11:14:33Z</time>
      </trkpt>
      <trkpt lat="43.50824" lon="3.0721">
        <ele>271</ele>
        <time>2015-11-29T11:14:35Z</time>
      </trkpt>
      <trkpt lat="43.50824" lon="3.0721">
        <ele>272</ele>
        <time>2015-11-29T11:14:36Z</time>
      </trkpt>
      <trkpt lat="43.50824" lon="3.07209">
        <ele>272.5</ele>
        <time>2015-11-29T11:14:39Z</time>
      </trkpt>
      <trkpt lat="43.50824" lon="3.0721">
        <ele>272</ele>
        <time>2015-11-29T11:14:44Z</time>
      </trkpt>
      <trkpt lat="43.50824" lon="3.0721">
        <ele>272</ele>
        <time>2015-11-29T11:14:46Z</time>
      </trkpt>
      <trkpt lat="43.50824" lon="3.07211">
        <ele>271.5</ele>
        <time>2015-11-29T11:14:49Z</time>
      </trkpt>
      <trkpt lat="43.50825" lon="3.07211">
        <ele>272</ele>
        <time>2015-11-29T11:14:54Z</time>
      </trkpt>
      <trkpt lat="43.50825" lon="3.07212">
        <ele>272.5</ele>
        <time>2015-11-29T11:14:56Z</time>
      </trkpt>
      <trkpt lat="43.50825" lon="3.07212">
        <ele>272</ele>
        <time>2015-11-29T11:14:58Z</time>
      </trkpt>
      <trkpt lat="43.50825" lon="3.07212">
        <ele>272</ele>
        <time>2015-11-29T11:15:07Z</time>
      </trkpt>
      <trkpt lat="43.50824" lon="3.07212">
        <ele>271</ele>
        <time>2015-11-29T11:15:09Z</time>
      </trkpt>
      <trkpt lat="43.50825" lon="3.07212">
        <ele>272</ele>
        <time>2015-11-29T11:15:10Z</time>
      </trkpt>
      <trkpt lat="43.50824" lon="3.07212">
        <ele>270.5</ele>
        <time>2015-11-29T11:15:11Z</time>
      </trkpt>
      <trkpt lat="43.50824" lon="3.07212">
        <ele>270</ele>
        <time>2015-11-29T11:15:12Z</time>
      </trkpt>
      <trkpt lat="43.50825" lon="3.07212">
        <ele>271.5</ele>
        <time>2015-11-29T11:15:26Z</time>
      </trkpt>
      <trkpt lat="43.50823" lon="3.07213">
        <ele>269</ele>
        <time>2015-11-29T11:15:31Z</time>
      </trkpt>
      <trkpt lat="43.50823" lon="3.07214">
        <ele>267</ele>
        <time>2015-11-29T11:15:33Z</time>
      </trkpt>
      <trkpt lat="43.50821" lon="3.07214">
        <ele>265.5</ele>
        <time>2015-11-29T11:15:38Z</time>
      </trkpt>
      <trkpt lat="43.50822" lon="3.07218">
        <ele>265</ele>
        <time>2015-11-29T11:15:56Z</time>
      </trkpt>
      <trkpt lat="43.50822" lon="3.0722">
        <ele>265.5</ele>
        <time>2015-11-29T11:15:58Z</time>
      </trkpt>
      <trkpt lat="43.50822" lon="3.0722">
        <ele>266</ele>
        <time>2015-11-29T11:15:59Z</time>
      </trkpt>
      <trkpt lat="43.50822" lon="3.07222">
        <ele>265.5</ele>
        <time>2015-11-29T11:16:00Z</time>
      </trkpt>
      <trkpt lat="43.50822" lon="3.07224">
        <ele>265.5</ele>
        <time>2015-11-29T11:16:01Z</time>
      </trkpt>
      <trkpt lat="43.50822" lon="3.07228">
        <ele>263.5</ele>
        <time>2015-11-29T11:16:02Z</time>
      </trkpt>
      <trkpt lat="43.50822" lon="3.07241">
        <ele>260.5</ele>
        <time>2015-11-29T11:16:04Z</time>
      </trkpt>
      <trkpt lat="43.50822" lon="3.07249">
        <ele>260.5</ele>
        <time>2015-11-29T11:16:05Z</time>
      </trkpt>
      <trkpt lat="43.50822" lon="3.07257">
        <ele>259</ele>
        <time>2015-11-29T11:16:06Z</time>
      </trkpt>
      <trkpt lat="43.50821" lon="3.07266">
        <ele>257.5</ele>
        <time>2015-11-29T11:16:07Z</time>
      </trkpt>
      <trkpt lat="43.5082" lon="3.07276">
        <ele>256</ele>
        <time>2015-11-29T11:16:08Z</time>
      </trkpt>
      <trkpt lat="43.5082" lon="3.07285">
        <ele>254</ele>
        <time>2015-11-29T11:16:09Z</time>
      </trkpt>
      <trkpt lat="43.50818" lon="3.07293">
        <ele>253</ele>
        <time>2015-11-29T11:16:10Z</time>
      </trkpt>
      <trkpt lat="43.50818" lon="3.07301">
        <ele>252</ele>
        <time>2015-11-29T11:16:11Z</time>
      </trkpt>
      <trkpt lat="43.50818" lon="3.07307">
        <ele>252</ele>
        <time>2015-11-29T11:16:12Z</time>
      </trkpt>
      <trkpt lat="43.50819" lon="3.07313">
        <ele>252</ele>
        <time>2015-11-29T11:16:13Z</time>
      </trkpt>
      <trkpt lat="43.50819" lon="3.07319">
        <ele>251</ele>
        <time>2015-11-29T11:16:14Z</time>
      </trkpt>
      <trkpt lat="43.50818" lon="3.07326">
        <ele>251</ele>
        <time>2015-11-29T11:16:15Z</time>
      </trkpt>
      <trkpt lat="43.50818" lon="3.07335">
        <ele>250</ele>
        <time>2015-11-29T11:16:16Z</time>
      </trkpt>
      <trkpt lat="43.50819" lon="3.07343">
        <ele>251</ele>
        <time>2015-11-29T11:16:17Z</time>
      </trkpt>
      <trkpt lat="43.50819" lon="3.07352">
        <ele>250</ele>
        <time>2015-11-29T11:16:17Z</time>
      </trkpt>
      <trkpt lat="43.5082" lon="3.0736">
        <ele>250</ele>
        <time>2015-11-29T11:16:19Z</time>
      </trkpt>
      <trkpt lat="43.5082" lon="3.07367">
        <ele>249</ele>
        <time>2015-11-29T11:16:19Z</time>
      </trkpt>
      <trkpt lat="43.50822" lon="3.07373">
        <ele>249</ele>
        <time>2015-11-29T11:16:20Z</time>
      </trkpt>
      <trkpt lat="43.50824" lon="3.07378">
        <ele>250</ele>
        <time>2015-11-29T11:16:21Z</time>
      </trkpt>
      <trkpt lat="43.50826" lon="3.07382">
        <ele>250.5</ele>
        <time>2015-11-29T11:16:22Z</time>
      </trkpt>
      <trkpt lat="43.50825" lon="3.07389">
        <ele>251.5</ele>
        <time>2015-11-29T11:16:23Z</time>
      </trkpt>
      <trkpt lat="43.50825" lon="3.07395">
        <ele>251</ele>
        <time>2015-11-29T11:16:24Z</time>
      </trkpt>
      <trkpt lat="43.50827" lon="3.07398">
        <ele>251.5</ele>
        <time>2015-11-29T11:16:25Z</time>
      </trkpt>
      <trkpt lat="43.50829" lon="3.07402">
        <ele>251.5</ele>
        <time>2015-11-29T11:16:26Z</time>
      </trkpt>
      <trkpt lat="43.50829" lon="3.07406">
        <ele>250.5</ele>
        <time>2015-11-29T11:16:27Z</time>
      </trkpt>
      <trkpt lat="43.50829" lon="3.07409">
        <ele>249.5</ele>
        <time>2015-11-29T11:16:28Z</time>
      </trkpt>
      <trkpt lat="43.50829" lon="3.0741">
        <ele>249</ele>
        <time>2015-11-29T11:16:29Z</time>
      </trkpt>
      <trkpt lat="43.50831" lon="3.07411">
        <ele>249</ele>
        <time>2015-11-29T11:16:30Z</time>
      </trkpt>
      <trkpt lat="43.50833" lon="3.07409">
        <ele>249</ele>
        <time>2015-11-29T11:16:31Z</time>
      </trkpt>
      <trkpt lat="43.50835" lon="3.07406">
        <ele>249.5</ele>
        <time>2015-11-29T11:16:32Z</time>
      </trkpt>
      <trkpt lat="43.50835" lon="3.07405">
        <ele>248</ele>
        <time>2015-11-29T11:16:33Z</time>
      </trkpt>
      <trkpt lat="43.50836" lon="3.07404">
        <ele>249.5</ele>
        <time>2015-11-29T11:16:34Z</time>
      </trkpt>
      <trkpt lat="43.50836" lon="3.07402">
        <ele>248.5</ele>
        <time>2015-11-29T11:16:35Z</time>
      </trkpt>
      <trkpt lat="43.50835" lon="3.074">
        <ele>248</ele>
        <time>2015-11-29T11:16:36Z</time>
      </trkpt>
      <trkpt lat="43.50836" lon="3.07399">
        <ele>248</ele>
        <time>2015-11-29T11:16:38Z</time>
      </trkpt>
      <trkpt lat="43.50836" lon="3.07399">
        <ele>248</ele>
        <time>2015-11-29T11:16:38Z</time>
      </trkpt>
      <trkpt lat="43.50837" lon="3.07399">
        <ele>248</ele>
        <time>2015-11-29T11:16:39Z</time>
      </trkpt>
      <trkpt lat="43.50838" lon="3.07399">
        <ele>247</ele>
        <time>2015-11-29T11:16:40Z</time>
      </trkpt>
      <trkpt lat="43.5084" lon="3.07399">
        <ele>247.5</ele>
        <time>2015-11-29T11:16:41Z</time>
      </trkpt>
      <trkpt lat="43.5084" lon="3.07399">
        <ele>247</ele>
        <time>2015-11-29T11:16:42Z</time>
      </trkpt>
      <trkpt lat="43.5084" lon="3.07399">
        <ele>247.5</ele>
        <time>2015-11-29T11:16:49Z</time>
      </trkpt>
      <trkpt lat="43.5084" lon="3.07399">
        <ele>247.5</ele>
        <time>2015-11-29T11:16:51Z</time>
      </trkpt>
      <trkpt lat="43.50838" lon="3.07399">
        <ele>247.5</ele>
        <time>2015-11-29T11:16:52Z</time>
      </trkpt>
      <trkpt lat="43.50836" lon="3.07399">
        <ele>247</ele>
        <time>2015-11-29T11:16:53Z</time>
      </trkpt>
      <trkpt lat="43.50838" lon="3.074">
        <ele>247</ele>
        <time>2015-11-29T11:16:54Z</time>
      </trkpt>
      <trkpt lat="43.50839" lon="3.07401">
        <ele>247</ele>
        <time>2015-11-29T11:16:55Z</time>
      </trkpt>
      <trkpt lat="43.50839" lon="3.07402">
        <ele>245</ele>
        <time>2015-11-29T11:16:56Z</time>
      </trkpt>
      <trkpt lat="43.50839" lon="3.07402">
        <ele>246</ele>
        <time>2015-11-29T11:16:57Z</time>
      </trkpt>
      <trkpt lat="43.50839" lon="3.07402">
        <ele>246</ele>
        <time>2015-11-29T11:16:58Z</time>
      </trkpt>
      <trkpt lat="43.50841" lon="3.07403">
        <ele>247</ele>
        <time>2015-11-29T11:17:04Z</time>
      </trkpt>
      <trkpt lat="43.50842" lon="3.07403">
        <ele>247</ele>
        <time>2015-11-29T11:17:06Z</time>
      </trkpt>
      <trkpt lat="43.50843" lon="3.07402">
        <ele>247</ele>
        <time>2015-11-29T11:17:07Z</time>
      </trkpt>
      <trkpt lat="43.50844" lon="3.07403">
        <ele>247.5</ele>
        <time>2015-11-29T11:17:08Z</time>
      </trkpt>
      <trkpt lat="43.50843" lon="3.07405">
        <ele>247</ele>
        <time>2015-11-29T11:17:12Z</time>
      </trkpt>
      <trkpt lat="43.50844" lon="3.07402">
        <ele>244.5</ele>
        <time>2015-11-29T11:17:19Z</time>
      </trkpt>
      <trkpt lat="43.50846" lon="3.07404">
        <ele>243.5</ele>
        <time>2015-11-29T11:17:25Z</time>
      </trkpt>
      <trkpt lat="43.50846" lon="3.07409">
        <ele>242.5</ele>
        <time>2015-11-29T11:17:28Z</time>
      </trkpt>
      <trkpt lat="43.50845" lon="3.07413">
        <ele>242</ele>
        <time>2015-11-29T11:17:28Z</time>
      </trkpt>
      <trkpt lat="43.50845" lon="3.07419">
        <ele>240</ele>
        <time>2015-11-29T11:17:30Z</time>
      </trkpt>
      <trkpt lat="43.50844" lon="3.07426">
        <ele>239.5</ele>
        <time>2015-11-29T11:17:30Z</time>
      </trkpt>
      <trkpt lat="43.50843" lon="3.07434">
        <ele>239</ele>
        <time>2015-11-29T11:17:31Z</time>
      </trkpt>
      <trkpt lat="43.50844" lon="3.07443">
        <ele>239</ele>
        <time>2015-11-29T11:17:32Z</time>
      </trkpt>
      <trkpt lat="43.50844" lon="3.07453">
        <ele>239</ele>
        <time>2015-11-29T11:17:33Z</time>
      </trkpt>
      <trkpt lat="43.50844" lon="3.07461">
        <ele>239</ele>
        <time>2015-11-29T11:17:34Z</time>
      </trkpt>
      <trkpt lat="43.50851" lon="3.0748">
        <ele>239</ele>
        <time>2015-11-29T11:17:36Z</time>
      </trkpt>
      <trkpt lat="43.50849" lon="3.07492">
        <ele>238.5</ele>
        <time>2015-11-29T11:17:41Z</time>
      </trkpt>
      <trkpt lat="43.50847" lon="3.07495">
        <ele>238</ele>
        <time>2015-11-29T11:17:42Z</time>
      </trkpt>
      <trkpt lat="43.50847" lon="3.07498">
        <ele>238.5</ele>
        <time>2015-11-29T11:17:43Z</time>
      </trkpt>
      <trkpt lat="43.50846" lon="3.075">
        <ele>239</ele>
        <time>2015-11-29T11:17:44Z</time>
      </trkpt>
      <trkpt lat="43.50846" lon="3.07503">
        <ele>239</ele>
        <time>2015-11-29T11:17:45Z</time>
      </trkpt>
      <trkpt lat="43.50847" lon="3.07506">
        <ele>237</ele>
        <time>2015-11-29T11:17:46Z</time>
      </trkpt>
      <trkpt lat="43.50847" lon="3.07509">
        <ele>235.5</ele>
        <time>2015-11-29T11:17:47Z</time>
      </trkpt>
      <trkpt lat="43.50848" lon="3.07513">
        <ele>233</ele>
        <time>2015-11-29T11:17:48Z</time>
      </trkpt>
      <trkpt lat="43.50848" lon="3.07516">
        <ele>232</ele>
        <time>2015-11-29T11:17:49Z</time>
      </trkpt>
      <trkpt lat="43.50849" lon="3.0752">
        <ele>231</ele>
        <time>2015-11-29T11:17:50Z</time>
      </trkpt>
      <trkpt lat="43.50849" lon="3.07525">
        <ele>230</ele>
        <time>2015-11-29T11:17:51Z</time>
      </trkpt>
      <trkpt lat="43.5085" lon="3.07529">
        <ele>229.5</ele>
        <time>2015-11-29T11:17:52Z</time>
      </trkpt>
      <trkpt lat="43.50849" lon="3.07533">
        <ele>229.5</ele>
        <time>2015-11-29T11:17:53Z</time>
      </trkpt>
      <trkpt lat="43.50849" lon="3.07536">
        <ele>229</ele>
        <time>2015-11-29T11:17:54Z</time>
      </trkpt>
      <trkpt lat="43.50848" lon="3.07537">
        <ele>229</ele>
        <time>2015-11-29T11:17:55Z</time>
      </trkpt>
      <trkpt lat="43.50847" lon="3.07539">
        <ele>229</ele>
        <time>2015-11-29T11:17:56Z</time>
      </trkpt>
      <trkpt lat="43.50846" lon="3.07539">
        <ele>230</ele>
        <time>2015-11-29T11:17:57Z</time>
      </trkpt>
      <trkpt lat="43.50847" lon="3.0754">
        <ele>231</ele>
        <time>2015-11-29T11:17:58Z</time>
      </trkpt>
      <trkpt lat="43.50848" lon="3.07539">
        <ele>231.5</ele>
        <time>2015-11-29T11:17:59Z</time>
      </trkpt>
      <trkpt lat="43.50848" lon="3.07539">
        <ele>231.5</ele>
        <time>2015-11-29T11:18:01Z</time>
      </trkpt>
      <trkpt lat="43.50847" lon="3.07539">
        <ele>233</ele>
        <time>2015-11-29T11:18:03Z</time>
      </trkpt>
      <trkpt lat="43.50848" lon="3.07539">
        <ele>232.5</ele>
        <time>2015-11-29T11:18:04Z</time>
      </trkpt>
      <trkpt lat="43.50848" lon="3.07539">
        <ele>233</ele>
        <time>2015-11-29T11:18:05Z</time>
      </trkpt>
      <trkpt lat="43.50848" lon="3.0754">
        <ele>233.5</ele>
        <time>2015-11-29T11:18:06Z</time>
      </trkpt>
      <trkpt lat="43.50847" lon="3.07539">
        <ele>233.5</ele>
        <time>2015-11-29T11:18:07Z</time>
      </trkpt>
      <trkpt lat="43.50847" lon="3.07538">
        <ele>233</ele>
        <time>2015-11-29T11:18:08Z</time>
      </trkpt>
      <trkpt lat="43.50847" lon="3.07537">
        <ele>233</ele>
        <time>2015-11-29T11:18:09Z</time>
      </trkpt>
      <trkpt lat="43.50848" lon="3.07537">
        <ele>232.5</ele>
        <time>2015-11-29T11:18:10Z</time>
      </trkpt>
      <trkpt lat="43.50848" lon="3.07536">
        <ele>232</ele>
        <time>2015-11-29T11:18:11Z</time>
      </trkpt>
      <trkpt lat="43.50848" lon="3.07537">
        <ele>232</ele>
        <time>2015-11-29T11:18:13Z</time>
      </trkpt>
      <trkpt lat="43.50847" lon="3.07538">
        <ele>232</ele>
        <time>2015-11-29T11:18:15Z</time>
      </trkpt>
      <trkpt lat="43.50847" lon="3.07537">
        <ele>233</ele>
        <time>2015-11-29T11:18:17Z</time>
      </trkpt>
      <trkpt lat="43.50847" lon="3.07537">
        <ele>232</ele>
        <time>2015-11-29T11:18:21Z</time>
      </trkpt>
      <trkpt lat="43.50846" lon="3.07538">
        <ele>231.5</ele>
        <time>2015-11-29T11:18:24Z</time>
      </trkpt>
      <trkpt lat="43.50846" lon="3.07539">
        <ele>231.5</ele>
        <time>2015-11-29T11:18:28Z</time>
      </trkpt>
      <trkpt lat="43.50846" lon="3.0754">
        <ele>231.5</ele>
        <time>2015-11-29T11:18:32Z</time>
      </trkpt>
      <trkpt lat="43.50847" lon="3.0754">
        <ele>231</ele>
        <time>2015-11-29T11:18:36Z</time>
      </trkpt>
      <trkpt lat="43.50849" lon="3.07543">
        <ele>227</ele>
        <time>2015-11-29T11:18:42Z</time>
      </trkpt>
      <trkpt lat="43.50849" lon="3.07542">
        <ele>226.5</ele>
        <time>2015-11-29T11:18:44Z</time>
      </trkpt>
      <trkpt lat="43.50849" lon="3.07542">
        <ele>226</ele>
        <time>2015-11-29T11:18:48Z</time>
      </trkpt>
      <trkpt lat="43.50849" lon="3.0754">
        <ele>226</ele>
        <time>2015-11-29T11:18:50Z</time>
      </trkpt>
      <trkpt lat="43.5085" lon="3.0754">
        <ele>226</ele>
        <time>2015-11-29T11:18:51Z</time>
      </trkpt>
      <trkpt lat="43.5085" lon="3.0754">
        <ele>225.5</ele>
        <time>2015-11-29T11:18:54Z</time>
      </trkpt>
    </trkseg>
  </trk>
</gpx>